<?xml version="1.0" encoding="UTF-8" standalone="no" ?>
<gpx xmlns="http://www.topografix.com/GPX/1/1" xmlns:xsi="http://www.w3.org/2001/XMLSchema-instance" xsi:schemaLocation="http://www.topografix.com/GPX/1/1 http://www.topografix.com/GPX/1/1/gpx.xsd" version="1.1" creator="VisuGPX - https://www.visugpx.com">
  <metadata>
    <name>Canal du Midi : Carcassonne - Homps</name>
    <desc><![CDATA[Canal du Midi : Carcassonne - Homps]]></desc>
  </metadata>
  <trk>
    <name><![CDATA[Carcassonne - Homps]]></name>
    <desc><![CDATA[]]></desc>
    <trkseg>
      <trkpt lat="43.23226" lon="2.37458">
        <ele>93.8</ele>
        <time>2015-08-02T07:53:03.624Z</time>
      </trkpt>
      <trkpt lat="43.23226" lon="2.37458">
        <ele>93.8</ele>
        <time>2015-08-02T07:53:25.659Z</time>
      </trkpt>
      <trkpt lat="43.23217" lon="2.37448">
        <ele>105.3</ele>
        <time>2015-08-02T07:53:26.614Z</time>
      </trkpt>
      <trkpt lat="43.23217" lon="2.37448">
        <ele>105.3</ele>
        <time>2015-08-02T07:53:26.664Z</time>
      </trkpt>
      <trkpt lat="43.23216" lon="2.37447">
        <ele>105.4</ele>
        <time>2015-08-02T07:55:52.659Z</time>
      </trkpt>
      <trkpt lat="43.23216" lon="2.37447">
        <ele>105.2</ele>
        <time>2015-08-02T07:55:53.610Z</time>
      </trkpt>
      <trkpt lat="43.23224" lon="2.37453">
        <ele>103.9</ele>
        <time>2015-08-02T07:56:04.657Z</time>
      </trkpt>
      <trkpt lat="43.23224" lon="2.37453">
        <ele>103.9</ele>
        <time>2015-08-02T07:56:05.613Z</time>
      </trkpt>
      <trkpt lat="43.2323" lon="2.37459">
        <ele>101.6</ele>
        <time>2015-08-02T07:56:45.660Z</time>
      </trkpt>
      <trkpt lat="43.23231" lon="2.37459">
        <ele>101.4</ele>
        <time>2015-08-02T07:56:46.611Z</time>
      </trkpt>
      <trkpt lat="43.23239" lon="2.37457">
        <ele>100.2</ele>
        <time>2015-08-02T07:56:50.657Z</time>
      </trkpt>
      <trkpt lat="43.23242" lon="2.37456">
        <ele>99.7</ele>
        <time>2015-08-02T07:56:51.612Z</time>
      </trkpt>
      <trkpt lat="43.23248" lon="2.37453">
        <ele>99.1</ele>
        <time>2015-08-02T07:56:53.663Z</time>
      </trkpt>
      <trkpt lat="43.23252" lon="2.37452">
        <ele>98.9</ele>
        <time>2015-08-02T07:56:54.611Z</time>
      </trkpt>
      <trkpt lat="43.23258" lon="2.3745">
        <ele>98.9</ele>
        <time>2015-08-02T07:56:56.816Z</time>
      </trkpt>
      <trkpt lat="43.23261" lon="2.37449">
        <ele>98.5</ele>
        <time>2015-08-02T07:56:57.614Z</time>
      </trkpt>
      <trkpt lat="43.23268" lon="2.37446">
        <ele>97.7</ele>
        <time>2015-08-02T07:56:59.686Z</time>
      </trkpt>
      <trkpt lat="43.2327" lon="2.37445">
        <ele>97.7</ele>
        <time>2015-08-02T07:57:00.641Z</time>
      </trkpt>
      <trkpt lat="43.23277" lon="2.37439">
        <ele>97.5</ele>
        <time>2015-08-02T07:57:03.660Z</time>
      </trkpt>
      <trkpt lat="43.23279" lon="2.37437">
        <ele>97.5</ele>
        <time>2015-08-02T07:57:04.607Z</time>
      </trkpt>
      <trkpt lat="43.23286" lon="2.37432">
        <ele>98.4</ele>
        <time>2015-08-02T07:57:07.681Z</time>
      </trkpt>
      <trkpt lat="43.23288" lon="2.37431">
        <ele>98.7</ele>
        <time>2015-08-02T07:57:08.612Z</time>
      </trkpt>
      <trkpt lat="43.23294" lon="2.37426">
        <ele>101.8</ele>
        <time>2015-08-02T07:58:27.697Z</time>
      </trkpt>
      <trkpt lat="43.23302" lon="2.37421">
        <ele>102.8</ele>
        <time>2015-08-02T07:58:28.621Z</time>
      </trkpt>
      <trkpt lat="43.23308" lon="2.37415">
        <ele>103</ele>
        <time>2015-08-02T07:58:35.659Z</time>
      </trkpt>
      <trkpt lat="43.2331" lon="2.37413">
        <ele>103</ele>
        <time>2015-08-02T07:58:36.613Z</time>
      </trkpt>
      <trkpt lat="43.23316" lon="2.37409">
        <ele>103.2</ele>
        <time>2015-08-02T07:58:39.658Z</time>
      </trkpt>
      <trkpt lat="43.23319" lon="2.37408">
        <ele>103.5</ele>
        <time>2015-08-02T07:58:40.612Z</time>
      </trkpt>
      <trkpt lat="43.23326" lon="2.37402">
        <ele>104.2</ele>
        <time>2015-08-02T07:58:43.655Z</time>
      </trkpt>
      <trkpt lat="43.23328" lon="2.37401">
        <ele>104.6</ele>
        <time>2015-08-02T07:58:44.610Z</time>
      </trkpt>
      <trkpt lat="43.23334" lon="2.37397">
        <ele>105</ele>
        <time>2015-08-02T07:58:47.657Z</time>
      </trkpt>
      <trkpt lat="43.23337" lon="2.37395">
        <ele>104.8</ele>
        <time>2015-08-02T07:58:48.614Z</time>
      </trkpt>
      <trkpt lat="43.23343" lon="2.37391">
        <ele>104.8</ele>
        <time>2015-08-02T07:58:50.664Z</time>
      </trkpt>
      <trkpt lat="43.23346" lon="2.3739">
        <ele>104.6</ele>
        <time>2015-08-02T07:58:51.608Z</time>
      </trkpt>
      <trkpt lat="43.23354" lon="2.37386">
        <ele>104.4</ele>
        <time>2015-08-02T07:58:54.802Z</time>
      </trkpt>
      <trkpt lat="43.23357" lon="2.37384">
        <ele>104.1</ele>
        <time>2015-08-02T07:58:55.611Z</time>
      </trkpt>
      <trkpt lat="43.23363" lon="2.37381">
        <ele>104.1</ele>
        <time>2015-08-02T07:58:57.659Z</time>
      </trkpt>
      <trkpt lat="43.23366" lon="2.37379">
        <ele>105.2</ele>
        <time>2015-08-02T07:58:58.614Z</time>
      </trkpt>
      <trkpt lat="43.23371" lon="2.37375">
        <ele>105.5</ele>
        <time>2015-08-02T07:59:00.662Z</time>
      </trkpt>
      <trkpt lat="43.23375" lon="2.37373">
        <ele>105.9</ele>
        <time>2015-08-02T07:59:01.611Z</time>
      </trkpt>
      <trkpt lat="43.23381" lon="2.37369">
        <ele>105.9</ele>
        <time>2015-08-02T07:59:03.951Z</time>
      </trkpt>
      <trkpt lat="43.23384" lon="2.37368">
        <ele>105.7</ele>
        <time>2015-08-02T07:59:04.614Z</time>
      </trkpt>
      <trkpt lat="43.2339" lon="2.37364">
        <ele>106.5</ele>
        <time>2015-08-02T07:59:06.653Z</time>
      </trkpt>
      <trkpt lat="43.23393" lon="2.37363">
        <ele>107.1</ele>
        <time>2015-08-02T07:59:07.611Z</time>
      </trkpt>
      <trkpt lat="43.234" lon="2.3736">
        <ele>107.1</ele>
        <time>2015-08-02T07:59:10.686Z</time>
      </trkpt>
      <trkpt lat="43.23403" lon="2.37358">
        <ele>106.7</ele>
        <time>2015-08-02T07:59:11.620Z</time>
      </trkpt>
      <trkpt lat="43.2341" lon="2.37354">
        <ele>106.6</ele>
        <time>2015-08-02T07:59:14.011Z</time>
      </trkpt>
      <trkpt lat="43.23413" lon="2.37353">
        <ele>106.7</ele>
        <time>2015-08-02T07:59:14.612Z</time>
      </trkpt>
      <trkpt lat="43.23419" lon="2.37349">
        <ele>106.9</ele>
        <time>2015-08-02T07:59:16.665Z</time>
      </trkpt>
      <trkpt lat="43.23424" lon="2.37347">
        <ele>107.2</ele>
        <time>2015-08-02T07:59:17.609Z</time>
      </trkpt>
      <trkpt lat="43.2343" lon="2.37343">
        <ele>106.4</ele>
        <time>2015-08-02T07:59:19.660Z</time>
      </trkpt>
      <trkpt lat="43.23433" lon="2.37342">
        <ele>106.5</ele>
        <time>2015-08-02T07:59:20.626Z</time>
      </trkpt>
      <trkpt lat="43.23441" lon="2.37337">
        <ele>106.2</ele>
        <time>2015-08-02T07:59:23.662Z</time>
      </trkpt>
      <trkpt lat="43.23444" lon="2.37335">
        <ele>106.1</ele>
        <time>2015-08-02T07:59:24.609Z</time>
      </trkpt>
      <trkpt lat="43.2345" lon="2.37331">
        <ele>106.2</ele>
        <time>2015-08-02T07:59:26.667Z</time>
      </trkpt>
      <trkpt lat="43.23453" lon="2.37329">
        <ele>106.4</ele>
        <time>2015-08-02T07:59:27.610Z</time>
      </trkpt>
      <trkpt lat="43.23461" lon="2.37325">
        <ele>107.1</ele>
        <time>2015-08-02T07:59:29.676Z</time>
      </trkpt>
      <trkpt lat="43.23465" lon="2.37323">
        <ele>107.1</ele>
        <time>2015-08-02T07:59:30.623Z</time>
      </trkpt>
      <trkpt lat="43.23472" lon="2.3732">
        <ele>107.1</ele>
        <time>2015-08-02T07:59:32.662Z</time>
      </trkpt>
      <trkpt lat="43.23475" lon="2.37319">
        <ele>107.2</ele>
        <time>2015-08-02T07:59:33.610Z</time>
      </trkpt>
      <trkpt lat="43.23483" lon="2.37315">
        <ele>107.6</ele>
        <time>2015-08-02T07:59:36.666Z</time>
      </trkpt>
      <trkpt lat="43.23486" lon="2.37313">
        <ele>107.9</ele>
        <time>2015-08-02T07:59:37.610Z</time>
      </trkpt>
      <trkpt lat="43.23493" lon="2.3731">
        <ele>107.9</ele>
        <time>2015-08-02T07:59:39.658Z</time>
      </trkpt>
      <trkpt lat="43.23496" lon="2.37308">
        <ele>107.5</ele>
        <time>2015-08-02T07:59:40.606Z</time>
      </trkpt>
      <trkpt lat="43.23502" lon="2.37307">
        <ele>107</ele>
        <time>2015-08-02T07:59:42.662Z</time>
      </trkpt>
      <trkpt lat="43.23505" lon="2.37305">
        <ele>107.1</ele>
        <time>2015-08-02T07:59:43.609Z</time>
      </trkpt>
      <trkpt lat="43.23513" lon="2.37301">
        <ele>107.3</ele>
        <time>2015-08-02T07:59:46.684Z</time>
      </trkpt>
      <trkpt lat="43.23515" lon="2.37299">
        <ele>107.5</ele>
        <time>2015-08-02T07:59:47.620Z</time>
      </trkpt>
      <trkpt lat="43.23521" lon="2.37297">
        <ele>106.5</ele>
        <time>2015-08-02T07:59:49.652Z</time>
      </trkpt>
      <trkpt lat="43.23524" lon="2.37294">
        <ele>106.3</ele>
        <time>2015-08-02T07:59:50.611Z</time>
      </trkpt>
      <trkpt lat="43.2353" lon="2.37291">
        <ele>106.5</ele>
        <time>2015-08-02T07:59:52.653Z</time>
      </trkpt>
      <trkpt lat="43.23532" lon="2.3729">
        <ele>106.4</ele>
        <time>2015-08-02T07:59:53.608Z</time>
      </trkpt>
      <trkpt lat="43.23539" lon="2.37286">
        <ele>106.3</ele>
        <time>2015-08-02T07:59:55.653Z</time>
      </trkpt>
      <trkpt lat="43.23541" lon="2.37284">
        <ele>106.5</ele>
        <time>2015-08-02T07:59:56.609Z</time>
      </trkpt>
      <trkpt lat="43.23549" lon="2.37279">
        <ele>105.9</ele>
        <time>2015-08-02T07:59:59.659Z</time>
      </trkpt>
      <trkpt lat="43.23551" lon="2.37278">
        <ele>105.3</ele>
        <time>2015-08-02T08:00:00.613Z</time>
      </trkpt>
      <trkpt lat="43.23559" lon="2.37273">
        <ele>104.7</ele>
        <time>2015-08-02T08:00:03.658Z</time>
      </trkpt>
      <trkpt lat="43.23562" lon="2.37271">
        <ele>104.8</ele>
        <time>2015-08-02T08:00:04.613Z</time>
      </trkpt>
      <trkpt lat="43.23569" lon="2.37266">
        <ele>104.2</ele>
        <time>2015-08-02T08:00:07.668Z</time>
      </trkpt>
      <trkpt lat="43.23572" lon="2.37265">
        <ele>104.1</ele>
        <time>2015-08-02T08:00:08.617Z</time>
      </trkpt>
      <trkpt lat="43.23577" lon="2.37261">
        <ele>103.5</ele>
        <time>2015-08-02T08:00:10.664Z</time>
      </trkpt>
      <trkpt lat="43.2358" lon="2.37259">
        <ele>103.1</ele>
        <time>2015-08-02T08:00:11.619Z</time>
      </trkpt>
      <trkpt lat="43.23588" lon="2.37254">
        <ele>103.1</ele>
        <time>2015-08-02T08:00:14.664Z</time>
      </trkpt>
      <trkpt lat="43.2359" lon="2.37253">
        <ele>103.1</ele>
        <time>2015-08-02T08:00:15.609Z</time>
      </trkpt>
      <trkpt lat="43.23597" lon="2.37249">
        <ele>103</ele>
        <time>2015-08-02T08:00:18.661Z</time>
      </trkpt>
      <trkpt lat="43.23599" lon="2.37247">
        <ele>102.2</ele>
        <time>2015-08-02T08:00:19.612Z</time>
      </trkpt>
      <trkpt lat="43.23607" lon="2.37242">
        <ele>101.6</ele>
        <time>2015-08-02T08:00:22.664Z</time>
      </trkpt>
      <trkpt lat="43.2361" lon="2.3724">
        <ele>101.5</ele>
        <time>2015-08-02T08:00:23.608Z</time>
      </trkpt>
      <trkpt lat="43.23617" lon="2.37238">
        <ele>102.3</ele>
        <time>2015-08-02T08:00:25.653Z</time>
      </trkpt>
      <trkpt lat="43.2362" lon="2.37237">
        <ele>102.5</ele>
        <time>2015-08-02T08:00:26.614Z</time>
      </trkpt>
      <trkpt lat="43.23627" lon="2.37234">
        <ele>103.2</ele>
        <time>2015-08-02T08:00:28.685Z</time>
      </trkpt>
      <trkpt lat="43.2363" lon="2.37234">
        <ele>103.5</ele>
        <time>2015-08-02T08:00:29.644Z</time>
      </trkpt>
      <trkpt lat="43.23636" lon="2.37232">
        <ele>103.3</ele>
        <time>2015-08-02T08:00:31.658Z</time>
      </trkpt>
      <trkpt lat="43.2364" lon="2.37232">
        <ele>103</ele>
        <time>2015-08-02T08:00:32.616Z</time>
      </trkpt>
      <trkpt lat="43.23646" lon="2.37231">
        <ele>103.2</ele>
        <time>2015-08-02T08:00:34.660Z</time>
      </trkpt>
      <trkpt lat="43.2365" lon="2.3723">
        <ele>103.4</ele>
        <time>2015-08-02T08:00:35.612Z</time>
      </trkpt>
      <trkpt lat="43.23656" lon="2.3723">
        <ele>103.8</ele>
        <time>2015-08-02T08:00:37.650Z</time>
      </trkpt>
      <trkpt lat="43.2366" lon="2.37231">
        <ele>103.8</ele>
        <time>2015-08-02T08:00:38.617Z</time>
      </trkpt>
      <trkpt lat="43.23667" lon="2.37234">
        <ele>104</ele>
        <time>2015-08-02T08:00:40.645Z</time>
      </trkpt>
      <trkpt lat="43.23671" lon="2.37236">
        <ele>104.2</ele>
        <time>2015-08-02T08:00:41.608Z</time>
      </trkpt>
      <trkpt lat="43.23678" lon="2.37239">
        <ele>103.3</ele>
        <time>2015-08-02T08:00:43.659Z</time>
      </trkpt>
      <trkpt lat="43.2368" lon="2.37242">
        <ele>102.9</ele>
        <time>2015-08-02T08:00:44.609Z</time>
      </trkpt>
      <trkpt lat="43.23686" lon="2.37248">
        <ele>102.3</ele>
        <time>2015-08-02T08:00:46.651Z</time>
      </trkpt>
      <trkpt lat="43.2369" lon="2.37252">
        <ele>102.2</ele>
        <time>2015-08-02T08:00:47.612Z</time>
      </trkpt>
      <trkpt lat="43.23696" lon="2.37258">
        <ele>101.8</ele>
        <time>2015-08-02T08:00:49.658Z</time>
      </trkpt>
      <trkpt lat="43.23699" lon="2.3726">
        <ele>101.6</ele>
        <time>2015-08-02T08:00:50.631Z</time>
      </trkpt>
      <trkpt lat="43.23705" lon="2.37267">
        <ele>101.8</ele>
        <time>2015-08-02T08:00:54.011Z</time>
      </trkpt>
      <trkpt lat="43.23706" lon="2.37269">
        <ele>102.1</ele>
        <time>2015-08-02T08:00:54.611Z</time>
      </trkpt>
      <trkpt lat="43.2371" lon="2.37276">
        <ele>102.8</ele>
        <time>2015-08-02T08:00:57.654Z</time>
      </trkpt>
      <trkpt lat="43.23713" lon="2.3728">
        <ele>102.1</ele>
        <time>2015-08-02T08:00:58.607Z</time>
      </trkpt>
      <trkpt lat="43.23719" lon="2.37286">
        <ele>103.6</ele>
        <time>2015-08-02T08:01:01.658Z</time>
      </trkpt>
      <trkpt lat="43.23721" lon="2.37288">
        <ele>103.6</ele>
        <time>2015-08-02T08:01:02.617Z</time>
      </trkpt>
      <trkpt lat="43.23727" lon="2.37296">
        <ele>104.5</ele>
        <time>2015-08-02T08:01:06.682Z</time>
      </trkpt>
      <trkpt lat="43.23728" lon="2.37298">
        <ele>104.5</ele>
        <time>2015-08-02T08:01:07.619Z</time>
      </trkpt>
      <trkpt lat="43.23732" lon="2.37308">
        <ele>104.5</ele>
        <time>2015-08-02T08:01:15.643Z</time>
      </trkpt>
      <trkpt lat="43.23733" lon="2.37309">
        <ele>104.2</ele>
        <time>2015-08-02T08:01:16.608Z</time>
      </trkpt>
      <trkpt lat="43.23735" lon="2.37311">
        <ele>103.7</ele>
        <time>2015-08-02T08:01:28.650Z</time>
      </trkpt>
      <trkpt lat="43.23749" lon="2.3732">
        <ele>99.5</ele>
        <time>2015-08-02T08:01:29.608Z</time>
      </trkpt>
      <trkpt lat="43.23749" lon="2.3732">
        <ele>99.5</ele>
        <time>2015-08-02T08:01:29.647Z</time>
      </trkpt>
      <trkpt lat="43.23753" lon="2.37323">
        <ele>98.4</ele>
        <time>2015-08-02T08:01:38.688Z</time>
      </trkpt>
      <trkpt lat="43.23761" lon="2.37328">
        <ele>98.8</ele>
        <time>2015-08-02T08:01:39.611Z</time>
      </trkpt>
      <trkpt lat="43.23766" lon="2.37335">
        <ele>98.8</ele>
        <time>2015-08-02T08:01:43.653Z</time>
      </trkpt>
      <trkpt lat="43.23769" lon="2.37338">
        <ele>99.3</ele>
        <time>2015-08-02T08:01:44.612Z</time>
      </trkpt>
      <trkpt lat="43.23775" lon="2.37344">
        <ele>100.3</ele>
        <time>2015-08-02T08:01:46.654Z</time>
      </trkpt>
      <trkpt lat="43.23776" lon="2.37346">
        <ele>100.8</ele>
        <time>2015-08-02T08:01:47.610Z</time>
      </trkpt>
      <trkpt lat="43.23781" lon="2.37356">
        <ele>103.7</ele>
        <time>2015-08-02T08:01:51.663Z</time>
      </trkpt>
      <trkpt lat="43.23781" lon="2.37357">
        <ele>104.4</ele>
        <time>2015-08-02T08:01:52.610Z</time>
      </trkpt>
      <trkpt lat="43.23784" lon="2.37369">
        <ele>107.5</ele>
        <time>2015-08-02T08:01:59.646Z</time>
      </trkpt>
      <trkpt lat="43.23785" lon="2.37371">
        <ele>107.7</ele>
        <time>2015-08-02T08:02:00.608Z</time>
      </trkpt>
      <trkpt lat="43.23788" lon="2.37381">
        <ele>109.8</ele>
        <time>2015-08-02T08:02:06.680Z</time>
      </trkpt>
      <trkpt lat="43.23789" lon="2.37383">
        <ele>110</ele>
        <time>2015-08-02T08:02:07.613Z</time>
      </trkpt>
      <trkpt lat="43.23792" lon="2.37392">
        <ele>111.3</ele>
        <time>2015-08-02T08:02:13.662Z</time>
      </trkpt>
      <trkpt lat="43.23792" lon="2.37395">
        <ele>111.5</ele>
        <time>2015-08-02T08:02:14.612Z</time>
      </trkpt>
      <trkpt lat="43.23795" lon="2.37405">
        <ele>111.6</ele>
        <time>2015-08-02T08:02:17.734Z</time>
      </trkpt>
      <trkpt lat="43.23796" lon="2.37408">
        <ele>111.5</ele>
        <time>2015-08-02T08:02:18.609Z</time>
      </trkpt>
      <trkpt lat="43.23801" lon="2.37418">
        <ele>111.4</ele>
        <time>2015-08-02T08:02:21.660Z</time>
      </trkpt>
      <trkpt lat="43.23802" lon="2.37422">
        <ele>111.2</ele>
        <time>2015-08-02T08:02:22.609Z</time>
      </trkpt>
      <trkpt lat="43.23806" lon="2.3743">
        <ele>111</ele>
        <time>2015-08-02T08:02:24.654Z</time>
      </trkpt>
      <trkpt lat="43.23807" lon="2.37434">
        <ele>110.6</ele>
        <time>2015-08-02T08:02:25.624Z</time>
      </trkpt>
      <trkpt lat="43.23811" lon="2.37443">
        <ele>111.3</ele>
        <time>2015-08-02T08:02:27.812Z</time>
      </trkpt>
      <trkpt lat="43.23813" lon="2.37448">
        <ele>111.7</ele>
        <time>2015-08-02T08:02:28.621Z</time>
      </trkpt>
      <trkpt lat="43.23817" lon="2.37458">
        <ele>111.6</ele>
        <time>2015-08-02T08:02:30.662Z</time>
      </trkpt>
      <trkpt lat="43.23821" lon="2.37466">
        <ele>109.2</ele>
        <time>2015-08-02T08:02:31.614Z</time>
      </trkpt>
      <trkpt lat="43.23824" lon="2.37473">
        <ele>108.2</ele>
        <time>2015-08-02T08:02:32.665Z</time>
      </trkpt>
      <trkpt lat="43.23828" lon="2.37479">
        <ele>106.9</ele>
        <time>2015-08-02T08:02:33.614Z</time>
      </trkpt>
      <trkpt lat="43.23831" lon="2.37483">
        <ele>106.3</ele>
        <time>2015-08-02T08:02:34.654Z</time>
      </trkpt>
      <trkpt lat="43.23834" lon="2.37489">
        <ele>105.4</ele>
        <time>2015-08-02T08:02:35.615Z</time>
      </trkpt>
      <trkpt lat="43.23839" lon="2.37498">
        <ele>104.1</ele>
        <time>2015-08-02T08:02:37.654Z</time>
      </trkpt>
      <trkpt lat="43.2384" lon="2.37501">
        <ele>103.4</ele>
        <time>2015-08-02T08:02:38.616Z</time>
      </trkpt>
      <trkpt lat="43.23848" lon="2.37507">
        <ele>103.7</ele>
        <time>2015-08-02T08:02:42.653Z</time>
      </trkpt>
      <trkpt lat="43.23849" lon="2.37508">
        <ele>103.7</ele>
        <time>2015-08-02T08:02:43.613Z</time>
      </trkpt>
      <trkpt lat="43.23849" lon="2.37508">
        <ele>103.7</ele>
        <time>2015-08-02T08:02:43.662Z</time>
      </trkpt>
      <trkpt lat="43.23853" lon="2.3751">
        <ele>104.4</ele>
        <time>2015-08-02T08:03:01.660Z</time>
      </trkpt>
      <trkpt lat="43.23856" lon="2.37513">
        <ele>100</ele>
        <time>2015-08-02T08:03:02.611Z</time>
      </trkpt>
      <trkpt lat="43.23857" lon="2.37516">
        <ele>100.2</ele>
        <time>2015-08-02T08:03:05.672Z</time>
      </trkpt>
      <trkpt lat="43.23857" lon="2.37517">
        <ele>100.3</ele>
        <time>2015-08-02T08:03:06.622Z</time>
      </trkpt>
      <trkpt lat="43.2386" lon="2.37524">
        <ele>103.4</ele>
        <time>2015-08-02T08:03:15.677Z</time>
      </trkpt>
      <trkpt lat="43.2386" lon="2.37525">
        <ele>103.6</ele>
        <time>2015-08-02T08:03:16.641Z</time>
      </trkpt>
      <trkpt lat="43.23861" lon="2.3753">
        <ele>103.8</ele>
        <time>2015-08-02T08:05:18.642Z</time>
      </trkpt>
      <trkpt lat="43.23864" lon="2.37541">
        <ele>97.4</ele>
        <time>2015-08-02T08:05:19.608Z</time>
      </trkpt>
      <trkpt lat="43.23865" lon="2.37551">
        <ele>97.3</ele>
        <time>2015-08-02T08:05:23.653Z</time>
      </trkpt>
      <trkpt lat="43.23866" lon="2.37554">
        <ele>97.3</ele>
        <time>2015-08-02T08:05:24.619Z</time>
      </trkpt>
      <trkpt lat="43.23871" lon="2.37564">
        <ele>97.1</ele>
        <time>2015-08-02T08:05:28.673Z</time>
      </trkpt>
      <trkpt lat="43.23872" lon="2.37566">
        <ele>97</ele>
        <time>2015-08-02T08:05:29.619Z</time>
      </trkpt>
      <trkpt lat="43.23876" lon="2.37576">
        <ele>97.3</ele>
        <time>2015-08-02T08:05:33.651Z</time>
      </trkpt>
      <trkpt lat="43.23877" lon="2.37577">
        <ele>97.5</ele>
        <time>2015-08-02T08:05:34.610Z</time>
      </trkpt>
      <trkpt lat="43.23881" lon="2.37586">
        <ele>98.6</ele>
        <time>2015-08-02T08:05:38.654Z</time>
      </trkpt>
      <trkpt lat="43.23882" lon="2.37588">
        <ele>98.8</ele>
        <time>2015-08-02T08:05:39.613Z</time>
      </trkpt>
      <trkpt lat="43.23887" lon="2.37597">
        <ele>99.2</ele>
        <time>2015-08-02T08:05:43.651Z</time>
      </trkpt>
      <trkpt lat="43.23888" lon="2.37598">
        <ele>99.6</ele>
        <time>2015-08-02T08:05:44.612Z</time>
      </trkpt>
      <trkpt lat="43.23892" lon="2.37606">
        <ele>100.7</ele>
        <time>2015-08-02T08:05:48.688Z</time>
      </trkpt>
      <trkpt lat="43.23894" lon="2.37609">
        <ele>101.3</ele>
        <time>2015-08-02T08:05:49.622Z</time>
      </trkpt>
      <trkpt lat="43.23899" lon="2.37617">
        <ele>103.2</ele>
        <time>2015-08-02T08:05:53.661Z</time>
      </trkpt>
      <trkpt lat="43.23901" lon="2.3762">
        <ele>104.1</ele>
        <time>2015-08-02T08:05:54.609Z</time>
      </trkpt>
      <trkpt lat="43.23905" lon="2.37629">
        <ele>106.3</ele>
        <time>2015-08-02T08:05:57.650Z</time>
      </trkpt>
      <trkpt lat="43.23906" lon="2.37631">
        <ele>107</ele>
        <time>2015-08-02T08:05:58.608Z</time>
      </trkpt>
      <trkpt lat="43.23911" lon="2.37642">
        <ele>110</ele>
        <time>2015-08-02T08:06:03.651Z</time>
      </trkpt>
      <trkpt lat="43.23911" lon="2.37643">
        <ele>110.4</ele>
        <time>2015-08-02T08:06:04.610Z</time>
      </trkpt>
      <trkpt lat="43.23912" lon="2.37643">
        <ele>109.9</ele>
        <time>2015-08-02T08:06:13.652Z</time>
      </trkpt>
      <trkpt lat="43.23914" lon="2.37644">
        <ele>109.9</ele>
        <time>2015-08-02T08:06:14.612Z</time>
      </trkpt>
      <trkpt lat="43.23914" lon="2.37644">
        <ele>109.9</ele>
        <time>2015-08-02T08:06:14.670Z</time>
      </trkpt>
      <trkpt lat="43.23915" lon="2.37645">
        <ele>110.1</ele>
        <time>2015-08-02T08:06:15.609Z</time>
      </trkpt>
      <trkpt lat="43.23918" lon="2.37648">
        <ele>110.9</ele>
        <time>2015-08-02T08:06:47.675Z</time>
      </trkpt>
      <trkpt lat="43.23923" lon="2.37651">
        <ele>110.7</ele>
        <time>2015-08-02T08:06:48.623Z</time>
      </trkpt>
      <trkpt lat="43.23925" lon="2.37662">
        <ele>109.6</ele>
        <time>2015-08-02T08:06:56.686Z</time>
      </trkpt>
      <trkpt lat="43.23925" lon="2.37664">
        <ele>109.6</ele>
        <time>2015-08-02T08:06:57.619Z</time>
      </trkpt>
      <trkpt lat="43.23929" lon="2.37674">
        <ele>109.8</ele>
        <time>2015-08-02T08:07:01.659Z</time>
      </trkpt>
      <trkpt lat="43.2393" lon="2.37677">
        <ele>110.1</ele>
        <time>2015-08-02T08:07:02.617Z</time>
      </trkpt>
      <trkpt lat="43.23934" lon="2.37686">
        <ele>110.6</ele>
        <time>2015-08-02T08:07:05.653Z</time>
      </trkpt>
      <trkpt lat="43.23935" lon="2.3769">
        <ele>110.9</ele>
        <time>2015-08-02T08:07:06.610Z</time>
      </trkpt>
      <trkpt lat="43.23938" lon="2.37697">
        <ele>111.4</ele>
        <time>2015-08-02T08:07:08.654Z</time>
      </trkpt>
      <trkpt lat="43.23939" lon="2.37701">
        <ele>111.8</ele>
        <time>2015-08-02T08:07:09.612Z</time>
      </trkpt>
      <trkpt lat="43.23944" lon="2.37712">
        <ele>113.4</ele>
        <time>2015-08-02T08:07:12.658Z</time>
      </trkpt>
      <trkpt lat="43.23945" lon="2.37715">
        <ele>113.9</ele>
        <time>2015-08-02T08:07:13.609Z</time>
      </trkpt>
      <trkpt lat="43.23949" lon="2.37726">
        <ele>115.4</ele>
        <time>2015-08-02T08:07:16.656Z</time>
      </trkpt>
      <trkpt lat="43.2395" lon="2.3773">
        <ele>115.6</ele>
        <time>2015-08-02T08:07:17.606Z</time>
      </trkpt>
      <trkpt lat="43.23954" lon="2.37737">
        <ele>115.9</ele>
        <time>2015-08-02T08:07:19.672Z</time>
      </trkpt>
      <trkpt lat="43.23956" lon="2.37742">
        <ele>116.1</ele>
        <time>2015-08-02T08:07:20.626Z</time>
      </trkpt>
      <trkpt lat="43.2396" lon="2.3775">
        <ele>116.8</ele>
        <time>2015-08-02T08:07:22.654Z</time>
      </trkpt>
      <trkpt lat="43.23962" lon="2.37754">
        <ele>117.3</ele>
        <time>2015-08-02T08:07:23.615Z</time>
      </trkpt>
      <trkpt lat="43.23966" lon="2.37762">
        <ele>117.6</ele>
        <time>2015-08-02T08:07:25.650Z</time>
      </trkpt>
      <trkpt lat="43.23968" lon="2.37766">
        <ele>118</ele>
        <time>2015-08-02T08:07:26.611Z</time>
      </trkpt>
      <trkpt lat="43.23972" lon="2.37775">
        <ele>119.5</ele>
        <time>2015-08-02T08:07:29.676Z</time>
      </trkpt>
      <trkpt lat="43.23974" lon="2.37779">
        <ele>120.1</ele>
        <time>2015-08-02T08:07:30.623Z</time>
      </trkpt>
      <trkpt lat="43.23977" lon="2.37786">
        <ele>121.2</ele>
        <time>2015-08-02T08:07:32.653Z</time>
      </trkpt>
      <trkpt lat="43.23979" lon="2.37789">
        <ele>121.9</ele>
        <time>2015-08-02T08:07:33.609Z</time>
      </trkpt>
      <trkpt lat="43.23982" lon="2.37797">
        <ele>123</ele>
        <time>2015-08-02T08:07:35.649Z</time>
      </trkpt>
      <trkpt lat="43.23983" lon="2.37802">
        <ele>123.6</ele>
        <time>2015-08-02T08:07:36.613Z</time>
      </trkpt>
      <trkpt lat="43.23987" lon="2.3781">
        <ele>124.3</ele>
        <time>2015-08-02T08:07:38.645Z</time>
      </trkpt>
      <trkpt lat="43.23988" lon="2.37814">
        <ele>124.7</ele>
        <time>2015-08-02T08:07:39.609Z</time>
      </trkpt>
      <trkpt lat="43.23991" lon="2.37824">
        <ele>125</ele>
        <time>2015-08-02T08:07:41.642Z</time>
      </trkpt>
      <trkpt lat="43.23992" lon="2.37827">
        <ele>125.3</ele>
        <time>2015-08-02T08:07:42.612Z</time>
      </trkpt>
      <trkpt lat="43.23995" lon="2.37835">
        <ele>125.7</ele>
        <time>2015-08-02T08:07:44.653Z</time>
      </trkpt>
      <trkpt lat="43.23997" lon="2.3784">
        <ele>125.8</ele>
        <time>2015-08-02T08:07:45.609Z</time>
      </trkpt>
      <trkpt lat="43.24" lon="2.37848">
        <ele>126.2</ele>
        <time>2015-08-02T08:07:47.661Z</time>
      </trkpt>
      <trkpt lat="43.24001" lon="2.3785">
        <ele>126.3</ele>
        <time>2015-08-02T08:07:48.611Z</time>
      </trkpt>
      <trkpt lat="43.24004" lon="2.37857">
        <ele>126.2</ele>
        <time>2015-08-02T08:07:50.721Z</time>
      </trkpt>
      <trkpt lat="43.24007" lon="2.3786">
        <ele>126.3</ele>
        <time>2015-08-02T08:07:51.620Z</time>
      </trkpt>
      <trkpt lat="43.24012" lon="2.3787">
        <ele>125.6</ele>
        <time>2015-08-02T08:07:53.678Z</time>
      </trkpt>
      <trkpt lat="43.24017" lon="2.37876">
        <ele>123.7</ele>
        <time>2015-08-02T08:07:54.611Z</time>
      </trkpt>
      <trkpt lat="43.24019" lon="2.3788">
        <ele>123.4</ele>
        <time>2015-08-02T08:07:55.650Z</time>
      </trkpt>
      <trkpt lat="43.24024" lon="2.37887">
        <ele>121.8</ele>
        <time>2015-08-02T08:07:56.612Z</time>
      </trkpt>
      <trkpt lat="43.24027" lon="2.37893">
        <ele>120.2</ele>
        <time>2015-08-02T08:07:57.654Z</time>
      </trkpt>
      <trkpt lat="43.2403" lon="2.37898">
        <ele>119.7</ele>
        <time>2015-08-02T08:07:58.609Z</time>
      </trkpt>
      <trkpt lat="43.24034" lon="2.37906">
        <ele>119.5</ele>
        <time>2015-08-02T08:08:00.657Z</time>
      </trkpt>
      <trkpt lat="43.24036" lon="2.37911">
        <ele>119</ele>
        <time>2015-08-02T08:08:01.623Z</time>
      </trkpt>
      <trkpt lat="43.24038" lon="2.37918">
        <ele>118.4</ele>
        <time>2015-08-02T08:08:04.051Z</time>
      </trkpt>
      <trkpt lat="43.2404" lon="2.37922">
        <ele>118.2</ele>
        <time>2015-08-02T08:08:04.612Z</time>
      </trkpt>
      <trkpt lat="43.24043" lon="2.37931">
        <ele>117.7</ele>
        <time>2015-08-02T08:08:06.660Z</time>
      </trkpt>
      <trkpt lat="43.24045" lon="2.37936">
        <ele>117.5</ele>
        <time>2015-08-02T08:08:07.612Z</time>
      </trkpt>
      <trkpt lat="43.24049" lon="2.37945">
        <ele>117.2</ele>
        <time>2015-08-02T08:08:10.683Z</time>
      </trkpt>
      <trkpt lat="43.2405" lon="2.37947">
        <ele>117.4</ele>
        <time>2015-08-02T08:08:11.623Z</time>
      </trkpt>
      <trkpt lat="43.24054" lon="2.37957">
        <ele>117.3</ele>
        <time>2015-08-02T08:08:14.654Z</time>
      </trkpt>
      <trkpt lat="43.24055" lon="2.37961">
        <ele>117.2</ele>
        <time>2015-08-02T08:08:15.610Z</time>
      </trkpt>
      <trkpt lat="43.24059" lon="2.3797">
        <ele>114.5</ele>
        <time>2015-08-02T08:08:18.654Z</time>
      </trkpt>
      <trkpt lat="43.2406" lon="2.37973">
        <ele>113.7</ele>
        <time>2015-08-02T08:08:19.623Z</time>
      </trkpt>
      <trkpt lat="43.24064" lon="2.37982">
        <ele>112.3</ele>
        <time>2015-08-02T08:08:23.653Z</time>
      </trkpt>
      <trkpt lat="43.24065" lon="2.37984">
        <ele>111.7</ele>
        <time>2015-08-02T08:08:24.609Z</time>
      </trkpt>
      <trkpt lat="43.24068" lon="2.37994">
        <ele>110.4</ele>
        <time>2015-08-02T08:08:28.649Z</time>
      </trkpt>
      <trkpt lat="43.24069" lon="2.37996">
        <ele>110.3</ele>
        <time>2015-08-02T08:08:29.609Z</time>
      </trkpt>
      <trkpt lat="43.24071" lon="2.38007">
        <ele>108.7</ele>
        <time>2015-08-02T08:08:35.672Z</time>
      </trkpt>
      <trkpt lat="43.24072" lon="2.38008">
        <ele>108.3</ele>
        <time>2015-08-02T08:08:36.619Z</time>
      </trkpt>
      <trkpt lat="43.24072" lon="2.38008">
        <ele>108.3</ele>
        <time>2015-08-02T08:08:36.684Z</time>
      </trkpt>
      <trkpt lat="43.24073" lon="2.38008">
        <ele>108</ele>
        <time>2015-08-02T08:08:37.622Z</time>
      </trkpt>
      <trkpt lat="43.24078" lon="2.38012">
        <ele>106.9</ele>
        <time>2015-08-02T08:08:43.651Z</time>
      </trkpt>
      <trkpt lat="43.24079" lon="2.38014">
        <ele>106.7</ele>
        <time>2015-08-02T08:08:44.621Z</time>
      </trkpt>
      <trkpt lat="43.24084" lon="2.38023">
        <ele>106.4</ele>
        <time>2015-08-02T08:08:48.674Z</time>
      </trkpt>
      <trkpt lat="43.24085" lon="2.38025">
        <ele>106.2</ele>
        <time>2015-08-02T08:08:49.623Z</time>
      </trkpt>
      <trkpt lat="43.24091" lon="2.38033">
        <ele>106.1</ele>
        <time>2015-08-02T08:08:53.651Z</time>
      </trkpt>
      <trkpt lat="43.24092" lon="2.38034">
        <ele>106</ele>
        <time>2015-08-02T08:08:54.609Z</time>
      </trkpt>
      <trkpt lat="43.24093" lon="2.38034">
        <ele>106</ele>
        <time>2015-08-02T08:08:55.654Z</time>
      </trkpt>
      <trkpt lat="43.24094" lon="2.38034">
        <ele>105.9</ele>
        <time>2015-08-02T08:08:56.612Z</time>
      </trkpt>
      <trkpt lat="43.24098" lon="2.38039">
        <ele>105.7</ele>
        <time>2015-08-02T08:09:00.661Z</time>
      </trkpt>
      <trkpt lat="43.24099" lon="2.38041">
        <ele>105.8</ele>
        <time>2015-08-02T08:09:01.611Z</time>
      </trkpt>
      <trkpt lat="43.24105" lon="2.38049">
        <ele>105.9</ele>
        <time>2015-08-02T08:09:04.655Z</time>
      </trkpt>
      <trkpt lat="43.24108" lon="2.38052">
        <ele>106.2</ele>
        <time>2015-08-02T08:09:05.623Z</time>
      </trkpt>
      <trkpt lat="43.24114" lon="2.38059">
        <ele>106.9</ele>
        <time>2015-08-02T08:09:07.653Z</time>
      </trkpt>
      <trkpt lat="43.24116" lon="2.38062">
        <ele>107.3</ele>
        <time>2015-08-02T08:09:08.612Z</time>
      </trkpt>
      <trkpt lat="43.24121" lon="2.38068">
        <ele>108</ele>
        <time>2015-08-02T08:09:10.659Z</time>
      </trkpt>
      <trkpt lat="43.24124" lon="2.38071">
        <ele>108.4</ele>
        <time>2015-08-02T08:09:11.611Z</time>
      </trkpt>
      <trkpt lat="43.24128" lon="2.38078">
        <ele>108.9</ele>
        <time>2015-08-02T08:09:13.678Z</time>
      </trkpt>
      <trkpt lat="43.2413" lon="2.38082">
        <ele>108.8</ele>
        <time>2015-08-02T08:09:14.613Z</time>
      </trkpt>
      <trkpt lat="43.24137" lon="2.38088">
        <ele>107.6</ele>
        <time>2015-08-02T08:09:16.653Z</time>
      </trkpt>
      <trkpt lat="43.2414" lon="2.38091">
        <ele>107.1</ele>
        <time>2015-08-02T08:09:17.612Z</time>
      </trkpt>
      <trkpt lat="43.24145" lon="2.38096">
        <ele>106.4</ele>
        <time>2015-08-02T08:09:19.655Z</time>
      </trkpt>
      <trkpt lat="43.24147" lon="2.38099">
        <ele>106</ele>
        <time>2015-08-02T08:09:21.019Z</time>
      </trkpt>
      <trkpt lat="43.24153" lon="2.38107">
        <ele>105.3</ele>
        <time>2015-08-02T08:09:23.646Z</time>
      </trkpt>
      <trkpt lat="43.24154" lon="2.38109">
        <ele>105.3</ele>
        <time>2015-08-02T08:09:24.609Z</time>
      </trkpt>
      <trkpt lat="43.2416" lon="2.38114">
        <ele>104.2</ele>
        <time>2015-08-02T08:09:27.660Z</time>
      </trkpt>
      <trkpt lat="43.24161" lon="2.38117">
        <ele>103.8</ele>
        <time>2015-08-02T08:09:28.609Z</time>
      </trkpt>
      <trkpt lat="43.24168" lon="2.38124">
        <ele>102.7</ele>
        <time>2015-08-02T08:09:31.655Z</time>
      </trkpt>
      <trkpt lat="43.2417" lon="2.38126">
        <ele>102.1</ele>
        <time>2015-08-02T08:09:32.614Z</time>
      </trkpt>
      <trkpt lat="43.24177" lon="2.3813">
        <ele>100.6</ele>
        <time>2015-08-02T08:09:34.677Z</time>
      </trkpt>
      <trkpt lat="43.2418" lon="2.38133">
        <ele>99.8</ele>
        <time>2015-08-02T08:09:35.620Z</time>
      </trkpt>
      <trkpt lat="43.24184" lon="2.38139">
        <ele>98.7</ele>
        <time>2015-08-02T08:09:37.656Z</time>
      </trkpt>
      <trkpt lat="43.24187" lon="2.38142">
        <ele>98.1</ele>
        <time>2015-08-02T08:09:38.614Z</time>
      </trkpt>
      <trkpt lat="43.24191" lon="2.38148">
        <ele>96.8</ele>
        <time>2015-08-02T08:09:40.662Z</time>
      </trkpt>
      <trkpt lat="43.24194" lon="2.3815">
        <ele>96.2</ele>
        <time>2015-08-02T08:09:41.611Z</time>
      </trkpt>
      <trkpt lat="43.24198" lon="2.38158">
        <ele>95.2</ele>
        <time>2015-08-02T08:09:43.699Z</time>
      </trkpt>
      <trkpt lat="43.242" lon="2.38161">
        <ele>94.7</ele>
        <time>2015-08-02T08:09:44.612Z</time>
      </trkpt>
      <trkpt lat="43.24205" lon="2.38168">
        <ele>94</ele>
        <time>2015-08-02T08:09:46.649Z</time>
      </trkpt>
      <trkpt lat="43.24206" lon="2.38172">
        <ele>93.6</ele>
        <time>2015-08-02T08:09:47.610Z</time>
      </trkpt>
      <trkpt lat="43.2421" lon="2.3818">
        <ele>92.4</ele>
        <time>2015-08-02T08:09:49.651Z</time>
      </trkpt>
      <trkpt lat="43.24212" lon="2.38183">
        <ele>91.8</ele>
        <time>2015-08-02T08:09:50.622Z</time>
      </trkpt>
      <trkpt lat="43.24217" lon="2.3819">
        <ele>90.3</ele>
        <time>2015-08-02T08:09:53.652Z</time>
      </trkpt>
      <trkpt lat="43.24219" lon="2.38192">
        <ele>89.9</ele>
        <time>2015-08-02T08:09:54.608Z</time>
      </trkpt>
      <trkpt lat="43.24225" lon="2.38201">
        <ele>88.4</ele>
        <time>2015-08-02T08:09:58.642Z</time>
      </trkpt>
      <trkpt lat="43.24227" lon="2.38203">
        <ele>88</ele>
        <time>2015-08-02T08:09:59.609Z</time>
      </trkpt>
      <trkpt lat="43.24232" lon="2.3821">
        <ele>86.9</ele>
        <time>2015-08-02T08:10:02.869Z</time>
      </trkpt>
      <trkpt lat="43.24234" lon="2.38212">
        <ele>86.5</ele>
        <time>2015-08-02T08:10:03.609Z</time>
      </trkpt>
      <trkpt lat="43.24239" lon="2.3822">
        <ele>85.9</ele>
        <time>2015-08-02T08:10:06.653Z</time>
      </trkpt>
      <trkpt lat="43.24241" lon="2.38223">
        <ele>85.8</ele>
        <time>2015-08-02T08:10:07.609Z</time>
      </trkpt>
      <trkpt lat="43.24244" lon="2.38231">
        <ele>86</ele>
        <time>2015-08-02T08:10:09.653Z</time>
      </trkpt>
      <trkpt lat="43.24246" lon="2.38234">
        <ele>85.8</ele>
        <time>2015-08-02T08:10:10.619Z</time>
      </trkpt>
      <trkpt lat="43.24249" lon="2.3824">
        <ele>86.1</ele>
        <time>2015-08-02T08:10:12.993Z</time>
      </trkpt>
      <trkpt lat="43.24251" lon="2.38244">
        <ele>86.3</ele>
        <time>2015-08-02T08:10:13.608Z</time>
      </trkpt>
      <trkpt lat="43.24256" lon="2.38251">
        <ele>86.8</ele>
        <time>2015-08-02T08:10:15.651Z</time>
      </trkpt>
      <trkpt lat="43.24257" lon="2.38254">
        <ele>86.8</ele>
        <time>2015-08-02T08:10:16.610Z</time>
      </trkpt>
      <trkpt lat="43.24262" lon="2.38264">
        <ele>87.7</ele>
        <time>2015-08-02T08:10:19.681Z</time>
      </trkpt>
      <trkpt lat="43.24264" lon="2.38267">
        <ele>87.8</ele>
        <time>2015-08-02T08:10:20.639Z</time>
      </trkpt>
      <trkpt lat="43.24269" lon="2.38277">
        <ele>88.4</ele>
        <time>2015-08-02T08:10:23.650Z</time>
      </trkpt>
      <trkpt lat="43.24271" lon="2.38281">
        <ele>89</ele>
        <time>2015-08-02T08:10:24.609Z</time>
      </trkpt>
      <trkpt lat="43.24275" lon="2.38288">
        <ele>89.8</ele>
        <time>2015-08-02T08:10:26.654Z</time>
      </trkpt>
      <trkpt lat="43.24276" lon="2.38292">
        <ele>89.9</ele>
        <time>2015-08-02T08:10:27.611Z</time>
      </trkpt>
      <trkpt lat="43.2428" lon="2.38303">
        <ele>90.7</ele>
        <time>2015-08-02T08:10:30.657Z</time>
      </trkpt>
      <trkpt lat="43.2428" lon="2.38306">
        <ele>90.9</ele>
        <time>2015-08-02T08:10:31.612Z</time>
      </trkpt>
      <trkpt lat="43.24285" lon="2.38313">
        <ele>92.2</ele>
        <time>2015-08-02T08:10:33.665Z</time>
      </trkpt>
      <trkpt lat="43.24286" lon="2.38317">
        <ele>92.9</ele>
        <time>2015-08-02T08:10:34.609Z</time>
      </trkpt>
      <trkpt lat="43.2429" lon="2.38325">
        <ele>94.7</ele>
        <time>2015-08-02T08:10:36.651Z</time>
      </trkpt>
      <trkpt lat="43.24292" lon="2.38328">
        <ele>95.9</ele>
        <time>2015-08-02T08:10:37.613Z</time>
      </trkpt>
      <trkpt lat="43.24296" lon="2.38336">
        <ele>97.6</ele>
        <time>2015-08-02T08:10:39.656Z</time>
      </trkpt>
      <trkpt lat="43.24297" lon="2.3834">
        <ele>98.4</ele>
        <time>2015-08-02T08:10:40.609Z</time>
      </trkpt>
      <trkpt lat="43.243" lon="2.38347">
        <ele>99.8</ele>
        <time>2015-08-02T08:10:42.678Z</time>
      </trkpt>
      <trkpt lat="43.24302" lon="2.38351">
        <ele>100.4</ele>
        <time>2015-08-02T08:10:43.622Z</time>
      </trkpt>
      <trkpt lat="43.24305" lon="2.38359">
        <ele>101.6</ele>
        <time>2015-08-02T08:10:45.657Z</time>
      </trkpt>
      <trkpt lat="43.24306" lon="2.38362">
        <ele>102.8</ele>
        <time>2015-08-02T08:10:46.615Z</time>
      </trkpt>
      <trkpt lat="43.24312" lon="2.38371">
        <ele>105.3</ele>
        <time>2015-08-02T08:10:49.650Z</time>
      </trkpt>
      <trkpt lat="43.24313" lon="2.38374">
        <ele>106.7</ele>
        <time>2015-08-02T08:10:50.611Z</time>
      </trkpt>
      <trkpt lat="43.24318" lon="2.38384">
        <ele>109.6</ele>
        <time>2015-08-02T08:10:53.655Z</time>
      </trkpt>
      <trkpt lat="43.24318" lon="2.38387">
        <ele>110.7</ele>
        <time>2015-08-02T08:10:54.609Z</time>
      </trkpt>
      <trkpt lat="43.24323" lon="2.38397">
        <ele>113.3</ele>
        <time>2015-08-02T08:10:57.671Z</time>
      </trkpt>
      <trkpt lat="43.24324" lon="2.384">
        <ele>114</ele>
        <time>2015-08-02T08:10:58.620Z</time>
      </trkpt>
      <trkpt lat="43.24327" lon="2.38408">
        <ele>115</ele>
        <time>2015-08-02T08:11:01.656Z</time>
      </trkpt>
      <trkpt lat="43.24328" lon="2.38411">
        <ele>115.6</ele>
        <time>2015-08-02T08:11:02.611Z</time>
      </trkpt>
      <trkpt lat="43.24331" lon="2.38422">
        <ele>117.2</ele>
        <time>2015-08-02T08:11:05.649Z</time>
      </trkpt>
      <trkpt lat="43.24331" lon="2.38426">
        <ele>117.7</ele>
        <time>2015-08-02T08:11:06.619Z</time>
      </trkpt>
      <trkpt lat="43.24333" lon="2.38435">
        <ele>117.9</ele>
        <time>2015-08-02T08:11:08.648Z</time>
      </trkpt>
      <trkpt lat="43.24335" lon="2.3844">
        <ele>117.6</ele>
        <time>2015-08-02T08:11:09.612Z</time>
      </trkpt>
      <trkpt lat="43.24338" lon="2.38451">
        <ele>116.7</ele>
        <time>2015-08-02T08:11:11.653Z</time>
      </trkpt>
      <trkpt lat="43.24339" lon="2.38456">
        <ele>116.5</ele>
        <time>2015-08-02T08:11:12.609Z</time>
      </trkpt>
      <trkpt lat="43.24341" lon="2.38466">
        <ele>114.9</ele>
        <time>2015-08-02T08:11:14.657Z</time>
      </trkpt>
      <trkpt lat="43.24342" lon="2.38472">
        <ele>114.2</ele>
        <time>2015-08-02T08:11:15.623Z</time>
      </trkpt>
      <trkpt lat="43.24344" lon="2.38482">
        <ele>113.1</ele>
        <time>2015-08-02T08:11:17.646Z</time>
      </trkpt>
      <trkpt lat="43.24344" lon="2.38487">
        <ele>112.8</ele>
        <time>2015-08-02T08:11:18.611Z</time>
      </trkpt>
      <trkpt lat="43.24345" lon="2.38496">
        <ele>111.8</ele>
        <time>2015-08-02T08:11:20.659Z</time>
      </trkpt>
      <trkpt lat="43.24346" lon="2.38501">
        <ele>111.4</ele>
        <time>2015-08-02T08:11:21.606Z</time>
      </trkpt>
      <trkpt lat="43.24347" lon="2.38512">
        <ele>108.4</ele>
        <time>2015-08-02T08:11:24.693Z</time>
      </trkpt>
      <trkpt lat="43.24347" lon="2.38516">
        <ele>107.9</ele>
        <time>2015-08-02T08:11:25.898Z</time>
      </trkpt>
      <trkpt lat="43.24347" lon="2.38528">
        <ele>107</ele>
        <time>2015-08-02T08:11:28.652Z</time>
      </trkpt>
      <trkpt lat="43.24347" lon="2.38532">
        <ele>106.7</ele>
        <time>2015-08-02T08:11:29.612Z</time>
      </trkpt>
      <trkpt lat="43.24348" lon="2.3854">
        <ele>104.5</ele>
        <time>2015-08-02T08:11:31.648Z</time>
      </trkpt>
      <trkpt lat="43.24348" lon="2.38544">
        <ele>104</ele>
        <time>2015-08-02T08:11:32.612Z</time>
      </trkpt>
      <trkpt lat="43.24348" lon="2.38553">
        <ele>103.2</ele>
        <time>2015-08-02T08:11:34.672Z</time>
      </trkpt>
      <trkpt lat="43.24349" lon="2.38558">
        <ele>102.9</ele>
        <time>2015-08-02T08:11:35.621Z</time>
      </trkpt>
      <trkpt lat="43.2435" lon="2.38567">
        <ele>102.3</ele>
        <time>2015-08-02T08:11:37.682Z</time>
      </trkpt>
      <trkpt lat="43.24351" lon="2.38571">
        <ele>102</ele>
        <time>2015-08-02T08:11:38.622Z</time>
      </trkpt>
      <trkpt lat="43.24351" lon="2.38582">
        <ele>101.5</ele>
        <time>2015-08-02T08:11:41.655Z</time>
      </trkpt>
      <trkpt lat="43.24351" lon="2.38586">
        <ele>101.4</ele>
        <time>2015-08-02T08:11:42.609Z</time>
      </trkpt>
      <trkpt lat="43.24351" lon="2.38598">
        <ele>100.9</ele>
        <time>2015-08-02T08:11:45.684Z</time>
      </trkpt>
      <trkpt lat="43.24351" lon="2.38602">
        <ele>100.7</ele>
        <time>2015-08-02T08:11:46.620Z</time>
      </trkpt>
      <trkpt lat="43.24352" lon="2.3861">
        <ele>100.4</ele>
        <time>2015-08-02T08:11:48.651Z</time>
      </trkpt>
      <trkpt lat="43.24352" lon="2.38614">
        <ele>100.3</ele>
        <time>2015-08-02T08:11:49.611Z</time>
      </trkpt>
      <trkpt lat="43.24353" lon="2.38623">
        <ele>100</ele>
        <time>2015-08-02T08:11:51.926Z</time>
      </trkpt>
      <trkpt lat="43.24353" lon="2.38627">
        <ele>99.8</ele>
        <time>2015-08-02T08:11:52.610Z</time>
      </trkpt>
      <trkpt lat="43.24353" lon="2.38636">
        <ele>99.6</ele>
        <time>2015-08-02T08:11:54.695Z</time>
      </trkpt>
      <trkpt lat="43.24353" lon="2.3864">
        <ele>99.5</ele>
        <time>2015-08-02T08:11:55.627Z</time>
      </trkpt>
      <trkpt lat="43.24353" lon="2.38649">
        <ele>99.4</ele>
        <time>2015-08-02T08:11:57.652Z</time>
      </trkpt>
      <trkpt lat="43.24354" lon="2.38653">
        <ele>99.2</ele>
        <time>2015-08-02T08:11:58.609Z</time>
      </trkpt>
      <trkpt lat="43.24355" lon="2.38662">
        <ele>98.6</ele>
        <time>2015-08-02T08:12:00.659Z</time>
      </trkpt>
      <trkpt lat="43.24355" lon="2.38667">
        <ele>98.2</ele>
        <time>2015-08-02T08:12:01.608Z</time>
      </trkpt>
      <trkpt lat="43.24355" lon="2.38675">
        <ele>97.9</ele>
        <time>2015-08-02T08:12:03.653Z</time>
      </trkpt>
      <trkpt lat="43.24355" lon="2.3868">
        <ele>97.7</ele>
        <time>2015-08-02T08:12:04.606Z</time>
      </trkpt>
      <trkpt lat="43.24356" lon="2.38689">
        <ele>97</ele>
        <time>2015-08-02T08:12:06.695Z</time>
      </trkpt>
      <trkpt lat="43.24356" lon="2.38693">
        <ele>96.8</ele>
        <time>2015-08-02T08:12:07.613Z</time>
      </trkpt>
      <trkpt lat="43.24356" lon="2.38702">
        <ele>96.2</ele>
        <time>2015-08-02T08:12:09.653Z</time>
      </trkpt>
      <trkpt lat="43.24356" lon="2.38706">
        <ele>96.1</ele>
        <time>2015-08-02T08:12:10.609Z</time>
      </trkpt>
      <trkpt lat="43.24355" lon="2.38719">
        <ele>95.7</ele>
        <time>2015-08-02T08:12:13.654Z</time>
      </trkpt>
      <trkpt lat="43.24355" lon="2.38722">
        <ele>95.6</ele>
        <time>2015-08-02T08:12:14.611Z</time>
      </trkpt>
      <trkpt lat="43.24352" lon="2.3873">
        <ele>95.8</ele>
        <time>2015-08-02T08:12:16.651Z</time>
      </trkpt>
      <trkpt lat="43.24351" lon="2.38734">
        <ele>95.9</ele>
        <time>2015-08-02T08:12:17.652Z</time>
      </trkpt>
      <trkpt lat="43.24348" lon="2.38743">
        <ele>96.4</ele>
        <time>2015-08-02T08:12:19.652Z</time>
      </trkpt>
      <trkpt lat="43.24347" lon="2.38748">
        <ele>96.3</ele>
        <time>2015-08-02T08:12:20.615Z</time>
      </trkpt>
      <trkpt lat="43.24345" lon="2.38756">
        <ele>96.8</ele>
        <time>2015-08-02T08:12:22.651Z</time>
      </trkpt>
      <trkpt lat="43.24344" lon="2.38761">
        <ele>97</ele>
        <time>2015-08-02T08:12:23.608Z</time>
      </trkpt>
      <trkpt lat="43.24342" lon="2.38769">
        <ele>97.3</ele>
        <time>2015-08-02T08:12:25.699Z</time>
      </trkpt>
      <trkpt lat="43.2434" lon="2.38773">
        <ele>97.5</ele>
        <time>2015-08-02T08:12:26.621Z</time>
      </trkpt>
      <trkpt lat="43.24337" lon="2.38781">
        <ele>97.9</ele>
        <time>2015-08-02T08:12:28.691Z</time>
      </trkpt>
      <trkpt lat="43.24336" lon="2.38785">
        <ele>98</ele>
        <time>2015-08-02T08:12:29.623Z</time>
      </trkpt>
      <trkpt lat="43.24332" lon="2.38793">
        <ele>98.1</ele>
        <time>2015-08-02T08:12:31.653Z</time>
      </trkpt>
      <trkpt lat="43.24331" lon="2.38797">
        <ele>98.1</ele>
        <time>2015-08-02T08:12:32.613Z</time>
      </trkpt>
      <trkpt lat="43.24327" lon="2.38805">
        <ele>98.1</ele>
        <time>2015-08-02T08:12:34.652Z</time>
      </trkpt>
      <trkpt lat="43.24325" lon="2.38809">
        <ele>98</ele>
        <time>2015-08-02T08:12:35.612Z</time>
      </trkpt>
      <trkpt lat="43.24322" lon="2.38817">
        <ele>97.9</ele>
        <time>2015-08-02T08:12:37.697Z</time>
      </trkpt>
      <trkpt lat="43.2432" lon="2.38821">
        <ele>98</ele>
        <time>2015-08-02T08:12:38.610Z</time>
      </trkpt>
      <trkpt lat="43.24317" lon="2.3883">
        <ele>98.2</ele>
        <time>2015-08-02T08:12:40.662Z</time>
      </trkpt>
      <trkpt lat="43.24315" lon="2.38833">
        <ele>98.2</ele>
        <time>2015-08-02T08:12:41.609Z</time>
      </trkpt>
      <trkpt lat="43.24311" lon="2.38841">
        <ele>98.3</ele>
        <time>2015-08-02T08:12:43.652Z</time>
      </trkpt>
      <trkpt lat="43.24309" lon="2.38845">
        <ele>98.3</ele>
        <time>2015-08-02T08:12:44.613Z</time>
      </trkpt>
      <trkpt lat="43.24306" lon="2.38853">
        <ele>98.2</ele>
        <time>2015-08-02T08:12:47.062Z</time>
      </trkpt>
      <trkpt lat="43.24304" lon="2.38857">
        <ele>98.2</ele>
        <time>2015-08-02T08:12:47.621Z</time>
      </trkpt>
      <trkpt lat="43.24301" lon="2.38865">
        <ele>98.1</ele>
        <time>2015-08-02T08:12:49.664Z</time>
      </trkpt>
      <trkpt lat="43.243" lon="2.38868">
        <ele>98.1</ele>
        <time>2015-08-02T08:12:50.612Z</time>
      </trkpt>
      <trkpt lat="43.24295" lon="2.38878">
        <ele>98.1</ele>
        <time>2015-08-02T08:12:53.682Z</time>
      </trkpt>
      <trkpt lat="43.24294" lon="2.38881">
        <ele>98</ele>
        <time>2015-08-02T08:12:54.607Z</time>
      </trkpt>
      <trkpt lat="43.2429" lon="2.38888">
        <ele>98.2</ele>
        <time>2015-08-02T08:12:56.653Z</time>
      </trkpt>
      <trkpt lat="43.24288" lon="2.38892">
        <ele>98.4</ele>
        <time>2015-08-02T08:12:57.610Z</time>
      </trkpt>
      <trkpt lat="43.24285" lon="2.389">
        <ele>98.6</ele>
        <time>2015-08-02T08:12:59.651Z</time>
      </trkpt>
      <trkpt lat="43.24283" lon="2.38903">
        <ele>98.8</ele>
        <time>2015-08-02T08:13:00.610Z</time>
      </trkpt>
      <trkpt lat="43.24278" lon="2.38913">
        <ele>99.2</ele>
        <time>2015-08-02T08:13:03.652Z</time>
      </trkpt>
      <trkpt lat="43.24277" lon="2.38917">
        <ele>99.4</ele>
        <time>2015-08-02T08:13:04.609Z</time>
      </trkpt>
      <trkpt lat="43.24273" lon="2.38923">
        <ele>99.4</ele>
        <time>2015-08-02T08:13:06.647Z</time>
      </trkpt>
      <trkpt lat="43.2427" lon="2.38926">
        <ele>99.4</ele>
        <time>2015-08-02T08:13:07.608Z</time>
      </trkpt>
      <trkpt lat="43.24265" lon="2.38932">
        <ele>99.5</ele>
        <time>2015-08-02T08:13:09.654Z</time>
      </trkpt>
      <trkpt lat="43.24263" lon="2.38935">
        <ele>99.9</ele>
        <time>2015-08-02T08:13:10.609Z</time>
      </trkpt>
      <trkpt lat="43.24257" lon="2.38945">
        <ele>100.3</ele>
        <time>2015-08-02T08:13:13.652Z</time>
      </trkpt>
      <trkpt lat="43.24256" lon="2.38949">
        <ele>100.5</ele>
        <time>2015-08-02T08:13:14.612Z</time>
      </trkpt>
      <trkpt lat="43.24252" lon="2.38956">
        <ele>100.4</ele>
        <time>2015-08-02T08:13:16.671Z</time>
      </trkpt>
      <trkpt lat="43.24252" lon="2.3896">
        <ele>100.5</ele>
        <time>2015-08-02T08:13:17.622Z</time>
      </trkpt>
      <trkpt lat="43.24251" lon="2.38969">
        <ele>100.7</ele>
        <time>2015-08-02T08:13:19.650Z</time>
      </trkpt>
      <trkpt lat="43.2425" lon="2.38974">
        <ele>100.7</ele>
        <time>2015-08-02T08:13:20.612Z</time>
      </trkpt>
      <trkpt lat="43.2425" lon="2.38983">
        <ele>100.8</ele>
        <time>2015-08-02T08:13:22.650Z</time>
      </trkpt>
      <trkpt lat="43.2425" lon="2.38987">
        <ele>101</ele>
        <time>2015-08-02T08:13:23.611Z</time>
      </trkpt>
      <trkpt lat="43.24248" lon="2.38995">
        <ele>100.9</ele>
        <time>2015-08-02T08:13:25.683Z</time>
      </trkpt>
      <trkpt lat="43.24249" lon="2.39">
        <ele>101.1</ele>
        <time>2015-08-02T08:13:26.622Z</time>
      </trkpt>
      <trkpt lat="43.24248" lon="2.39012">
        <ele>101</ele>
        <time>2015-08-02T08:13:29.729Z</time>
      </trkpt>
      <trkpt lat="43.24248" lon="2.39016">
        <ele>101.1</ele>
        <time>2015-08-02T08:13:30.609Z</time>
      </trkpt>
      <trkpt lat="43.24246" lon="2.39027">
        <ele>101.9</ele>
        <time>2015-08-02T08:13:33.660Z</time>
      </trkpt>
      <trkpt lat="43.24245" lon="2.39031">
        <ele>102.3</ele>
        <time>2015-08-02T08:13:34.611Z</time>
      </trkpt>
      <trkpt lat="43.24243" lon="2.39043">
        <ele>102.9</ele>
        <time>2015-08-02T08:13:37.649Z</time>
      </trkpt>
      <trkpt lat="43.24243" lon="2.39046">
        <ele>103.1</ele>
        <time>2015-08-02T08:13:38.612Z</time>
      </trkpt>
      <trkpt lat="43.24242" lon="2.39058">
        <ele>103.6</ele>
        <time>2015-08-02T08:13:41.654Z</time>
      </trkpt>
      <trkpt lat="43.24242" lon="2.39062">
        <ele>103.8</ele>
        <time>2015-08-02T08:13:42.613Z</time>
      </trkpt>
      <trkpt lat="43.24242" lon="2.3907">
        <ele>104.1</ele>
        <time>2015-08-02T08:13:44.661Z</time>
      </trkpt>
      <trkpt lat="43.24241" lon="2.39075">
        <ele>104.2</ele>
        <time>2015-08-02T08:13:45.623Z</time>
      </trkpt>
      <trkpt lat="43.2424" lon="2.39086">
        <ele>104.5</ele>
        <time>2015-08-02T08:13:48.646Z</time>
      </trkpt>
      <trkpt lat="43.2424" lon="2.3909">
        <ele>104.8</ele>
        <time>2015-08-02T08:13:49.617Z</time>
      </trkpt>
      <trkpt lat="43.24239" lon="2.39101">
        <ele>105.3</ele>
        <time>2015-08-02T08:13:52.657Z</time>
      </trkpt>
      <trkpt lat="43.24239" lon="2.39105">
        <ele>105.4</ele>
        <time>2015-08-02T08:13:53.622Z</time>
      </trkpt>
      <trkpt lat="43.24238" lon="2.39116">
        <ele>105.4</ele>
        <time>2015-08-02T08:13:56.677Z</time>
      </trkpt>
      <trkpt lat="43.24238" lon="2.3912">
        <ele>105.6</ele>
        <time>2015-08-02T08:13:57.619Z</time>
      </trkpt>
      <trkpt lat="43.24236" lon="2.39131">
        <ele>105.7</ele>
        <time>2015-08-02T08:14:00.679Z</time>
      </trkpt>
      <trkpt lat="43.24235" lon="2.39135">
        <ele>105.6</ele>
        <time>2015-08-02T08:14:01.971Z</time>
      </trkpt>
      <trkpt lat="43.24233" lon="2.39146">
        <ele>105.3</ele>
        <time>2015-08-02T08:14:04.652Z</time>
      </trkpt>
      <trkpt lat="43.24233" lon="2.3915">
        <ele>105.3</ele>
        <time>2015-08-02T08:14:05.606Z</time>
      </trkpt>
      <trkpt lat="43.24232" lon="2.39161">
        <ele>104.7</ele>
        <time>2015-08-02T08:14:08.650Z</time>
      </trkpt>
      <trkpt lat="43.24232" lon="2.39165">
        <ele>104.1</ele>
        <time>2015-08-02T08:14:09.622Z</time>
      </trkpt>
      <trkpt lat="43.24232" lon="2.39175">
        <ele>103.7</ele>
        <time>2015-08-02T08:14:12.651Z</time>
      </trkpt>
      <trkpt lat="43.24232" lon="2.39178">
        <ele>103.5</ele>
        <time>2015-08-02T08:14:13.614Z</time>
      </trkpt>
      <trkpt lat="43.24233" lon="2.39191">
        <ele>102.4</ele>
        <time>2015-08-02T08:14:17.650Z</time>
      </trkpt>
      <trkpt lat="43.24233" lon="2.39194">
        <ele>102.2</ele>
        <time>2015-08-02T08:14:18.637Z</time>
      </trkpt>
      <trkpt lat="43.24233" lon="2.39203">
        <ele>101.7</ele>
        <time>2015-08-02T08:14:21.654Z</time>
      </trkpt>
      <trkpt lat="43.24233" lon="2.39206">
        <ele>101.5</ele>
        <time>2015-08-02T08:14:22.610Z</time>
      </trkpt>
      <trkpt lat="43.24233" lon="2.39218">
        <ele>100.9</ele>
        <time>2015-08-02T08:14:25.645Z</time>
      </trkpt>
      <trkpt lat="43.24233" lon="2.39222">
        <ele>100.7</ele>
        <time>2015-08-02T08:14:26.609Z</time>
      </trkpt>
      <trkpt lat="43.24234" lon="2.39233">
        <ele>99.2</ele>
        <time>2015-08-02T08:14:29.645Z</time>
      </trkpt>
      <trkpt lat="43.24235" lon="2.39237">
        <ele>98.7</ele>
        <time>2015-08-02T08:14:30.620Z</time>
      </trkpt>
      <trkpt lat="43.24237" lon="2.39248">
        <ele>97.5</ele>
        <time>2015-08-02T08:14:33.662Z</time>
      </trkpt>
      <trkpt lat="43.24237" lon="2.39252">
        <ele>97.2</ele>
        <time>2015-08-02T08:14:34.609Z</time>
      </trkpt>
      <trkpt lat="43.24238" lon="2.3926">
        <ele>96.9</ele>
        <time>2015-08-02T08:14:36.662Z</time>
      </trkpt>
      <trkpt lat="43.24239" lon="2.39264">
        <ele>96.8</ele>
        <time>2015-08-02T08:14:37.622Z</time>
      </trkpt>
      <trkpt lat="43.24241" lon="2.39273">
        <ele>96.2</ele>
        <time>2015-08-02T08:14:39.722Z</time>
      </trkpt>
      <trkpt lat="43.24242" lon="2.39278">
        <ele>96</ele>
        <time>2015-08-02T08:14:40.610Z</time>
      </trkpt>
      <trkpt lat="43.24243" lon="2.39287">
        <ele>95.7</ele>
        <time>2015-08-02T08:14:42.646Z</time>
      </trkpt>
      <trkpt lat="43.24243" lon="2.39291">
        <ele>95.5</ele>
        <time>2015-08-02T08:14:43.610Z</time>
      </trkpt>
      <trkpt lat="43.24245" lon="2.393">
        <ele>95.4</ele>
        <time>2015-08-02T08:14:45.655Z</time>
      </trkpt>
      <trkpt lat="43.24246" lon="2.39305">
        <ele>95.3</ele>
        <time>2015-08-02T08:14:46.610Z</time>
      </trkpt>
      <trkpt lat="43.24247" lon="2.39313">
        <ele>95.2</ele>
        <time>2015-08-02T08:14:48.650Z</time>
      </trkpt>
      <trkpt lat="43.24248" lon="2.39318">
        <ele>95.1</ele>
        <time>2015-08-02T08:14:49.613Z</time>
      </trkpt>
      <trkpt lat="43.24249" lon="2.39326">
        <ele>95</ele>
        <time>2015-08-02T08:14:51.681Z</time>
      </trkpt>
      <trkpt lat="43.2425" lon="2.3933">
        <ele>95</ele>
        <time>2015-08-02T08:14:52.665Z</time>
      </trkpt>
      <trkpt lat="43.24252" lon="2.39338">
        <ele>94.9</ele>
        <time>2015-08-02T08:14:54.650Z</time>
      </trkpt>
      <trkpt lat="43.24252" lon="2.39343">
        <ele>95.1</ele>
        <time>2015-08-02T08:14:55.611Z</time>
      </trkpt>
      <trkpt lat="43.24253" lon="2.39351">
        <ele>95</ele>
        <time>2015-08-02T08:14:57.651Z</time>
      </trkpt>
      <trkpt lat="43.24253" lon="2.39356">
        <ele>95</ele>
        <time>2015-08-02T08:14:58.608Z</time>
      </trkpt>
      <trkpt lat="43.24255" lon="2.39364">
        <ele>94.9</ele>
        <time>2015-08-02T08:15:00.685Z</time>
      </trkpt>
      <trkpt lat="43.24255" lon="2.39369">
        <ele>94.8</ele>
        <time>2015-08-02T08:15:01.620Z</time>
      </trkpt>
      <trkpt lat="43.24258" lon="2.39377">
        <ele>94.8</ele>
        <time>2015-08-02T08:15:03.698Z</time>
      </trkpt>
      <trkpt lat="43.24258" lon="2.39382">
        <ele>94.7</ele>
        <time>2015-08-02T08:15:04.618Z</time>
      </trkpt>
      <trkpt lat="43.2426" lon="2.39391">
        <ele>94.6</ele>
        <time>2015-08-02T08:15:06.650Z</time>
      </trkpt>
      <trkpt lat="43.24261" lon="2.39396">
        <ele>94.6</ele>
        <time>2015-08-02T08:15:07.611Z</time>
      </trkpt>
      <trkpt lat="43.24263" lon="2.39404">
        <ele>94.5</ele>
        <time>2015-08-02T08:15:09.655Z</time>
      </trkpt>
      <trkpt lat="43.24265" lon="2.39408">
        <ele>94.4</ele>
        <time>2015-08-02T08:15:10.610Z</time>
      </trkpt>
      <trkpt lat="43.24268" lon="2.39415">
        <ele>94.4</ele>
        <time>2015-08-02T08:15:12.692Z</time>
      </trkpt>
      <trkpt lat="43.2427" lon="2.39418">
        <ele>94.4</ele>
        <time>2015-08-02T08:15:13.623Z</time>
      </trkpt>
      <trkpt lat="43.24275" lon="2.39428">
        <ele>94.8</ele>
        <time>2015-08-02T08:15:16.652Z</time>
      </trkpt>
      <trkpt lat="43.24276" lon="2.3943">
        <ele>95</ele>
        <time>2015-08-02T08:15:17.620Z</time>
      </trkpt>
      <trkpt lat="43.24281" lon="2.39437">
        <ele>95.5</ele>
        <time>2015-08-02T08:15:21.652Z</time>
      </trkpt>
      <trkpt lat="43.24282" lon="2.3944">
        <ele>95.7</ele>
        <time>2015-08-02T08:15:22.609Z</time>
      </trkpt>
      <trkpt lat="43.24287" lon="2.39447">
        <ele>96.1</ele>
        <time>2015-08-02T08:15:24.647Z</time>
      </trkpt>
      <trkpt lat="43.24289" lon="2.3945">
        <ele>96.3</ele>
        <time>2015-08-02T08:15:25.623Z</time>
      </trkpt>
      <trkpt lat="43.24294" lon="2.39457">
        <ele>96.5</ele>
        <time>2015-08-02T08:15:27.659Z</time>
      </trkpt>
      <trkpt lat="43.24295" lon="2.39461">
        <ele>96.6</ele>
        <time>2015-08-02T08:15:28.609Z</time>
      </trkpt>
      <trkpt lat="43.243" lon="2.3947">
        <ele>97.2</ele>
        <time>2015-08-02T08:15:31.653Z</time>
      </trkpt>
      <trkpt lat="43.24301" lon="2.39472">
        <ele>97.5</ele>
        <time>2015-08-02T08:15:32.622Z</time>
      </trkpt>
      <trkpt lat="43.24305" lon="2.39481">
        <ele>98.3</ele>
        <time>2015-08-02T08:15:36.657Z</time>
      </trkpt>
      <trkpt lat="43.24306" lon="2.39484">
        <ele>98.5</ele>
        <time>2015-08-02T08:15:37.613Z</time>
      </trkpt>
      <trkpt lat="43.24311" lon="2.39491">
        <ele>98.9</ele>
        <time>2015-08-02T08:15:40.669Z</time>
      </trkpt>
      <trkpt lat="43.24314" lon="2.39495">
        <ele>98.9</ele>
        <time>2015-08-02T08:15:41.605Z</time>
      </trkpt>
      <trkpt lat="43.24318" lon="2.39502">
        <ele>99</ele>
        <time>2015-08-02T08:15:43.651Z</time>
      </trkpt>
      <trkpt lat="43.2432" lon="2.39504">
        <ele>99.2</ele>
        <time>2015-08-02T08:15:44.880Z</time>
      </trkpt>
      <trkpt lat="43.24325" lon="2.39511">
        <ele>99.2</ele>
        <time>2015-08-02T08:15:46.666Z</time>
      </trkpt>
      <trkpt lat="43.24328" lon="2.39514">
        <ele>99.2</ele>
        <time>2015-08-02T08:15:47.611Z</time>
      </trkpt>
      <trkpt lat="43.24333" lon="2.3952">
        <ele>99.7</ele>
        <time>2015-08-02T08:15:49.674Z</time>
      </trkpt>
      <trkpt lat="43.24336" lon="2.39523">
        <ele>99.9</ele>
        <time>2015-08-02T08:15:50.623Z</time>
      </trkpt>
      <trkpt lat="43.2434" lon="2.3953">
        <ele>100.5</ele>
        <time>2015-08-02T08:15:52.664Z</time>
      </trkpt>
      <trkpt lat="43.24342" lon="2.39533">
        <ele>100.8</ele>
        <time>2015-08-02T08:15:53.615Z</time>
      </trkpt>
      <trkpt lat="43.24347" lon="2.39542">
        <ele>101</ele>
        <time>2015-08-02T08:15:56.665Z</time>
      </trkpt>
      <trkpt lat="43.2435" lon="2.39546">
        <ele>100.8</ele>
        <time>2015-08-02T08:15:57.991Z</time>
      </trkpt>
      <trkpt lat="43.24353" lon="2.39554">
        <ele>100.9</ele>
        <time>2015-08-02T08:15:59.660Z</time>
      </trkpt>
      <trkpt lat="43.24355" lon="2.39558">
        <ele>101.1</ele>
        <time>2015-08-02T08:16:00.611Z</time>
      </trkpt>
      <trkpt lat="43.24358" lon="2.39568">
        <ele>101.6</ele>
        <time>2015-08-02T08:16:03.665Z</time>
      </trkpt>
      <trkpt lat="43.24359" lon="2.39573">
        <ele>101.8</ele>
        <time>2015-08-02T08:16:04.620Z</time>
      </trkpt>
      <trkpt lat="43.24361" lon="2.39581">
        <ele>102.1</ele>
        <time>2015-08-02T08:16:06.681Z</time>
      </trkpt>
      <trkpt lat="43.24363" lon="2.39586">
        <ele>102.3</ele>
        <time>2015-08-02T08:16:07.619Z</time>
      </trkpt>
      <trkpt lat="43.24364" lon="2.39595">
        <ele>102.7</ele>
        <time>2015-08-02T08:16:09.656Z</time>
      </trkpt>
      <trkpt lat="43.24365" lon="2.396">
        <ele>103.1</ele>
        <time>2015-08-02T08:16:10.611Z</time>
      </trkpt>
      <trkpt lat="43.24367" lon="2.3961">
        <ele>103.6</ele>
        <time>2015-08-02T08:16:13.004Z</time>
      </trkpt>
      <trkpt lat="43.24368" lon="2.39614">
        <ele>103.7</ele>
        <time>2015-08-02T08:16:13.612Z</time>
      </trkpt>
      <trkpt lat="43.24368" lon="2.39623">
        <ele>104.3</ele>
        <time>2015-08-02T08:16:15.681Z</time>
      </trkpt>
      <trkpt lat="43.24368" lon="2.39628">
        <ele>104.6</ele>
        <time>2015-08-02T08:16:16.621Z</time>
      </trkpt>
      <trkpt lat="43.24369" lon="2.39638">
        <ele>104.9</ele>
        <time>2015-08-02T08:16:18.659Z</time>
      </trkpt>
      <trkpt lat="43.2437" lon="2.39644">
        <ele>104.9</ele>
        <time>2015-08-02T08:16:19.610Z</time>
      </trkpt>
      <trkpt lat="43.2437" lon="2.39654">
        <ele>105.6</ele>
        <time>2015-08-02T08:16:21.663Z</time>
      </trkpt>
      <trkpt lat="43.2437" lon="2.3966">
        <ele>105.9</ele>
        <time>2015-08-02T08:16:22.613Z</time>
      </trkpt>
      <trkpt lat="43.2437" lon="2.3967">
        <ele>106.6</ele>
        <time>2015-08-02T08:16:24.658Z</time>
      </trkpt>
      <trkpt lat="43.24369" lon="2.39675">
        <ele>107</ele>
        <time>2015-08-02T08:16:25.612Z</time>
      </trkpt>
      <trkpt lat="43.24369" lon="2.39684">
        <ele>107.5</ele>
        <time>2015-08-02T08:16:27.656Z</time>
      </trkpt>
      <trkpt lat="43.24369" lon="2.3969">
        <ele>107.9</ele>
        <time>2015-08-02T08:16:28.608Z</time>
      </trkpt>
      <trkpt lat="43.24369" lon="2.39701">
        <ele>108.4</ele>
        <time>2015-08-02T08:16:30.667Z</time>
      </trkpt>
      <trkpt lat="43.24369" lon="2.39707">
        <ele>107.8</ele>
        <time>2015-08-02T08:16:31.622Z</time>
      </trkpt>
      <trkpt lat="43.24369" lon="2.39713">
        <ele>107.9</ele>
        <time>2015-08-02T08:16:32.685Z</time>
      </trkpt>
      <trkpt lat="43.24368" lon="2.3972">
        <ele>108.1</ele>
        <time>2015-08-02T08:16:33.612Z</time>
      </trkpt>
      <trkpt lat="43.24368" lon="2.39726">
        <ele>108</ele>
        <time>2015-08-02T08:16:34.671Z</time>
      </trkpt>
      <trkpt lat="43.24368" lon="2.39734">
        <ele>107.4</ele>
        <time>2015-08-02T08:16:35.611Z</time>
      </trkpt>
      <trkpt lat="43.24368" lon="2.3974">
        <ele>107.2</ele>
        <time>2015-08-02T08:16:36.661Z</time>
      </trkpt>
      <trkpt lat="43.24368" lon="2.39746">
        <ele>107.2</ele>
        <time>2015-08-02T08:16:37.611Z</time>
      </trkpt>
      <trkpt lat="43.24366" lon="2.39756">
        <ele>107.4</ele>
        <time>2015-08-02T08:16:39.896Z</time>
      </trkpt>
      <trkpt lat="43.24366" lon="2.3976">
        <ele>107.5</ele>
        <time>2015-08-02T08:16:40.609Z</time>
      </trkpt>
      <trkpt lat="43.24364" lon="2.3977">
        <ele>107.5</ele>
        <time>2015-08-02T08:16:42.659Z</time>
      </trkpt>
      <trkpt lat="43.24363" lon="2.39776">
        <ele>107.5</ele>
        <time>2015-08-02T08:16:43.609Z</time>
      </trkpt>
      <trkpt lat="43.24362" lon="2.39787">
        <ele>107.1</ele>
        <time>2015-08-02T08:16:45.659Z</time>
      </trkpt>
      <trkpt lat="43.24362" lon="2.39791">
        <ele>106.8</ele>
        <time>2015-08-02T08:16:46.609Z</time>
      </trkpt>
      <trkpt lat="43.2436" lon="2.39798">
        <ele>107.2</ele>
        <time>2015-08-02T08:16:48.665Z</time>
      </trkpt>
      <trkpt lat="43.24359" lon="2.39803">
        <ele>107.5</ele>
        <time>2015-08-02T08:16:49.609Z</time>
      </trkpt>
      <trkpt lat="43.24358" lon="2.39813">
        <ele>107.3</ele>
        <time>2015-08-02T08:16:51.661Z</time>
      </trkpt>
      <trkpt lat="43.24357" lon="2.39817">
        <ele>107.2</ele>
        <time>2015-08-02T08:16:52.609Z</time>
      </trkpt>
      <trkpt lat="43.24356" lon="2.39826">
        <ele>107.6</ele>
        <time>2015-08-02T08:16:54.658Z</time>
      </trkpt>
      <trkpt lat="43.24355" lon="2.39831">
        <ele>107.3</ele>
        <time>2015-08-02T08:16:55.622Z</time>
      </trkpt>
      <trkpt lat="43.24354" lon="2.39842">
        <ele>107</ele>
        <time>2015-08-02T08:16:57.658Z</time>
      </trkpt>
      <trkpt lat="43.24352" lon="2.39847">
        <ele>107.1</ele>
        <time>2015-08-02T08:16:58.610Z</time>
      </trkpt>
      <trkpt lat="43.24351" lon="2.39858">
        <ele>106.7</ele>
        <time>2015-08-02T08:17:00.662Z</time>
      </trkpt>
      <trkpt lat="43.2435" lon="2.39863">
        <ele>106.2</ele>
        <time>2015-08-02T08:17:01.608Z</time>
      </trkpt>
      <trkpt lat="43.24348" lon="2.39873">
        <ele>105.9</ele>
        <time>2015-08-02T08:17:03.689Z</time>
      </trkpt>
      <trkpt lat="43.24347" lon="2.39879">
        <ele>105.6</ele>
        <time>2015-08-02T08:17:04.619Z</time>
      </trkpt>
      <trkpt lat="43.24345" lon="2.39889">
        <ele>105</ele>
        <time>2015-08-02T08:17:06.661Z</time>
      </trkpt>
      <trkpt lat="43.24344" lon="2.39894">
        <ele>105</ele>
        <time>2015-08-02T08:17:07.611Z</time>
      </trkpt>
      <trkpt lat="43.24341" lon="2.39905">
        <ele>105</ele>
        <time>2015-08-02T08:17:09.666Z</time>
      </trkpt>
      <trkpt lat="43.24339" lon="2.39911">
        <ele>105</ele>
        <time>2015-08-02T08:17:10.609Z</time>
      </trkpt>
      <trkpt lat="43.24338" lon="2.39922">
        <ele>105.3</ele>
        <time>2015-08-02T08:17:12.678Z</time>
      </trkpt>
      <trkpt lat="43.24337" lon="2.39928">
        <ele>105.9</ele>
        <time>2015-08-02T08:17:13.987Z</time>
      </trkpt>
      <trkpt lat="43.24336" lon="2.39939">
        <ele>106.2</ele>
        <time>2015-08-02T08:17:15.674Z</time>
      </trkpt>
      <trkpt lat="43.24336" lon="2.39945">
        <ele>106.5</ele>
        <time>2015-08-02T08:17:16.610Z</time>
      </trkpt>
      <trkpt lat="43.24334" lon="2.39954">
        <ele>106.5</ele>
        <time>2015-08-02T08:17:18.661Z</time>
      </trkpt>
      <trkpt lat="43.24333" lon="2.39959">
        <ele>106.3</ele>
        <time>2015-08-02T08:17:19.611Z</time>
      </trkpt>
      <trkpt lat="43.24331" lon="2.39968">
        <ele>106.4</ele>
        <time>2015-08-02T08:17:21.679Z</time>
      </trkpt>
      <trkpt lat="43.2433" lon="2.39972">
        <ele>106.6</ele>
        <time>2015-08-02T08:17:22.610Z</time>
      </trkpt>
      <trkpt lat="43.24329" lon="2.3998">
        <ele>106.6</ele>
        <time>2015-08-02T08:17:24.675Z</time>
      </trkpt>
      <trkpt lat="43.24329" lon="2.39985">
        <ele>106.8</ele>
        <time>2015-08-02T08:17:25.611Z</time>
      </trkpt>
      <trkpt lat="43.24327" lon="2.39997">
        <ele>107.2</ele>
        <time>2015-08-02T08:17:28.658Z</time>
      </trkpt>
      <trkpt lat="43.24327" lon="2.4">
        <ele>107.2</ele>
        <time>2015-08-02T08:17:29.622Z</time>
      </trkpt>
      <trkpt lat="43.24327" lon="2.40006">
        <ele>107.3</ele>
        <time>2015-08-02T08:17:31.660Z</time>
      </trkpt>
      <trkpt lat="43.24327" lon="2.40007">
        <ele>107.3</ele>
        <time>2015-08-02T08:17:32.614Z</time>
      </trkpt>
      <trkpt lat="43.24328" lon="2.40008">
        <ele>107.7</ele>
        <time>2015-08-02T08:17:50.687Z</time>
      </trkpt>
      <trkpt lat="43.24326" lon="2.40015">
        <ele>106.5</ele>
        <time>2015-08-02T08:17:51.619Z</time>
      </trkpt>
      <trkpt lat="43.24323" lon="2.40025">
        <ele>107</ele>
        <time>2015-08-02T08:17:58.655Z</time>
      </trkpt>
      <trkpt lat="43.24323" lon="2.40028">
        <ele>107.2</ele>
        <time>2015-08-02T08:17:59.612Z</time>
      </trkpt>
      <trkpt lat="43.24321" lon="2.40038">
        <ele>107.4</ele>
        <time>2015-08-02T08:18:02.697Z</time>
      </trkpt>
      <trkpt lat="43.24321" lon="2.40042">
        <ele>107.5</ele>
        <time>2015-08-02T08:18:03.610Z</time>
      </trkpt>
      <trkpt lat="43.24319" lon="2.40051">
        <ele>107.6</ele>
        <time>2015-08-02T08:18:05.660Z</time>
      </trkpt>
      <trkpt lat="43.24318" lon="2.40055">
        <ele>107.7</ele>
        <time>2015-08-02T08:18:06.610Z</time>
      </trkpt>
      <trkpt lat="43.24316" lon="2.40064">
        <ele>107.9</ele>
        <time>2015-08-02T08:18:08.658Z</time>
      </trkpt>
      <trkpt lat="43.24315" lon="2.40068">
        <ele>108.2</ele>
        <time>2015-08-02T08:18:09.611Z</time>
      </trkpt>
      <trkpt lat="43.24314" lon="2.40078">
        <ele>108.6</ele>
        <time>2015-08-02T08:18:11.695Z</time>
      </trkpt>
      <trkpt lat="43.24313" lon="2.40084">
        <ele>109</ele>
        <time>2015-08-02T08:18:12.609Z</time>
      </trkpt>
      <trkpt lat="43.24312" lon="2.40095">
        <ele>108.8</ele>
        <time>2015-08-02T08:18:14.660Z</time>
      </trkpt>
      <trkpt lat="43.24311" lon="2.401">
        <ele>109</ele>
        <time>2015-08-02T08:18:15.609Z</time>
      </trkpt>
      <trkpt lat="43.2431" lon="2.4011">
        <ele>109.5</ele>
        <time>2015-08-02T08:18:17.662Z</time>
      </trkpt>
      <trkpt lat="43.24309" lon="2.40116">
        <ele>109.4</ele>
        <time>2015-08-02T08:18:18.608Z</time>
      </trkpt>
      <trkpt lat="43.24307" lon="2.40126">
        <ele>109.9</ele>
        <time>2015-08-02T08:18:20.655Z</time>
      </trkpt>
      <trkpt lat="43.24306" lon="2.4013">
        <ele>110.3</ele>
        <time>2015-08-02T08:18:21.620Z</time>
      </trkpt>
      <trkpt lat="43.24304" lon="2.4014">
        <ele>110.7</ele>
        <time>2015-08-02T08:18:23.663Z</time>
      </trkpt>
      <trkpt lat="43.24302" lon="2.40144">
        <ele>111</ele>
        <time>2015-08-02T08:18:24.609Z</time>
      </trkpt>
      <trkpt lat="43.243" lon="2.40154">
        <ele>111.7</ele>
        <time>2015-08-02T08:18:26.653Z</time>
      </trkpt>
      <trkpt lat="43.24299" lon="2.40159">
        <ele>112</ele>
        <time>2015-08-02T08:18:27.611Z</time>
      </trkpt>
      <trkpt lat="43.24297" lon="2.40169">
        <ele>112.7</ele>
        <time>2015-08-02T08:18:29.660Z</time>
      </trkpt>
      <trkpt lat="43.24295" lon="2.40174">
        <ele>112.9</ele>
        <time>2015-08-02T08:18:30.605Z</time>
      </trkpt>
      <trkpt lat="43.24293" lon="2.40183">
        <ele>112.9</ele>
        <time>2015-08-02T08:18:32.657Z</time>
      </trkpt>
      <trkpt lat="43.24292" lon="2.40188">
        <ele>113.3</ele>
        <time>2015-08-02T08:18:33.622Z</time>
      </trkpt>
      <trkpt lat="43.2429" lon="2.40197">
        <ele>113.3</ele>
        <time>2015-08-02T08:18:35.662Z</time>
      </trkpt>
      <trkpt lat="43.2429" lon="2.40202">
        <ele>113.7</ele>
        <time>2015-08-02T08:18:36.609Z</time>
      </trkpt>
      <trkpt lat="43.24288" lon="2.40212">
        <ele>113.3</ele>
        <time>2015-08-02T08:18:38.659Z</time>
      </trkpt>
      <trkpt lat="43.24288" lon="2.40216">
        <ele>113.1</ele>
        <time>2015-08-02T08:18:39.611Z</time>
      </trkpt>
      <trkpt lat="43.24287" lon="2.40225">
        <ele>111.8</ele>
        <time>2015-08-02T08:18:41.651Z</time>
      </trkpt>
      <trkpt lat="43.24286" lon="2.4023">
        <ele>111.6</ele>
        <time>2015-08-02T08:18:42.605Z</time>
      </trkpt>
      <trkpt lat="43.24285" lon="2.4024">
        <ele>111.1</ele>
        <time>2015-08-02T08:18:44.651Z</time>
      </trkpt>
      <trkpt lat="43.24285" lon="2.40244">
        <ele>111.2</ele>
        <time>2015-08-02T08:18:45.609Z</time>
      </trkpt>
      <trkpt lat="43.24284" lon="2.40254">
        <ele>111.8</ele>
        <time>2015-08-02T08:18:47.678Z</time>
      </trkpt>
      <trkpt lat="43.24283" lon="2.40259">
        <ele>111.8</ele>
        <time>2015-08-02T08:18:48.619Z</time>
      </trkpt>
      <trkpt lat="43.24282" lon="2.40268">
        <ele>112.1</ele>
        <time>2015-08-02T08:18:50.660Z</time>
      </trkpt>
      <trkpt lat="43.24281" lon="2.40273">
        <ele>112</ele>
        <time>2015-08-02T08:18:51.776Z</time>
      </trkpt>
      <trkpt lat="43.2428" lon="2.40283">
        <ele>110.8</ele>
        <time>2015-08-02T08:18:53.662Z</time>
      </trkpt>
      <trkpt lat="43.24279" lon="2.40288">
        <ele>110.7</ele>
        <time>2015-08-02T08:18:54.608Z</time>
      </trkpt>
      <trkpt lat="43.24278" lon="2.40299">
        <ele>111.1</ele>
        <time>2015-08-02T08:18:56.683Z</time>
      </trkpt>
      <trkpt lat="43.24277" lon="2.40303">
        <ele>111.3</ele>
        <time>2015-08-02T08:18:57.622Z</time>
      </trkpt>
      <trkpt lat="43.24276" lon="2.40314">
        <ele>111.2</ele>
        <time>2015-08-02T08:18:59.668Z</time>
      </trkpt>
      <trkpt lat="43.24276" lon="2.40319">
        <ele>111.1</ele>
        <time>2015-08-02T08:19:00.610Z</time>
      </trkpt>
      <trkpt lat="43.24275" lon="2.4033">
        <ele>111</ele>
        <time>2015-08-02T08:19:02.663Z</time>
      </trkpt>
      <trkpt lat="43.24275" lon="2.40336">
        <ele>111</ele>
        <time>2015-08-02T08:19:03.609Z</time>
      </trkpt>
      <trkpt lat="43.24275" lon="2.40347">
        <ele>110.9</ele>
        <time>2015-08-02T08:19:05.677Z</time>
      </trkpt>
      <trkpt lat="43.24274" lon="2.40352">
        <ele>110.7</ele>
        <time>2015-08-02T08:19:06.611Z</time>
      </trkpt>
      <trkpt lat="43.24273" lon="2.40363">
        <ele>109.9</ele>
        <time>2015-08-02T08:19:08.662Z</time>
      </trkpt>
      <trkpt lat="43.24273" lon="2.40367">
        <ele>109.7</ele>
        <time>2015-08-02T08:19:09.611Z</time>
      </trkpt>
      <trkpt lat="43.24274" lon="2.40378">
        <ele>109</ele>
        <time>2015-08-02T08:19:11.661Z</time>
      </trkpt>
      <trkpt lat="43.24274" lon="2.40384">
        <ele>108.7</ele>
        <time>2015-08-02T08:19:12.618Z</time>
      </trkpt>
      <trkpt lat="43.24274" lon="2.40393">
        <ele>108.4</ele>
        <time>2015-08-02T08:19:14.673Z</time>
      </trkpt>
      <trkpt lat="43.24274" lon="2.40398">
        <ele>108.2</ele>
        <time>2015-08-02T08:19:15.621Z</time>
      </trkpt>
      <trkpt lat="43.24273" lon="2.40409">
        <ele>107.4</ele>
        <time>2015-08-02T08:19:17.661Z</time>
      </trkpt>
      <trkpt lat="43.24273" lon="2.40414">
        <ele>107.2</ele>
        <time>2015-08-02T08:19:18.607Z</time>
      </trkpt>
      <trkpt lat="43.24273" lon="2.40424">
        <ele>106.6</ele>
        <time>2015-08-02T08:19:20.662Z</time>
      </trkpt>
      <trkpt lat="43.24273" lon="2.40429">
        <ele>106.5</ele>
        <time>2015-08-02T08:19:21.609Z</time>
      </trkpt>
      <trkpt lat="43.24273" lon="2.40439">
        <ele>106.1</ele>
        <time>2015-08-02T08:19:23.683Z</time>
      </trkpt>
      <trkpt lat="43.24273" lon="2.40444">
        <ele>105.7</ele>
        <time>2015-08-02T08:19:24.634Z</time>
      </trkpt>
      <trkpt lat="43.24271" lon="2.40452">
        <ele>105.2</ele>
        <time>2015-08-02T08:19:26.663Z</time>
      </trkpt>
      <trkpt lat="43.2427" lon="2.40456">
        <ele>105.3</ele>
        <time>2015-08-02T08:19:27.613Z</time>
      </trkpt>
      <trkpt lat="43.24269" lon="2.40464">
        <ele>105.2</ele>
        <time>2015-08-02T08:19:29.677Z</time>
      </trkpt>
      <trkpt lat="43.24268" lon="2.40469">
        <ele>105.1</ele>
        <time>2015-08-02T08:19:30.612Z</time>
      </trkpt>
      <trkpt lat="43.24267" lon="2.40478">
        <ele>104.7</ele>
        <time>2015-08-02T08:19:32.820Z</time>
      </trkpt>
      <trkpt lat="43.24267" lon="2.40483">
        <ele>104.5</ele>
        <time>2015-08-02T08:19:33.612Z</time>
      </trkpt>
      <trkpt lat="43.24265" lon="2.40493">
        <ele>104.2</ele>
        <time>2015-08-02T08:19:35.662Z</time>
      </trkpt>
      <trkpt lat="43.24265" lon="2.40498">
        <ele>104.1</ele>
        <time>2015-08-02T08:19:36.607Z</time>
      </trkpt>
      <trkpt lat="43.24263" lon="2.40508">
        <ele>104.1</ele>
        <time>2015-08-02T08:19:38.660Z</time>
      </trkpt>
      <trkpt lat="43.24262" lon="2.40512">
        <ele>104.2</ele>
        <time>2015-08-02T08:19:39.613Z</time>
      </trkpt>
      <trkpt lat="43.24261" lon="2.40521">
        <ele>104.2</ele>
        <time>2015-08-02T08:19:41.652Z</time>
      </trkpt>
      <trkpt lat="43.24261" lon="2.40526">
        <ele>104.1</ele>
        <time>2015-08-02T08:19:42.610Z</time>
      </trkpt>
      <trkpt lat="43.2426" lon="2.40535">
        <ele>104.2</ele>
        <time>2015-08-02T08:19:44.652Z</time>
      </trkpt>
      <trkpt lat="43.24259" lon="2.4054">
        <ele>104.2</ele>
        <time>2015-08-02T08:19:45.608Z</time>
      </trkpt>
      <trkpt lat="43.24258" lon="2.40551">
        <ele>104.4</ele>
        <time>2015-08-02T08:19:47.656Z</time>
      </trkpt>
      <trkpt lat="43.24257" lon="2.40557">
        <ele>104.5</ele>
        <time>2015-08-02T08:19:48.609Z</time>
      </trkpt>
      <trkpt lat="43.24256" lon="2.40563">
        <ele>104.5</ele>
        <time>2015-08-02T08:19:49.668Z</time>
      </trkpt>
      <trkpt lat="43.24255" lon="2.40569">
        <ele>104.3</ele>
        <time>2015-08-02T08:19:50.614Z</time>
      </trkpt>
      <trkpt lat="43.24253" lon="2.40579">
        <ele>103.8</ele>
        <time>2015-08-02T08:19:52.656Z</time>
      </trkpt>
      <trkpt lat="43.24252" lon="2.40584">
        <ele>103.7</ele>
        <time>2015-08-02T08:19:53.623Z</time>
      </trkpt>
      <trkpt lat="43.24248" lon="2.40594">
        <ele>103.8</ele>
        <time>2015-08-02T08:19:55.661Z</time>
      </trkpt>
      <trkpt lat="43.24246" lon="2.40599">
        <ele>103.8</ele>
        <time>2015-08-02T08:19:56.610Z</time>
      </trkpt>
      <trkpt lat="43.24241" lon="2.40608">
        <ele>103.8</ele>
        <time>2015-08-02T08:19:58.655Z</time>
      </trkpt>
      <trkpt lat="43.24238" lon="2.40613">
        <ele>103.9</ele>
        <time>2015-08-02T08:19:59.611Z</time>
      </trkpt>
      <trkpt lat="43.24233" lon="2.40621">
        <ele>104.4</ele>
        <time>2015-08-02T08:20:01.707Z</time>
      </trkpt>
      <trkpt lat="43.2423" lon="2.40625">
        <ele>104.5</ele>
        <time>2015-08-02T08:20:02.622Z</time>
      </trkpt>
      <trkpt lat="43.24225" lon="2.40633">
        <ele>105</ele>
        <time>2015-08-02T08:20:04.677Z</time>
      </trkpt>
      <trkpt lat="43.24222" lon="2.40636">
        <ele>105.2</ele>
        <time>2015-08-02T08:20:05.623Z</time>
      </trkpt>
      <trkpt lat="43.24217" lon="2.40644">
        <ele>105.9</ele>
        <time>2015-08-02T08:20:08.661Z</time>
      </trkpt>
      <trkpt lat="43.24216" lon="2.40646">
        <ele>106.1</ele>
        <time>2015-08-02T08:20:09.612Z</time>
      </trkpt>
      <trkpt lat="43.2421" lon="2.40648">
        <ele>105.2</ele>
        <time>2015-08-02T08:20:12.660Z</time>
      </trkpt>
      <trkpt lat="43.24207" lon="2.40647">
        <ele>104.8</ele>
        <time>2015-08-02T08:20:13.621Z</time>
      </trkpt>
      <trkpt lat="43.242" lon="2.40639">
        <ele>102.7</ele>
        <time>2015-08-02T08:20:16.671Z</time>
      </trkpt>
      <trkpt lat="43.24198" lon="2.40637">
        <ele>102.1</ele>
        <time>2015-08-02T08:20:17.619Z</time>
      </trkpt>
      <trkpt lat="43.24192" lon="2.40645">
        <ele>99.9</ele>
        <time>2015-08-02T08:20:22.674Z</time>
      </trkpt>
      <trkpt lat="43.24191" lon="2.40647">
        <ele>99.5</ele>
        <time>2015-08-02T08:20:23.613Z</time>
      </trkpt>
      <trkpt lat="43.24186" lon="2.40657">
        <ele>98</ele>
        <time>2015-08-02T08:20:30.662Z</time>
      </trkpt>
      <trkpt lat="43.24185" lon="2.40657">
        <ele>98.1</ele>
        <time>2015-08-02T08:20:31.613Z</time>
      </trkpt>
      <trkpt lat="43.24185" lon="2.40657">
        <ele>98.1</ele>
        <time>2015-08-02T08:20:31.660Z</time>
      </trkpt>
      <trkpt lat="43.24183" lon="2.40658">
        <ele>97.9</ele>
        <time>2015-08-02T08:20:33.676Z</time>
      </trkpt>
      <trkpt lat="43.24181" lon="2.4066">
        <ele>97.8</ele>
        <time>2015-08-02T08:20:34.618Z</time>
      </trkpt>
      <trkpt lat="43.24175" lon="2.40665">
        <ele>97</ele>
        <time>2015-08-02T08:20:39.046Z</time>
      </trkpt>
      <trkpt lat="43.24173" lon="2.40667">
        <ele>96.9</ele>
        <time>2015-08-02T08:20:39.614Z</time>
      </trkpt>
      <trkpt lat="43.24166" lon="2.40673">
        <ele>96.9</ele>
        <time>2015-08-02T08:20:42.658Z</time>
      </trkpt>
      <trkpt lat="43.24165" lon="2.40674">
        <ele>96.9</ele>
        <time>2015-08-02T08:20:43.612Z</time>
      </trkpt>
      <trkpt lat="43.24159" lon="2.4068">
        <ele>96.8</ele>
        <time>2015-08-02T08:20:46.660Z</time>
      </trkpt>
      <trkpt lat="43.24156" lon="2.40682">
        <ele>96.8</ele>
        <time>2015-08-02T08:20:47.610Z</time>
      </trkpt>
      <trkpt lat="43.24149" lon="2.40689">
        <ele>96.8</ele>
        <time>2015-08-02T08:20:50.665Z</time>
      </trkpt>
      <trkpt lat="43.24147" lon="2.40691">
        <ele>96.7</ele>
        <time>2015-08-02T08:20:51.612Z</time>
      </trkpt>
      <trkpt lat="43.2414" lon="2.40698">
        <ele>96.3</ele>
        <time>2015-08-02T08:20:54.660Z</time>
      </trkpt>
      <trkpt lat="43.24138" lon="2.40701">
        <ele>96.1</ele>
        <time>2015-08-02T08:20:55.610Z</time>
      </trkpt>
      <trkpt lat="43.2413" lon="2.40708">
        <ele>95.6</ele>
        <time>2015-08-02T08:20:58.658Z</time>
      </trkpt>
      <trkpt lat="43.24128" lon="2.40709">
        <ele>95.7</ele>
        <time>2015-08-02T08:20:59.608Z</time>
      </trkpt>
      <trkpt lat="43.24121" lon="2.40715">
        <ele>95.9</ele>
        <time>2015-08-02T08:21:02.682Z</time>
      </trkpt>
      <trkpt lat="43.24118" lon="2.40717">
        <ele>96.1</ele>
        <time>2015-08-02T08:21:03.623Z</time>
      </trkpt>
      <trkpt lat="43.24113" lon="2.40721">
        <ele>96.1</ele>
        <time>2015-08-02T08:21:05.651Z</time>
      </trkpt>
      <trkpt lat="43.2411" lon="2.40722">
        <ele>96.1</ele>
        <time>2015-08-02T08:21:06.608Z</time>
      </trkpt>
      <trkpt lat="43.24105" lon="2.40728">
        <ele>96.3</ele>
        <time>2015-08-02T08:21:08.652Z</time>
      </trkpt>
      <trkpt lat="43.24102" lon="2.40731">
        <ele>96.2</ele>
        <time>2015-08-02T08:21:09.607Z</time>
      </trkpt>
      <trkpt lat="43.24096" lon="2.40738">
        <ele>96.4</ele>
        <time>2015-08-02T08:21:12.657Z</time>
      </trkpt>
      <trkpt lat="43.24094" lon="2.4074">
        <ele>96.3</ele>
        <time>2015-08-02T08:21:13.614Z</time>
      </trkpt>
      <trkpt lat="43.24087" lon="2.40748">
        <ele>96.7</ele>
        <time>2015-08-02T08:21:16.651Z</time>
      </trkpt>
      <trkpt lat="43.24085" lon="2.4075">
        <ele>96.8</ele>
        <time>2015-08-02T08:21:17.609Z</time>
      </trkpt>
      <trkpt lat="43.24079" lon="2.40755">
        <ele>97.2</ele>
        <time>2015-08-02T08:21:20.654Z</time>
      </trkpt>
      <trkpt lat="43.24076" lon="2.40757">
        <ele>97.4</ele>
        <time>2015-08-02T08:21:21.622Z</time>
      </trkpt>
      <trkpt lat="43.24071" lon="2.40761">
        <ele>98</ele>
        <time>2015-08-02T08:21:24.001Z</time>
      </trkpt>
      <trkpt lat="43.24068" lon="2.40764">
        <ele>97.9</ele>
        <time>2015-08-02T08:21:24.610Z</time>
      </trkpt>
      <trkpt lat="43.24063" lon="2.40769">
        <ele>98</ele>
        <time>2015-08-02T08:21:26.661Z</time>
      </trkpt>
      <trkpt lat="43.2406" lon="2.40771">
        <ele>98.1</ele>
        <time>2015-08-02T08:21:27.610Z</time>
      </trkpt>
      <trkpt lat="43.24055" lon="2.40776">
        <ele>97.7</ele>
        <time>2015-08-02T08:21:29.693Z</time>
      </trkpt>
      <trkpt lat="43.24052" lon="2.40778">
        <ele>97.5</ele>
        <time>2015-08-02T08:21:30.634Z</time>
      </trkpt>
      <trkpt lat="43.24047" lon="2.40784">
        <ele>97.1</ele>
        <time>2015-08-02T08:21:32.663Z</time>
      </trkpt>
      <trkpt lat="43.24045" lon="2.40787">
        <ele>97.1</ele>
        <time>2015-08-02T08:21:33.612Z</time>
      </trkpt>
      <trkpt lat="43.24041" lon="2.40794">
        <ele>97.3</ele>
        <time>2015-08-02T08:21:35.663Z</time>
      </trkpt>
      <trkpt lat="43.24038" lon="2.40798">
        <ele>97.2</ele>
        <time>2015-08-02T08:21:36.609Z</time>
      </trkpt>
      <trkpt lat="43.24034" lon="2.40805">
        <ele>97.1</ele>
        <time>2015-08-02T08:21:38.676Z</time>
      </trkpt>
      <trkpt lat="43.24031" lon="2.40808">
        <ele>97.2</ele>
        <time>2015-08-02T08:21:39.619Z</time>
      </trkpt>
      <trkpt lat="43.24026" lon="2.40815">
        <ele>96.9</ele>
        <time>2015-08-02T08:21:41.661Z</time>
      </trkpt>
      <trkpt lat="43.24023" lon="2.4082">
        <ele>96.8</ele>
        <time>2015-08-02T08:21:42.609Z</time>
      </trkpt>
      <trkpt lat="43.24018" lon="2.40828">
        <ele>97</ele>
        <time>2015-08-02T08:21:44.662Z</time>
      </trkpt>
      <trkpt lat="43.24015" lon="2.40833">
        <ele>97.1</ele>
        <time>2015-08-02T08:21:45.609Z</time>
      </trkpt>
      <trkpt lat="43.24009" lon="2.40841">
        <ele>97.2</ele>
        <time>2015-08-02T08:21:47.694Z</time>
      </trkpt>
      <trkpt lat="43.24007" lon="2.40845">
        <ele>97.2</ele>
        <time>2015-08-02T08:21:48.619Z</time>
      </trkpt>
      <trkpt lat="43.24002" lon="2.40853">
        <ele>97</ele>
        <time>2015-08-02T08:21:50.669Z</time>
      </trkpt>
      <trkpt lat="43.24" lon="2.40857">
        <ele>97</ele>
        <time>2015-08-02T08:21:51.609Z</time>
      </trkpt>
      <trkpt lat="43.23994" lon="2.40865">
        <ele>96.8</ele>
        <time>2015-08-02T08:21:53.661Z</time>
      </trkpt>
      <trkpt lat="43.23992" lon="2.40868">
        <ele>96.7</ele>
        <time>2015-08-02T08:21:54.615Z</time>
      </trkpt>
      <trkpt lat="43.23988" lon="2.40875">
        <ele>96.4</ele>
        <time>2015-08-02T08:21:56.663Z</time>
      </trkpt>
      <trkpt lat="43.23985" lon="2.40879">
        <ele>96.3</ele>
        <time>2015-08-02T08:21:57.614Z</time>
      </trkpt>
      <trkpt lat="43.2398" lon="2.40887">
        <ele>95.9</ele>
        <time>2015-08-02T08:21:59.670Z</time>
      </trkpt>
      <trkpt lat="43.23978" lon="2.4089">
        <ele>95.7</ele>
        <time>2015-08-02T08:22:00.608Z</time>
      </trkpt>
      <trkpt lat="43.23973" lon="2.40896">
        <ele>95.5</ele>
        <time>2015-08-02T08:22:02.662Z</time>
      </trkpt>
      <trkpt lat="43.23971" lon="2.409">
        <ele>95.3</ele>
        <time>2015-08-02T08:22:03.613Z</time>
      </trkpt>
      <trkpt lat="43.23967" lon="2.40906">
        <ele>95.2</ele>
        <time>2015-08-02T08:22:05.661Z</time>
      </trkpt>
      <trkpt lat="43.23964" lon="2.4091">
        <ele>95</ele>
        <time>2015-08-02T08:22:06.611Z</time>
      </trkpt>
      <trkpt lat="43.23959" lon="2.40918">
        <ele>94.3</ele>
        <time>2015-08-02T08:22:08.662Z</time>
      </trkpt>
      <trkpt lat="43.23957" lon="2.40922">
        <ele>94</ele>
        <time>2015-08-02T08:22:09.611Z</time>
      </trkpt>
      <trkpt lat="43.23952" lon="2.40932">
        <ele>93.9</ele>
        <time>2015-08-02T08:22:11.659Z</time>
      </trkpt>
      <trkpt lat="43.2395" lon="2.40936">
        <ele>93.9</ele>
        <time>2015-08-02T08:22:12.621Z</time>
      </trkpt>
      <trkpt lat="43.23946" lon="2.40945">
        <ele>93.8</ele>
        <time>2015-08-02T08:22:14.661Z</time>
      </trkpt>
      <trkpt lat="43.23944" lon="2.40949">
        <ele>93.8</ele>
        <time>2015-08-02T08:22:15.614Z</time>
      </trkpt>
      <trkpt lat="43.2394" lon="2.40957">
        <ele>93.7</ele>
        <time>2015-08-02T08:22:17.660Z</time>
      </trkpt>
      <trkpt lat="43.23938" lon="2.40961">
        <ele>93.6</ele>
        <time>2015-08-02T08:22:18.610Z</time>
      </trkpt>
      <trkpt lat="43.23932" lon="2.40968">
        <ele>93.5</ele>
        <time>2015-08-02T08:22:20.679Z</time>
      </trkpt>
      <trkpt lat="43.23931" lon="2.40972">
        <ele>93.3</ele>
        <time>2015-08-02T08:22:21.619Z</time>
      </trkpt>
      <trkpt lat="43.23926" lon="2.40981">
        <ele>93.2</ele>
        <time>2015-08-02T08:22:24.661Z</time>
      </trkpt>
      <trkpt lat="43.23924" lon="2.40982">
        <ele>93.5</ele>
        <time>2015-08-02T08:22:25.628Z</time>
      </trkpt>
      <trkpt lat="43.2392" lon="2.40991">
        <ele>94</ele>
        <time>2015-08-02T08:22:28.676Z</time>
      </trkpt>
      <trkpt lat="43.23918" lon="2.40993">
        <ele>94.1</ele>
        <time>2015-08-02T08:22:29.612Z</time>
      </trkpt>
      <trkpt lat="43.23914" lon="2.41001">
        <ele>94.2</ele>
        <time>2015-08-02T08:22:32.997Z</time>
      </trkpt>
      <trkpt lat="43.23913" lon="2.41003">
        <ele>94.2</ele>
        <time>2015-08-02T08:22:33.611Z</time>
      </trkpt>
      <trkpt lat="43.23908" lon="2.41013">
        <ele>94.5</ele>
        <time>2015-08-02T08:22:36.675Z</time>
      </trkpt>
      <trkpt lat="43.23908" lon="2.41015">
        <ele>94.5</ele>
        <time>2015-08-02T08:22:37.641Z</time>
      </trkpt>
      <trkpt lat="43.23904" lon="2.41023">
        <ele>94.3</ele>
        <time>2015-08-02T08:22:39.670Z</time>
      </trkpt>
      <trkpt lat="43.23903" lon="2.41026">
        <ele>94.3</ele>
        <time>2015-08-02T08:22:40.610Z</time>
      </trkpt>
      <trkpt lat="43.23898" lon="2.41032">
        <ele>94.5</ele>
        <time>2015-08-02T08:22:42.659Z</time>
      </trkpt>
      <trkpt lat="43.23896" lon="2.41035">
        <ele>94.6</ele>
        <time>2015-08-02T08:22:43.613Z</time>
      </trkpt>
      <trkpt lat="43.23891" lon="2.41042">
        <ele>95.2</ele>
        <time>2015-08-02T08:22:45.703Z</time>
      </trkpt>
      <trkpt lat="43.23888" lon="2.41045">
        <ele>95.3</ele>
        <time>2015-08-02T08:22:46.619Z</time>
      </trkpt>
      <trkpt lat="43.23884" lon="2.41052">
        <ele>95.3</ele>
        <time>2015-08-02T08:22:48.686Z</time>
      </trkpt>
      <trkpt lat="43.23882" lon="2.41055">
        <ele>95.1</ele>
        <time>2015-08-02T08:22:49.619Z</time>
      </trkpt>
      <trkpt lat="43.23877" lon="2.41062">
        <ele>95</ele>
        <time>2015-08-02T08:22:51.661Z</time>
      </trkpt>
      <trkpt lat="43.23875" lon="2.41065">
        <ele>94.8</ele>
        <time>2015-08-02T08:22:52.607Z</time>
      </trkpt>
      <trkpt lat="43.2387" lon="2.41074">
        <ele>94.6</ele>
        <time>2015-08-02T08:22:55.664Z</time>
      </trkpt>
      <trkpt lat="43.23867" lon="2.41078">
        <ele>94.9</ele>
        <time>2015-08-02T08:22:56.612Z</time>
      </trkpt>
      <trkpt lat="43.23861" lon="2.41085">
        <ele>95.8</ele>
        <time>2015-08-02T08:22:58.706Z</time>
      </trkpt>
      <trkpt lat="43.23858" lon="2.41089">
        <ele>96.3</ele>
        <time>2015-08-02T08:22:59.613Z</time>
      </trkpt>
      <trkpt lat="43.23853" lon="2.41096">
        <ele>97.2</ele>
        <time>2015-08-02T08:23:01.808Z</time>
      </trkpt>
      <trkpt lat="43.2385" lon="2.411">
        <ele>97.8</ele>
        <time>2015-08-02T08:23:02.612Z</time>
      </trkpt>
      <trkpt lat="43.23843" lon="2.41107">
        <ele>98.6</ele>
        <time>2015-08-02T08:23:04.660Z</time>
      </trkpt>
      <trkpt lat="43.23841" lon="2.4111">
        <ele>98.8</ele>
        <time>2015-08-02T08:23:05.610Z</time>
      </trkpt>
      <trkpt lat="43.23835" lon="2.41115">
        <ele>98.9</ele>
        <time>2015-08-02T08:23:07.682Z</time>
      </trkpt>
      <trkpt lat="43.23833" lon="2.41118">
        <ele>99.3</ele>
        <time>2015-08-02T08:23:08.621Z</time>
      </trkpt>
      <trkpt lat="43.23828" lon="2.41123">
        <ele>99.6</ele>
        <time>2015-08-02T08:23:10.660Z</time>
      </trkpt>
      <trkpt lat="43.23826" lon="2.41126">
        <ele>99.7</ele>
        <time>2015-08-02T08:23:11.612Z</time>
      </trkpt>
      <trkpt lat="43.23821" lon="2.41131">
        <ele>100.1</ele>
        <time>2015-08-02T08:23:13.661Z</time>
      </trkpt>
      <trkpt lat="43.23819" lon="2.41133">
        <ele>100.5</ele>
        <time>2015-08-02T08:23:14.612Z</time>
      </trkpt>
      <trkpt lat="43.23814" lon="2.41139">
        <ele>101</ele>
        <time>2015-08-02T08:23:16.768Z</time>
      </trkpt>
      <trkpt lat="43.23811" lon="2.41142">
        <ele>101.4</ele>
        <time>2015-08-02T08:23:17.610Z</time>
      </trkpt>
      <trkpt lat="43.23805" lon="2.41147">
        <ele>101.8</ele>
        <time>2015-08-02T08:23:19.682Z</time>
      </trkpt>
      <trkpt lat="43.23802" lon="2.4115">
        <ele>101.9</ele>
        <time>2015-08-02T08:23:20.614Z</time>
      </trkpt>
      <trkpt lat="43.23795" lon="2.41155">
        <ele>102.2</ele>
        <time>2015-08-02T08:23:22.691Z</time>
      </trkpt>
      <trkpt lat="43.23792" lon="2.41157">
        <ele>102.2</ele>
        <time>2015-08-02T08:23:23.623Z</time>
      </trkpt>
      <trkpt lat="43.23787" lon="2.41162">
        <ele>102.3</ele>
        <time>2015-08-02T08:23:25.661Z</time>
      </trkpt>
      <trkpt lat="43.23784" lon="2.41164">
        <ele>102.2</ele>
        <time>2015-08-02T08:23:26.612Z</time>
      </trkpt>
      <trkpt lat="43.23778" lon="2.41169">
        <ele>101.8</ele>
        <time>2015-08-02T08:23:28.649Z</time>
      </trkpt>
      <trkpt lat="43.23774" lon="2.4117">
        <ele>102</ele>
        <time>2015-08-02T08:23:29.614Z</time>
      </trkpt>
      <trkpt lat="43.23769" lon="2.41175">
        <ele>101.7</ele>
        <time>2015-08-02T08:23:31.657Z</time>
      </trkpt>
      <trkpt lat="43.23766" lon="2.41178">
        <ele>101.5</ele>
        <time>2015-08-02T08:23:32.612Z</time>
      </trkpt>
      <trkpt lat="43.2376" lon="2.41183">
        <ele>101.1</ele>
        <time>2015-08-02T08:23:34.653Z</time>
      </trkpt>
      <trkpt lat="43.23758" lon="2.41186">
        <ele>100.9</ele>
        <time>2015-08-02T08:23:35.610Z</time>
      </trkpt>
      <trkpt lat="43.23751" lon="2.4119">
        <ele>101.1</ele>
        <time>2015-08-02T08:23:37.681Z</time>
      </trkpt>
      <trkpt lat="43.23749" lon="2.41192">
        <ele>101</ele>
        <time>2015-08-02T08:23:38.621Z</time>
      </trkpt>
      <trkpt lat="43.23743" lon="2.41196">
        <ele>101</ele>
        <time>2015-08-02T08:23:40.660Z</time>
      </trkpt>
      <trkpt lat="43.23741" lon="2.41198">
        <ele>100.8</ele>
        <time>2015-08-02T08:23:41.611Z</time>
      </trkpt>
      <trkpt lat="43.23735" lon="2.41203">
        <ele>100.1</ele>
        <time>2015-08-02T08:23:43.651Z</time>
      </trkpt>
      <trkpt lat="43.23732" lon="2.41205">
        <ele>99.9</ele>
        <time>2015-08-02T08:23:44.616Z</time>
      </trkpt>
      <trkpt lat="43.23727" lon="2.4121">
        <ele>99.4</ele>
        <time>2015-08-02T08:23:46.665Z</time>
      </trkpt>
      <trkpt lat="43.23725" lon="2.41212">
        <ele>99.3</ele>
        <time>2015-08-02T08:23:47.990Z</time>
      </trkpt>
      <trkpt lat="43.2372" lon="2.41217">
        <ele>99.1</ele>
        <time>2015-08-02T08:23:49.660Z</time>
      </trkpt>
      <trkpt lat="43.23716" lon="2.41219">
        <ele>99.1</ele>
        <time>2015-08-02T08:23:50.615Z</time>
      </trkpt>
      <trkpt lat="43.23708" lon="2.41222">
        <ele>99.5</ele>
        <time>2015-08-02T08:23:52.651Z</time>
      </trkpt>
      <trkpt lat="43.23705" lon="2.41224">
        <ele>99.5</ele>
        <time>2015-08-02T08:23:53.609Z</time>
      </trkpt>
      <trkpt lat="43.23699" lon="2.41229">
        <ele>99.6</ele>
        <time>2015-08-02T08:23:55.699Z</time>
      </trkpt>
      <trkpt lat="43.23697" lon="2.41232">
        <ele>99.7</ele>
        <time>2015-08-02T08:23:56.621Z</time>
      </trkpt>
      <trkpt lat="43.23691" lon="2.41237">
        <ele>100</ele>
        <time>2015-08-02T08:23:58.661Z</time>
      </trkpt>
      <trkpt lat="43.23688" lon="2.41239">
        <ele>99.9</ele>
        <time>2015-08-02T08:23:59.612Z</time>
      </trkpt>
      <trkpt lat="43.23683" lon="2.41245">
        <ele>99.7</ele>
        <time>2015-08-02T08:24:01.653Z</time>
      </trkpt>
      <trkpt lat="43.2368" lon="2.41248">
        <ele>99.8</ele>
        <time>2015-08-02T08:24:02.610Z</time>
      </trkpt>
      <trkpt lat="43.23675" lon="2.41253">
        <ele>99.9</ele>
        <time>2015-08-02T08:24:05.030Z</time>
      </trkpt>
      <trkpt lat="43.23672" lon="2.41256">
        <ele>99.9</ele>
        <time>2015-08-02T08:24:05.608Z</time>
      </trkpt>
      <trkpt lat="43.23667" lon="2.41261">
        <ele>99.9</ele>
        <time>2015-08-02T08:24:07.656Z</time>
      </trkpt>
      <trkpt lat="43.23664" lon="2.41264">
        <ele>99.8</ele>
        <time>2015-08-02T08:24:08.611Z</time>
      </trkpt>
      <trkpt lat="43.23659" lon="2.41269">
        <ele>99.9</ele>
        <time>2015-08-02T08:24:10.653Z</time>
      </trkpt>
      <trkpt lat="43.23656" lon="2.41271">
        <ele>99.9</ele>
        <time>2015-08-02T08:24:11.640Z</time>
      </trkpt>
      <trkpt lat="43.23649" lon="2.41276">
        <ele>99.8</ele>
        <time>2015-08-02T08:24:13.655Z</time>
      </trkpt>
      <trkpt lat="43.23647" lon="2.41278">
        <ele>99.8</ele>
        <time>2015-08-02T08:24:14.610Z</time>
      </trkpt>
      <trkpt lat="43.23641" lon="2.41284">
        <ele>99.8</ele>
        <time>2015-08-02T08:24:16.661Z</time>
      </trkpt>
      <trkpt lat="43.23638" lon="2.41286">
        <ele>99.8</ele>
        <time>2015-08-02T08:24:17.611Z</time>
      </trkpt>
      <trkpt lat="43.2363" lon="2.41292">
        <ele>99.8</ele>
        <time>2015-08-02T08:24:19.686Z</time>
      </trkpt>
      <trkpt lat="43.23627" lon="2.41294">
        <ele>99.9</ele>
        <time>2015-08-02T08:24:20.622Z</time>
      </trkpt>
      <trkpt lat="43.23621" lon="2.41299">
        <ele>100.2</ele>
        <time>2015-08-02T08:24:22.651Z</time>
      </trkpt>
      <trkpt lat="43.23618" lon="2.41301">
        <ele>100.6</ele>
        <time>2015-08-02T08:24:23.611Z</time>
      </trkpt>
      <trkpt lat="43.23612" lon="2.41305">
        <ele>100.9</ele>
        <time>2015-08-02T08:24:25.650Z</time>
      </trkpt>
      <trkpt lat="43.23608" lon="2.41308">
        <ele>101.3</ele>
        <time>2015-08-02T08:24:26.611Z</time>
      </trkpt>
      <trkpt lat="43.23603" lon="2.41312">
        <ele>101.4</ele>
        <time>2015-08-02T08:24:28.675Z</time>
      </trkpt>
      <trkpt lat="43.23599" lon="2.41314">
        <ele>101.6</ele>
        <time>2015-08-02T08:24:29.623Z</time>
      </trkpt>
      <trkpt lat="43.23593" lon="2.41318">
        <ele>102.2</ele>
        <time>2015-08-02T08:24:31.650Z</time>
      </trkpt>
      <trkpt lat="43.2359" lon="2.4132">
        <ele>102.1</ele>
        <time>2015-08-02T08:24:32.956Z</time>
      </trkpt>
      <trkpt lat="43.23583" lon="2.41325">
        <ele>102.4</ele>
        <time>2015-08-02T08:24:35.670Z</time>
      </trkpt>
      <trkpt lat="43.23581" lon="2.41326">
        <ele>102.1</ele>
        <time>2015-08-02T08:24:36.609Z</time>
      </trkpt>
      <trkpt lat="43.23573" lon="2.41328">
        <ele>100.6</ele>
        <time>2015-08-02T08:24:39.691Z</time>
      </trkpt>
      <trkpt lat="43.23571" lon="2.4133">
        <ele>100.6</ele>
        <time>2015-08-02T08:24:40.612Z</time>
      </trkpt>
      <trkpt lat="43.23564" lon="2.41334">
        <ele>100.4</ele>
        <time>2015-08-02T08:24:43.641Z</time>
      </trkpt>
      <trkpt lat="43.23562" lon="2.41336">
        <ele>100.5</ele>
        <time>2015-08-02T08:24:44.611Z</time>
      </trkpt>
      <trkpt lat="43.23555" lon="2.41342">
        <ele>100.8</ele>
        <time>2015-08-02T08:24:49.705Z</time>
      </trkpt>
      <trkpt lat="43.23554" lon="2.41343">
        <ele>100.8</ele>
        <time>2015-08-02T08:24:50.622Z</time>
      </trkpt>
      <trkpt lat="43.23552" lon="2.41346">
        <ele>101.1</ele>
        <time>2015-08-02T08:24:52.651Z</time>
      </trkpt>
      <trkpt lat="43.23551" lon="2.41346">
        <ele>101.1</ele>
        <time>2015-08-02T08:24:53.613Z</time>
      </trkpt>
      <trkpt lat="43.2355" lon="2.41346">
        <ele>100.3</ele>
        <time>2015-08-02T08:25:02.658Z</time>
      </trkpt>
      <trkpt lat="43.23549" lon="2.41346">
        <ele>100.1</ele>
        <time>2015-08-02T08:25:03.611Z</time>
      </trkpt>
      <trkpt lat="43.2354" lon="2.41342">
        <ele>99.2</ele>
        <time>2015-08-02T08:25:11.655Z</time>
      </trkpt>
      <trkpt lat="43.23539" lon="2.41341">
        <ele>99.1</ele>
        <time>2015-08-02T08:25:12.611Z</time>
      </trkpt>
      <trkpt lat="43.23531" lon="2.41342">
        <ele>97.1</ele>
        <time>2015-08-02T08:25:24.650Z</time>
      </trkpt>
      <trkpt lat="43.23529" lon="2.41344">
        <ele>97</ele>
        <time>2015-08-02T08:25:25.609Z</time>
      </trkpt>
      <trkpt lat="43.23529" lon="2.41344">
        <ele>97</ele>
        <time>2015-08-02T08:25:25.654Z</time>
      </trkpt>
      <trkpt lat="43.23528" lon="2.41349">
        <ele>96.8</ele>
        <time>2015-08-02T08:25:28.675Z</time>
      </trkpt>
      <trkpt lat="43.23527" lon="2.4135">
        <ele>96.7</ele>
        <time>2015-08-02T08:25:29.620Z</time>
      </trkpt>
      <trkpt lat="43.2352" lon="2.41356">
        <ele>96.1</ele>
        <time>2015-08-02T08:25:33.654Z</time>
      </trkpt>
      <trkpt lat="43.23518" lon="2.41357">
        <ele>96</ele>
        <time>2015-08-02T08:25:34.610Z</time>
      </trkpt>
      <trkpt lat="43.23513" lon="2.41363">
        <ele>95.3</ele>
        <time>2015-08-02T08:25:37.805Z</time>
      </trkpt>
      <trkpt lat="43.23511" lon="2.41366">
        <ele>95.1</ele>
        <time>2015-08-02T08:25:38.621Z</time>
      </trkpt>
      <trkpt lat="43.23504" lon="2.41372">
        <ele>94.5</ele>
        <time>2015-08-02T08:25:41.655Z</time>
      </trkpt>
      <trkpt lat="43.23501" lon="2.41375">
        <ele>94.4</ele>
        <time>2015-08-02T08:25:42.609Z</time>
      </trkpt>
      <trkpt lat="43.23495" lon="2.41381">
        <ele>94.1</ele>
        <time>2015-08-02T08:25:44.653Z</time>
      </trkpt>
      <trkpt lat="43.23492" lon="2.41384">
        <ele>93.8</ele>
        <time>2015-08-02T08:25:45.624Z</time>
      </trkpt>
      <trkpt lat="43.23486" lon="2.41389">
        <ele>93.2</ele>
        <time>2015-08-02T08:25:48.073Z</time>
      </trkpt>
      <trkpt lat="43.23483" lon="2.41392">
        <ele>93</ele>
        <time>2015-08-02T08:25:48.610Z</time>
      </trkpt>
      <trkpt lat="43.23476" lon="2.41399">
        <ele>92.4</ele>
        <time>2015-08-02T08:25:50.657Z</time>
      </trkpt>
      <trkpt lat="43.23473" lon="2.41402">
        <ele>92.2</ele>
        <time>2015-08-02T08:25:51.608Z</time>
      </trkpt>
      <trkpt lat="43.23466" lon="2.41408">
        <ele>91.8</ele>
        <time>2015-08-02T08:25:53.653Z</time>
      </trkpt>
      <trkpt lat="43.23462" lon="2.41412">
        <ele>91.6</ele>
        <time>2015-08-02T08:25:54.608Z</time>
      </trkpt>
      <trkpt lat="43.23455" lon="2.41417">
        <ele>91.2</ele>
        <time>2015-08-02T08:25:56.651Z</time>
      </trkpt>
      <trkpt lat="43.23451" lon="2.4142">
        <ele>91.2</ele>
        <time>2015-08-02T08:25:57.607Z</time>
      </trkpt>
      <trkpt lat="43.23445" lon="2.41425">
        <ele>91</ele>
        <time>2015-08-02T08:25:59.652Z</time>
      </trkpt>
      <trkpt lat="43.23441" lon="2.41428">
        <ele>91</ele>
        <time>2015-08-02T08:26:00.608Z</time>
      </trkpt>
      <trkpt lat="43.23435" lon="2.41433">
        <ele>91</ele>
        <time>2015-08-02T08:26:02.674Z</time>
      </trkpt>
      <trkpt lat="43.23432" lon="2.41436">
        <ele>91.1</ele>
        <time>2015-08-02T08:26:03.622Z</time>
      </trkpt>
      <trkpt lat="43.23426" lon="2.4144">
        <ele>90.9</ele>
        <time>2015-08-02T08:26:05.651Z</time>
      </trkpt>
      <trkpt lat="43.23423" lon="2.41443">
        <ele>90.8</ele>
        <time>2015-08-02T08:26:06.610Z</time>
      </trkpt>
      <trkpt lat="43.23417" lon="2.41448">
        <ele>90.7</ele>
        <time>2015-08-02T08:26:08.657Z</time>
      </trkpt>
      <trkpt lat="43.23414" lon="2.4145">
        <ele>90.7</ele>
        <time>2015-08-02T08:26:09.612Z</time>
      </trkpt>
      <trkpt lat="43.23409" lon="2.41454">
        <ele>90.7</ele>
        <time>2015-08-02T08:26:11.658Z</time>
      </trkpt>
      <trkpt lat="43.23406" lon="2.41457">
        <ele>90.8</ele>
        <time>2015-08-02T08:26:12.608Z</time>
      </trkpt>
      <trkpt lat="43.234" lon="2.41462">
        <ele>90.9</ele>
        <time>2015-08-02T08:26:14.678Z</time>
      </trkpt>
      <trkpt lat="43.23397" lon="2.41464">
        <ele>90.9</ele>
        <time>2015-08-02T08:26:15.621Z</time>
      </trkpt>
      <trkpt lat="43.23391" lon="2.41472">
        <ele>91.6</ele>
        <time>2015-08-02T08:26:18.657Z</time>
      </trkpt>
      <trkpt lat="43.23388" lon="2.41474">
        <ele>91.8</ele>
        <time>2015-08-02T08:26:19.612Z</time>
      </trkpt>
      <trkpt lat="43.23383" lon="2.41479">
        <ele>92</ele>
        <time>2015-08-02T08:26:21.653Z</time>
      </trkpt>
      <trkpt lat="43.2338" lon="2.41482">
        <ele>92.4</ele>
        <time>2015-08-02T08:26:22.610Z</time>
      </trkpt>
      <trkpt lat="43.23376" lon="2.41487">
        <ele>92.8</ele>
        <time>2015-08-02T08:26:24.664Z</time>
      </trkpt>
      <trkpt lat="43.23373" lon="2.41489">
        <ele>93</ele>
        <time>2015-08-02T08:26:25.610Z</time>
      </trkpt>
      <trkpt lat="43.23368" lon="2.41494">
        <ele>93.6</ele>
        <time>2015-08-02T08:26:27.658Z</time>
      </trkpt>
      <trkpt lat="43.23366" lon="2.41497">
        <ele>94.2</ele>
        <time>2015-08-02T08:26:28.610Z</time>
      </trkpt>
      <trkpt lat="43.2336" lon="2.41503">
        <ele>94.5</ele>
        <time>2015-08-02T08:26:30.650Z</time>
      </trkpt>
      <trkpt lat="43.23357" lon="2.41505">
        <ele>94.7</ele>
        <time>2015-08-02T08:26:31.608Z</time>
      </trkpt>
      <trkpt lat="43.23352" lon="2.4151">
        <ele>95.1</ele>
        <time>2015-08-02T08:26:33.681Z</time>
      </trkpt>
      <trkpt lat="43.23349" lon="2.41512">
        <ele>95.3</ele>
        <time>2015-08-02T08:26:34.620Z</time>
      </trkpt>
      <trkpt lat="43.23344" lon="2.41517">
        <ele>95.9</ele>
        <time>2015-08-02T08:26:36.674Z</time>
      </trkpt>
      <trkpt lat="43.23341" lon="2.41519">
        <ele>96</ele>
        <time>2015-08-02T08:26:37.645Z</time>
      </trkpt>
      <trkpt lat="43.23336" lon="2.41523">
        <ele>96.4</ele>
        <time>2015-08-02T08:26:39.652Z</time>
      </trkpt>
      <trkpt lat="43.23333" lon="2.41524">
        <ele>96.6</ele>
        <time>2015-08-02T08:26:40.613Z</time>
      </trkpt>
      <trkpt lat="43.23328" lon="2.41528">
        <ele>96.7</ele>
        <time>2015-08-02T08:26:42.671Z</time>
      </trkpt>
      <trkpt lat="43.23325" lon="2.41529">
        <ele>96.7</ele>
        <time>2015-08-02T08:26:43.608Z</time>
      </trkpt>
      <trkpt lat="43.23319" lon="2.41532">
        <ele>96.8</ele>
        <time>2015-08-02T08:26:45.643Z</time>
      </trkpt>
      <trkpt lat="43.23316" lon="2.41534">
        <ele>96.8</ele>
        <time>2015-08-02T08:26:46.607Z</time>
      </trkpt>
      <trkpt lat="43.2331" lon="2.41537">
        <ele>96.6</ele>
        <time>2015-08-02T08:26:48.660Z</time>
      </trkpt>
      <trkpt lat="43.23307" lon="2.41539">
        <ele>96.6</ele>
        <time>2015-08-02T08:26:49.612Z</time>
      </trkpt>
      <trkpt lat="43.23301" lon="2.41542">
        <ele>96.5</ele>
        <time>2015-08-02T08:26:51.655Z</time>
      </trkpt>
      <trkpt lat="43.23297" lon="2.41543">
        <ele>96.4</ele>
        <time>2015-08-02T08:26:52.612Z</time>
      </trkpt>
      <trkpt lat="43.2329" lon="2.41546">
        <ele>96.3</ele>
        <time>2015-08-02T08:26:54.646Z</time>
      </trkpt>
      <trkpt lat="43.23287" lon="2.41547">
        <ele>96.2</ele>
        <time>2015-08-02T08:26:55.609Z</time>
      </trkpt>
      <trkpt lat="43.2328" lon="2.4155">
        <ele>96</ele>
        <time>2015-08-02T08:26:57.911Z</time>
      </trkpt>
      <trkpt lat="43.23277" lon="2.41551">
        <ele>95.9</ele>
        <time>2015-08-02T08:26:58.610Z</time>
      </trkpt>
      <trkpt lat="43.2327" lon="2.41553">
        <ele>95.6</ele>
        <time>2015-08-02T08:27:00.663Z</time>
      </trkpt>
      <trkpt lat="43.23267" lon="2.41554">
        <ele>95.5</ele>
        <time>2015-08-02T08:27:01.637Z</time>
      </trkpt>
      <trkpt lat="43.2326" lon="2.41556">
        <ele>95.4</ele>
        <time>2015-08-02T08:27:03.662Z</time>
      </trkpt>
      <trkpt lat="43.23257" lon="2.41557">
        <ele>95.2</ele>
        <time>2015-08-02T08:27:04.610Z</time>
      </trkpt>
      <trkpt lat="43.23251" lon="2.41558">
        <ele>95</ele>
        <time>2015-08-02T08:27:06.652Z</time>
      </trkpt>
      <trkpt lat="43.23248" lon="2.41559">
        <ele>95.1</ele>
        <time>2015-08-02T08:27:07.611Z</time>
      </trkpt>
      <trkpt lat="43.23242" lon="2.41561">
        <ele>95.4</ele>
        <time>2015-08-02T08:27:09.654Z</time>
      </trkpt>
      <trkpt lat="43.23239" lon="2.41562">
        <ele>95.4</ele>
        <time>2015-08-02T08:27:10.610Z</time>
      </trkpt>
      <trkpt lat="43.23232" lon="2.41564">
        <ele>95.2</ele>
        <time>2015-08-02T08:27:12.641Z</time>
      </trkpt>
      <trkpt lat="43.23228" lon="2.41564">
        <ele>95.2</ele>
        <time>2015-08-02T08:27:13.611Z</time>
      </trkpt>
      <trkpt lat="43.23221" lon="2.41566">
        <ele>94.9</ele>
        <time>2015-08-02T08:27:15.653Z</time>
      </trkpt>
      <trkpt lat="43.23217" lon="2.41566">
        <ele>94.8</ele>
        <time>2015-08-02T08:27:16.927Z</time>
      </trkpt>
      <trkpt lat="43.2321" lon="2.41567">
        <ele>94.5</ele>
        <time>2015-08-02T08:27:18.649Z</time>
      </trkpt>
      <trkpt lat="43.23207" lon="2.41567">
        <ele>94.3</ele>
        <time>2015-08-02T08:27:19.609Z</time>
      </trkpt>
      <trkpt lat="43.232" lon="2.41568">
        <ele>93.9</ele>
        <time>2015-08-02T08:27:21.642Z</time>
      </trkpt>
      <trkpt lat="43.23196" lon="2.41568">
        <ele>93.7</ele>
        <time>2015-08-02T08:27:22.609Z</time>
      </trkpt>
      <trkpt lat="43.23189" lon="2.41569">
        <ele>93.3</ele>
        <time>2015-08-02T08:27:24.647Z</time>
      </trkpt>
      <trkpt lat="43.23186" lon="2.41569">
        <ele>93</ele>
        <time>2015-08-02T08:27:25.611Z</time>
      </trkpt>
      <trkpt lat="43.2318" lon="2.41569">
        <ele>92.6</ele>
        <time>2015-08-02T08:27:27.654Z</time>
      </trkpt>
      <trkpt lat="43.23176" lon="2.41569">
        <ele>92.6</ele>
        <time>2015-08-02T08:27:28.610Z</time>
      </trkpt>
      <trkpt lat="43.23169" lon="2.4157">
        <ele>92.7</ele>
        <time>2015-08-02T08:27:30.646Z</time>
      </trkpt>
      <trkpt lat="43.23166" lon="2.4157">
        <ele>92.3</ele>
        <time>2015-08-02T08:27:31.623Z</time>
      </trkpt>
      <trkpt lat="43.2316" lon="2.41569">
        <ele>91.8</ele>
        <time>2015-08-02T08:27:33.651Z</time>
      </trkpt>
      <trkpt lat="43.23156" lon="2.41569">
        <ele>91.6</ele>
        <time>2015-08-02T08:27:34.609Z</time>
      </trkpt>
      <trkpt lat="43.23149" lon="2.41568">
        <ele>91.5</ele>
        <time>2015-08-02T08:27:36.650Z</time>
      </trkpt>
      <trkpt lat="43.23146" lon="2.41567">
        <ele>91.4</ele>
        <time>2015-08-02T08:27:37.609Z</time>
      </trkpt>
      <trkpt lat="43.2314" lon="2.41566">
        <ele>91.1</ele>
        <time>2015-08-02T08:27:39.854Z</time>
      </trkpt>
      <trkpt lat="43.23137" lon="2.41565">
        <ele>91.1</ele>
        <time>2015-08-02T08:27:40.630Z</time>
      </trkpt>
      <trkpt lat="43.2313" lon="2.41565">
        <ele>90.9</ele>
        <time>2015-08-02T08:27:42.644Z</time>
      </trkpt>
      <trkpt lat="43.23126" lon="2.41564">
        <ele>90.9</ele>
        <time>2015-08-02T08:27:43.607Z</time>
      </trkpt>
      <trkpt lat="43.23119" lon="2.41561">
        <ele>90.9</ele>
        <time>2015-08-02T08:27:45.653Z</time>
      </trkpt>
      <trkpt lat="43.23116" lon="2.41559">
        <ele>90.9</ele>
        <time>2015-08-02T08:27:46.610Z</time>
      </trkpt>
      <trkpt lat="43.23109" lon="2.41557">
        <ele>91</ele>
        <time>2015-08-02T08:27:48.658Z</time>
      </trkpt>
      <trkpt lat="43.23105" lon="2.41556">
        <ele>90.9</ele>
        <time>2015-08-02T08:27:49.607Z</time>
      </trkpt>
      <trkpt lat="43.23098" lon="2.41552">
        <ele>90.9</ele>
        <time>2015-08-02T08:27:51.655Z</time>
      </trkpt>
      <trkpt lat="43.23095" lon="2.41549">
        <ele>90.9</ele>
        <time>2015-08-02T08:27:52.606Z</time>
      </trkpt>
      <trkpt lat="43.23088" lon="2.41544">
        <ele>91.1</ele>
        <time>2015-08-02T08:27:54.680Z</time>
      </trkpt>
      <trkpt lat="43.23085" lon="2.41542">
        <ele>91.2</ele>
        <time>2015-08-02T08:27:55.605Z</time>
      </trkpt>
      <trkpt lat="43.23079" lon="2.41537">
        <ele>91.3</ele>
        <time>2015-08-02T08:27:57.652Z</time>
      </trkpt>
      <trkpt lat="43.23077" lon="2.41533">
        <ele>91.4</ele>
        <time>2015-08-02T08:27:58.619Z</time>
      </trkpt>
      <trkpt lat="43.23071" lon="2.41527">
        <ele>91.5</ele>
        <time>2015-08-02T08:28:00.652Z</time>
      </trkpt>
      <trkpt lat="43.23069" lon="2.41524">
        <ele>91.5</ele>
        <time>2015-08-02T08:28:01.613Z</time>
      </trkpt>
      <trkpt lat="43.23065" lon="2.41517">
        <ele>91.2</ele>
        <time>2015-08-02T08:28:03.652Z</time>
      </trkpt>
      <trkpt lat="43.23063" lon="2.41513">
        <ele>91.1</ele>
        <time>2015-08-02T08:28:04.609Z</time>
      </trkpt>
      <trkpt lat="43.23059" lon="2.41506">
        <ele>90.9</ele>
        <time>2015-08-02T08:28:06.655Z</time>
      </trkpt>
      <trkpt lat="43.23056" lon="2.41503">
        <ele>90.9</ele>
        <time>2015-08-02T08:28:07.609Z</time>
      </trkpt>
      <trkpt lat="43.23052" lon="2.41497">
        <ele>91</ele>
        <time>2015-08-02T08:28:09.655Z</time>
      </trkpt>
      <trkpt lat="43.2305" lon="2.41493">
        <ele>90.9</ele>
        <time>2015-08-02T08:28:10.609Z</time>
      </trkpt>
      <trkpt lat="43.23046" lon="2.41487">
        <ele>91</ele>
        <time>2015-08-02T08:28:12.651Z</time>
      </trkpt>
      <trkpt lat="43.23044" lon="2.41483">
        <ele>91.1</ele>
        <time>2015-08-02T08:28:13.619Z</time>
      </trkpt>
      <trkpt lat="43.2304" lon="2.41476">
        <ele>91</ele>
        <time>2015-08-02T08:28:15.678Z</time>
      </trkpt>
      <trkpt lat="43.23038" lon="2.41473">
        <ele>91.1</ele>
        <time>2015-08-02T08:28:16.619Z</time>
      </trkpt>
      <trkpt lat="43.23035" lon="2.41465">
        <ele>91.1</ele>
        <time>2015-08-02T08:28:18.657Z</time>
      </trkpt>
      <trkpt lat="43.23033" lon="2.41461">
        <ele>91.1</ele>
        <time>2015-08-02T08:28:19.611Z</time>
      </trkpt>
      <trkpt lat="43.23029" lon="2.41453">
        <ele>91.1</ele>
        <time>2015-08-02T08:28:21.656Z</time>
      </trkpt>
      <trkpt lat="43.23026" lon="2.4145">
        <ele>91</ele>
        <time>2015-08-02T08:28:22.609Z</time>
      </trkpt>
      <trkpt lat="43.23023" lon="2.41442">
        <ele>90.3</ele>
        <time>2015-08-02T08:28:24.676Z</time>
      </trkpt>
      <trkpt lat="43.23022" lon="2.41439">
        <ele>90.1</ele>
        <time>2015-08-02T08:28:25.612Z</time>
      </trkpt>
      <trkpt lat="43.23018" lon="2.41429">
        <ele>89.7</ele>
        <time>2015-08-02T08:28:28.661Z</time>
      </trkpt>
      <trkpt lat="43.23017" lon="2.41425">
        <ele>89.5</ele>
        <time>2015-08-02T08:28:29.608Z</time>
      </trkpt>
      <trkpt lat="43.23013" lon="2.41416">
        <ele>89.1</ele>
        <time>2015-08-02T08:28:32.660Z</time>
      </trkpt>
      <trkpt lat="43.23011" lon="2.41412">
        <ele>88.9</ele>
        <time>2015-08-02T08:28:33.607Z</time>
      </trkpt>
      <trkpt lat="43.23007" lon="2.41403">
        <ele>88.3</ele>
        <time>2015-08-02T08:28:36.646Z</time>
      </trkpt>
      <trkpt lat="43.23006" lon="2.41399">
        <ele>88.1</ele>
        <time>2015-08-02T08:28:37.608Z</time>
      </trkpt>
      <trkpt lat="43.23" lon="2.41391">
        <ele>87.8</ele>
        <time>2015-08-02T08:28:40.666Z</time>
      </trkpt>
      <trkpt lat="43.22998" lon="2.41388">
        <ele>87.6</ele>
        <time>2015-08-02T08:28:41.609Z</time>
      </trkpt>
      <trkpt lat="43.22994" lon="2.41379">
        <ele>87.3</ele>
        <time>2015-08-02T08:28:44.644Z</time>
      </trkpt>
      <trkpt lat="43.22992" lon="2.41376">
        <ele>87.3</ele>
        <time>2015-08-02T08:28:45.609Z</time>
      </trkpt>
      <trkpt lat="43.22988" lon="2.41368">
        <ele>87</ele>
        <time>2015-08-02T08:28:48.704Z</time>
      </trkpt>
      <trkpt lat="43.22987" lon="2.41365">
        <ele>86.7</ele>
        <time>2015-08-02T08:28:49.622Z</time>
      </trkpt>
      <trkpt lat="43.22984" lon="2.41354">
        <ele>86.1</ele>
        <time>2015-08-02T08:28:52.650Z</time>
      </trkpt>
      <trkpt lat="43.22985" lon="2.4135">
        <ele>86.1</ele>
        <time>2015-08-02T08:28:53.609Z</time>
      </trkpt>
      <trkpt lat="43.22987" lon="2.41338">
        <ele>85.6</ele>
        <time>2015-08-02T08:28:57.674Z</time>
      </trkpt>
      <trkpt lat="43.22986" lon="2.41335">
        <ele>85.4</ele>
        <time>2015-08-02T08:28:58.619Z</time>
      </trkpt>
      <trkpt lat="43.22981" lon="2.41327">
        <ele>85.5</ele>
        <time>2015-08-02T08:29:01.648Z</time>
      </trkpt>
      <trkpt lat="43.22979" lon="2.41324">
        <ele>85.5</ele>
        <time>2015-08-02T08:29:02.611Z</time>
      </trkpt>
      <trkpt lat="43.22975" lon="2.41314">
        <ele>85.4</ele>
        <time>2015-08-02T08:29:05.679Z</time>
      </trkpt>
      <trkpt lat="43.22974" lon="2.41311">
        <ele>85.4</ele>
        <time>2015-08-02T08:29:06.618Z</time>
      </trkpt>
      <trkpt lat="43.2297" lon="2.41301">
        <ele>85.2</ele>
        <time>2015-08-02T08:29:09.657Z</time>
      </trkpt>
      <trkpt lat="43.22968" lon="2.41297">
        <ele>85.4</ele>
        <time>2015-08-02T08:29:10.609Z</time>
      </trkpt>
      <trkpt lat="43.22965" lon="2.41291">
        <ele>85.7</ele>
        <time>2015-08-02T08:29:12.651Z</time>
      </trkpt>
      <trkpt lat="43.22963" lon="2.41287">
        <ele>85.5</ele>
        <time>2015-08-02T08:29:13.623Z</time>
      </trkpt>
      <trkpt lat="43.22958" lon="2.4128">
        <ele>85.6</ele>
        <time>2015-08-02T08:29:15.692Z</time>
      </trkpt>
      <trkpt lat="43.22957" lon="2.41276">
        <ele>85.3</ele>
        <time>2015-08-02T08:29:16.609Z</time>
      </trkpt>
      <trkpt lat="43.22953" lon="2.41268">
        <ele>85.1</ele>
        <time>2015-08-02T08:29:18.696Z</time>
      </trkpt>
      <trkpt lat="43.22951" lon="2.41264">
        <ele>85.2</ele>
        <time>2015-08-02T08:29:19.610Z</time>
      </trkpt>
      <trkpt lat="43.22946" lon="2.41257">
        <ele>85.2</ele>
        <time>2015-08-02T08:29:21.651Z</time>
      </trkpt>
      <trkpt lat="43.22943" lon="2.41253">
        <ele>85.1</ele>
        <time>2015-08-02T08:29:22.610Z</time>
      </trkpt>
      <trkpt lat="43.22936" lon="2.41247">
        <ele>85.4</ele>
        <time>2015-08-02T08:29:24.662Z</time>
      </trkpt>
      <trkpt lat="43.22934" lon="2.41244">
        <ele>85.2</ele>
        <time>2015-08-02T08:29:25.621Z</time>
      </trkpt>
      <trkpt lat="43.22929" lon="2.41237">
        <ele>85.1</ele>
        <time>2015-08-02T08:29:27.650Z</time>
      </trkpt>
      <trkpt lat="43.22927" lon="2.41233">
        <ele>84.9</ele>
        <time>2015-08-02T08:29:28.611Z</time>
      </trkpt>
      <trkpt lat="43.22921" lon="2.41226">
        <ele>84.9</ele>
        <time>2015-08-02T08:29:30.660Z</time>
      </trkpt>
      <trkpt lat="43.22917" lon="2.41223">
        <ele>84.7</ele>
        <time>2015-08-02T08:29:31.610Z</time>
      </trkpt>
      <trkpt lat="43.22909" lon="2.41217">
        <ele>85</ele>
        <time>2015-08-02T08:29:33.674Z</time>
      </trkpt>
      <trkpt lat="43.22905" lon="2.41215">
        <ele>85</ele>
        <time>2015-08-02T08:29:34.618Z</time>
      </trkpt>
      <trkpt lat="43.22896" lon="2.41211">
        <ele>85</ele>
        <time>2015-08-02T08:29:36.652Z</time>
      </trkpt>
      <trkpt lat="43.22892" lon="2.41209">
        <ele>85</ele>
        <time>2015-08-02T08:29:37.612Z</time>
      </trkpt>
      <trkpt lat="43.22887" lon="2.41208">
        <ele>85.1</ele>
        <time>2015-08-02T08:29:38.661Z</time>
      </trkpt>
      <trkpt lat="43.22883" lon="2.41206">
        <ele>84.9</ele>
        <time>2015-08-02T08:29:39.613Z</time>
      </trkpt>
      <trkpt lat="43.22875" lon="2.41202">
        <ele>84.6</ele>
        <time>2015-08-02T08:29:41.650Z</time>
      </trkpt>
      <trkpt lat="43.22871" lon="2.412">
        <ele>84.4</ele>
        <time>2015-08-02T08:29:42.609Z</time>
      </trkpt>
      <trkpt lat="43.22862" lon="2.41198">
        <ele>84.3</ele>
        <time>2015-08-02T08:29:44.675Z</time>
      </trkpt>
      <trkpt lat="43.22858" lon="2.41197">
        <ele>84.4</ele>
        <time>2015-08-02T08:29:45.619Z</time>
      </trkpt>
      <trkpt lat="43.22851" lon="2.41195">
        <ele>84.2</ele>
        <time>2015-08-02T08:29:47.657Z</time>
      </trkpt>
      <trkpt lat="43.22847" lon="2.41194">
        <ele>84.1</ele>
        <time>2015-08-02T08:29:48.609Z</time>
      </trkpt>
      <trkpt lat="43.22839" lon="2.41193">
        <ele>83.8</ele>
        <time>2015-08-02T08:29:50.654Z</time>
      </trkpt>
      <trkpt lat="43.22835" lon="2.41192">
        <ele>83.7</ele>
        <time>2015-08-02T08:29:51.614Z</time>
      </trkpt>
      <trkpt lat="43.22828" lon="2.41191">
        <ele>83.4</ele>
        <time>2015-08-02T08:29:53.681Z</time>
      </trkpt>
      <trkpt lat="43.22824" lon="2.4119">
        <ele>83.4</ele>
        <time>2015-08-02T08:29:54.620Z</time>
      </trkpt>
      <trkpt lat="43.22815" lon="2.4119">
        <ele>83.4</ele>
        <time>2015-08-02T08:29:56.652Z</time>
      </trkpt>
      <trkpt lat="43.22811" lon="2.4119">
        <ele>83.4</ele>
        <time>2015-08-02T08:29:57.613Z</time>
      </trkpt>
      <trkpt lat="43.22806" lon="2.4119">
        <ele>83.3</ele>
        <time>2015-08-02T08:29:58.659Z</time>
      </trkpt>
      <trkpt lat="43.22801" lon="2.41191">
        <ele>83.1</ele>
        <time>2015-08-02T08:29:59.610Z</time>
      </trkpt>
      <trkpt lat="43.22797" lon="2.41192">
        <ele>83.3</ele>
        <time>2015-08-02T08:30:00.654Z</time>
      </trkpt>
      <trkpt lat="43.22792" lon="2.41192">
        <ele>83.2</ele>
        <time>2015-08-02T08:30:01.638Z</time>
      </trkpt>
      <trkpt lat="43.22783" lon="2.41192">
        <ele>83.1</ele>
        <time>2015-08-02T08:30:03.684Z</time>
      </trkpt>
      <trkpt lat="43.22779" lon="2.41192">
        <ele>83.2</ele>
        <time>2015-08-02T08:30:04.618Z</time>
      </trkpt>
      <trkpt lat="43.22771" lon="2.41193">
        <ele>83.5</ele>
        <time>2015-08-02T08:30:06.828Z</time>
      </trkpt>
      <trkpt lat="43.22767" lon="2.41193">
        <ele>83.5</ele>
        <time>2015-08-02T08:30:07.609Z</time>
      </trkpt>
      <trkpt lat="43.2276" lon="2.41195">
        <ele>83.9</ele>
        <time>2015-08-02T08:30:09.652Z</time>
      </trkpt>
      <trkpt lat="43.22756" lon="2.41196">
        <ele>84.1</ele>
        <time>2015-08-02T08:30:10.610Z</time>
      </trkpt>
      <trkpt lat="43.22749" lon="2.41197">
        <ele>84.7</ele>
        <time>2015-08-02T08:30:12.673Z</time>
      </trkpt>
      <trkpt lat="43.22745" lon="2.41197">
        <ele>85</ele>
        <time>2015-08-02T08:30:13.622Z</time>
      </trkpt>
      <trkpt lat="43.22738" lon="2.41198">
        <ele>85.1</ele>
        <time>2015-08-02T08:30:15.677Z</time>
      </trkpt>
      <trkpt lat="43.22734" lon="2.41199">
        <ele>85.2</ele>
        <time>2015-08-02T08:30:16.619Z</time>
      </trkpt>
      <trkpt lat="43.22726" lon="2.41201">
        <ele>85.4</ele>
        <time>2015-08-02T08:30:18.661Z</time>
      </trkpt>
      <trkpt lat="43.22721" lon="2.41203">
        <ele>85.5</ele>
        <time>2015-08-02T08:30:19.611Z</time>
      </trkpt>
      <trkpt lat="43.22712" lon="2.41205">
        <ele>85.7</ele>
        <time>2015-08-02T08:30:21.664Z</time>
      </trkpt>
      <trkpt lat="43.22708" lon="2.41207">
        <ele>85.7</ele>
        <time>2015-08-02T08:30:22.610Z</time>
      </trkpt>
      <trkpt lat="43.227" lon="2.4121">
        <ele>86.1</ele>
        <time>2015-08-02T08:30:24.673Z</time>
      </trkpt>
      <trkpt lat="43.22696" lon="2.41212">
        <ele>86.3</ele>
        <time>2015-08-02T08:30:25.622Z</time>
      </trkpt>
      <trkpt lat="43.22688" lon="2.41216">
        <ele>86.6</ele>
        <time>2015-08-02T08:30:27.662Z</time>
      </trkpt>
      <trkpt lat="43.22685" lon="2.41218">
        <ele>86.9</ele>
        <time>2015-08-02T08:30:28.609Z</time>
      </trkpt>
      <trkpt lat="43.2268" lon="2.41219">
        <ele>87</ele>
        <time>2015-08-02T08:30:29.659Z</time>
      </trkpt>
      <trkpt lat="43.22676" lon="2.41221">
        <ele>87</ele>
        <time>2015-08-02T08:30:30.611Z</time>
      </trkpt>
      <trkpt lat="43.22667" lon="2.41225">
        <ele>87</ele>
        <time>2015-08-02T08:30:32.654Z</time>
      </trkpt>
      <trkpt lat="43.22663" lon="2.41226">
        <ele>87.1</ele>
        <time>2015-08-02T08:30:33.639Z</time>
      </trkpt>
      <trkpt lat="43.22655" lon="2.4123">
        <ele>87.7</ele>
        <time>2015-08-02T08:30:35.992Z</time>
      </trkpt>
      <trkpt lat="43.22651" lon="2.41232">
        <ele>87.9</ele>
        <time>2015-08-02T08:30:36.608Z</time>
      </trkpt>
      <trkpt lat="43.22644" lon="2.41235">
        <ele>88.4</ele>
        <time>2015-08-02T08:30:38.660Z</time>
      </trkpt>
      <trkpt lat="43.22641" lon="2.41237">
        <ele>88.5</ele>
        <time>2015-08-02T08:30:39.611Z</time>
      </trkpt>
      <trkpt lat="43.22633" lon="2.4124">
        <ele>88.6</ele>
        <time>2015-08-02T08:30:41.653Z</time>
      </trkpt>
      <trkpt lat="43.22629" lon="2.41242">
        <ele>88.6</ele>
        <time>2015-08-02T08:30:42.611Z</time>
      </trkpt>
      <trkpt lat="43.22621" lon="2.41245">
        <ele>88.5</ele>
        <time>2015-08-02T08:30:44.653Z</time>
      </trkpt>
      <trkpt lat="43.22618" lon="2.41247">
        <ele>88.6</ele>
        <time>2015-08-02T08:30:45.609Z</time>
      </trkpt>
      <trkpt lat="43.22611" lon="2.4125">
        <ele>88.9</ele>
        <time>2015-08-02T08:30:47.648Z</time>
      </trkpt>
      <trkpt lat="43.22607" lon="2.41252">
        <ele>89.1</ele>
        <time>2015-08-02T08:30:48.619Z</time>
      </trkpt>
      <trkpt lat="43.226" lon="2.41257">
        <ele>89.2</ele>
        <time>2015-08-02T08:30:50.651Z</time>
      </trkpt>
      <trkpt lat="43.22596" lon="2.41259">
        <ele>89.2</ele>
        <time>2015-08-02T08:30:51.612Z</time>
      </trkpt>
      <trkpt lat="43.22589" lon="2.41264">
        <ele>89.5</ele>
        <time>2015-08-02T08:30:53.649Z</time>
      </trkpt>
      <trkpt lat="43.22586" lon="2.41266">
        <ele>89.6</ele>
        <time>2015-08-02T08:30:54.608Z</time>
      </trkpt>
      <trkpt lat="43.22579" lon="2.4127">
        <ele>90</ele>
        <time>2015-08-02T08:30:56.672Z</time>
      </trkpt>
      <trkpt lat="43.22576" lon="2.41273">
        <ele>90.1</ele>
        <time>2015-08-02T08:30:57.614Z</time>
      </trkpt>
      <trkpt lat="43.22569" lon="2.41277">
        <ele>90.3</ele>
        <time>2015-08-02T08:30:59.654Z</time>
      </trkpt>
      <trkpt lat="43.22566" lon="2.41278">
        <ele>90.5</ele>
        <time>2015-08-02T08:31:00.606Z</time>
      </trkpt>
      <trkpt lat="43.22559" lon="2.41282">
        <ele>91.2</ele>
        <time>2015-08-02T08:31:02.988Z</time>
      </trkpt>
      <trkpt lat="43.22556" lon="2.41284">
        <ele>91.4</ele>
        <time>2015-08-02T08:31:03.614Z</time>
      </trkpt>
      <trkpt lat="43.2255" lon="2.41287">
        <ele>91.1</ele>
        <time>2015-08-02T08:31:05.645Z</time>
      </trkpt>
      <trkpt lat="43.22547" lon="2.41289">
        <ele>91.2</ele>
        <time>2015-08-02T08:31:06.608Z</time>
      </trkpt>
      <trkpt lat="43.2254" lon="2.41293">
        <ele>91.2</ele>
        <time>2015-08-02T08:31:08.650Z</time>
      </trkpt>
      <trkpt lat="43.22537" lon="2.41295">
        <ele>91.5</ele>
        <time>2015-08-02T08:31:09.609Z</time>
      </trkpt>
      <trkpt lat="43.2253" lon="2.41299">
        <ele>91.9</ele>
        <time>2015-08-02T08:31:11.677Z</time>
      </trkpt>
      <trkpt lat="43.22527" lon="2.41301">
        <ele>91.9</ele>
        <time>2015-08-02T08:31:13.007Z</time>
      </trkpt>
      <trkpt lat="43.2252" lon="2.41306">
        <ele>92</ele>
        <time>2015-08-02T08:31:14.653Z</time>
      </trkpt>
      <trkpt lat="43.22516" lon="2.41308">
        <ele>92.1</ele>
        <time>2015-08-02T08:31:15.612Z</time>
      </trkpt>
      <trkpt lat="43.22509" lon="2.41312">
        <ele>92.6</ele>
        <time>2015-08-02T08:31:17.651Z</time>
      </trkpt>
      <trkpt lat="43.22505" lon="2.41315">
        <ele>93</ele>
        <time>2015-08-02T08:31:18.609Z</time>
      </trkpt>
      <trkpt lat="43.22498" lon="2.4132">
        <ele>93.4</ele>
        <time>2015-08-02T08:31:20.692Z</time>
      </trkpt>
      <trkpt lat="43.22494" lon="2.41323">
        <ele>93.6</ele>
        <time>2015-08-02T08:31:21.624Z</time>
      </trkpt>
      <trkpt lat="43.22487" lon="2.41328">
        <ele>93.9</ele>
        <time>2015-08-02T08:31:23.710Z</time>
      </trkpt>
      <trkpt lat="43.22484" lon="2.41332">
        <ele>94.2</ele>
        <time>2015-08-02T08:31:24.607Z</time>
      </trkpt>
      <trkpt lat="43.22476" lon="2.41338">
        <ele>94.7</ele>
        <time>2015-08-02T08:31:26.658Z</time>
      </trkpt>
      <trkpt lat="43.22472" lon="2.41341">
        <ele>94.9</ele>
        <time>2015-08-02T08:31:27.610Z</time>
      </trkpt>
      <trkpt lat="43.22465" lon="2.41347">
        <ele>95.3</ele>
        <time>2015-08-02T08:31:29.687Z</time>
      </trkpt>
      <trkpt lat="43.22461" lon="2.4135">
        <ele>95.5</ele>
        <time>2015-08-02T08:31:30.619Z</time>
      </trkpt>
      <trkpt lat="43.22455" lon="2.41356">
        <ele>96</ele>
        <time>2015-08-02T08:31:32.654Z</time>
      </trkpt>
      <trkpt lat="43.22451" lon="2.4136">
        <ele>96.3</ele>
        <time>2015-08-02T08:31:33.611Z</time>
      </trkpt>
      <trkpt lat="43.22445" lon="2.41366">
        <ele>96.5</ele>
        <time>2015-08-02T08:31:35.654Z</time>
      </trkpt>
      <trkpt lat="43.22442" lon="2.41368">
        <ele>96.7</ele>
        <time>2015-08-02T08:31:36.609Z</time>
      </trkpt>
      <trkpt lat="43.22436" lon="2.41374">
        <ele>97.4</ele>
        <time>2015-08-02T08:31:38.660Z</time>
      </trkpt>
      <trkpt lat="43.22433" lon="2.41377">
        <ele>97.8</ele>
        <time>2015-08-02T08:31:39.613Z</time>
      </trkpt>
      <trkpt lat="43.22426" lon="2.41382">
        <ele>98.2</ele>
        <time>2015-08-02T08:31:41.657Z</time>
      </trkpt>
      <trkpt lat="43.22424" lon="2.41386">
        <ele>98.6</ele>
        <time>2015-08-02T08:31:42.610Z</time>
      </trkpt>
      <trkpt lat="43.22417" lon="2.41392">
        <ele>99.2</ele>
        <time>2015-08-02T08:31:44.694Z</time>
      </trkpt>
      <trkpt lat="43.22414" lon="2.41396">
        <ele>99.7</ele>
        <time>2015-08-02T08:31:45.612Z</time>
      </trkpt>
      <trkpt lat="43.22408" lon="2.41402">
        <ele>100.5</ele>
        <time>2015-08-02T08:31:47.649Z</time>
      </trkpt>
      <trkpt lat="43.22405" lon="2.41405">
        <ele>100.9</ele>
        <time>2015-08-02T08:31:48.609Z</time>
      </trkpt>
      <trkpt lat="43.22401" lon="2.41411">
        <ele>101.3</ele>
        <time>2015-08-02T08:31:50.653Z</time>
      </trkpt>
      <trkpt lat="43.22398" lon="2.41414">
        <ele>101.5</ele>
        <time>2015-08-02T08:31:51.607Z</time>
      </trkpt>
      <trkpt lat="43.22392" lon="2.41422">
        <ele>101.6</ele>
        <time>2015-08-02T08:31:55.026Z</time>
      </trkpt>
      <trkpt lat="43.22389" lon="2.41425">
        <ele>101.3</ele>
        <time>2015-08-02T08:31:55.613Z</time>
      </trkpt>
      <trkpt lat="43.22385" lon="2.4143">
        <ele>101</ele>
        <time>2015-08-02T08:31:57.654Z</time>
      </trkpt>
      <trkpt lat="43.22382" lon="2.41434">
        <ele>101</ele>
        <time>2015-08-02T08:31:58.612Z</time>
      </trkpt>
      <trkpt lat="43.22378" lon="2.41445">
        <ele>100.9</ele>
        <time>2015-08-02T08:32:00.676Z</time>
      </trkpt>
      <trkpt lat="43.22375" lon="2.4145">
        <ele>101</ele>
        <time>2015-08-02T08:32:01.624Z</time>
      </trkpt>
      <trkpt lat="43.22372" lon="2.41456">
        <ele>101.1</ele>
        <time>2015-08-02T08:32:02.661Z</time>
      </trkpt>
      <trkpt lat="43.22368" lon="2.41461">
        <ele>101.4</ele>
        <time>2015-08-02T08:32:03.607Z</time>
      </trkpt>
      <trkpt lat="43.22364" lon="2.41466">
        <ele>101.2</ele>
        <time>2015-08-02T08:32:04.652Z</time>
      </trkpt>
      <trkpt lat="43.22361" lon="2.41471">
        <ele>101.2</ele>
        <time>2015-08-02T08:32:05.608Z</time>
      </trkpt>
      <trkpt lat="43.22354" lon="2.41479">
        <ele>100.9</ele>
        <time>2015-08-02T08:32:07.663Z</time>
      </trkpt>
      <trkpt lat="43.22351" lon="2.41483">
        <ele>100.8</ele>
        <time>2015-08-02T08:32:08.621Z</time>
      </trkpt>
      <trkpt lat="43.22345" lon="2.4149">
        <ele>100.4</ele>
        <time>2015-08-02T08:32:10.653Z</time>
      </trkpt>
      <trkpt lat="43.22342" lon="2.41494">
        <ele>100.2</ele>
        <time>2015-08-02T08:32:11.921Z</time>
      </trkpt>
      <trkpt lat="43.22337" lon="2.415">
        <ele>99.8</ele>
        <time>2015-08-02T08:32:13.653Z</time>
      </trkpt>
      <trkpt lat="43.22334" lon="2.41503">
        <ele>99.6</ele>
        <time>2015-08-02T08:32:14.611Z</time>
      </trkpt>
      <trkpt lat="43.22329" lon="2.41509">
        <ele>99.1</ele>
        <time>2015-08-02T08:32:16.676Z</time>
      </trkpt>
      <trkpt lat="43.22326" lon="2.41512">
        <ele>98.8</ele>
        <time>2015-08-02T08:32:17.622Z</time>
      </trkpt>
      <trkpt lat="43.22321" lon="2.41519">
        <ele>98.4</ele>
        <time>2015-08-02T08:32:19.650Z</time>
      </trkpt>
      <trkpt lat="43.22318" lon="2.41523">
        <ele>98</ele>
        <time>2015-08-02T08:32:20.613Z</time>
      </trkpt>
      <trkpt lat="43.22313" lon="2.41529">
        <ele>97.6</ele>
        <time>2015-08-02T08:32:22.650Z</time>
      </trkpt>
      <trkpt lat="43.22311" lon="2.41533">
        <ele>97.5</ele>
        <time>2015-08-02T08:32:23.605Z</time>
      </trkpt>
      <trkpt lat="43.22306" lon="2.41539">
        <ele>97</ele>
        <time>2015-08-02T08:32:25.646Z</time>
      </trkpt>
      <trkpt lat="43.22303" lon="2.41543">
        <ele>96.9</ele>
        <time>2015-08-02T08:32:26.611Z</time>
      </trkpt>
      <trkpt lat="43.22298" lon="2.41549">
        <ele>96.9</ele>
        <time>2015-08-02T08:32:28.665Z</time>
      </trkpt>
      <trkpt lat="43.22296" lon="2.41553">
        <ele>96.8</ele>
        <time>2015-08-02T08:32:29.611Z</time>
      </trkpt>
      <trkpt lat="43.22291" lon="2.41559">
        <ele>96.3</ele>
        <time>2015-08-02T08:32:31.678Z</time>
      </trkpt>
      <trkpt lat="43.22289" lon="2.41561">
        <ele>96</ele>
        <time>2015-08-02T08:32:32.620Z</time>
      </trkpt>
      <trkpt lat="43.22282" lon="2.4157">
        <ele>95.4</ele>
        <time>2015-08-02T08:32:35.971Z</time>
      </trkpt>
      <trkpt lat="43.2228" lon="2.41573">
        <ele>95.2</ele>
        <time>2015-08-02T08:32:36.609Z</time>
      </trkpt>
      <trkpt lat="43.22276" lon="2.41579">
        <ele>95</ele>
        <time>2015-08-02T08:32:38.663Z</time>
      </trkpt>
      <trkpt lat="43.22274" lon="2.41582">
        <ele>94.7</ele>
        <time>2015-08-02T08:32:39.616Z</time>
      </trkpt>
      <trkpt lat="43.22269" lon="2.41589">
        <ele>94.8</ele>
        <time>2015-08-02T08:32:41.649Z</time>
      </trkpt>
      <trkpt lat="43.22266" lon="2.41593">
        <ele>95</ele>
        <time>2015-08-02T08:32:42.607Z</time>
      </trkpt>
      <trkpt lat="43.22261" lon="2.416">
        <ele>95</ele>
        <time>2015-08-02T08:32:44.655Z</time>
      </trkpt>
      <trkpt lat="43.22258" lon="2.41604">
        <ele>95</ele>
        <time>2015-08-02T08:32:45.610Z</time>
      </trkpt>
      <trkpt lat="43.22254" lon="2.41611">
        <ele>94.8</ele>
        <time>2015-08-02T08:32:47.649Z</time>
      </trkpt>
      <trkpt lat="43.22252" lon="2.41614">
        <ele>94.7</ele>
        <time>2015-08-02T08:32:48.609Z</time>
      </trkpt>
      <trkpt lat="43.22246" lon="2.41621">
        <ele>94.6</ele>
        <time>2015-08-02T08:32:50.652Z</time>
      </trkpt>
      <trkpt lat="43.22244" lon="2.41624">
        <ele>94.6</ele>
        <time>2015-08-02T08:32:51.612Z</time>
      </trkpt>
      <trkpt lat="43.22239" lon="2.41631">
        <ele>94.4</ele>
        <time>2015-08-02T08:32:53.685Z</time>
      </trkpt>
      <trkpt lat="43.22236" lon="2.41634">
        <ele>94.2</ele>
        <time>2015-08-02T08:32:54.619Z</time>
      </trkpt>
      <trkpt lat="43.22229" lon="2.41642">
        <ele>93.6</ele>
        <time>2015-08-02T08:32:57.651Z</time>
      </trkpt>
      <trkpt lat="43.22227" lon="2.41644">
        <ele>93.3</ele>
        <time>2015-08-02T08:32:58.610Z</time>
      </trkpt>
      <trkpt lat="43.22221" lon="2.41652">
        <ele>93.2</ele>
        <time>2015-08-02T08:33:01.926Z</time>
      </trkpt>
      <trkpt lat="43.22218" lon="2.41654">
        <ele>93</ele>
        <time>2015-08-02T08:33:02.611Z</time>
      </trkpt>
      <trkpt lat="43.22214" lon="2.4166">
        <ele>92.7</ele>
        <time>2015-08-02T08:33:04.654Z</time>
      </trkpt>
      <trkpt lat="43.22211" lon="2.41663">
        <ele>92.7</ele>
        <time>2015-08-02T08:33:05.619Z</time>
      </trkpt>
      <trkpt lat="43.22206" lon="2.4167">
        <ele>92.6</ele>
        <time>2015-08-02T08:33:07.656Z</time>
      </trkpt>
      <trkpt lat="43.22204" lon="2.41673">
        <ele>92.7</ele>
        <time>2015-08-02T08:33:08.609Z</time>
      </trkpt>
      <trkpt lat="43.22199" lon="2.4168">
        <ele>92.5</ele>
        <time>2015-08-02T08:33:10.643Z</time>
      </trkpt>
      <trkpt lat="43.22197" lon="2.41684">
        <ele>92.4</ele>
        <time>2015-08-02T08:33:11.609Z</time>
      </trkpt>
      <trkpt lat="43.22192" lon="2.41691">
        <ele>92.1</ele>
        <time>2015-08-02T08:33:13.644Z</time>
      </trkpt>
      <trkpt lat="43.22189" lon="2.41694">
        <ele>92</ele>
        <time>2015-08-02T08:33:14.608Z</time>
      </trkpt>
      <trkpt lat="43.22184" lon="2.417">
        <ele>91.7</ele>
        <time>2015-08-02T08:33:16.674Z</time>
      </trkpt>
      <trkpt lat="43.22182" lon="2.41703">
        <ele>91.5</ele>
        <time>2015-08-02T08:33:17.622Z</time>
      </trkpt>
      <trkpt lat="43.22177" lon="2.41711">
        <ele>91.2</ele>
        <time>2015-08-02T08:33:19.677Z</time>
      </trkpt>
      <trkpt lat="43.22175" lon="2.41714">
        <ele>91</ele>
        <time>2015-08-02T08:33:20.683Z</time>
      </trkpt>
      <trkpt lat="43.2217" lon="2.41721">
        <ele>90.7</ele>
        <time>2015-08-02T08:33:22.652Z</time>
      </trkpt>
      <trkpt lat="43.22168" lon="2.41725">
        <ele>90.6</ele>
        <time>2015-08-02T08:33:23.607Z</time>
      </trkpt>
      <trkpt lat="43.22162" lon="2.41734">
        <ele>90.4</ele>
        <time>2015-08-02T08:33:26.654Z</time>
      </trkpt>
      <trkpt lat="43.22159" lon="2.41737">
        <ele>90.1</ele>
        <time>2015-08-02T08:33:27.622Z</time>
      </trkpt>
      <trkpt lat="43.22153" lon="2.41746">
        <ele>89.6</ele>
        <time>2015-08-02T08:33:30.651Z</time>
      </trkpt>
      <trkpt lat="43.22151" lon="2.41749">
        <ele>89.4</ele>
        <time>2015-08-02T08:33:31.620Z</time>
      </trkpt>
      <trkpt lat="43.22146" lon="2.41758">
        <ele>89.1</ele>
        <time>2015-08-02T08:33:34.676Z</time>
      </trkpt>
      <trkpt lat="43.22144" lon="2.41761">
        <ele>88.9</ele>
        <time>2015-08-02T08:33:35.622Z</time>
      </trkpt>
      <trkpt lat="43.22139" lon="2.4177">
        <ele>88.7</ele>
        <time>2015-08-02T08:33:38.693Z</time>
      </trkpt>
      <trkpt lat="43.22137" lon="2.41773">
        <ele>88.6</ele>
        <time>2015-08-02T08:33:39.621Z</time>
      </trkpt>
      <trkpt lat="43.22132" lon="2.41782">
        <ele>88.1</ele>
        <time>2015-08-02T08:33:42.647Z</time>
      </trkpt>
      <trkpt lat="43.22131" lon="2.41785">
        <ele>88.1</ele>
        <time>2015-08-02T08:33:43.608Z</time>
      </trkpt>
      <trkpt lat="43.22128" lon="2.41791">
        <ele>88.1</ele>
        <time>2015-08-02T08:33:45.651Z</time>
      </trkpt>
      <trkpt lat="43.22126" lon="2.41795">
        <ele>88</ele>
        <time>2015-08-02T08:33:46.618Z</time>
      </trkpt>
      <trkpt lat="43.22122" lon="2.41802">
        <ele>87.9</ele>
        <time>2015-08-02T08:33:48.700Z</time>
      </trkpt>
      <trkpt lat="43.2212" lon="2.41805">
        <ele>88</ele>
        <time>2015-08-02T08:33:49.623Z</time>
      </trkpt>
      <trkpt lat="43.22116" lon="2.41812">
        <ele>88</ele>
        <time>2015-08-02T08:33:51.674Z</time>
      </trkpt>
      <trkpt lat="43.22114" lon="2.41816">
        <ele>88</ele>
        <time>2015-08-02T08:33:52.619Z</time>
      </trkpt>
      <trkpt lat="43.22111" lon="2.41824">
        <ele>88.1</ele>
        <time>2015-08-02T08:33:54.650Z</time>
      </trkpt>
      <trkpt lat="43.2211" lon="2.41827">
        <ele>88</ele>
        <time>2015-08-02T08:33:55.612Z</time>
      </trkpt>
      <trkpt lat="43.22106" lon="2.41835">
        <ele>88.3</ele>
        <time>2015-08-02T08:33:57.666Z</time>
      </trkpt>
      <trkpt lat="43.22104" lon="2.41839">
        <ele>88.2</ele>
        <time>2015-08-02T08:33:58.609Z</time>
      </trkpt>
      <trkpt lat="43.22101" lon="2.41845">
        <ele>88.3</ele>
        <time>2015-08-02T08:34:00.676Z</time>
      </trkpt>
      <trkpt lat="43.22099" lon="2.41849">
        <ele>88.2</ele>
        <time>2015-08-02T08:34:01.639Z</time>
      </trkpt>
      <trkpt lat="43.22096" lon="2.41855">
        <ele>88.3</ele>
        <time>2015-08-02T08:34:03.649Z</time>
      </trkpt>
      <trkpt lat="43.22093" lon="2.41858">
        <ele>88.3</ele>
        <time>2015-08-02T08:34:04.607Z</time>
      </trkpt>
      <trkpt lat="43.22089" lon="2.41866">
        <ele>88.6</ele>
        <time>2015-08-02T08:34:06.653Z</time>
      </trkpt>
      <trkpt lat="43.22087" lon="2.41869">
        <ele>88.7</ele>
        <time>2015-08-02T08:34:07.608Z</time>
      </trkpt>
      <trkpt lat="43.22083" lon="2.41876">
        <ele>89</ele>
        <time>2015-08-02T08:34:09.678Z</time>
      </trkpt>
      <trkpt lat="43.2208" lon="2.41879">
        <ele>89.2</ele>
        <time>2015-08-02T08:34:10.619Z</time>
      </trkpt>
      <trkpt lat="43.22075" lon="2.41886">
        <ele>89.4</ele>
        <time>2015-08-02T08:34:13.652Z</time>
      </trkpt>
      <trkpt lat="43.22073" lon="2.41888">
        <ele>89.6</ele>
        <time>2015-08-02T08:34:14.611Z</time>
      </trkpt>
      <trkpt lat="43.22068" lon="2.41894">
        <ele>90.1</ele>
        <time>2015-08-02T08:34:16.650Z</time>
      </trkpt>
      <trkpt lat="43.22066" lon="2.41897">
        <ele>90.3</ele>
        <time>2015-08-02T08:34:17.609Z</time>
      </trkpt>
      <trkpt lat="43.22061" lon="2.41903">
        <ele>90.6</ele>
        <time>2015-08-02T08:34:19.654Z</time>
      </trkpt>
      <trkpt lat="43.22059" lon="2.41906">
        <ele>90.8</ele>
        <time>2015-08-02T08:34:20.612Z</time>
      </trkpt>
      <trkpt lat="43.22054" lon="2.41912">
        <ele>91.1</ele>
        <time>2015-08-02T08:34:22.652Z</time>
      </trkpt>
      <trkpt lat="43.22052" lon="2.41915">
        <ele>91.2</ele>
        <time>2015-08-02T08:34:23.612Z</time>
      </trkpt>
      <trkpt lat="43.22047" lon="2.41919">
        <ele>91.6</ele>
        <time>2015-08-02T08:34:25.652Z</time>
      </trkpt>
      <trkpt lat="43.22045" lon="2.41922">
        <ele>91.7</ele>
        <time>2015-08-02T08:34:26.611Z</time>
      </trkpt>
      <trkpt lat="43.22039" lon="2.4193">
        <ele>91.9</ele>
        <time>2015-08-02T08:34:29.662Z</time>
      </trkpt>
      <trkpt lat="43.22037" lon="2.41933">
        <ele>92</ele>
        <time>2015-08-02T08:34:30.608Z</time>
      </trkpt>
      <trkpt lat="43.22031" lon="2.4194">
        <ele>92.2</ele>
        <time>2015-08-02T08:34:33.666Z</time>
      </trkpt>
      <trkpt lat="43.22028" lon="2.41943">
        <ele>92.2</ele>
        <time>2015-08-02T08:34:34.610Z</time>
      </trkpt>
      <trkpt lat="43.22024" lon="2.41949">
        <ele>92.2</ele>
        <time>2015-08-02T08:34:36.651Z</time>
      </trkpt>
      <trkpt lat="43.22021" lon="2.41952">
        <ele>92.3</ele>
        <time>2015-08-02T08:34:37.957Z</time>
      </trkpt>
      <trkpt lat="43.22016" lon="2.41957">
        <ele>92.4</ele>
        <time>2015-08-02T08:34:39.653Z</time>
      </trkpt>
      <trkpt lat="43.22014" lon="2.4196">
        <ele>92.5</ele>
        <time>2015-08-02T08:34:40.608Z</time>
      </trkpt>
      <trkpt lat="43.22007" lon="2.41965">
        <ele>92.4</ele>
        <time>2015-08-02T08:34:42.652Z</time>
      </trkpt>
      <trkpt lat="43.22005" lon="2.41968">
        <ele>92.4</ele>
        <time>2015-08-02T08:34:43.609Z</time>
      </trkpt>
      <trkpt lat="43.21998" lon="2.41976">
        <ele>92.3</ele>
        <time>2015-08-02T08:34:46.644Z</time>
      </trkpt>
      <trkpt lat="43.21996" lon="2.41979">
        <ele>92.2</ele>
        <time>2015-08-02T08:34:47.609Z</time>
      </trkpt>
      <trkpt lat="43.21991" lon="2.41984">
        <ele>92.2</ele>
        <time>2015-08-02T08:34:49.651Z</time>
      </trkpt>
      <trkpt lat="43.21988" lon="2.41987">
        <ele>92.1</ele>
        <time>2015-08-02T08:34:50.612Z</time>
      </trkpt>
      <trkpt lat="43.21982" lon="2.41991">
        <ele>92.2</ele>
        <time>2015-08-02T08:34:52.650Z</time>
      </trkpt>
      <trkpt lat="43.21978" lon="2.41995">
        <ele>92.1</ele>
        <time>2015-08-02T08:34:53.608Z</time>
      </trkpt>
      <trkpt lat="43.21972" lon="2.42">
        <ele>92.2</ele>
        <time>2015-08-02T08:34:55.709Z</time>
      </trkpt>
      <trkpt lat="43.2197" lon="2.42002">
        <ele>92.2</ele>
        <time>2015-08-02T08:34:56.620Z</time>
      </trkpt>
      <trkpt lat="43.21965" lon="2.42006">
        <ele>92.3</ele>
        <time>2015-08-02T08:34:58.661Z</time>
      </trkpt>
      <trkpt lat="43.21962" lon="2.42009">
        <ele>92.3</ele>
        <time>2015-08-02T08:34:59.607Z</time>
      </trkpt>
      <trkpt lat="43.21957" lon="2.42014">
        <ele>92.5</ele>
        <time>2015-08-02T08:35:01.657Z</time>
      </trkpt>
      <trkpt lat="43.21955" lon="2.42016">
        <ele>92.6</ele>
        <time>2015-08-02T08:35:02.611Z</time>
      </trkpt>
      <trkpt lat="43.21949" lon="2.42022">
        <ele>92.8</ele>
        <time>2015-08-02T08:35:04.674Z</time>
      </trkpt>
      <trkpt lat="43.21947" lon="2.42025">
        <ele>92.9</ele>
        <time>2015-08-02T08:35:05.619Z</time>
      </trkpt>
      <trkpt lat="43.21941" lon="2.42029">
        <ele>93.1</ele>
        <time>2015-08-02T08:35:07.652Z</time>
      </trkpt>
      <trkpt lat="43.21938" lon="2.42032">
        <ele>93.2</ele>
        <time>2015-08-02T08:35:08.610Z</time>
      </trkpt>
      <trkpt lat="43.21933" lon="2.42036">
        <ele>93.4</ele>
        <time>2015-08-02T08:35:10.643Z</time>
      </trkpt>
      <trkpt lat="43.2193" lon="2.42038">
        <ele>93.5</ele>
        <time>2015-08-02T08:35:11.607Z</time>
      </trkpt>
      <trkpt lat="43.21924" lon="2.42041">
        <ele>93.8</ele>
        <time>2015-08-02T08:35:13.659Z</time>
      </trkpt>
      <trkpt lat="43.21921" lon="2.42043">
        <ele>94.1</ele>
        <time>2015-08-02T08:35:14.610Z</time>
      </trkpt>
      <trkpt lat="43.21915" lon="2.42048">
        <ele>95</ele>
        <time>2015-08-02T08:35:16.990Z</time>
      </trkpt>
      <trkpt lat="43.21912" lon="2.4205">
        <ele>95.2</ele>
        <time>2015-08-02T08:35:17.621Z</time>
      </trkpt>
      <trkpt lat="43.21904" lon="2.42056">
        <ele>95.8</ele>
        <time>2015-08-02T08:35:20.654Z</time>
      </trkpt>
      <trkpt lat="43.21901" lon="2.42058">
        <ele>96.1</ele>
        <time>2015-08-02T08:35:21.611Z</time>
      </trkpt>
      <trkpt lat="43.21895" lon="2.42062">
        <ele>96.2</ele>
        <time>2015-08-02T08:35:23.651Z</time>
      </trkpt>
      <trkpt lat="43.21891" lon="2.42064">
        <ele>96.3</ele>
        <time>2015-08-02T08:35:24.607Z</time>
      </trkpt>
      <trkpt lat="43.21885" lon="2.4207">
        <ele>96.8</ele>
        <time>2015-08-02T08:35:26.678Z</time>
      </trkpt>
      <trkpt lat="43.21882" lon="2.42073">
        <ele>97</ele>
        <time>2015-08-02T08:35:27.621Z</time>
      </trkpt>
      <trkpt lat="43.21875" lon="2.42078">
        <ele>97.4</ele>
        <time>2015-08-02T08:35:29.649Z</time>
      </trkpt>
      <trkpt lat="43.21872" lon="2.4208">
        <ele>97.7</ele>
        <time>2015-08-02T08:35:30.613Z</time>
      </trkpt>
      <trkpt lat="43.21864" lon="2.42085">
        <ele>98.3</ele>
        <time>2015-08-02T08:35:32.652Z</time>
      </trkpt>
      <trkpt lat="43.21861" lon="2.42088">
        <ele>98.5</ele>
        <time>2015-08-02T08:35:33.610Z</time>
      </trkpt>
      <trkpt lat="43.21854" lon="2.42093">
        <ele>99.1</ele>
        <time>2015-08-02T08:35:35.676Z</time>
      </trkpt>
      <trkpt lat="43.2185" lon="2.42096">
        <ele>99.4</ele>
        <time>2015-08-02T08:35:36.618Z</time>
      </trkpt>
      <trkpt lat="43.21843" lon="2.42101">
        <ele>100.1</ele>
        <time>2015-08-02T08:35:38.681Z</time>
      </trkpt>
      <trkpt lat="43.21839" lon="2.42104">
        <ele>100.4</ele>
        <time>2015-08-02T08:35:39.622Z</time>
      </trkpt>
      <trkpt lat="43.21833" lon="2.4211">
        <ele>100.8</ele>
        <time>2015-08-02T08:35:41.669Z</time>
      </trkpt>
      <trkpt lat="43.21829" lon="2.42112">
        <ele>101.1</ele>
        <time>2015-08-02T08:35:42.608Z</time>
      </trkpt>
      <trkpt lat="43.21821" lon="2.42117">
        <ele>101.7</ele>
        <time>2015-08-02T08:35:44.651Z</time>
      </trkpt>
      <trkpt lat="43.21818" lon="2.42119">
        <ele>102.1</ele>
        <time>2015-08-02T08:35:45.608Z</time>
      </trkpt>
      <trkpt lat="43.21811" lon="2.42125">
        <ele>102.5</ele>
        <time>2015-08-02T08:35:47.673Z</time>
      </trkpt>
      <trkpt lat="43.21808" lon="2.42128">
        <ele>102.8</ele>
        <time>2015-08-02T08:35:48.619Z</time>
      </trkpt>
      <trkpt lat="43.21802" lon="2.42133">
        <ele>103.4</ele>
        <time>2015-08-02T08:35:50.651Z</time>
      </trkpt>
      <trkpt lat="43.21799" lon="2.42136">
        <ele>103.6</ele>
        <time>2015-08-02T08:35:51.886Z</time>
      </trkpt>
      <trkpt lat="43.21795" lon="2.42138">
        <ele>104.3</ele>
        <time>2015-08-02T08:35:52.653Z</time>
      </trkpt>
      <trkpt lat="43.2179" lon="2.42141">
        <ele>105</ele>
        <time>2015-08-02T08:35:53.613Z</time>
      </trkpt>
      <trkpt lat="43.21785" lon="2.42143">
        <ele>105.8</ele>
        <time>2015-08-02T08:35:54.652Z</time>
      </trkpt>
      <trkpt lat="43.21781" lon="2.42146">
        <ele>106.2</ele>
        <time>2015-08-02T08:35:55.606Z</time>
      </trkpt>
      <trkpt lat="43.21773" lon="2.4215">
        <ele>106.9</ele>
        <time>2015-08-02T08:35:57.653Z</time>
      </trkpt>
      <trkpt lat="43.2177" lon="2.42153">
        <ele>107.2</ele>
        <time>2015-08-02T08:35:58.608Z</time>
      </trkpt>
      <trkpt lat="43.21762" lon="2.42158">
        <ele>107.5</ele>
        <time>2015-08-02T08:36:00.645Z</time>
      </trkpt>
      <trkpt lat="43.21758" lon="2.42161">
        <ele>107.7</ele>
        <time>2015-08-02T08:36:01.608Z</time>
      </trkpt>
      <trkpt lat="43.21751" lon="2.42166">
        <ele>107.9</ele>
        <time>2015-08-02T08:36:03.668Z</time>
      </trkpt>
      <trkpt lat="43.21747" lon="2.42168">
        <ele>108.1</ele>
        <time>2015-08-02T08:36:04.609Z</time>
      </trkpt>
      <trkpt lat="43.21739" lon="2.42173">
        <ele>108.5</ele>
        <time>2015-08-02T08:36:06.650Z</time>
      </trkpt>
      <trkpt lat="43.21736" lon="2.42175">
        <ele>108.6</ele>
        <time>2015-08-02T08:36:07.611Z</time>
      </trkpt>
      <trkpt lat="43.21728" lon="2.4218">
        <ele>108.6</ele>
        <time>2015-08-02T08:36:09.681Z</time>
      </trkpt>
      <trkpt lat="43.21725" lon="2.42183">
        <ele>108.8</ele>
        <time>2015-08-02T08:36:10.618Z</time>
      </trkpt>
      <trkpt lat="43.2172" lon="2.42188">
        <ele>109</ele>
        <time>2015-08-02T08:36:12.648Z</time>
      </trkpt>
      <trkpt lat="43.21717" lon="2.4219">
        <ele>109.2</ele>
        <time>2015-08-02T08:36:13.608Z</time>
      </trkpt>
      <trkpt lat="43.2171" lon="2.42194">
        <ele>109.5</ele>
        <time>2015-08-02T08:36:15.645Z</time>
      </trkpt>
      <trkpt lat="43.21707" lon="2.42196">
        <ele>109.8</ele>
        <time>2015-08-02T08:36:16.608Z</time>
      </trkpt>
      <trkpt lat="43.21699" lon="2.42201">
        <ele>110.1</ele>
        <time>2015-08-02T08:36:18.651Z</time>
      </trkpt>
      <trkpt lat="43.21696" lon="2.42204">
        <ele>110.3</ele>
        <time>2015-08-02T08:36:19.608Z</time>
      </trkpt>
      <trkpt lat="43.21688" lon="2.42209">
        <ele>110.7</ele>
        <time>2015-08-02T08:36:21.641Z</time>
      </trkpt>
      <trkpt lat="43.21685" lon="2.42212">
        <ele>110.9</ele>
        <time>2015-08-02T08:36:22.609Z</time>
      </trkpt>
      <trkpt lat="43.21678" lon="2.42217">
        <ele>111.1</ele>
        <time>2015-08-02T08:36:24.654Z</time>
      </trkpt>
      <trkpt lat="43.21675" lon="2.4222">
        <ele>111.3</ele>
        <time>2015-08-02T08:36:25.610Z</time>
      </trkpt>
      <trkpt lat="43.21668" lon="2.42227">
        <ele>111.5</ele>
        <time>2015-08-02T08:36:27.653Z</time>
      </trkpt>
      <trkpt lat="43.21664" lon="2.4223">
        <ele>111.4</ele>
        <time>2015-08-02T08:36:28.609Z</time>
      </trkpt>
      <trkpt lat="43.21657" lon="2.42235">
        <ele>111.7</ele>
        <time>2015-08-02T08:36:30.652Z</time>
      </trkpt>
      <trkpt lat="43.21654" lon="2.42239">
        <ele>111.9</ele>
        <time>2015-08-02T08:36:31.608Z</time>
      </trkpt>
      <trkpt lat="43.21648" lon="2.42245">
        <ele>111.9</ele>
        <time>2015-08-02T08:36:33.649Z</time>
      </trkpt>
      <trkpt lat="43.21645" lon="2.42248">
        <ele>111.7</ele>
        <time>2015-08-02T08:36:34.606Z</time>
      </trkpt>
      <trkpt lat="43.21639" lon="2.42253">
        <ele>111.5</ele>
        <time>2015-08-02T08:36:36.674Z</time>
      </trkpt>
      <trkpt lat="43.21636" lon="2.42256">
        <ele>111.4</ele>
        <time>2015-08-02T08:36:37.621Z</time>
      </trkpt>
      <trkpt lat="43.21631" lon="2.42262">
        <ele>111.2</ele>
        <time>2015-08-02T08:36:39.651Z</time>
      </trkpt>
      <trkpt lat="43.21629" lon="2.42264">
        <ele>110.6</ele>
        <time>2015-08-02T08:36:40.610Z</time>
      </trkpt>
      <trkpt lat="43.21622" lon="2.4227">
        <ele>108.8</ele>
        <time>2015-08-02T08:36:43.655Z</time>
      </trkpt>
      <trkpt lat="43.2162" lon="2.4227">
        <ele>108</ele>
        <time>2015-08-02T08:36:44.611Z</time>
      </trkpt>
      <trkpt lat="43.21616" lon="2.42279">
        <ele>107.1</ele>
        <time>2015-08-02T08:36:49.648Z</time>
      </trkpt>
      <trkpt lat="43.21615" lon="2.42281">
        <ele>106.5</ele>
        <time>2015-08-02T08:36:50.611Z</time>
      </trkpt>
      <trkpt lat="43.21612" lon="2.42291">
        <ele>105.5</ele>
        <time>2015-08-02T08:36:53.674Z</time>
      </trkpt>
      <trkpt lat="43.21611" lon="2.42294">
        <ele>105.3</ele>
        <time>2015-08-02T08:36:54.619Z</time>
      </trkpt>
      <trkpt lat="43.21609" lon="2.42303">
        <ele>104.6</ele>
        <time>2015-08-02T08:36:56.679Z</time>
      </trkpt>
      <trkpt lat="43.21609" lon="2.42307">
        <ele>104.3</ele>
        <time>2015-08-02T08:36:57.899Z</time>
      </trkpt>
      <trkpt lat="43.21608" lon="2.42317">
        <ele>103.6</ele>
        <time>2015-08-02T08:36:59.653Z</time>
      </trkpt>
      <trkpt lat="43.21606" lon="2.4232">
        <ele>103</ele>
        <time>2015-08-02T08:37:00.610Z</time>
      </trkpt>
      <trkpt lat="43.21605" lon="2.42331">
        <ele>102</ele>
        <time>2015-08-02T08:37:03.653Z</time>
      </trkpt>
      <trkpt lat="43.21605" lon="2.42334">
        <ele>101.9</ele>
        <time>2015-08-02T08:37:04.619Z</time>
      </trkpt>
      <trkpt lat="43.21602" lon="2.42345">
        <ele>101.3</ele>
        <time>2015-08-02T08:37:06.651Z</time>
      </trkpt>
      <trkpt lat="43.21601" lon="2.42352">
        <ele>101.2</ele>
        <time>2015-08-02T08:37:07.612Z</time>
      </trkpt>
      <trkpt lat="43.21599" lon="2.42362">
        <ele>101.1</ele>
        <time>2015-08-02T08:37:09.654Z</time>
      </trkpt>
      <trkpt lat="43.216" lon="2.42366">
        <ele>101</ele>
        <time>2015-08-02T08:37:10.611Z</time>
      </trkpt>
      <trkpt lat="43.216" lon="2.42377">
        <ele>100.7</ele>
        <time>2015-08-02T08:37:13.654Z</time>
      </trkpt>
      <trkpt lat="43.216" lon="2.42382">
        <ele>100.5</ele>
        <time>2015-08-02T08:37:14.611Z</time>
      </trkpt>
      <trkpt lat="43.21601" lon="2.42393">
        <ele>99.9</ele>
        <time>2015-08-02T08:37:16.675Z</time>
      </trkpt>
      <trkpt lat="43.21602" lon="2.42397">
        <ele>99.5</ele>
        <time>2015-08-02T08:37:17.613Z</time>
      </trkpt>
      <trkpt lat="43.21602" lon="2.42408">
        <ele>98.9</ele>
        <time>2015-08-02T08:37:19.679Z</time>
      </trkpt>
      <trkpt lat="43.216" lon="2.42415">
        <ele>98.6</ele>
        <time>2015-08-02T08:37:20.620Z</time>
      </trkpt>
      <trkpt lat="43.21599" lon="2.42425">
        <ele>98</ele>
        <time>2015-08-02T08:37:22.653Z</time>
      </trkpt>
      <trkpt lat="43.21598" lon="2.4243">
        <ele>97.9</ele>
        <time>2015-08-02T08:37:23.610Z</time>
      </trkpt>
      <trkpt lat="43.21598" lon="2.42438">
        <ele>97.5</ele>
        <time>2015-08-02T08:37:25.651Z</time>
      </trkpt>
      <trkpt lat="43.21596" lon="2.42444">
        <ele>97.5</ele>
        <time>2015-08-02T08:37:26.611Z</time>
      </trkpt>
      <trkpt lat="43.21595" lon="2.42455">
        <ele>97.3</ele>
        <time>2015-08-02T08:37:28.695Z</time>
      </trkpt>
      <trkpt lat="43.21593" lon="2.42461">
        <ele>97.3</ele>
        <time>2015-08-02T08:37:29.614Z</time>
      </trkpt>
      <trkpt lat="43.21593" lon="2.42467">
        <ele>97.2</ele>
        <time>2015-08-02T08:37:30.646Z</time>
      </trkpt>
      <trkpt lat="43.21593" lon="2.42474">
        <ele>96.8</ele>
        <time>2015-08-02T08:37:31.612Z</time>
      </trkpt>
      <trkpt lat="43.21592" lon="2.4248">
        <ele>96.5</ele>
        <time>2015-08-02T08:37:32.649Z</time>
      </trkpt>
      <trkpt lat="43.21592" lon="2.42486">
        <ele>96.2</ele>
        <time>2015-08-02T08:37:33.610Z</time>
      </trkpt>
      <trkpt lat="43.21591" lon="2.42492">
        <ele>95.9</ele>
        <time>2015-08-02T08:37:34.651Z</time>
      </trkpt>
      <trkpt lat="43.21591" lon="2.42499">
        <ele>95.8</ele>
        <time>2015-08-02T08:37:35.622Z</time>
      </trkpt>
      <trkpt lat="43.2159" lon="2.42511">
        <ele>95</ele>
        <time>2015-08-02T08:37:37.667Z</time>
      </trkpt>
      <trkpt lat="43.2159" lon="2.42517">
        <ele>94.6</ele>
        <time>2015-08-02T08:37:38.611Z</time>
      </trkpt>
      <trkpt lat="43.2159" lon="2.42528">
        <ele>94.3</ele>
        <time>2015-08-02T08:37:40.651Z</time>
      </trkpt>
      <trkpt lat="43.2159" lon="2.42533">
        <ele>94.1</ele>
        <time>2015-08-02T08:37:41.613Z</time>
      </trkpt>
      <trkpt lat="43.21589" lon="2.42541">
        <ele>93.7</ele>
        <time>2015-08-02T08:37:43.711Z</time>
      </trkpt>
      <trkpt lat="43.2159" lon="2.42545">
        <ele>93.5</ele>
        <time>2015-08-02T08:37:44.621Z</time>
      </trkpt>
      <trkpt lat="43.21589" lon="2.42556">
        <ele>92.9</ele>
        <time>2015-08-02T08:37:47.660Z</time>
      </trkpt>
      <trkpt lat="43.21589" lon="2.4256">
        <ele>92.8</ele>
        <time>2015-08-02T08:37:48.608Z</time>
      </trkpt>
      <trkpt lat="43.21589" lon="2.42569">
        <ele>92.6</ele>
        <time>2015-08-02T08:37:50.653Z</time>
      </trkpt>
      <trkpt lat="43.21588" lon="2.42573">
        <ele>92.5</ele>
        <time>2015-08-02T08:37:51.633Z</time>
      </trkpt>
      <trkpt lat="43.21587" lon="2.42582">
        <ele>92.4</ele>
        <time>2015-08-02T08:37:53.654Z</time>
      </trkpt>
      <trkpt lat="43.21587" lon="2.42586">
        <ele>92.3</ele>
        <time>2015-08-02T08:37:54.609Z</time>
      </trkpt>
      <trkpt lat="43.21587" lon="2.42595">
        <ele>91.9</ele>
        <time>2015-08-02T08:37:56.654Z</time>
      </trkpt>
      <trkpt lat="43.21587" lon="2.426">
        <ele>91.9</ele>
        <time>2015-08-02T08:37:57.613Z</time>
      </trkpt>
      <trkpt lat="43.21588" lon="2.42611">
        <ele>91.5</ele>
        <time>2015-08-02T08:38:00.677Z</time>
      </trkpt>
      <trkpt lat="43.21588" lon="2.42615">
        <ele>91.3</ele>
        <time>2015-08-02T08:38:01.622Z</time>
      </trkpt>
      <trkpt lat="43.21588" lon="2.42626">
        <ele>90.7</ele>
        <time>2015-08-02T08:38:04.676Z</time>
      </trkpt>
      <trkpt lat="43.21588" lon="2.4263">
        <ele>90.5</ele>
        <time>2015-08-02T08:38:05.612Z</time>
      </trkpt>
      <trkpt lat="43.21588" lon="2.42638">
        <ele>90</ele>
        <time>2015-08-02T08:38:07.658Z</time>
      </trkpt>
      <trkpt lat="43.21588" lon="2.42643">
        <ele>89.6</ele>
        <time>2015-08-02T08:38:08.608Z</time>
      </trkpt>
      <trkpt lat="43.21587" lon="2.42652">
        <ele>89.1</ele>
        <time>2015-08-02T08:38:10.641Z</time>
      </trkpt>
      <trkpt lat="43.21587" lon="2.42657">
        <ele>88.9</ele>
        <time>2015-08-02T08:38:11.607Z</time>
      </trkpt>
      <trkpt lat="43.21585" lon="2.42666">
        <ele>88.5</ele>
        <time>2015-08-02T08:38:13.644Z</time>
      </trkpt>
      <trkpt lat="43.21584" lon="2.4267">
        <ele>87.9</ele>
        <time>2015-08-02T08:38:14.608Z</time>
      </trkpt>
      <trkpt lat="43.21582" lon="2.42679">
        <ele>87.2</ele>
        <time>2015-08-02T08:38:16.677Z</time>
      </trkpt>
      <trkpt lat="43.21581" lon="2.42684">
        <ele>86.8</ele>
        <time>2015-08-02T08:38:17.611Z</time>
      </trkpt>
      <trkpt lat="43.2158" lon="2.4269">
        <ele>86.4</ele>
        <time>2015-08-02T08:38:18.653Z</time>
      </trkpt>
      <trkpt lat="43.21578" lon="2.42697">
        <ele>86.1</ele>
        <time>2015-08-02T08:38:19.614Z</time>
      </trkpt>
      <trkpt lat="43.21576" lon="2.42703">
        <ele>85.8</ele>
        <time>2015-08-02T08:38:20.645Z</time>
      </trkpt>
      <trkpt lat="43.21574" lon="2.42708">
        <ele>85.6</ele>
        <time>2015-08-02T08:38:21.606Z</time>
      </trkpt>
      <trkpt lat="43.21571" lon="2.4272">
        <ele>85.2</ele>
        <time>2015-08-02T08:38:23.843Z</time>
      </trkpt>
      <trkpt lat="43.2157" lon="2.42726">
        <ele>85</ele>
        <time>2015-08-02T08:38:24.605Z</time>
      </trkpt>
      <trkpt lat="43.21568" lon="2.42732">
        <ele>84.8</ele>
        <time>2015-08-02T08:38:25.644Z</time>
      </trkpt>
      <trkpt lat="43.21566" lon="2.42738">
        <ele>84.6</ele>
        <time>2015-08-02T08:38:26.608Z</time>
      </trkpt>
      <trkpt lat="43.21564" lon="2.42744">
        <ele>84.5</ele>
        <time>2015-08-02T08:38:27.667Z</time>
      </trkpt>
      <trkpt lat="43.21562" lon="2.4275">
        <ele>84.3</ele>
        <time>2015-08-02T08:38:28.610Z</time>
      </trkpt>
      <trkpt lat="43.21559" lon="2.42761">
        <ele>83.6</ele>
        <time>2015-08-02T08:38:30.658Z</time>
      </trkpt>
      <trkpt lat="43.21558" lon="2.42766">
        <ele>83.2</ele>
        <time>2015-08-02T08:38:31.613Z</time>
      </trkpt>
      <trkpt lat="43.21554" lon="2.42776">
        <ele>82.7</ele>
        <time>2015-08-02T08:38:33.661Z</time>
      </trkpt>
      <trkpt lat="43.21553" lon="2.42779">
        <ele>82.4</ele>
        <time>2015-08-02T08:38:34.619Z</time>
      </trkpt>
      <trkpt lat="43.2155" lon="2.42787">
        <ele>82</ele>
        <time>2015-08-02T08:38:36.656Z</time>
      </trkpt>
      <trkpt lat="43.21549" lon="2.42791">
        <ele>81.9</ele>
        <time>2015-08-02T08:38:37.609Z</time>
      </trkpt>
      <trkpt lat="43.21547" lon="2.42798">
        <ele>81.5</ele>
        <time>2015-08-02T08:38:39.661Z</time>
      </trkpt>
      <trkpt lat="43.21546" lon="2.42803">
        <ele>81.5</ele>
        <time>2015-08-02T08:38:40.611Z</time>
      </trkpt>
      <trkpt lat="43.21544" lon="2.42811">
        <ele>81.4</ele>
        <time>2015-08-02T08:38:43.105Z</time>
      </trkpt>
      <trkpt lat="43.21543" lon="2.42815">
        <ele>81.4</ele>
        <time>2015-08-02T08:38:43.609Z</time>
      </trkpt>
      <trkpt lat="43.2154" lon="2.42826">
        <ele>81.1</ele>
        <time>2015-08-02T08:38:46.693Z</time>
      </trkpt>
      <trkpt lat="43.21539" lon="2.4283">
        <ele>80.9</ele>
        <time>2015-08-02T08:38:47.608Z</time>
      </trkpt>
      <trkpt lat="43.21536" lon="2.42838">
        <ele>80.6</ele>
        <time>2015-08-02T08:38:49.687Z</time>
      </trkpt>
      <trkpt lat="43.21535" lon="2.42843">
        <ele>80.4</ele>
        <time>2015-08-02T08:38:50.621Z</time>
      </trkpt>
      <trkpt lat="43.21533" lon="2.42851">
        <ele>80</ele>
        <time>2015-08-02T08:38:52.659Z</time>
      </trkpt>
      <trkpt lat="43.21531" lon="2.42856">
        <ele>79.8</ele>
        <time>2015-08-02T08:38:53.611Z</time>
      </trkpt>
      <trkpt lat="43.21528" lon="2.42865">
        <ele>79.7</ele>
        <time>2015-08-02T08:38:55.660Z</time>
      </trkpt>
      <trkpt lat="43.21527" lon="2.4287">
        <ele>79.5</ele>
        <time>2015-08-02T08:38:56.611Z</time>
      </trkpt>
      <trkpt lat="43.21523" lon="2.4288">
        <ele>79.3</ele>
        <time>2015-08-02T08:38:58.654Z</time>
      </trkpt>
      <trkpt lat="43.21522" lon="2.42885">
        <ele>79.2</ele>
        <time>2015-08-02T08:38:59.607Z</time>
      </trkpt>
      <trkpt lat="43.21518" lon="2.42894">
        <ele>79</ele>
        <time>2015-08-02T08:39:02.025Z</time>
      </trkpt>
      <trkpt lat="43.21517" lon="2.42898">
        <ele>79</ele>
        <time>2015-08-02T08:39:02.611Z</time>
      </trkpt>
      <trkpt lat="43.21513" lon="2.42908">
        <ele>78.8</ele>
        <time>2015-08-02T08:39:04.659Z</time>
      </trkpt>
      <trkpt lat="43.21512" lon="2.42912">
        <ele>78.8</ele>
        <time>2015-08-02T08:39:05.618Z</time>
      </trkpt>
      <trkpt lat="43.2151" lon="2.4292">
        <ele>78.8</ele>
        <time>2015-08-02T08:39:07.661Z</time>
      </trkpt>
      <trkpt lat="43.21508" lon="2.42924">
        <ele>78.7</ele>
        <time>2015-08-02T08:39:08.610Z</time>
      </trkpt>
      <trkpt lat="43.21506" lon="2.42934">
        <ele>78.3</ele>
        <time>2015-08-02T08:39:10.652Z</time>
      </trkpt>
      <trkpt lat="43.21504" lon="2.42939">
        <ele>78.4</ele>
        <time>2015-08-02T08:39:11.609Z</time>
      </trkpt>
      <trkpt lat="43.21501" lon="2.42948">
        <ele>78.2</ele>
        <time>2015-08-02T08:39:13.653Z</time>
      </trkpt>
      <trkpt lat="43.215" lon="2.42953">
        <ele>78.4</ele>
        <time>2015-08-02T08:39:14.608Z</time>
      </trkpt>
      <trkpt lat="43.21497" lon="2.42963">
        <ele>78.5</ele>
        <time>2015-08-02T08:39:16.662Z</time>
      </trkpt>
      <trkpt lat="43.21495" lon="2.42967">
        <ele>78.6</ele>
        <time>2015-08-02T08:39:17.610Z</time>
      </trkpt>
      <trkpt lat="43.21491" lon="2.42977">
        <ele>78.8</ele>
        <time>2015-08-02T08:39:19.653Z</time>
      </trkpt>
      <trkpt lat="43.21489" lon="2.42983">
        <ele>78.9</ele>
        <time>2015-08-02T08:39:20.611Z</time>
      </trkpt>
      <trkpt lat="43.21485" lon="2.42993">
        <ele>79.2</ele>
        <time>2015-08-02T08:39:22.659Z</time>
      </trkpt>
      <trkpt lat="43.21483" lon="2.42998">
        <ele>79.3</ele>
        <time>2015-08-02T08:39:23.608Z</time>
      </trkpt>
      <trkpt lat="43.21479" lon="2.43007">
        <ele>79.7</ele>
        <time>2015-08-02T08:39:25.662Z</time>
      </trkpt>
      <trkpt lat="43.21477" lon="2.43012">
        <ele>79.8</ele>
        <time>2015-08-02T08:39:26.613Z</time>
      </trkpt>
      <trkpt lat="43.21471" lon="2.43021">
        <ele>80.2</ele>
        <time>2015-08-02T08:39:28.671Z</time>
      </trkpt>
      <trkpt lat="43.21468" lon="2.43025">
        <ele>80.4</ele>
        <time>2015-08-02T08:39:29.621Z</time>
      </trkpt>
      <trkpt lat="43.21463" lon="2.43034">
        <ele>80.7</ele>
        <time>2015-08-02T08:39:31.675Z</time>
      </trkpt>
      <trkpt lat="43.21461" lon="2.43039">
        <ele>80.8</ele>
        <time>2015-08-02T08:39:32.637Z</time>
      </trkpt>
      <trkpt lat="43.21455" lon="2.43047">
        <ele>80.9</ele>
        <time>2015-08-02T08:39:34.657Z</time>
      </trkpt>
      <trkpt lat="43.21453" lon="2.43052">
        <ele>81</ele>
        <time>2015-08-02T08:39:35.607Z</time>
      </trkpt>
      <trkpt lat="43.21447" lon="2.43059">
        <ele>81.2</ele>
        <time>2015-08-02T08:39:37.670Z</time>
      </trkpt>
      <trkpt lat="43.21444" lon="2.43063">
        <ele>81.3</ele>
        <time>2015-08-02T08:39:38.611Z</time>
      </trkpt>
      <trkpt lat="43.21438" lon="2.43072">
        <ele>81.4</ele>
        <time>2015-08-02T08:39:40.693Z</time>
      </trkpt>
      <trkpt lat="43.21435" lon="2.43077">
        <ele>81.4</ele>
        <time>2015-08-02T08:39:41.622Z</time>
      </trkpt>
      <trkpt lat="43.2143" lon="2.43086">
        <ele>81.6</ele>
        <time>2015-08-02T08:39:43.660Z</time>
      </trkpt>
      <trkpt lat="43.21428" lon="2.4309">
        <ele>81.7</ele>
        <time>2015-08-02T08:39:44.612Z</time>
      </trkpt>
      <trkpt lat="43.21423" lon="2.43099">
        <ele>81.7</ele>
        <time>2015-08-02T08:39:46.657Z</time>
      </trkpt>
      <trkpt lat="43.2142" lon="2.43104">
        <ele>81.8</ele>
        <time>2015-08-02T08:39:47.610Z</time>
      </trkpt>
      <trkpt lat="43.21416" lon="2.43112">
        <ele>81.7</ele>
        <time>2015-08-02T08:39:49.676Z</time>
      </trkpt>
      <trkpt lat="43.21413" lon="2.43116">
        <ele>81.6</ele>
        <time>2015-08-02T08:39:50.619Z</time>
      </trkpt>
      <trkpt lat="43.21409" lon="2.43125">
        <ele>81.7</ele>
        <time>2015-08-02T08:39:52.659Z</time>
      </trkpt>
      <trkpt lat="43.21407" lon="2.43129">
        <ele>81.8</ele>
        <time>2015-08-02T08:39:53.607Z</time>
      </trkpt>
      <trkpt lat="43.21403" lon="2.43138">
        <ele>81.6</ele>
        <time>2015-08-02T08:39:55.661Z</time>
      </trkpt>
      <trkpt lat="43.21402" lon="2.43143">
        <ele>81.4</ele>
        <time>2015-08-02T08:39:56.610Z</time>
      </trkpt>
      <trkpt lat="43.21399" lon="2.43151">
        <ele>81.3</ele>
        <time>2015-08-02T08:39:58.701Z</time>
      </trkpt>
      <trkpt lat="43.21397" lon="2.43155">
        <ele>81.2</ele>
        <time>2015-08-02T08:39:59.620Z</time>
      </trkpt>
      <trkpt lat="43.21395" lon="2.43163">
        <ele>81.3</ele>
        <time>2015-08-02T08:40:01.663Z</time>
      </trkpt>
      <trkpt lat="43.21394" lon="2.43167">
        <ele>81.2</ele>
        <time>2015-08-02T08:40:02.611Z</time>
      </trkpt>
      <trkpt lat="43.21392" lon="2.43176">
        <ele>81</ele>
        <time>2015-08-02T08:40:04.656Z</time>
      </trkpt>
      <trkpt lat="43.21391" lon="2.43181">
        <ele>81</ele>
        <time>2015-08-02T08:40:05.611Z</time>
      </trkpt>
      <trkpt lat="43.21389" lon="2.4319">
        <ele>81</ele>
        <time>2015-08-02T08:40:07.681Z</time>
      </trkpt>
      <trkpt lat="43.21388" lon="2.43194">
        <ele>81</ele>
        <time>2015-08-02T08:40:08.619Z</time>
      </trkpt>
      <trkpt lat="43.21387" lon="2.43202">
        <ele>81.3</ele>
        <time>2015-08-02T08:40:10.649Z</time>
      </trkpt>
      <trkpt lat="43.21386" lon="2.43206">
        <ele>81.2</ele>
        <time>2015-08-02T08:40:11.608Z</time>
      </trkpt>
      <trkpt lat="43.21384" lon="2.43218">
        <ele>81.3</ele>
        <time>2015-08-02T08:40:14.650Z</time>
      </trkpt>
      <trkpt lat="43.21384" lon="2.43223">
        <ele>81.4</ele>
        <time>2015-08-02T08:40:15.607Z</time>
      </trkpt>
      <trkpt lat="43.21383" lon="2.43233">
        <ele>81.6</ele>
        <time>2015-08-02T08:40:17.671Z</time>
      </trkpt>
      <trkpt lat="43.21383" lon="2.43237">
        <ele>81.9</ele>
        <time>2015-08-02T08:40:18.610Z</time>
      </trkpt>
      <trkpt lat="43.21382" lon="2.43246">
        <ele>82.1</ele>
        <time>2015-08-02T08:40:20.699Z</time>
      </trkpt>
      <trkpt lat="43.21381" lon="2.4325">
        <ele>82.2</ele>
        <time>2015-08-02T08:40:21.611Z</time>
      </trkpt>
      <trkpt lat="43.21381" lon="2.43259">
        <ele>82.4</ele>
        <time>2015-08-02T08:40:23.663Z</time>
      </trkpt>
      <trkpt lat="43.21381" lon="2.43264">
        <ele>82.5</ele>
        <time>2015-08-02T08:40:24.617Z</time>
      </trkpt>
      <trkpt lat="43.21381" lon="2.43273">
        <ele>82.6</ele>
        <time>2015-08-02T08:40:26.659Z</time>
      </trkpt>
      <trkpt lat="43.21381" lon="2.43277">
        <ele>82.5</ele>
        <time>2015-08-02T08:40:27.611Z</time>
      </trkpt>
      <trkpt lat="43.2138" lon="2.43287">
        <ele>82.4</ele>
        <time>2015-08-02T08:40:29.660Z</time>
      </trkpt>
      <trkpt lat="43.2138" lon="2.43291">
        <ele>82.4</ele>
        <time>2015-08-02T08:40:30.619Z</time>
      </trkpt>
      <trkpt lat="43.2138" lon="2.43303">
        <ele>82.2</ele>
        <time>2015-08-02T08:40:33.661Z</time>
      </trkpt>
      <trkpt lat="43.21381" lon="2.43307">
        <ele>82</ele>
        <time>2015-08-02T08:40:34.608Z</time>
      </trkpt>
      <trkpt lat="43.21381" lon="2.43316">
        <ele>82.1</ele>
        <time>2015-08-02T08:40:36.658Z</time>
      </trkpt>
      <trkpt lat="43.21381" lon="2.43321">
        <ele>82</ele>
        <time>2015-08-02T08:40:37.607Z</time>
      </trkpt>
      <trkpt lat="43.21381" lon="2.43329">
        <ele>81.9</ele>
        <time>2015-08-02T08:40:39.661Z</time>
      </trkpt>
      <trkpt lat="43.21382" lon="2.43333">
        <ele>81.9</ele>
        <time>2015-08-02T08:40:40.612Z</time>
      </trkpt>
      <trkpt lat="43.21382" lon="2.43346">
        <ele>81.7</ele>
        <time>2015-08-02T08:40:43.663Z</time>
      </trkpt>
      <trkpt lat="43.21383" lon="2.4335">
        <ele>81.7</ele>
        <time>2015-08-02T08:40:44.618Z</time>
      </trkpt>
      <trkpt lat="43.21383" lon="2.43362">
        <ele>81.7</ele>
        <time>2015-08-02T08:40:47.666Z</time>
      </trkpt>
      <trkpt lat="43.21383" lon="2.43366">
        <ele>81.8</ele>
        <time>2015-08-02T08:40:48.962Z</time>
      </trkpt>
      <trkpt lat="43.21385" lon="2.43376">
        <ele>81.8</ele>
        <time>2015-08-02T08:40:50.658Z</time>
      </trkpt>
      <trkpt lat="43.21385" lon="2.43381">
        <ele>81.9</ele>
        <time>2015-08-02T08:40:51.621Z</time>
      </trkpt>
      <trkpt lat="43.21387" lon="2.43391">
        <ele>82.1</ele>
        <time>2015-08-02T08:40:53.658Z</time>
      </trkpt>
      <trkpt lat="43.21388" lon="2.43395">
        <ele>82.2</ele>
        <time>2015-08-02T08:40:54.608Z</time>
      </trkpt>
      <trkpt lat="43.2139" lon="2.43404">
        <ele>82.7</ele>
        <time>2015-08-02T08:40:56.660Z</time>
      </trkpt>
      <trkpt lat="43.2139" lon="2.43409">
        <ele>82.9</ele>
        <time>2015-08-02T08:40:57.611Z</time>
      </trkpt>
      <trkpt lat="43.21392" lon="2.43418">
        <ele>83.3</ele>
        <time>2015-08-02T08:40:59.677Z</time>
      </trkpt>
      <trkpt lat="43.21393" lon="2.43422">
        <ele>83.5</ele>
        <time>2015-08-02T08:41:00.618Z</time>
      </trkpt>
      <trkpt lat="43.21394" lon="2.43433">
        <ele>84.2</ele>
        <time>2015-08-02T08:41:04.674Z</time>
      </trkpt>
      <trkpt lat="43.21395" lon="2.43435">
        <ele>84.4</ele>
        <time>2015-08-02T08:41:05.622Z</time>
      </trkpt>
      <trkpt lat="43.21399" lon="2.43445">
        <ele>85</ele>
        <time>2015-08-02T08:41:12.672Z</time>
      </trkpt>
      <trkpt lat="43.21401" lon="2.43447">
        <ele>85.2</ele>
        <time>2015-08-02T08:41:13.621Z</time>
      </trkpt>
      <trkpt lat="43.21405" lon="2.43452">
        <ele>85.3</ele>
        <time>2015-08-02T08:41:15.656Z</time>
      </trkpt>
      <trkpt lat="43.21408" lon="2.43456">
        <ele>85.3</ele>
        <time>2015-08-02T08:41:16.609Z</time>
      </trkpt>
      <trkpt lat="43.21414" lon="2.43464">
        <ele>85.4</ele>
        <time>2015-08-02T08:41:18.662Z</time>
      </trkpt>
      <trkpt lat="43.21417" lon="2.43468">
        <ele>85.5</ele>
        <time>2015-08-02T08:41:19.611Z</time>
      </trkpt>
      <trkpt lat="43.2142" lon="2.43472">
        <ele>85.6</ele>
        <time>2015-08-02T08:41:20.664Z</time>
      </trkpt>
      <trkpt lat="43.21424" lon="2.43477">
        <ele>85.6</ele>
        <time>2015-08-02T08:41:21.610Z</time>
      </trkpt>
      <trkpt lat="43.2143" lon="2.43485">
        <ele>85.8</ele>
        <time>2015-08-02T08:41:23.659Z</time>
      </trkpt>
      <trkpt lat="43.21433" lon="2.43489">
        <ele>85.9</ele>
        <time>2015-08-02T08:41:24.609Z</time>
      </trkpt>
      <trkpt lat="43.21438" lon="2.43497">
        <ele>86</ele>
        <time>2015-08-02T08:41:26.658Z</time>
      </trkpt>
      <trkpt lat="43.2144" lon="2.43501">
        <ele>86.2</ele>
        <time>2015-08-02T08:41:27.610Z</time>
      </trkpt>
      <trkpt lat="43.21446" lon="2.4351">
        <ele>86.5</ele>
        <time>2015-08-02T08:41:29.671Z</time>
      </trkpt>
      <trkpt lat="43.21448" lon="2.43515">
        <ele>86.6</ele>
        <time>2015-08-02T08:41:30.608Z</time>
      </trkpt>
      <trkpt lat="43.21453" lon="2.43524">
        <ele>86.5</ele>
        <time>2015-08-02T08:41:32.659Z</time>
      </trkpt>
      <trkpt lat="43.21456" lon="2.43529">
        <ele>86.5</ele>
        <time>2015-08-02T08:41:33.609Z</time>
      </trkpt>
      <trkpt lat="43.21459" lon="2.43539">
        <ele>86.6</ele>
        <time>2015-08-02T08:41:35.656Z</time>
      </trkpt>
      <trkpt lat="43.21462" lon="2.43545">
        <ele>86.7</ele>
        <time>2015-08-02T08:41:36.606Z</time>
      </trkpt>
      <trkpt lat="43.21463" lon="2.43551">
        <ele>86.7</ele>
        <time>2015-08-02T08:41:37.659Z</time>
      </trkpt>
      <trkpt lat="43.21465" lon="2.43557">
        <ele>86.7</ele>
        <time>2015-08-02T08:41:38.609Z</time>
      </trkpt>
      <trkpt lat="43.21467" lon="2.43569">
        <ele>86.5</ele>
        <time>2015-08-02T08:41:40.661Z</time>
      </trkpt>
      <trkpt lat="43.21468" lon="2.43575">
        <ele>86.3</ele>
        <time>2015-08-02T08:41:41.612Z</time>
      </trkpt>
      <trkpt lat="43.21469" lon="2.43586">
        <ele>86</ele>
        <time>2015-08-02T08:41:43.660Z</time>
      </trkpt>
      <trkpt lat="43.21469" lon="2.43592">
        <ele>85.9</ele>
        <time>2015-08-02T08:41:44.613Z</time>
      </trkpt>
      <trkpt lat="43.21469" lon="2.43602">
        <ele>85.7</ele>
        <time>2015-08-02T08:41:46.671Z</time>
      </trkpt>
      <trkpt lat="43.21469" lon="2.43608">
        <ele>85.6</ele>
        <time>2015-08-02T08:41:47.620Z</time>
      </trkpt>
      <trkpt lat="43.21468" lon="2.43619">
        <ele>85.6</ele>
        <time>2015-08-02T08:41:49.655Z</time>
      </trkpt>
      <trkpt lat="43.21468" lon="2.43624">
        <ele>85.7</ele>
        <time>2015-08-02T08:41:50.612Z</time>
      </trkpt>
      <trkpt lat="43.21466" lon="2.43635">
        <ele>85.6</ele>
        <time>2015-08-02T08:41:52.658Z</time>
      </trkpt>
      <trkpt lat="43.21465" lon="2.43639">
        <ele>85.4</ele>
        <time>2015-08-02T08:41:53.608Z</time>
      </trkpt>
      <trkpt lat="43.21464" lon="2.43651">
        <ele>85</ele>
        <time>2015-08-02T08:41:55.676Z</time>
      </trkpt>
      <trkpt lat="43.21464" lon="2.43657">
        <ele>85</ele>
        <time>2015-08-02T08:41:56.619Z</time>
      </trkpt>
      <trkpt lat="43.21462" lon="2.43668">
        <ele>84.9</ele>
        <time>2015-08-02T08:41:58.660Z</time>
      </trkpt>
      <trkpt lat="43.21461" lon="2.43674">
        <ele>84.6</ele>
        <time>2015-08-02T08:41:59.609Z</time>
      </trkpt>
      <trkpt lat="43.21459" lon="2.43685">
        <ele>84.6</ele>
        <time>2015-08-02T08:42:01.659Z</time>
      </trkpt>
      <trkpt lat="43.21458" lon="2.4369">
        <ele>84.5</ele>
        <time>2015-08-02T08:42:02.610Z</time>
      </trkpt>
      <trkpt lat="43.21456" lon="2.43702">
        <ele>84.3</ele>
        <time>2015-08-02T08:42:04.656Z</time>
      </trkpt>
      <trkpt lat="43.21455" lon="2.43707">
        <ele>84.4</ele>
        <time>2015-08-02T08:42:05.611Z</time>
      </trkpt>
      <trkpt lat="43.21453" lon="2.43718">
        <ele>84</ele>
        <time>2015-08-02T08:42:07.682Z</time>
      </trkpt>
      <trkpt lat="43.21452" lon="2.43724">
        <ele>84.1</ele>
        <time>2015-08-02T08:42:08.609Z</time>
      </trkpt>
      <trkpt lat="43.2145" lon="2.43734">
        <ele>83.8</ele>
        <time>2015-08-02T08:42:11.036Z</time>
      </trkpt>
      <trkpt lat="43.2145" lon="2.43739">
        <ele>83.7</ele>
        <time>2015-08-02T08:42:11.611Z</time>
      </trkpt>
      <trkpt lat="43.21448" lon="2.4375">
        <ele>83.5</ele>
        <time>2015-08-02T08:42:13.662Z</time>
      </trkpt>
      <trkpt lat="43.21447" lon="2.43755">
        <ele>83.3</ele>
        <time>2015-08-02T08:42:14.621Z</time>
      </trkpt>
      <trkpt lat="43.21446" lon="2.43766">
        <ele>83.2</ele>
        <time>2015-08-02T08:42:16.651Z</time>
      </trkpt>
      <trkpt lat="43.21445" lon="2.43771">
        <ele>83.1</ele>
        <time>2015-08-02T08:42:17.611Z</time>
      </trkpt>
      <trkpt lat="43.21443" lon="2.43782">
        <ele>82.9</ele>
        <time>2015-08-02T08:42:19.662Z</time>
      </trkpt>
      <trkpt lat="43.21443" lon="2.43787">
        <ele>82.7</ele>
        <time>2015-08-02T08:42:20.609Z</time>
      </trkpt>
      <trkpt lat="43.21441" lon="2.43798">
        <ele>82.9</ele>
        <time>2015-08-02T08:42:22.657Z</time>
      </trkpt>
      <trkpt lat="43.21441" lon="2.43803">
        <ele>82.8</ele>
        <time>2015-08-02T08:42:23.610Z</time>
      </trkpt>
      <trkpt lat="43.21439" lon="2.43813">
        <ele>82.5</ele>
        <time>2015-08-02T08:42:25.686Z</time>
      </trkpt>
      <trkpt lat="43.21438" lon="2.43817">
        <ele>82.6</ele>
        <time>2015-08-02T08:42:26.620Z</time>
      </trkpt>
      <trkpt lat="43.21438" lon="2.43828">
        <ele>82.4</ele>
        <time>2015-08-02T08:42:29.008Z</time>
      </trkpt>
      <trkpt lat="43.21437" lon="2.43833">
        <ele>82.3</ele>
        <time>2015-08-02T08:42:29.609Z</time>
      </trkpt>
      <trkpt lat="43.21436" lon="2.43844">
        <ele>81.9</ele>
        <time>2015-08-02T08:42:31.660Z</time>
      </trkpt>
      <trkpt lat="43.21436" lon="2.4385">
        <ele>81.8</ele>
        <time>2015-08-02T08:42:32.607Z</time>
      </trkpt>
      <trkpt lat="43.21436" lon="2.4386">
        <ele>81.6</ele>
        <time>2015-08-02T08:42:34.681Z</time>
      </trkpt>
      <trkpt lat="43.21436" lon="2.43865">
        <ele>81.3</ele>
        <time>2015-08-02T08:42:35.640Z</time>
      </trkpt>
      <trkpt lat="43.21436" lon="2.43875">
        <ele>80.9</ele>
        <time>2015-08-02T08:42:38.021Z</time>
      </trkpt>
      <trkpt lat="43.21435" lon="2.43879">
        <ele>81.2</ele>
        <time>2015-08-02T08:42:38.610Z</time>
      </trkpt>
      <trkpt lat="43.21436" lon="2.4389">
        <ele>81.2</ele>
        <time>2015-08-02T08:42:41.659Z</time>
      </trkpt>
      <trkpt lat="43.21437" lon="2.43892">
        <ele>81.3</ele>
        <time>2015-08-02T08:42:42.607Z</time>
      </trkpt>
      <trkpt lat="43.21442" lon="2.43902">
        <ele>81.2</ele>
        <time>2015-08-02T08:42:46.658Z</time>
      </trkpt>
      <trkpt lat="43.21443" lon="2.43904">
        <ele>81.1</ele>
        <time>2015-08-02T08:42:47.613Z</time>
      </trkpt>
      <trkpt lat="43.21447" lon="2.43914">
        <ele>81.1</ele>
        <time>2015-08-02T08:42:51.662Z</time>
      </trkpt>
      <trkpt lat="43.21447" lon="2.43917">
        <ele>81.2</ele>
        <time>2015-08-02T08:42:52.611Z</time>
      </trkpt>
      <trkpt lat="43.21451" lon="2.43927">
        <ele>81.6</ele>
        <time>2015-08-02T08:42:55.652Z</time>
      </trkpt>
      <trkpt lat="43.21452" lon="2.43931">
        <ele>81.6</ele>
        <time>2015-08-02T08:42:56.622Z</time>
      </trkpt>
      <trkpt lat="43.21454" lon="2.43939">
        <ele>81.9</ele>
        <time>2015-08-02T08:42:58.650Z</time>
      </trkpt>
      <trkpt lat="43.21455" lon="2.43943">
        <ele>82.1</ele>
        <time>2015-08-02T08:42:59.606Z</time>
      </trkpt>
      <trkpt lat="43.21459" lon="2.43953">
        <ele>82.3</ele>
        <time>2015-08-02T08:43:02.676Z</time>
      </trkpt>
      <trkpt lat="43.2146" lon="2.43955">
        <ele>82.4</ele>
        <time>2015-08-02T08:43:03.623Z</time>
      </trkpt>
      <trkpt lat="43.21459" lon="2.43955">
        <ele>82.8</ele>
        <time>2015-08-02T08:43:06.671Z</time>
      </trkpt>
      <trkpt lat="43.21457" lon="2.43956">
        <ele>82.6</ele>
        <time>2015-08-02T08:43:07.608Z</time>
      </trkpt>
      <trkpt lat="43.2145" lon="2.43956">
        <ele>81.9</ele>
        <time>2015-08-02T08:44:00.046Z</time>
      </trkpt>
      <trkpt lat="43.2145" lon="2.43959">
        <ele>83.6</ele>
        <time>2015-08-02T08:44:00.613Z</time>
      </trkpt>
      <trkpt lat="43.2145" lon="2.43961">
        <ele>83.3</ele>
        <time>2015-08-02T08:44:03.660Z</time>
      </trkpt>
      <trkpt lat="43.2145" lon="2.43962">
        <ele>83.2</ele>
        <time>2015-08-02T08:44:04.610Z</time>
      </trkpt>
      <trkpt lat="43.21453" lon="2.4397">
        <ele>83.3</ele>
        <time>2015-08-02T08:44:09.690Z</time>
      </trkpt>
      <trkpt lat="43.21454" lon="2.43973">
        <ele>83.3</ele>
        <time>2015-08-02T08:44:10.642Z</time>
      </trkpt>
      <trkpt lat="43.21458" lon="2.43983">
        <ele>83.5</ele>
        <time>2015-08-02T08:44:15.657Z</time>
      </trkpt>
      <trkpt lat="43.21459" lon="2.43985">
        <ele>83.6</ele>
        <time>2015-08-02T08:44:16.613Z</time>
      </trkpt>
      <trkpt lat="43.21461" lon="2.43996">
        <ele>83.6</ele>
        <time>2015-08-02T08:44:21.235Z</time>
      </trkpt>
      <trkpt lat="43.21461" lon="2.43999">
        <ele>83.8</ele>
        <time>2015-08-02T08:44:21.606Z</time>
      </trkpt>
      <trkpt lat="43.21462" lon="2.4401">
        <ele>84.5</ele>
        <time>2015-08-02T08:44:24.656Z</time>
      </trkpt>
      <trkpt lat="43.2146" lon="2.44014">
        <ele>84.6</ele>
        <time>2015-08-02T08:44:25.608Z</time>
      </trkpt>
      <trkpt lat="43.21455" lon="2.44021">
        <ele>84.8</ele>
        <time>2015-08-02T08:44:27.676Z</time>
      </trkpt>
      <trkpt lat="43.21453" lon="2.44025">
        <ele>84.8</ele>
        <time>2015-08-02T08:44:28.619Z</time>
      </trkpt>
      <trkpt lat="43.21446" lon="2.44032">
        <ele>84.7</ele>
        <time>2015-08-02T08:44:31.082Z</time>
      </trkpt>
      <trkpt lat="43.21443" lon="2.44035">
        <ele>84.6</ele>
        <time>2015-08-02T08:44:31.609Z</time>
      </trkpt>
      <trkpt lat="43.21435" lon="2.4404">
        <ele>84.5</ele>
        <time>2015-08-02T08:44:33.660Z</time>
      </trkpt>
      <trkpt lat="43.21432" lon="2.44042">
        <ele>84.5</ele>
        <time>2015-08-02T08:44:34.611Z</time>
      </trkpt>
      <trkpt lat="43.21424" lon="2.44046">
        <ele>84.6</ele>
        <time>2015-08-02T08:44:36.684Z</time>
      </trkpt>
      <trkpt lat="43.21421" lon="2.44049">
        <ele>84.6</ele>
        <time>2015-08-02T08:44:37.619Z</time>
      </trkpt>
      <trkpt lat="43.21414" lon="2.44053">
        <ele>84.5</ele>
        <time>2015-08-02T08:44:39.658Z</time>
      </trkpt>
      <trkpt lat="43.21411" lon="2.44055">
        <ele>84.5</ele>
        <time>2015-08-02T08:44:40.610Z</time>
      </trkpt>
      <trkpt lat="43.21404" lon="2.4406">
        <ele>84.6</ele>
        <time>2015-08-02T08:44:42.654Z</time>
      </trkpt>
      <trkpt lat="43.214" lon="2.44062">
        <ele>84.6</ele>
        <time>2015-08-02T08:44:43.613Z</time>
      </trkpt>
      <trkpt lat="43.21393" lon="2.44067">
        <ele>84.9</ele>
        <time>2015-08-02T08:44:45.657Z</time>
      </trkpt>
      <trkpt lat="43.21389" lon="2.44069">
        <ele>85</ele>
        <time>2015-08-02T08:44:46.609Z</time>
      </trkpt>
      <trkpt lat="43.21382" lon="2.44074">
        <ele>85.2</ele>
        <time>2015-08-02T08:44:48.660Z</time>
      </trkpt>
      <trkpt lat="43.21379" lon="2.44077">
        <ele>85.1</ele>
        <time>2015-08-02T08:44:49.610Z</time>
      </trkpt>
      <trkpt lat="43.21372" lon="2.44082">
        <ele>85</ele>
        <time>2015-08-02T08:44:51.709Z</time>
      </trkpt>
      <trkpt lat="43.21369" lon="2.44083">
        <ele>84.9</ele>
        <time>2015-08-02T08:44:52.622Z</time>
      </trkpt>
      <trkpt lat="43.21363" lon="2.44089">
        <ele>84.5</ele>
        <time>2015-08-02T08:44:54.661Z</time>
      </trkpt>
      <trkpt lat="43.21359" lon="2.44091">
        <ele>84.4</ele>
        <time>2015-08-02T08:44:55.608Z</time>
      </trkpt>
      <trkpt lat="43.21353" lon="2.44095">
        <ele>84.1</ele>
        <time>2015-08-02T08:44:57.666Z</time>
      </trkpt>
      <trkpt lat="43.2135" lon="2.44099">
        <ele>84.2</ele>
        <time>2015-08-02T08:44:58.608Z</time>
      </trkpt>
      <trkpt lat="43.21343" lon="2.44103">
        <ele>84.1</ele>
        <time>2015-08-02T08:45:00.677Z</time>
      </trkpt>
      <trkpt lat="43.2134" lon="2.44108">
        <ele>84.1</ele>
        <time>2015-08-02T08:45:01.618Z</time>
      </trkpt>
      <trkpt lat="43.21334" lon="2.44113">
        <ele>83.9</ele>
        <time>2015-08-02T08:45:03.661Z</time>
      </trkpt>
      <trkpt lat="43.21331" lon="2.44115">
        <ele>83.9</ele>
        <time>2015-08-02T08:45:04.713Z</time>
      </trkpt>
      <trkpt lat="43.21325" lon="2.44119">
        <ele>83.8</ele>
        <time>2015-08-02T08:45:06.653Z</time>
      </trkpt>
      <trkpt lat="43.21321" lon="2.44122">
        <ele>83.8</ele>
        <time>2015-08-02T08:45:07.607Z</time>
      </trkpt>
      <trkpt lat="43.21315" lon="2.44127">
        <ele>84.2</ele>
        <time>2015-08-02T08:45:09.650Z</time>
      </trkpt>
      <trkpt lat="43.21312" lon="2.44128">
        <ele>84.3</ele>
        <time>2015-08-02T08:45:10.605Z</time>
      </trkpt>
      <trkpt lat="43.21304" lon="2.44134">
        <ele>84.7</ele>
        <time>2015-08-02T08:45:12.658Z</time>
      </trkpt>
      <trkpt lat="43.21301" lon="2.44136">
        <ele>84.8</ele>
        <time>2015-08-02T08:45:13.611Z</time>
      </trkpt>
      <trkpt lat="43.21295" lon="2.44142">
        <ele>85.8</ele>
        <time>2015-08-02T08:45:15.659Z</time>
      </trkpt>
      <trkpt lat="43.21292" lon="2.44145">
        <ele>86.2</ele>
        <time>2015-08-02T08:45:16.610Z</time>
      </trkpt>
      <trkpt lat="43.21285" lon="2.44149">
        <ele>86.6</ele>
        <time>2015-08-02T08:45:18.651Z</time>
      </trkpt>
      <trkpt lat="43.21282" lon="2.44152">
        <ele>86.6</ele>
        <time>2015-08-02T08:45:19.607Z</time>
      </trkpt>
      <trkpt lat="43.21275" lon="2.44157">
        <ele>86.9</ele>
        <time>2015-08-02T08:45:21.651Z</time>
      </trkpt>
      <trkpt lat="43.21271" lon="2.44159">
        <ele>87.1</ele>
        <time>2015-08-02T08:45:22.608Z</time>
      </trkpt>
      <trkpt lat="43.21264" lon="2.44161">
        <ele>86.5</ele>
        <time>2015-08-02T08:45:24.654Z</time>
      </trkpt>
      <trkpt lat="43.2126" lon="2.44162">
        <ele>85.8</ele>
        <time>2015-08-02T08:45:25.608Z</time>
      </trkpt>
      <trkpt lat="43.21254" lon="2.44163">
        <ele>84.9</ele>
        <time>2015-08-02T08:45:27.666Z</time>
      </trkpt>
      <trkpt lat="43.2125" lon="2.44165">
        <ele>85</ele>
        <time>2015-08-02T08:45:28.607Z</time>
      </trkpt>
      <trkpt lat="43.21244" lon="2.44167">
        <ele>84.5</ele>
        <time>2015-08-02T08:45:30.649Z</time>
      </trkpt>
      <trkpt lat="43.21241" lon="2.44168">
        <ele>84.3</ele>
        <time>2015-08-02T08:45:31.608Z</time>
      </trkpt>
      <trkpt lat="43.21234" lon="2.4417">
        <ele>84.2</ele>
        <time>2015-08-02T08:45:33.658Z</time>
      </trkpt>
      <trkpt lat="43.21231" lon="2.44171">
        <ele>84.2</ele>
        <time>2015-08-02T08:45:34.607Z</time>
      </trkpt>
      <trkpt lat="43.21224" lon="2.44174">
        <ele>83.8</ele>
        <time>2015-08-02T08:45:36.660Z</time>
      </trkpt>
      <trkpt lat="43.21221" lon="2.44175">
        <ele>83.7</ele>
        <time>2015-08-02T08:45:37.637Z</time>
      </trkpt>
      <trkpt lat="43.21213" lon="2.44179">
        <ele>83.4</ele>
        <time>2015-08-02T08:45:39.658Z</time>
      </trkpt>
      <trkpt lat="43.21209" lon="2.44181">
        <ele>83.4</ele>
        <time>2015-08-02T08:45:40.614Z</time>
      </trkpt>
      <trkpt lat="43.21202" lon="2.44184">
        <ele>83.5</ele>
        <time>2015-08-02T08:45:42.661Z</time>
      </trkpt>
      <trkpt lat="43.21199" lon="2.44186">
        <ele>83.5</ele>
        <time>2015-08-02T08:45:43.618Z</time>
      </trkpt>
      <trkpt lat="43.21192" lon="2.4419">
        <ele>83.5</ele>
        <time>2015-08-02T08:45:46.184Z</time>
      </trkpt>
      <trkpt lat="43.21189" lon="2.44192">
        <ele>83.5</ele>
        <time>2015-08-02T08:45:46.611Z</time>
      </trkpt>
      <trkpt lat="43.21182" lon="2.44196">
        <ele>83.5</ele>
        <time>2015-08-02T08:45:48.663Z</time>
      </trkpt>
      <trkpt lat="43.21178" lon="2.44198">
        <ele>83.5</ele>
        <time>2015-08-02T08:45:49.611Z</time>
      </trkpt>
      <trkpt lat="43.21172" lon="2.44202">
        <ele>83.7</ele>
        <time>2015-08-02T08:45:51.975Z</time>
      </trkpt>
      <trkpt lat="43.21169" lon="2.44203">
        <ele>83.8</ele>
        <time>2015-08-02T08:45:52.607Z</time>
      </trkpt>
      <trkpt lat="43.21161" lon="2.44208">
        <ele>83.9</ele>
        <time>2015-08-02T08:45:55.648Z</time>
      </trkpt>
      <trkpt lat="43.21158" lon="2.4421">
        <ele>83.9</ele>
        <time>2015-08-02T08:45:56.609Z</time>
      </trkpt>
      <trkpt lat="43.21153" lon="2.44215">
        <ele>83.8</ele>
        <time>2015-08-02T08:45:58.661Z</time>
      </trkpt>
      <trkpt lat="43.21151" lon="2.44217">
        <ele>83.8</ele>
        <time>2015-08-02T08:45:59.609Z</time>
      </trkpt>
      <trkpt lat="43.21145" lon="2.44222">
        <ele>83.9</ele>
        <time>2015-08-02T08:46:01.669Z</time>
      </trkpt>
      <trkpt lat="43.21143" lon="2.44225">
        <ele>84</ele>
        <time>2015-08-02T08:46:02.609Z</time>
      </trkpt>
      <trkpt lat="43.21136" lon="2.44231">
        <ele>84.6</ele>
        <time>2015-08-02T08:46:05.657Z</time>
      </trkpt>
      <trkpt lat="43.21134" lon="2.44233">
        <ele>84.9</ele>
        <time>2015-08-02T08:46:06.605Z</time>
      </trkpt>
      <trkpt lat="43.21127" lon="2.44237">
        <ele>85.9</ele>
        <time>2015-08-02T08:46:11.682Z</time>
      </trkpt>
      <trkpt lat="43.21125" lon="2.44238">
        <ele>85.9</ele>
        <time>2015-08-02T08:46:12.623Z</time>
      </trkpt>
      <trkpt lat="43.21119" lon="2.44244">
        <ele>86.1</ele>
        <time>2015-08-02T08:46:15.667Z</time>
      </trkpt>
      <trkpt lat="43.21117" lon="2.44245">
        <ele>86.3</ele>
        <time>2015-08-02T08:46:16.607Z</time>
      </trkpt>
      <trkpt lat="43.21111" lon="2.44252">
        <ele>86.9</ele>
        <time>2015-08-02T08:46:20.676Z</time>
      </trkpt>
      <trkpt lat="43.21109" lon="2.44255">
        <ele>86.9</ele>
        <time>2015-08-02T08:46:21.610Z</time>
      </trkpt>
      <trkpt lat="43.21103" lon="2.44262">
        <ele>87</ele>
        <time>2015-08-02T08:46:23.995Z</time>
      </trkpt>
      <trkpt lat="43.211" lon="2.44266">
        <ele>87.1</ele>
        <time>2015-08-02T08:46:24.611Z</time>
      </trkpt>
      <trkpt lat="43.21095" lon="2.44273">
        <ele>87.5</ele>
        <time>2015-08-02T08:46:26.684Z</time>
      </trkpt>
      <trkpt lat="43.21092" lon="2.44277">
        <ele>87.6</ele>
        <time>2015-08-02T08:46:27.618Z</time>
      </trkpt>
      <trkpt lat="43.21087" lon="2.44284">
        <ele>87.8</ele>
        <time>2015-08-02T08:46:29.646Z</time>
      </trkpt>
      <trkpt lat="43.21084" lon="2.44287">
        <ele>87.9</ele>
        <time>2015-08-02T08:46:30.607Z</time>
      </trkpt>
      <trkpt lat="43.21079" lon="2.44294">
        <ele>87.7</ele>
        <time>2015-08-02T08:46:32.653Z</time>
      </trkpt>
      <trkpt lat="43.21075" lon="2.44297">
        <ele>87.7</ele>
        <time>2015-08-02T08:46:33.606Z</time>
      </trkpt>
      <trkpt lat="43.21068" lon="2.443">
        <ele>87.8</ele>
        <time>2015-08-02T08:46:35.677Z</time>
      </trkpt>
      <trkpt lat="43.21065" lon="2.44301">
        <ele>88</ele>
        <time>2015-08-02T08:46:36.622Z</time>
      </trkpt>
      <trkpt lat="43.21059" lon="2.44304">
        <ele>88</ele>
        <time>2015-08-02T08:46:38.652Z</time>
      </trkpt>
      <trkpt lat="43.21056" lon="2.44306">
        <ele>88</ele>
        <time>2015-08-02T08:46:39.608Z</time>
      </trkpt>
      <trkpt lat="43.21048" lon="2.44307">
        <ele>88.5</ele>
        <time>2015-08-02T08:46:42.738Z</time>
      </trkpt>
      <trkpt lat="43.21046" lon="2.44307">
        <ele>88.8</ele>
        <time>2015-08-02T08:46:43.608Z</time>
      </trkpt>
      <trkpt lat="43.21039" lon="2.44312">
        <ele>92.5</ele>
        <time>2015-08-02T08:47:09.050Z</time>
      </trkpt>
      <trkpt lat="43.21037" lon="2.44312">
        <ele>92.7</ele>
        <time>2015-08-02T08:47:09.608Z</time>
      </trkpt>
      <trkpt lat="43.21031" lon="2.44312">
        <ele>93</ele>
        <time>2015-08-02T08:47:12.649Z</time>
      </trkpt>
      <trkpt lat="43.21027" lon="2.44313">
        <ele>93.2</ele>
        <time>2015-08-02T08:47:13.608Z</time>
      </trkpt>
      <trkpt lat="43.21018" lon="2.44312">
        <ele>93.1</ele>
        <time>2015-08-02T08:47:15.672Z</time>
      </trkpt>
      <trkpt lat="43.21013" lon="2.44312">
        <ele>92.8</ele>
        <time>2015-08-02T08:47:16.619Z</time>
      </trkpt>
      <trkpt lat="43.21006" lon="2.44311">
        <ele>92.1</ele>
        <time>2015-08-02T08:47:18.994Z</time>
      </trkpt>
      <trkpt lat="43.21003" lon="2.4431">
        <ele>91.5</ele>
        <time>2015-08-02T08:47:19.608Z</time>
      </trkpt>
      <trkpt lat="43.20995" lon="2.44313">
        <ele>91</ele>
        <time>2015-08-02T08:47:22.654Z</time>
      </trkpt>
      <trkpt lat="43.20993" lon="2.44316">
        <ele>90.9</ele>
        <time>2015-08-02T08:47:23.606Z</time>
      </trkpt>
      <trkpt lat="43.2099" lon="2.44327">
        <ele>90.8</ele>
        <time>2015-08-02T08:47:26.679Z</time>
      </trkpt>
      <trkpt lat="43.20989" lon="2.44329">
        <ele>90.7</ele>
        <time>2015-08-02T08:47:27.617Z</time>
      </trkpt>
      <trkpt lat="43.20986" lon="2.44339">
        <ele>90.2</ele>
        <time>2015-08-02T08:47:30.652Z</time>
      </trkpt>
      <trkpt lat="43.20985" lon="2.44341">
        <ele>90</ele>
        <time>2015-08-02T08:47:31.609Z</time>
      </trkpt>
      <trkpt lat="43.20983" lon="2.44353">
        <ele>88.9</ele>
        <time>2015-08-02T08:47:35.675Z</time>
      </trkpt>
      <trkpt lat="43.20983" lon="2.44356">
        <ele>88.7</ele>
        <time>2015-08-02T08:47:36.618Z</time>
      </trkpt>
      <trkpt lat="43.2098" lon="2.44368">
        <ele>87.4</ele>
        <time>2015-08-02T08:47:42.657Z</time>
      </trkpt>
      <trkpt lat="43.20979" lon="2.4437">
        <ele>87.2</ele>
        <time>2015-08-02T08:47:43.619Z</time>
      </trkpt>
      <trkpt lat="43.20976" lon="2.44381">
        <ele>86.4</ele>
        <time>2015-08-02T08:47:47.657Z</time>
      </trkpt>
      <trkpt lat="43.20976" lon="2.44384">
        <ele>86.3</ele>
        <time>2015-08-02T08:47:48.609Z</time>
      </trkpt>
      <trkpt lat="43.20975" lon="2.44396">
        <ele>85.8</ele>
        <time>2015-08-02T08:47:52.679Z</time>
      </trkpt>
      <trkpt lat="43.20977" lon="2.44399">
        <ele>85.8</ele>
        <time>2015-08-02T08:47:53.618Z</time>
      </trkpt>
      <trkpt lat="43.2098" lon="2.44389">
        <ele>82.4</ele>
        <time>2015-08-02T08:52:00.230Z</time>
      </trkpt>
      <trkpt lat="43.20986" lon="2.44389">
        <ele>85.4</ele>
        <time>2015-08-02T08:52:01.187Z</time>
      </trkpt>
      <trkpt lat="43.20986" lon="2.44387">
        <ele>85.5</ele>
        <time>2015-08-02T08:54:32.241Z</time>
      </trkpt>
      <trkpt lat="43.20977" lon="2.44384">
        <ele>76.2</ele>
        <time>2015-08-02T08:54:33.193Z</time>
      </trkpt>
      <trkpt lat="43.20977" lon="2.44384">
        <ele>76.2</ele>
        <time>2015-08-02T08:54:33.357Z</time>
      </trkpt>
      <trkpt lat="43.20977" lon="2.44384">
        <ele>75.9</ele>
        <time>2015-08-02T09:12:29.223Z</time>
      </trkpt>
      <trkpt lat="43.20978" lon="2.44393">
        <ele>80.6</ele>
        <time>2015-08-02T09:12:30.185Z</time>
      </trkpt>
      <trkpt lat="43.20978" lon="2.44404">
        <ele>85.5</ele>
        <time>2015-08-02T09:13:37.267Z</time>
      </trkpt>
      <trkpt lat="43.20978" lon="2.44406">
        <ele>85.5</ele>
        <time>2015-08-02T09:13:38.191Z</time>
      </trkpt>
      <trkpt lat="43.20978" lon="2.44417">
        <ele>85.5</ele>
        <time>2015-08-02T09:13:42.222Z</time>
      </trkpt>
      <trkpt lat="43.20978" lon="2.4442">
        <ele>85.6</ele>
        <time>2015-08-02T09:13:43.186Z</time>
      </trkpt>
      <trkpt lat="43.20977" lon="2.44429">
        <ele>84.7</ele>
        <time>2015-08-02T09:13:46.226Z</time>
      </trkpt>
      <trkpt lat="43.20977" lon="2.44433">
        <ele>84.3</ele>
        <time>2015-08-02T09:13:47.193Z</time>
      </trkpt>
      <trkpt lat="43.20976" lon="2.44444">
        <ele>83.6</ele>
        <time>2015-08-02T09:13:50.225Z</time>
      </trkpt>
      <trkpt lat="43.20976" lon="2.44448">
        <ele>83.3</ele>
        <time>2015-08-02T09:13:51.185Z</time>
      </trkpt>
      <trkpt lat="43.20975" lon="2.44457">
        <ele>83</ele>
        <time>2015-08-02T09:13:53.217Z</time>
      </trkpt>
      <trkpt lat="43.20974" lon="2.44461">
        <ele>82.9</ele>
        <time>2015-08-02T09:13:54.177Z</time>
      </trkpt>
      <trkpt lat="43.20973" lon="2.44472">
        <ele>82.7</ele>
        <time>2015-08-02T09:13:57.220Z</time>
      </trkpt>
      <trkpt lat="43.20972" lon="2.44475">
        <ele>82.7</ele>
        <time>2015-08-02T09:13:58.177Z</time>
      </trkpt>
      <trkpt lat="43.20971" lon="2.44484">
        <ele>82.8</ele>
        <time>2015-08-02T09:14:00.223Z</time>
      </trkpt>
      <trkpt lat="43.2097" lon="2.44488">
        <ele>82.8</ele>
        <time>2015-08-02T09:14:01.182Z</time>
      </trkpt>
      <trkpt lat="43.20969" lon="2.44497">
        <ele>83.1</ele>
        <time>2015-08-02T09:14:03.227Z</time>
      </trkpt>
      <trkpt lat="43.20969" lon="2.44501">
        <ele>83.2</ele>
        <time>2015-08-02T09:14:04.181Z</time>
      </trkpt>
      <trkpt lat="43.20967" lon="2.44512">
        <ele>83.4</ele>
        <time>2015-08-02T09:14:07.590Z</time>
      </trkpt>
      <trkpt lat="43.20965" lon="2.44516">
        <ele>83.5</ele>
        <time>2015-08-02T09:14:08.181Z</time>
      </trkpt>
      <trkpt lat="43.20962" lon="2.44527">
        <ele>83.7</ele>
        <time>2015-08-02T09:14:11.216Z</time>
      </trkpt>
      <trkpt lat="43.20961" lon="2.4453">
        <ele>84</ele>
        <time>2015-08-02T09:14:12.179Z</time>
      </trkpt>
      <trkpt lat="43.20959" lon="2.44541">
        <ele>85.6</ele>
        <time>2015-08-02T09:14:19.228Z</time>
      </trkpt>
      <trkpt lat="43.20958" lon="2.44543">
        <ele>85.5</ele>
        <time>2015-08-02T09:14:20.180Z</time>
      </trkpt>
      <trkpt lat="43.20954" lon="2.44552">
        <ele>85.9</ele>
        <time>2015-08-02T09:14:24.249Z</time>
      </trkpt>
      <trkpt lat="43.20952" lon="2.44556">
        <ele>86</ele>
        <time>2015-08-02T09:14:25.193Z</time>
      </trkpt>
      <trkpt lat="43.20948" lon="2.44563">
        <ele>86.1</ele>
        <time>2015-08-02T09:14:27.225Z</time>
      </trkpt>
      <trkpt lat="43.20947" lon="2.44567">
        <ele>86.2</ele>
        <time>2015-08-02T09:14:28.183Z</time>
      </trkpt>
      <trkpt lat="43.20943" lon="2.44575">
        <ele>86.2</ele>
        <time>2015-08-02T09:14:30.220Z</time>
      </trkpt>
      <trkpt lat="43.20942" lon="2.44579">
        <ele>86.2</ele>
        <time>2015-08-02T09:14:31.183Z</time>
      </trkpt>
      <trkpt lat="43.20938" lon="2.44586">
        <ele>86.5</ele>
        <time>2015-08-02T09:14:33.250Z</time>
      </trkpt>
      <trkpt lat="43.20937" lon="2.4459">
        <ele>86.6</ele>
        <time>2015-08-02T09:14:34.191Z</time>
      </trkpt>
      <trkpt lat="43.20933" lon="2.44597">
        <ele>87</ele>
        <time>2015-08-02T09:14:36.221Z</time>
      </trkpt>
      <trkpt lat="43.20931" lon="2.44602">
        <ele>87.2</ele>
        <time>2015-08-02T09:14:37.183Z</time>
      </trkpt>
      <trkpt lat="43.20928" lon="2.4461">
        <ele>87.3</ele>
        <time>2015-08-02T09:14:39.227Z</time>
      </trkpt>
      <trkpt lat="43.20926" lon="2.44614">
        <ele>87.4</ele>
        <time>2015-08-02T09:14:40.182Z</time>
      </trkpt>
      <trkpt lat="43.20922" lon="2.44622">
        <ele>88</ele>
        <time>2015-08-02T09:14:42.248Z</time>
      </trkpt>
      <trkpt lat="43.20921" lon="2.44627">
        <ele>88</ele>
        <time>2015-08-02T09:14:43.196Z</time>
      </trkpt>
      <trkpt lat="43.20918" lon="2.44636">
        <ele>88.1</ele>
        <time>2015-08-02T09:14:45.646Z</time>
      </trkpt>
      <trkpt lat="43.20916" lon="2.4464">
        <ele>88.1</ele>
        <time>2015-08-02T09:14:46.182Z</time>
      </trkpt>
      <trkpt lat="43.20911" lon="2.44648">
        <ele>88.4</ele>
        <time>2015-08-02T09:14:48.234Z</time>
      </trkpt>
      <trkpt lat="43.20909" lon="2.44651">
        <ele>88.5</ele>
        <time>2015-08-02T09:14:49.183Z</time>
      </trkpt>
      <trkpt lat="43.20904" lon="2.44659">
        <ele>88.4</ele>
        <time>2015-08-02T09:14:51.224Z</time>
      </trkpt>
      <trkpt lat="43.20903" lon="2.44662">
        <ele>88.4</ele>
        <time>2015-08-02T09:14:52.180Z</time>
      </trkpt>
      <trkpt lat="43.20898" lon="2.44669">
        <ele>88.4</ele>
        <time>2015-08-02T09:14:54.223Z</time>
      </trkpt>
      <trkpt lat="43.20895" lon="2.44673">
        <ele>88.4</ele>
        <time>2015-08-02T09:14:55.183Z</time>
      </trkpt>
      <trkpt lat="43.20891" lon="2.44681">
        <ele>88.4</ele>
        <time>2015-08-02T09:14:57.225Z</time>
      </trkpt>
      <trkpt lat="43.20888" lon="2.44684">
        <ele>88.4</ele>
        <time>2015-08-02T09:14:58.180Z</time>
      </trkpt>
      <trkpt lat="43.20883" lon="2.44693">
        <ele>88.8</ele>
        <time>2015-08-02T09:15:00.225Z</time>
      </trkpt>
      <trkpt lat="43.20881" lon="2.44697">
        <ele>88.7</ele>
        <time>2015-08-02T09:15:01.185Z</time>
      </trkpt>
      <trkpt lat="43.20876" lon="2.44704">
        <ele>88.7</ele>
        <time>2015-08-02T09:15:03.225Z</time>
      </trkpt>
      <trkpt lat="43.20874" lon="2.44708">
        <ele>88.7</ele>
        <time>2015-08-02T09:15:04.181Z</time>
      </trkpt>
      <trkpt lat="43.2087" lon="2.44716">
        <ele>88.7</ele>
        <time>2015-08-02T09:15:06.217Z</time>
      </trkpt>
      <trkpt lat="43.20867" lon="2.4472">
        <ele>88.9</ele>
        <time>2015-08-02T09:15:07.181Z</time>
      </trkpt>
      <trkpt lat="43.20862" lon="2.44728">
        <ele>88.9</ele>
        <time>2015-08-02T09:15:09.214Z</time>
      </trkpt>
      <trkpt lat="43.20859" lon="2.44732">
        <ele>88.7</ele>
        <time>2015-08-02T09:15:10.182Z</time>
      </trkpt>
      <trkpt lat="43.20855" lon="2.44739">
        <ele>88.2</ele>
        <time>2015-08-02T09:15:12.224Z</time>
      </trkpt>
      <trkpt lat="43.20852" lon="2.44743">
        <ele>87.9</ele>
        <time>2015-08-02T09:15:13.185Z</time>
      </trkpt>
      <trkpt lat="43.20847" lon="2.4475">
        <ele>87.7</ele>
        <time>2015-08-02T09:15:15.225Z</time>
      </trkpt>
      <trkpt lat="43.20844" lon="2.44753">
        <ele>87.7</ele>
        <time>2015-08-02T09:15:16.183Z</time>
      </trkpt>
      <trkpt lat="43.20839" lon="2.44761">
        <ele>87.6</ele>
        <time>2015-08-02T09:15:18.233Z</time>
      </trkpt>
      <trkpt lat="43.20836" lon="2.44765">
        <ele>87.5</ele>
        <time>2015-08-02T09:15:19.187Z</time>
      </trkpt>
      <trkpt lat="43.20831" lon="2.44774">
        <ele>87.6</ele>
        <time>2015-08-02T09:15:21.226Z</time>
      </trkpt>
      <trkpt lat="43.20828" lon="2.44778">
        <ele>87.6</ele>
        <time>2015-08-02T09:15:22.180Z</time>
      </trkpt>
      <trkpt lat="43.20823" lon="2.44785">
        <ele>87.5</ele>
        <time>2015-08-02T09:15:24.220Z</time>
      </trkpt>
      <trkpt lat="43.20821" lon="2.44789">
        <ele>87.6</ele>
        <time>2015-08-02T09:15:25.289Z</time>
      </trkpt>
      <trkpt lat="43.20816" lon="2.44797">
        <ele>87.7</ele>
        <time>2015-08-02T09:15:27.224Z</time>
      </trkpt>
      <trkpt lat="43.20814" lon="2.44801">
        <ele>87.6</ele>
        <time>2015-08-02T09:15:28.178Z</time>
      </trkpt>
      <trkpt lat="43.2081" lon="2.44809">
        <ele>87.9</ele>
        <time>2015-08-02T09:15:30.211Z</time>
      </trkpt>
      <trkpt lat="43.20808" lon="2.44813">
        <ele>87.9</ele>
        <time>2015-08-02T09:15:31.184Z</time>
      </trkpt>
      <trkpt lat="43.20803" lon="2.4482">
        <ele>87.9</ele>
        <time>2015-08-02T09:15:33.241Z</time>
      </trkpt>
      <trkpt lat="43.20801" lon="2.44823">
        <ele>87.8</ele>
        <time>2015-08-02T09:15:34.177Z</time>
      </trkpt>
      <trkpt lat="43.20796" lon="2.4483">
        <ele>87.5</ele>
        <time>2015-08-02T09:15:36.235Z</time>
      </trkpt>
      <trkpt lat="43.20795" lon="2.44834">
        <ele>87.3</ele>
        <time>2015-08-02T09:15:37.192Z</time>
      </trkpt>
      <trkpt lat="43.20792" lon="2.44842">
        <ele>87</ele>
        <time>2015-08-02T09:15:39.230Z</time>
      </trkpt>
      <trkpt lat="43.2079" lon="2.44846">
        <ele>86.9</ele>
        <time>2015-08-02T09:15:40.182Z</time>
      </trkpt>
      <trkpt lat="43.20785" lon="2.44853">
        <ele>87</ele>
        <time>2015-08-02T09:15:42.247Z</time>
      </trkpt>
      <trkpt lat="43.20782" lon="2.44856">
        <ele>87</ele>
        <time>2015-08-02T09:15:43.196Z</time>
      </trkpt>
      <trkpt lat="43.20776" lon="2.44861">
        <ele>87.1</ele>
        <time>2015-08-02T09:15:45.232Z</time>
      </trkpt>
      <trkpt lat="43.20772" lon="2.44863">
        <ele>87.2</ele>
        <time>2015-08-02T09:15:46.183Z</time>
      </trkpt>
      <trkpt lat="43.20766" lon="2.44867">
        <ele>87.3</ele>
        <time>2015-08-02T09:15:48.223Z</time>
      </trkpt>
      <trkpt lat="43.20763" lon="2.44869">
        <ele>87.2</ele>
        <time>2015-08-02T09:15:49.184Z</time>
      </trkpt>
      <trkpt lat="43.20757" lon="2.44872">
        <ele>87.5</ele>
        <time>2015-08-02T09:15:51.255Z</time>
      </trkpt>
      <trkpt lat="43.20754" lon="2.44873">
        <ele>87.6</ele>
        <time>2015-08-02T09:15:52.183Z</time>
      </trkpt>
      <trkpt lat="43.20747" lon="2.44876">
        <ele>87.7</ele>
        <time>2015-08-02T09:15:54.223Z</time>
      </trkpt>
      <trkpt lat="43.20744" lon="2.44877">
        <ele>87.8</ele>
        <time>2015-08-02T09:15:55.188Z</time>
      </trkpt>
      <trkpt lat="43.20738" lon="2.44883">
        <ele>87.5</ele>
        <time>2015-08-02T09:15:57.226Z</time>
      </trkpt>
      <trkpt lat="43.20734" lon="2.44885">
        <ele>87.5</ele>
        <time>2015-08-02T09:15:58.192Z</time>
      </trkpt>
      <trkpt lat="43.20728" lon="2.44889">
        <ele>87.7</ele>
        <time>2015-08-02T09:16:00.223Z</time>
      </trkpt>
      <trkpt lat="43.20725" lon="2.44891">
        <ele>87.6</ele>
        <time>2015-08-02T09:16:01.187Z</time>
      </trkpt>
      <trkpt lat="43.2072" lon="2.44895">
        <ele>87.6</ele>
        <time>2015-08-02T09:16:03.384Z</time>
      </trkpt>
      <trkpt lat="43.20717" lon="2.44898">
        <ele>87.4</ele>
        <time>2015-08-02T09:16:04.181Z</time>
      </trkpt>
      <trkpt lat="43.20711" lon="2.44902">
        <ele>87</ele>
        <time>2015-08-02T09:16:06.247Z</time>
      </trkpt>
      <trkpt lat="43.20708" lon="2.44905">
        <ele>86.9</ele>
        <time>2015-08-02T09:16:07.261Z</time>
      </trkpt>
      <trkpt lat="43.20703" lon="2.44909">
        <ele>86.5</ele>
        <time>2015-08-02T09:16:09.228Z</time>
      </trkpt>
      <trkpt lat="43.207" lon="2.44911">
        <ele>86.5</ele>
        <time>2015-08-02T09:16:10.179Z</time>
      </trkpt>
      <trkpt lat="43.20694" lon="2.44918">
        <ele>86.5</ele>
        <time>2015-08-02T09:16:14.224Z</time>
      </trkpt>
      <trkpt lat="43.20693" lon="2.44919">
        <ele>86.5</ele>
        <time>2015-08-02T09:16:15.183Z</time>
      </trkpt>
      <trkpt lat="43.20693" lon="2.44919">
        <ele>86.5</ele>
        <time>2015-08-02T09:16:15.234Z</time>
      </trkpt>
      <trkpt lat="43.20688" lon="2.4492">
        <ele>87.2</ele>
        <time>2015-08-02T09:16:42.247Z</time>
      </trkpt>
      <trkpt lat="43.2069" lon="2.44918">
        <ele>85.9</ele>
        <time>2015-08-02T09:16:43.198Z</time>
      </trkpt>
      <trkpt lat="43.20682" lon="2.44914">
        <ele>85.9</ele>
        <time>2015-08-02T09:16:49.239Z</time>
      </trkpt>
      <trkpt lat="43.2068" lon="2.44915">
        <ele>86.1</ele>
        <time>2015-08-02T09:16:50.183Z</time>
      </trkpt>
      <trkpt lat="43.20672" lon="2.44919">
        <ele>86.3</ele>
        <time>2015-08-02T09:16:54.603Z</time>
      </trkpt>
      <trkpt lat="43.2067" lon="2.4492">
        <ele>86.5</ele>
        <time>2015-08-02T09:16:55.182Z</time>
      </trkpt>
      <trkpt lat="43.20663" lon="2.44925">
        <ele>86.2</ele>
        <time>2015-08-02T09:17:00.221Z</time>
      </trkpt>
      <trkpt lat="43.20661" lon="2.44926">
        <ele>86.3</ele>
        <time>2015-08-02T09:17:01.182Z</time>
      </trkpt>
      <trkpt lat="43.20654" lon="2.44928">
        <ele>85.9</ele>
        <time>2015-08-02T09:17:05.230Z</time>
      </trkpt>
      <trkpt lat="43.20652" lon="2.44929">
        <ele>86.1</ele>
        <time>2015-08-02T09:17:06.180Z</time>
      </trkpt>
      <trkpt lat="43.20645" lon="2.44933">
        <ele>86.1</ele>
        <time>2015-08-02T09:17:09.234Z</time>
      </trkpt>
      <trkpt lat="43.20643" lon="2.44934">
        <ele>86</ele>
        <time>2015-08-02T09:17:10.183Z</time>
      </trkpt>
      <trkpt lat="43.20635" lon="2.44937">
        <ele>85.5</ele>
        <time>2015-08-02T09:17:14.227Z</time>
      </trkpt>
      <trkpt lat="43.20633" lon="2.44937">
        <ele>85.4</ele>
        <time>2015-08-02T09:17:15.181Z</time>
      </trkpt>
      <trkpt lat="43.20626" lon="2.44942">
        <ele>84.7</ele>
        <time>2015-08-02T09:17:19.600Z</time>
      </trkpt>
      <trkpt lat="43.20624" lon="2.44943">
        <ele>84.6</ele>
        <time>2015-08-02T09:17:20.181Z</time>
      </trkpt>
      <trkpt lat="43.20617" lon="2.44945">
        <ele>84.1</ele>
        <time>2015-08-02T09:17:23.225Z</time>
      </trkpt>
      <trkpt lat="43.20615" lon="2.44945">
        <ele>84</ele>
        <time>2015-08-02T09:17:24.183Z</time>
      </trkpt>
      <trkpt lat="43.20608" lon="2.44949">
        <ele>83.6</ele>
        <time>2015-08-02T09:17:26.248Z</time>
      </trkpt>
      <trkpt lat="43.20604" lon="2.44951">
        <ele>83.4</ele>
        <time>2015-08-02T09:17:27.191Z</time>
      </trkpt>
      <trkpt lat="43.20596" lon="2.44955">
        <ele>82.8</ele>
        <time>2015-08-02T09:17:29.224Z</time>
      </trkpt>
      <trkpt lat="43.20592" lon="2.44958">
        <ele>82.8</ele>
        <time>2015-08-02T09:17:30.183Z</time>
      </trkpt>
      <trkpt lat="43.20587" lon="2.4496">
        <ele>82.8</ele>
        <time>2015-08-02T09:17:31.244Z</time>
      </trkpt>
      <trkpt lat="43.20583" lon="2.44962">
        <ele>83</ele>
        <time>2015-08-02T09:17:32.179Z</time>
      </trkpt>
      <trkpt lat="43.20578" lon="2.44964">
        <ele>83.2</ele>
        <time>2015-08-02T09:17:33.216Z</time>
      </trkpt>
      <trkpt lat="43.20574" lon="2.44966">
        <ele>83.3</ele>
        <time>2015-08-02T09:17:34.177Z</time>
      </trkpt>
      <trkpt lat="43.20567" lon="2.44972">
        <ele>83.6</ele>
        <time>2015-08-02T09:17:36.216Z</time>
      </trkpt>
      <trkpt lat="43.20564" lon="2.44974">
        <ele>83.8</ele>
        <time>2015-08-02T09:17:37.181Z</time>
      </trkpt>
      <trkpt lat="43.20558" lon="2.44978">
        <ele>83.8</ele>
        <time>2015-08-02T09:17:39.222Z</time>
      </trkpt>
      <trkpt lat="43.20556" lon="2.44981">
        <ele>83.7</ele>
        <time>2015-08-02T09:17:40.190Z</time>
      </trkpt>
      <trkpt lat="43.20551" lon="2.44986">
        <ele>83.5</ele>
        <time>2015-08-02T09:17:42.223Z</time>
      </trkpt>
      <trkpt lat="43.20548" lon="2.44989">
        <ele>83.3</ele>
        <time>2015-08-02T09:17:43.186Z</time>
      </trkpt>
      <trkpt lat="43.20543" lon="2.44995">
        <ele>83.1</ele>
        <time>2015-08-02T09:17:45.228Z</time>
      </trkpt>
      <trkpt lat="43.20541" lon="2.44997">
        <ele>82.8</ele>
        <time>2015-08-02T09:17:46.181Z</time>
      </trkpt>
      <trkpt lat="43.20536" lon="2.45005">
        <ele>82.2</ele>
        <time>2015-08-02T09:17:49.255Z</time>
      </trkpt>
      <trkpt lat="43.20534" lon="2.45007">
        <ele>82.1</ele>
        <time>2015-08-02T09:17:50.190Z</time>
      </trkpt>
      <trkpt lat="43.2053" lon="2.45016">
        <ele>81.3</ele>
        <time>2015-08-02T09:17:53.229Z</time>
      </trkpt>
      <trkpt lat="43.20529" lon="2.4502">
        <ele>80.9</ele>
        <time>2015-08-02T09:17:54.181Z</time>
      </trkpt>
      <trkpt lat="43.20526" lon="2.45028">
        <ele>80.2</ele>
        <time>2015-08-02T09:17:56.222Z</time>
      </trkpt>
      <trkpt lat="43.20524" lon="2.45032">
        <ele>79.9</ele>
        <time>2015-08-02T09:17:57.184Z</time>
      </trkpt>
      <trkpt lat="43.2052" lon="2.4504">
        <ele>79.3</ele>
        <time>2015-08-02T09:17:59.220Z</time>
      </trkpt>
      <trkpt lat="43.20518" lon="2.45044">
        <ele>79</ele>
        <time>2015-08-02T09:18:00.191Z</time>
      </trkpt>
      <trkpt lat="43.20514" lon="2.45053">
        <ele>78.1</ele>
        <time>2015-08-02T09:18:02.221Z</time>
      </trkpt>
      <trkpt lat="43.20512" lon="2.45057">
        <ele>77.9</ele>
        <time>2015-08-02T09:18:03.181Z</time>
      </trkpt>
      <trkpt lat="43.20509" lon="2.45066">
        <ele>77.1</ele>
        <time>2015-08-02T09:18:05.229Z</time>
      </trkpt>
      <trkpt lat="43.20507" lon="2.4507">
        <ele>76.7</ele>
        <time>2015-08-02T09:18:06.183Z</time>
      </trkpt>
      <trkpt lat="43.20503" lon="2.45078">
        <ele>76.1</ele>
        <time>2015-08-02T09:18:08.223Z</time>
      </trkpt>
      <trkpt lat="43.20502" lon="2.45082">
        <ele>75.8</ele>
        <time>2015-08-02T09:18:09.257Z</time>
      </trkpt>
      <trkpt lat="43.20498" lon="2.45091">
        <ele>75</ele>
        <time>2015-08-02T09:18:11.221Z</time>
      </trkpt>
      <trkpt lat="43.20496" lon="2.45094">
        <ele>74.6</ele>
        <time>2015-08-02T09:18:12.182Z</time>
      </trkpt>
      <trkpt lat="43.20491" lon="2.45104">
        <ele>73.4</ele>
        <time>2015-08-02T09:18:15.223Z</time>
      </trkpt>
      <trkpt lat="43.20489" lon="2.45108">
        <ele>72.9</ele>
        <time>2015-08-02T09:18:16.177Z</time>
      </trkpt>
      <trkpt lat="43.20485" lon="2.45116">
        <ele>72.4</ele>
        <time>2015-08-02T09:18:18.247Z</time>
      </trkpt>
      <trkpt lat="43.20484" lon="2.4512">
        <ele>72.2</ele>
        <time>2015-08-02T09:18:19.192Z</time>
      </trkpt>
      <trkpt lat="43.20481" lon="2.45128">
        <ele>71.6</ele>
        <time>2015-08-02T09:18:21.220Z</time>
      </trkpt>
      <trkpt lat="43.20479" lon="2.45131">
        <ele>71.2</ele>
        <time>2015-08-02T09:18:22.180Z</time>
      </trkpt>
      <trkpt lat="43.20475" lon="2.45142">
        <ele>70.2</ele>
        <time>2015-08-02T09:18:25.220Z</time>
      </trkpt>
      <trkpt lat="43.20474" lon="2.45146">
        <ele>69.9</ele>
        <time>2015-08-02T09:18:26.180Z</time>
      </trkpt>
      <trkpt lat="43.20471" lon="2.45157">
        <ele>69.2</ele>
        <time>2015-08-02T09:18:29.214Z</time>
      </trkpt>
      <trkpt lat="43.20469" lon="2.4516">
        <ele>69.2</ele>
        <time>2015-08-02T09:18:30.180Z</time>
      </trkpt>
      <trkpt lat="43.20467" lon="2.45168">
        <ele>69.3</ele>
        <time>2015-08-02T09:18:32.250Z</time>
      </trkpt>
      <trkpt lat="43.20466" lon="2.45172">
        <ele>69.2</ele>
        <time>2015-08-02T09:18:33.191Z</time>
      </trkpt>
      <trkpt lat="43.20464" lon="2.4518">
        <ele>68.7</ele>
        <time>2015-08-02T09:18:35.257Z</time>
      </trkpt>
      <trkpt lat="43.20463" lon="2.45184">
        <ele>68.5</ele>
        <time>2015-08-02T09:18:36.181Z</time>
      </trkpt>
      <trkpt lat="43.20462" lon="2.45193">
        <ele>67.8</ele>
        <time>2015-08-02T09:18:38.222Z</time>
      </trkpt>
      <trkpt lat="43.20461" lon="2.45199">
        <ele>67.9</ele>
        <time>2015-08-02T09:18:39.195Z</time>
      </trkpt>
      <trkpt lat="43.2046" lon="2.45208">
        <ele>67.8</ele>
        <time>2015-08-02T09:18:41.214Z</time>
      </trkpt>
      <trkpt lat="43.20459" lon="2.45213">
        <ele>67.7</ele>
        <time>2015-08-02T09:18:42.180Z</time>
      </trkpt>
      <trkpt lat="43.20458" lon="2.45223">
        <ele>67.6</ele>
        <time>2015-08-02T09:18:44.213Z</time>
      </trkpt>
      <trkpt lat="43.20457" lon="2.45228">
        <ele>67.5</ele>
        <time>2015-08-02T09:18:45.177Z</time>
      </trkpt>
      <trkpt lat="43.20455" lon="2.45239">
        <ele>67.5</ele>
        <time>2015-08-02T09:18:47.225Z</time>
      </trkpt>
      <trkpt lat="43.20454" lon="2.45244">
        <ele>67.3</ele>
        <time>2015-08-02T09:18:48.183Z</time>
      </trkpt>
      <trkpt lat="43.20452" lon="2.45254">
        <ele>67</ele>
        <time>2015-08-02T09:18:50.223Z</time>
      </trkpt>
      <trkpt lat="43.2045" lon="2.45259">
        <ele>67.7</ele>
        <time>2015-08-02T09:18:51.183Z</time>
      </trkpt>
      <trkpt lat="43.20447" lon="2.45268">
        <ele>68.6</ele>
        <time>2015-08-02T09:18:53.504Z</time>
      </trkpt>
      <trkpt lat="43.20446" lon="2.45273">
        <ele>68.3</ele>
        <time>2015-08-02T09:18:54.178Z</time>
      </trkpt>
      <trkpt lat="43.20445" lon="2.45283">
        <ele>68.5</ele>
        <time>2015-08-02T09:18:56.224Z</time>
      </trkpt>
      <trkpt lat="43.20444" lon="2.45288">
        <ele>68.4</ele>
        <time>2015-08-02T09:18:57.179Z</time>
      </trkpt>
      <trkpt lat="43.20443" lon="2.45296">
        <ele>68.4</ele>
        <time>2015-08-02T09:18:59.223Z</time>
      </trkpt>
      <trkpt lat="43.20442" lon="2.453">
        <ele>68.6</ele>
        <time>2015-08-02T09:19:00.183Z</time>
      </trkpt>
      <trkpt lat="43.20439" lon="2.45308">
        <ele>69</ele>
        <time>2015-08-02T09:19:02.247Z</time>
      </trkpt>
      <trkpt lat="43.20437" lon="2.45313">
        <ele>69</ele>
        <time>2015-08-02T09:19:03.193Z</time>
      </trkpt>
      <trkpt lat="43.20435" lon="2.45322">
        <ele>69.1</ele>
        <time>2015-08-02T09:19:05.228Z</time>
      </trkpt>
      <trkpt lat="43.20434" lon="2.45326">
        <ele>69.1</ele>
        <time>2015-08-02T09:19:06.183Z</time>
      </trkpt>
      <trkpt lat="43.20431" lon="2.45334">
        <ele>69.2</ele>
        <time>2015-08-02T09:19:08.224Z</time>
      </trkpt>
      <trkpt lat="43.20429" lon="2.45338">
        <ele>69.5</ele>
        <time>2015-08-02T09:19:09.183Z</time>
      </trkpt>
      <trkpt lat="43.20426" lon="2.45346">
        <ele>69.6</ele>
        <time>2015-08-02T09:19:11.251Z</time>
      </trkpt>
      <trkpt lat="43.20425" lon="2.4535">
        <ele>69.7</ele>
        <time>2015-08-02T09:19:12.190Z</time>
      </trkpt>
      <trkpt lat="43.20422" lon="2.45358">
        <ele>69.5</ele>
        <time>2015-08-02T09:19:14.225Z</time>
      </trkpt>
      <trkpt lat="43.2042" lon="2.45362">
        <ele>69.4</ele>
        <time>2015-08-02T09:19:15.185Z</time>
      </trkpt>
      <trkpt lat="43.20417" lon="2.4537">
        <ele>69.1</ele>
        <time>2015-08-02T09:19:17.220Z</time>
      </trkpt>
      <trkpt lat="43.20415" lon="2.45374">
        <ele>68.9</ele>
        <time>2015-08-02T09:19:18.180Z</time>
      </trkpt>
      <trkpt lat="43.20411" lon="2.45381">
        <ele>68.6</ele>
        <time>2015-08-02T09:19:20.216Z</time>
      </trkpt>
      <trkpt lat="43.2041" lon="2.45385">
        <ele>68.4</ele>
        <time>2015-08-02T09:19:21.177Z</time>
      </trkpt>
      <trkpt lat="43.20407" lon="2.45393">
        <ele>67.6</ele>
        <time>2015-08-02T09:19:23.216Z</time>
      </trkpt>
      <trkpt lat="43.20405" lon="2.45397">
        <ele>67.2</ele>
        <time>2015-08-02T09:19:24.179Z</time>
      </trkpt>
      <trkpt lat="43.20402" lon="2.45404">
        <ele>66.3</ele>
        <time>2015-08-02T09:19:26.222Z</time>
      </trkpt>
      <trkpt lat="43.20401" lon="2.45408">
        <ele>66</ele>
        <time>2015-08-02T09:19:27.185Z</time>
      </trkpt>
      <trkpt lat="43.20398" lon="2.45417">
        <ele>65.8</ele>
        <time>2015-08-02T09:19:29.220Z</time>
      </trkpt>
      <trkpt lat="43.20396" lon="2.45421">
        <ele>65.9</ele>
        <time>2015-08-02T09:19:30.179Z</time>
      </trkpt>
      <trkpt lat="43.20394" lon="2.45429">
        <ele>65.7</ele>
        <time>2015-08-02T09:19:32.260Z</time>
      </trkpt>
      <trkpt lat="43.20392" lon="2.45433">
        <ele>65.7</ele>
        <time>2015-08-02T09:19:33.193Z</time>
      </trkpt>
      <trkpt lat="43.20389" lon="2.4544">
        <ele>65.6</ele>
        <time>2015-08-02T09:19:35.222Z</time>
      </trkpt>
      <trkpt lat="43.20387" lon="2.45443">
        <ele>65.4</ele>
        <time>2015-08-02T09:19:36.182Z</time>
      </trkpt>
      <trkpt lat="43.20383" lon="2.45453">
        <ele>64.7</ele>
        <time>2015-08-02T09:19:39.225Z</time>
      </trkpt>
      <trkpt lat="43.20381" lon="2.45457">
        <ele>64.4</ele>
        <time>2015-08-02T09:19:40.182Z</time>
      </trkpt>
      <trkpt lat="43.20376" lon="2.45467">
        <ele>63.6</ele>
        <time>2015-08-02T09:19:43.234Z</time>
      </trkpt>
      <trkpt lat="43.20374" lon="2.4547">
        <ele>63.3</ele>
        <time>2015-08-02T09:19:44.182Z</time>
      </trkpt>
      <trkpt lat="43.2037" lon="2.45477">
        <ele>62.7</ele>
        <time>2015-08-02T09:19:46.223Z</time>
      </trkpt>
      <trkpt lat="43.20368" lon="2.4548">
        <ele>62.3</ele>
        <time>2015-08-02T09:19:47.185Z</time>
      </trkpt>
      <trkpt lat="43.20364" lon="2.45488">
        <ele>61.6</ele>
        <time>2015-08-02T09:19:49.224Z</time>
      </trkpt>
      <trkpt lat="43.20361" lon="2.45492">
        <ele>61.3</ele>
        <time>2015-08-02T09:19:50.180Z</time>
      </trkpt>
      <trkpt lat="43.20357" lon="2.45499">
        <ele>60.6</ele>
        <time>2015-08-02T09:19:52.228Z</time>
      </trkpt>
      <trkpt lat="43.20354" lon="2.45503">
        <ele>60.2</ele>
        <time>2015-08-02T09:19:53.183Z</time>
      </trkpt>
      <trkpt lat="43.20349" lon="2.45509">
        <ele>59.5</ele>
        <time>2015-08-02T09:19:55.267Z</time>
      </trkpt>
      <trkpt lat="43.20347" lon="2.45511">
        <ele>59.2</ele>
        <time>2015-08-02T09:19:56.179Z</time>
      </trkpt>
      <trkpt lat="43.20339" lon="2.45519">
        <ele>58.2</ele>
        <time>2015-08-02T09:19:59.230Z</time>
      </trkpt>
      <trkpt lat="43.20337" lon="2.45521">
        <ele>57.7</ele>
        <time>2015-08-02T09:20:00.181Z</time>
      </trkpt>
      <trkpt lat="43.20333" lon="2.45528">
        <ele>56.9</ele>
        <time>2015-08-02T09:20:02.220Z</time>
      </trkpt>
      <trkpt lat="43.20331" lon="2.45531">
        <ele>56.5</ele>
        <time>2015-08-02T09:20:03.190Z</time>
      </trkpt>
      <trkpt lat="43.20326" lon="2.45537">
        <ele>55.7</ele>
        <time>2015-08-02T09:20:05.374Z</time>
      </trkpt>
      <trkpt lat="43.20325" lon="2.4554">
        <ele>55.3</ele>
        <time>2015-08-02T09:20:06.183Z</time>
      </trkpt>
      <trkpt lat="43.2032" lon="2.45549">
        <ele>54.3</ele>
        <time>2015-08-02T09:20:09.223Z</time>
      </trkpt>
      <trkpt lat="43.20318" lon="2.45552">
        <ele>53.9</ele>
        <time>2015-08-02T09:20:10.180Z</time>
      </trkpt>
      <trkpt lat="43.20313" lon="2.45561">
        <ele>53.3</ele>
        <time>2015-08-02T09:20:13.222Z</time>
      </trkpt>
      <trkpt lat="43.20309" lon="2.45564">
        <ele>53.4</ele>
        <time>2015-08-02T09:20:14.180Z</time>
      </trkpt>
      <trkpt lat="43.20303" lon="2.45571">
        <ele>53.1</ele>
        <time>2015-08-02T09:20:16.219Z</time>
      </trkpt>
      <trkpt lat="43.20299" lon="2.45574">
        <ele>52.7</ele>
        <time>2015-08-02T09:20:17.184Z</time>
      </trkpt>
      <trkpt lat="43.20294" lon="2.45581">
        <ele>51.8</ele>
        <time>2015-08-02T09:20:19.251Z</time>
      </trkpt>
      <trkpt lat="43.20291" lon="2.45586">
        <ele>51.4</ele>
        <time>2015-08-02T09:20:20.206Z</time>
      </trkpt>
      <trkpt lat="43.20285" lon="2.45593">
        <ele>50.7</ele>
        <time>2015-08-02T09:20:22.574Z</time>
      </trkpt>
      <trkpt lat="43.20281" lon="2.45597">
        <ele>50.3</ele>
        <time>2015-08-02T09:20:23.185Z</time>
      </trkpt>
      <trkpt lat="43.20275" lon="2.45605">
        <ele>49.6</ele>
        <time>2015-08-02T09:20:25.254Z</time>
      </trkpt>
      <trkpt lat="43.20272" lon="2.45609">
        <ele>49.2</ele>
        <time>2015-08-02T09:20:26.178Z</time>
      </trkpt>
      <trkpt lat="43.20266" lon="2.45617">
        <ele>48.6</ele>
        <time>2015-08-02T09:20:28.246Z</time>
      </trkpt>
      <trkpt lat="43.20263" lon="2.45621">
        <ele>48.5</ele>
        <time>2015-08-02T09:20:29.190Z</time>
      </trkpt>
      <trkpt lat="43.20257" lon="2.45629">
        <ele>47.9</ele>
        <time>2015-08-02T09:20:31.227Z</time>
      </trkpt>
      <trkpt lat="43.20254" lon="2.45633">
        <ele>47.7</ele>
        <time>2015-08-02T09:20:32.181Z</time>
      </trkpt>
      <trkpt lat="43.20247" lon="2.45641">
        <ele>47.4</ele>
        <time>2015-08-02T09:20:34.220Z</time>
      </trkpt>
      <trkpt lat="43.20244" lon="2.45645">
        <ele>47</ele>
        <time>2015-08-02T09:20:35.184Z</time>
      </trkpt>
      <trkpt lat="43.20239" lon="2.45652">
        <ele>46.6</ele>
        <time>2015-08-02T09:20:37.256Z</time>
      </trkpt>
      <trkpt lat="43.20236" lon="2.45657">
        <ele>47</ele>
        <time>2015-08-02T09:20:38.180Z</time>
      </trkpt>
      <trkpt lat="43.2023" lon="2.45665">
        <ele>47.1</ele>
        <time>2015-08-02T09:20:40.222Z</time>
      </trkpt>
      <trkpt lat="43.20227" lon="2.45669">
        <ele>47</ele>
        <time>2015-08-02T09:20:41.187Z</time>
      </trkpt>
      <trkpt lat="43.20221" lon="2.45676">
        <ele>46.7</ele>
        <time>2015-08-02T09:20:43.224Z</time>
      </trkpt>
      <trkpt lat="43.20218" lon="2.45679">
        <ele>46.6</ele>
        <time>2015-08-02T09:20:44.177Z</time>
      </trkpt>
      <trkpt lat="43.20212" lon="2.45685">
        <ele>46.4</ele>
        <time>2015-08-02T09:20:46.679Z</time>
      </trkpt>
      <trkpt lat="43.2021" lon="2.45688">
        <ele>46.2</ele>
        <time>2015-08-02T09:20:47.180Z</time>
      </trkpt>
      <trkpt lat="43.20204" lon="2.45695">
        <ele>45.7</ele>
        <time>2015-08-02T09:20:49.225Z</time>
      </trkpt>
      <trkpt lat="43.20201" lon="2.45698">
        <ele>45.6</ele>
        <time>2015-08-02T09:20:50.192Z</time>
      </trkpt>
      <trkpt lat="43.20195" lon="2.45707">
        <ele>45.6</ele>
        <time>2015-08-02T09:20:52.223Z</time>
      </trkpt>
      <trkpt lat="43.20192" lon="2.4571">
        <ele>45.5</ele>
        <time>2015-08-02T09:20:53.181Z</time>
      </trkpt>
      <trkpt lat="43.20187" lon="2.45717">
        <ele>45</ele>
        <time>2015-08-02T09:20:55.228Z</time>
      </trkpt>
      <trkpt lat="43.20184" lon="2.45721">
        <ele>44.8</ele>
        <time>2015-08-02T09:20:56.179Z</time>
      </trkpt>
      <trkpt lat="43.20181" lon="2.45726">
        <ele>44.8</ele>
        <time>2015-08-02T09:20:57.225Z</time>
      </trkpt>
      <trkpt lat="43.20178" lon="2.4573">
        <ele>44.6</ele>
        <time>2015-08-02T09:20:58.182Z</time>
      </trkpt>
      <trkpt lat="43.20171" lon="2.45738">
        <ele>44.3</ele>
        <time>2015-08-02T09:21:00.223Z</time>
      </trkpt>
      <trkpt lat="43.20167" lon="2.45742">
        <ele>44.5</ele>
        <time>2015-08-02T09:21:01.196Z</time>
      </trkpt>
      <trkpt lat="43.20164" lon="2.45746">
        <ele>44.8</ele>
        <time>2015-08-02T09:21:02.237Z</time>
      </trkpt>
      <trkpt lat="43.2016" lon="2.45751">
        <ele>45.3</ele>
        <time>2015-08-02T09:21:03.183Z</time>
      </trkpt>
      <trkpt lat="43.20156" lon="2.45756">
        <ele>45.8</ele>
        <time>2015-08-02T09:21:04.221Z</time>
      </trkpt>
      <trkpt lat="43.20152" lon="2.45761">
        <ele>46.4</ele>
        <time>2015-08-02T09:21:05.185Z</time>
      </trkpt>
      <trkpt lat="43.20149" lon="2.45766">
        <ele>46.8</ele>
        <time>2015-08-02T09:21:06.216Z</time>
      </trkpt>
      <trkpt lat="43.20145" lon="2.45771">
        <ele>47.2</ele>
        <time>2015-08-02T09:21:07.183Z</time>
      </trkpt>
      <trkpt lat="43.20141" lon="2.45776">
        <ele>47.5</ele>
        <time>2015-08-02T09:21:08.219Z</time>
      </trkpt>
      <trkpt lat="43.20138" lon="2.45781">
        <ele>47.9</ele>
        <time>2015-08-02T09:21:09.178Z</time>
      </trkpt>
      <trkpt lat="43.20132" lon="2.45788">
        <ele>48.1</ele>
        <time>2015-08-02T09:21:11.224Z</time>
      </trkpt>
      <trkpt lat="43.20128" lon="2.45793">
        <ele>48.6</ele>
        <time>2015-08-02T09:21:12.178Z</time>
      </trkpt>
      <trkpt lat="43.20125" lon="2.45797">
        <ele>49.1</ele>
        <time>2015-08-02T09:21:13.226Z</time>
      </trkpt>
      <trkpt lat="43.20122" lon="2.45802">
        <ele>49.4</ele>
        <time>2015-08-02T09:21:14.182Z</time>
      </trkpt>
      <trkpt lat="43.20119" lon="2.45806">
        <ele>49.7</ele>
        <time>2015-08-02T09:21:15.223Z</time>
      </trkpt>
      <trkpt lat="43.20116" lon="2.4581">
        <ele>50.1</ele>
        <time>2015-08-02T09:21:16.180Z</time>
      </trkpt>
      <trkpt lat="43.20112" lon="2.45815">
        <ele>50.2</ele>
        <time>2015-08-02T09:21:17.224Z</time>
      </trkpt>
      <trkpt lat="43.20109" lon="2.45819">
        <ele>51</ele>
        <time>2015-08-02T09:21:18.190Z</time>
      </trkpt>
      <trkpt lat="43.20105" lon="2.45824">
        <ele>51.8</ele>
        <time>2015-08-02T09:21:19.227Z</time>
      </trkpt>
      <trkpt lat="43.20101" lon="2.45828">
        <ele>52.3</ele>
        <time>2015-08-02T09:21:20.183Z</time>
      </trkpt>
      <trkpt lat="43.20095" lon="2.45836">
        <ele>52.8</ele>
        <time>2015-08-02T09:21:22.215Z</time>
      </trkpt>
      <trkpt lat="43.20092" lon="2.4584">
        <ele>53.6</ele>
        <time>2015-08-02T09:21:23.180Z</time>
      </trkpt>
      <trkpt lat="43.20087" lon="2.45848">
        <ele>54.1</ele>
        <time>2015-08-02T09:21:25.226Z</time>
      </trkpt>
      <trkpt lat="43.20084" lon="2.45852">
        <ele>54.7</ele>
        <time>2015-08-02T09:21:26.177Z</time>
      </trkpt>
      <trkpt lat="43.20077" lon="2.45861">
        <ele>55.5</ele>
        <time>2015-08-02T09:21:28.215Z</time>
      </trkpt>
      <trkpt lat="43.20074" lon="2.45865">
        <ele>55.7</ele>
        <time>2015-08-02T09:21:29.179Z</time>
      </trkpt>
      <trkpt lat="43.20068" lon="2.45874">
        <ele>56.4</ele>
        <time>2015-08-02T09:21:31.233Z</time>
      </trkpt>
      <trkpt lat="43.20064" lon="2.45878">
        <ele>56.8</ele>
        <time>2015-08-02T09:21:32.180Z</time>
      </trkpt>
      <trkpt lat="43.20059" lon="2.45886">
        <ele>56.9</ele>
        <time>2015-08-02T09:21:34.223Z</time>
      </trkpt>
      <trkpt lat="43.20056" lon="2.4589">
        <ele>57.2</ele>
        <time>2015-08-02T09:21:35.183Z</time>
      </trkpt>
      <trkpt lat="43.20049" lon="2.45897">
        <ele>58.6</ele>
        <time>2015-08-02T09:21:37.271Z</time>
      </trkpt>
      <trkpt lat="43.20046" lon="2.45901">
        <ele>59</ele>
        <time>2015-08-02T09:21:38.190Z</time>
      </trkpt>
      <trkpt lat="43.2004" lon="2.45909">
        <ele>59.7</ele>
        <time>2015-08-02T09:21:40.223Z</time>
      </trkpt>
      <trkpt lat="43.20038" lon="2.45913">
        <ele>60</ele>
        <time>2015-08-02T09:21:41.184Z</time>
      </trkpt>
      <trkpt lat="43.20032" lon="2.45921">
        <ele>60.2</ele>
        <time>2015-08-02T09:21:43.226Z</time>
      </trkpt>
      <trkpt lat="43.20029" lon="2.45924">
        <ele>60.4</ele>
        <time>2015-08-02T09:21:44.180Z</time>
      </trkpt>
      <trkpt lat="43.20024" lon="2.45931">
        <ele>61</ele>
        <time>2015-08-02T09:21:46.240Z</time>
      </trkpt>
      <trkpt lat="43.20021" lon="2.45934">
        <ele>61.2</ele>
        <time>2015-08-02T09:21:47.184Z</time>
      </trkpt>
      <trkpt lat="43.20017" lon="2.45942">
        <ele>61.3</ele>
        <time>2015-08-02T09:21:49.234Z</time>
      </trkpt>
      <trkpt lat="43.20014" lon="2.45945">
        <ele>61.5</ele>
        <time>2015-08-02T09:21:50.182Z</time>
      </trkpt>
      <trkpt lat="43.20009" lon="2.45952">
        <ele>61.8</ele>
        <time>2015-08-02T09:21:52.226Z</time>
      </trkpt>
      <trkpt lat="43.20006" lon="2.45956">
        <ele>62</ele>
        <time>2015-08-02T09:21:53.191Z</time>
      </trkpt>
      <trkpt lat="43.20002" lon="2.45963">
        <ele>62.3</ele>
        <time>2015-08-02T09:21:55.226Z</time>
      </trkpt>
      <trkpt lat="43.2" lon="2.45967">
        <ele>62.4</ele>
        <time>2015-08-02T09:21:56.180Z</time>
      </trkpt>
      <trkpt lat="43.19995" lon="2.45975">
        <ele>62.8</ele>
        <time>2015-08-02T09:21:58.224Z</time>
      </trkpt>
      <trkpt lat="43.19992" lon="2.45978">
        <ele>63.1</ele>
        <time>2015-08-02T09:21:59.182Z</time>
      </trkpt>
      <trkpt lat="43.19987" lon="2.45986">
        <ele>63.6</ele>
        <time>2015-08-02T09:22:01.223Z</time>
      </trkpt>
      <trkpt lat="43.19985" lon="2.4599">
        <ele>63.6</ele>
        <time>2015-08-02T09:22:02.181Z</time>
      </trkpt>
      <trkpt lat="43.19979" lon="2.45998">
        <ele>64.1</ele>
        <time>2015-08-02T09:22:04.225Z</time>
      </trkpt>
      <trkpt lat="43.19977" lon="2.46001">
        <ele>64.2</ele>
        <time>2015-08-02T09:22:05.181Z</time>
      </trkpt>
      <trkpt lat="43.19972" lon="2.46008">
        <ele>64.9</ele>
        <time>2015-08-02T09:22:07.230Z</time>
      </trkpt>
      <trkpt lat="43.1997" lon="2.46012">
        <ele>65.1</ele>
        <time>2015-08-02T09:22:08.183Z</time>
      </trkpt>
      <trkpt lat="43.19965" lon="2.4602">
        <ele>65.1</ele>
        <time>2015-08-02T09:22:10.224Z</time>
      </trkpt>
      <trkpt lat="43.19963" lon="2.46024">
        <ele>65.3</ele>
        <time>2015-08-02T09:22:11.184Z</time>
      </trkpt>
      <trkpt lat="43.19958" lon="2.46032">
        <ele>65.6</ele>
        <time>2015-08-02T09:22:13.223Z</time>
      </trkpt>
      <trkpt lat="43.19956" lon="2.46036">
        <ele>65.8</ele>
        <time>2015-08-02T09:22:14.180Z</time>
      </trkpt>
      <trkpt lat="43.19951" lon="2.46045">
        <ele>66.3</ele>
        <time>2015-08-02T09:22:16.382Z</time>
      </trkpt>
      <trkpt lat="43.19948" lon="2.46049">
        <ele>66.8</ele>
        <time>2015-08-02T09:22:17.179Z</time>
      </trkpt>
      <trkpt lat="43.19944" lon="2.46057">
        <ele>67.5</ele>
        <time>2015-08-02T09:22:19.257Z</time>
      </trkpt>
      <trkpt lat="43.19942" lon="2.4606">
        <ele>67.9</ele>
        <time>2015-08-02T09:22:20.184Z</time>
      </trkpt>
      <trkpt lat="43.19937" lon="2.46068">
        <ele>68.6</ele>
        <time>2015-08-02T09:22:22.225Z</time>
      </trkpt>
      <trkpt lat="43.19934" lon="2.46073">
        <ele>68.9</ele>
        <time>2015-08-02T09:22:23.179Z</time>
      </trkpt>
      <trkpt lat="43.1993" lon="2.46081">
        <ele>69.2</ele>
        <time>2015-08-02T09:22:25.220Z</time>
      </trkpt>
      <trkpt lat="43.19928" lon="2.46085">
        <ele>69.3</ele>
        <time>2015-08-02T09:22:26.179Z</time>
      </trkpt>
      <trkpt lat="43.19924" lon="2.46092">
        <ele>69.3</ele>
        <time>2015-08-02T09:22:28.214Z</time>
      </trkpt>
      <trkpt lat="43.19922" lon="2.46096">
        <ele>69.4</ele>
        <time>2015-08-02T09:22:29.180Z</time>
      </trkpt>
      <trkpt lat="43.19918" lon="2.46104">
        <ele>69.1</ele>
        <time>2015-08-02T09:22:31.229Z</time>
      </trkpt>
      <trkpt lat="43.19916" lon="2.46109">
        <ele>69.2</ele>
        <time>2015-08-02T09:22:32.181Z</time>
      </trkpt>
      <trkpt lat="43.19912" lon="2.46117">
        <ele>69.4</ele>
        <time>2015-08-02T09:22:34.230Z</time>
      </trkpt>
      <trkpt lat="43.1991" lon="2.46121">
        <ele>69.7</ele>
        <time>2015-08-02T09:22:35.183Z</time>
      </trkpt>
      <trkpt lat="43.19905" lon="2.46129">
        <ele>70.1</ele>
        <time>2015-08-02T09:22:37.228Z</time>
      </trkpt>
      <trkpt lat="43.19903" lon="2.46134">
        <ele>70.2</ele>
        <time>2015-08-02T09:22:38.568Z</time>
      </trkpt>
      <trkpt lat="43.19899" lon="2.46142">
        <ele>70.5</ele>
        <time>2015-08-02T09:22:40.222Z</time>
      </trkpt>
      <trkpt lat="43.19897" lon="2.46147">
        <ele>70.5</ele>
        <time>2015-08-02T09:22:41.189Z</time>
      </trkpt>
      <trkpt lat="43.19892" lon="2.46156">
        <ele>70.7</ele>
        <time>2015-08-02T09:22:43.225Z</time>
      </trkpt>
      <trkpt lat="43.19891" lon="2.4616">
        <ele>70.8</ele>
        <time>2015-08-02T09:22:44.180Z</time>
      </trkpt>
      <trkpt lat="43.19888" lon="2.46168">
        <ele>71</ele>
        <time>2015-08-02T09:22:46.222Z</time>
      </trkpt>
      <trkpt lat="43.19886" lon="2.46172">
        <ele>70.9</ele>
        <time>2015-08-02T09:22:47.183Z</time>
      </trkpt>
      <trkpt lat="43.19882" lon="2.4618">
        <ele>71.7</ele>
        <time>2015-08-02T09:22:49.224Z</time>
      </trkpt>
      <trkpt lat="43.1988" lon="2.46183">
        <ele>72.3</ele>
        <time>2015-08-02T09:22:50.180Z</time>
      </trkpt>
      <trkpt lat="43.19875" lon="2.46191">
        <ele>74.3</ele>
        <time>2015-08-02T09:22:53.235Z</time>
      </trkpt>
      <trkpt lat="43.19874" lon="2.46194">
        <ele>74.8</ele>
        <time>2015-08-02T09:22:54.183Z</time>
      </trkpt>
      <trkpt lat="43.19871" lon="2.46205">
        <ele>76.4</ele>
        <time>2015-08-02T09:22:59.222Z</time>
      </trkpt>
      <trkpt lat="43.1987" lon="2.46207">
        <ele>76.9</ele>
        <time>2015-08-02T09:23:00.190Z</time>
      </trkpt>
      <trkpt lat="43.19869" lon="2.4621">
        <ele>77.9</ele>
        <time>2015-08-02T09:23:03.225Z</time>
      </trkpt>
      <trkpt lat="43.19869" lon="2.46211">
        <ele>77.9</ele>
        <time>2015-08-02T09:23:04.180Z</time>
      </trkpt>
      <trkpt lat="43.19868" lon="2.46211">
        <ele>78.3</ele>
        <time>2015-08-02T09:23:27.221Z</time>
      </trkpt>
      <trkpt lat="43.19868" lon="2.46213">
        <ele>81.9</ele>
        <time>2015-08-02T09:23:28.183Z</time>
      </trkpt>
      <trkpt lat="43.19867" lon="2.46223">
        <ele>82.3</ele>
        <time>2015-08-02T09:23:44.223Z</time>
      </trkpt>
      <trkpt lat="43.19866" lon="2.46226">
        <ele>82</ele>
        <time>2015-08-02T09:23:45.180Z</time>
      </trkpt>
      <trkpt lat="43.19864" lon="2.46236">
        <ele>81.5</ele>
        <time>2015-08-02T09:23:48.227Z</time>
      </trkpt>
      <trkpt lat="43.19863" lon="2.46239">
        <ele>81.2</ele>
        <time>2015-08-02T09:23:49.197Z</time>
      </trkpt>
      <trkpt lat="43.19861" lon="2.46247">
        <ele>80.9</ele>
        <time>2015-08-02T09:23:51.224Z</time>
      </trkpt>
      <trkpt lat="43.19859" lon="2.46251">
        <ele>80.2</ele>
        <time>2015-08-02T09:23:52.180Z</time>
      </trkpt>
      <trkpt lat="43.19856" lon="2.4626">
        <ele>79.6</ele>
        <time>2015-08-02T09:23:54.224Z</time>
      </trkpt>
      <trkpt lat="43.19855" lon="2.46264">
        <ele>79.6</ele>
        <time>2015-08-02T09:23:55.195Z</time>
      </trkpt>
      <trkpt lat="43.19853" lon="2.46273">
        <ele>79.9</ele>
        <time>2015-08-02T09:23:57.572Z</time>
      </trkpt>
      <trkpt lat="43.19852" lon="2.46277">
        <ele>79.9</ele>
        <time>2015-08-02T09:23:58.180Z</time>
      </trkpt>
      <trkpt lat="43.1985" lon="2.46285">
        <ele>80</ele>
        <time>2015-08-02T09:24:00.221Z</time>
      </trkpt>
      <trkpt lat="43.19848" lon="2.46289">
        <ele>79.8</ele>
        <time>2015-08-02T09:24:01.186Z</time>
      </trkpt>
      <trkpt lat="43.19845" lon="2.46298">
        <ele>79.5</ele>
        <time>2015-08-02T09:24:03.247Z</time>
      </trkpt>
      <trkpt lat="43.19844" lon="2.46302">
        <ele>79.3</ele>
        <time>2015-08-02T09:24:04.189Z</time>
      </trkpt>
      <trkpt lat="43.19841" lon="2.46311">
        <ele>79.3</ele>
        <time>2015-08-02T09:24:06.223Z</time>
      </trkpt>
      <trkpt lat="43.1984" lon="2.46315">
        <ele>79.2</ele>
        <time>2015-08-02T09:24:07.184Z</time>
      </trkpt>
      <trkpt lat="43.19837" lon="2.46324">
        <ele>79.3</ele>
        <time>2015-08-02T09:24:09.225Z</time>
      </trkpt>
      <trkpt lat="43.19836" lon="2.46328">
        <ele>79.4</ele>
        <time>2015-08-02T09:24:10.181Z</time>
      </trkpt>
      <trkpt lat="43.19833" lon="2.46337">
        <ele>79.5</ele>
        <time>2015-08-02T09:24:12.221Z</time>
      </trkpt>
      <trkpt lat="43.19832" lon="2.46341">
        <ele>79.5</ele>
        <time>2015-08-02T09:24:13.181Z</time>
      </trkpt>
      <trkpt lat="43.19828" lon="2.46351">
        <ele>79.3</ele>
        <time>2015-08-02T09:24:16.245Z</time>
      </trkpt>
      <trkpt lat="43.19826" lon="2.46355">
        <ele>79.2</ele>
        <time>2015-08-02T09:24:17.194Z</time>
      </trkpt>
      <trkpt lat="43.19824" lon="2.46362">
        <ele>79</ele>
        <time>2015-08-02T09:24:19.227Z</time>
      </trkpt>
      <trkpt lat="43.19823" lon="2.46366">
        <ele>78.9</ele>
        <time>2015-08-02T09:24:20.178Z</time>
      </trkpt>
      <trkpt lat="43.19821" lon="2.46375">
        <ele>78.9</ele>
        <time>2015-08-02T09:24:22.222Z</time>
      </trkpt>
      <trkpt lat="43.1982" lon="2.46379">
        <ele>78.9</ele>
        <time>2015-08-02T09:24:23.178Z</time>
      </trkpt>
      <trkpt lat="43.19818" lon="2.46388">
        <ele>78.8</ele>
        <time>2015-08-02T09:24:25.217Z</time>
      </trkpt>
      <trkpt lat="43.19816" lon="2.46392">
        <ele>78.8</ele>
        <time>2015-08-02T09:24:26.178Z</time>
      </trkpt>
      <trkpt lat="43.19815" lon="2.46401">
        <ele>78.8</ele>
        <time>2015-08-02T09:24:28.214Z</time>
      </trkpt>
      <trkpt lat="43.19814" lon="2.46406">
        <ele>78.8</ele>
        <time>2015-08-02T09:24:29.183Z</time>
      </trkpt>
      <trkpt lat="43.19811" lon="2.46414">
        <ele>78.5</ele>
        <time>2015-08-02T09:24:31.237Z</time>
      </trkpt>
      <trkpt lat="43.1981" lon="2.46419">
        <ele>78.4</ele>
        <time>2015-08-02T09:24:32.180Z</time>
      </trkpt>
      <trkpt lat="43.19808" lon="2.46428">
        <ele>78.3</ele>
        <time>2015-08-02T09:24:34.232Z</time>
      </trkpt>
      <trkpt lat="43.19807" lon="2.46433">
        <ele>78.6</ele>
        <time>2015-08-02T09:24:35.183Z</time>
      </trkpt>
      <trkpt lat="43.19805" lon="2.46442">
        <ele>78.7</ele>
        <time>2015-08-02T09:24:37.235Z</time>
      </trkpt>
      <trkpt lat="43.19804" lon="2.46446">
        <ele>78.7</ele>
        <time>2015-08-02T09:24:38.181Z</time>
      </trkpt>
      <trkpt lat="43.19802" lon="2.46456">
        <ele>78.5</ele>
        <time>2015-08-02T09:24:40.281Z</time>
      </trkpt>
      <trkpt lat="43.19802" lon="2.4646">
        <ele>78.6</ele>
        <time>2015-08-02T09:24:41.187Z</time>
      </trkpt>
      <trkpt lat="43.198" lon="2.46468">
        <ele>78.8</ele>
        <time>2015-08-02T09:24:43.233Z</time>
      </trkpt>
      <trkpt lat="43.198" lon="2.46473">
        <ele>78.7</ele>
        <time>2015-08-02T09:24:44.181Z</time>
      </trkpt>
      <trkpt lat="43.19799" lon="2.46482">
        <ele>78.7</ele>
        <time>2015-08-02T09:24:46.226Z</time>
      </trkpt>
      <trkpt lat="43.19798" lon="2.46486">
        <ele>78.7</ele>
        <time>2015-08-02T09:24:47.179Z</time>
      </trkpt>
      <trkpt lat="43.19797" lon="2.46496">
        <ele>78.7</ele>
        <time>2015-08-02T09:24:49.224Z</time>
      </trkpt>
      <trkpt lat="43.19797" lon="2.46501">
        <ele>78.6</ele>
        <time>2015-08-02T09:24:50.179Z</time>
      </trkpt>
      <trkpt lat="43.19796" lon="2.4651">
        <ele>78.3</ele>
        <time>2015-08-02T09:24:52.234Z</time>
      </trkpt>
      <trkpt lat="43.19795" lon="2.46515">
        <ele>78.1</ele>
        <time>2015-08-02T09:24:53.182Z</time>
      </trkpt>
      <trkpt lat="43.19794" lon="2.46524">
        <ele>77.8</ele>
        <time>2015-08-02T09:24:55.233Z</time>
      </trkpt>
      <trkpt lat="43.19794" lon="2.46528">
        <ele>77.6</ele>
        <time>2015-08-02T09:24:56.183Z</time>
      </trkpt>
      <trkpt lat="43.19793" lon="2.46538">
        <ele>77.2</ele>
        <time>2015-08-02T09:24:58.249Z</time>
      </trkpt>
      <trkpt lat="43.19793" lon="2.46543">
        <ele>77</ele>
        <time>2015-08-02T09:24:59.226Z</time>
      </trkpt>
      <trkpt lat="43.19792" lon="2.46553">
        <ele>76.9</ele>
        <time>2015-08-02T09:25:01.231Z</time>
      </trkpt>
      <trkpt lat="43.19792" lon="2.46558">
        <ele>76.6</ele>
        <time>2015-08-02T09:25:02.180Z</time>
      </trkpt>
      <trkpt lat="43.19792" lon="2.46568">
        <ele>76.8</ele>
        <time>2015-08-02T09:25:04.223Z</time>
      </trkpt>
      <trkpt lat="43.19791" lon="2.46573">
        <ele>76.6</ele>
        <time>2015-08-02T09:25:05.184Z</time>
      </trkpt>
      <trkpt lat="43.19791" lon="2.46583">
        <ele>76.3</ele>
        <time>2015-08-02T09:25:07.371Z</time>
      </trkpt>
      <trkpt lat="43.19791" lon="2.46587">
        <ele>76.3</ele>
        <time>2015-08-02T09:25:08.180Z</time>
      </trkpt>
      <trkpt lat="43.19791" lon="2.46596">
        <ele>75.9</ele>
        <time>2015-08-02T09:25:10.228Z</time>
      </trkpt>
      <trkpt lat="43.19791" lon="2.46602">
        <ele>75.8</ele>
        <time>2015-08-02T09:25:11.179Z</time>
      </trkpt>
      <trkpt lat="43.19791" lon="2.46612">
        <ele>75.6</ele>
        <time>2015-08-02T09:25:13.221Z</time>
      </trkpt>
      <trkpt lat="43.19791" lon="2.46616">
        <ele>75.6</ele>
        <time>2015-08-02T09:25:14.177Z</time>
      </trkpt>
      <trkpt lat="43.19792" lon="2.46626">
        <ele>75.7</ele>
        <time>2015-08-02T09:25:16.221Z</time>
      </trkpt>
      <trkpt lat="43.19792" lon="2.46631">
        <ele>75.7</ele>
        <time>2015-08-02T09:25:17.177Z</time>
      </trkpt>
      <trkpt lat="43.19792" lon="2.46641">
        <ele>75.6</ele>
        <time>2015-08-02T09:25:19.236Z</time>
      </trkpt>
      <trkpt lat="43.19792" lon="2.46645">
        <ele>75.3</ele>
        <time>2015-08-02T09:25:20.180Z</time>
      </trkpt>
      <trkpt lat="43.19794" lon="2.46653">
        <ele>75.7</ele>
        <time>2015-08-02T09:25:22.223Z</time>
      </trkpt>
      <trkpt lat="43.19794" lon="2.46657">
        <ele>75.7</ele>
        <time>2015-08-02T09:25:23.183Z</time>
      </trkpt>
      <trkpt lat="43.19795" lon="2.46666">
        <ele>76</ele>
        <time>2015-08-02T09:25:25.239Z</time>
      </trkpt>
      <trkpt lat="43.19795" lon="2.46671">
        <ele>75.8</ele>
        <time>2015-08-02T09:25:26.189Z</time>
      </trkpt>
      <trkpt lat="43.19795" lon="2.46679">
        <ele>76.1</ele>
        <time>2015-08-02T09:25:28.242Z</time>
      </trkpt>
      <trkpt lat="43.19796" lon="2.46683">
        <ele>76.2</ele>
        <time>2015-08-02T09:25:29.182Z</time>
      </trkpt>
      <trkpt lat="43.19796" lon="2.46692">
        <ele>76.2</ele>
        <time>2015-08-02T09:25:31.236Z</time>
      </trkpt>
      <trkpt lat="43.19796" lon="2.46697">
        <ele>76.2</ele>
        <time>2015-08-02T09:25:32.182Z</time>
      </trkpt>
      <trkpt lat="43.19795" lon="2.46706">
        <ele>76.2</ele>
        <time>2015-08-02T09:25:34.227Z</time>
      </trkpt>
      <trkpt lat="43.19795" lon="2.46711">
        <ele>76.1</ele>
        <time>2015-08-02T09:25:35.189Z</time>
      </trkpt>
      <trkpt lat="43.19796" lon="2.4672">
        <ele>76.1</ele>
        <time>2015-08-02T09:25:37.237Z</time>
      </trkpt>
      <trkpt lat="43.19796" lon="2.46725">
        <ele>75.8</ele>
        <time>2015-08-02T09:25:38.181Z</time>
      </trkpt>
      <trkpt lat="43.19796" lon="2.46734">
        <ele>75.6</ele>
        <time>2015-08-02T09:25:40.232Z</time>
      </trkpt>
      <trkpt lat="43.19796" lon="2.46739">
        <ele>75.6</ele>
        <time>2015-08-02T09:25:41.186Z</time>
      </trkpt>
      <trkpt lat="43.19796" lon="2.46748">
        <ele>75.7</ele>
        <time>2015-08-02T09:25:43.229Z</time>
      </trkpt>
      <trkpt lat="43.19796" lon="2.46753">
        <ele>75.8</ele>
        <time>2015-08-02T09:25:44.339Z</time>
      </trkpt>
      <trkpt lat="43.19795" lon="2.46763">
        <ele>75.6</ele>
        <time>2015-08-02T09:25:46.232Z</time>
      </trkpt>
      <trkpt lat="43.19795" lon="2.46769">
        <ele>75.5</ele>
        <time>2015-08-02T09:25:47.181Z</time>
      </trkpt>
      <trkpt lat="43.19793" lon="2.4678">
        <ele>75.6</ele>
        <time>2015-08-02T09:25:49.238Z</time>
      </trkpt>
      <trkpt lat="43.19793" lon="2.46786">
        <ele>75.5</ele>
        <time>2015-08-02T09:25:50.176Z</time>
      </trkpt>
      <trkpt lat="43.19792" lon="2.46798">
        <ele>75.9</ele>
        <time>2015-08-02T09:25:52.230Z</time>
      </trkpt>
      <trkpt lat="43.19791" lon="2.46803">
        <ele>75.9</ele>
        <time>2015-08-02T09:25:53.183Z</time>
      </trkpt>
      <trkpt lat="43.1979" lon="2.46813">
        <ele>76.1</ele>
        <time>2015-08-02T09:25:55.240Z</time>
      </trkpt>
      <trkpt lat="43.1979" lon="2.46819">
        <ele>75.8</ele>
        <time>2015-08-02T09:25:56.177Z</time>
      </trkpt>
      <trkpt lat="43.1979" lon="2.4683">
        <ele>75.7</ele>
        <time>2015-08-02T09:25:58.228Z</time>
      </trkpt>
      <trkpt lat="43.1979" lon="2.46836">
        <ele>75.9</ele>
        <time>2015-08-02T09:25:59.184Z</time>
      </trkpt>
      <trkpt lat="43.19789" lon="2.46847">
        <ele>76.1</ele>
        <time>2015-08-02T09:26:01.254Z</time>
      </trkpt>
      <trkpt lat="43.19788" lon="2.46852">
        <ele>76.2</ele>
        <time>2015-08-02T09:26:02.189Z</time>
      </trkpt>
      <trkpt lat="43.19786" lon="2.46863">
        <ele>76.5</ele>
        <time>2015-08-02T09:26:04.238Z</time>
      </trkpt>
      <trkpt lat="43.19786" lon="2.46868">
        <ele>76.5</ele>
        <time>2015-08-02T09:26:05.176Z</time>
      </trkpt>
      <trkpt lat="43.19786" lon="2.46879">
        <ele>76.3</ele>
        <time>2015-08-02T09:26:07.374Z</time>
      </trkpt>
      <trkpt lat="43.19785" lon="2.46885">
        <ele>76</ele>
        <time>2015-08-02T09:26:08.179Z</time>
      </trkpt>
      <trkpt lat="43.19784" lon="2.46896">
        <ele>75.9</ele>
        <time>2015-08-02T09:26:10.249Z</time>
      </trkpt>
      <trkpt lat="43.19783" lon="2.46902">
        <ele>75.9</ele>
        <time>2015-08-02T09:26:11.188Z</time>
      </trkpt>
      <trkpt lat="43.19782" lon="2.46913">
        <ele>75.6</ele>
        <time>2015-08-02T09:26:13.238Z</time>
      </trkpt>
      <trkpt lat="43.19782" lon="2.46918">
        <ele>76.4</ele>
        <time>2015-08-02T09:26:14.180Z</time>
      </trkpt>
      <trkpt lat="43.1978" lon="2.46929">
        <ele>76.4</ele>
        <time>2015-08-02T09:26:16.230Z</time>
      </trkpt>
      <trkpt lat="43.19779" lon="2.46934">
        <ele>76.5</ele>
        <time>2015-08-02T09:26:17.186Z</time>
      </trkpt>
      <trkpt lat="43.19778" lon="2.46945">
        <ele>76.8</ele>
        <time>2015-08-02T09:26:19.237Z</time>
      </trkpt>
      <trkpt lat="43.19777" lon="2.4695">
        <ele>76.7</ele>
        <time>2015-08-02T09:26:20.191Z</time>
      </trkpt>
      <trkpt lat="43.19775" lon="2.4696">
        <ele>76.7</ele>
        <time>2015-08-02T09:26:22.577Z</time>
      </trkpt>
      <trkpt lat="43.19774" lon="2.46965">
        <ele>76.8</ele>
        <time>2015-08-02T09:26:23.181Z</time>
      </trkpt>
      <trkpt lat="43.19773" lon="2.46975">
        <ele>76.3</ele>
        <time>2015-08-02T09:26:25.247Z</time>
      </trkpt>
      <trkpt lat="43.19772" lon="2.4698">
        <ele>75.9</ele>
        <time>2015-08-02T09:26:26.182Z</time>
      </trkpt>
      <trkpt lat="43.19771" lon="2.4699">
        <ele>76.6</ele>
        <time>2015-08-02T09:26:28.224Z</time>
      </trkpt>
      <trkpt lat="43.1977" lon="2.46995">
        <ele>77</ele>
        <time>2015-08-02T09:26:29.189Z</time>
      </trkpt>
      <trkpt lat="43.19769" lon="2.47005">
        <ele>77.6</ele>
        <time>2015-08-02T09:26:31.238Z</time>
      </trkpt>
      <trkpt lat="43.19768" lon="2.4701">
        <ele>77.7</ele>
        <time>2015-08-02T09:26:32.181Z</time>
      </trkpt>
      <trkpt lat="43.19767" lon="2.47019">
        <ele>78.2</ele>
        <time>2015-08-02T09:26:34.229Z</time>
      </trkpt>
      <trkpt lat="43.19767" lon="2.47024">
        <ele>78.4</ele>
        <time>2015-08-02T09:26:35.182Z</time>
      </trkpt>
      <trkpt lat="43.19766" lon="2.47033">
        <ele>78.4</ele>
        <time>2015-08-02T09:26:37.239Z</time>
      </trkpt>
      <trkpt lat="43.19765" lon="2.47037">
        <ele>78.3</ele>
        <time>2015-08-02T09:26:38.195Z</time>
      </trkpt>
      <trkpt lat="43.19763" lon="2.47047">
        <ele>78.1</ele>
        <time>2015-08-02T09:26:40.230Z</time>
      </trkpt>
      <trkpt lat="43.19762" lon="2.47052">
        <ele>78</ele>
        <time>2015-08-02T09:26:41.180Z</time>
      </trkpt>
      <trkpt lat="43.1976" lon="2.47062">
        <ele>77.4</ele>
        <time>2015-08-02T09:26:43.263Z</time>
      </trkpt>
      <trkpt lat="43.1976" lon="2.47066">
        <ele>77.1</ele>
        <time>2015-08-02T09:26:44.179Z</time>
      </trkpt>
      <trkpt lat="43.19758" lon="2.47076">
        <ele>76.8</ele>
        <time>2015-08-02T09:26:46.311Z</time>
      </trkpt>
      <trkpt lat="43.19757" lon="2.47081">
        <ele>76.7</ele>
        <time>2015-08-02T09:26:47.179Z</time>
      </trkpt>
      <trkpt lat="43.19757" lon="2.4709">
        <ele>76.7</ele>
        <time>2015-08-02T09:26:49.237Z</time>
      </trkpt>
      <trkpt lat="43.19757" lon="2.47095">
        <ele>76.9</ele>
        <time>2015-08-02T09:26:50.180Z</time>
      </trkpt>
      <trkpt lat="43.19755" lon="2.47105">
        <ele>76.4</ele>
        <time>2015-08-02T09:26:52.560Z</time>
      </trkpt>
      <trkpt lat="43.19754" lon="2.47111">
        <ele>75.9</ele>
        <time>2015-08-02T09:26:53.186Z</time>
      </trkpt>
      <trkpt lat="43.19753" lon="2.47121">
        <ele>75.4</ele>
        <time>2015-08-02T09:26:55.248Z</time>
      </trkpt>
      <trkpt lat="43.19753" lon="2.47125">
        <ele>75.6</ele>
        <time>2015-08-02T09:26:56.205Z</time>
      </trkpt>
      <trkpt lat="43.19751" lon="2.47135">
        <ele>75.9</ele>
        <time>2015-08-02T09:26:58.224Z</time>
      </trkpt>
      <trkpt lat="43.1975" lon="2.47141">
        <ele>76</ele>
        <time>2015-08-02T09:26:59.182Z</time>
      </trkpt>
      <trkpt lat="43.19748" lon="2.4715">
        <ele>75.9</ele>
        <time>2015-08-02T09:27:01.237Z</time>
      </trkpt>
      <trkpt lat="43.19747" lon="2.47156">
        <ele>76.3</ele>
        <time>2015-08-02T09:27:02.180Z</time>
      </trkpt>
      <trkpt lat="43.19745" lon="2.47166">
        <ele>76.3</ele>
        <time>2015-08-02T09:27:04.400Z</time>
      </trkpt>
      <trkpt lat="43.19744" lon="2.47171">
        <ele>76.4</ele>
        <time>2015-08-02T09:27:05.178Z</time>
      </trkpt>
      <trkpt lat="43.19743" lon="2.47181">
        <ele>77</ele>
        <time>2015-08-02T09:27:07.248Z</time>
      </trkpt>
      <trkpt lat="43.19743" lon="2.47185">
        <ele>77.7</ele>
        <time>2015-08-02T09:27:08.179Z</time>
      </trkpt>
      <trkpt lat="43.19741" lon="2.47195">
        <ele>78</ele>
        <time>2015-08-02T09:27:10.223Z</time>
      </trkpt>
      <trkpt lat="43.1974" lon="2.472">
        <ele>78.1</ele>
        <time>2015-08-02T09:27:11.189Z</time>
      </trkpt>
      <trkpt lat="43.19738" lon="2.4721">
        <ele>78.2</ele>
        <time>2015-08-02T09:27:13.227Z</time>
      </trkpt>
      <trkpt lat="43.19737" lon="2.47215">
        <ele>78.3</ele>
        <time>2015-08-02T09:27:14.177Z</time>
      </trkpt>
      <trkpt lat="43.19735" lon="2.47224">
        <ele>78.7</ele>
        <time>2015-08-02T09:27:16.223Z</time>
      </trkpt>
      <trkpt lat="43.19734" lon="2.47229">
        <ele>78.6</ele>
        <time>2015-08-02T09:27:17.179Z</time>
      </trkpt>
      <trkpt lat="43.19733" lon="2.47239">
        <ele>78.7</ele>
        <time>2015-08-02T09:27:19.236Z</time>
      </trkpt>
      <trkpt lat="43.19732" lon="2.47243">
        <ele>78.9</ele>
        <time>2015-08-02T09:27:20.180Z</time>
      </trkpt>
      <trkpt lat="43.19731" lon="2.47253">
        <ele>79.5</ele>
        <time>2015-08-02T09:27:22.237Z</time>
      </trkpt>
      <trkpt lat="43.1973" lon="2.47257">
        <ele>79.6</ele>
        <time>2015-08-02T09:27:23.221Z</time>
      </trkpt>
      <trkpt lat="43.19728" lon="2.47268">
        <ele>79.9</ele>
        <time>2015-08-02T09:27:25.240Z</time>
      </trkpt>
      <trkpt lat="43.19727" lon="2.47272">
        <ele>80</ele>
        <time>2015-08-02T09:27:26.182Z</time>
      </trkpt>
      <trkpt lat="43.19725" lon="2.47283">
        <ele>80.4</ele>
        <time>2015-08-02T09:27:28.231Z</time>
      </trkpt>
      <trkpt lat="43.19724" lon="2.47288">
        <ele>80.7</ele>
        <time>2015-08-02T09:27:29.186Z</time>
      </trkpt>
      <trkpt lat="43.19723" lon="2.47298">
        <ele>81.3</ele>
        <time>2015-08-02T09:27:31.228Z</time>
      </trkpt>
      <trkpt lat="43.19721" lon="2.47304">
        <ele>80.9</ele>
        <time>2015-08-02T09:27:32.182Z</time>
      </trkpt>
      <trkpt lat="43.19719" lon="2.47314">
        <ele>80.8</ele>
        <time>2015-08-02T09:27:34.264Z</time>
      </trkpt>
      <trkpt lat="43.19718" lon="2.47319">
        <ele>81</ele>
        <time>2015-08-02T09:27:35.180Z</time>
      </trkpt>
      <trkpt lat="43.19714" lon="2.4733">
        <ele>81</ele>
        <time>2015-08-02T09:27:37.240Z</time>
      </trkpt>
      <trkpt lat="43.19713" lon="2.47335">
        <ele>80.8</ele>
        <time>2015-08-02T09:27:38.182Z</time>
      </trkpt>
      <trkpt lat="43.1971" lon="2.47346">
        <ele>80.5</ele>
        <time>2015-08-02T09:27:40.231Z</time>
      </trkpt>
      <trkpt lat="43.19709" lon="2.47352">
        <ele>80.6</ele>
        <time>2015-08-02T09:27:41.185Z</time>
      </trkpt>
      <trkpt lat="43.19706" lon="2.47362">
        <ele>80.6</ele>
        <time>2015-08-02T09:27:43.233Z</time>
      </trkpt>
      <trkpt lat="43.19704" lon="2.47368">
        <ele>80.5</ele>
        <time>2015-08-02T09:27:44.180Z</time>
      </trkpt>
      <trkpt lat="43.19701" lon="2.47379">
        <ele>80.9</ele>
        <time>2015-08-02T09:27:46.233Z</time>
      </trkpt>
      <trkpt lat="43.197" lon="2.47385">
        <ele>80.6</ele>
        <time>2015-08-02T09:27:47.180Z</time>
      </trkpt>
      <trkpt lat="43.19697" lon="2.47396">
        <ele>80.5</ele>
        <time>2015-08-02T09:27:49.260Z</time>
      </trkpt>
      <trkpt lat="43.19696" lon="2.47401">
        <ele>80.5</ele>
        <time>2015-08-02T09:27:50.180Z</time>
      </trkpt>
      <trkpt lat="43.19693" lon="2.47412">
        <ele>80.5</ele>
        <time>2015-08-02T09:27:52.232Z</time>
      </trkpt>
      <trkpt lat="43.19692" lon="2.47417">
        <ele>80.5</ele>
        <time>2015-08-02T09:27:53.180Z</time>
      </trkpt>
      <trkpt lat="43.19689" lon="2.47428">
        <ele>80.2</ele>
        <time>2015-08-02T09:27:55.231Z</time>
      </trkpt>
      <trkpt lat="43.19688" lon="2.47433">
        <ele>79.7</ele>
        <time>2015-08-02T09:27:56.180Z</time>
      </trkpt>
      <trkpt lat="43.19685" lon="2.47443">
        <ele>79.1</ele>
        <time>2015-08-02T09:27:58.271Z</time>
      </trkpt>
      <trkpt lat="43.19683" lon="2.47449">
        <ele>78.9</ele>
        <time>2015-08-02T09:27:59.180Z</time>
      </trkpt>
      <trkpt lat="43.19681" lon="2.47459">
        <ele>78.6</ele>
        <time>2015-08-02T09:28:01.227Z</time>
      </trkpt>
      <trkpt lat="43.19679" lon="2.47465">
        <ele>78.6</ele>
        <time>2015-08-02T09:28:02.177Z</time>
      </trkpt>
      <trkpt lat="43.19677" lon="2.47475">
        <ele>78.1</ele>
        <time>2015-08-02T09:28:04.224Z</time>
      </trkpt>
      <trkpt lat="43.19675" lon="2.47481">
        <ele>77.8</ele>
        <time>2015-08-02T09:28:05.176Z</time>
      </trkpt>
      <trkpt lat="43.19672" lon="2.47492">
        <ele>77.6</ele>
        <time>2015-08-02T09:28:07.238Z</time>
      </trkpt>
      <trkpt lat="43.19671" lon="2.47497">
        <ele>77.7</ele>
        <time>2015-08-02T09:28:08.180Z</time>
      </trkpt>
      <trkpt lat="43.19668" lon="2.47509">
        <ele>77.5</ele>
        <time>2015-08-02T09:28:10.229Z</time>
      </trkpt>
      <trkpt lat="43.19667" lon="2.47514">
        <ele>77.4</ele>
        <time>2015-08-02T09:28:11.189Z</time>
      </trkpt>
      <trkpt lat="43.19664" lon="2.47525">
        <ele>77</ele>
        <time>2015-08-02T09:28:13.224Z</time>
      </trkpt>
      <trkpt lat="43.19663" lon="2.4753">
        <ele>76.8</ele>
        <time>2015-08-02T09:28:14.178Z</time>
      </trkpt>
      <trkpt lat="43.1966" lon="2.47541">
        <ele>76.7</ele>
        <time>2015-08-02T09:28:16.223Z</time>
      </trkpt>
      <trkpt lat="43.19659" lon="2.47546">
        <ele>76.8</ele>
        <time>2015-08-02T09:28:17.182Z</time>
      </trkpt>
      <trkpt lat="43.19656" lon="2.47556">
        <ele>76.8</ele>
        <time>2015-08-02T09:28:19.252Z</time>
      </trkpt>
      <trkpt lat="43.19655" lon="2.47562">
        <ele>76.8</ele>
        <time>2015-08-02T09:28:20.178Z</time>
      </trkpt>
      <trkpt lat="43.19652" lon="2.47572">
        <ele>76.8</ele>
        <time>2015-08-02T09:28:22.236Z</time>
      </trkpt>
      <trkpt lat="43.19651" lon="2.47578">
        <ele>77</ele>
        <time>2015-08-02T09:28:23.181Z</time>
      </trkpt>
      <trkpt lat="43.19649" lon="2.47588">
        <ele>77.6</ele>
        <time>2015-08-02T09:28:25.266Z</time>
      </trkpt>
      <trkpt lat="43.19648" lon="2.47593">
        <ele>77.9</ele>
        <time>2015-08-02T09:28:26.178Z</time>
      </trkpt>
      <trkpt lat="43.19646" lon="2.47603">
        <ele>78.8</ele>
        <time>2015-08-02T09:28:28.231Z</time>
      </trkpt>
      <trkpt lat="43.19645" lon="2.47608">
        <ele>79.3</ele>
        <time>2015-08-02T09:28:29.187Z</time>
      </trkpt>
      <trkpt lat="43.19644" lon="2.47617">
        <ele>79.8</ele>
        <time>2015-08-02T09:28:31.555Z</time>
      </trkpt>
      <trkpt lat="43.19643" lon="2.47622">
        <ele>80</ele>
        <time>2015-08-02T09:28:32.181Z</time>
      </trkpt>
      <trkpt lat="43.19641" lon="2.47631">
        <ele>80.1</ele>
        <time>2015-08-02T09:28:34.233Z</time>
      </trkpt>
      <trkpt lat="43.1964" lon="2.47636">
        <ele>80.1</ele>
        <time>2015-08-02T09:28:35.176Z</time>
      </trkpt>
      <trkpt lat="43.19638" lon="2.47646">
        <ele>80.3</ele>
        <time>2015-08-02T09:28:37.227Z</time>
      </trkpt>
      <trkpt lat="43.19637" lon="2.47651">
        <ele>80.6</ele>
        <time>2015-08-02T09:28:38.178Z</time>
      </trkpt>
      <trkpt lat="43.19636" lon="2.4766">
        <ele>80.9</ele>
        <time>2015-08-02T09:28:40.233Z</time>
      </trkpt>
      <trkpt lat="43.19635" lon="2.47665">
        <ele>81</ele>
        <time>2015-08-02T09:28:41.186Z</time>
      </trkpt>
      <trkpt lat="43.19634" lon="2.47675">
        <ele>81.2</ele>
        <time>2015-08-02T09:28:43.234Z</time>
      </trkpt>
      <trkpt lat="43.19633" lon="2.4768">
        <ele>81.3</ele>
        <time>2015-08-02T09:28:44.179Z</time>
      </trkpt>
      <trkpt lat="43.1963" lon="2.47691">
        <ele>81.4</ele>
        <time>2015-08-02T09:28:46.230Z</time>
      </trkpt>
      <trkpt lat="43.19629" lon="2.47695">
        <ele>81.4</ele>
        <time>2015-08-02T09:28:47.180Z</time>
      </trkpt>
      <trkpt lat="43.19626" lon="2.47705">
        <ele>81.5</ele>
        <time>2015-08-02T09:28:49.243Z</time>
      </trkpt>
      <trkpt lat="43.19625" lon="2.4771">
        <ele>81.6</ele>
        <time>2015-08-02T09:28:50.177Z</time>
      </trkpt>
      <trkpt lat="43.19622" lon="2.47718">
        <ele>81.6</ele>
        <time>2015-08-02T09:28:52.234Z</time>
      </trkpt>
      <trkpt lat="43.1962" lon="2.47722">
        <ele>81.2</ele>
        <time>2015-08-02T09:28:53.185Z</time>
      </trkpt>
      <trkpt lat="43.19616" lon="2.47733">
        <ele>80.6</ele>
        <time>2015-08-02T09:28:56.577Z</time>
      </trkpt>
      <trkpt lat="43.19615" lon="2.47736">
        <ele>80.2</ele>
        <time>2015-08-02T09:28:57.179Z</time>
      </trkpt>
      <trkpt lat="43.19613" lon="2.47745">
        <ele>79.9</ele>
        <time>2015-08-02T09:28:59.232Z</time>
      </trkpt>
      <trkpt lat="43.19612" lon="2.4775">
        <ele>79.9</ele>
        <time>2015-08-02T09:29:00.179Z</time>
      </trkpt>
      <trkpt lat="43.19609" lon="2.47758">
        <ele>79.2</ele>
        <time>2015-08-02T09:29:02.229Z</time>
      </trkpt>
      <trkpt lat="43.19608" lon="2.47763">
        <ele>79</ele>
        <time>2015-08-02T09:29:03.467Z</time>
      </trkpt>
      <trkpt lat="43.19606" lon="2.47771">
        <ele>79</ele>
        <time>2015-08-02T09:29:05.240Z</time>
      </trkpt>
      <trkpt lat="43.19605" lon="2.47775">
        <ele>79</ele>
        <time>2015-08-02T09:29:06.182Z</time>
      </trkpt>
      <trkpt lat="43.19603" lon="2.47784">
        <ele>79</ele>
        <time>2015-08-02T09:29:08.237Z</time>
      </trkpt>
      <trkpt lat="43.19602" lon="2.47788">
        <ele>79.2</ele>
        <time>2015-08-02T09:29:09.179Z</time>
      </trkpt>
      <trkpt lat="43.196" lon="2.478">
        <ele>79.6</ele>
        <time>2015-08-02T09:29:12.222Z</time>
      </trkpt>
      <trkpt lat="43.196" lon="2.47803">
        <ele>79.6</ele>
        <time>2015-08-02T09:29:13.181Z</time>
      </trkpt>
      <trkpt lat="43.19598" lon="2.47811">
        <ele>79.1</ele>
        <time>2015-08-02T09:29:15.572Z</time>
      </trkpt>
      <trkpt lat="43.19597" lon="2.47816">
        <ele>79.1</ele>
        <time>2015-08-02T09:29:16.182Z</time>
      </trkpt>
      <trkpt lat="43.19595" lon="2.47825">
        <ele>79.5</ele>
        <time>2015-08-02T09:29:18.248Z</time>
      </trkpt>
      <trkpt lat="43.19594" lon="2.4783">
        <ele>79.4</ele>
        <time>2015-08-02T09:29:19.205Z</time>
      </trkpt>
      <trkpt lat="43.19593" lon="2.4784">
        <ele>79.6</ele>
        <time>2015-08-02T09:29:21.233Z</time>
      </trkpt>
      <trkpt lat="43.19592" lon="2.47844">
        <ele>79.7</ele>
        <time>2015-08-02T09:29:22.180Z</time>
      </trkpt>
      <trkpt lat="43.19589" lon="2.47856">
        <ele>81</ele>
        <time>2015-08-02T09:29:25.246Z</time>
      </trkpt>
      <trkpt lat="43.19588" lon="2.4786">
        <ele>81.2</ele>
        <time>2015-08-02T09:29:26.177Z</time>
      </trkpt>
      <trkpt lat="43.19586" lon="2.4787">
        <ele>81.3</ele>
        <time>2015-08-02T09:29:28.232Z</time>
      </trkpt>
      <trkpt lat="43.19585" lon="2.47874">
        <ele>81.2</ele>
        <time>2015-08-02T09:29:29.203Z</time>
      </trkpt>
      <trkpt lat="43.19583" lon="2.47881">
        <ele>81.6</ele>
        <time>2015-08-02T09:29:31.240Z</time>
      </trkpt>
      <trkpt lat="43.19582" lon="2.47886">
        <ele>81.4</ele>
        <time>2015-08-02T09:29:32.182Z</time>
      </trkpt>
      <trkpt lat="43.1958" lon="2.47895">
        <ele>81.6</ele>
        <time>2015-08-02T09:29:34.230Z</time>
      </trkpt>
      <trkpt lat="43.19579" lon="2.47899">
        <ele>81.7</ele>
        <time>2015-08-02T09:29:35.177Z</time>
      </trkpt>
      <trkpt lat="43.19579" lon="2.47907">
        <ele>81.6</ele>
        <time>2015-08-02T09:29:37.227Z</time>
      </trkpt>
      <trkpt lat="43.19579" lon="2.47912">
        <ele>81.7</ele>
        <time>2015-08-02T09:29:38.178Z</time>
      </trkpt>
      <trkpt lat="43.19577" lon="2.47922">
        <ele>81.7</ele>
        <time>2015-08-02T09:29:40.221Z</time>
      </trkpt>
      <trkpt lat="43.19577" lon="2.47926">
        <ele>81.8</ele>
        <time>2015-08-02T09:29:41.179Z</time>
      </trkpt>
      <trkpt lat="43.19574" lon="2.47935">
        <ele>81.5</ele>
        <time>2015-08-02T09:29:43.649Z</time>
      </trkpt>
      <trkpt lat="43.19573" lon="2.4794">
        <ele>81.3</ele>
        <time>2015-08-02T09:29:44.180Z</time>
      </trkpt>
      <trkpt lat="43.19572" lon="2.47949">
        <ele>81</ele>
        <time>2015-08-02T09:29:46.228Z</time>
      </trkpt>
      <trkpt lat="43.1957" lon="2.47955">
        <ele>80.4</ele>
        <time>2015-08-02T09:29:47.180Z</time>
      </trkpt>
      <trkpt lat="43.19568" lon="2.47966">
        <ele>79.9</ele>
        <time>2015-08-02T09:29:49.236Z</time>
      </trkpt>
      <trkpt lat="43.19567" lon="2.47971">
        <ele>79.7</ele>
        <time>2015-08-02T09:29:50.180Z</time>
      </trkpt>
      <trkpt lat="43.19565" lon="2.47981">
        <ele>79.2</ele>
        <time>2015-08-02T09:29:52.252Z</time>
      </trkpt>
      <trkpt lat="43.19565" lon="2.47986">
        <ele>79</ele>
        <time>2015-08-02T09:29:53.202Z</time>
      </trkpt>
      <trkpt lat="43.19563" lon="2.47996">
        <ele>78.6</ele>
        <time>2015-08-02T09:29:55.234Z</time>
      </trkpt>
      <trkpt lat="43.19562" lon="2.48001">
        <ele>78.4</ele>
        <time>2015-08-02T09:29:56.178Z</time>
      </trkpt>
      <trkpt lat="43.19559" lon="2.4801">
        <ele>78.1</ele>
        <time>2015-08-02T09:29:58.228Z</time>
      </trkpt>
      <trkpt lat="43.19557" lon="2.48014">
        <ele>78.1</ele>
        <time>2015-08-02T09:29:59.185Z</time>
      </trkpt>
      <trkpt lat="43.19554" lon="2.48022">
        <ele>77.8</ele>
        <time>2015-08-02T09:30:01.262Z</time>
      </trkpt>
      <trkpt lat="43.19553" lon="2.48026">
        <ele>77.9</ele>
        <time>2015-08-02T09:30:02.179Z</time>
      </trkpt>
      <trkpt lat="43.19549" lon="2.48033">
        <ele>77.5</ele>
        <time>2015-08-02T09:30:04.228Z</time>
      </trkpt>
      <trkpt lat="43.19547" lon="2.48037">
        <ele>77.3</ele>
        <time>2015-08-02T09:30:05.185Z</time>
      </trkpt>
      <trkpt lat="43.19542" lon="2.48045">
        <ele>77</ele>
        <time>2015-08-02T09:30:07.231Z</time>
      </trkpt>
      <trkpt lat="43.19539" lon="2.48047">
        <ele>76.8</ele>
        <time>2015-08-02T09:30:08.179Z</time>
      </trkpt>
      <trkpt lat="43.19533" lon="2.48053">
        <ele>76.4</ele>
        <time>2015-08-02T09:30:10.232Z</time>
      </trkpt>
      <trkpt lat="43.19529" lon="2.48054">
        <ele>76.4</ele>
        <time>2015-08-02T09:30:11.183Z</time>
      </trkpt>
      <trkpt lat="43.19521" lon="2.48061">
        <ele>76</ele>
        <time>2015-08-02T09:30:13.238Z</time>
      </trkpt>
      <trkpt lat="43.19519" lon="2.48065">
        <ele>75.8</ele>
        <time>2015-08-02T09:30:14.182Z</time>
      </trkpt>
      <trkpt lat="43.19513" lon="2.48072">
        <ele>75.3</ele>
        <time>2015-08-02T09:30:16.228Z</time>
      </trkpt>
      <trkpt lat="43.1951" lon="2.48076">
        <ele>75.1</ele>
        <time>2015-08-02T09:30:17.183Z</time>
      </trkpt>
      <trkpt lat="43.19506" lon="2.48083">
        <ele>74.9</ele>
        <time>2015-08-02T09:30:19.266Z</time>
      </trkpt>
      <trkpt lat="43.19504" lon="2.48086">
        <ele>74.8</ele>
        <time>2015-08-02T09:30:20.189Z</time>
      </trkpt>
      <trkpt lat="43.19499" lon="2.48091">
        <ele>75.4</ele>
        <time>2015-08-02T09:30:22.222Z</time>
      </trkpt>
      <trkpt lat="43.19497" lon="2.48094">
        <ele>75.5</ele>
        <time>2015-08-02T09:30:23.183Z</time>
      </trkpt>
      <trkpt lat="43.19491" lon="2.48101">
        <ele>75.8</ele>
        <time>2015-08-02T09:30:26.223Z</time>
      </trkpt>
      <trkpt lat="43.19489" lon="2.48104">
        <ele>75.6</ele>
        <time>2015-08-02T09:30:27.181Z</time>
      </trkpt>
      <trkpt lat="43.19484" lon="2.48113">
        <ele>75</ele>
        <time>2015-08-02T09:30:31.248Z</time>
      </trkpt>
      <trkpt lat="43.1948" lon="2.48117">
        <ele>75.6</ele>
        <time>2015-08-02T09:30:32.181Z</time>
      </trkpt>
      <trkpt lat="43.19474" lon="2.48124">
        <ele>76.8</ele>
        <time>2015-08-02T09:30:34.231Z</time>
      </trkpt>
      <trkpt lat="43.19472" lon="2.48126">
        <ele>77.2</ele>
        <time>2015-08-02T09:30:35.180Z</time>
      </trkpt>
      <trkpt lat="43.19467" lon="2.48133">
        <ele>77.6</ele>
        <time>2015-08-02T09:30:38.263Z</time>
      </trkpt>
      <trkpt lat="43.19466" lon="2.48136">
        <ele>77.8</ele>
        <time>2015-08-02T09:30:39.204Z</time>
      </trkpt>
      <trkpt lat="43.19463" lon="2.48145">
        <ele>77.8</ele>
        <time>2015-08-02T09:30:43.240Z</time>
      </trkpt>
      <trkpt lat="43.19462" lon="2.48148">
        <ele>77.5</ele>
        <time>2015-08-02T09:30:44.179Z</time>
      </trkpt>
      <trkpt lat="43.1946" lon="2.48157">
        <ele>77.4</ele>
        <time>2015-08-02T09:30:46.231Z</time>
      </trkpt>
      <trkpt lat="43.19458" lon="2.48162">
        <ele>77.4</ele>
        <time>2015-08-02T09:30:47.203Z</time>
      </trkpt>
      <trkpt lat="43.19456" lon="2.48173">
        <ele>77.1</ele>
        <time>2015-08-02T09:30:49.253Z</time>
      </trkpt>
      <trkpt lat="43.19455" lon="2.48179">
        <ele>77.3</ele>
        <time>2015-08-02T09:30:50.181Z</time>
      </trkpt>
      <trkpt lat="43.19452" lon="2.48189">
        <ele>76.7</ele>
        <time>2015-08-02T09:30:52.232Z</time>
      </trkpt>
      <trkpt lat="43.1945" lon="2.48195">
        <ele>76.7</ele>
        <time>2015-08-02T09:30:53.186Z</time>
      </trkpt>
      <trkpt lat="43.19449" lon="2.48201">
        <ele>76.6</ele>
        <time>2015-08-02T09:30:54.251Z</time>
      </trkpt>
      <trkpt lat="43.19447" lon="2.48207">
        <ele>76.5</ele>
        <time>2015-08-02T09:30:55.192Z</time>
      </trkpt>
      <trkpt lat="43.19446" lon="2.48219">
        <ele>76.3</ele>
        <time>2015-08-02T09:30:57.369Z</time>
      </trkpt>
      <trkpt lat="43.19446" lon="2.48225">
        <ele>76.2</ele>
        <time>2015-08-02T09:30:58.180Z</time>
      </trkpt>
      <trkpt lat="43.19445" lon="2.48237">
        <ele>75.8</ele>
        <time>2015-08-02T09:31:00.229Z</time>
      </trkpt>
      <trkpt lat="43.19444" lon="2.48243">
        <ele>75.8</ele>
        <time>2015-08-02T09:31:01.185Z</time>
      </trkpt>
      <trkpt lat="43.19444" lon="2.48255">
        <ele>75.7</ele>
        <time>2015-08-02T09:31:03.261Z</time>
      </trkpt>
      <trkpt lat="43.19444" lon="2.48261">
        <ele>75.6</ele>
        <time>2015-08-02T09:31:04.190Z</time>
      </trkpt>
      <trkpt lat="43.19445" lon="2.48267">
        <ele>75.6</ele>
        <time>2015-08-02T09:31:05.295Z</time>
      </trkpt>
      <trkpt lat="43.19445" lon="2.48274">
        <ele>75.6</ele>
        <time>2015-08-02T09:31:06.189Z</time>
      </trkpt>
      <trkpt lat="43.19446" lon="2.48286">
        <ele>75.6</ele>
        <time>2015-08-02T09:31:08.534Z</time>
      </trkpt>
      <trkpt lat="43.19446" lon="2.48292">
        <ele>75.6</ele>
        <time>2015-08-02T09:31:09.180Z</time>
      </trkpt>
      <trkpt lat="43.19448" lon="2.48298">
        <ele>75.8</ele>
        <time>2015-08-02T09:31:10.227Z</time>
      </trkpt>
      <trkpt lat="43.19448" lon="2.48304">
        <ele>75.6</ele>
        <time>2015-08-02T09:31:11.181Z</time>
      </trkpt>
      <trkpt lat="43.19449" lon="2.48315">
        <ele>75.5</ele>
        <time>2015-08-02T09:31:13.235Z</time>
      </trkpt>
      <trkpt lat="43.19448" lon="2.48321">
        <ele>75.3</ele>
        <time>2015-08-02T09:31:14.180Z</time>
      </trkpt>
      <trkpt lat="43.19448" lon="2.48328">
        <ele>75.4</ele>
        <time>2015-08-02T09:31:15.228Z</time>
      </trkpt>
      <trkpt lat="43.19449" lon="2.48335">
        <ele>75.5</ele>
        <time>2015-08-02T09:31:16.180Z</time>
      </trkpt>
      <trkpt lat="43.19448" lon="2.48341">
        <ele>75.6</ele>
        <time>2015-08-02T09:31:17.230Z</time>
      </trkpt>
      <trkpt lat="43.19448" lon="2.48348">
        <ele>75.7</ele>
        <time>2015-08-02T09:31:18.178Z</time>
      </trkpt>
      <trkpt lat="43.19449" lon="2.48354">
        <ele>75.7</ele>
        <time>2015-08-02T09:31:19.236Z</time>
      </trkpt>
      <trkpt lat="43.19451" lon="2.48361">
        <ele>75.9</ele>
        <time>2015-08-02T09:31:20.179Z</time>
      </trkpt>
      <trkpt lat="43.19453" lon="2.48367">
        <ele>76.1</ele>
        <time>2015-08-02T09:31:21.226Z</time>
      </trkpt>
      <trkpt lat="43.19453" lon="2.48373">
        <ele>76.2</ele>
        <time>2015-08-02T09:31:22.179Z</time>
      </trkpt>
      <trkpt lat="43.19454" lon="2.4838">
        <ele>76.3</ele>
        <time>2015-08-02T09:31:23.229Z</time>
      </trkpt>
      <trkpt lat="43.19455" lon="2.48386">
        <ele>76.4</ele>
        <time>2015-08-02T09:31:24.178Z</time>
      </trkpt>
      <trkpt lat="43.19455" lon="2.48396">
        <ele>76.8</ele>
        <time>2015-08-02T09:31:26.231Z</time>
      </trkpt>
      <trkpt lat="43.19455" lon="2.48402">
        <ele>76.9</ele>
        <time>2015-08-02T09:31:27.183Z</time>
      </trkpt>
      <trkpt lat="43.19456" lon="2.48413">
        <ele>77</ele>
        <time>2015-08-02T09:31:29.236Z</time>
      </trkpt>
      <trkpt lat="43.19456" lon="2.48419">
        <ele>77</ele>
        <time>2015-08-02T09:31:30.180Z</time>
      </trkpt>
      <trkpt lat="43.19457" lon="2.48429">
        <ele>76.9</ele>
        <time>2015-08-02T09:31:32.243Z</time>
      </trkpt>
      <trkpt lat="43.19457" lon="2.48434">
        <ele>77</ele>
        <time>2015-08-02T09:31:33.184Z</time>
      </trkpt>
      <trkpt lat="43.19459" lon="2.48444">
        <ele>76.8</ele>
        <time>2015-08-02T09:31:35.229Z</time>
      </trkpt>
      <trkpt lat="43.1946" lon="2.48449">
        <ele>76.8</ele>
        <time>2015-08-02T09:31:36.181Z</time>
      </trkpt>
      <trkpt lat="43.19461" lon="2.48459">
        <ele>77.3</ele>
        <time>2015-08-02T09:31:38.227Z</time>
      </trkpt>
      <trkpt lat="43.19462" lon="2.48465">
        <ele>77.6</ele>
        <time>2015-08-02T09:31:39.182Z</time>
      </trkpt>
      <trkpt lat="43.19463" lon="2.48477">
        <ele>78</ele>
        <time>2015-08-02T09:31:41.278Z</time>
      </trkpt>
      <trkpt lat="43.19465" lon="2.48483">
        <ele>78.1</ele>
        <time>2015-08-02T09:31:42.189Z</time>
      </trkpt>
      <trkpt lat="43.19467" lon="2.48495">
        <ele>78.5</ele>
        <time>2015-08-02T09:31:44.231Z</time>
      </trkpt>
      <trkpt lat="43.19467" lon="2.48501">
        <ele>79</ele>
        <time>2015-08-02T09:31:45.183Z</time>
      </trkpt>
      <trkpt lat="43.19468" lon="2.48507">
        <ele>79.3</ele>
        <time>2015-08-02T09:31:46.230Z</time>
      </trkpt>
      <trkpt lat="43.19469" lon="2.48514">
        <ele>79.6</ele>
        <time>2015-08-02T09:31:47.182Z</time>
      </trkpt>
      <trkpt lat="43.19468" lon="2.48526">
        <ele>79.9</ele>
        <time>2015-08-02T09:31:49.242Z</time>
      </trkpt>
      <trkpt lat="43.19467" lon="2.48532">
        <ele>80.3</ele>
        <time>2015-08-02T09:31:50.189Z</time>
      </trkpt>
      <trkpt lat="43.19467" lon="2.48544">
        <ele>80.6</ele>
        <time>2015-08-02T09:31:52.578Z</time>
      </trkpt>
      <trkpt lat="43.19467" lon="2.4855">
        <ele>80.6</ele>
        <time>2015-08-02T09:31:53.180Z</time>
      </trkpt>
      <trkpt lat="43.19465" lon="2.48555">
        <ele>80.8</ele>
        <time>2015-08-02T09:31:54.260Z</time>
      </trkpt>
      <trkpt lat="43.19464" lon="2.48562">
        <ele>81.2</ele>
        <time>2015-08-02T09:31:55.185Z</time>
      </trkpt>
      <trkpt lat="43.19464" lon="2.48569">
        <ele>81.3</ele>
        <time>2015-08-02T09:31:56.229Z</time>
      </trkpt>
      <trkpt lat="43.19465" lon="2.48575">
        <ele>81.4</ele>
        <time>2015-08-02T09:31:57.177Z</time>
      </trkpt>
      <trkpt lat="43.19465" lon="2.48582">
        <ele>81.2</ele>
        <time>2015-08-02T09:31:58.232Z</time>
      </trkpt>
      <trkpt lat="43.19464" lon="2.48588">
        <ele>81.3</ele>
        <time>2015-08-02T09:31:59.184Z</time>
      </trkpt>
      <trkpt lat="43.19463" lon="2.48594">
        <ele>81.5</ele>
        <time>2015-08-02T09:32:00.232Z</time>
      </trkpt>
      <trkpt lat="43.19462" lon="2.48601">
        <ele>81.9</ele>
        <time>2015-08-02T09:32:01.204Z</time>
      </trkpt>
      <trkpt lat="43.19461" lon="2.48612">
        <ele>82.9</ele>
        <time>2015-08-02T09:32:03.252Z</time>
      </trkpt>
      <trkpt lat="43.1946" lon="2.48618">
        <ele>83</ele>
        <time>2015-08-02T09:32:04.179Z</time>
      </trkpt>
      <trkpt lat="43.1946" lon="2.4863">
        <ele>83</ele>
        <time>2015-08-02T09:32:06.229Z</time>
      </trkpt>
      <trkpt lat="43.1946" lon="2.48636">
        <ele>83.1</ele>
        <time>2015-08-02T09:32:07.191Z</time>
      </trkpt>
      <trkpt lat="43.19458" lon="2.48647">
        <ele>82.6</ele>
        <time>2015-08-02T09:32:09.249Z</time>
      </trkpt>
      <trkpt lat="43.19458" lon="2.48652">
        <ele>82.3</ele>
        <time>2015-08-02T09:32:10.226Z</time>
      </trkpt>
      <trkpt lat="43.19458" lon="2.48664">
        <ele>81.9</ele>
        <time>2015-08-02T09:32:12.231Z</time>
      </trkpt>
      <trkpt lat="43.19457" lon="2.48669">
        <ele>81.6</ele>
        <time>2015-08-02T09:32:13.187Z</time>
      </trkpt>
      <trkpt lat="43.19456" lon="2.48681">
        <ele>81.3</ele>
        <time>2015-08-02T09:32:15.234Z</time>
      </trkpt>
      <trkpt lat="43.19455" lon="2.48686">
        <ele>80.4</ele>
        <time>2015-08-02T09:32:16.183Z</time>
      </trkpt>
      <trkpt lat="43.19453" lon="2.48697">
        <ele>80.4</ele>
        <time>2015-08-02T09:32:18.227Z</time>
      </trkpt>
      <trkpt lat="43.19453" lon="2.48702">
        <ele>80.1</ele>
        <time>2015-08-02T09:32:19.204Z</time>
      </trkpt>
      <trkpt lat="43.19452" lon="2.48714">
        <ele>79</ele>
        <time>2015-08-02T09:32:21.240Z</time>
      </trkpt>
      <trkpt lat="43.19451" lon="2.4872">
        <ele>79.1</ele>
        <time>2015-08-02T09:32:22.180Z</time>
      </trkpt>
      <trkpt lat="43.19448" lon="2.48731">
        <ele>78.7</ele>
        <time>2015-08-02T09:32:24.257Z</time>
      </trkpt>
      <trkpt lat="43.19447" lon="2.48737">
        <ele>78.6</ele>
        <time>2015-08-02T09:32:25.182Z</time>
      </trkpt>
      <trkpt lat="43.19445" lon="2.48748">
        <ele>78.1</ele>
        <time>2015-08-02T09:32:27.231Z</time>
      </trkpt>
      <trkpt lat="43.19444" lon="2.48754">
        <ele>77.9</ele>
        <time>2015-08-02T09:32:28.190Z</time>
      </trkpt>
      <trkpt lat="43.19441" lon="2.48765">
        <ele>77.5</ele>
        <time>2015-08-02T09:32:30.243Z</time>
      </trkpt>
      <trkpt lat="43.1944" lon="2.4877">
        <ele>77.2</ele>
        <time>2015-08-02T09:32:31.204Z</time>
      </trkpt>
      <trkpt lat="43.19438" lon="2.48781">
        <ele>77.2</ele>
        <time>2015-08-02T09:32:33.262Z</time>
      </trkpt>
      <trkpt lat="43.19437" lon="2.48786">
        <ele>76.9</ele>
        <time>2015-08-02T09:32:34.190Z</time>
      </trkpt>
      <trkpt lat="43.19434" lon="2.48797">
        <ele>76.8</ele>
        <time>2015-08-02T09:32:36.226Z</time>
      </trkpt>
      <trkpt lat="43.19432" lon="2.48802">
        <ele>76.6</ele>
        <time>2015-08-02T09:32:37.182Z</time>
      </trkpt>
      <trkpt lat="43.19429" lon="2.48812">
        <ele>76.3</ele>
        <time>2015-08-02T09:32:39.229Z</time>
      </trkpt>
      <trkpt lat="43.19428" lon="2.48817">
        <ele>76</ele>
        <time>2015-08-02T09:32:40.183Z</time>
      </trkpt>
      <trkpt lat="43.19425" lon="2.48827">
        <ele>75.8</ele>
        <time>2015-08-02T09:32:42.221Z</time>
      </trkpt>
      <trkpt lat="43.19424" lon="2.48832">
        <ele>75.9</ele>
        <time>2015-08-02T09:32:43.187Z</time>
      </trkpt>
      <trkpt lat="43.19422" lon="2.48842">
        <ele>75.8</ele>
        <time>2015-08-02T09:32:45.231Z</time>
      </trkpt>
      <trkpt lat="43.1942" lon="2.48848">
        <ele>75.5</ele>
        <time>2015-08-02T09:32:46.180Z</time>
      </trkpt>
      <trkpt lat="43.19417" lon="2.48858">
        <ele>74.6</ele>
        <time>2015-08-02T09:32:48.219Z</time>
      </trkpt>
      <trkpt lat="43.19416" lon="2.48863">
        <ele>74.3</ele>
        <time>2015-08-02T09:32:49.205Z</time>
      </trkpt>
      <trkpt lat="43.19413" lon="2.48873">
        <ele>73.9</ele>
        <time>2015-08-02T09:32:51.227Z</time>
      </trkpt>
      <trkpt lat="43.19411" lon="2.48878">
        <ele>73.8</ele>
        <time>2015-08-02T09:32:52.183Z</time>
      </trkpt>
      <trkpt lat="43.19409" lon="2.48887">
        <ele>73.7</ele>
        <time>2015-08-02T09:32:54.222Z</time>
      </trkpt>
      <trkpt lat="43.19408" lon="2.48892">
        <ele>73.3</ele>
        <time>2015-08-02T09:32:55.181Z</time>
      </trkpt>
      <trkpt lat="43.19405" lon="2.48901">
        <ele>72.8</ele>
        <time>2015-08-02T09:32:57.279Z</time>
      </trkpt>
      <trkpt lat="43.19404" lon="2.48905">
        <ele>72.1</ele>
        <time>2015-08-02T09:32:58.177Z</time>
      </trkpt>
      <trkpt lat="43.19401" lon="2.48915">
        <ele>72.1</ele>
        <time>2015-08-02T09:33:00.222Z</time>
      </trkpt>
      <trkpt lat="43.19399" lon="2.4892">
        <ele>71.9</ele>
        <time>2015-08-02T09:33:01.180Z</time>
      </trkpt>
      <trkpt lat="43.19397" lon="2.48929">
        <ele>71.9</ele>
        <time>2015-08-02T09:33:03.226Z</time>
      </trkpt>
      <trkpt lat="43.19396" lon="2.48935">
        <ele>72.8</ele>
        <time>2015-08-02T09:33:04.189Z</time>
      </trkpt>
      <trkpt lat="43.19395" lon="2.48941">
        <ele>72.9</ele>
        <time>2015-08-02T09:33:05.241Z</time>
      </trkpt>
      <trkpt lat="43.19392" lon="2.48947">
        <ele>73</ele>
        <time>2015-08-02T09:33:06.183Z</time>
      </trkpt>
      <trkpt lat="43.1939" lon="2.48958">
        <ele>73.4</ele>
        <time>2015-08-02T09:33:08.256Z</time>
      </trkpt>
      <trkpt lat="43.19387" lon="2.48964">
        <ele>73.6</ele>
        <time>2015-08-02T09:33:09.187Z</time>
      </trkpt>
      <trkpt lat="43.19385" lon="2.48969">
        <ele>73.2</ele>
        <time>2015-08-02T09:33:10.227Z</time>
      </trkpt>
      <trkpt lat="43.19384" lon="2.48975">
        <ele>73.6</ele>
        <time>2015-08-02T09:33:11.201Z</time>
      </trkpt>
      <trkpt lat="43.19381" lon="2.48986">
        <ele>73</ele>
        <time>2015-08-02T09:33:13.235Z</time>
      </trkpt>
      <trkpt lat="43.19381" lon="2.48992">
        <ele>73.2</ele>
        <time>2015-08-02T09:33:14.180Z</time>
      </trkpt>
      <trkpt lat="43.19379" lon="2.49003">
        <ele>73.4</ele>
        <time>2015-08-02T09:33:16.224Z</time>
      </trkpt>
      <trkpt lat="43.19379" lon="2.49008">
        <ele>73.4</ele>
        <time>2015-08-02T09:33:17.179Z</time>
      </trkpt>
      <trkpt lat="43.19379" lon="2.49019">
        <ele>73.9</ele>
        <time>2015-08-02T09:33:19.262Z</time>
      </trkpt>
      <trkpt lat="43.19379" lon="2.49024">
        <ele>74.1</ele>
        <time>2015-08-02T09:33:20.190Z</time>
      </trkpt>
      <trkpt lat="43.1938" lon="2.49035">
        <ele>74.2</ele>
        <time>2015-08-02T09:33:22.222Z</time>
      </trkpt>
      <trkpt lat="43.19381" lon="2.49041">
        <ele>74.6</ele>
        <time>2015-08-02T09:33:23.182Z</time>
      </trkpt>
      <trkpt lat="43.19383" lon="2.49052">
        <ele>75.1</ele>
        <time>2015-08-02T09:33:25.228Z</time>
      </trkpt>
      <trkpt lat="43.19383" lon="2.49058">
        <ele>75.2</ele>
        <time>2015-08-02T09:33:26.179Z</time>
      </trkpt>
      <trkpt lat="43.19384" lon="2.49069">
        <ele>75.3</ele>
        <time>2015-08-02T09:33:28.251Z</time>
      </trkpt>
      <trkpt lat="43.19385" lon="2.49073">
        <ele>75.7</ele>
        <time>2015-08-02T09:33:29.204Z</time>
      </trkpt>
      <trkpt lat="43.19386" lon="2.49082">
        <ele>76.2</ele>
        <time>2015-08-02T09:33:31.229Z</time>
      </trkpt>
      <trkpt lat="43.19387" lon="2.49086">
        <ele>76.4</ele>
        <time>2015-08-02T09:33:32.181Z</time>
      </trkpt>
      <trkpt lat="43.19388" lon="2.49094">
        <ele>77</ele>
        <time>2015-08-02T09:33:34.234Z</time>
      </trkpt>
      <trkpt lat="43.19389" lon="2.49098">
        <ele>77.4</ele>
        <time>2015-08-02T09:33:35.183Z</time>
      </trkpt>
      <trkpt lat="43.19391" lon="2.49108">
        <ele>78</ele>
        <time>2015-08-02T09:33:37.251Z</time>
      </trkpt>
      <trkpt lat="43.19393" lon="2.49113">
        <ele>78.1</ele>
        <time>2015-08-02T09:33:38.190Z</time>
      </trkpt>
      <trkpt lat="43.19396" lon="2.49121">
        <ele>78.8</ele>
        <time>2015-08-02T09:33:40.568Z</time>
      </trkpt>
      <trkpt lat="43.19397" lon="2.49126">
        <ele>79.1</ele>
        <time>2015-08-02T09:33:41.180Z</time>
      </trkpt>
      <trkpt lat="43.19399" lon="2.49136">
        <ele>79.6</ele>
        <time>2015-08-02T09:33:43.230Z</time>
      </trkpt>
      <trkpt lat="43.19401" lon="2.49141">
        <ele>80.1</ele>
        <time>2015-08-02T09:33:44.180Z</time>
      </trkpt>
      <trkpt lat="43.19405" lon="2.49152">
        <ele>80.7</ele>
        <time>2015-08-02T09:33:46.247Z</time>
      </trkpt>
      <trkpt lat="43.19407" lon="2.49158">
        <ele>81.1</ele>
        <time>2015-08-02T09:33:47.190Z</time>
      </trkpt>
      <trkpt lat="43.19409" lon="2.49164">
        <ele>81.5</ele>
        <time>2015-08-02T09:33:48.220Z</time>
      </trkpt>
      <trkpt lat="43.19412" lon="2.4917">
        <ele>81.9</ele>
        <time>2015-08-02T09:33:49.186Z</time>
      </trkpt>
      <trkpt lat="43.19417" lon="2.4918">
        <ele>82.7</ele>
        <time>2015-08-02T09:33:51.221Z</time>
      </trkpt>
      <trkpt lat="43.19419" lon="2.49185">
        <ele>83.1</ele>
        <time>2015-08-02T09:33:52.180Z</time>
      </trkpt>
      <trkpt lat="43.19421" lon="2.49195">
        <ele>83.7</ele>
        <time>2015-08-02T09:33:54.220Z</time>
      </trkpt>
      <trkpt lat="43.19424" lon="2.492">
        <ele>84.3</ele>
        <time>2015-08-02T09:33:55.194Z</time>
      </trkpt>
      <trkpt lat="43.19426" lon="2.49205">
        <ele>84.5</ele>
        <time>2015-08-02T09:33:56.220Z</time>
      </trkpt>
      <trkpt lat="43.19429" lon="2.49211">
        <ele>84.9</ele>
        <time>2015-08-02T09:33:57.183Z</time>
      </trkpt>
      <trkpt lat="43.19433" lon="2.49217">
        <ele>85</ele>
        <time>2015-08-02T09:33:58.226Z</time>
      </trkpt>
      <trkpt lat="43.19436" lon="2.49223">
        <ele>85.4</ele>
        <time>2015-08-02T09:33:59.184Z</time>
      </trkpt>
      <trkpt lat="43.19439" lon="2.49229">
        <ele>85.5</ele>
        <time>2015-08-02T09:34:00.230Z</time>
      </trkpt>
      <trkpt lat="43.19441" lon="2.49233">
        <ele>85.7</ele>
        <time>2015-08-02T09:34:01.186Z</time>
      </trkpt>
      <trkpt lat="43.19446" lon="2.49243">
        <ele>86.2</ele>
        <time>2015-08-02T09:34:03.260Z</time>
      </trkpt>
      <trkpt lat="43.1945" lon="2.49247">
        <ele>86.5</ele>
        <time>2015-08-02T09:34:04.206Z</time>
      </trkpt>
      <trkpt lat="43.19456" lon="2.49254">
        <ele>87.1</ele>
        <time>2015-08-02T09:34:06.571Z</time>
      </trkpt>
      <trkpt lat="43.1946" lon="2.49258">
        <ele>87.4</ele>
        <time>2015-08-02T09:34:07.184Z</time>
      </trkpt>
      <trkpt lat="43.19463" lon="2.49261">
        <ele>87.5</ele>
        <time>2015-08-02T09:34:08.222Z</time>
      </trkpt>
      <trkpt lat="43.19468" lon="2.49264">
        <ele>87.7</ele>
        <time>2015-08-02T09:34:09.181Z</time>
      </trkpt>
      <trkpt lat="43.19472" lon="2.49268">
        <ele>88</ele>
        <time>2015-08-02T09:34:10.216Z</time>
      </trkpt>
      <trkpt lat="43.19476" lon="2.49272">
        <ele>88.2</ele>
        <time>2015-08-02T09:34:11.177Z</time>
      </trkpt>
      <trkpt lat="43.19484" lon="2.49277">
        <ele>88.4</ele>
        <time>2015-08-02T09:34:13.581Z</time>
      </trkpt>
      <trkpt lat="43.19488" lon="2.4928">
        <ele>88.7</ele>
        <time>2015-08-02T09:34:14.181Z</time>
      </trkpt>
      <trkpt lat="43.19496" lon="2.49283">
        <ele>88.9</ele>
        <time>2015-08-02T09:34:16.230Z</time>
      </trkpt>
      <trkpt lat="43.19499" lon="2.49285">
        <ele>88.8</ele>
        <time>2015-08-02T09:34:17.180Z</time>
      </trkpt>
      <trkpt lat="43.19504" lon="2.49292">
        <ele>88.7</ele>
        <time>2015-08-02T09:34:19.230Z</time>
      </trkpt>
      <trkpt lat="43.19507" lon="2.49296">
        <ele>88.9</ele>
        <time>2015-08-02T09:34:20.181Z</time>
      </trkpt>
      <trkpt lat="43.1951" lon="2.49305">
        <ele>89.2</ele>
        <time>2015-08-02T09:34:22.249Z</time>
      </trkpt>
      <trkpt lat="43.19511" lon="2.4931">
        <ele>89.2</ele>
        <time>2015-08-02T09:34:23.203Z</time>
      </trkpt>
      <trkpt lat="43.19512" lon="2.49317">
        <ele>89</ele>
        <time>2015-08-02T09:34:24.222Z</time>
      </trkpt>
      <trkpt lat="43.19515" lon="2.49326">
        <ele>88.1</ele>
        <time>2015-08-02T09:34:25.182Z</time>
      </trkpt>
      <trkpt lat="43.19516" lon="2.49335">
        <ele>87.9</ele>
        <time>2015-08-02T09:34:26.380Z</time>
      </trkpt>
      <trkpt lat="43.19516" lon="2.49343">
        <ele>87.7</ele>
        <time>2015-08-02T09:34:27.189Z</time>
      </trkpt>
      <trkpt lat="43.19517" lon="2.49351">
        <ele>87.2</ele>
        <time>2015-08-02T09:34:28.222Z</time>
      </trkpt>
      <trkpt lat="43.19517" lon="2.49359">
        <ele>87</ele>
        <time>2015-08-02T09:34:29.180Z</time>
      </trkpt>
      <trkpt lat="43.19516" lon="2.49366">
        <ele>86.9</ele>
        <time>2015-08-02T09:34:30.244Z</time>
      </trkpt>
      <trkpt lat="43.19515" lon="2.49373">
        <ele>86.7</ele>
        <time>2015-08-02T09:34:31.205Z</time>
      </trkpt>
      <trkpt lat="43.19513" lon="2.49379">
        <ele>86.2</ele>
        <time>2015-08-02T09:34:32.223Z</time>
      </trkpt>
      <trkpt lat="43.19512" lon="2.49386">
        <ele>86.6</ele>
        <time>2015-08-02T09:34:33.179Z</time>
      </trkpt>
      <trkpt lat="43.19511" lon="2.49392">
        <ele>86.5</ele>
        <time>2015-08-02T09:34:34.223Z</time>
      </trkpt>
      <trkpt lat="43.1951" lon="2.49398">
        <ele>85.7</ele>
        <time>2015-08-02T09:34:35.182Z</time>
      </trkpt>
      <trkpt lat="43.19508" lon="2.49404">
        <ele>85.2</ele>
        <time>2015-08-02T09:34:36.225Z</time>
      </trkpt>
      <trkpt lat="43.19507" lon="2.4941">
        <ele>84.6</ele>
        <time>2015-08-02T09:34:37.191Z</time>
      </trkpt>
      <trkpt lat="43.19505" lon="2.49416">
        <ele>84.2</ele>
        <time>2015-08-02T09:34:38.222Z</time>
      </trkpt>
      <trkpt lat="43.19504" lon="2.49421">
        <ele>83.9</ele>
        <time>2015-08-02T09:34:39.191Z</time>
      </trkpt>
      <trkpt lat="43.19502" lon="2.49427">
        <ele>83.6</ele>
        <time>2015-08-02T09:34:40.251Z</time>
      </trkpt>
      <trkpt lat="43.195" lon="2.49433">
        <ele>83.3</ele>
        <time>2015-08-02T09:34:41.191Z</time>
      </trkpt>
      <trkpt lat="43.19497" lon="2.49443">
        <ele>82.8</ele>
        <time>2015-08-02T09:34:43.224Z</time>
      </trkpt>
      <trkpt lat="43.19496" lon="2.49448">
        <ele>82.5</ele>
        <time>2015-08-02T09:34:44.180Z</time>
      </trkpt>
      <trkpt lat="43.19493" lon="2.49459">
        <ele>82.1</ele>
        <time>2015-08-02T09:34:46.222Z</time>
      </trkpt>
      <trkpt lat="43.19492" lon="2.49465">
        <ele>81.9</ele>
        <time>2015-08-02T09:34:47.185Z</time>
      </trkpt>
      <trkpt lat="43.1949" lon="2.49475">
        <ele>81.4</ele>
        <time>2015-08-02T09:34:49.250Z</time>
      </trkpt>
      <trkpt lat="43.1949" lon="2.49481">
        <ele>81.4</ele>
        <time>2015-08-02T09:34:50.191Z</time>
      </trkpt>
      <trkpt lat="43.19489" lon="2.49491">
        <ele>82.1</ele>
        <time>2015-08-02T09:34:52.221Z</time>
      </trkpt>
      <trkpt lat="43.19489" lon="2.49496">
        <ele>82</ele>
        <time>2015-08-02T09:34:53.180Z</time>
      </trkpt>
      <trkpt lat="43.1949" lon="2.49505">
        <ele>82.1</ele>
        <time>2015-08-02T09:34:55.231Z</time>
      </trkpt>
      <trkpt lat="43.1949" lon="2.49509">
        <ele>82.2</ele>
        <time>2015-08-02T09:34:56.199Z</time>
      </trkpt>
      <trkpt lat="43.1949" lon="2.49521">
        <ele>83</ele>
        <time>2015-08-02T09:35:01.223Z</time>
      </trkpt>
      <trkpt lat="43.1949" lon="2.49524">
        <ele>83.1</ele>
        <time>2015-08-02T09:35:02.177Z</time>
      </trkpt>
      <trkpt lat="43.19492" lon="2.49533">
        <ele>82.7</ele>
        <time>2015-08-02T09:35:05.222Z</time>
      </trkpt>
      <trkpt lat="43.19492" lon="2.49537">
        <ele>82.3</ele>
        <time>2015-08-02T09:35:06.182Z</time>
      </trkpt>
      <trkpt lat="43.19493" lon="2.49547">
        <ele>81.9</ele>
        <time>2015-08-02T09:35:08.218Z</time>
      </trkpt>
      <trkpt lat="43.19493" lon="2.49552">
        <ele>81.6</ele>
        <time>2015-08-02T09:35:09.184Z</time>
      </trkpt>
      <trkpt lat="43.19495" lon="2.49563">
        <ele>81.2</ele>
        <time>2015-08-02T09:35:11.231Z</time>
      </trkpt>
      <trkpt lat="43.19496" lon="2.49569">
        <ele>80.9</ele>
        <time>2015-08-02T09:35:12.221Z</time>
      </trkpt>
      <trkpt lat="43.19498" lon="2.4958">
        <ele>80.4</ele>
        <time>2015-08-02T09:35:14.212Z</time>
      </trkpt>
      <trkpt lat="43.19498" lon="2.49586">
        <ele>80.2</ele>
        <time>2015-08-02T09:35:15.180Z</time>
      </trkpt>
      <trkpt lat="43.195" lon="2.49593">
        <ele>80</ele>
        <time>2015-08-02T09:35:16.556Z</time>
      </trkpt>
      <trkpt lat="43.19501" lon="2.49599">
        <ele>79.8</ele>
        <time>2015-08-02T09:35:17.180Z</time>
      </trkpt>
      <trkpt lat="43.19501" lon="2.49605">
        <ele>79.7</ele>
        <time>2015-08-02T09:35:18.216Z</time>
      </trkpt>
      <trkpt lat="43.19502" lon="2.49611">
        <ele>79.5</ele>
        <time>2015-08-02T09:35:19.188Z</time>
      </trkpt>
      <trkpt lat="43.19504" lon="2.49623">
        <ele>79.2</ele>
        <time>2015-08-02T09:35:21.228Z</time>
      </trkpt>
      <trkpt lat="43.19505" lon="2.49629">
        <ele>79</ele>
        <time>2015-08-02T09:35:22.177Z</time>
      </trkpt>
      <trkpt lat="43.19506" lon="2.4964">
        <ele>79</ele>
        <time>2015-08-02T09:35:24.562Z</time>
      </trkpt>
      <trkpt lat="43.19506" lon="2.49645">
        <ele>78.9</ele>
        <time>2015-08-02T09:35:25.187Z</time>
      </trkpt>
      <trkpt lat="43.19507" lon="2.49655">
        <ele>78.1</ele>
        <time>2015-08-02T09:35:27.262Z</time>
      </trkpt>
      <trkpt lat="43.19507" lon="2.49661">
        <ele>77.9</ele>
        <time>2015-08-02T09:35:28.189Z</time>
      </trkpt>
      <trkpt lat="43.19508" lon="2.49672">
        <ele>77.9</ele>
        <time>2015-08-02T09:35:30.243Z</time>
      </trkpt>
      <trkpt lat="43.19508" lon="2.49678">
        <ele>77.7</ele>
        <time>2015-08-02T09:35:31.192Z</time>
      </trkpt>
      <trkpt lat="43.19509" lon="2.49684">
        <ele>78.2</ele>
        <time>2015-08-02T09:35:32.275Z</time>
      </trkpt>
      <trkpt lat="43.1951" lon="2.4969">
        <ele>78.1</ele>
        <time>2015-08-02T09:35:33.202Z</time>
      </trkpt>
      <trkpt lat="43.1951" lon="2.49697">
        <ele>77.7</ele>
        <time>2015-08-02T09:35:34.509Z</time>
      </trkpt>
      <trkpt lat="43.19511" lon="2.49703">
        <ele>78</ele>
        <time>2015-08-02T09:35:35.178Z</time>
      </trkpt>
      <trkpt lat="43.19511" lon="2.4971">
        <ele>77.5</ele>
        <time>2015-08-02T09:35:36.223Z</time>
      </trkpt>
      <trkpt lat="43.19511" lon="2.49716">
        <ele>77.2</ele>
        <time>2015-08-02T09:35:37.189Z</time>
      </trkpt>
      <trkpt lat="43.19511" lon="2.49722">
        <ele>77</ele>
        <time>2015-08-02T09:35:38.222Z</time>
      </trkpt>
      <trkpt lat="43.19512" lon="2.49729">
        <ele>76.6</ele>
        <time>2015-08-02T09:35:39.185Z</time>
      </trkpt>
      <trkpt lat="43.19513" lon="2.49735">
        <ele>76.6</ele>
        <time>2015-08-02T09:35:40.229Z</time>
      </trkpt>
      <trkpt lat="43.19513" lon="2.49741">
        <ele>76.3</ele>
        <time>2015-08-02T09:35:41.178Z</time>
      </trkpt>
      <trkpt lat="43.19513" lon="2.49748">
        <ele>76.2</ele>
        <time>2015-08-02T09:35:42.260Z</time>
      </trkpt>
      <trkpt lat="43.19513" lon="2.49755">
        <ele>76.1</ele>
        <time>2015-08-02T09:35:43.205Z</time>
      </trkpt>
      <trkpt lat="43.19513" lon="2.49762">
        <ele>75.9</ele>
        <time>2015-08-02T09:35:44.221Z</time>
      </trkpt>
      <trkpt lat="43.19513" lon="2.49769">
        <ele>75.7</ele>
        <time>2015-08-02T09:35:45.177Z</time>
      </trkpt>
      <trkpt lat="43.19513" lon="2.49776">
        <ele>75.7</ele>
        <time>2015-08-02T09:35:46.222Z</time>
      </trkpt>
      <trkpt lat="43.19513" lon="2.49783">
        <ele>75.5</ele>
        <time>2015-08-02T09:35:47.179Z</time>
      </trkpt>
      <trkpt lat="43.19514" lon="2.4979">
        <ele>75.4</ele>
        <time>2015-08-02T09:35:48.220Z</time>
      </trkpt>
      <trkpt lat="43.19514" lon="2.49797">
        <ele>75.4</ele>
        <time>2015-08-02T09:35:49.185Z</time>
      </trkpt>
      <trkpt lat="43.19515" lon="2.49804">
        <ele>75.5</ele>
        <time>2015-08-02T09:35:50.222Z</time>
      </trkpt>
      <trkpt lat="43.19514" lon="2.49811">
        <ele>75.3</ele>
        <time>2015-08-02T09:35:51.204Z</time>
      </trkpt>
      <trkpt lat="43.19514" lon="2.49818">
        <ele>75.3</ele>
        <time>2015-08-02T09:35:52.221Z</time>
      </trkpt>
      <trkpt lat="43.19514" lon="2.49825">
        <ele>75.1</ele>
        <time>2015-08-02T09:35:53.187Z</time>
      </trkpt>
      <trkpt lat="43.19513" lon="2.49832">
        <ele>74.9</ele>
        <time>2015-08-02T09:35:54.225Z</time>
      </trkpt>
      <trkpt lat="43.19513" lon="2.49839">
        <ele>74.7</ele>
        <time>2015-08-02T09:35:55.183Z</time>
      </trkpt>
      <trkpt lat="43.19512" lon="2.49845">
        <ele>74.9</ele>
        <time>2015-08-02T09:35:56.219Z</time>
      </trkpt>
      <trkpt lat="43.19511" lon="2.49851">
        <ele>74.6</ele>
        <time>2015-08-02T09:35:57.178Z</time>
      </trkpt>
      <trkpt lat="43.1951" lon="2.49858">
        <ele>74.6</ele>
        <time>2015-08-02T09:35:58.365Z</time>
      </trkpt>
      <trkpt lat="43.19508" lon="2.49864">
        <ele>74.6</ele>
        <time>2015-08-02T09:35:59.202Z</time>
      </trkpt>
      <trkpt lat="43.19506" lon="2.49871">
        <ele>74.6</ele>
        <time>2015-08-02T09:36:00.220Z</time>
      </trkpt>
      <trkpt lat="43.19504" lon="2.49878">
        <ele>74.7</ele>
        <time>2015-08-02T09:36:01.186Z</time>
      </trkpt>
      <trkpt lat="43.19503" lon="2.49884">
        <ele>74.6</ele>
        <time>2015-08-02T09:36:02.222Z</time>
      </trkpt>
      <trkpt lat="43.19501" lon="2.49891">
        <ele>74.5</ele>
        <time>2015-08-02T09:36:03.186Z</time>
      </trkpt>
      <trkpt lat="43.19499" lon="2.49897">
        <ele>74.5</ele>
        <time>2015-08-02T09:36:04.222Z</time>
      </trkpt>
      <trkpt lat="43.19497" lon="2.49904">
        <ele>74.4</ele>
        <time>2015-08-02T09:36:05.185Z</time>
      </trkpt>
      <trkpt lat="43.19495" lon="2.4991">
        <ele>74.4</ele>
        <time>2015-08-02T09:36:06.261Z</time>
      </trkpt>
      <trkpt lat="43.19494" lon="2.49917">
        <ele>74.2</ele>
        <time>2015-08-02T09:36:07.204Z</time>
      </trkpt>
      <trkpt lat="43.19492" lon="2.49923">
        <ele>74.2</ele>
        <time>2015-08-02T09:36:08.247Z</time>
      </trkpt>
      <trkpt lat="43.1949" lon="2.49929">
        <ele>74.1</ele>
        <time>2015-08-02T09:36:09.203Z</time>
      </trkpt>
      <trkpt lat="43.19488" lon="2.49936">
        <ele>74</ele>
        <time>2015-08-02T09:36:10.222Z</time>
      </trkpt>
      <trkpt lat="43.19486" lon="2.49942">
        <ele>73.9</ele>
        <time>2015-08-02T09:36:11.177Z</time>
      </trkpt>
      <trkpt lat="43.19484" lon="2.49948">
        <ele>73.5</ele>
        <time>2015-08-02T09:36:12.224Z</time>
      </trkpt>
      <trkpt lat="43.19482" lon="2.49954">
        <ele>73.3</ele>
        <time>2015-08-02T09:36:13.183Z</time>
      </trkpt>
      <trkpt lat="43.1948" lon="2.4996">
        <ele>73</ele>
        <time>2015-08-02T09:36:14.213Z</time>
      </trkpt>
      <trkpt lat="43.19478" lon="2.49965">
        <ele>72.4</ele>
        <time>2015-08-02T09:36:15.178Z</time>
      </trkpt>
      <trkpt lat="43.19477" lon="2.49977">
        <ele>72</ele>
        <time>2015-08-02T09:36:17.225Z</time>
      </trkpt>
      <trkpt lat="43.19475" lon="2.49983">
        <ele>71.6</ele>
        <time>2015-08-02T09:36:18.179Z</time>
      </trkpt>
      <trkpt lat="43.19474" lon="2.49994">
        <ele>71.2</ele>
        <time>2015-08-02T09:36:20.219Z</time>
      </trkpt>
      <trkpt lat="43.19474" lon="2.49999">
        <ele>71.2</ele>
        <time>2015-08-02T09:36:21.186Z</time>
      </trkpt>
      <trkpt lat="43.19473" lon="2.5001">
        <ele>70.7</ele>
        <time>2015-08-02T09:36:23.230Z</time>
      </trkpt>
      <trkpt lat="43.19472" lon="2.50016">
        <ele>70.4</ele>
        <time>2015-08-02T09:36:24.180Z</time>
      </trkpt>
      <trkpt lat="43.19471" lon="2.50028">
        <ele>70.1</ele>
        <time>2015-08-02T09:36:26.222Z</time>
      </trkpt>
      <trkpt lat="43.19471" lon="2.50034">
        <ele>70</ele>
        <time>2015-08-02T09:36:27.181Z</time>
      </trkpt>
      <trkpt lat="43.19471" lon="2.50046">
        <ele>69.6</ele>
        <time>2015-08-02T09:36:29.231Z</time>
      </trkpt>
      <trkpt lat="43.19471" lon="2.50052">
        <ele>69.4</ele>
        <time>2015-08-02T09:36:30.179Z</time>
      </trkpt>
      <trkpt lat="43.19471" lon="2.50058">
        <ele>69.3</ele>
        <time>2015-08-02T09:36:31.230Z</time>
      </trkpt>
      <trkpt lat="43.19473" lon="2.50064">
        <ele>69.2</ele>
        <time>2015-08-02T09:36:32.181Z</time>
      </trkpt>
      <trkpt lat="43.19474" lon="2.50076">
        <ele>68.9</ele>
        <time>2015-08-02T09:36:34.260Z</time>
      </trkpt>
      <trkpt lat="43.19476" lon="2.50082">
        <ele>68.9</ele>
        <time>2015-08-02T09:36:35.189Z</time>
      </trkpt>
      <trkpt lat="43.19478" lon="2.50094">
        <ele>68.7</ele>
        <time>2015-08-02T09:36:37.261Z</time>
      </trkpt>
      <trkpt lat="43.19479" lon="2.501">
        <ele>68.8</ele>
        <time>2015-08-02T09:36:38.189Z</time>
      </trkpt>
      <trkpt lat="43.1948" lon="2.50112">
        <ele>68.9</ele>
        <time>2015-08-02T09:36:40.242Z</time>
      </trkpt>
      <trkpt lat="43.19481" lon="2.50118">
        <ele>68.9</ele>
        <time>2015-08-02T09:36:41.202Z</time>
      </trkpt>
      <trkpt lat="43.19483" lon="2.50129">
        <ele>68.7</ele>
        <time>2015-08-02T09:36:43.236Z</time>
      </trkpt>
      <trkpt lat="43.19484" lon="2.50135">
        <ele>68.7</ele>
        <time>2015-08-02T09:36:44.180Z</time>
      </trkpt>
      <trkpt lat="43.19485" lon="2.50142">
        <ele>68.7</ele>
        <time>2015-08-02T09:36:45.226Z</time>
      </trkpt>
      <trkpt lat="43.19485" lon="2.50148">
        <ele>69</ele>
        <time>2015-08-02T09:36:46.179Z</time>
      </trkpt>
      <trkpt lat="43.19486" lon="2.5016">
        <ele>69</ele>
        <time>2015-08-02T09:36:48.222Z</time>
      </trkpt>
      <trkpt lat="43.19486" lon="2.50166">
        <ele>69.1</ele>
        <time>2015-08-02T09:36:49.204Z</time>
      </trkpt>
      <trkpt lat="43.19488" lon="2.50177">
        <ele>69.3</ele>
        <time>2015-08-02T09:36:51.239Z</time>
      </trkpt>
      <trkpt lat="43.19489" lon="2.50183">
        <ele>69.4</ele>
        <time>2015-08-02T09:36:52.180Z</time>
      </trkpt>
      <trkpt lat="43.1949" lon="2.50189">
        <ele>69.4</ele>
        <time>2015-08-02T09:36:53.227Z</time>
      </trkpt>
      <trkpt lat="43.19491" lon="2.50195">
        <ele>69.4</ele>
        <time>2015-08-02T09:36:54.181Z</time>
      </trkpt>
      <trkpt lat="43.19492" lon="2.502">
        <ele>69.3</ele>
        <time>2015-08-02T09:36:55.239Z</time>
      </trkpt>
      <trkpt lat="43.19494" lon="2.50206">
        <ele>69.5</ele>
        <time>2015-08-02T09:36:56.180Z</time>
      </trkpt>
      <trkpt lat="43.19497" lon="2.50218">
        <ele>69.6</ele>
        <time>2015-08-02T09:36:58.245Z</time>
      </trkpt>
      <trkpt lat="43.19498" lon="2.50223">
        <ele>69.6</ele>
        <time>2015-08-02T09:36:59.219Z</time>
      </trkpt>
      <trkpt lat="43.19499" lon="2.50229">
        <ele>69.4</ele>
        <time>2015-08-02T09:37:00.221Z</time>
      </trkpt>
      <trkpt lat="43.19503" lon="2.50235">
        <ele>70.4</ele>
        <time>2015-08-02T09:37:01.186Z</time>
      </trkpt>
      <trkpt lat="43.19505" lon="2.50242">
        <ele>71.2</ele>
        <time>2015-08-02T09:37:02.587Z</time>
      </trkpt>
      <trkpt lat="43.19508" lon="2.50247">
        <ele>71.9</ele>
        <time>2015-08-02T09:37:03.182Z</time>
      </trkpt>
      <trkpt lat="43.1951" lon="2.50253">
        <ele>72.6</ele>
        <time>2015-08-02T09:37:04.227Z</time>
      </trkpt>
      <trkpt lat="43.19512" lon="2.50259">
        <ele>72.7</ele>
        <time>2015-08-02T09:37:05.185Z</time>
      </trkpt>
      <trkpt lat="43.19513" lon="2.50264">
        <ele>72.9</ele>
        <time>2015-08-02T09:37:06.220Z</time>
      </trkpt>
      <trkpt lat="43.19516" lon="2.5027">
        <ele>73.3</ele>
        <time>2015-08-02T09:37:07.204Z</time>
      </trkpt>
      <trkpt lat="43.1952" lon="2.5028">
        <ele>73.8</ele>
        <time>2015-08-02T09:37:09.228Z</time>
      </trkpt>
      <trkpt lat="43.19522" lon="2.50284">
        <ele>73.9</ele>
        <time>2015-08-02T09:37:10.181Z</time>
      </trkpt>
      <trkpt lat="43.19525" lon="2.50292">
        <ele>74.1</ele>
        <time>2015-08-02T09:37:12.561Z</time>
      </trkpt>
      <trkpt lat="43.19526" lon="2.50296">
        <ele>74.2</ele>
        <time>2015-08-02T09:37:13.191Z</time>
      </trkpt>
      <trkpt lat="43.1953" lon="2.50305">
        <ele>74.6</ele>
        <time>2015-08-02T09:37:15.218Z</time>
      </trkpt>
      <trkpt lat="43.19531" lon="2.50311">
        <ele>74.6</ele>
        <time>2015-08-02T09:37:16.179Z</time>
      </trkpt>
      <trkpt lat="43.19533" lon="2.50317">
        <ele>74.8</ele>
        <time>2015-08-02T09:37:17.212Z</time>
      </trkpt>
      <trkpt lat="43.19534" lon="2.50324">
        <ele>74.8</ele>
        <time>2015-08-02T09:37:18.179Z</time>
      </trkpt>
      <trkpt lat="43.19535" lon="2.50329">
        <ele>74.7</ele>
        <time>2015-08-02T09:37:19.220Z</time>
      </trkpt>
      <trkpt lat="43.19538" lon="2.50336">
        <ele>74.9</ele>
        <time>2015-08-02T09:37:20.182Z</time>
      </trkpt>
      <trkpt lat="43.19539" lon="2.50341">
        <ele>75</ele>
        <time>2015-08-02T09:37:21.229Z</time>
      </trkpt>
      <trkpt lat="43.19542" lon="2.50347">
        <ele>75.2</ele>
        <time>2015-08-02T09:37:22.180Z</time>
      </trkpt>
      <trkpt lat="43.19544" lon="2.50353">
        <ele>75.4</ele>
        <time>2015-08-02T09:37:23.229Z</time>
      </trkpt>
      <trkpt lat="43.19546" lon="2.50359">
        <ele>75.6</ele>
        <time>2015-08-02T09:37:24.181Z</time>
      </trkpt>
      <trkpt lat="43.19549" lon="2.5037">
        <ele>75.9</ele>
        <time>2015-08-02T09:37:26.218Z</time>
      </trkpt>
      <trkpt lat="43.1955" lon="2.50376">
        <ele>75.5</ele>
        <time>2015-08-02T09:37:27.187Z</time>
      </trkpt>
      <trkpt lat="43.19551" lon="2.50383">
        <ele>75.6</ele>
        <time>2015-08-02T09:37:28.247Z</time>
      </trkpt>
      <trkpt lat="43.19554" lon="2.50389">
        <ele>76.1</ele>
        <time>2015-08-02T09:37:29.204Z</time>
      </trkpt>
      <trkpt lat="43.19556" lon="2.50395">
        <ele>76.5</ele>
        <time>2015-08-02T09:37:30.222Z</time>
      </trkpt>
      <trkpt lat="43.19559" lon="2.504">
        <ele>77.2</ele>
        <time>2015-08-02T09:37:31.186Z</time>
      </trkpt>
      <trkpt lat="43.19561" lon="2.50406">
        <ele>77.4</ele>
        <time>2015-08-02T09:37:32.248Z</time>
      </trkpt>
      <trkpt lat="43.19563" lon="2.50412">
        <ele>77.1</ele>
        <time>2015-08-02T09:37:33.187Z</time>
      </trkpt>
      <trkpt lat="43.19566" lon="2.50423">
        <ele>77.6</ele>
        <time>2015-08-02T09:37:35.221Z</time>
      </trkpt>
      <trkpt lat="43.19566" lon="2.50428">
        <ele>77.6</ele>
        <time>2015-08-02T09:37:36.180Z</time>
      </trkpt>
      <trkpt lat="43.19568" lon="2.50438">
        <ele>77.9</ele>
        <time>2015-08-02T09:37:38.214Z</time>
      </trkpt>
      <trkpt lat="43.19569" lon="2.50443">
        <ele>78.1</ele>
        <time>2015-08-02T09:37:39.182Z</time>
      </trkpt>
      <trkpt lat="43.1957" lon="2.50452">
        <ele>78.5</ele>
        <time>2015-08-02T09:37:41.229Z</time>
      </trkpt>
      <trkpt lat="43.1957" lon="2.50455">
        <ele>78.8</ele>
        <time>2015-08-02T09:37:42.181Z</time>
      </trkpt>
      <trkpt lat="43.19573" lon="2.50462">
        <ele>79.4</ele>
        <time>2015-08-02T09:37:44.221Z</time>
      </trkpt>
      <trkpt lat="43.19574" lon="2.50467">
        <ele>80.1</ele>
        <time>2015-08-02T09:37:45.188Z</time>
      </trkpt>
      <trkpt lat="43.19577" lon="2.50477">
        <ele>80.9</ele>
        <time>2015-08-02T09:37:47.599Z</time>
      </trkpt>
      <trkpt lat="43.19579" lon="2.50481">
        <ele>81.3</ele>
        <time>2015-08-02T09:37:48.183Z</time>
      </trkpt>
      <trkpt lat="43.19584" lon="2.5049">
        <ele>81.4</ele>
        <time>2015-08-02T09:37:50.221Z</time>
      </trkpt>
      <trkpt lat="43.19587" lon="2.50494">
        <ele>81.4</ele>
        <time>2015-08-02T09:37:51.183Z</time>
      </trkpt>
      <trkpt lat="43.1959" lon="2.50501">
        <ele>81.5</ele>
        <time>2015-08-02T09:37:53.232Z</time>
      </trkpt>
      <trkpt lat="43.19594" lon="2.50505">
        <ele>81.7</ele>
        <time>2015-08-02T09:37:54.180Z</time>
      </trkpt>
      <trkpt lat="43.19599" lon="2.50512">
        <ele>81.9</ele>
        <time>2015-08-02T09:37:56.241Z</time>
      </trkpt>
      <trkpt lat="43.19602" lon="2.50515">
        <ele>82</ele>
        <time>2015-08-02T09:37:57.202Z</time>
      </trkpt>
      <trkpt lat="43.19607" lon="2.50519">
        <ele>82.1</ele>
        <time>2015-08-02T09:37:58.219Z</time>
      </trkpt>
      <trkpt lat="43.1961" lon="2.50523">
        <ele>82.1</ele>
        <time>2015-08-02T09:37:59.182Z</time>
      </trkpt>
      <trkpt lat="43.19617" lon="2.50529">
        <ele>82.3</ele>
        <time>2015-08-02T09:38:01.229Z</time>
      </trkpt>
      <trkpt lat="43.19621" lon="2.50533">
        <ele>82.5</ele>
        <time>2015-08-02T09:38:02.180Z</time>
      </trkpt>
      <trkpt lat="43.19625" lon="2.50537">
        <ele>82.5</ele>
        <time>2015-08-02T09:38:03.228Z</time>
      </trkpt>
      <trkpt lat="43.19628" lon="2.5054">
        <ele>82.6</ele>
        <time>2015-08-02T09:38:04.182Z</time>
      </trkpt>
      <trkpt lat="43.19632" lon="2.50544">
        <ele>82.7</ele>
        <time>2015-08-02T09:38:05.294Z</time>
      </trkpt>
      <trkpt lat="43.19636" lon="2.50547">
        <ele>82.9</ele>
        <time>2015-08-02T09:38:06.180Z</time>
      </trkpt>
      <trkpt lat="43.19643" lon="2.50554">
        <ele>82.9</ele>
        <time>2015-08-02T09:38:08.235Z</time>
      </trkpt>
      <trkpt lat="43.19646" lon="2.50558">
        <ele>83</ele>
        <time>2015-08-02T09:38:09.185Z</time>
      </trkpt>
      <trkpt lat="43.1965" lon="2.50561">
        <ele>83.1</ele>
        <time>2015-08-02T09:38:10.221Z</time>
      </trkpt>
      <trkpt lat="43.19655" lon="2.50565">
        <ele>83.2</ele>
        <time>2015-08-02T09:38:11.184Z</time>
      </trkpt>
      <trkpt lat="43.19662" lon="2.50572">
        <ele>83.3</ele>
        <time>2015-08-02T09:38:13.453Z</time>
      </trkpt>
      <trkpt lat="43.19666" lon="2.50575">
        <ele>83.4</ele>
        <time>2015-08-02T09:38:14.181Z</time>
      </trkpt>
      <trkpt lat="43.1967" lon="2.50579">
        <ele>83.5</ele>
        <time>2015-08-02T09:38:15.220Z</time>
      </trkpt>
      <trkpt lat="43.19674" lon="2.50582">
        <ele>83.7</ele>
        <time>2015-08-02T09:38:16.177Z</time>
      </trkpt>
      <trkpt lat="43.19678" lon="2.50586">
        <ele>83.9</ele>
        <time>2015-08-02T09:38:17.255Z</time>
      </trkpt>
      <trkpt lat="43.19683" lon="2.50592">
        <ele>84.2</ele>
        <time>2015-08-02T09:38:18.181Z</time>
      </trkpt>
      <trkpt lat="43.19687" lon="2.50597">
        <ele>84.3</ele>
        <time>2015-08-02T09:38:19.233Z</time>
      </trkpt>
      <trkpt lat="43.19691" lon="2.50602">
        <ele>84.6</ele>
        <time>2015-08-02T09:38:20.183Z</time>
      </trkpt>
      <trkpt lat="43.19695" lon="2.50607">
        <ele>84.8</ele>
        <time>2015-08-02T09:38:21.229Z</time>
      </trkpt>
      <trkpt lat="43.19699" lon="2.50611">
        <ele>85</ele>
        <time>2015-08-02T09:38:22.181Z</time>
      </trkpt>
      <trkpt lat="43.19703" lon="2.50615">
        <ele>85.1</ele>
        <time>2015-08-02T09:38:23.232Z</time>
      </trkpt>
      <trkpt lat="43.19708" lon="2.5062">
        <ele>85.2</ele>
        <time>2015-08-02T09:38:24.183Z</time>
      </trkpt>
      <trkpt lat="43.19712" lon="2.50623">
        <ele>85.4</ele>
        <time>2015-08-02T09:38:25.255Z</time>
      </trkpt>
      <trkpt lat="43.19716" lon="2.50628">
        <ele>85.5</ele>
        <time>2015-08-02T09:38:26.188Z</time>
      </trkpt>
      <trkpt lat="43.19719" lon="2.50632">
        <ele>85.7</ele>
        <time>2015-08-02T09:38:27.259Z</time>
      </trkpt>
      <trkpt lat="43.19723" lon="2.50636">
        <ele>86</ele>
        <time>2015-08-02T09:38:28.189Z</time>
      </trkpt>
      <trkpt lat="43.19727" lon="2.5064">
        <ele>86.1</ele>
        <time>2015-08-02T09:38:29.279Z</time>
      </trkpt>
      <trkpt lat="43.19732" lon="2.50644">
        <ele>86.3</ele>
        <time>2015-08-02T09:38:30.190Z</time>
      </trkpt>
      <trkpt lat="43.19736" lon="2.50649">
        <ele>86.5</ele>
        <time>2015-08-02T09:38:31.260Z</time>
      </trkpt>
      <trkpt lat="43.1974" lon="2.50653">
        <ele>86.6</ele>
        <time>2015-08-02T09:38:32.189Z</time>
      </trkpt>
      <trkpt lat="43.19745" lon="2.50658">
        <ele>86.6</ele>
        <time>2015-08-02T09:38:33.230Z</time>
      </trkpt>
      <trkpt lat="43.19749" lon="2.50662">
        <ele>86.6</ele>
        <time>2015-08-02T09:38:34.183Z</time>
      </trkpt>
      <trkpt lat="43.19753" lon="2.50667">
        <ele>86.7</ele>
        <time>2015-08-02T09:38:35.229Z</time>
      </trkpt>
      <trkpt lat="43.19758" lon="2.50671">
        <ele>86.9</ele>
        <time>2015-08-02T09:38:36.177Z</time>
      </trkpt>
      <trkpt lat="43.19762" lon="2.50675">
        <ele>86.9</ele>
        <time>2015-08-02T09:38:37.233Z</time>
      </trkpt>
      <trkpt lat="43.19765" lon="2.50679">
        <ele>86.9</ele>
        <time>2015-08-02T09:38:38.182Z</time>
      </trkpt>
      <trkpt lat="43.1977" lon="2.50683">
        <ele>86.8</ele>
        <time>2015-08-02T09:38:39.236Z</time>
      </trkpt>
      <trkpt lat="43.19773" lon="2.50687">
        <ele>86.9</ele>
        <time>2015-08-02T09:38:40.190Z</time>
      </trkpt>
      <trkpt lat="43.19781" lon="2.50693">
        <ele>86.9</ele>
        <time>2015-08-02T09:38:42.244Z</time>
      </trkpt>
      <trkpt lat="43.19785" lon="2.50697">
        <ele>86.8</ele>
        <time>2015-08-02T09:38:43.221Z</time>
      </trkpt>
      <trkpt lat="43.19789" lon="2.50701">
        <ele>86.9</ele>
        <time>2015-08-02T09:38:44.247Z</time>
      </trkpt>
      <trkpt lat="43.19793" lon="2.50704">
        <ele>86.9</ele>
        <time>2015-08-02T09:38:45.186Z</time>
      </trkpt>
      <trkpt lat="43.198" lon="2.50711">
        <ele>87</ele>
        <time>2015-08-02T09:38:47.234Z</time>
      </trkpt>
      <trkpt lat="43.19804" lon="2.50715">
        <ele>87</ele>
        <time>2015-08-02T09:38:48.180Z</time>
      </trkpt>
      <trkpt lat="43.19809" lon="2.50718">
        <ele>87.1</ele>
        <time>2015-08-02T09:38:49.237Z</time>
      </trkpt>
      <trkpt lat="43.19813" lon="2.50722">
        <ele>86.8</ele>
        <time>2015-08-02T09:38:50.183Z</time>
      </trkpt>
      <trkpt lat="43.19816" lon="2.50726">
        <ele>86.8</ele>
        <time>2015-08-02T09:38:51.237Z</time>
      </trkpt>
      <trkpt lat="43.1982" lon="2.50729">
        <ele>86.6</ele>
        <time>2015-08-02T09:38:52.182Z</time>
      </trkpt>
      <trkpt lat="43.19823" lon="2.50732">
        <ele>86.6</ele>
        <time>2015-08-02T09:38:53.228Z</time>
      </trkpt>
      <trkpt lat="43.19827" lon="2.50736">
        <ele>86.4</ele>
        <time>2015-08-02T09:38:54.181Z</time>
      </trkpt>
      <trkpt lat="43.19832" lon="2.5074">
        <ele>86.3</ele>
        <time>2015-08-02T09:38:55.233Z</time>
      </trkpt>
      <trkpt lat="43.19835" lon="2.50743">
        <ele>86.2</ele>
        <time>2015-08-02T09:38:56.177Z</time>
      </trkpt>
      <trkpt lat="43.19839" lon="2.50747">
        <ele>86.3</ele>
        <time>2015-08-02T09:38:57.223Z</time>
      </trkpt>
      <trkpt lat="43.19844" lon="2.50751">
        <ele>86.3</ele>
        <time>2015-08-02T09:38:58.189Z</time>
      </trkpt>
      <trkpt lat="43.19851" lon="2.50758">
        <ele>86.3</ele>
        <time>2015-08-02T09:39:00.220Z</time>
      </trkpt>
      <trkpt lat="43.19854" lon="2.50761">
        <ele>86.3</ele>
        <time>2015-08-02T09:39:01.188Z</time>
      </trkpt>
      <trkpt lat="43.1986" lon="2.50768">
        <ele>86.1</ele>
        <time>2015-08-02T09:39:03.230Z</time>
      </trkpt>
      <trkpt lat="43.19862" lon="2.50771">
        <ele>85.6</ele>
        <time>2015-08-02T09:39:04.182Z</time>
      </trkpt>
      <trkpt lat="43.19868" lon="2.50778">
        <ele>85.6</ele>
        <time>2015-08-02T09:39:06.258Z</time>
      </trkpt>
      <trkpt lat="43.19871" lon="2.50781">
        <ele>85.7</ele>
        <time>2015-08-02T09:39:07.204Z</time>
      </trkpt>
      <trkpt lat="43.19875" lon="2.50791">
        <ele>85.9</ele>
        <time>2015-08-02T09:39:09.233Z</time>
      </trkpt>
      <trkpt lat="43.19876" lon="2.50796">
        <ele>85.9</ele>
        <time>2015-08-02T09:39:10.183Z</time>
      </trkpt>
      <trkpt lat="43.19878" lon="2.50802">
        <ele>85.9</ele>
        <time>2015-08-02T09:39:11.557Z</time>
      </trkpt>
      <trkpt lat="43.1988" lon="2.50808">
        <ele>85.8</ele>
        <time>2015-08-02T09:39:12.178Z</time>
      </trkpt>
      <trkpt lat="43.19881" lon="2.50815">
        <ele>85.9</ele>
        <time>2015-08-02T09:39:13.240Z</time>
      </trkpt>
      <trkpt lat="43.19882" lon="2.50821">
        <ele>85.8</ele>
        <time>2015-08-02T09:39:14.189Z</time>
      </trkpt>
      <trkpt lat="43.19883" lon="2.50828">
        <ele>85.7</ele>
        <time>2015-08-02T09:39:15.260Z</time>
      </trkpt>
      <trkpt lat="43.19885" lon="2.50835">
        <ele>85.5</ele>
        <time>2015-08-02T09:39:16.189Z</time>
      </trkpt>
      <trkpt lat="43.19887" lon="2.50842">
        <ele>84.9</ele>
        <time>2015-08-02T09:39:17.260Z</time>
      </trkpt>
      <trkpt lat="43.19888" lon="2.50848">
        <ele>85.1</ele>
        <time>2015-08-02T09:39:18.189Z</time>
      </trkpt>
      <trkpt lat="43.19889" lon="2.50855">
        <ele>85.1</ele>
        <time>2015-08-02T09:39:19.276Z</time>
      </trkpt>
      <trkpt lat="43.19889" lon="2.50861">
        <ele>85</ele>
        <time>2015-08-02T09:39:20.189Z</time>
      </trkpt>
      <trkpt lat="43.1989" lon="2.50867">
        <ele>84.9</ele>
        <time>2015-08-02T09:39:21.232Z</time>
      </trkpt>
      <trkpt lat="43.19892" lon="2.50873">
        <ele>84.8</ele>
        <time>2015-08-02T09:39:22.181Z</time>
      </trkpt>
      <trkpt lat="43.19892" lon="2.50879">
        <ele>84.9</ele>
        <time>2015-08-02T09:39:23.227Z</time>
      </trkpt>
      <trkpt lat="43.19894" lon="2.50885">
        <ele>84.9</ele>
        <time>2015-08-02T09:39:24.182Z</time>
      </trkpt>
      <trkpt lat="43.19895" lon="2.50892">
        <ele>85</ele>
        <time>2015-08-02T09:39:25.230Z</time>
      </trkpt>
      <trkpt lat="43.19896" lon="2.50898">
        <ele>85.2</ele>
        <time>2015-08-02T09:39:26.177Z</time>
      </trkpt>
      <trkpt lat="43.19897" lon="2.50904">
        <ele>85.2</ele>
        <time>2015-08-02T09:39:27.234Z</time>
      </trkpt>
      <trkpt lat="43.19897" lon="2.50911">
        <ele>85.1</ele>
        <time>2015-08-02T09:39:28.178Z</time>
      </trkpt>
      <trkpt lat="43.19898" lon="2.50917">
        <ele>85.1</ele>
        <time>2015-08-02T09:39:29.228Z</time>
      </trkpt>
      <trkpt lat="43.19899" lon="2.50923">
        <ele>85.1</ele>
        <time>2015-08-02T09:39:30.179Z</time>
      </trkpt>
      <trkpt lat="43.19901" lon="2.50929">
        <ele>85.1</ele>
        <time>2015-08-02T09:39:31.226Z</time>
      </trkpt>
      <trkpt lat="43.19902" lon="2.50935">
        <ele>85.3</ele>
        <time>2015-08-02T09:39:32.179Z</time>
      </trkpt>
      <trkpt lat="43.19905" lon="2.50947">
        <ele>85.3</ele>
        <time>2015-08-02T09:39:34.219Z</time>
      </trkpt>
      <trkpt lat="43.19906" lon="2.50951">
        <ele>85.2</ele>
        <time>2015-08-02T09:39:35.180Z</time>
      </trkpt>
      <trkpt lat="43.19907" lon="2.50961">
        <ele>85.3</ele>
        <time>2015-08-02T09:39:37.234Z</time>
      </trkpt>
      <trkpt lat="43.19908" lon="2.50966">
        <ele>85.4</ele>
        <time>2015-08-02T09:39:38.183Z</time>
      </trkpt>
      <trkpt lat="43.19908" lon="2.50975">
        <ele>85.6</ele>
        <time>2015-08-02T09:39:40.275Z</time>
      </trkpt>
      <trkpt lat="43.1991" lon="2.5098">
        <ele>85.7</ele>
        <time>2015-08-02T09:39:41.202Z</time>
      </trkpt>
      <trkpt lat="43.19913" lon="2.50991">
        <ele>85.6</ele>
        <time>2015-08-02T09:39:43.250Z</time>
      </trkpt>
      <trkpt lat="43.19916" lon="2.50998">
        <ele>85.6</ele>
        <time>2015-08-02T09:39:44.190Z</time>
      </trkpt>
      <trkpt lat="43.19918" lon="2.51005">
        <ele>85.6</ele>
        <time>2015-08-02T09:39:45.573Z</time>
      </trkpt>
      <trkpt lat="43.19922" lon="2.51011">
        <ele>85.6</ele>
        <time>2015-08-02T09:39:46.177Z</time>
      </trkpt>
      <trkpt lat="43.19925" lon="2.51018">
        <ele>85.4</ele>
        <time>2015-08-02T09:39:47.228Z</time>
      </trkpt>
      <trkpt lat="43.19928" lon="2.51024">
        <ele>85.3</ele>
        <time>2015-08-02T09:39:48.181Z</time>
      </trkpt>
      <trkpt lat="43.19932" lon="2.5103">
        <ele>85.3</ele>
        <time>2015-08-02T09:39:49.235Z</time>
      </trkpt>
      <trkpt lat="43.19935" lon="2.51037">
        <ele>85.2</ele>
        <time>2015-08-02T09:39:50.179Z</time>
      </trkpt>
      <trkpt lat="43.19939" lon="2.51043">
        <ele>85</ele>
        <time>2015-08-02T09:39:51.228Z</time>
      </trkpt>
      <trkpt lat="43.19942" lon="2.51049">
        <ele>85</ele>
        <time>2015-08-02T09:39:52.190Z</time>
      </trkpt>
      <trkpt lat="43.19946" lon="2.51054">
        <ele>84.8</ele>
        <time>2015-08-02T09:39:53.392Z</time>
      </trkpt>
      <trkpt lat="43.19949" lon="2.5106">
        <ele>84.7</ele>
        <time>2015-08-02T09:39:54.209Z</time>
      </trkpt>
      <trkpt lat="43.19952" lon="2.51065">
        <ele>84.5</ele>
        <time>2015-08-02T09:39:55.232Z</time>
      </trkpt>
      <trkpt lat="43.19955" lon="2.5107">
        <ele>84.2</ele>
        <time>2015-08-02T09:39:56.181Z</time>
      </trkpt>
      <trkpt lat="43.19959" lon="2.51076">
        <ele>84.1</ele>
        <time>2015-08-02T09:39:57.230Z</time>
      </trkpt>
      <trkpt lat="43.19963" lon="2.51081">
        <ele>84</ele>
        <time>2015-08-02T09:39:58.182Z</time>
      </trkpt>
      <trkpt lat="43.19967" lon="2.51086">
        <ele>83.9</ele>
        <time>2015-08-02T09:39:59.223Z</time>
      </trkpt>
      <trkpt lat="43.1997" lon="2.51092">
        <ele>83.9</ele>
        <time>2015-08-02T09:40:00.181Z</time>
      </trkpt>
      <trkpt lat="43.19973" lon="2.51097">
        <ele>83.9</ele>
        <time>2015-08-02T09:40:01.274Z</time>
      </trkpt>
      <trkpt lat="43.19976" lon="2.51103">
        <ele>84</ele>
        <time>2015-08-02T09:40:02.189Z</time>
      </trkpt>
      <trkpt lat="43.19979" lon="2.51108">
        <ele>84.1</ele>
        <time>2015-08-02T09:40:03.604Z</time>
      </trkpt>
      <trkpt lat="43.19983" lon="2.51114">
        <ele>84</ele>
        <time>2015-08-02T09:40:04.180Z</time>
      </trkpt>
      <trkpt lat="43.19986" lon="2.51119">
        <ele>83.9</ele>
        <time>2015-08-02T09:40:05.237Z</time>
      </trkpt>
      <trkpt lat="43.19989" lon="2.51124">
        <ele>83.8</ele>
        <time>2015-08-02T09:40:06.182Z</time>
      </trkpt>
      <trkpt lat="43.19992" lon="2.51128">
        <ele>83.7</ele>
        <time>2015-08-02T09:40:07.237Z</time>
      </trkpt>
      <trkpt lat="43.19996" lon="2.51132">
        <ele>83.7</ele>
        <time>2015-08-02T09:40:08.177Z</time>
      </trkpt>
      <trkpt lat="43.2" lon="2.51137">
        <ele>83.7</ele>
        <time>2015-08-02T09:40:09.233Z</time>
      </trkpt>
      <trkpt lat="43.20004" lon="2.51141">
        <ele>83.7</ele>
        <time>2015-08-02T09:40:10.178Z</time>
      </trkpt>
      <trkpt lat="43.20008" lon="2.51145">
        <ele>83.5</ele>
        <time>2015-08-02T09:40:11.271Z</time>
      </trkpt>
      <trkpt lat="43.20011" lon="2.5115">
        <ele>83.3</ele>
        <time>2015-08-02T09:40:12.189Z</time>
      </trkpt>
      <trkpt lat="43.20015" lon="2.51155">
        <ele>83.2</ele>
        <time>2015-08-02T09:40:13.223Z</time>
      </trkpt>
      <trkpt lat="43.20017" lon="2.5116">
        <ele>83</ele>
        <time>2015-08-02T09:40:14.180Z</time>
      </trkpt>
      <trkpt lat="43.2002" lon="2.51165">
        <ele>82.8</ele>
        <time>2015-08-02T09:40:15.230Z</time>
      </trkpt>
      <trkpt lat="43.20023" lon="2.5117">
        <ele>82.6</ele>
        <time>2015-08-02T09:40:16.178Z</time>
      </trkpt>
      <trkpt lat="43.20027" lon="2.51175">
        <ele>82.3</ele>
        <time>2015-08-02T09:40:17.226Z</time>
      </trkpt>
      <trkpt lat="43.2003" lon="2.51179">
        <ele>82.1</ele>
        <time>2015-08-02T09:40:18.183Z</time>
      </trkpt>
      <trkpt lat="43.20033" lon="2.51184">
        <ele>81.9</ele>
        <time>2015-08-02T09:40:19.397Z</time>
      </trkpt>
      <trkpt lat="43.20035" lon="2.5119">
        <ele>81.7</ele>
        <time>2015-08-02T09:40:20.178Z</time>
      </trkpt>
      <trkpt lat="43.20041" lon="2.51198">
        <ele>80.8</ele>
        <time>2015-08-02T09:40:22.228Z</time>
      </trkpt>
      <trkpt lat="43.20044" lon="2.51203">
        <ele>80.6</ele>
        <time>2015-08-02T09:40:23.186Z</time>
      </trkpt>
      <trkpt lat="43.20049" lon="2.51212">
        <ele>79.8</ele>
        <time>2015-08-02T09:40:25.233Z</time>
      </trkpt>
      <trkpt lat="43.20051" lon="2.51216">
        <ele>79.5</ele>
        <time>2015-08-02T09:40:26.177Z</time>
      </trkpt>
      <trkpt lat="43.20057" lon="2.51225">
        <ele>79.2</ele>
        <time>2015-08-02T09:40:28.250Z</time>
      </trkpt>
      <trkpt lat="43.2006" lon="2.5123">
        <ele>79</ele>
        <time>2015-08-02T09:40:29.189Z</time>
      </trkpt>
      <trkpt lat="43.20063" lon="2.51235">
        <ele>78.7</ele>
        <time>2015-08-02T09:40:30.222Z</time>
      </trkpt>
      <trkpt lat="43.20066" lon="2.5124">
        <ele>78.5</ele>
        <time>2015-08-02T09:40:31.184Z</time>
      </trkpt>
      <trkpt lat="43.20069" lon="2.51246">
        <ele>78.2</ele>
        <time>2015-08-02T09:40:32.218Z</time>
      </trkpt>
      <trkpt lat="43.20072" lon="2.51251">
        <ele>78</ele>
        <time>2015-08-02T09:40:33.184Z</time>
      </trkpt>
      <trkpt lat="43.20075" lon="2.51256">
        <ele>77.6</ele>
        <time>2015-08-02T09:40:34.224Z</time>
      </trkpt>
      <trkpt lat="43.20078" lon="2.51261">
        <ele>77.5</ele>
        <time>2015-08-02T09:40:35.182Z</time>
      </trkpt>
      <trkpt lat="43.20081" lon="2.51266">
        <ele>77</ele>
        <time>2015-08-02T09:40:36.223Z</time>
      </trkpt>
      <trkpt lat="43.20084" lon="2.51272">
        <ele>77.3</ele>
        <time>2015-08-02T09:40:37.204Z</time>
      </trkpt>
      <trkpt lat="43.20087" lon="2.51278">
        <ele>77.5</ele>
        <time>2015-08-02T09:40:38.223Z</time>
      </trkpt>
      <trkpt lat="43.20089" lon="2.51284">
        <ele>77.5</ele>
        <time>2015-08-02T09:40:39.184Z</time>
      </trkpt>
      <trkpt lat="43.20092" lon="2.5129">
        <ele>77.6</ele>
        <time>2015-08-02T09:40:40.223Z</time>
      </trkpt>
      <trkpt lat="43.20095" lon="2.51295">
        <ele>77.5</ele>
        <time>2015-08-02T09:40:41.182Z</time>
      </trkpt>
      <trkpt lat="43.20097" lon="2.513">
        <ele>77.6</ele>
        <time>2015-08-02T09:40:42.228Z</time>
      </trkpt>
      <trkpt lat="43.201" lon="2.51306">
        <ele>77.5</ele>
        <time>2015-08-02T09:40:43.183Z</time>
      </trkpt>
      <trkpt lat="43.20104" lon="2.51311">
        <ele>77.6</ele>
        <time>2015-08-02T09:40:44.223Z</time>
      </trkpt>
      <trkpt lat="43.20107" lon="2.51315">
        <ele>77.5</ele>
        <time>2015-08-02T09:40:45.202Z</time>
      </trkpt>
      <trkpt lat="43.20109" lon="2.51321">
        <ele>77.5</ele>
        <time>2015-08-02T09:40:46.219Z</time>
      </trkpt>
      <trkpt lat="43.20113" lon="2.51325">
        <ele>77.3</ele>
        <time>2015-08-02T09:40:47.181Z</time>
      </trkpt>
      <trkpt lat="43.20116" lon="2.5133">
        <ele>77.3</ele>
        <time>2015-08-02T09:40:48.232Z</time>
      </trkpt>
      <trkpt lat="43.20119" lon="2.51335">
        <ele>77.1</ele>
        <time>2015-08-02T09:40:49.184Z</time>
      </trkpt>
      <trkpt lat="43.20122" lon="2.5134">
        <ele>77</ele>
        <time>2015-08-02T09:40:50.223Z</time>
      </trkpt>
      <trkpt lat="43.20125" lon="2.51345">
        <ele>76.9</ele>
        <time>2015-08-02T09:40:51.181Z</time>
      </trkpt>
      <trkpt lat="43.20128" lon="2.5135">
        <ele>76.9</ele>
        <time>2015-08-02T09:40:52.230Z</time>
      </trkpt>
      <trkpt lat="43.2013" lon="2.51355">
        <ele>76.9</ele>
        <time>2015-08-02T09:40:53.191Z</time>
      </trkpt>
      <trkpt lat="43.20133" lon="2.5136">
        <ele>76.9</ele>
        <time>2015-08-02T09:40:54.225Z</time>
      </trkpt>
      <trkpt lat="43.20136" lon="2.51365">
        <ele>76.9</ele>
        <time>2015-08-02T09:40:55.184Z</time>
      </trkpt>
      <trkpt lat="43.2014" lon="2.51369">
        <ele>76.8</ele>
        <time>2015-08-02T09:40:56.230Z</time>
      </trkpt>
      <trkpt lat="43.20143" lon="2.51374">
        <ele>76.7</ele>
        <time>2015-08-02T09:40:57.183Z</time>
      </trkpt>
      <trkpt lat="43.20149" lon="2.51382">
        <ele>76.5</ele>
        <time>2015-08-02T09:40:59.237Z</time>
      </trkpt>
      <trkpt lat="43.20151" lon="2.51387">
        <ele>76.3</ele>
        <time>2015-08-02T09:41:00.182Z</time>
      </trkpt>
      <trkpt lat="43.20156" lon="2.51395">
        <ele>75.5</ele>
        <time>2015-08-02T09:41:02.222Z</time>
      </trkpt>
      <trkpt lat="43.20159" lon="2.51399">
        <ele>75.1</ele>
        <time>2015-08-02T09:41:03.183Z</time>
      </trkpt>
      <trkpt lat="43.20164" lon="2.51409">
        <ele>74.7</ele>
        <time>2015-08-02T09:41:05.598Z</time>
      </trkpt>
      <trkpt lat="43.20167" lon="2.51413">
        <ele>74.4</ele>
        <time>2015-08-02T09:41:06.190Z</time>
      </trkpt>
      <trkpt lat="43.2017" lon="2.51421">
        <ele>73.9</ele>
        <time>2015-08-02T09:41:08.220Z</time>
      </trkpt>
      <trkpt lat="43.20172" lon="2.51426">
        <ele>73.7</ele>
        <time>2015-08-02T09:41:09.185Z</time>
      </trkpt>
      <trkpt lat="43.20177" lon="2.51436">
        <ele>73.3</ele>
        <time>2015-08-02T09:41:11.229Z</time>
      </trkpt>
      <trkpt lat="43.20179" lon="2.51443">
        <ele>73.3</ele>
        <time>2015-08-02T09:41:12.181Z</time>
      </trkpt>
      <trkpt lat="43.20183" lon="2.51453">
        <ele>72.8</ele>
        <time>2015-08-02T09:41:14.256Z</time>
      </trkpt>
      <trkpt lat="43.20184" lon="2.51459">
        <ele>72.8</ele>
        <time>2015-08-02T09:41:15.181Z</time>
      </trkpt>
      <trkpt lat="43.20185" lon="2.5147">
        <ele>72.3</ele>
        <time>2015-08-02T09:41:17.230Z</time>
      </trkpt>
      <trkpt lat="43.20185" lon="2.51474">
        <ele>72.3</ele>
        <time>2015-08-02T09:41:18.183Z</time>
      </trkpt>
      <trkpt lat="43.20188" lon="2.51482">
        <ele>72.1</ele>
        <time>2015-08-02T09:41:20.251Z</time>
      </trkpt>
      <trkpt lat="43.20188" lon="2.51488">
        <ele>72</ele>
        <time>2015-08-02T09:41:21.203Z</time>
      </trkpt>
      <trkpt lat="43.2019" lon="2.51494">
        <ele>72.1</ele>
        <time>2015-08-02T09:41:22.222Z</time>
      </trkpt>
      <trkpt lat="43.20191" lon="2.515">
        <ele>72</ele>
        <time>2015-08-02T09:41:23.181Z</time>
      </trkpt>
      <trkpt lat="43.20192" lon="2.51512">
        <ele>71.7</ele>
        <time>2015-08-02T09:41:25.236Z</time>
      </trkpt>
      <trkpt lat="43.20194" lon="2.51518">
        <ele>71.6</ele>
        <time>2015-08-02T09:41:26.182Z</time>
      </trkpt>
      <trkpt lat="43.20196" lon="2.51525">
        <ele>71.5</ele>
        <time>2015-08-02T09:41:27.224Z</time>
      </trkpt>
      <trkpt lat="43.20198" lon="2.51532">
        <ele>71.3</ele>
        <time>2015-08-02T09:41:28.178Z</time>
      </trkpt>
      <trkpt lat="43.202" lon="2.51539">
        <ele>71.1</ele>
        <time>2015-08-02T09:41:29.228Z</time>
      </trkpt>
      <trkpt lat="43.20202" lon="2.51545">
        <ele>71</ele>
        <time>2015-08-02T09:41:30.206Z</time>
      </trkpt>
      <trkpt lat="43.20205" lon="2.51556">
        <ele>70.9</ele>
        <time>2015-08-02T09:41:32.224Z</time>
      </trkpt>
      <trkpt lat="43.20208" lon="2.51562">
        <ele>71.1</ele>
        <time>2015-08-02T09:41:33.180Z</time>
      </trkpt>
      <trkpt lat="43.20211" lon="2.51572">
        <ele>70.8</ele>
        <time>2015-08-02T09:41:35.231Z</time>
      </trkpt>
      <trkpt lat="43.20212" lon="2.51577">
        <ele>70.7</ele>
        <time>2015-08-02T09:41:36.182Z</time>
      </trkpt>
      <trkpt lat="43.20214" lon="2.51587">
        <ele>70.3</ele>
        <time>2015-08-02T09:41:38.220Z</time>
      </trkpt>
      <trkpt lat="43.20216" lon="2.51593">
        <ele>70.1</ele>
        <time>2015-08-02T09:41:39.199Z</time>
      </trkpt>
      <trkpt lat="43.20219" lon="2.51603">
        <ele>69.8</ele>
        <time>2015-08-02T09:41:41.227Z</time>
      </trkpt>
      <trkpt lat="43.2022" lon="2.51609">
        <ele>69.6</ele>
        <time>2015-08-02T09:41:42.182Z</time>
      </trkpt>
      <trkpt lat="43.20222" lon="2.51614">
        <ele>69.4</ele>
        <time>2015-08-02T09:41:43.223Z</time>
      </trkpt>
      <trkpt lat="43.20224" lon="2.51621">
        <ele>69.5</ele>
        <time>2015-08-02T09:41:44.183Z</time>
      </trkpt>
      <trkpt lat="43.20225" lon="2.51627">
        <ele>69.5</ele>
        <time>2015-08-02T09:41:45.236Z</time>
      </trkpt>
      <trkpt lat="43.20227" lon="2.51633">
        <ele>69.5</ele>
        <time>2015-08-02T09:41:46.183Z</time>
      </trkpt>
      <trkpt lat="43.20228" lon="2.5164">
        <ele>69.3</ele>
        <time>2015-08-02T09:41:47.232Z</time>
      </trkpt>
      <trkpt lat="43.20229" lon="2.51647">
        <ele>69.2</ele>
        <time>2015-08-02T09:41:48.181Z</time>
      </trkpt>
      <trkpt lat="43.2023" lon="2.51654">
        <ele>69.1</ele>
        <time>2015-08-02T09:41:49.237Z</time>
      </trkpt>
      <trkpt lat="43.2023" lon="2.51661">
        <ele>69.2</ele>
        <time>2015-08-02T09:41:50.182Z</time>
      </trkpt>
      <trkpt lat="43.20233" lon="2.51668">
        <ele>70.2</ele>
        <time>2015-08-02T09:41:51.236Z</time>
      </trkpt>
      <trkpt lat="43.20234" lon="2.51675">
        <ele>70.6</ele>
        <time>2015-08-02T09:41:52.181Z</time>
      </trkpt>
      <trkpt lat="43.20235" lon="2.51682">
        <ele>70.6</ele>
        <time>2015-08-02T09:41:53.295Z</time>
      </trkpt>
      <trkpt lat="43.20236" lon="2.51689">
        <ele>70.8</ele>
        <time>2015-08-02T09:41:54.179Z</time>
      </trkpt>
      <trkpt lat="43.20236" lon="2.51696">
        <ele>71</ele>
        <time>2015-08-02T09:41:55.231Z</time>
      </trkpt>
      <trkpt lat="43.20236" lon="2.51703">
        <ele>71.2</ele>
        <time>2015-08-02T09:41:56.184Z</time>
      </trkpt>
      <trkpt lat="43.20237" lon="2.5171">
        <ele>71.2</ele>
        <time>2015-08-02T09:41:57.231Z</time>
      </trkpt>
      <trkpt lat="43.20238" lon="2.51716">
        <ele>71.1</ele>
        <time>2015-08-02T09:41:58.181Z</time>
      </trkpt>
      <trkpt lat="43.20239" lon="2.51723">
        <ele>71.2</ele>
        <time>2015-08-02T09:41:59.230Z</time>
      </trkpt>
      <trkpt lat="43.20239" lon="2.5173">
        <ele>71.3</ele>
        <time>2015-08-02T09:42:00.191Z</time>
      </trkpt>
      <trkpt lat="43.20239" lon="2.51737">
        <ele>71.3</ele>
        <time>2015-08-02T09:42:01.241Z</time>
      </trkpt>
      <trkpt lat="43.20239" lon="2.51744">
        <ele>71.1</ele>
        <time>2015-08-02T09:42:02.181Z</time>
      </trkpt>
      <trkpt lat="43.20239" lon="2.51751">
        <ele>71.1</ele>
        <time>2015-08-02T09:42:03.232Z</time>
      </trkpt>
      <trkpt lat="43.20238" lon="2.51758">
        <ele>70.9</ele>
        <time>2015-08-02T09:42:04.182Z</time>
      </trkpt>
      <trkpt lat="43.20238" lon="2.51765">
        <ele>70.9</ele>
        <time>2015-08-02T09:42:05.232Z</time>
      </trkpt>
      <trkpt lat="43.20238" lon="2.51772">
        <ele>70.8</ele>
        <time>2015-08-02T09:42:06.183Z</time>
      </trkpt>
      <trkpt lat="43.20237" lon="2.51778">
        <ele>70.6</ele>
        <time>2015-08-02T09:42:07.238Z</time>
      </trkpt>
      <trkpt lat="43.20237" lon="2.51784">
        <ele>70.3</ele>
        <time>2015-08-02T09:42:08.190Z</time>
      </trkpt>
      <trkpt lat="43.20236" lon="2.5179">
        <ele>70</ele>
        <time>2015-08-02T09:42:09.242Z</time>
      </trkpt>
      <trkpt lat="43.20236" lon="2.51797">
        <ele>69.9</ele>
        <time>2015-08-02T09:42:10.181Z</time>
      </trkpt>
      <trkpt lat="43.20236" lon="2.51803">
        <ele>69.9</ele>
        <time>2015-08-02T09:42:11.242Z</time>
      </trkpt>
      <trkpt lat="43.20235" lon="2.5181">
        <ele>69.7</ele>
        <time>2015-08-02T09:42:12.182Z</time>
      </trkpt>
      <trkpt lat="43.20234" lon="2.51816">
        <ele>69.4</ele>
        <time>2015-08-02T09:42:13.225Z</time>
      </trkpt>
      <trkpt lat="43.20233" lon="2.51823">
        <ele>69.3</ele>
        <time>2015-08-02T09:42:14.207Z</time>
      </trkpt>
      <trkpt lat="43.20232" lon="2.51829">
        <ele>69.2</ele>
        <time>2015-08-02T09:42:15.215Z</time>
      </trkpt>
      <trkpt lat="43.20232" lon="2.51835">
        <ele>69.3</ele>
        <time>2015-08-02T09:42:16.180Z</time>
      </trkpt>
      <trkpt lat="43.20231" lon="2.51841">
        <ele>69.4</ele>
        <time>2015-08-02T09:42:17.219Z</time>
      </trkpt>
      <trkpt lat="43.20229" lon="2.51847">
        <ele>69.1</ele>
        <time>2015-08-02T09:42:18.180Z</time>
      </trkpt>
      <trkpt lat="43.20228" lon="2.51854">
        <ele>69.1</ele>
        <time>2015-08-02T09:42:19.222Z</time>
      </trkpt>
      <trkpt lat="43.20227" lon="2.51859">
        <ele>68.8</ele>
        <time>2015-08-02T09:42:20.178Z</time>
      </trkpt>
      <trkpt lat="43.20226" lon="2.51865">
        <ele>68.7</ele>
        <time>2015-08-02T09:42:21.220Z</time>
      </trkpt>
      <trkpt lat="43.20225" lon="2.51871">
        <ele>68.5</ele>
        <time>2015-08-02T09:42:22.192Z</time>
      </trkpt>
      <trkpt lat="43.20224" lon="2.51878">
        <ele>68.5</ele>
        <time>2015-08-02T09:42:23.223Z</time>
      </trkpt>
      <trkpt lat="43.20222" lon="2.51884">
        <ele>68.1</ele>
        <time>2015-08-02T09:42:24.181Z</time>
      </trkpt>
      <trkpt lat="43.2022" lon="2.5189">
        <ele>67.8</ele>
        <time>2015-08-02T09:42:25.234Z</time>
      </trkpt>
      <trkpt lat="43.20218" lon="2.51896">
        <ele>67.5</ele>
        <time>2015-08-02T09:42:26.181Z</time>
      </trkpt>
      <trkpt lat="43.20217" lon="2.51902">
        <ele>67.4</ele>
        <time>2015-08-02T09:42:27.244Z</time>
      </trkpt>
      <trkpt lat="43.20215" lon="2.51908">
        <ele>67</ele>
        <time>2015-08-02T09:42:28.178Z</time>
      </trkpt>
      <trkpt lat="43.20213" lon="2.5192">
        <ele>66.6</ele>
        <time>2015-08-02T09:42:30.214Z</time>
      </trkpt>
      <trkpt lat="43.20211" lon="2.51926">
        <ele>66.3</ele>
        <time>2015-08-02T09:42:31.182Z</time>
      </trkpt>
      <trkpt lat="43.20208" lon="2.51937">
        <ele>65.7</ele>
        <time>2015-08-02T09:42:33.250Z</time>
      </trkpt>
      <trkpt lat="43.20206" lon="2.51942">
        <ele>65.4</ele>
        <time>2015-08-02T09:42:34.178Z</time>
      </trkpt>
      <trkpt lat="43.20205" lon="2.51954">
        <ele>65.4</ele>
        <time>2015-08-02T09:42:36.555Z</time>
      </trkpt>
      <trkpt lat="43.20203" lon="2.51959">
        <ele>65.3</ele>
        <time>2015-08-02T09:42:37.182Z</time>
      </trkpt>
      <trkpt lat="43.20202" lon="2.5197">
        <ele>65.3</ele>
        <time>2015-08-02T09:42:39.233Z</time>
      </trkpt>
      <trkpt lat="43.20201" lon="2.51975">
        <ele>65.2</ele>
        <time>2015-08-02T09:42:40.183Z</time>
      </trkpt>
      <trkpt lat="43.20199" lon="2.51987">
        <ele>64.9</ele>
        <time>2015-08-02T09:42:42.221Z</time>
      </trkpt>
      <trkpt lat="43.20196" lon="2.51992">
        <ele>64.8</ele>
        <time>2015-08-02T09:42:43.185Z</time>
      </trkpt>
      <trkpt lat="43.20194" lon="2.52003">
        <ele>64.8</ele>
        <time>2015-08-02T09:42:45.276Z</time>
      </trkpt>
      <trkpt lat="43.20193" lon="2.52008">
        <ele>64.8</ele>
        <time>2015-08-02T09:42:46.191Z</time>
      </trkpt>
      <trkpt lat="43.20191" lon="2.52018">
        <ele>64.8</ele>
        <time>2015-08-02T09:42:48.232Z</time>
      </trkpt>
      <trkpt lat="43.20189" lon="2.52024">
        <ele>64.8</ele>
        <time>2015-08-02T09:42:49.190Z</time>
      </trkpt>
      <trkpt lat="43.20187" lon="2.52036">
        <ele>64.7</ele>
        <time>2015-08-02T09:42:51.227Z</time>
      </trkpt>
      <trkpt lat="43.20186" lon="2.52042">
        <ele>64.4</ele>
        <time>2015-08-02T09:42:52.179Z</time>
      </trkpt>
      <trkpt lat="43.20185" lon="2.52048">
        <ele>64.4</ele>
        <time>2015-08-02T09:42:53.230Z</time>
      </trkpt>
      <trkpt lat="43.20184" lon="2.52055">
        <ele>64.4</ele>
        <time>2015-08-02T09:42:54.183Z</time>
      </trkpt>
      <trkpt lat="43.20183" lon="2.52061">
        <ele>64.3</ele>
        <time>2015-08-02T09:42:55.265Z</time>
      </trkpt>
      <trkpt lat="43.20182" lon="2.52068">
        <ele>64.3</ele>
        <time>2015-08-02T09:42:56.191Z</time>
      </trkpt>
      <trkpt lat="43.20181" lon="2.52075">
        <ele>64.3</ele>
        <time>2015-08-02T09:42:57.267Z</time>
      </trkpt>
      <trkpt lat="43.20181" lon="2.52082">
        <ele>64.4</ele>
        <time>2015-08-02T09:42:58.190Z</time>
      </trkpt>
      <trkpt lat="43.20181" lon="2.52089">
        <ele>64.6</ele>
        <time>2015-08-02T09:42:59.229Z</time>
      </trkpt>
      <trkpt lat="43.2018" lon="2.52096">
        <ele>64.6</ele>
        <time>2015-08-02T09:43:00.183Z</time>
      </trkpt>
      <trkpt lat="43.20179" lon="2.52104">
        <ele>64.6</ele>
        <time>2015-08-02T09:43:01.229Z</time>
      </trkpt>
      <trkpt lat="43.2018" lon="2.52111">
        <ele>64.6</ele>
        <time>2015-08-02T09:43:02.178Z</time>
      </trkpt>
      <trkpt lat="43.20179" lon="2.52118">
        <ele>64.7</ele>
        <time>2015-08-02T09:43:03.229Z</time>
      </trkpt>
      <trkpt lat="43.20179" lon="2.52125">
        <ele>64.7</ele>
        <time>2015-08-02T09:43:04.180Z</time>
      </trkpt>
      <trkpt lat="43.20179" lon="2.52132">
        <ele>64.6</ele>
        <time>2015-08-02T09:43:05.294Z</time>
      </trkpt>
      <trkpt lat="43.2018" lon="2.52139">
        <ele>64.6</ele>
        <time>2015-08-02T09:43:06.190Z</time>
      </trkpt>
      <trkpt lat="43.2018" lon="2.52145">
        <ele>64.7</ele>
        <time>2015-08-02T09:43:07.231Z</time>
      </trkpt>
      <trkpt lat="43.2018" lon="2.52152">
        <ele>64.8</ele>
        <time>2015-08-02T09:43:08.181Z</time>
      </trkpt>
      <trkpt lat="43.2018" lon="2.52158">
        <ele>64.9</ele>
        <time>2015-08-02T09:43:09.240Z</time>
      </trkpt>
      <trkpt lat="43.2018" lon="2.52165">
        <ele>64.8</ele>
        <time>2015-08-02T09:43:10.181Z</time>
      </trkpt>
      <trkpt lat="43.2018" lon="2.52172">
        <ele>64.7</ele>
        <time>2015-08-02T09:43:11.229Z</time>
      </trkpt>
      <trkpt lat="43.20181" lon="2.52178">
        <ele>64.7</ele>
        <time>2015-08-02T09:43:12.181Z</time>
      </trkpt>
      <trkpt lat="43.20181" lon="2.52185">
        <ele>64.7</ele>
        <time>2015-08-02T09:43:13.222Z</time>
      </trkpt>
      <trkpt lat="43.20182" lon="2.52192">
        <ele>64.7</ele>
        <time>2015-08-02T09:43:14.342Z</time>
      </trkpt>
      <trkpt lat="43.20182" lon="2.52198">
        <ele>64.6</ele>
        <time>2015-08-02T09:43:15.222Z</time>
      </trkpt>
      <trkpt lat="43.20182" lon="2.52204">
        <ele>64.5</ele>
        <time>2015-08-02T09:43:16.179Z</time>
      </trkpt>
      <trkpt lat="43.20182" lon="2.52217">
        <ele>64.8</ele>
        <time>2015-08-02T09:43:18.559Z</time>
      </trkpt>
      <trkpt lat="43.20182" lon="2.52222">
        <ele>65.1</ele>
        <time>2015-08-02T09:43:19.183Z</time>
      </trkpt>
      <trkpt lat="43.20182" lon="2.52234">
        <ele>65.6</ele>
        <time>2015-08-02T09:43:21.233Z</time>
      </trkpt>
      <trkpt lat="43.20182" lon="2.5224">
        <ele>65.7</ele>
        <time>2015-08-02T09:43:22.190Z</time>
      </trkpt>
      <trkpt lat="43.20182" lon="2.52251">
        <ele>65.7</ele>
        <time>2015-08-02T09:43:24.219Z</time>
      </trkpt>
      <trkpt lat="43.20182" lon="2.52257">
        <ele>65.8</ele>
        <time>2015-08-02T09:43:25.184Z</time>
      </trkpt>
      <trkpt lat="43.20182" lon="2.52269">
        <ele>65.6</ele>
        <time>2015-08-02T09:43:27.226Z</time>
      </trkpt>
      <trkpt lat="43.20182" lon="2.52275">
        <ele>65.6</ele>
        <time>2015-08-02T09:43:28.181Z</time>
      </trkpt>
      <trkpt lat="43.20182" lon="2.52281">
        <ele>65.3</ele>
        <time>2015-08-02T09:43:29.222Z</time>
      </trkpt>
      <trkpt lat="43.20181" lon="2.52288">
        <ele>65.2</ele>
        <time>2015-08-02T09:43:30.181Z</time>
      </trkpt>
      <trkpt lat="43.2018" lon="2.52294">
        <ele>64.9</ele>
        <time>2015-08-02T09:43:31.261Z</time>
      </trkpt>
      <trkpt lat="43.20179" lon="2.523">
        <ele>64.8</ele>
        <time>2015-08-02T09:43:32.190Z</time>
      </trkpt>
      <trkpt lat="43.20178" lon="2.52306">
        <ele>64.6</ele>
        <time>2015-08-02T09:43:33.263Z</time>
      </trkpt>
      <trkpt lat="43.20176" lon="2.52312">
        <ele>64.4</ele>
        <time>2015-08-02T09:43:34.190Z</time>
      </trkpt>
      <trkpt lat="43.20173" lon="2.52323">
        <ele>64</ele>
        <time>2015-08-02T09:43:36.247Z</time>
      </trkpt>
      <trkpt lat="43.20171" lon="2.52329">
        <ele>63.8</ele>
        <time>2015-08-02T09:43:37.203Z</time>
      </trkpt>
      <trkpt lat="43.20167" lon="2.52339">
        <ele>63.6</ele>
        <time>2015-08-02T09:43:39.245Z</time>
      </trkpt>
      <trkpt lat="43.20165" lon="2.52345">
        <ele>63.5</ele>
        <time>2015-08-02T09:43:40.183Z</time>
      </trkpt>
      <trkpt lat="43.20163" lon="2.52356">
        <ele>63.4</ele>
        <time>2015-08-02T09:43:42.222Z</time>
      </trkpt>
      <trkpt lat="43.20162" lon="2.52361">
        <ele>63.4</ele>
        <time>2015-08-02T09:43:43.187Z</time>
      </trkpt>
      <trkpt lat="43.20159" lon="2.52372">
        <ele>63.4</ele>
        <time>2015-08-02T09:43:45.241Z</time>
      </trkpt>
      <trkpt lat="43.20158" lon="2.52378">
        <ele>63.4</ele>
        <time>2015-08-02T09:43:46.189Z</time>
      </trkpt>
      <trkpt lat="43.20157" lon="2.52389">
        <ele>63.7</ele>
        <time>2015-08-02T09:43:48.222Z</time>
      </trkpt>
      <trkpt lat="43.20156" lon="2.52395">
        <ele>63.7</ele>
        <time>2015-08-02T09:43:49.180Z</time>
      </trkpt>
      <trkpt lat="43.20155" lon="2.52407">
        <ele>63.6</ele>
        <time>2015-08-02T09:43:51.228Z</time>
      </trkpt>
      <trkpt lat="43.20154" lon="2.52412">
        <ele>63.4</ele>
        <time>2015-08-02T09:43:52.183Z</time>
      </trkpt>
      <trkpt lat="43.20152" lon="2.52424">
        <ele>63.1</ele>
        <time>2015-08-02T09:43:54.221Z</time>
      </trkpt>
      <trkpt lat="43.20151" lon="2.52429">
        <ele>63</ele>
        <time>2015-08-02T09:43:55.182Z</time>
      </trkpt>
      <trkpt lat="43.2015" lon="2.52441">
        <ele>62.7</ele>
        <time>2015-08-02T09:43:57.257Z</time>
      </trkpt>
      <trkpt lat="43.2015" lon="2.52447">
        <ele>62.7</ele>
        <time>2015-08-02T09:43:58.189Z</time>
      </trkpt>
      <trkpt lat="43.20148" lon="2.52458">
        <ele>62.5</ele>
        <time>2015-08-02T09:44:00.225Z</time>
      </trkpt>
      <trkpt lat="43.20147" lon="2.52463">
        <ele>62.3</ele>
        <time>2015-08-02T09:44:01.186Z</time>
      </trkpt>
      <trkpt lat="43.20147" lon="2.52473">
        <ele>62.3</ele>
        <time>2015-08-02T09:44:03.227Z</time>
      </trkpt>
      <trkpt lat="43.20147" lon="2.52479">
        <ele>62.2</ele>
        <time>2015-08-02T09:44:04.183Z</time>
      </trkpt>
      <trkpt lat="43.20146" lon="2.5249">
        <ele>62.1</ele>
        <time>2015-08-02T09:44:06.248Z</time>
      </trkpt>
      <trkpt lat="43.20146" lon="2.52496">
        <ele>62</ele>
        <time>2015-08-02T09:44:07.192Z</time>
      </trkpt>
      <trkpt lat="43.20144" lon="2.52507">
        <ele>61.6</ele>
        <time>2015-08-02T09:44:09.236Z</time>
      </trkpt>
      <trkpt lat="43.20143" lon="2.52513">
        <ele>61.4</ele>
        <time>2015-08-02T09:44:10.178Z</time>
      </trkpt>
      <trkpt lat="43.20142" lon="2.52519">
        <ele>61.3</ele>
        <time>2015-08-02T09:44:11.234Z</time>
      </trkpt>
      <trkpt lat="43.20141" lon="2.52525">
        <ele>61.3</ele>
        <time>2015-08-02T09:44:12.181Z</time>
      </trkpt>
      <trkpt lat="43.2014" lon="2.52531">
        <ele>61.4</ele>
        <time>2015-08-02T09:44:13.282Z</time>
      </trkpt>
      <trkpt lat="43.20138" lon="2.52538">
        <ele>61.4</ele>
        <time>2015-08-02T09:44:14.178Z</time>
      </trkpt>
      <trkpt lat="43.20137" lon="2.52549">
        <ele>61.6</ele>
        <time>2015-08-02T09:44:16.215Z</time>
      </trkpt>
      <trkpt lat="43.20135" lon="2.52555">
        <ele>61.7</ele>
        <time>2015-08-02T09:44:17.181Z</time>
      </trkpt>
      <trkpt lat="43.20132" lon="2.52566">
        <ele>61.6</ele>
        <time>2015-08-02T09:44:19.220Z</time>
      </trkpt>
      <trkpt lat="43.20131" lon="2.52571">
        <ele>61.5</ele>
        <time>2015-08-02T09:44:20.178Z</time>
      </trkpt>
      <trkpt lat="43.20127" lon="2.52582">
        <ele>61.1</ele>
        <time>2015-08-02T09:44:22.217Z</time>
      </trkpt>
      <trkpt lat="43.20126" lon="2.52586">
        <ele>61</ele>
        <time>2015-08-02T09:44:23.178Z</time>
      </trkpt>
      <trkpt lat="43.20123" lon="2.52596">
        <ele>60.7</ele>
        <time>2015-08-02T09:44:25.231Z</time>
      </trkpt>
      <trkpt lat="43.20122" lon="2.52601">
        <ele>60.6</ele>
        <time>2015-08-02T09:44:26.178Z</time>
      </trkpt>
      <trkpt lat="43.20119" lon="2.52611">
        <ele>60.3</ele>
        <time>2015-08-02T09:44:28.221Z</time>
      </trkpt>
      <trkpt lat="43.20117" lon="2.52616">
        <ele>60.2</ele>
        <time>2015-08-02T09:44:29.182Z</time>
      </trkpt>
      <trkpt lat="43.20114" lon="2.52627">
        <ele>60.1</ele>
        <time>2015-08-02T09:44:31.221Z</time>
      </trkpt>
      <trkpt lat="43.20113" lon="2.52632">
        <ele>60</ele>
        <time>2015-08-02T09:44:32.190Z</time>
      </trkpt>
      <trkpt lat="43.20111" lon="2.52642">
        <ele>59.8</ele>
        <time>2015-08-02T09:44:34.244Z</time>
      </trkpt>
      <trkpt lat="43.2011" lon="2.52647">
        <ele>59.6</ele>
        <time>2015-08-02T09:44:35.203Z</time>
      </trkpt>
      <trkpt lat="43.20108" lon="2.52658">
        <ele>59.2</ele>
        <time>2015-08-02T09:44:37.223Z</time>
      </trkpt>
      <trkpt lat="43.20109" lon="2.52664">
        <ele>59.2</ele>
        <time>2015-08-02T09:44:38.181Z</time>
      </trkpt>
      <trkpt lat="43.20109" lon="2.52675">
        <ele>59.2</ele>
        <time>2015-08-02T09:44:40.219Z</time>
      </trkpt>
      <trkpt lat="43.2011" lon="2.52681">
        <ele>59.3</ele>
        <time>2015-08-02T09:44:41.184Z</time>
      </trkpt>
      <trkpt lat="43.20111" lon="2.52692">
        <ele>59.3</ele>
        <time>2015-08-02T09:44:43.274Z</time>
      </trkpt>
      <trkpt lat="43.20112" lon="2.52697">
        <ele>59.4</ele>
        <time>2015-08-02T09:44:44.190Z</time>
      </trkpt>
      <trkpt lat="43.20114" lon="2.52708">
        <ele>59.4</ele>
        <time>2015-08-02T09:44:46.222Z</time>
      </trkpt>
      <trkpt lat="43.20114" lon="2.52713">
        <ele>59.4</ele>
        <time>2015-08-02T09:44:47.177Z</time>
      </trkpt>
      <trkpt lat="43.20117" lon="2.52724">
        <ele>59.3</ele>
        <time>2015-08-02T09:44:49.224Z</time>
      </trkpt>
      <trkpt lat="43.20118" lon="2.52729">
        <ele>59.2</ele>
        <time>2015-08-02T09:44:50.181Z</time>
      </trkpt>
      <trkpt lat="43.20122" lon="2.5274">
        <ele>59.2</ele>
        <time>2015-08-02T09:44:52.245Z</time>
      </trkpt>
      <trkpt lat="43.20123" lon="2.52746">
        <ele>59.2</ele>
        <time>2015-08-02T09:44:53.202Z</time>
      </trkpt>
      <trkpt lat="43.20125" lon="2.52753">
        <ele>59.2</ele>
        <time>2015-08-02T09:44:54.222Z</time>
      </trkpt>
      <trkpt lat="43.20126" lon="2.52759">
        <ele>59.1</ele>
        <time>2015-08-02T09:44:55.181Z</time>
      </trkpt>
      <trkpt lat="43.20128" lon="2.52765">
        <ele>59</ele>
        <time>2015-08-02T09:44:56.224Z</time>
      </trkpt>
      <trkpt lat="43.20129" lon="2.52771">
        <ele>59</ele>
        <time>2015-08-02T09:44:57.179Z</time>
      </trkpt>
      <trkpt lat="43.20129" lon="2.52777">
        <ele>58.8</ele>
        <time>2015-08-02T09:44:58.221Z</time>
      </trkpt>
      <trkpt lat="43.2013" lon="2.52784">
        <ele>58.9</ele>
        <time>2015-08-02T09:44:59.188Z</time>
      </trkpt>
      <trkpt lat="43.20131" lon="2.5279">
        <ele>58.9</ele>
        <time>2015-08-02T09:45:00.223Z</time>
      </trkpt>
      <trkpt lat="43.20131" lon="2.52796">
        <ele>58.9</ele>
        <time>2015-08-02T09:45:01.203Z</time>
      </trkpt>
      <trkpt lat="43.20132" lon="2.52803">
        <ele>59</ele>
        <time>2015-08-02T09:45:02.251Z</time>
      </trkpt>
      <trkpt lat="43.20132" lon="2.52809">
        <ele>59</ele>
        <time>2015-08-02T09:45:03.201Z</time>
      </trkpt>
      <trkpt lat="43.20133" lon="2.52815">
        <ele>59</ele>
        <time>2015-08-02T09:45:04.267Z</time>
      </trkpt>
      <trkpt lat="43.20133" lon="2.52821">
        <ele>59</ele>
        <time>2015-08-02T09:45:05.181Z</time>
      </trkpt>
      <trkpt lat="43.20133" lon="2.52828">
        <ele>59</ele>
        <time>2015-08-02T09:45:06.223Z</time>
      </trkpt>
      <trkpt lat="43.20133" lon="2.52834">
        <ele>58.9</ele>
        <time>2015-08-02T09:45:07.184Z</time>
      </trkpt>
      <trkpt lat="43.20133" lon="2.5284">
        <ele>58.8</ele>
        <time>2015-08-02T09:45:08.223Z</time>
      </trkpt>
      <trkpt lat="43.20132" lon="2.52847">
        <ele>58.7</ele>
        <time>2015-08-02T09:45:09.181Z</time>
      </trkpt>
      <trkpt lat="43.20132" lon="2.52853">
        <ele>58.7</ele>
        <time>2015-08-02T09:45:10.220Z</time>
      </trkpt>
      <trkpt lat="43.20132" lon="2.52859">
        <ele>59</ele>
        <time>2015-08-02T09:45:11.181Z</time>
      </trkpt>
      <trkpt lat="43.20131" lon="2.52871">
        <ele>58.9</ele>
        <time>2015-08-02T09:45:13.259Z</time>
      </trkpt>
      <trkpt lat="43.20129" lon="2.52876">
        <ele>58.8</ele>
        <time>2015-08-02T09:45:14.190Z</time>
      </trkpt>
      <trkpt lat="43.20128" lon="2.52887">
        <ele>58.9</ele>
        <time>2015-08-02T09:45:16.215Z</time>
      </trkpt>
      <trkpt lat="43.20127" lon="2.52892">
        <ele>58.9</ele>
        <time>2015-08-02T09:45:17.180Z</time>
      </trkpt>
      <trkpt lat="43.20126" lon="2.52903">
        <ele>59</ele>
        <time>2015-08-02T09:45:19.218Z</time>
      </trkpt>
      <trkpt lat="43.20125" lon="2.52909">
        <ele>59.1</ele>
        <time>2015-08-02T09:45:20.181Z</time>
      </trkpt>
      <trkpt lat="43.20123" lon="2.5292">
        <ele>59.2</ele>
        <time>2015-08-02T09:45:22.214Z</time>
      </trkpt>
      <trkpt lat="43.20122" lon="2.52925">
        <ele>59.3</ele>
        <time>2015-08-02T09:45:23.180Z</time>
      </trkpt>
      <trkpt lat="43.20121" lon="2.52937">
        <ele>59.6</ele>
        <time>2015-08-02T09:45:25.225Z</time>
      </trkpt>
      <trkpt lat="43.2012" lon="2.52942">
        <ele>59.9</ele>
        <time>2015-08-02T09:45:26.177Z</time>
      </trkpt>
      <trkpt lat="43.20119" lon="2.52954">
        <ele>60.1</ele>
        <time>2015-08-02T09:45:28.222Z</time>
      </trkpt>
      <trkpt lat="43.20118" lon="2.52959">
        <ele>60.1</ele>
        <time>2015-08-02T09:45:29.181Z</time>
      </trkpt>
      <trkpt lat="43.20116" lon="2.5297">
        <ele>60</ele>
        <time>2015-08-02T09:45:31.253Z</time>
      </trkpt>
      <trkpt lat="43.20115" lon="2.52976">
        <ele>59.7</ele>
        <time>2015-08-02T09:45:32.183Z</time>
      </trkpt>
      <trkpt lat="43.20114" lon="2.52982">
        <ele>59.6</ele>
        <time>2015-08-02T09:45:33.264Z</time>
      </trkpt>
      <trkpt lat="43.20113" lon="2.52988">
        <ele>59.5</ele>
        <time>2015-08-02T09:45:34.190Z</time>
      </trkpt>
      <trkpt lat="43.20112" lon="2.52994">
        <ele>59.3</ele>
        <time>2015-08-02T09:45:35.288Z</time>
      </trkpt>
      <trkpt lat="43.20111" lon="2.53001">
        <ele>59.1</ele>
        <time>2015-08-02T09:45:36.191Z</time>
      </trkpt>
      <trkpt lat="43.2011" lon="2.53007">
        <ele>59.1</ele>
        <time>2015-08-02T09:45:37.265Z</time>
      </trkpt>
      <trkpt lat="43.20109" lon="2.53013">
        <ele>59.1</ele>
        <time>2015-08-02T09:45:38.191Z</time>
      </trkpt>
      <trkpt lat="43.20108" lon="2.5302">
        <ele>59</ele>
        <time>2015-08-02T09:45:39.231Z</time>
      </trkpt>
      <trkpt lat="43.20108" lon="2.53026">
        <ele>59</ele>
        <time>2015-08-02T09:45:40.181Z</time>
      </trkpt>
      <trkpt lat="43.20107" lon="2.53033">
        <ele>58.9</ele>
        <time>2015-08-02T09:45:41.227Z</time>
      </trkpt>
      <trkpt lat="43.20105" lon="2.53039">
        <ele>58.8</ele>
        <time>2015-08-02T09:45:42.182Z</time>
      </trkpt>
      <trkpt lat="43.20105" lon="2.53045">
        <ele>58.7</ele>
        <time>2015-08-02T09:45:43.232Z</time>
      </trkpt>
      <trkpt lat="43.20104" lon="2.53052">
        <ele>58.7</ele>
        <time>2015-08-02T09:45:44.180Z</time>
      </trkpt>
      <trkpt lat="43.20104" lon="2.53059">
        <ele>58.7</ele>
        <time>2015-08-02T09:45:45.237Z</time>
      </trkpt>
      <trkpt lat="43.20103" lon="2.53066">
        <ele>58.8</ele>
        <time>2015-08-02T09:45:46.191Z</time>
      </trkpt>
      <trkpt lat="43.20103" lon="2.53073">
        <ele>58.8</ele>
        <time>2015-08-02T09:45:47.278Z</time>
      </trkpt>
      <trkpt lat="43.20103" lon="2.53079">
        <ele>58.8</ele>
        <time>2015-08-02T09:45:48.190Z</time>
      </trkpt>
      <trkpt lat="43.20103" lon="2.53086">
        <ele>58.8</ele>
        <time>2015-08-02T09:45:49.534Z</time>
      </trkpt>
      <trkpt lat="43.20104" lon="2.53092">
        <ele>58.9</ele>
        <time>2015-08-02T09:45:50.180Z</time>
      </trkpt>
      <trkpt lat="43.20104" lon="2.53099">
        <ele>58.9</ele>
        <time>2015-08-02T09:45:51.243Z</time>
      </trkpt>
      <trkpt lat="43.20105" lon="2.53107">
        <ele>58.9</ele>
        <time>2015-08-02T09:45:52.181Z</time>
      </trkpt>
      <trkpt lat="43.20105" lon="2.53113">
        <ele>59</ele>
        <time>2015-08-02T09:45:53.229Z</time>
      </trkpt>
      <trkpt lat="43.20105" lon="2.5312">
        <ele>59</ele>
        <time>2015-08-02T09:45:54.179Z</time>
      </trkpt>
      <trkpt lat="43.20106" lon="2.53127">
        <ele>59</ele>
        <time>2015-08-02T09:45:55.234Z</time>
      </trkpt>
      <trkpt lat="43.20106" lon="2.53134">
        <ele>59</ele>
        <time>2015-08-02T09:45:56.177Z</time>
      </trkpt>
      <trkpt lat="43.20106" lon="2.5314">
        <ele>59</ele>
        <time>2015-08-02T09:45:57.229Z</time>
      </trkpt>
      <trkpt lat="43.20106" lon="2.53146">
        <ele>59</ele>
        <time>2015-08-02T09:45:58.181Z</time>
      </trkpt>
      <trkpt lat="43.20106" lon="2.53158">
        <ele>59</ele>
        <time>2015-08-02T09:46:00.246Z</time>
      </trkpt>
      <trkpt lat="43.20106" lon="2.53164">
        <ele>59</ele>
        <time>2015-08-02T09:46:01.205Z</time>
      </trkpt>
      <trkpt lat="43.20106" lon="2.53175">
        <ele>58.8</ele>
        <time>2015-08-02T09:46:03.264Z</time>
      </trkpt>
      <trkpt lat="43.20106" lon="2.53181">
        <ele>58.6</ele>
        <time>2015-08-02T09:46:04.190Z</time>
      </trkpt>
      <trkpt lat="43.20107" lon="2.53192">
        <ele>58.4</ele>
        <time>2015-08-02T09:46:06.242Z</time>
      </trkpt>
      <trkpt lat="43.20107" lon="2.53198">
        <ele>58.4</ele>
        <time>2015-08-02T09:46:07.559Z</time>
      </trkpt>
      <trkpt lat="43.20109" lon="2.53209">
        <ele>58.5</ele>
        <time>2015-08-02T09:46:09.230Z</time>
      </trkpt>
      <trkpt lat="43.20111" lon="2.53215">
        <ele>58.8</ele>
        <time>2015-08-02T09:46:10.179Z</time>
      </trkpt>
      <trkpt lat="43.20112" lon="2.53224">
        <ele>58.6</ele>
        <time>2015-08-02T09:46:12.221Z</time>
      </trkpt>
      <trkpt lat="43.20113" lon="2.53228">
        <ele>58.6</ele>
        <time>2015-08-02T09:46:13.184Z</time>
      </trkpt>
      <trkpt lat="43.20117" lon="2.53237">
        <ele>58.9</ele>
        <time>2015-08-02T09:46:17.577Z</time>
      </trkpt>
      <trkpt lat="43.20119" lon="2.53239">
        <ele>59</ele>
        <time>2015-08-02T09:46:18.181Z</time>
      </trkpt>
      <trkpt lat="43.20124" lon="2.53246">
        <ele>59.3</ele>
        <time>2015-08-02T09:46:21.222Z</time>
      </trkpt>
      <trkpt lat="43.20126" lon="2.53248">
        <ele>59.4</ele>
        <time>2015-08-02T09:46:22.189Z</time>
      </trkpt>
      <trkpt lat="43.20132" lon="2.53254">
        <ele>59.4</ele>
        <time>2015-08-02T09:46:25.400Z</time>
      </trkpt>
      <trkpt lat="43.20134" lon="2.53256">
        <ele>59.4</ele>
        <time>2015-08-02T09:46:26.179Z</time>
      </trkpt>
      <trkpt lat="43.20141" lon="2.53258">
        <ele>60.4</ele>
        <time>2015-08-02T09:46:28.222Z</time>
      </trkpt>
      <trkpt lat="43.20145" lon="2.53259">
        <ele>60.8</ele>
        <time>2015-08-02T09:46:29.181Z</time>
      </trkpt>
      <trkpt lat="43.20151" lon="2.53262">
        <ele>61.2</ele>
        <time>2015-08-02T09:46:31.230Z</time>
      </trkpt>
      <trkpt lat="43.20154" lon="2.53264">
        <ele>61.2</ele>
        <time>2015-08-02T09:46:32.181Z</time>
      </trkpt>
      <trkpt lat="43.20161" lon="2.53268">
        <ele>61.3</ele>
        <time>2015-08-02T09:46:34.267Z</time>
      </trkpt>
      <trkpt lat="43.20164" lon="2.53271">
        <ele>61.4</ele>
        <time>2015-08-02T09:46:35.202Z</time>
      </trkpt>
      <trkpt lat="43.2017" lon="2.53278">
        <ele>61.4</ele>
        <time>2015-08-02T09:46:37.250Z</time>
      </trkpt>
      <trkpt lat="43.20173" lon="2.53282">
        <ele>61.5</ele>
        <time>2015-08-02T09:46:38.545Z</time>
      </trkpt>
      <trkpt lat="43.20179" lon="2.53289">
        <ele>61.6</ele>
        <time>2015-08-02T09:46:40.227Z</time>
      </trkpt>
      <trkpt lat="43.20181" lon="2.53293">
        <ele>61.7</ele>
        <time>2015-08-02T09:46:41.183Z</time>
      </trkpt>
      <trkpt lat="43.20186" lon="2.53301">
        <ele>61.7</ele>
        <time>2015-08-02T09:46:43.226Z</time>
      </trkpt>
      <trkpt lat="43.20189" lon="2.53305">
        <ele>61.8</ele>
        <time>2015-08-02T09:46:44.183Z</time>
      </trkpt>
      <trkpt lat="43.20191" lon="2.53314">
        <ele>61.9</ele>
        <time>2015-08-02T09:46:46.249Z</time>
      </trkpt>
      <trkpt lat="43.20192" lon="2.5332">
        <ele>62</ele>
        <time>2015-08-02T09:46:47.190Z</time>
      </trkpt>
      <trkpt lat="43.20192" lon="2.53326">
        <ele>62.1</ele>
        <time>2015-08-02T09:46:48.221Z</time>
      </trkpt>
      <trkpt lat="43.20193" lon="2.53333">
        <ele>62.1</ele>
        <time>2015-08-02T09:46:49.188Z</time>
      </trkpt>
      <trkpt lat="43.20193" lon="2.5334">
        <ele>62.4</ele>
        <time>2015-08-02T09:46:50.222Z</time>
      </trkpt>
      <trkpt lat="43.20193" lon="2.53346">
        <ele>62.5</ele>
        <time>2015-08-02T09:46:51.183Z</time>
      </trkpt>
      <trkpt lat="43.20193" lon="2.53353">
        <ele>62.6</ele>
        <time>2015-08-02T09:46:52.221Z</time>
      </trkpt>
      <trkpt lat="43.20192" lon="2.53359">
        <ele>62.6</ele>
        <time>2015-08-02T09:46:53.186Z</time>
      </trkpt>
      <trkpt lat="43.20192" lon="2.53366">
        <ele>62.6</ele>
        <time>2015-08-02T09:46:54.220Z</time>
      </trkpt>
      <trkpt lat="43.20192" lon="2.53372">
        <ele>62.9</ele>
        <time>2015-08-02T09:46:55.204Z</time>
      </trkpt>
      <trkpt lat="43.20191" lon="2.53383">
        <ele>63.6</ele>
        <time>2015-08-02T09:46:57.227Z</time>
      </trkpt>
      <trkpt lat="43.2019" lon="2.53389">
        <ele>64</ele>
        <time>2015-08-02T09:46:58.180Z</time>
      </trkpt>
      <trkpt lat="43.2019" lon="2.53395">
        <ele>64.3</ele>
        <time>2015-08-02T09:46:59.229Z</time>
      </trkpt>
      <trkpt lat="43.20189" lon="2.53401">
        <ele>64.4</ele>
        <time>2015-08-02T09:47:00.182Z</time>
      </trkpt>
      <trkpt lat="43.20188" lon="2.53408">
        <ele>64.5</ele>
        <time>2015-08-02T09:47:01.232Z</time>
      </trkpt>
      <trkpt lat="43.20187" lon="2.53414">
        <ele>64.7</ele>
        <time>2015-08-02T09:47:02.182Z</time>
      </trkpt>
      <trkpt lat="43.20185" lon="2.53421">
        <ele>64.8</ele>
        <time>2015-08-02T09:47:03.241Z</time>
      </trkpt>
      <trkpt lat="43.20184" lon="2.53427">
        <ele>64.9</ele>
        <time>2015-08-02T09:47:04.183Z</time>
      </trkpt>
      <trkpt lat="43.20182" lon="2.53434">
        <ele>64.8</ele>
        <time>2015-08-02T09:47:05.239Z</time>
      </trkpt>
      <trkpt lat="43.2018" lon="2.53441">
        <ele>64.7</ele>
        <time>2015-08-02T09:47:06.183Z</time>
      </trkpt>
      <trkpt lat="43.20178" lon="2.53448">
        <ele>64.6</ele>
        <time>2015-08-02T09:47:07.230Z</time>
      </trkpt>
      <trkpt lat="43.20177" lon="2.53455">
        <ele>64.5</ele>
        <time>2015-08-02T09:47:08.183Z</time>
      </trkpt>
      <trkpt lat="43.20175" lon="2.53462">
        <ele>64.5</ele>
        <time>2015-08-02T09:47:09.234Z</time>
      </trkpt>
      <trkpt lat="43.20175" lon="2.53469">
        <ele>64.4</ele>
        <time>2015-08-02T09:47:10.190Z</time>
      </trkpt>
      <trkpt lat="43.20174" lon="2.53476">
        <ele>64.2</ele>
        <time>2015-08-02T09:47:11.284Z</time>
      </trkpt>
      <trkpt lat="43.20172" lon="2.53483">
        <ele>64.2</ele>
        <time>2015-08-02T09:47:12.190Z</time>
      </trkpt>
      <trkpt lat="43.2017" lon="2.5349">
        <ele>64.3</ele>
        <time>2015-08-02T09:47:13.230Z</time>
      </trkpt>
      <trkpt lat="43.20171" lon="2.53497">
        <ele>64.2</ele>
        <time>2015-08-02T09:47:14.179Z</time>
      </trkpt>
      <trkpt lat="43.20171" lon="2.53504">
        <ele>64.2</ele>
        <time>2015-08-02T09:47:15.232Z</time>
      </trkpt>
      <trkpt lat="43.20172" lon="2.53511">
        <ele>64</ele>
        <time>2015-08-02T09:47:16.181Z</time>
      </trkpt>
      <trkpt lat="43.20174" lon="2.53518">
        <ele>64.3</ele>
        <time>2015-08-02T09:47:17.230Z</time>
      </trkpt>
      <trkpt lat="43.20176" lon="2.53524">
        <ele>64.4</ele>
        <time>2015-08-02T09:47:18.180Z</time>
      </trkpt>
      <trkpt lat="43.2018" lon="2.53534">
        <ele>64.4</ele>
        <time>2015-08-02T09:47:20.247Z</time>
      </trkpt>
      <trkpt lat="43.20182" lon="2.53539">
        <ele>64.5</ele>
        <time>2015-08-02T09:47:21.201Z</time>
      </trkpt>
      <trkpt lat="43.20188" lon="2.53547">
        <ele>65</ele>
        <time>2015-08-02T09:47:23.228Z</time>
      </trkpt>
      <trkpt lat="43.2019" lon="2.53551">
        <ele>65.3</ele>
        <time>2015-08-02T09:47:24.181Z</time>
      </trkpt>
      <trkpt lat="43.20196" lon="2.53558">
        <ele>66.3</ele>
        <time>2015-08-02T09:47:26.227Z</time>
      </trkpt>
      <trkpt lat="43.20199" lon="2.53562">
        <ele>66.6</ele>
        <time>2015-08-02T09:47:27.179Z</time>
      </trkpt>
      <trkpt lat="43.20204" lon="2.53572">
        <ele>66.9</ele>
        <time>2015-08-02T09:47:29.224Z</time>
      </trkpt>
      <trkpt lat="43.20205" lon="2.53578">
        <ele>66.9</ele>
        <time>2015-08-02T09:47:30.190Z</time>
      </trkpt>
      <trkpt lat="43.20207" lon="2.53584">
        <ele>66.9</ele>
        <time>2015-08-02T09:47:31.277Z</time>
      </trkpt>
      <trkpt lat="43.20207" lon="2.5359">
        <ele>67.1</ele>
        <time>2015-08-02T09:47:32.190Z</time>
      </trkpt>
      <trkpt lat="43.20209" lon="2.53597">
        <ele>67.2</ele>
        <time>2015-08-02T09:47:33.230Z</time>
      </trkpt>
      <trkpt lat="43.20209" lon="2.53604">
        <ele>67.4</ele>
        <time>2015-08-02T09:47:34.182Z</time>
      </trkpt>
      <trkpt lat="43.2021" lon="2.5361">
        <ele>67.4</ele>
        <time>2015-08-02T09:47:35.237Z</time>
      </trkpt>
      <trkpt lat="43.2021" lon="2.53617">
        <ele>67.6</ele>
        <time>2015-08-02T09:47:36.181Z</time>
      </trkpt>
      <trkpt lat="43.2021" lon="2.53624">
        <ele>67.7</ele>
        <time>2015-08-02T09:47:37.238Z</time>
      </trkpt>
      <trkpt lat="43.20212" lon="2.5363">
        <ele>67.7</ele>
        <time>2015-08-02T09:47:38.179Z</time>
      </trkpt>
      <trkpt lat="43.20212" lon="2.53637">
        <ele>67.6</ele>
        <time>2015-08-02T09:47:39.254Z</time>
      </trkpt>
      <trkpt lat="43.20212" lon="2.53643">
        <ele>67.6</ele>
        <time>2015-08-02T09:47:40.190Z</time>
      </trkpt>
      <trkpt lat="43.20212" lon="2.53653">
        <ele>67.9</ele>
        <time>2015-08-02T09:47:42.246Z</time>
      </trkpt>
      <trkpt lat="43.20215" lon="2.53659">
        <ele>68</ele>
        <time>2015-08-02T09:47:43.204Z</time>
      </trkpt>
      <trkpt lat="43.20216" lon="2.53666">
        <ele>67.8</ele>
        <time>2015-08-02T09:47:44.232Z</time>
      </trkpt>
      <trkpt lat="43.20217" lon="2.53672">
        <ele>67.7</ele>
        <time>2015-08-02T09:47:45.181Z</time>
      </trkpt>
      <trkpt lat="43.20218" lon="2.53683">
        <ele>67.8</ele>
        <time>2015-08-02T09:47:47.251Z</time>
      </trkpt>
      <trkpt lat="43.20219" lon="2.53689">
        <ele>67.7</ele>
        <time>2015-08-02T09:47:48.181Z</time>
      </trkpt>
      <trkpt lat="43.20222" lon="2.537">
        <ele>67.8</ele>
        <time>2015-08-02T09:47:50.227Z</time>
      </trkpt>
      <trkpt lat="43.20222" lon="2.53705">
        <ele>67.7</ele>
        <time>2015-08-02T09:47:51.190Z</time>
      </trkpt>
      <trkpt lat="43.20224" lon="2.53717">
        <ele>67.9</ele>
        <time>2015-08-02T09:47:53.260Z</time>
      </trkpt>
      <trkpt lat="43.20225" lon="2.53722">
        <ele>68</ele>
        <time>2015-08-02T09:47:54.181Z</time>
      </trkpt>
      <trkpt lat="43.20226" lon="2.53728">
        <ele>68.3</ele>
        <time>2015-08-02T09:47:55.240Z</time>
      </trkpt>
      <trkpt lat="43.20228" lon="2.53735">
        <ele>68.6</ele>
        <time>2015-08-02T09:47:56.181Z</time>
      </trkpt>
      <trkpt lat="43.20228" lon="2.53741">
        <ele>68.7</ele>
        <time>2015-08-02T09:47:57.249Z</time>
      </trkpt>
      <trkpt lat="43.20229" lon="2.53748">
        <ele>68.8</ele>
        <time>2015-08-02T09:47:58.181Z</time>
      </trkpt>
      <trkpt lat="43.2023" lon="2.53755">
        <ele>68.8</ele>
        <time>2015-08-02T09:47:59.259Z</time>
      </trkpt>
      <trkpt lat="43.20233" lon="2.53761">
        <ele>68.9</ele>
        <time>2015-08-02T09:48:00.190Z</time>
      </trkpt>
      <trkpt lat="43.20236" lon="2.53767">
        <ele>68.9</ele>
        <time>2015-08-02T09:48:01.246Z</time>
      </trkpt>
      <trkpt lat="43.20238" lon="2.53773">
        <ele>68.9</ele>
        <time>2015-08-02T09:48:02.180Z</time>
      </trkpt>
      <trkpt lat="43.2024" lon="2.53779">
        <ele>69</ele>
        <time>2015-08-02T09:48:03.230Z</time>
      </trkpt>
      <trkpt lat="43.20242" lon="2.53784">
        <ele>69.2</ele>
        <time>2015-08-02T09:48:04.180Z</time>
      </trkpt>
      <trkpt lat="43.20246" lon="2.53795">
        <ele>69.2</ele>
        <time>2015-08-02T09:48:06.220Z</time>
      </trkpt>
      <trkpt lat="43.20248" lon="2.53801">
        <ele>69.2</ele>
        <time>2015-08-02T09:48:07.183Z</time>
      </trkpt>
      <trkpt lat="43.20251" lon="2.53806">
        <ele>69.3</ele>
        <time>2015-08-02T09:48:08.220Z</time>
      </trkpt>
      <trkpt lat="43.20254" lon="2.53812">
        <ele>69.3</ele>
        <time>2015-08-02T09:48:09.179Z</time>
      </trkpt>
      <trkpt lat="43.20256" lon="2.53817">
        <ele>69.2</ele>
        <time>2015-08-02T09:48:10.228Z</time>
      </trkpt>
      <trkpt lat="43.20259" lon="2.53823">
        <ele>69.2</ele>
        <time>2015-08-02T09:48:11.184Z</time>
      </trkpt>
      <trkpt lat="43.20262" lon="2.53829">
        <ele>69.2</ele>
        <time>2015-08-02T09:48:12.231Z</time>
      </trkpt>
      <trkpt lat="43.20267" lon="2.53835">
        <ele>70</ele>
        <time>2015-08-02T09:48:13.189Z</time>
      </trkpt>
      <trkpt lat="43.2027" lon="2.5384">
        <ele>69.9</ele>
        <time>2015-08-02T09:48:14.236Z</time>
      </trkpt>
      <trkpt lat="43.20273" lon="2.53845">
        <ele>70</ele>
        <time>2015-08-02T09:48:15.183Z</time>
      </trkpt>
      <trkpt lat="43.20277" lon="2.53849">
        <ele>70.3</ele>
        <time>2015-08-02T09:48:16.228Z</time>
      </trkpt>
      <trkpt lat="43.20281" lon="2.53854">
        <ele>70.4</ele>
        <time>2015-08-02T09:48:17.188Z</time>
      </trkpt>
      <trkpt lat="43.20284" lon="2.53858">
        <ele>70.8</ele>
        <time>2015-08-02T09:48:18.229Z</time>
      </trkpt>
      <trkpt lat="43.20289" lon="2.53862">
        <ele>71.6</ele>
        <time>2015-08-02T09:48:19.182Z</time>
      </trkpt>
      <trkpt lat="43.20296" lon="2.53869">
        <ele>72.1</ele>
        <time>2015-08-02T09:48:21.240Z</time>
      </trkpt>
      <trkpt lat="43.20299" lon="2.53872">
        <ele>72.1</ele>
        <time>2015-08-02T09:48:22.207Z</time>
      </trkpt>
      <trkpt lat="43.20305" lon="2.53877">
        <ele>72.3</ele>
        <time>2015-08-02T09:48:24.426Z</time>
      </trkpt>
      <trkpt lat="43.20308" lon="2.53879">
        <ele>72.6</ele>
        <time>2015-08-02T09:48:25.184Z</time>
      </trkpt>
      <trkpt lat="43.20314" lon="2.53884">
        <ele>73.2</ele>
        <time>2015-08-02T09:48:27.245Z</time>
      </trkpt>
      <trkpt lat="43.20317" lon="2.53886">
        <ele>73.6</ele>
        <time>2015-08-02T09:48:28.182Z</time>
      </trkpt>
      <trkpt lat="43.20323" lon="2.5389">
        <ele>74.4</ele>
        <time>2015-08-02T09:48:30.240Z</time>
      </trkpt>
      <trkpt lat="43.20325" lon="2.53892">
        <ele>74.7</ele>
        <time>2015-08-02T09:48:31.206Z</time>
      </trkpt>
      <trkpt lat="43.20333" lon="2.53895">
        <ele>75.7</ele>
        <time>2015-08-02T09:48:35.242Z</time>
      </trkpt>
      <trkpt lat="43.20335" lon="2.53896">
        <ele>76</ele>
        <time>2015-08-02T09:48:36.180Z</time>
      </trkpt>
      <trkpt lat="43.20344" lon="2.53897">
        <ele>76.9</ele>
        <time>2015-08-02T09:48:41.264Z</time>
      </trkpt>
      <trkpt lat="43.20345" lon="2.53898">
        <ele>77.5</ele>
        <time>2015-08-02T09:48:42.191Z</time>
      </trkpt>
      <trkpt lat="43.20352" lon="2.53894">
        <ele>79.5</ele>
        <time>2015-08-02T09:48:48.229Z</time>
      </trkpt>
      <trkpt lat="43.20353" lon="2.53891">
        <ele>79.9</ele>
        <time>2015-08-02T09:48:49.183Z</time>
      </trkpt>
      <trkpt lat="43.20356" lon="2.5388">
        <ele>80.9</ele>
        <time>2015-08-02T09:48:52.233Z</time>
      </trkpt>
      <trkpt lat="43.20357" lon="2.53876">
        <ele>81.3</ele>
        <time>2015-08-02T09:48:53.192Z</time>
      </trkpt>
      <trkpt lat="43.20361" lon="2.53866">
        <ele>82.2</ele>
        <time>2015-08-02T09:48:56.231Z</time>
      </trkpt>
      <trkpt lat="43.20363" lon="2.53865">
        <ele>82.4</ele>
        <time>2015-08-02T09:48:57.184Z</time>
      </trkpt>
      <trkpt lat="43.2037" lon="2.53866">
        <ele>82.8</ele>
        <time>2015-08-02T09:49:01.264Z</time>
      </trkpt>
      <trkpt lat="43.20372" lon="2.53866">
        <ele>82.8</ele>
        <time>2015-08-02T09:49:02.190Z</time>
      </trkpt>
      <trkpt lat="43.20378" lon="2.53869">
        <ele>82.6</ele>
        <time>2015-08-02T09:49:04.231Z</time>
      </trkpt>
      <trkpt lat="43.20381" lon="2.5387">
        <ele>82.6</ele>
        <time>2015-08-02T09:49:05.179Z</time>
      </trkpt>
      <trkpt lat="43.20388" lon="2.53874">
        <ele>82.1</ele>
        <time>2015-08-02T09:49:07.237Z</time>
      </trkpt>
      <trkpt lat="43.20393" lon="2.53876">
        <ele>82</ele>
        <time>2015-08-02T09:49:08.181Z</time>
      </trkpt>
      <trkpt lat="43.20398" lon="2.53877">
        <ele>81.8</ele>
        <time>2015-08-02T09:49:09.303Z</time>
      </trkpt>
      <trkpt lat="43.20403" lon="2.5388">
        <ele>81.6</ele>
        <time>2015-08-02T09:49:10.182Z</time>
      </trkpt>
      <trkpt lat="43.20407" lon="2.53883">
        <ele>81.6</ele>
        <time>2015-08-02T09:49:11.575Z</time>
      </trkpt>
      <trkpt lat="43.20411" lon="2.53887">
        <ele>81.6</ele>
        <time>2015-08-02T09:49:12.181Z</time>
      </trkpt>
      <trkpt lat="43.20415" lon="2.5389">
        <ele>81.6</ele>
        <time>2015-08-02T09:49:13.241Z</time>
      </trkpt>
      <trkpt lat="43.20419" lon="2.53893">
        <ele>81.6</ele>
        <time>2015-08-02T09:49:14.181Z</time>
      </trkpt>
      <trkpt lat="43.20424" lon="2.53896">
        <ele>81.6</ele>
        <time>2015-08-02T09:49:15.243Z</time>
      </trkpt>
      <trkpt lat="43.20427" lon="2.539">
        <ele>81.6</ele>
        <time>2015-08-02T09:49:16.181Z</time>
      </trkpt>
      <trkpt lat="43.20433" lon="2.53906">
        <ele>81.5</ele>
        <time>2015-08-02T09:49:18.230Z</time>
      </trkpt>
      <trkpt lat="43.20436" lon="2.53909">
        <ele>81.5</ele>
        <time>2015-08-02T09:49:19.183Z</time>
      </trkpt>
      <trkpt lat="43.20441" lon="2.53918">
        <ele>81.7</ele>
        <time>2015-08-02T09:49:21.242Z</time>
      </trkpt>
      <trkpt lat="43.20443" lon="2.53922">
        <ele>81.9</ele>
        <time>2015-08-02T09:49:22.181Z</time>
      </trkpt>
      <trkpt lat="43.20448" lon="2.53929">
        <ele>82.2</ele>
        <time>2015-08-02T09:49:24.229Z</time>
      </trkpt>
      <trkpt lat="43.2045" lon="2.53933">
        <ele>82.1</ele>
        <time>2015-08-02T09:49:25.182Z</time>
      </trkpt>
      <trkpt lat="43.20453" lon="2.5394">
        <ele>82</ele>
        <time>2015-08-02T09:49:27.261Z</time>
      </trkpt>
      <trkpt lat="43.20455" lon="2.53943">
        <ele>81.9</ele>
        <time>2015-08-02T09:49:28.190Z</time>
      </trkpt>
      <trkpt lat="43.20458" lon="2.53951">
        <ele>81.7</ele>
        <time>2015-08-02T09:49:30.228Z</time>
      </trkpt>
      <trkpt lat="43.20461" lon="2.53955">
        <ele>81.8</ele>
        <time>2015-08-02T09:49:31.185Z</time>
      </trkpt>
      <trkpt lat="43.20462" lon="2.53967">
        <ele>84.4</ele>
        <time>2015-08-02T09:49:34.227Z</time>
      </trkpt>
      <trkpt lat="43.20463" lon="2.53971">
        <ele>84.6</ele>
        <time>2015-08-02T09:49:35.179Z</time>
      </trkpt>
      <trkpt lat="43.20467" lon="2.53981">
        <ele>85.5</ele>
        <time>2015-08-02T09:49:38.262Z</time>
      </trkpt>
      <trkpt lat="43.20467" lon="2.53984">
        <ele>85.4</ele>
        <time>2015-08-02T09:49:39.202Z</time>
      </trkpt>
      <trkpt lat="43.20471" lon="2.53993">
        <ele>85.6</ele>
        <time>2015-08-02T09:49:42.227Z</time>
      </trkpt>
      <trkpt lat="43.20472" lon="2.53998">
        <ele>85.6</ele>
        <time>2015-08-02T09:49:43.182Z</time>
      </trkpt>
      <trkpt lat="43.20475" lon="2.54008">
        <ele>85.7</ele>
        <time>2015-08-02T09:49:45.242Z</time>
      </trkpt>
      <trkpt lat="43.20475" lon="2.54013">
        <ele>85.8</ele>
        <time>2015-08-02T09:49:46.181Z</time>
      </trkpt>
      <trkpt lat="43.20478" lon="2.54022">
        <ele>86</ele>
        <time>2015-08-02T09:49:48.244Z</time>
      </trkpt>
      <trkpt lat="43.20479" lon="2.54027">
        <ele>86.1</ele>
        <time>2015-08-02T09:49:49.204Z</time>
      </trkpt>
      <trkpt lat="43.20482" lon="2.54037">
        <ele>86.1</ele>
        <time>2015-08-02T09:49:51.239Z</time>
      </trkpt>
      <trkpt lat="43.20482" lon="2.5404">
        <ele>86.1</ele>
        <time>2015-08-02T09:49:52.183Z</time>
      </trkpt>
      <trkpt lat="43.20483" lon="2.5405">
        <ele>86.5</ele>
        <time>2015-08-02T09:49:54.230Z</time>
      </trkpt>
      <trkpt lat="43.20484" lon="2.54059">
        <ele>87.1</ele>
        <time>2015-08-02T09:49:55.182Z</time>
      </trkpt>
      <trkpt lat="43.20486" lon="2.54066">
        <ele>87.5</ele>
        <time>2015-08-02T09:49:56.228Z</time>
      </trkpt>
      <trkpt lat="43.20486" lon="2.54074">
        <ele>87.8</ele>
        <time>2015-08-02T09:49:57.205Z</time>
      </trkpt>
      <trkpt lat="43.20487" lon="2.5408">
        <ele>88.3</ele>
        <time>2015-08-02T09:49:58.228Z</time>
      </trkpt>
      <trkpt lat="43.20487" lon="2.54087">
        <ele>88.3</ele>
        <time>2015-08-02T09:49:59.186Z</time>
      </trkpt>
      <trkpt lat="43.20488" lon="2.54097">
        <ele>89</ele>
        <time>2015-08-02T09:50:01.232Z</time>
      </trkpt>
      <trkpt lat="43.20488" lon="2.54102">
        <ele>89.1</ele>
        <time>2015-08-02T09:50:02.181Z</time>
      </trkpt>
      <trkpt lat="43.20489" lon="2.54113">
        <ele>89.7</ele>
        <time>2015-08-02T09:50:04.247Z</time>
      </trkpt>
      <trkpt lat="43.20489" lon="2.54119">
        <ele>89.7</ele>
        <time>2015-08-02T09:50:05.202Z</time>
      </trkpt>
      <trkpt lat="43.20488" lon="2.5413">
        <ele>89.4</ele>
        <time>2015-08-02T09:50:07.229Z</time>
      </trkpt>
      <trkpt lat="43.20488" lon="2.54135">
        <ele>89.2</ele>
        <time>2015-08-02T09:50:08.181Z</time>
      </trkpt>
      <trkpt lat="43.20488" lon="2.54145">
        <ele>89.2</ele>
        <time>2015-08-02T09:50:10.229Z</time>
      </trkpt>
      <trkpt lat="43.20489" lon="2.54149">
        <ele>89.1</ele>
        <time>2015-08-02T09:50:11.182Z</time>
      </trkpt>
      <trkpt lat="43.20489" lon="2.54161">
        <ele>88.7</ele>
        <time>2015-08-02T09:50:14.247Z</time>
      </trkpt>
      <trkpt lat="43.20489" lon="2.54166">
        <ele>88.7</ele>
        <time>2015-08-02T09:50:15.201Z</time>
      </trkpt>
      <trkpt lat="43.20489" lon="2.54175">
        <ele>88.7</ele>
        <time>2015-08-02T09:50:17.228Z</time>
      </trkpt>
      <trkpt lat="43.20489" lon="2.54181">
        <ele>88.8</ele>
        <time>2015-08-02T09:50:18.181Z</time>
      </trkpt>
      <trkpt lat="43.20489" lon="2.54192">
        <ele>89</ele>
        <time>2015-08-02T09:50:20.227Z</time>
      </trkpt>
      <trkpt lat="43.20489" lon="2.54196">
        <ele>88.7</ele>
        <time>2015-08-02T09:50:21.181Z</time>
      </trkpt>
      <trkpt lat="43.2049" lon="2.54207">
        <ele>89.1</ele>
        <time>2015-08-02T09:50:23.274Z</time>
      </trkpt>
      <trkpt lat="43.2049" lon="2.54212">
        <ele>89.5</ele>
        <time>2015-08-02T09:50:24.190Z</time>
      </trkpt>
      <trkpt lat="43.2049" lon="2.54221">
        <ele>90.1</ele>
        <time>2015-08-02T09:50:26.227Z</time>
      </trkpt>
      <trkpt lat="43.2049" lon="2.54226">
        <ele>90</ele>
        <time>2015-08-02T09:50:27.185Z</time>
      </trkpt>
      <trkpt lat="43.20489" lon="2.54238">
        <ele>87.5</ele>
        <time>2015-08-02T09:50:48.304Z</time>
      </trkpt>
      <trkpt lat="43.20489" lon="2.54241">
        <ele>87.4</ele>
        <time>2015-08-02T09:50:49.184Z</time>
      </trkpt>
      <trkpt lat="43.2049" lon="2.54252">
        <ele>87.1</ele>
        <time>2015-08-02T09:50:52.235Z</time>
      </trkpt>
      <trkpt lat="43.2049" lon="2.54256">
        <ele>87.1</ele>
        <time>2015-08-02T09:50:53.181Z</time>
      </trkpt>
      <trkpt lat="43.20491" lon="2.54268">
        <ele>87.1</ele>
        <time>2015-08-02T09:50:55.249Z</time>
      </trkpt>
      <trkpt lat="43.20491" lon="2.54275">
        <ele>87.2</ele>
        <time>2015-08-02T09:50:56.202Z</time>
      </trkpt>
      <trkpt lat="43.20492" lon="2.54287">
        <ele>87.2</ele>
        <time>2015-08-02T09:50:58.229Z</time>
      </trkpt>
      <trkpt lat="43.20492" lon="2.54293">
        <ele>87.2</ele>
        <time>2015-08-02T09:50:59.534Z</time>
      </trkpt>
      <trkpt lat="43.20492" lon="2.54299">
        <ele>87.3</ele>
        <time>2015-08-02T09:51:00.236Z</time>
      </trkpt>
      <trkpt lat="43.20492" lon="2.54306">
        <ele>87.5</ele>
        <time>2015-08-02T09:51:01.184Z</time>
      </trkpt>
      <trkpt lat="43.20492" lon="2.54313">
        <ele>87.2</ele>
        <time>2015-08-02T09:51:02.237Z</time>
      </trkpt>
      <trkpt lat="43.20492" lon="2.5432">
        <ele>87.1</ele>
        <time>2015-08-02T09:51:03.190Z</time>
      </trkpt>
      <trkpt lat="43.20491" lon="2.54327">
        <ele>87.1</ele>
        <time>2015-08-02T09:51:04.262Z</time>
      </trkpt>
      <trkpt lat="43.20491" lon="2.54334">
        <ele>87.1</ele>
        <time>2015-08-02T09:51:05.190Z</time>
      </trkpt>
      <trkpt lat="43.20491" lon="2.5434">
        <ele>87.1</ele>
        <time>2015-08-02T09:51:06.248Z</time>
      </trkpt>
      <trkpt lat="43.2049" lon="2.54346">
        <ele>86.9</ele>
        <time>2015-08-02T09:51:07.185Z</time>
      </trkpt>
      <trkpt lat="43.2049" lon="2.54358">
        <ele>86.8</ele>
        <time>2015-08-02T09:51:09.234Z</time>
      </trkpt>
      <trkpt lat="43.20489" lon="2.54363">
        <ele>86.7</ele>
        <time>2015-08-02T09:51:10.184Z</time>
      </trkpt>
      <trkpt lat="43.20491" lon="2.54374">
        <ele>86.2</ele>
        <time>2015-08-02T09:51:12.265Z</time>
      </trkpt>
      <trkpt lat="43.2049" lon="2.54381">
        <ele>86.3</ele>
        <time>2015-08-02T09:51:13.193Z</time>
      </trkpt>
      <trkpt lat="43.2049" lon="2.54387">
        <ele>86.1</ele>
        <time>2015-08-02T09:51:14.227Z</time>
      </trkpt>
      <trkpt lat="43.2049" lon="2.54394">
        <ele>85.9</ele>
        <time>2015-08-02T09:51:15.181Z</time>
      </trkpt>
      <trkpt lat="43.20489" lon="2.54405">
        <ele>85.5</ele>
        <time>2015-08-02T09:51:17.233Z</time>
      </trkpt>
      <trkpt lat="43.20488" lon="2.54411">
        <ele>85.1</ele>
        <time>2015-08-02T09:51:18.179Z</time>
      </trkpt>
      <trkpt lat="43.20487" lon="2.54422">
        <ele>84.3</ele>
        <time>2015-08-02T09:51:20.498Z</time>
      </trkpt>
      <trkpt lat="43.20487" lon="2.54429">
        <ele>84</ele>
        <time>2015-08-02T09:51:21.191Z</time>
      </trkpt>
      <trkpt lat="43.20487" lon="2.54436">
        <ele>83.6</ele>
        <time>2015-08-02T09:51:22.227Z</time>
      </trkpt>
      <trkpt lat="43.20487" lon="2.54442">
        <ele>83.2</ele>
        <time>2015-08-02T09:51:23.177Z</time>
      </trkpt>
      <trkpt lat="43.20487" lon="2.54452">
        <ele>82.6</ele>
        <time>2015-08-02T09:51:25.227Z</time>
      </trkpt>
      <trkpt lat="43.20488" lon="2.54458">
        <ele>82.4</ele>
        <time>2015-08-02T09:51:26.516Z</time>
      </trkpt>
      <trkpt lat="43.2049" lon="2.5447">
        <ele>81.7</ele>
        <time>2015-08-02T09:51:28.225Z</time>
      </trkpt>
      <trkpt lat="43.2049" lon="2.54475">
        <ele>81.4</ele>
        <time>2015-08-02T09:51:29.179Z</time>
      </trkpt>
      <trkpt lat="43.20491" lon="2.54486">
        <ele>80.5</ele>
        <time>2015-08-02T09:51:31.231Z</time>
      </trkpt>
      <trkpt lat="43.20492" lon="2.54493">
        <ele>80.3</ele>
        <time>2015-08-02T09:51:32.181Z</time>
      </trkpt>
      <trkpt lat="43.20493" lon="2.545">
        <ele>80</ele>
        <time>2015-08-02T09:51:33.255Z</time>
      </trkpt>
      <trkpt lat="43.20494" lon="2.54508">
        <ele>79.8</ele>
        <time>2015-08-02T09:51:34.183Z</time>
      </trkpt>
      <trkpt lat="43.20494" lon="2.54515">
        <ele>79.5</ele>
        <time>2015-08-02T09:51:35.232Z</time>
      </trkpt>
      <trkpt lat="43.20495" lon="2.54521">
        <ele>79.3</ele>
        <time>2015-08-02T09:51:36.181Z</time>
      </trkpt>
      <trkpt lat="43.20496" lon="2.54533">
        <ele>78.9</ele>
        <time>2015-08-02T09:51:38.236Z</time>
      </trkpt>
      <trkpt lat="43.20496" lon="2.54539">
        <ele>78.8</ele>
        <time>2015-08-02T09:51:39.181Z</time>
      </trkpt>
      <trkpt lat="43.20498" lon="2.5455">
        <ele>78.4</ele>
        <time>2015-08-02T09:51:41.227Z</time>
      </trkpt>
      <trkpt lat="43.20498" lon="2.54557">
        <ele>78.5</ele>
        <time>2015-08-02T09:51:42.184Z</time>
      </trkpt>
      <trkpt lat="43.20498" lon="2.54563">
        <ele>78.2</ele>
        <time>2015-08-02T09:51:43.233Z</time>
      </trkpt>
      <trkpt lat="43.20499" lon="2.5457">
        <ele>77.9</ele>
        <time>2015-08-02T09:51:44.203Z</time>
      </trkpt>
      <trkpt lat="43.20501" lon="2.54582">
        <ele>77.8</ele>
        <time>2015-08-02T09:51:46.227Z</time>
      </trkpt>
      <trkpt lat="43.20501" lon="2.54587">
        <ele>77.5</ele>
        <time>2015-08-02T09:51:47.181Z</time>
      </trkpt>
      <trkpt lat="43.20502" lon="2.54598">
        <ele>77.2</ele>
        <time>2015-08-02T09:51:49.231Z</time>
      </trkpt>
      <trkpt lat="43.20503" lon="2.54604">
        <ele>77.1</ele>
        <time>2015-08-02T09:51:50.180Z</time>
      </trkpt>
      <trkpt lat="43.20505" lon="2.54613">
        <ele>76.7</ele>
        <time>2015-08-02T09:51:52.257Z</time>
      </trkpt>
      <trkpt lat="43.20505" lon="2.54617">
        <ele>76.5</ele>
        <time>2015-08-02T09:51:53.180Z</time>
      </trkpt>
      <trkpt lat="43.20505" lon="2.54627">
        <ele>76.2</ele>
        <time>2015-08-02T09:51:55.231Z</time>
      </trkpt>
      <trkpt lat="43.20505" lon="2.54631">
        <ele>76.1</ele>
        <time>2015-08-02T09:51:56.179Z</time>
      </trkpt>
      <trkpt lat="43.20504" lon="2.54641">
        <ele>76.4</ele>
        <time>2015-08-02T09:51:58.238Z</time>
      </trkpt>
      <trkpt lat="43.20505" lon="2.54647">
        <ele>76.6</ele>
        <time>2015-08-02T09:51:59.181Z</time>
      </trkpt>
      <trkpt lat="43.20507" lon="2.54657">
        <ele>76.4</ele>
        <time>2015-08-02T09:52:01.247Z</time>
      </trkpt>
      <trkpt lat="43.20508" lon="2.54661">
        <ele>76.3</ele>
        <time>2015-08-02T09:52:02.202Z</time>
      </trkpt>
      <trkpt lat="43.2051" lon="2.54671">
        <ele>76.6</ele>
        <time>2015-08-02T09:52:04.228Z</time>
      </trkpt>
      <trkpt lat="43.2051" lon="2.54676">
        <ele>76.4</ele>
        <time>2015-08-02T09:52:05.183Z</time>
      </trkpt>
      <trkpt lat="43.20512" lon="2.54687">
        <ele>76.4</ele>
        <time>2015-08-02T09:52:07.231Z</time>
      </trkpt>
      <trkpt lat="43.20513" lon="2.54692">
        <ele>76.2</ele>
        <time>2015-08-02T09:52:08.181Z</time>
      </trkpt>
      <trkpt lat="43.20514" lon="2.54702">
        <ele>75.8</ele>
        <time>2015-08-02T09:52:10.263Z</time>
      </trkpt>
      <trkpt lat="43.20515" lon="2.54707">
        <ele>75.8</ele>
        <time>2015-08-02T09:52:11.189Z</time>
      </trkpt>
      <trkpt lat="43.20516" lon="2.54716">
        <ele>75.7</ele>
        <time>2015-08-02T09:52:13.233Z</time>
      </trkpt>
      <trkpt lat="43.20518" lon="2.54721">
        <ele>75.6</ele>
        <time>2015-08-02T09:52:14.188Z</time>
      </trkpt>
      <trkpt lat="43.20518" lon="2.54732">
        <ele>75.7</ele>
        <time>2015-08-02T09:52:16.253Z</time>
      </trkpt>
      <trkpt lat="43.20519" lon="2.54737">
        <ele>75.5</ele>
        <time>2015-08-02T09:52:17.180Z</time>
      </trkpt>
      <trkpt lat="43.2052" lon="2.54743">
        <ele>75.5</ele>
        <time>2015-08-02T09:52:18.239Z</time>
      </trkpt>
      <trkpt lat="43.20521" lon="2.5475">
        <ele>75.4</ele>
        <time>2015-08-02T09:52:19.181Z</time>
      </trkpt>
      <trkpt lat="43.20523" lon="2.54761">
        <ele>75</ele>
        <time>2015-08-02T09:52:21.223Z</time>
      </trkpt>
      <trkpt lat="43.20523" lon="2.54766">
        <ele>75.8</ele>
        <time>2015-08-02T09:52:22.177Z</time>
      </trkpt>
      <trkpt lat="43.20526" lon="2.54777">
        <ele>75.9</ele>
        <time>2015-08-02T09:52:24.232Z</time>
      </trkpt>
      <trkpt lat="43.20527" lon="2.5478">
        <ele>75.7</ele>
        <time>2015-08-02T09:52:25.183Z</time>
      </trkpt>
      <trkpt lat="43.20531" lon="2.5479">
        <ele>76.2</ele>
        <time>2015-08-02T09:52:27.228Z</time>
      </trkpt>
      <trkpt lat="43.20532" lon="2.54794">
        <ele>76.2</ele>
        <time>2015-08-02T09:52:28.182Z</time>
      </trkpt>
      <trkpt lat="43.20534" lon="2.54806">
        <ele>76</ele>
        <time>2015-08-02T09:52:31.233Z</time>
      </trkpt>
      <trkpt lat="43.20534" lon="2.54809">
        <ele>75.9</ele>
        <time>2015-08-02T09:52:32.204Z</time>
      </trkpt>
      <trkpt lat="43.20537" lon="2.54818">
        <ele>76.3</ele>
        <time>2015-08-02T09:52:34.228Z</time>
      </trkpt>
      <trkpt lat="43.20539" lon="2.54824">
        <ele>77.2</ele>
        <time>2015-08-02T09:52:35.177Z</time>
      </trkpt>
      <trkpt lat="43.20541" lon="2.54831">
        <ele>77.8</ele>
        <time>2015-08-02T09:52:36.223Z</time>
      </trkpt>
      <trkpt lat="43.20544" lon="2.54839">
        <ele>78.2</ele>
        <time>2015-08-02T09:52:37.185Z</time>
      </trkpt>
      <trkpt lat="43.20545" lon="2.54846">
        <ele>78.5</ele>
        <time>2015-08-02T09:52:38.223Z</time>
      </trkpt>
      <trkpt lat="43.20548" lon="2.54853">
        <ele>78.5</ele>
        <time>2015-08-02T09:52:39.178Z</time>
      </trkpt>
      <trkpt lat="43.2055" lon="2.54859">
        <ele>78.7</ele>
        <time>2015-08-02T09:52:40.235Z</time>
      </trkpt>
      <trkpt lat="43.20552" lon="2.54865">
        <ele>79</ele>
        <time>2015-08-02T09:52:41.181Z</time>
      </trkpt>
      <trkpt lat="43.20555" lon="2.54871">
        <ele>79</ele>
        <time>2015-08-02T09:52:42.240Z</time>
      </trkpt>
      <trkpt lat="43.20556" lon="2.54876">
        <ele>79.2</ele>
        <time>2015-08-02T09:52:43.184Z</time>
      </trkpt>
      <trkpt lat="43.20558" lon="2.54882">
        <ele>79.3</ele>
        <time>2015-08-02T09:52:44.339Z</time>
      </trkpt>
      <trkpt lat="43.2056" lon="2.54888">
        <ele>79.3</ele>
        <time>2015-08-02T09:52:45.180Z</time>
      </trkpt>
      <trkpt lat="43.20562" lon="2.54894">
        <ele>78.9</ele>
        <time>2015-08-02T09:52:46.238Z</time>
      </trkpt>
      <trkpt lat="43.20565" lon="2.549">
        <ele>79.1</ele>
        <time>2015-08-02T09:52:47.179Z</time>
      </trkpt>
      <trkpt lat="43.20568" lon="2.5491">
        <ele>78.7</ele>
        <time>2015-08-02T09:52:49.234Z</time>
      </trkpt>
      <trkpt lat="43.2057" lon="2.54915">
        <ele>78.3</ele>
        <time>2015-08-02T09:52:50.180Z</time>
      </trkpt>
      <trkpt lat="43.20573" lon="2.54923">
        <ele>78.9</ele>
        <time>2015-08-02T09:52:52.235Z</time>
      </trkpt>
      <trkpt lat="43.20573" lon="2.54929">
        <ele>78.8</ele>
        <time>2015-08-02T09:52:53.178Z</time>
      </trkpt>
      <trkpt lat="43.20573" lon="2.54938">
        <ele>78.5</ele>
        <time>2015-08-02T09:52:55.256Z</time>
      </trkpt>
      <trkpt lat="43.20573" lon="2.54942">
        <ele>78.6</ele>
        <time>2015-08-02T09:52:56.178Z</time>
      </trkpt>
      <trkpt lat="43.20575" lon="2.54953">
        <ele>78.9</ele>
        <time>2015-08-02T09:52:59.230Z</time>
      </trkpt>
      <trkpt lat="43.20576" lon="2.54956">
        <ele>78.9</ele>
        <time>2015-08-02T09:53:00.204Z</time>
      </trkpt>
      <trkpt lat="43.20577" lon="2.54966">
        <ele>78.4</ele>
        <time>2015-08-02T09:53:52.242Z</time>
      </trkpt>
      <trkpt lat="43.20586" lon="2.54964">
        <ele>77.8</ele>
        <time>2015-08-02T09:53:53.190Z</time>
      </trkpt>
      <trkpt lat="43.20586" lon="2.54964">
        <ele>77.8</ele>
        <time>2015-08-02T09:53:53.257Z</time>
      </trkpt>
      <trkpt lat="43.20586" lon="2.54964">
        <ele>77.9</ele>
        <time>2015-08-02T09:54:27.246Z</time>
      </trkpt>
      <trkpt lat="43.2058" lon="2.54973">
        <ele>73.9</ele>
        <time>2015-08-02T09:54:28.190Z</time>
      </trkpt>
      <trkpt lat="43.20584" lon="2.54982">
        <ele>74.1</ele>
        <time>2015-08-02T09:58:38.220Z</time>
      </trkpt>
      <trkpt lat="43.20584" lon="2.54984">
        <ele>74.6</ele>
        <time>2015-08-02T09:58:39.180Z</time>
      </trkpt>
      <trkpt lat="43.20588" lon="2.54995">
        <ele>75.8</ele>
        <time>2015-08-02T09:58:46.427Z</time>
      </trkpt>
      <trkpt lat="43.20588" lon="2.54998">
        <ele>76</ele>
        <time>2015-08-02T09:58:47.179Z</time>
      </trkpt>
      <trkpt lat="43.2059" lon="2.55008">
        <ele>76.6</ele>
        <time>2015-08-02T09:58:51.223Z</time>
      </trkpt>
      <trkpt lat="43.20589" lon="2.55011">
        <ele>76.5</ele>
        <time>2015-08-02T09:58:52.180Z</time>
      </trkpt>
      <trkpt lat="43.20591" lon="2.55022">
        <ele>76.4</ele>
        <time>2015-08-02T09:58:58.222Z</time>
      </trkpt>
      <trkpt lat="43.20591" lon="2.55025">
        <ele>76.3</ele>
        <time>2015-08-02T09:58:59.177Z</time>
      </trkpt>
      <trkpt lat="43.20591" lon="2.55036">
        <ele>75.7</ele>
        <time>2015-08-02T09:59:03.276Z</time>
      </trkpt>
      <trkpt lat="43.20592" lon="2.55039">
        <ele>75.6</ele>
        <time>2015-08-02T09:59:04.180Z</time>
      </trkpt>
      <trkpt lat="43.20593" lon="2.5505">
        <ele>75</ele>
        <time>2015-08-02T09:59:07.229Z</time>
      </trkpt>
      <trkpt lat="43.20593" lon="2.55055">
        <ele>75.1</ele>
        <time>2015-08-02T09:59:08.180Z</time>
      </trkpt>
      <trkpt lat="43.20593" lon="2.55063">
        <ele>75.1</ele>
        <time>2015-08-02T09:59:10.224Z</time>
      </trkpt>
      <trkpt lat="43.20593" lon="2.55067">
        <ele>75.3</ele>
        <time>2015-08-02T09:59:11.184Z</time>
      </trkpt>
      <trkpt lat="43.20592" lon="2.55079">
        <ele>75.4</ele>
        <time>2015-08-02T09:59:15.481Z</time>
      </trkpt>
      <trkpt lat="43.20592" lon="2.55081">
        <ele>75.2</ele>
        <time>2015-08-02T09:59:16.180Z</time>
      </trkpt>
      <trkpt lat="43.20593" lon="2.55091">
        <ele>75.3</ele>
        <time>2015-08-02T09:59:23.239Z</time>
      </trkpt>
      <trkpt lat="43.20592" lon="2.55094">
        <ele>75.6</ele>
        <time>2015-08-02T09:59:24.190Z</time>
      </trkpt>
      <trkpt lat="43.20591" lon="2.55106">
        <ele>75.3</ele>
        <time>2015-08-02T09:59:28.220Z</time>
      </trkpt>
      <trkpt lat="43.20592" lon="2.55109">
        <ele>75.5</ele>
        <time>2015-08-02T09:59:29.182Z</time>
      </trkpt>
      <trkpt lat="43.20593" lon="2.55119">
        <ele>76.1</ele>
        <time>2015-08-02T09:59:32.236Z</time>
      </trkpt>
      <trkpt lat="43.20593" lon="2.55123">
        <ele>76.1</ele>
        <time>2015-08-02T09:59:33.203Z</time>
      </trkpt>
      <trkpt lat="43.20593" lon="2.55134">
        <ele>76.2</ele>
        <time>2015-08-02T09:59:36.220Z</time>
      </trkpt>
      <trkpt lat="43.20593" lon="2.55138">
        <ele>76.1</ele>
        <time>2015-08-02T09:59:37.188Z</time>
      </trkpt>
      <trkpt lat="43.20593" lon="2.55148">
        <ele>76.1</ele>
        <time>2015-08-02T09:59:40.217Z</time>
      </trkpt>
      <trkpt lat="43.20593" lon="2.55153">
        <ele>76.2</ele>
        <time>2015-08-02T09:59:41.372Z</time>
      </trkpt>
      <trkpt lat="43.20594" lon="2.55161">
        <ele>76.2</ele>
        <time>2015-08-02T09:59:43.218Z</time>
      </trkpt>
      <trkpt lat="43.20594" lon="2.55165">
        <ele>76.1</ele>
        <time>2015-08-02T09:59:44.177Z</time>
      </trkpt>
      <trkpt lat="43.20595" lon="2.55176">
        <ele>76.5</ele>
        <time>2015-08-02T09:59:47.220Z</time>
      </trkpt>
      <trkpt lat="43.20596" lon="2.5518">
        <ele>76.6</ele>
        <time>2015-08-02T09:59:48.177Z</time>
      </trkpt>
      <trkpt lat="43.20596" lon="2.55189">
        <ele>76.6</ele>
        <time>2015-08-02T09:59:50.233Z</time>
      </trkpt>
      <trkpt lat="43.20597" lon="2.55193">
        <ele>76.5</ele>
        <time>2015-08-02T09:59:51.177Z</time>
      </trkpt>
      <trkpt lat="43.20597" lon="2.55204">
        <ele>76.6</ele>
        <time>2015-08-02T09:59:54.218Z</time>
      </trkpt>
      <trkpt lat="43.20596" lon="2.55208">
        <ele>76.8</ele>
        <time>2015-08-02T09:59:55.184Z</time>
      </trkpt>
      <trkpt lat="43.20596" lon="2.5522">
        <ele>77.4</ele>
        <time>2015-08-02T09:59:58.219Z</time>
      </trkpt>
      <trkpt lat="43.20597" lon="2.55224">
        <ele>77.9</ele>
        <time>2015-08-02T09:59:59.183Z</time>
      </trkpt>
      <trkpt lat="43.20597" lon="2.55233">
        <ele>78.2</ele>
        <time>2015-08-02T10:00:01.238Z</time>
      </trkpt>
      <trkpt lat="43.20597" lon="2.55237">
        <ele>78.5</ele>
        <time>2015-08-02T10:00:02.180Z</time>
      </trkpt>
      <trkpt lat="43.20598" lon="2.55249">
        <ele>79.6</ele>
        <time>2015-08-02T10:00:05.241Z</time>
      </trkpt>
      <trkpt lat="43.20598" lon="2.55253">
        <ele>80</ele>
        <time>2015-08-02T10:00:06.182Z</time>
      </trkpt>
      <trkpt lat="43.20598" lon="2.55264">
        <ele>80.4</ele>
        <time>2015-08-02T10:00:09.229Z</time>
      </trkpt>
      <trkpt lat="43.20598" lon="2.55268">
        <ele>80.5</ele>
        <time>2015-08-02T10:00:10.181Z</time>
      </trkpt>
      <trkpt lat="43.20601" lon="2.55279">
        <ele>81.2</ele>
        <time>2015-08-02T10:00:13.260Z</time>
      </trkpt>
      <trkpt lat="43.20602" lon="2.55283">
        <ele>81.5</ele>
        <time>2015-08-02T10:00:14.189Z</time>
      </trkpt>
      <trkpt lat="43.20602" lon="2.55294">
        <ele>82.9</ele>
        <time>2015-08-02T10:00:17.230Z</time>
      </trkpt>
      <trkpt lat="43.20603" lon="2.55298">
        <ele>83.1</ele>
        <time>2015-08-02T10:00:18.180Z</time>
      </trkpt>
      <trkpt lat="43.20603" lon="2.55307">
        <ele>84</ele>
        <time>2015-08-02T10:00:20.221Z</time>
      </trkpt>
      <trkpt lat="43.20603" lon="2.55311">
        <ele>84.8</ele>
        <time>2015-08-02T10:00:21.189Z</time>
      </trkpt>
      <trkpt lat="43.20604" lon="2.55321">
        <ele>85.1</ele>
        <time>2015-08-02T10:00:23.231Z</time>
      </trkpt>
      <trkpt lat="43.20603" lon="2.55325">
        <ele>85.3</ele>
        <time>2015-08-02T10:00:24.181Z</time>
      </trkpt>
      <trkpt lat="43.20604" lon="2.55334">
        <ele>85.7</ele>
        <time>2015-08-02T10:00:26.219Z</time>
      </trkpt>
      <trkpt lat="43.20604" lon="2.55338">
        <ele>85.4</ele>
        <time>2015-08-02T10:00:27.180Z</time>
      </trkpt>
      <trkpt lat="43.20605" lon="2.55347">
        <ele>85.5</ele>
        <time>2015-08-02T10:00:29.228Z</time>
      </trkpt>
      <trkpt lat="43.20605" lon="2.55352">
        <ele>85.2</ele>
        <time>2015-08-02T10:00:30.189Z</time>
      </trkpt>
      <trkpt lat="43.20605" lon="2.55361">
        <ele>85.2</ele>
        <time>2015-08-02T10:00:32.227Z</time>
      </trkpt>
      <trkpt lat="43.20605" lon="2.55365">
        <ele>85.4</ele>
        <time>2015-08-02T10:00:33.185Z</time>
      </trkpt>
      <trkpt lat="43.20605" lon="2.55373">
        <ele>84.7</ele>
        <time>2015-08-02T10:00:35.242Z</time>
      </trkpt>
      <trkpt lat="43.20606" lon="2.55378">
        <ele>84.5</ele>
        <time>2015-08-02T10:00:36.180Z</time>
      </trkpt>
      <trkpt lat="43.20607" lon="2.55389">
        <ele>84.1</ele>
        <time>2015-08-02T10:00:39.263Z</time>
      </trkpt>
      <trkpt lat="43.20606" lon="2.55394">
        <ele>83.9</ele>
        <time>2015-08-02T10:00:40.190Z</time>
      </trkpt>
      <trkpt lat="43.20609" lon="2.55402">
        <ele>84</ele>
        <time>2015-08-02T10:00:42.219Z</time>
      </trkpt>
      <trkpt lat="43.2061" lon="2.55405">
        <ele>83.7</ele>
        <time>2015-08-02T10:00:43.183Z</time>
      </trkpt>
      <trkpt lat="43.2061" lon="2.55414">
        <ele>83.6</ele>
        <time>2015-08-02T10:00:45.238Z</time>
      </trkpt>
      <trkpt lat="43.20612" lon="2.55418">
        <ele>83</ele>
        <time>2015-08-02T10:00:46.181Z</time>
      </trkpt>
      <trkpt lat="43.20611" lon="2.55427">
        <ele>82.7</ele>
        <time>2015-08-02T10:00:48.229Z</time>
      </trkpt>
      <trkpt lat="43.20612" lon="2.55432">
        <ele>82.7</ele>
        <time>2015-08-02T10:00:49.183Z</time>
      </trkpt>
      <trkpt lat="43.20612" lon="2.5544">
        <ele>83</ele>
        <time>2015-08-02T10:00:51.260Z</time>
      </trkpt>
      <trkpt lat="43.20613" lon="2.55445">
        <ele>83.2</ele>
        <time>2015-08-02T10:00:52.189Z</time>
      </trkpt>
      <trkpt lat="43.20616" lon="2.55453">
        <ele>83.1</ele>
        <time>2015-08-02T10:00:54.226Z</time>
      </trkpt>
      <trkpt lat="43.20619" lon="2.55457">
        <ele>83.4</ele>
        <time>2015-08-02T10:00:55.182Z</time>
      </trkpt>
      <trkpt lat="43.20622" lon="2.55465">
        <ele>83.4</ele>
        <time>2015-08-02T10:00:57.224Z</time>
      </trkpt>
      <trkpt lat="43.20624" lon="2.55469">
        <ele>83.2</ele>
        <time>2015-08-02T10:00:58.183Z</time>
      </trkpt>
      <trkpt lat="43.20628" lon="2.55476">
        <ele>83.4</ele>
        <time>2015-08-02T10:01:00.214Z</time>
      </trkpt>
      <trkpt lat="43.20629" lon="2.5548">
        <ele>83.3</ele>
        <time>2015-08-02T10:01:01.184Z</time>
      </trkpt>
      <trkpt lat="43.20633" lon="2.55488">
        <ele>83.5</ele>
        <time>2015-08-02T10:01:03.218Z</time>
      </trkpt>
      <trkpt lat="43.20635" lon="2.55491">
        <ele>83.6</ele>
        <time>2015-08-02T10:01:04.178Z</time>
      </trkpt>
      <trkpt lat="43.20639" lon="2.55499">
        <ele>83.6</ele>
        <time>2015-08-02T10:01:06.222Z</time>
      </trkpt>
      <trkpt lat="43.20641" lon="2.55504">
        <ele>83.6</ele>
        <time>2015-08-02T10:01:07.183Z</time>
      </trkpt>
      <trkpt lat="43.20645" lon="2.55512">
        <ele>82.8</ele>
        <time>2015-08-02T10:01:09.238Z</time>
      </trkpt>
      <trkpt lat="43.20647" lon="2.55516">
        <ele>82.6</ele>
        <time>2015-08-02T10:01:10.180Z</time>
      </trkpt>
      <trkpt lat="43.20651" lon="2.55524">
        <ele>82</ele>
        <time>2015-08-02T10:01:12.252Z</time>
      </trkpt>
      <trkpt lat="43.20653" lon="2.55528">
        <ele>81.7</ele>
        <time>2015-08-02T10:01:13.206Z</time>
      </trkpt>
      <trkpt lat="43.20658" lon="2.55536">
        <ele>81.6</ele>
        <time>2015-08-02T10:01:15.233Z</time>
      </trkpt>
      <trkpt lat="43.2066" lon="2.5554">
        <ele>81.5</ele>
        <time>2015-08-02T10:01:16.180Z</time>
      </trkpt>
      <trkpt lat="43.20664" lon="2.55547">
        <ele>81.1</ele>
        <time>2015-08-02T10:01:18.491Z</time>
      </trkpt>
      <trkpt lat="43.20666" lon="2.55551">
        <ele>80.7</ele>
        <time>2015-08-02T10:01:19.183Z</time>
      </trkpt>
      <trkpt lat="43.20669" lon="2.55559">
        <ele>79.5</ele>
        <time>2015-08-02T10:01:21.218Z</time>
      </trkpt>
      <trkpt lat="43.20671" lon="2.55563">
        <ele>79.3</ele>
        <time>2015-08-02T10:01:22.179Z</time>
      </trkpt>
      <trkpt lat="43.20674" lon="2.5557">
        <ele>79.1</ele>
        <time>2015-08-02T10:01:24.218Z</time>
      </trkpt>
      <trkpt lat="43.20676" lon="2.55574">
        <ele>79.2</ele>
        <time>2015-08-02T10:01:25.181Z</time>
      </trkpt>
      <trkpt lat="43.2068" lon="2.55582">
        <ele>79</ele>
        <time>2015-08-02T10:01:27.216Z</time>
      </trkpt>
      <trkpt lat="43.20681" lon="2.55587">
        <ele>79</ele>
        <time>2015-08-02T10:01:28.178Z</time>
      </trkpt>
      <trkpt lat="43.20684" lon="2.55593">
        <ele>78.4</ele>
        <time>2015-08-02T10:01:30.217Z</time>
      </trkpt>
      <trkpt lat="43.20686" lon="2.55597">
        <ele>77.8</ele>
        <time>2015-08-02T10:01:31.186Z</time>
      </trkpt>
      <trkpt lat="43.2069" lon="2.55607">
        <ele>75.2</ele>
        <time>2015-08-02T10:01:34.247Z</time>
      </trkpt>
      <trkpt lat="43.20691" lon="2.5561">
        <ele>74.4</ele>
        <time>2015-08-02T10:01:35.179Z</time>
      </trkpt>
      <trkpt lat="43.20697" lon="2.55619">
        <ele>72.9</ele>
        <time>2015-08-02T10:01:38.576Z</time>
      </trkpt>
      <trkpt lat="43.20699" lon="2.55622">
        <ele>72.2</ele>
        <time>2015-08-02T10:01:39.177Z</time>
      </trkpt>
      <trkpt lat="43.20705" lon="2.55631">
        <ele>70.6</ele>
        <time>2015-08-02T10:01:42.222Z</time>
      </trkpt>
      <trkpt lat="43.20706" lon="2.55634">
        <ele>70.2</ele>
        <time>2015-08-02T10:01:43.187Z</time>
      </trkpt>
      <trkpt lat="43.2071" lon="2.55641">
        <ele>69.5</ele>
        <time>2015-08-02T10:01:45.667Z</time>
      </trkpt>
      <trkpt lat="43.20712" lon="2.55644">
        <ele>68.9</ele>
        <time>2015-08-02T10:01:46.180Z</time>
      </trkpt>
      <trkpt lat="43.20715" lon="2.55651">
        <ele>67.8</ele>
        <time>2015-08-02T10:01:48.224Z</time>
      </trkpt>
      <trkpt lat="43.20717" lon="2.55655">
        <ele>67.2</ele>
        <time>2015-08-02T10:01:49.191Z</time>
      </trkpt>
      <trkpt lat="43.2072" lon="2.55662">
        <ele>66.1</ele>
        <time>2015-08-02T10:01:51.241Z</time>
      </trkpt>
      <trkpt lat="43.20722" lon="2.55666">
        <ele>65.8</ele>
        <time>2015-08-02T10:01:52.180Z</time>
      </trkpt>
      <trkpt lat="43.20725" lon="2.55675">
        <ele>65.3</ele>
        <time>2015-08-02T10:01:55.234Z</time>
      </trkpt>
      <trkpt lat="43.20726" lon="2.55678">
        <ele>65</ele>
        <time>2015-08-02T10:01:56.179Z</time>
      </trkpt>
      <trkpt lat="43.2073" lon="2.55687">
        <ele>63.6</ele>
        <time>2015-08-02T10:01:59.229Z</time>
      </trkpt>
      <trkpt lat="43.20732" lon="2.5569">
        <ele>63.1</ele>
        <time>2015-08-02T10:02:00.182Z</time>
      </trkpt>
      <trkpt lat="43.20735" lon="2.55701">
        <ele>62.4</ele>
        <time>2015-08-02T10:02:03.229Z</time>
      </trkpt>
      <trkpt lat="43.20736" lon="2.55705">
        <ele>62.6</ele>
        <time>2015-08-02T10:02:04.180Z</time>
      </trkpt>
      <trkpt lat="43.20738" lon="2.55714">
        <ele>62.2</ele>
        <time>2015-08-02T10:02:06.245Z</time>
      </trkpt>
      <trkpt lat="43.20739" lon="2.55719">
        <ele>62.2</ele>
        <time>2015-08-02T10:02:07.187Z</time>
      </trkpt>
      <trkpt lat="43.20741" lon="2.55728">
        <ele>62.3</ele>
        <time>2015-08-02T10:02:09.231Z</time>
      </trkpt>
      <trkpt lat="43.20742" lon="2.55732">
        <ele>62.4</ele>
        <time>2015-08-02T10:02:10.181Z</time>
      </trkpt>
      <trkpt lat="43.20745" lon="2.55743">
        <ele>61.6</ele>
        <time>2015-08-02T10:02:13.236Z</time>
      </trkpt>
      <trkpt lat="43.20746" lon="2.55747">
        <ele>61.7</ele>
        <time>2015-08-02T10:02:14.180Z</time>
      </trkpt>
      <trkpt lat="43.20748" lon="2.55754">
        <ele>60.9</ele>
        <time>2015-08-02T10:02:16.267Z</time>
      </trkpt>
      <trkpt lat="43.20748" lon="2.55759">
        <ele>61</ele>
        <time>2015-08-02T10:02:17.190Z</time>
      </trkpt>
      <trkpt lat="43.2075" lon="2.55768">
        <ele>60.5</ele>
        <time>2015-08-02T10:02:19.225Z</time>
      </trkpt>
      <trkpt lat="43.20751" lon="2.55772">
        <ele>60.3</ele>
        <time>2015-08-02T10:02:20.180Z</time>
      </trkpt>
      <trkpt lat="43.20753" lon="2.55781">
        <ele>60.2</ele>
        <time>2015-08-02T10:02:22.220Z</time>
      </trkpt>
      <trkpt lat="43.20754" lon="2.55785">
        <ele>60.1</ele>
        <time>2015-08-02T10:02:23.181Z</time>
      </trkpt>
      <trkpt lat="43.20755" lon="2.55793">
        <ele>60.2</ele>
        <time>2015-08-02T10:02:25.407Z</time>
      </trkpt>
      <trkpt lat="43.20756" lon="2.55797">
        <ele>60</ele>
        <time>2015-08-02T10:02:26.179Z</time>
      </trkpt>
      <trkpt lat="43.20757" lon="2.55805">
        <ele>59.5</ele>
        <time>2015-08-02T10:02:28.220Z</time>
      </trkpt>
      <trkpt lat="43.20758" lon="2.55809">
        <ele>59.2</ele>
        <time>2015-08-02T10:02:29.179Z</time>
      </trkpt>
      <trkpt lat="43.20759" lon="2.55817">
        <ele>59.3</ele>
        <time>2015-08-02T10:02:31.229Z</time>
      </trkpt>
      <trkpt lat="43.2076" lon="2.55821">
        <ele>59.2</ele>
        <time>2015-08-02T10:02:32.180Z</time>
      </trkpt>
      <trkpt lat="43.20762" lon="2.55829">
        <ele>58.7</ele>
        <time>2015-08-02T10:02:34.284Z</time>
      </trkpt>
      <trkpt lat="43.20764" lon="2.55833">
        <ele>58.8</ele>
        <time>2015-08-02T10:02:35.184Z</time>
      </trkpt>
      <trkpt lat="43.20766" lon="2.55841">
        <ele>58.8</ele>
        <time>2015-08-02T10:02:37.225Z</time>
      </trkpt>
      <trkpt lat="43.20767" lon="2.55845">
        <ele>58.8</ele>
        <time>2015-08-02T10:02:38.185Z</time>
      </trkpt>
      <trkpt lat="43.2077" lon="2.55855">
        <ele>59.7</ele>
        <time>2015-08-02T10:02:40.212Z</time>
      </trkpt>
      <trkpt lat="43.20771" lon="2.55859">
        <ele>60.2</ele>
        <time>2015-08-02T10:02:41.178Z</time>
      </trkpt>
      <trkpt lat="43.20773" lon="2.55869">
        <ele>61.2</ele>
        <time>2015-08-02T10:02:43.221Z</time>
      </trkpt>
      <trkpt lat="43.20774" lon="2.55873">
        <ele>61.6</ele>
        <time>2015-08-02T10:02:44.177Z</time>
      </trkpt>
      <trkpt lat="43.20776" lon="2.55882">
        <ele>62</ele>
        <time>2015-08-02T10:02:46.223Z</time>
      </trkpt>
      <trkpt lat="43.20778" lon="2.55885">
        <ele>61.9</ele>
        <time>2015-08-02T10:02:47.181Z</time>
      </trkpt>
      <trkpt lat="43.2078" lon="2.55894">
        <ele>61.7</ele>
        <time>2015-08-02T10:02:49.239Z</time>
      </trkpt>
      <trkpt lat="43.20782" lon="2.55898">
        <ele>61.6</ele>
        <time>2015-08-02T10:02:50.190Z</time>
      </trkpt>
      <trkpt lat="43.20784" lon="2.55907">
        <ele>61.4</ele>
        <time>2015-08-02T10:02:52.570Z</time>
      </trkpt>
      <trkpt lat="43.20786" lon="2.55911">
        <ele>61.4</ele>
        <time>2015-08-02T10:02:53.183Z</time>
      </trkpt>
      <trkpt lat="43.20789" lon="2.5592">
        <ele>61.1</ele>
        <time>2015-08-02T10:02:55.222Z</time>
      </trkpt>
      <trkpt lat="43.2079" lon="2.55925">
        <ele>60.9</ele>
        <time>2015-08-02T10:02:56.190Z</time>
      </trkpt>
      <trkpt lat="43.20792" lon="2.55935">
        <ele>61</ele>
        <time>2015-08-02T10:02:58.221Z</time>
      </trkpt>
      <trkpt lat="43.20793" lon="2.5594">
        <ele>61.2</ele>
        <time>2015-08-02T10:02:59.181Z</time>
      </trkpt>
      <trkpt lat="43.20796" lon="2.55948">
        <ele>61.6</ele>
        <time>2015-08-02T10:03:01.236Z</time>
      </trkpt>
      <trkpt lat="43.20797" lon="2.55952">
        <ele>61.8</ele>
        <time>2015-08-02T10:03:02.183Z</time>
      </trkpt>
      <trkpt lat="43.208" lon="2.5596">
        <ele>62</ele>
        <time>2015-08-02T10:03:04.221Z</time>
      </trkpt>
      <trkpt lat="43.20801" lon="2.55964">
        <ele>62.2</ele>
        <time>2015-08-02T10:03:05.178Z</time>
      </trkpt>
      <trkpt lat="43.20801" lon="2.55973">
        <ele>62.5</ele>
        <time>2015-08-02T10:03:07.254Z</time>
      </trkpt>
      <trkpt lat="43.20802" lon="2.55977">
        <ele>62.8</ele>
        <time>2015-08-02T10:03:08.189Z</time>
      </trkpt>
      <trkpt lat="43.20804" lon="2.55988">
        <ele>62.9</ele>
        <time>2015-08-02T10:03:11.235Z</time>
      </trkpt>
      <trkpt lat="43.20805" lon="2.55991">
        <ele>63.2</ele>
        <time>2015-08-02T10:03:12.181Z</time>
      </trkpt>
      <trkpt lat="43.20808" lon="2.55997">
        <ele>63.5</ele>
        <time>2015-08-02T10:03:14.222Z</time>
      </trkpt>
      <trkpt lat="43.2081" lon="2.56001">
        <ele>63.6</ele>
        <time>2015-08-02T10:03:15.185Z</time>
      </trkpt>
      <trkpt lat="43.20812" lon="2.56011">
        <ele>63.9</ele>
        <time>2015-08-02T10:03:17.232Z</time>
      </trkpt>
      <trkpt lat="43.20813" lon="2.56015">
        <ele>64</ele>
        <time>2015-08-02T10:03:18.184Z</time>
      </trkpt>
      <trkpt lat="43.20814" lon="2.56024">
        <ele>64.1</ele>
        <time>2015-08-02T10:03:20.568Z</time>
      </trkpt>
      <trkpt lat="43.20814" lon="2.56028">
        <ele>64.2</ele>
        <time>2015-08-02T10:03:21.183Z</time>
      </trkpt>
      <trkpt lat="43.20816" lon="2.5604">
        <ele>64.5</ele>
        <time>2015-08-02T10:03:24.224Z</time>
      </trkpt>
      <trkpt lat="43.20817" lon="2.56043">
        <ele>64.7</ele>
        <time>2015-08-02T10:03:25.206Z</time>
      </trkpt>
      <trkpt lat="43.20817" lon="2.56053">
        <ele>64.9</ele>
        <time>2015-08-02T10:03:28.222Z</time>
      </trkpt>
      <trkpt lat="43.20817" lon="2.56057">
        <ele>65</ele>
        <time>2015-08-02T10:03:29.181Z</time>
      </trkpt>
      <trkpt lat="43.20817" lon="2.56065">
        <ele>65.2</ele>
        <time>2015-08-02T10:03:31.235Z</time>
      </trkpt>
      <trkpt lat="43.20818" lon="2.56069">
        <ele>65.3</ele>
        <time>2015-08-02T10:03:32.206Z</time>
      </trkpt>
      <trkpt lat="43.20817" lon="2.56081">
        <ele>65.7</ele>
        <time>2015-08-02T10:03:35.280Z</time>
      </trkpt>
      <trkpt lat="43.20816" lon="2.56086">
        <ele>65.8</ele>
        <time>2015-08-02T10:03:36.179Z</time>
      </trkpt>
      <trkpt lat="43.20816" lon="2.56097">
        <ele>66</ele>
        <time>2015-08-02T10:03:39.344Z</time>
      </trkpt>
      <trkpt lat="43.20816" lon="2.561">
        <ele>66</ele>
        <time>2015-08-02T10:03:40.180Z</time>
      </trkpt>
      <trkpt lat="43.20816" lon="2.56111">
        <ele>66.5</ele>
        <time>2015-08-02T10:03:43.232Z</time>
      </trkpt>
      <trkpt lat="43.20815" lon="2.56114">
        <ele>66.4</ele>
        <time>2015-08-02T10:03:44.177Z</time>
      </trkpt>
      <trkpt lat="43.20814" lon="2.56123">
        <ele>66.5</ele>
        <time>2015-08-02T10:03:46.575Z</time>
      </trkpt>
      <trkpt lat="43.20814" lon="2.56126">
        <ele>66.7</ele>
        <time>2015-08-02T10:03:47.185Z</time>
      </trkpt>
      <trkpt lat="43.20812" lon="2.56136">
        <ele>67</ele>
        <time>2015-08-02T10:03:50.229Z</time>
      </trkpt>
      <trkpt lat="43.20812" lon="2.56139">
        <ele>67.1</ele>
        <time>2015-08-02T10:03:51.182Z</time>
      </trkpt>
      <trkpt lat="43.20813" lon="2.56148">
        <ele>67.3</ele>
        <time>2015-08-02T10:03:54.225Z</time>
      </trkpt>
      <trkpt lat="43.20812" lon="2.56152">
        <ele>67.6</ele>
        <time>2015-08-02T10:03:55.185Z</time>
      </trkpt>
      <trkpt lat="43.20813" lon="2.56163">
        <ele>68</ele>
        <time>2015-08-02T10:03:59.229Z</time>
      </trkpt>
      <trkpt lat="43.20813" lon="2.56165">
        <ele>68</ele>
        <time>2015-08-02T10:04:00.181Z</time>
      </trkpt>
      <trkpt lat="43.2081" lon="2.56177">
        <ele>68.5</ele>
        <time>2015-08-02T10:04:04.223Z</time>
      </trkpt>
      <trkpt lat="43.2081" lon="2.56179">
        <ele>68.8</ele>
        <time>2015-08-02T10:04:05.186Z</time>
      </trkpt>
      <trkpt lat="43.20805" lon="2.56187">
        <ele>68.9</ele>
        <time>2015-08-02T10:04:08.221Z</time>
      </trkpt>
      <trkpt lat="43.20804" lon="2.56189">
        <ele>69</ele>
        <time>2015-08-02T10:04:09.182Z</time>
      </trkpt>
      <trkpt lat="43.208" lon="2.562">
        <ele>69</ele>
        <time>2015-08-02T10:04:13.284Z</time>
      </trkpt>
      <trkpt lat="43.20799" lon="2.56203">
        <ele>69.2</ele>
        <time>2015-08-02T10:04:14.189Z</time>
      </trkpt>
      <trkpt lat="43.20798" lon="2.56213">
        <ele>70.1</ele>
        <time>2015-08-02T10:04:18.233Z</time>
      </trkpt>
      <trkpt lat="43.20798" lon="2.56215">
        <ele>70.6</ele>
        <time>2015-08-02T10:04:19.186Z</time>
      </trkpt>
      <trkpt lat="43.20795" lon="2.56227">
        <ele>71.1</ele>
        <time>2015-08-02T10:04:23.225Z</time>
      </trkpt>
      <trkpt lat="43.20795" lon="2.56229">
        <ele>71.7</ele>
        <time>2015-08-02T10:04:24.180Z</time>
      </trkpt>
      <trkpt lat="43.20792" lon="2.56236">
        <ele>73</ele>
        <time>2015-08-02T10:04:26.222Z</time>
      </trkpt>
      <trkpt lat="43.2079" lon="2.5624">
        <ele>73.5</ele>
        <time>2015-08-02T10:04:27.181Z</time>
      </trkpt>
      <trkpt lat="43.20788" lon="2.5625">
        <ele>74</ele>
        <time>2015-08-02T10:04:30.260Z</time>
      </trkpt>
      <trkpt lat="43.20787" lon="2.56253">
        <ele>74.1</ele>
        <time>2015-08-02T10:04:31.203Z</time>
      </trkpt>
      <trkpt lat="43.20784" lon="2.56263">
        <ele>75.2</ele>
        <time>2015-08-02T10:04:34.418Z</time>
      </trkpt>
      <trkpt lat="43.20784" lon="2.56266">
        <ele>76</ele>
        <time>2015-08-02T10:04:35.178Z</time>
      </trkpt>
      <trkpt lat="43.20783" lon="2.56278">
        <ele>78.2</ele>
        <time>2015-08-02T10:04:39.241Z</time>
      </trkpt>
      <trkpt lat="43.20783" lon="2.56281">
        <ele>78.6</ele>
        <time>2015-08-02T10:04:40.179Z</time>
      </trkpt>
      <trkpt lat="43.20783" lon="2.56293">
        <ele>80.9</ele>
        <time>2015-08-02T10:04:44.225Z</time>
      </trkpt>
      <trkpt lat="43.20783" lon="2.56296">
        <ele>81.3</ele>
        <time>2015-08-02T10:04:45.182Z</time>
      </trkpt>
      <trkpt lat="43.2078" lon="2.56307">
        <ele>82.7</ele>
        <time>2015-08-02T10:04:49.224Z</time>
      </trkpt>
      <trkpt lat="43.20779" lon="2.56309">
        <ele>82.7</ele>
        <time>2015-08-02T10:04:50.177Z</time>
      </trkpt>
      <trkpt lat="43.20775" lon="2.5632">
        <ele>82.9</ele>
        <time>2015-08-02T10:04:54.215Z</time>
      </trkpt>
      <trkpt lat="43.20774" lon="2.56323">
        <ele>82.8</ele>
        <time>2015-08-02T10:04:55.184Z</time>
      </trkpt>
      <trkpt lat="43.20769" lon="2.56331">
        <ele>83.8</ele>
        <time>2015-08-02T10:04:58.248Z</time>
      </trkpt>
      <trkpt lat="43.20768" lon="2.56334">
        <ele>84</ele>
        <time>2015-08-02T10:04:59.177Z</time>
      </trkpt>
      <trkpt lat="43.20763" lon="2.56341">
        <ele>83.6</ele>
        <time>2015-08-02T10:05:02.221Z</time>
      </trkpt>
      <trkpt lat="43.20761" lon="2.56343">
        <ele>83.8</ele>
        <time>2015-08-02T10:05:03.184Z</time>
      </trkpt>
      <trkpt lat="43.20756" lon="2.56353">
        <ele>83.1</ele>
        <time>2015-08-02T10:05:07.228Z</time>
      </trkpt>
      <trkpt lat="43.20754" lon="2.56356">
        <ele>82.8</ele>
        <time>2015-08-02T10:05:08.190Z</time>
      </trkpt>
      <trkpt lat="43.2075" lon="2.56365">
        <ele>82.3</ele>
        <time>2015-08-02T10:05:11.233Z</time>
      </trkpt>
      <trkpt lat="43.20749" lon="2.56369">
        <ele>82.1</ele>
        <time>2015-08-02T10:05:12.180Z</time>
      </trkpt>
      <trkpt lat="43.20746" lon="2.56378">
        <ele>81.8</ele>
        <time>2015-08-02T10:05:15.230Z</time>
      </trkpt>
      <trkpt lat="43.20746" lon="2.56381">
        <ele>81.6</ele>
        <time>2015-08-02T10:05:16.190Z</time>
      </trkpt>
      <trkpt lat="43.20745" lon="2.5639">
        <ele>81.3</ele>
        <time>2015-08-02T10:05:20.212Z</time>
      </trkpt>
      <trkpt lat="43.20744" lon="2.56395">
        <ele>81.3</ele>
        <time>2015-08-02T10:05:21.176Z</time>
      </trkpt>
      <trkpt lat="43.20742" lon="2.56404">
        <ele>81</ele>
        <time>2015-08-02T10:05:23.219Z</time>
      </trkpt>
      <trkpt lat="43.20742" lon="2.56408">
        <ele>80.7</ele>
        <time>2015-08-02T10:05:24.177Z</time>
      </trkpt>
      <trkpt lat="43.20741" lon="2.56418">
        <ele>80.3</ele>
        <time>2015-08-02T10:05:27.229Z</time>
      </trkpt>
      <trkpt lat="43.20741" lon="2.56422">
        <ele>80.1</ele>
        <time>2015-08-02T10:05:28.179Z</time>
      </trkpt>
      <trkpt lat="43.2074" lon="2.56433">
        <ele>80.1</ele>
        <time>2015-08-02T10:05:31.235Z</time>
      </trkpt>
      <trkpt lat="43.20739" lon="2.56437">
        <ele>80.1</ele>
        <time>2015-08-02T10:05:32.185Z</time>
      </trkpt>
      <trkpt lat="43.20738" lon="2.56447">
        <ele>80.2</ele>
        <time>2015-08-02T10:05:35.230Z</time>
      </trkpt>
      <trkpt lat="43.20738" lon="2.5645">
        <ele>80.1</ele>
        <time>2015-08-02T10:05:36.195Z</time>
      </trkpt>
      <trkpt lat="43.20738" lon="2.5646">
        <ele>79.9</ele>
        <time>2015-08-02T10:05:40.242Z</time>
      </trkpt>
      <trkpt lat="43.20738" lon="2.56463">
        <ele>80</ele>
        <time>2015-08-02T10:05:41.201Z</time>
      </trkpt>
      <trkpt lat="43.20736" lon="2.56473">
        <ele>78.2</ele>
        <time>2015-08-02T10:06:51.225Z</time>
      </trkpt>
      <trkpt lat="43.20738" lon="2.56483">
        <ele>73.5</ele>
        <time>2015-08-02T10:06:52.181Z</time>
      </trkpt>
      <trkpt lat="43.20736" lon="2.56494">
        <ele>73.2</ele>
        <time>2015-08-02T10:06:57.247Z</time>
      </trkpt>
      <trkpt lat="43.20735" lon="2.56497">
        <ele>73.1</ele>
        <time>2015-08-02T10:06:58.204Z</time>
      </trkpt>
      <trkpt lat="43.20731" lon="2.56506">
        <ele>73</ele>
        <time>2015-08-02T10:07:01.225Z</time>
      </trkpt>
      <trkpt lat="43.2073" lon="2.56509">
        <ele>72.8</ele>
        <time>2015-08-02T10:07:02.189Z</time>
      </trkpt>
      <trkpt lat="43.20727" lon="2.56518">
        <ele>72.8</ele>
        <time>2015-08-02T10:07:04.223Z</time>
      </trkpt>
      <trkpt lat="43.20725" lon="2.56522">
        <ele>72.7</ele>
        <time>2015-08-02T10:07:05.183Z</time>
      </trkpt>
      <trkpt lat="43.20722" lon="2.5653">
        <ele>72.8</ele>
        <time>2015-08-02T10:07:07.244Z</time>
      </trkpt>
      <trkpt lat="43.2072" lon="2.56534">
        <ele>72.8</ele>
        <time>2015-08-02T10:07:08.182Z</time>
      </trkpt>
      <trkpt lat="43.20716" lon="2.56542">
        <ele>72.6</ele>
        <time>2015-08-02T10:07:10.219Z</time>
      </trkpt>
      <trkpt lat="43.20715" lon="2.56546">
        <ele>72.6</ele>
        <time>2015-08-02T10:07:11.181Z</time>
      </trkpt>
      <trkpt lat="43.20712" lon="2.56553">
        <ele>72.4</ele>
        <time>2015-08-02T10:07:13.217Z</time>
      </trkpt>
      <trkpt lat="43.2071" lon="2.56557">
        <ele>72.3</ele>
        <time>2015-08-02T10:07:14.179Z</time>
      </trkpt>
      <trkpt lat="43.20706" lon="2.56567">
        <ele>72.1</ele>
        <time>2015-08-02T10:07:16.226Z</time>
      </trkpt>
      <trkpt lat="43.20705" lon="2.56571">
        <ele>72</ele>
        <time>2015-08-02T10:07:17.182Z</time>
      </trkpt>
      <trkpt lat="43.20701" lon="2.56582">
        <ele>71.7</ele>
        <time>2015-08-02T10:07:19.229Z</time>
      </trkpt>
      <trkpt lat="43.20699" lon="2.56588">
        <ele>71.5</ele>
        <time>2015-08-02T10:07:20.182Z</time>
      </trkpt>
      <trkpt lat="43.20697" lon="2.566">
        <ele>71.1</ele>
        <time>2015-08-02T10:07:22.260Z</time>
      </trkpt>
      <trkpt lat="43.20695" lon="2.56605">
        <ele>71.2</ele>
        <time>2015-08-02T10:07:23.190Z</time>
      </trkpt>
      <trkpt lat="43.20692" lon="2.56614">
        <ele>71.2</ele>
        <time>2015-08-02T10:07:25.229Z</time>
      </trkpt>
      <trkpt lat="43.20691" lon="2.56618">
        <ele>71</ele>
        <time>2015-08-02T10:07:26.181Z</time>
      </trkpt>
      <trkpt lat="43.20687" lon="2.56627">
        <ele>70.9</ele>
        <time>2015-08-02T10:07:28.229Z</time>
      </trkpt>
      <trkpt lat="43.20685" lon="2.56633">
        <ele>70.6</ele>
        <time>2015-08-02T10:07:29.179Z</time>
      </trkpt>
      <trkpt lat="43.20682" lon="2.56642">
        <ele>70.3</ele>
        <time>2015-08-02T10:07:31.252Z</time>
      </trkpt>
      <trkpt lat="43.20679" lon="2.56647">
        <ele>70.1</ele>
        <time>2015-08-02T10:07:32.191Z</time>
      </trkpt>
      <trkpt lat="43.20676" lon="2.56657">
        <ele>69.9</ele>
        <time>2015-08-02T10:07:34.222Z</time>
      </trkpt>
      <trkpt lat="43.20674" lon="2.56662">
        <ele>69.7</ele>
        <time>2015-08-02T10:07:35.184Z</time>
      </trkpt>
      <trkpt lat="43.20671" lon="2.56673">
        <ele>69.4</ele>
        <time>2015-08-02T10:07:37.232Z</time>
      </trkpt>
      <trkpt lat="43.20669" lon="2.56679">
        <ele>69.2</ele>
        <time>2015-08-02T10:07:38.179Z</time>
      </trkpt>
      <trkpt lat="43.20666" lon="2.56685">
        <ele>69.1</ele>
        <time>2015-08-02T10:07:39.219Z</time>
      </trkpt>
      <trkpt lat="43.20664" lon="2.5669">
        <ele>69.1</ele>
        <time>2015-08-02T10:07:40.205Z</time>
      </trkpt>
      <trkpt lat="43.20663" lon="2.56699">
        <ele>69.1</ele>
        <time>2015-08-02T10:07:42.248Z</time>
      </trkpt>
      <trkpt lat="43.20662" lon="2.56703">
        <ele>69.1</ele>
        <time>2015-08-02T10:07:43.182Z</time>
      </trkpt>
      <trkpt lat="43.20659" lon="2.56714">
        <ele>69</ele>
        <time>2015-08-02T10:07:45.256Z</time>
      </trkpt>
      <trkpt lat="43.20656" lon="2.56719">
        <ele>69</ele>
        <time>2015-08-02T10:07:46.182Z</time>
      </trkpt>
      <trkpt lat="43.20654" lon="2.56729">
        <ele>69.1</ele>
        <time>2015-08-02T10:07:48.233Z</time>
      </trkpt>
      <trkpt lat="43.20653" lon="2.56734">
        <ele>68.9</ele>
        <time>2015-08-02T10:07:49.192Z</time>
      </trkpt>
      <trkpt lat="43.2065" lon="2.56744">
        <ele>68.7</ele>
        <time>2015-08-02T10:07:51.214Z</time>
      </trkpt>
      <trkpt lat="43.20648" lon="2.56748">
        <ele>68.5</ele>
        <time>2015-08-02T10:07:52.178Z</time>
      </trkpt>
      <trkpt lat="43.20645" lon="2.56758">
        <ele>68.4</ele>
        <time>2015-08-02T10:07:54.220Z</time>
      </trkpt>
      <trkpt lat="43.20643" lon="2.56762">
        <ele>68</ele>
        <time>2015-08-02T10:07:55.180Z</time>
      </trkpt>
      <trkpt lat="43.20641" lon="2.5677">
        <ele>67.8</ele>
        <time>2015-08-02T10:07:57.215Z</time>
      </trkpt>
      <trkpt lat="43.2064" lon="2.56775">
        <ele>67.6</ele>
        <time>2015-08-02T10:07:58.186Z</time>
      </trkpt>
      <trkpt lat="43.20637" lon="2.56785">
        <ele>67.6</ele>
        <time>2015-08-02T10:08:00.247Z</time>
      </trkpt>
      <trkpt lat="43.20637" lon="2.56789">
        <ele>67.7</ele>
        <time>2015-08-02T10:08:01.183Z</time>
      </trkpt>
      <trkpt lat="43.20634" lon="2.568">
        <ele>67.6</ele>
        <time>2015-08-02T10:08:03.224Z</time>
      </trkpt>
      <trkpt lat="43.20634" lon="2.56805">
        <ele>67.4</ele>
        <time>2015-08-02T10:08:04.192Z</time>
      </trkpt>
      <trkpt lat="43.20633" lon="2.56815">
        <ele>67.2</ele>
        <time>2015-08-02T10:08:06.233Z</time>
      </trkpt>
      <trkpt lat="43.20632" lon="2.5682">
        <ele>67</ele>
        <time>2015-08-02T10:08:07.184Z</time>
      </trkpt>
      <trkpt lat="43.20634" lon="2.56831">
        <ele>66.6</ele>
        <time>2015-08-02T10:08:10.231Z</time>
      </trkpt>
      <trkpt lat="43.20636" lon="2.56835">
        <ele>66.6</ele>
        <time>2015-08-02T10:08:11.180Z</time>
      </trkpt>
      <trkpt lat="43.20639" lon="2.56842">
        <ele>66.5</ele>
        <time>2015-08-02T10:08:13.251Z</time>
      </trkpt>
      <trkpt lat="43.20641" lon="2.56846">
        <ele>66.5</ele>
        <time>2015-08-02T10:08:14.203Z</time>
      </trkpt>
      <trkpt lat="43.20646" lon="2.56854">
        <ele>66.3</ele>
        <time>2015-08-02T10:08:16.222Z</time>
      </trkpt>
      <trkpt lat="43.20648" lon="2.56859">
        <ele>66.2</ele>
        <time>2015-08-02T10:08:17.177Z</time>
      </trkpt>
      <trkpt lat="43.20651" lon="2.56868">
        <ele>66.1</ele>
        <time>2015-08-02T10:08:19.230Z</time>
      </trkpt>
      <trkpt lat="43.20652" lon="2.56872">
        <ele>66.1</ele>
        <time>2015-08-02T10:08:20.183Z</time>
      </trkpt>
      <trkpt lat="43.20656" lon="2.56881">
        <ele>66</ele>
        <time>2015-08-02T10:08:22.228Z</time>
      </trkpt>
      <trkpt lat="43.20659" lon="2.56885">
        <ele>65.7</ele>
        <time>2015-08-02T10:08:23.184Z</time>
      </trkpt>
      <trkpt lat="43.20661" lon="2.56891">
        <ele>65.5</ele>
        <time>2015-08-02T10:08:24.227Z</time>
      </trkpt>
      <trkpt lat="43.20664" lon="2.56895">
        <ele>65.2</ele>
        <time>2015-08-02T10:08:25.193Z</time>
      </trkpt>
      <trkpt lat="43.20666" lon="2.56902">
        <ele>65.3</ele>
        <time>2015-08-02T10:08:26.228Z</time>
      </trkpt>
      <trkpt lat="43.20668" lon="2.56908">
        <ele>65</ele>
        <time>2015-08-02T10:08:27.181Z</time>
      </trkpt>
      <trkpt lat="43.2067" lon="2.56914">
        <ele>64.8</ele>
        <time>2015-08-02T10:08:28.226Z</time>
      </trkpt>
      <trkpt lat="43.20672" lon="2.56919">
        <ele>64.5</ele>
        <time>2015-08-02T10:08:29.180Z</time>
      </trkpt>
      <trkpt lat="43.20673" lon="2.56925">
        <ele>64.5</ele>
        <time>2015-08-02T10:08:30.224Z</time>
      </trkpt>
      <trkpt lat="43.20675" lon="2.56931">
        <ele>64.5</ele>
        <time>2015-08-02T10:08:31.182Z</time>
      </trkpt>
      <trkpt lat="43.20676" lon="2.56939">
        <ele>64.6</ele>
        <time>2015-08-02T10:08:32.229Z</time>
      </trkpt>
      <trkpt lat="43.20677" lon="2.56945">
        <ele>64.5</ele>
        <time>2015-08-02T10:08:33.191Z</time>
      </trkpt>
      <trkpt lat="43.20679" lon="2.56956">
        <ele>64.2</ele>
        <time>2015-08-02T10:08:35.216Z</time>
      </trkpt>
      <trkpt lat="43.2068" lon="2.56962">
        <ele>64.1</ele>
        <time>2015-08-02T10:08:36.182Z</time>
      </trkpt>
      <trkpt lat="43.20682" lon="2.56968">
        <ele>64.1</ele>
        <time>2015-08-02T10:08:37.216Z</time>
      </trkpt>
      <trkpt lat="43.20683" lon="2.56974">
        <ele>64</ele>
        <time>2015-08-02T10:08:38.183Z</time>
      </trkpt>
      <trkpt lat="43.20685" lon="2.5698">
        <ele>63.8</ele>
        <time>2015-08-02T10:08:39.358Z</time>
      </trkpt>
      <trkpt lat="43.20687" lon="2.56986">
        <ele>63.5</ele>
        <time>2015-08-02T10:08:40.182Z</time>
      </trkpt>
      <trkpt lat="43.2069" lon="2.56992">
        <ele>63.3</ele>
        <time>2015-08-02T10:08:41.231Z</time>
      </trkpt>
      <trkpt lat="43.20692" lon="2.56997">
        <ele>63.2</ele>
        <time>2015-08-02T10:08:42.182Z</time>
      </trkpt>
      <trkpt lat="43.20697" lon="2.57007">
        <ele>62.8</ele>
        <time>2015-08-02T10:08:44.230Z</time>
      </trkpt>
      <trkpt lat="43.20699" lon="2.57012">
        <ele>62.7</ele>
        <time>2015-08-02T10:08:45.183Z</time>
      </trkpt>
      <trkpt lat="43.207" lon="2.57019">
        <ele>62.6</ele>
        <time>2015-08-02T10:08:46.231Z</time>
      </trkpt>
      <trkpt lat="43.20702" lon="2.57025">
        <ele>62.4</ele>
        <time>2015-08-02T10:08:47.182Z</time>
      </trkpt>
      <trkpt lat="43.20705" lon="2.57036">
        <ele>61.9</ele>
        <time>2015-08-02T10:08:49.238Z</time>
      </trkpt>
      <trkpt lat="43.20706" lon="2.57041">
        <ele>61.8</ele>
        <time>2015-08-02T10:08:50.183Z</time>
      </trkpt>
      <trkpt lat="43.20708" lon="2.57047">
        <ele>61.5</ele>
        <time>2015-08-02T10:08:51.223Z</time>
      </trkpt>
      <trkpt lat="43.20708" lon="2.57054">
        <ele>61.6</ele>
        <time>2015-08-02T10:08:52.202Z</time>
      </trkpt>
      <trkpt lat="43.20709" lon="2.57061">
        <ele>61.4</ele>
        <time>2015-08-02T10:08:53.233Z</time>
      </trkpt>
      <trkpt lat="43.20709" lon="2.57068">
        <ele>61.4</ele>
        <time>2015-08-02T10:08:54.181Z</time>
      </trkpt>
      <trkpt lat="43.20711" lon="2.5708">
        <ele>61.4</ele>
        <time>2015-08-02T10:08:56.232Z</time>
      </trkpt>
      <trkpt lat="43.20712" lon="2.57086">
        <ele>61.3</ele>
        <time>2015-08-02T10:08:57.191Z</time>
      </trkpt>
      <trkpt lat="43.20712" lon="2.57093">
        <ele>61.3</ele>
        <time>2015-08-02T10:08:58.230Z</time>
      </trkpt>
      <trkpt lat="43.20712" lon="2.57099">
        <ele>61.2</ele>
        <time>2015-08-02T10:08:59.181Z</time>
      </trkpt>
      <trkpt lat="43.20713" lon="2.57105">
        <ele>61.1</ele>
        <time>2015-08-02T10:09:00.234Z</time>
      </trkpt>
      <trkpt lat="43.20713" lon="2.57112">
        <ele>61.1</ele>
        <time>2015-08-02T10:09:01.183Z</time>
      </trkpt>
      <trkpt lat="43.20713" lon="2.57119">
        <ele>61</ele>
        <time>2015-08-02T10:09:02.238Z</time>
      </trkpt>
      <trkpt lat="43.20713" lon="2.57125">
        <ele>61.1</ele>
        <time>2015-08-02T10:09:03.456Z</time>
      </trkpt>
      <trkpt lat="43.20713" lon="2.57132">
        <ele>61.1</ele>
        <time>2015-08-02T10:09:04.276Z</time>
      </trkpt>
      <trkpt lat="43.20713" lon="2.57139">
        <ele>61</ele>
        <time>2015-08-02T10:09:05.192Z</time>
      </trkpt>
      <trkpt lat="43.20713" lon="2.57147">
        <ele>61</ele>
        <time>2015-08-02T10:09:06.232Z</time>
      </trkpt>
      <trkpt lat="43.20714" lon="2.57154">
        <ele>60.9</ele>
        <time>2015-08-02T10:09:07.183Z</time>
      </trkpt>
      <trkpt lat="43.20715" lon="2.57161">
        <ele>61.1</ele>
        <time>2015-08-02T10:09:08.230Z</time>
      </trkpt>
      <trkpt lat="43.20717" lon="2.57167">
        <ele>61.4</ele>
        <time>2015-08-02T10:09:09.179Z</time>
      </trkpt>
      <trkpt lat="43.20718" lon="2.57174">
        <ele>61.4</ele>
        <time>2015-08-02T10:09:10.241Z</time>
      </trkpt>
      <trkpt lat="43.2072" lon="2.5718">
        <ele>61.5</ele>
        <time>2015-08-02T10:09:11.182Z</time>
      </trkpt>
      <trkpt lat="43.20722" lon="2.57191">
        <ele>61.8</ele>
        <time>2015-08-02T10:09:13.398Z</time>
      </trkpt>
      <trkpt lat="43.20723" lon="2.57197">
        <ele>62</ele>
        <time>2015-08-02T10:09:14.184Z</time>
      </trkpt>
      <trkpt lat="43.20724" lon="2.57208">
        <ele>62.2</ele>
        <time>2015-08-02T10:09:16.232Z</time>
      </trkpt>
      <trkpt lat="43.20725" lon="2.57214">
        <ele>62.2</ele>
        <time>2015-08-02T10:09:17.180Z</time>
      </trkpt>
      <trkpt lat="43.20729" lon="2.57222">
        <ele>62.3</ele>
        <time>2015-08-02T10:09:19.222Z</time>
      </trkpt>
      <trkpt lat="43.20731" lon="2.57227">
        <ele>62.3</ele>
        <time>2015-08-02T10:09:20.181Z</time>
      </trkpt>
      <trkpt lat="43.20736" lon="2.57237">
        <ele>61.9</ele>
        <time>2015-08-02T10:09:22.216Z</time>
      </trkpt>
      <trkpt lat="43.20738" lon="2.57243">
        <ele>61.8</ele>
        <time>2015-08-02T10:09:23.180Z</time>
      </trkpt>
      <trkpt lat="43.20742" lon="2.57253">
        <ele>61.7</ele>
        <time>2015-08-02T10:09:25.224Z</time>
      </trkpt>
      <trkpt lat="43.20744" lon="2.5726">
        <ele>62.1</ele>
        <time>2015-08-02T10:09:26.177Z</time>
      </trkpt>
      <trkpt lat="43.20747" lon="2.57266">
        <ele>62.3</ele>
        <time>2015-08-02T10:09:27.224Z</time>
      </trkpt>
      <trkpt lat="43.20749" lon="2.57272">
        <ele>62.3</ele>
        <time>2015-08-02T10:09:28.189Z</time>
      </trkpt>
      <trkpt lat="43.20751" lon="2.57278">
        <ele>62.3</ele>
        <time>2015-08-02T10:09:29.222Z</time>
      </trkpt>
      <trkpt lat="43.20753" lon="2.57284">
        <ele>62.8</ele>
        <time>2015-08-02T10:09:30.179Z</time>
      </trkpt>
      <trkpt lat="43.20754" lon="2.5729">
        <ele>63.5</ele>
        <time>2015-08-02T10:09:31.264Z</time>
      </trkpt>
      <trkpt lat="43.20756" lon="2.57296">
        <ele>63.6</ele>
        <time>2015-08-02T10:09:32.203Z</time>
      </trkpt>
      <trkpt lat="43.20758" lon="2.57302">
        <ele>63.6</ele>
        <time>2015-08-02T10:09:33.259Z</time>
      </trkpt>
      <trkpt lat="43.2076" lon="2.57309">
        <ele>64</ele>
        <time>2015-08-02T10:09:34.202Z</time>
      </trkpt>
      <trkpt lat="43.20763" lon="2.57315">
        <ele>64.3</ele>
        <time>2015-08-02T10:09:35.236Z</time>
      </trkpt>
      <trkpt lat="43.20765" lon="2.5732">
        <ele>64.4</ele>
        <time>2015-08-02T10:09:36.187Z</time>
      </trkpt>
      <trkpt lat="43.20769" lon="2.57329">
        <ele>65.4</ele>
        <time>2015-08-02T10:09:38.231Z</time>
      </trkpt>
      <trkpt lat="43.20772" lon="2.57333">
        <ele>65.9</ele>
        <time>2015-08-02T10:09:39.182Z</time>
      </trkpt>
      <trkpt lat="43.20775" lon="2.57341">
        <ele>67.3</ele>
        <time>2015-08-02T10:09:41.221Z</time>
      </trkpt>
      <trkpt lat="43.20777" lon="2.57344">
        <ele>67.9</ele>
        <time>2015-08-02T10:09:42.181Z</time>
      </trkpt>
      <trkpt lat="43.20783" lon="2.57352">
        <ele>69.5</ele>
        <time>2015-08-02T10:09:45.250Z</time>
      </trkpt>
      <trkpt lat="43.20785" lon="2.57354">
        <ele>70</ele>
        <time>2015-08-02T10:09:46.202Z</time>
      </trkpt>
      <trkpt lat="43.20792" lon="2.5736">
        <ele>71.4</ele>
        <time>2015-08-02T10:09:49.225Z</time>
      </trkpt>
      <trkpt lat="43.20794" lon="2.57362">
        <ele>72.1</ele>
        <time>2015-08-02T10:09:50.181Z</time>
      </trkpt>
      <trkpt lat="43.208" lon="2.57367">
        <ele>73.6</ele>
        <time>2015-08-02T10:09:53.223Z</time>
      </trkpt>
      <trkpt lat="43.20803" lon="2.5737">
        <ele>74.1</ele>
        <time>2015-08-02T10:09:54.190Z</time>
      </trkpt>
      <trkpt lat="43.20808" lon="2.57377">
        <ele>75.9</ele>
        <time>2015-08-02T10:09:57.229Z</time>
      </trkpt>
      <trkpt lat="43.2081" lon="2.57379">
        <ele>76.3</ele>
        <time>2015-08-02T10:09:58.189Z</time>
      </trkpt>
      <trkpt lat="43.20813" lon="2.57386">
        <ele>76.9</ele>
        <time>2015-08-02T10:10:00.215Z</time>
      </trkpt>
      <trkpt lat="43.20815" lon="2.5739">
        <ele>77.1</ele>
        <time>2015-08-02T10:10:01.180Z</time>
      </trkpt>
      <trkpt lat="43.2082" lon="2.57398">
        <ele>77.4</ele>
        <time>2015-08-02T10:10:03.216Z</time>
      </trkpt>
      <trkpt lat="43.20822" lon="2.57401">
        <ele>77.6</ele>
        <time>2015-08-02T10:10:04.180Z</time>
      </trkpt>
      <trkpt lat="43.20826" lon="2.5741">
        <ele>77.3</ele>
        <time>2015-08-02T10:10:06.218Z</time>
      </trkpt>
      <trkpt lat="43.20829" lon="2.57415">
        <ele>77.4</ele>
        <time>2015-08-02T10:10:07.190Z</time>
      </trkpt>
      <trkpt lat="43.20831" lon="2.57421">
        <ele>77.5</ele>
        <time>2015-08-02T10:10:08.229Z</time>
      </trkpt>
      <trkpt lat="43.20831" lon="2.57427">
        <ele>77.7</ele>
        <time>2015-08-02T10:10:09.181Z</time>
      </trkpt>
      <trkpt lat="43.20833" lon="2.57434">
        <ele>77.9</ele>
        <time>2015-08-02T10:10:10.228Z</time>
      </trkpt>
      <trkpt lat="43.20836" lon="2.57441">
        <ele>77.8</ele>
        <time>2015-08-02T10:10:11.181Z</time>
      </trkpt>
      <trkpt lat="43.20839" lon="2.57449">
        <ele>77.9</ele>
        <time>2015-08-02T10:10:12.234Z</time>
      </trkpt>
      <trkpt lat="43.20842" lon="2.57455">
        <ele>78</ele>
        <time>2015-08-02T10:10:13.182Z</time>
      </trkpt>
      <trkpt lat="43.20846" lon="2.57461">
        <ele>77.7</ele>
        <time>2015-08-02T10:10:14.226Z</time>
      </trkpt>
      <trkpt lat="43.20849" lon="2.57468">
        <ele>77.6</ele>
        <time>2015-08-02T10:10:15.183Z</time>
      </trkpt>
      <trkpt lat="43.20854" lon="2.57478">
        <ele>77.6</ele>
        <time>2015-08-02T10:10:17.221Z</time>
      </trkpt>
      <trkpt lat="43.20856" lon="2.57482">
        <ele>77.5</ele>
        <time>2015-08-02T10:10:18.182Z</time>
      </trkpt>
      <trkpt lat="43.20862" lon="2.57489">
        <ele>77.6</ele>
        <time>2015-08-02T10:10:20.242Z</time>
      </trkpt>
      <trkpt lat="43.20864" lon="2.57494">
        <ele>77.7</ele>
        <time>2015-08-02T10:10:21.181Z</time>
      </trkpt>
      <trkpt lat="43.20869" lon="2.57504">
        <ele>77.6</ele>
        <time>2015-08-02T10:10:23.227Z</time>
      </trkpt>
      <trkpt lat="43.20871" lon="2.57509">
        <ele>77.4</ele>
        <time>2015-08-02T10:10:24.190Z</time>
      </trkpt>
      <trkpt lat="43.20875" lon="2.5752">
        <ele>77.3</ele>
        <time>2015-08-02T10:10:26.224Z</time>
      </trkpt>
      <trkpt lat="43.20876" lon="2.57526">
        <ele>77.2</ele>
        <time>2015-08-02T10:10:27.182Z</time>
      </trkpt>
      <trkpt lat="43.20879" lon="2.57537">
        <ele>77.1</ele>
        <time>2015-08-02T10:10:29.223Z</time>
      </trkpt>
      <trkpt lat="43.2088" lon="2.57542">
        <ele>77.2</ele>
        <time>2015-08-02T10:10:30.188Z</time>
      </trkpt>
      <trkpt lat="43.20883" lon="2.57552">
        <ele>76.7</ele>
        <time>2015-08-02T10:10:32.237Z</time>
      </trkpt>
      <trkpt lat="43.20884" lon="2.57557">
        <ele>76.4</ele>
        <time>2015-08-02T10:10:33.190Z</time>
      </trkpt>
      <trkpt lat="43.20888" lon="2.57566">
        <ele>75.9</ele>
        <time>2015-08-02T10:10:35.230Z</time>
      </trkpt>
      <trkpt lat="43.20889" lon="2.57569">
        <ele>75.9</ele>
        <time>2015-08-02T10:10:36.180Z</time>
      </trkpt>
      <trkpt lat="43.20893" lon="2.57577">
        <ele>75.7</ele>
        <time>2015-08-02T10:10:38.238Z</time>
      </trkpt>
      <trkpt lat="43.20894" lon="2.57581">
        <ele>75.6</ele>
        <time>2015-08-02T10:10:39.180Z</time>
      </trkpt>
      <trkpt lat="43.20897" lon="2.57589">
        <ele>75.5</ele>
        <time>2015-08-02T10:10:41.228Z</time>
      </trkpt>
      <trkpt lat="43.20899" lon="2.57593">
        <ele>75.3</ele>
        <time>2015-08-02T10:10:42.191Z</time>
      </trkpt>
      <trkpt lat="43.20903" lon="2.57601">
        <ele>75</ele>
        <time>2015-08-02T10:10:44.243Z</time>
      </trkpt>
      <trkpt lat="43.20903" lon="2.57605">
        <ele>75.1</ele>
        <time>2015-08-02T10:10:45.190Z</time>
      </trkpt>
      <trkpt lat="43.20907" lon="2.57613">
        <ele>75.2</ele>
        <time>2015-08-02T10:10:47.229Z</time>
      </trkpt>
      <trkpt lat="43.20909" lon="2.57618">
        <ele>75.2</ele>
        <time>2015-08-02T10:10:48.181Z</time>
      </trkpt>
      <trkpt lat="43.20913" lon="2.57626">
        <ele>74.9</ele>
        <time>2015-08-02T10:10:50.230Z</time>
      </trkpt>
      <trkpt lat="43.20915" lon="2.5763">
        <ele>74.7</ele>
        <time>2015-08-02T10:10:51.181Z</time>
      </trkpt>
      <trkpt lat="43.2092" lon="2.57638">
        <ele>74.2</ele>
        <time>2015-08-02T10:10:53.228Z</time>
      </trkpt>
      <trkpt lat="43.20922" lon="2.57641">
        <ele>74</ele>
        <time>2015-08-02T10:10:54.202Z</time>
      </trkpt>
      <trkpt lat="43.20926" lon="2.57647">
        <ele>73.8</ele>
        <time>2015-08-02T10:10:56.235Z</time>
      </trkpt>
      <trkpt lat="43.20928" lon="2.57651">
        <ele>73.7</ele>
        <time>2015-08-02T10:10:57.178Z</time>
      </trkpt>
      <trkpt lat="43.20931" lon="2.57659">
        <ele>73.3</ele>
        <time>2015-08-02T10:10:59.236Z</time>
      </trkpt>
      <trkpt lat="43.20933" lon="2.57663">
        <ele>73.1</ele>
        <time>2015-08-02T10:11:00.183Z</time>
      </trkpt>
      <trkpt lat="43.20936" lon="2.57671">
        <ele>73</ele>
        <time>2015-08-02T10:11:02.255Z</time>
      </trkpt>
      <trkpt lat="43.20938" lon="2.57675">
        <ele>72.9</ele>
        <time>2015-08-02T10:11:03.190Z</time>
      </trkpt>
      <trkpt lat="43.20942" lon="2.57682">
        <ele>72.5</ele>
        <time>2015-08-02T10:11:05.232Z</time>
      </trkpt>
      <trkpt lat="43.20944" lon="2.57687">
        <ele>72.4</ele>
        <time>2015-08-02T10:11:06.186Z</time>
      </trkpt>
      <trkpt lat="43.20947" lon="2.57695">
        <ele>72.4</ele>
        <time>2015-08-02T10:11:08.236Z</time>
      </trkpt>
      <trkpt lat="43.20948" lon="2.57699">
        <ele>72.2</ele>
        <time>2015-08-02T10:11:09.197Z</time>
      </trkpt>
      <trkpt lat="43.20952" lon="2.5771">
        <ele>71.6</ele>
        <time>2015-08-02T10:11:12.259Z</time>
      </trkpt>
      <trkpt lat="43.20953" lon="2.57713">
        <ele>71.5</ele>
        <time>2015-08-02T10:11:13.194Z</time>
      </trkpt>
      <trkpt lat="43.20956" lon="2.5772">
        <ele>71.1</ele>
        <time>2015-08-02T10:11:15.230Z</time>
      </trkpt>
      <trkpt lat="43.20957" lon="2.57726">
        <ele>70.9</ele>
        <time>2015-08-02T10:11:16.186Z</time>
      </trkpt>
      <trkpt lat="43.2096" lon="2.57737">
        <ele>70.8</ele>
        <time>2015-08-02T10:11:18.237Z</time>
      </trkpt>
      <trkpt lat="43.20961" lon="2.57742">
        <ele>70.8</ele>
        <time>2015-08-02T10:11:19.206Z</time>
      </trkpt>
      <trkpt lat="43.20963" lon="2.57752">
        <ele>70.8</ele>
        <time>2015-08-02T10:11:21.223Z</time>
      </trkpt>
      <trkpt lat="43.20963" lon="2.57755">
        <ele>70.6</ele>
        <time>2015-08-02T10:11:22.184Z</time>
      </trkpt>
      <trkpt lat="43.20963" lon="2.57765">
        <ele>70.7</ele>
        <time>2015-08-02T10:11:24.227Z</time>
      </trkpt>
      <trkpt lat="43.20964" lon="2.5777">
        <ele>70.6</ele>
        <time>2015-08-02T10:11:25.182Z</time>
      </trkpt>
      <trkpt lat="43.20965" lon="2.5778">
        <ele>70.6</ele>
        <time>2015-08-02T10:11:27.229Z</time>
      </trkpt>
      <trkpt lat="43.20966" lon="2.57786">
        <ele>70.4</ele>
        <time>2015-08-02T10:11:28.180Z</time>
      </trkpt>
      <trkpt lat="43.20966" lon="2.57796">
        <ele>70.3</ele>
        <time>2015-08-02T10:11:30.235Z</time>
      </trkpt>
      <trkpt lat="43.20968" lon="2.57801">
        <ele>70.3</ele>
        <time>2015-08-02T10:11:31.185Z</time>
      </trkpt>
      <trkpt lat="43.2097" lon="2.57811">
        <ele>70.3</ele>
        <time>2015-08-02T10:11:33.245Z</time>
      </trkpt>
      <trkpt lat="43.20971" lon="2.57817">
        <ele>70.4</ele>
        <time>2015-08-02T10:11:34.203Z</time>
      </trkpt>
      <trkpt lat="43.20971" lon="2.57823">
        <ele>70.3</ele>
        <time>2015-08-02T10:11:35.241Z</time>
      </trkpt>
      <trkpt lat="43.2097" lon="2.5783">
        <ele>70.3</ele>
        <time>2015-08-02T10:11:36.185Z</time>
      </trkpt>
      <trkpt lat="43.2097" lon="2.57837">
        <ele>70.3</ele>
        <time>2015-08-02T10:11:37.234Z</time>
      </trkpt>
      <trkpt lat="43.2097" lon="2.57844">
        <ele>70.2</ele>
        <time>2015-08-02T10:11:38.181Z</time>
      </trkpt>
      <trkpt lat="43.20969" lon="2.5785">
        <ele>70.3</ele>
        <time>2015-08-02T10:11:39.233Z</time>
      </trkpt>
      <trkpt lat="43.20969" lon="2.57856">
        <ele>69.9</ele>
        <time>2015-08-02T10:11:40.186Z</time>
      </trkpt>
      <trkpt lat="43.20969" lon="2.57868">
        <ele>69.8</ele>
        <time>2015-08-02T10:11:42.268Z</time>
      </trkpt>
      <trkpt lat="43.20969" lon="2.57874">
        <ele>69.5</ele>
        <time>2015-08-02T10:11:43.183Z</time>
      </trkpt>
      <trkpt lat="43.20969" lon="2.57886">
        <ele>69.5</ele>
        <time>2015-08-02T10:11:45.238Z</time>
      </trkpt>
      <trkpt lat="43.20969" lon="2.57892">
        <ele>69.3</ele>
        <time>2015-08-02T10:11:46.185Z</time>
      </trkpt>
      <trkpt lat="43.2097" lon="2.57903">
        <ele>69.1</ele>
        <time>2015-08-02T10:11:48.236Z</time>
      </trkpt>
      <trkpt lat="43.20971" lon="2.57908">
        <ele>69.1</ele>
        <time>2015-08-02T10:11:49.193Z</time>
      </trkpt>
      <trkpt lat="43.20973" lon="2.57918">
        <ele>69</ele>
        <time>2015-08-02T10:11:51.243Z</time>
      </trkpt>
      <trkpt lat="43.20975" lon="2.57922">
        <ele>68.9</ele>
        <time>2015-08-02T10:11:52.181Z</time>
      </trkpt>
      <trkpt lat="43.20978" lon="2.57932">
        <ele>68.7</ele>
        <time>2015-08-02T10:11:54.233Z</time>
      </trkpt>
      <trkpt lat="43.2098" lon="2.57936">
        <ele>68.6</ele>
        <time>2015-08-02T10:11:55.183Z</time>
      </trkpt>
      <trkpt lat="43.20984" lon="2.57946">
        <ele>68.3</ele>
        <time>2015-08-02T10:11:57.248Z</time>
      </trkpt>
      <trkpt lat="43.20985" lon="2.57951">
        <ele>68.3</ele>
        <time>2015-08-02T10:11:58.194Z</time>
      </trkpt>
      <trkpt lat="43.20987" lon="2.57962">
        <ele>68.1</ele>
        <time>2015-08-02T10:12:00.236Z</time>
      </trkpt>
      <trkpt lat="43.20989" lon="2.57967">
        <ele>67.9</ele>
        <time>2015-08-02T10:12:01.181Z</time>
      </trkpt>
      <trkpt lat="43.20993" lon="2.57977">
        <ele>67.9</ele>
        <time>2015-08-02T10:12:03.226Z</time>
      </trkpt>
      <trkpt lat="43.20995" lon="2.57982">
        <ele>67.7</ele>
        <time>2015-08-02T10:12:04.183Z</time>
      </trkpt>
      <trkpt lat="43.21" lon="2.57993">
        <ele>67.4</ele>
        <time>2015-08-02T10:12:06.230Z</time>
      </trkpt>
      <trkpt lat="43.21002" lon="2.57998">
        <ele>67.1</ele>
        <time>2015-08-02T10:12:07.186Z</time>
      </trkpt>
      <trkpt lat="43.21002" lon="2.58005">
        <ele>67</ele>
        <time>2015-08-02T10:12:08.242Z</time>
      </trkpt>
      <trkpt lat="43.21004" lon="2.5801">
        <ele>66.7</ele>
        <time>2015-08-02T10:12:09.181Z</time>
      </trkpt>
      <trkpt lat="43.21004" lon="2.58017">
        <ele>66.7</ele>
        <time>2015-08-02T10:12:10.231Z</time>
      </trkpt>
      <trkpt lat="43.21007" lon="2.58022">
        <ele>66.9</ele>
        <time>2015-08-02T10:12:11.179Z</time>
      </trkpt>
      <trkpt lat="43.21009" lon="2.58028">
        <ele>66.8</ele>
        <time>2015-08-02T10:12:12.317Z</time>
      </trkpt>
      <trkpt lat="43.21011" lon="2.58034">
        <ele>66.7</ele>
        <time>2015-08-02T10:12:13.183Z</time>
      </trkpt>
      <trkpt lat="43.21012" lon="2.5804">
        <ele>66.6</ele>
        <time>2015-08-02T10:12:14.235Z</time>
      </trkpt>
      <trkpt lat="43.21014" lon="2.58046">
        <ele>66.7</ele>
        <time>2015-08-02T10:12:15.183Z</time>
      </trkpt>
      <trkpt lat="43.21015" lon="2.58057">
        <ele>66.7</ele>
        <time>2015-08-02T10:12:17.224Z</time>
      </trkpt>
      <trkpt lat="43.21017" lon="2.58063">
        <ele>66.8</ele>
        <time>2015-08-02T10:12:18.179Z</time>
      </trkpt>
      <trkpt lat="43.21018" lon="2.58069">
        <ele>66.9</ele>
        <time>2015-08-02T10:12:19.458Z</time>
      </trkpt>
      <trkpt lat="43.2102" lon="2.58075">
        <ele>67</ele>
        <time>2015-08-02T10:12:20.184Z</time>
      </trkpt>
      <trkpt lat="43.21021" lon="2.58081">
        <ele>67.1</ele>
        <time>2015-08-02T10:12:21.236Z</time>
      </trkpt>
      <trkpt lat="43.21022" lon="2.58087">
        <ele>67.2</ele>
        <time>2015-08-02T10:12:22.180Z</time>
      </trkpt>
      <trkpt lat="43.21023" lon="2.58094">
        <ele>67.4</ele>
        <time>2015-08-02T10:12:23.233Z</time>
      </trkpt>
      <trkpt lat="43.21024" lon="2.58101">
        <ele>67.4</ele>
        <time>2015-08-02T10:12:24.189Z</time>
      </trkpt>
      <trkpt lat="43.21026" lon="2.58108">
        <ele>67.4</ele>
        <time>2015-08-02T10:12:25.235Z</time>
      </trkpt>
      <trkpt lat="43.21028" lon="2.58116">
        <ele>67.3</ele>
        <time>2015-08-02T10:12:26.202Z</time>
      </trkpt>
      <trkpt lat="43.21029" lon="2.58122">
        <ele>67.3</ele>
        <time>2015-08-02T10:12:27.226Z</time>
      </trkpt>
      <trkpt lat="43.21031" lon="2.58129">
        <ele>67.3</ele>
        <time>2015-08-02T10:12:28.188Z</time>
      </trkpt>
      <trkpt lat="43.21033" lon="2.58135">
        <ele>67.5</ele>
        <time>2015-08-02T10:12:29.234Z</time>
      </trkpt>
      <trkpt lat="43.21035" lon="2.58143">
        <ele>67.6</ele>
        <time>2015-08-02T10:12:30.181Z</time>
      </trkpt>
      <trkpt lat="43.21036" lon="2.5815">
        <ele>67.6</ele>
        <time>2015-08-02T10:12:31.233Z</time>
      </trkpt>
      <trkpt lat="43.21037" lon="2.58157">
        <ele>67.8</ele>
        <time>2015-08-02T10:12:32.183Z</time>
      </trkpt>
      <trkpt lat="43.21039" lon="2.58164">
        <ele>67.9</ele>
        <time>2015-08-02T10:12:33.237Z</time>
      </trkpt>
      <trkpt lat="43.2104" lon="2.58172">
        <ele>67.9</ele>
        <time>2015-08-02T10:12:34.202Z</time>
      </trkpt>
      <trkpt lat="43.21041" lon="2.5818">
        <ele>67.9</ele>
        <time>2015-08-02T10:12:35.229Z</time>
      </trkpt>
      <trkpt lat="43.21042" lon="2.5819">
        <ele>67.9</ele>
        <time>2015-08-02T10:12:36.181Z</time>
      </trkpt>
      <trkpt lat="43.21044" lon="2.58199">
        <ele>67.8</ele>
        <time>2015-08-02T10:12:37.225Z</time>
      </trkpt>
      <trkpt lat="43.21045" lon="2.58207">
        <ele>68.1</ele>
        <time>2015-08-02T10:12:38.178Z</time>
      </trkpt>
      <trkpt lat="43.21045" lon="2.58214">
        <ele>68.3</ele>
        <time>2015-08-02T10:12:39.227Z</time>
      </trkpt>
      <trkpt lat="43.21047" lon="2.5822">
        <ele>68.5</ele>
        <time>2015-08-02T10:12:40.180Z</time>
      </trkpt>
      <trkpt lat="43.21048" lon="2.58232">
        <ele>68.9</ele>
        <time>2015-08-02T10:12:42.226Z</time>
      </trkpt>
      <trkpt lat="43.21049" lon="2.58238">
        <ele>69.1</ele>
        <time>2015-08-02T10:12:43.182Z</time>
      </trkpt>
      <trkpt lat="43.2105" lon="2.58244">
        <ele>69.2</ele>
        <time>2015-08-02T10:12:44.232Z</time>
      </trkpt>
      <trkpt lat="43.21052" lon="2.5825">
        <ele>69.4</ele>
        <time>2015-08-02T10:12:45.190Z</time>
      </trkpt>
      <trkpt lat="43.21054" lon="2.58261">
        <ele>69.6</ele>
        <time>2015-08-02T10:12:47.226Z</time>
      </trkpt>
      <trkpt lat="43.21055" lon="2.58268">
        <ele>69.6</ele>
        <time>2015-08-02T10:12:48.183Z</time>
      </trkpt>
      <trkpt lat="43.21057" lon="2.5828">
        <ele>69.8</ele>
        <time>2015-08-02T10:12:50.227Z</time>
      </trkpt>
      <trkpt lat="43.21058" lon="2.58285">
        <ele>70.1</ele>
        <time>2015-08-02T10:12:51.183Z</time>
      </trkpt>
      <trkpt lat="43.21061" lon="2.58295">
        <ele>70.5</ele>
        <time>2015-08-02T10:12:53.250Z</time>
      </trkpt>
      <trkpt lat="43.21062" lon="2.583">
        <ele>70.7</ele>
        <time>2015-08-02T10:12:54.202Z</time>
      </trkpt>
      <trkpt lat="43.21064" lon="2.5831">
        <ele>71.1</ele>
        <time>2015-08-02T10:12:56.237Z</time>
      </trkpt>
      <trkpt lat="43.21066" lon="2.58315">
        <ele>71.2</ele>
        <time>2015-08-02T10:12:57.183Z</time>
      </trkpt>
      <trkpt lat="43.21069" lon="2.58324">
        <ele>71.4</ele>
        <time>2015-08-02T10:12:59.233Z</time>
      </trkpt>
      <trkpt lat="43.2107" lon="2.58329">
        <ele>71.6</ele>
        <time>2015-08-02T10:13:00.185Z</time>
      </trkpt>
      <trkpt lat="43.21072" lon="2.58339">
        <ele>72.3</ele>
        <time>2015-08-02T10:13:02.260Z</time>
      </trkpt>
      <trkpt lat="43.21073" lon="2.58344">
        <ele>72.5</ele>
        <time>2015-08-02T10:13:03.190Z</time>
      </trkpt>
      <trkpt lat="43.21074" lon="2.58355">
        <ele>72.7</ele>
        <time>2015-08-02T10:13:05.274Z</time>
      </trkpt>
      <trkpt lat="43.21074" lon="2.58361">
        <ele>72.9</ele>
        <time>2015-08-02T10:13:06.190Z</time>
      </trkpt>
      <trkpt lat="43.21077" lon="2.58371">
        <ele>73.3</ele>
        <time>2015-08-02T10:13:08.274Z</time>
      </trkpt>
      <trkpt lat="43.21077" lon="2.58377">
        <ele>73.8</ele>
        <time>2015-08-02T10:13:09.206Z</time>
      </trkpt>
      <trkpt lat="43.21079" lon="2.58387">
        <ele>74.5</ele>
        <time>2015-08-02T10:13:11.227Z</time>
      </trkpt>
      <trkpt lat="43.2108" lon="2.58392">
        <ele>74.6</ele>
        <time>2015-08-02T10:13:12.182Z</time>
      </trkpt>
      <trkpt lat="43.21079" lon="2.58402">
        <ele>74.6</ele>
        <time>2015-08-02T10:13:14.241Z</time>
      </trkpt>
      <trkpt lat="43.21079" lon="2.58408">
        <ele>74.7</ele>
        <time>2015-08-02T10:13:15.184Z</time>
      </trkpt>
      <trkpt lat="43.21082" lon="2.58418">
        <ele>74.5</ele>
        <time>2015-08-02T10:13:17.227Z</time>
      </trkpt>
      <trkpt lat="43.21083" lon="2.58422">
        <ele>74.5</ele>
        <time>2015-08-02T10:13:18.201Z</time>
      </trkpt>
      <trkpt lat="43.21089" lon="2.58427">
        <ele>74.6</ele>
        <time>2015-08-02T10:13:20.229Z</time>
      </trkpt>
      <trkpt lat="43.21091" lon="2.58429">
        <ele>74.5</ele>
        <time>2015-08-02T10:13:21.180Z</time>
      </trkpt>
      <trkpt lat="43.21097" lon="2.58434">
        <ele>74.3</ele>
        <time>2015-08-02T10:13:24.229Z</time>
      </trkpt>
      <trkpt lat="43.21098" lon="2.58436">
        <ele>74.2</ele>
        <time>2015-08-02T10:13:25.183Z</time>
      </trkpt>
      <trkpt lat="43.211" lon="2.58446">
        <ele>73.7</ele>
        <time>2015-08-02T10:13:30.249Z</time>
      </trkpt>
      <trkpt lat="43.21101" lon="2.58448">
        <ele>73.7</ele>
        <time>2015-08-02T10:13:31.200Z</time>
      </trkpt>
      <trkpt lat="43.21101" lon="2.58458">
        <ele>73.3</ele>
        <time>2015-08-02T10:13:34.260Z</time>
      </trkpt>
      <trkpt lat="43.21102" lon="2.58462">
        <ele>73.3</ele>
        <time>2015-08-02T10:13:35.190Z</time>
      </trkpt>
      <trkpt lat="43.21103" lon="2.58474">
        <ele>73.6</ele>
        <time>2015-08-02T10:13:39.567Z</time>
      </trkpt>
      <trkpt lat="43.21102" lon="2.58477">
        <ele>73.6</ele>
        <time>2015-08-02T10:13:40.187Z</time>
      </trkpt>
      <trkpt lat="43.21103" lon="2.58488">
        <ele>73.4</ele>
        <time>2015-08-02T10:13:46.609Z</time>
      </trkpt>
      <trkpt lat="43.21103" lon="2.58489">
        <ele>73.3</ele>
        <time>2015-08-02T10:13:47.179Z</time>
      </trkpt>
      <trkpt lat="43.21108" lon="2.585">
        <ele>72.4</ele>
        <time>2015-08-02T10:13:57.249Z</time>
      </trkpt>
      <trkpt lat="43.21108" lon="2.58501">
        <ele>72.3</ele>
        <time>2015-08-02T10:13:58.183Z</time>
      </trkpt>
      <trkpt lat="43.2111" lon="2.58512">
        <ele>71.7</ele>
        <time>2015-08-02T10:14:03.228Z</time>
      </trkpt>
      <trkpt lat="43.2111" lon="2.58515">
        <ele>71.6</ele>
        <time>2015-08-02T10:14:04.180Z</time>
      </trkpt>
      <trkpt lat="43.21112" lon="2.58526">
        <ele>71.6</ele>
        <time>2015-08-02T10:14:09.229Z</time>
      </trkpt>
      <trkpt lat="43.21112" lon="2.58528">
        <ele>71.6</ele>
        <time>2015-08-02T10:14:10.178Z</time>
      </trkpt>
      <trkpt lat="43.21115" lon="2.58537">
        <ele>71.2</ele>
        <time>2015-08-02T10:14:15.249Z</time>
      </trkpt>
      <trkpt lat="43.21116" lon="2.58539">
        <ele>71.1</ele>
        <time>2015-08-02T10:14:16.186Z</time>
      </trkpt>
      <trkpt lat="43.21118" lon="2.5855">
        <ele>68.9</ele>
        <time>2015-08-02T10:14:36.235Z</time>
      </trkpt>
      <trkpt lat="43.21119" lon="2.58553">
        <ele>68.8</ele>
        <time>2015-08-02T10:14:37.183Z</time>
      </trkpt>
      <trkpt lat="43.21122" lon="2.58563">
        <ele>68.6</ele>
        <time>2015-08-02T10:14:41.220Z</time>
      </trkpt>
      <trkpt lat="43.21123" lon="2.58565">
        <ele>68.5</ele>
        <time>2015-08-02T10:14:42.181Z</time>
      </trkpt>
      <trkpt lat="43.21128" lon="2.58574">
        <ele>68.4</ele>
        <time>2015-08-02T10:14:46.229Z</time>
      </trkpt>
      <trkpt lat="43.21128" lon="2.58577">
        <ele>68.3</ele>
        <time>2015-08-02T10:14:47.183Z</time>
      </trkpt>
      <trkpt lat="43.21129" lon="2.58586">
        <ele>68.1</ele>
        <time>2015-08-02T10:14:49.229Z</time>
      </trkpt>
      <trkpt lat="43.21129" lon="2.58591">
        <ele>68.2</ele>
        <time>2015-08-02T10:14:50.188Z</time>
      </trkpt>
      <trkpt lat="43.21131" lon="2.586">
        <ele>68</ele>
        <time>2015-08-02T10:14:52.239Z</time>
      </trkpt>
      <trkpt lat="43.21132" lon="2.58604">
        <ele>67.9</ele>
        <time>2015-08-02T10:14:53.182Z</time>
      </trkpt>
      <trkpt lat="43.21135" lon="2.58614">
        <ele>67.3</ele>
        <time>2015-08-02T10:14:55.234Z</time>
      </trkpt>
      <trkpt lat="43.21136" lon="2.58619">
        <ele>67.3</ele>
        <time>2015-08-02T10:14:56.181Z</time>
      </trkpt>
      <trkpt lat="43.21139" lon="2.58629">
        <ele>67.1</ele>
        <time>2015-08-02T10:14:58.237Z</time>
      </trkpt>
      <trkpt lat="43.21141" lon="2.58635">
        <ele>67.1</ele>
        <time>2015-08-02T10:14:59.178Z</time>
      </trkpt>
      <trkpt lat="43.21143" lon="2.58645">
        <ele>67</ele>
        <time>2015-08-02T10:15:01.233Z</time>
      </trkpt>
      <trkpt lat="43.21144" lon="2.58649">
        <ele>67.2</ele>
        <time>2015-08-02T10:15:02.494Z</time>
      </trkpt>
      <trkpt lat="43.21146" lon="2.58658">
        <ele>67.1</ele>
        <time>2015-08-02T10:15:04.227Z</time>
      </trkpt>
      <trkpt lat="43.21147" lon="2.58662">
        <ele>67.1</ele>
        <time>2015-08-02T10:15:05.180Z</time>
      </trkpt>
      <trkpt lat="43.21149" lon="2.58672">
        <ele>67.3</ele>
        <time>2015-08-02T10:15:08.551Z</time>
      </trkpt>
      <trkpt lat="43.2115" lon="2.58675">
        <ele>67.4</ele>
        <time>2015-08-02T10:15:09.177Z</time>
      </trkpt>
      <trkpt lat="43.21151" lon="2.58683">
        <ele>67.5</ele>
        <time>2015-08-02T10:15:11.225Z</time>
      </trkpt>
      <trkpt lat="43.21153" lon="2.58687">
        <ele>67.2</ele>
        <time>2015-08-02T10:15:12.187Z</time>
      </trkpt>
      <trkpt lat="43.21156" lon="2.58696">
        <ele>66.7</ele>
        <time>2015-08-02T10:15:14.577Z</time>
      </trkpt>
      <trkpt lat="43.21157" lon="2.58702">
        <ele>66.6</ele>
        <time>2015-08-02T10:15:15.184Z</time>
      </trkpt>
      <trkpt lat="43.21159" lon="2.5871">
        <ele>66</ele>
        <time>2015-08-02T10:15:17.240Z</time>
      </trkpt>
      <trkpt lat="43.2116" lon="2.58714">
        <ele>65.8</ele>
        <time>2015-08-02T10:15:18.179Z</time>
      </trkpt>
      <trkpt lat="43.21162" lon="2.58721">
        <ele>65.3</ele>
        <time>2015-08-02T10:15:20.229Z</time>
      </trkpt>
      <trkpt lat="43.21162" lon="2.58726">
        <ele>65.2</ele>
        <time>2015-08-02T10:15:21.314Z</time>
      </trkpt>
      <trkpt lat="43.21163" lon="2.58734">
        <ele>64.9</ele>
        <time>2015-08-02T10:15:23.225Z</time>
      </trkpt>
      <trkpt lat="43.21163" lon="2.58738">
        <ele>64.8</ele>
        <time>2015-08-02T10:15:24.183Z</time>
      </trkpt>
      <trkpt lat="43.21165" lon="2.58747">
        <ele>64.8</ele>
        <time>2015-08-02T10:15:26.225Z</time>
      </trkpt>
      <trkpt lat="43.21166" lon="2.58751">
        <ele>64.4</ele>
        <time>2015-08-02T10:15:27.178Z</time>
      </trkpt>
      <trkpt lat="43.21168" lon="2.58761">
        <ele>64.1</ele>
        <time>2015-08-02T10:15:29.234Z</time>
      </trkpt>
      <trkpt lat="43.21169" lon="2.58765">
        <ele>64</ele>
        <time>2015-08-02T10:15:30.190Z</time>
      </trkpt>
      <trkpt lat="43.21172" lon="2.58774">
        <ele>63.8</ele>
        <time>2015-08-02T10:15:32.270Z</time>
      </trkpt>
      <trkpt lat="43.21173" lon="2.58778">
        <ele>63.5</ele>
        <time>2015-08-02T10:15:33.181Z</time>
      </trkpt>
      <trkpt lat="43.21175" lon="2.58787">
        <ele>63</ele>
        <time>2015-08-02T10:15:35.230Z</time>
      </trkpt>
      <trkpt lat="43.21177" lon="2.58791">
        <ele>62.7</ele>
        <time>2015-08-02T10:15:36.182Z</time>
      </trkpt>
      <trkpt lat="43.21178" lon="2.58801">
        <ele>62.2</ele>
        <time>2015-08-02T10:15:38.236Z</time>
      </trkpt>
      <trkpt lat="43.21178" lon="2.58806">
        <ele>62.3</ele>
        <time>2015-08-02T10:15:39.184Z</time>
      </trkpt>
      <trkpt lat="43.21179" lon="2.58815">
        <ele>62.1</ele>
        <time>2015-08-02T10:15:41.230Z</time>
      </trkpt>
      <trkpt lat="43.21179" lon="2.58819">
        <ele>62</ele>
        <time>2015-08-02T10:15:42.183Z</time>
      </trkpt>
      <trkpt lat="43.21181" lon="2.58828">
        <ele>62.1</ele>
        <time>2015-08-02T10:15:44.242Z</time>
      </trkpt>
      <trkpt lat="43.21181" lon="2.58832">
        <ele>62.2</ele>
        <time>2015-08-02T10:15:45.181Z</time>
      </trkpt>
      <trkpt lat="43.21184" lon="2.58843">
        <ele>62</ele>
        <time>2015-08-02T10:15:48.245Z</time>
      </trkpt>
      <trkpt lat="43.21184" lon="2.58848">
        <ele>62.1</ele>
        <time>2015-08-02T10:15:49.183Z</time>
      </trkpt>
      <trkpt lat="43.21186" lon="2.58855">
        <ele>61.8</ele>
        <time>2015-08-02T10:15:51.237Z</time>
      </trkpt>
      <trkpt lat="43.21187" lon="2.5886">
        <ele>61.5</ele>
        <time>2015-08-02T10:15:52.189Z</time>
      </trkpt>
      <trkpt lat="43.2119" lon="2.58868">
        <ele>61.2</ele>
        <time>2015-08-02T10:15:54.231Z</time>
      </trkpt>
      <trkpt lat="43.21192" lon="2.58872">
        <ele>61.1</ele>
        <time>2015-08-02T10:15:55.182Z</time>
      </trkpt>
      <trkpt lat="43.21194" lon="2.58881">
        <ele>60.3</ele>
        <time>2015-08-02T10:15:57.231Z</time>
      </trkpt>
      <trkpt lat="43.21195" lon="2.58886">
        <ele>60.1</ele>
        <time>2015-08-02T10:15:58.182Z</time>
      </trkpt>
      <trkpt lat="43.21197" lon="2.58895">
        <ele>59.7</ele>
        <time>2015-08-02T10:16:00.236Z</time>
      </trkpt>
      <trkpt lat="43.21198" lon="2.58899">
        <ele>59.6</ele>
        <time>2015-08-02T10:16:01.183Z</time>
      </trkpt>
      <trkpt lat="43.212" lon="2.58908">
        <ele>59.2</ele>
        <time>2015-08-02T10:16:03.320Z</time>
      </trkpt>
      <trkpt lat="43.21201" lon="2.58912">
        <ele>58.8</ele>
        <time>2015-08-02T10:16:04.180Z</time>
      </trkpt>
      <trkpt lat="43.21204" lon="2.5892">
        <ele>58.5</ele>
        <time>2015-08-02T10:16:06.228Z</time>
      </trkpt>
      <trkpt lat="43.21206" lon="2.58925">
        <ele>58.4</ele>
        <time>2015-08-02T10:16:07.183Z</time>
      </trkpt>
      <trkpt lat="43.21208" lon="2.58933">
        <ele>58.2</ele>
        <time>2015-08-02T10:16:09.231Z</time>
      </trkpt>
      <trkpt lat="43.2121" lon="2.58938">
        <ele>58.4</ele>
        <time>2015-08-02T10:16:10.179Z</time>
      </trkpt>
      <trkpt lat="43.21214" lon="2.58947">
        <ele>58.7</ele>
        <time>2015-08-02T10:16:12.276Z</time>
      </trkpt>
      <trkpt lat="43.21217" lon="2.5895">
        <ele>58.6</ele>
        <time>2015-08-02T10:16:13.195Z</time>
      </trkpt>
      <trkpt lat="43.21221" lon="2.58957">
        <ele>58.4</ele>
        <time>2015-08-02T10:16:15.232Z</time>
      </trkpt>
      <trkpt lat="43.21223" lon="2.58961">
        <ele>58.5</ele>
        <time>2015-08-02T10:16:16.181Z</time>
      </trkpt>
      <trkpt lat="43.21227" lon="2.58971">
        <ele>58.7</ele>
        <time>2015-08-02T10:16:18.228Z</time>
      </trkpt>
      <trkpt lat="43.21229" lon="2.58975">
        <ele>58.8</ele>
        <time>2015-08-02T10:16:19.183Z</time>
      </trkpt>
      <trkpt lat="43.21232" lon="2.58984">
        <ele>59</ele>
        <time>2015-08-02T10:16:21.232Z</time>
      </trkpt>
      <trkpt lat="43.21234" lon="2.58989">
        <ele>59</ele>
        <time>2015-08-02T10:16:22.178Z</time>
      </trkpt>
      <trkpt lat="43.21237" lon="2.58997">
        <ele>59</ele>
        <time>2015-08-02T10:16:24.283Z</time>
      </trkpt>
      <trkpt lat="43.2124" lon="2.59001">
        <ele>59</ele>
        <time>2015-08-02T10:16:25.187Z</time>
      </trkpt>
      <trkpt lat="43.21242" lon="2.59009">
        <ele>58.9</ele>
        <time>2015-08-02T10:16:27.227Z</time>
      </trkpt>
      <trkpt lat="43.21244" lon="2.59014">
        <ele>59.1</ele>
        <time>2015-08-02T10:16:28.190Z</time>
      </trkpt>
      <trkpt lat="43.21246" lon="2.59023">
        <ele>59.1</ele>
        <time>2015-08-02T10:16:30.224Z</time>
      </trkpt>
      <trkpt lat="43.21246" lon="2.59026">
        <ele>59.3</ele>
        <time>2015-08-02T10:16:31.179Z</time>
      </trkpt>
      <trkpt lat="43.21249" lon="2.59036">
        <ele>59.8</ele>
        <time>2015-08-02T10:16:34.225Z</time>
      </trkpt>
      <trkpt lat="43.21251" lon="2.59039">
        <ele>59.9</ele>
        <time>2015-08-02T10:16:35.181Z</time>
      </trkpt>
      <trkpt lat="43.21255" lon="2.59048">
        <ele>59.6</ele>
        <time>2015-08-02T10:16:37.234Z</time>
      </trkpt>
      <trkpt lat="43.21257" lon="2.59052">
        <ele>59.7</ele>
        <time>2015-08-02T10:16:38.182Z</time>
      </trkpt>
      <trkpt lat="43.21262" lon="2.59061">
        <ele>59.3</ele>
        <time>2015-08-02T10:16:40.230Z</time>
      </trkpt>
      <trkpt lat="43.21264" lon="2.59066">
        <ele>59.1</ele>
        <time>2015-08-02T10:16:41.180Z</time>
      </trkpt>
      <trkpt lat="43.21268" lon="2.59074">
        <ele>58.5</ele>
        <time>2015-08-02T10:16:43.365Z</time>
      </trkpt>
      <trkpt lat="43.21269" lon="2.59079">
        <ele>58.3</ele>
        <time>2015-08-02T10:16:44.180Z</time>
      </trkpt>
      <trkpt lat="43.21272" lon="2.59084">
        <ele>58.3</ele>
        <time>2015-08-02T10:16:45.224Z</time>
      </trkpt>
      <trkpt lat="43.21275" lon="2.59089">
        <ele>58.6</ele>
        <time>2015-08-02T10:16:46.180Z</time>
      </trkpt>
      <trkpt lat="43.2128" lon="2.59098">
        <ele>59.5</ele>
        <time>2015-08-02T10:16:48.247Z</time>
      </trkpt>
      <trkpt lat="43.2128" lon="2.59103">
        <ele>60.2</ele>
        <time>2015-08-02T10:16:49.183Z</time>
      </trkpt>
      <trkpt lat="43.21283" lon="2.59112">
        <ele>60.9</ele>
        <time>2015-08-02T10:16:51.228Z</time>
      </trkpt>
      <trkpt lat="43.21285" lon="2.59116">
        <ele>60.9</ele>
        <time>2015-08-02T10:16:52.187Z</time>
      </trkpt>
      <trkpt lat="43.21289" lon="2.59123">
        <ele>61</ele>
        <time>2015-08-02T10:16:54.257Z</time>
      </trkpt>
      <trkpt lat="43.21291" lon="2.59127">
        <ele>60.7</ele>
        <time>2015-08-02T10:16:55.193Z</time>
      </trkpt>
      <trkpt lat="43.21295" lon="2.59137">
        <ele>60.1</ele>
        <time>2015-08-02T10:16:57.589Z</time>
      </trkpt>
      <trkpt lat="43.21297" lon="2.59141">
        <ele>60.1</ele>
        <time>2015-08-02T10:16:58.184Z</time>
      </trkpt>
      <trkpt lat="43.21302" lon="2.5915">
        <ele>60</ele>
        <time>2015-08-02T10:17:00.236Z</time>
      </trkpt>
      <trkpt lat="43.21304" lon="2.59155">
        <ele>59.9</ele>
        <time>2015-08-02T10:17:01.184Z</time>
      </trkpt>
      <trkpt lat="43.2131" lon="2.59164">
        <ele>59.8</ele>
        <time>2015-08-02T10:17:03.241Z</time>
      </trkpt>
      <trkpt lat="43.21313" lon="2.59169">
        <ele>59.7</ele>
        <time>2015-08-02T10:17:04.190Z</time>
      </trkpt>
      <trkpt lat="43.21316" lon="2.59174">
        <ele>59.5</ele>
        <time>2015-08-02T10:17:05.276Z</time>
      </trkpt>
      <trkpt lat="43.21318" lon="2.59179">
        <ele>59.5</ele>
        <time>2015-08-02T10:17:06.179Z</time>
      </trkpt>
      <trkpt lat="43.21323" lon="2.59189">
        <ele>58.9</ele>
        <time>2015-08-02T10:17:08.244Z</time>
      </trkpt>
      <trkpt lat="43.21326" lon="2.59194">
        <ele>58.7</ele>
        <time>2015-08-02T10:17:09.182Z</time>
      </trkpt>
      <trkpt lat="43.21328" lon="2.59199">
        <ele>58.2</ele>
        <time>2015-08-02T10:17:10.235Z</time>
      </trkpt>
      <trkpt lat="43.2133" lon="2.59204">
        <ele>57.9</ele>
        <time>2015-08-02T10:17:11.178Z</time>
      </trkpt>
      <trkpt lat="43.21334" lon="2.59214">
        <ele>58</ele>
        <time>2015-08-02T10:17:13.554Z</time>
      </trkpt>
      <trkpt lat="43.21336" lon="2.59219">
        <ele>57.9</ele>
        <time>2015-08-02T10:17:14.180Z</time>
      </trkpt>
      <trkpt lat="43.2134" lon="2.59227">
        <ele>57.5</ele>
        <time>2015-08-02T10:17:16.228Z</time>
      </trkpt>
      <trkpt lat="43.21343" lon="2.5923">
        <ele>57.3</ele>
        <time>2015-08-02T10:17:17.219Z</time>
      </trkpt>
      <trkpt lat="43.21348" lon="2.59238">
        <ele>56.8</ele>
        <time>2015-08-02T10:17:19.235Z</time>
      </trkpt>
      <trkpt lat="43.21351" lon="2.59242">
        <ele>56.7</ele>
        <time>2015-08-02T10:17:20.182Z</time>
      </trkpt>
      <trkpt lat="43.21356" lon="2.5925">
        <ele>56.5</ele>
        <time>2015-08-02T10:17:22.258Z</time>
      </trkpt>
      <trkpt lat="43.21358" lon="2.59255">
        <ele>56.3</ele>
        <time>2015-08-02T10:17:23.180Z</time>
      </trkpt>
      <trkpt lat="43.21363" lon="2.59265">
        <ele>56.1</ele>
        <time>2015-08-02T10:17:25.597Z</time>
      </trkpt>
      <trkpt lat="43.21365" lon="2.59271">
        <ele>56.3</ele>
        <time>2015-08-02T10:17:26.182Z</time>
      </trkpt>
      <trkpt lat="43.21371" lon="2.5928">
        <ele>56.5</ele>
        <time>2015-08-02T10:17:28.266Z</time>
      </trkpt>
      <trkpt lat="43.21373" lon="2.59285">
        <ele>56.5</ele>
        <time>2015-08-02T10:17:29.183Z</time>
      </trkpt>
      <trkpt lat="43.21378" lon="2.59293">
        <ele>56.6</ele>
        <time>2015-08-02T10:17:31.373Z</time>
      </trkpt>
      <trkpt lat="43.2138" lon="2.59297">
        <ele>56.6</ele>
        <time>2015-08-02T10:17:32.490Z</time>
      </trkpt>
      <trkpt lat="43.21385" lon="2.59304">
        <ele>56.7</ele>
        <time>2015-08-02T10:17:34.238Z</time>
      </trkpt>
      <trkpt lat="43.21388" lon="2.59308">
        <ele>56.5</ele>
        <time>2015-08-02T10:17:35.184Z</time>
      </trkpt>
      <trkpt lat="43.21394" lon="2.59315">
        <ele>56.4</ele>
        <time>2015-08-02T10:17:37.230Z</time>
      </trkpt>
      <trkpt lat="43.21396" lon="2.5932">
        <ele>56.5</ele>
        <time>2015-08-02T10:17:38.183Z</time>
      </trkpt>
      <trkpt lat="43.21402" lon="2.59329">
        <ele>56.8</ele>
        <time>2015-08-02T10:17:40.232Z</time>
      </trkpt>
      <trkpt lat="43.21404" lon="2.59333">
        <ele>56.8</ele>
        <time>2015-08-02T10:17:41.183Z</time>
      </trkpt>
      <trkpt lat="43.2141" lon="2.59339">
        <ele>57</ele>
        <time>2015-08-02T10:17:43.233Z</time>
      </trkpt>
      <trkpt lat="43.21413" lon="2.59343">
        <ele>57</ele>
        <time>2015-08-02T10:17:44.186Z</time>
      </trkpt>
      <trkpt lat="43.21419" lon="2.59351">
        <ele>57.3</ele>
        <time>2015-08-02T10:17:46.233Z</time>
      </trkpt>
      <trkpt lat="43.21421" lon="2.59355">
        <ele>57.5</ele>
        <time>2015-08-02T10:17:47.191Z</time>
      </trkpt>
      <trkpt lat="43.21426" lon="2.59361">
        <ele>57.6</ele>
        <time>2015-08-02T10:17:49.230Z</time>
      </trkpt>
      <trkpt lat="43.21429" lon="2.59365">
        <ele>57.7</ele>
        <time>2015-08-02T10:17:50.185Z</time>
      </trkpt>
      <trkpt lat="43.21435" lon="2.59373">
        <ele>58</ele>
        <time>2015-08-02T10:17:52.237Z</time>
      </trkpt>
      <trkpt lat="43.21437" lon="2.59377">
        <ele>58.3</ele>
        <time>2015-08-02T10:17:53.181Z</time>
      </trkpt>
      <trkpt lat="43.21443" lon="2.59384">
        <ele>58.5</ele>
        <time>2015-08-02T10:17:55.249Z</time>
      </trkpt>
      <trkpt lat="43.21446" lon="2.59387">
        <ele>58.7</ele>
        <time>2015-08-02T10:17:56.202Z</time>
      </trkpt>
      <trkpt lat="43.21452" lon="2.59394">
        <ele>58.6</ele>
        <time>2015-08-02T10:17:58.241Z</time>
      </trkpt>
      <trkpt lat="43.21455" lon="2.59397">
        <ele>58.2</ele>
        <time>2015-08-02T10:17:59.177Z</time>
      </trkpt>
      <trkpt lat="43.2146" lon="2.59404">
        <ele>58.7</ele>
        <time>2015-08-02T10:18:01.233Z</time>
      </trkpt>
      <trkpt lat="43.21463" lon="2.59407">
        <ele>58.7</ele>
        <time>2015-08-02T10:18:02.193Z</time>
      </trkpt>
      <trkpt lat="43.21469" lon="2.59414">
        <ele>58.7</ele>
        <time>2015-08-02T10:18:04.257Z</time>
      </trkpt>
      <trkpt lat="43.21472" lon="2.59418">
        <ele>58.8</ele>
        <time>2015-08-02T10:18:05.190Z</time>
      </trkpt>
      <trkpt lat="43.21478" lon="2.59426">
        <ele>58.9</ele>
        <time>2015-08-02T10:18:07.232Z</time>
      </trkpt>
      <trkpt lat="43.21481" lon="2.59429">
        <ele>59</ele>
        <time>2015-08-02T10:18:08.183Z</time>
      </trkpt>
      <trkpt lat="43.21486" lon="2.59436">
        <ele>59.2</ele>
        <time>2015-08-02T10:18:10.229Z</time>
      </trkpt>
      <trkpt lat="43.21488" lon="2.59439">
        <ele>59.5</ele>
        <time>2015-08-02T10:18:11.181Z</time>
      </trkpt>
      <trkpt lat="43.21492" lon="2.59446">
        <ele>59.8</ele>
        <time>2015-08-02T10:18:13.244Z</time>
      </trkpt>
      <trkpt lat="43.21496" lon="2.59449">
        <ele>60</ele>
        <time>2015-08-02T10:18:14.200Z</time>
      </trkpt>
      <trkpt lat="43.21501" lon="2.59456">
        <ele>60.3</ele>
        <time>2015-08-02T10:18:16.238Z</time>
      </trkpt>
      <trkpt lat="43.21504" lon="2.59459">
        <ele>60.5</ele>
        <time>2015-08-02T10:18:17.178Z</time>
      </trkpt>
      <trkpt lat="43.2151" lon="2.59466">
        <ele>60.8</ele>
        <time>2015-08-02T10:18:19.231Z</time>
      </trkpt>
      <trkpt lat="43.21513" lon="2.5947">
        <ele>60.7</ele>
        <time>2015-08-02T10:18:20.184Z</time>
      </trkpt>
      <trkpt lat="43.21517" lon="2.59474">
        <ele>60.3</ele>
        <time>2015-08-02T10:18:21.246Z</time>
      </trkpt>
      <trkpt lat="43.21521" lon="2.59478">
        <ele>60.2</ele>
        <time>2015-08-02T10:18:22.201Z</time>
      </trkpt>
      <trkpt lat="43.21525" lon="2.59483">
        <ele>60.2</ele>
        <time>2015-08-02T10:18:23.290Z</time>
      </trkpt>
      <trkpt lat="43.21528" lon="2.59487">
        <ele>60.3</ele>
        <time>2015-08-02T10:18:24.577Z</time>
      </trkpt>
      <trkpt lat="43.21534" lon="2.59495">
        <ele>60.8</ele>
        <time>2015-08-02T10:18:26.240Z</time>
      </trkpt>
      <trkpt lat="43.21538" lon="2.59499">
        <ele>60.8</ele>
        <time>2015-08-02T10:18:27.182Z</time>
      </trkpt>
      <trkpt lat="43.21544" lon="2.59506">
        <ele>61.2</ele>
        <time>2015-08-02T10:18:29.230Z</time>
      </trkpt>
      <trkpt lat="43.21547" lon="2.5951">
        <ele>61.3</ele>
        <time>2015-08-02T10:18:30.182Z</time>
      </trkpt>
      <trkpt lat="43.21554" lon="2.59517">
        <ele>61.1</ele>
        <time>2015-08-02T10:18:32.259Z</time>
      </trkpt>
      <trkpt lat="43.21557" lon="2.5952">
        <ele>61.1</ele>
        <time>2015-08-02T10:18:33.182Z</time>
      </trkpt>
      <trkpt lat="43.21563" lon="2.59528">
        <ele>60.9</ele>
        <time>2015-08-02T10:18:35.226Z</time>
      </trkpt>
      <trkpt lat="43.21566" lon="2.59532">
        <ele>61.3</ele>
        <time>2015-08-02T10:18:36.184Z</time>
      </trkpt>
      <trkpt lat="43.21572" lon="2.59539">
        <ele>61.3</ele>
        <time>2015-08-02T10:18:38.228Z</time>
      </trkpt>
      <trkpt lat="43.21575" lon="2.59543">
        <ele>61.6</ele>
        <time>2015-08-02T10:18:39.241Z</time>
      </trkpt>
      <trkpt lat="43.21581" lon="2.59551">
        <ele>62.2</ele>
        <time>2015-08-02T10:18:41.212Z</time>
      </trkpt>
      <trkpt lat="43.21583" lon="2.59554">
        <ele>62.3</ele>
        <time>2015-08-02T10:18:42.182Z</time>
      </trkpt>
      <trkpt lat="43.21588" lon="2.5956">
        <ele>62.3</ele>
        <time>2015-08-02T10:18:44.220Z</time>
      </trkpt>
      <trkpt lat="43.21591" lon="2.59562">
        <ele>62.1</ele>
        <time>2015-08-02T10:18:45.182Z</time>
      </trkpt>
      <trkpt lat="43.21598" lon="2.59568">
        <ele>61.8</ele>
        <time>2015-08-02T10:18:47.214Z</time>
      </trkpt>
      <trkpt lat="43.216" lon="2.59571">
        <ele>61.3</ele>
        <time>2015-08-02T10:18:48.177Z</time>
      </trkpt>
      <trkpt lat="43.21606" lon="2.59577">
        <ele>61.4</ele>
        <time>2015-08-02T10:18:50.233Z</time>
      </trkpt>
      <trkpt lat="43.21608" lon="2.5958">
        <ele>61.2</ele>
        <time>2015-08-02T10:18:51.183Z</time>
      </trkpt>
      <trkpt lat="43.21614" lon="2.59586">
        <ele>60.8</ele>
        <time>2015-08-02T10:18:53.246Z</time>
      </trkpt>
      <trkpt lat="43.21617" lon="2.59589">
        <ele>60.7</ele>
        <time>2015-08-02T10:18:54.203Z</time>
      </trkpt>
      <trkpt lat="43.21623" lon="2.59595">
        <ele>60.1</ele>
        <time>2015-08-02T10:18:56.224Z</time>
      </trkpt>
      <trkpt lat="43.21627" lon="2.59597">
        <ele>59.9</ele>
        <time>2015-08-02T10:18:57.181Z</time>
      </trkpt>
      <trkpt lat="43.21633" lon="2.59603">
        <ele>59.4</ele>
        <time>2015-08-02T10:18:59.220Z</time>
      </trkpt>
      <trkpt lat="43.21635" lon="2.59607">
        <ele>59.5</ele>
        <time>2015-08-02T10:19:00.181Z</time>
      </trkpt>
      <trkpt lat="43.21641" lon="2.59613">
        <ele>58.9</ele>
        <time>2015-08-02T10:19:02.262Z</time>
      </trkpt>
      <trkpt lat="43.21644" lon="2.59616">
        <ele>59</ele>
        <time>2015-08-02T10:19:03.181Z</time>
      </trkpt>
      <trkpt lat="43.21651" lon="2.59623">
        <ele>58.5</ele>
        <time>2015-08-02T10:19:06.220Z</time>
      </trkpt>
      <trkpt lat="43.21654" lon="2.59624">
        <ele>58.2</ele>
        <time>2015-08-02T10:19:07.182Z</time>
      </trkpt>
      <trkpt lat="43.2166" lon="2.59628">
        <ele>58.3</ele>
        <time>2015-08-02T10:19:09.225Z</time>
      </trkpt>
      <trkpt lat="43.21663" lon="2.5963">
        <ele>58.2</ele>
        <time>2015-08-02T10:19:10.180Z</time>
      </trkpt>
      <trkpt lat="43.21668" lon="2.59635">
        <ele>58.4</ele>
        <time>2015-08-02T10:19:12.215Z</time>
      </trkpt>
      <trkpt lat="43.21671" lon="2.59636">
        <ele>58.4</ele>
        <time>2015-08-02T10:19:13.182Z</time>
      </trkpt>
      <trkpt lat="43.21678" lon="2.5964">
        <ele>58.6</ele>
        <time>2015-08-02T10:19:15.224Z</time>
      </trkpt>
      <trkpt lat="43.21682" lon="2.59642">
        <ele>58.5</ele>
        <time>2015-08-02T10:19:16.186Z</time>
      </trkpt>
      <trkpt lat="43.21688" lon="2.59646">
        <ele>59.4</ele>
        <time>2015-08-02T10:19:18.229Z</time>
      </trkpt>
      <trkpt lat="43.21691" lon="2.59648">
        <ele>60</ele>
        <time>2015-08-02T10:19:19.183Z</time>
      </trkpt>
      <trkpt lat="43.21699" lon="2.59652">
        <ele>59.6</ele>
        <time>2015-08-02T10:19:21.213Z</time>
      </trkpt>
      <trkpt lat="43.21702" lon="2.59654">
        <ele>59.3</ele>
        <time>2015-08-02T10:19:22.181Z</time>
      </trkpt>
      <trkpt lat="43.21709" lon="2.59658">
        <ele>58.8</ele>
        <time>2015-08-02T10:19:24.229Z</time>
      </trkpt>
      <trkpt lat="43.21712" lon="2.59659">
        <ele>59.2</ele>
        <time>2015-08-02T10:19:25.182Z</time>
      </trkpt>
      <trkpt lat="43.21719" lon="2.59662">
        <ele>59.4</ele>
        <time>2015-08-02T10:19:27.217Z</time>
      </trkpt>
      <trkpt lat="43.21723" lon="2.59662">
        <ele>59.6</ele>
        <time>2015-08-02T10:19:28.182Z</time>
      </trkpt>
      <trkpt lat="43.2173" lon="2.59663">
        <ele>60.2</ele>
        <time>2015-08-02T10:19:30.228Z</time>
      </trkpt>
      <trkpt lat="43.21734" lon="2.59664">
        <ele>60.5</ele>
        <time>2015-08-02T10:19:31.183Z</time>
      </trkpt>
      <trkpt lat="43.21743" lon="2.59665">
        <ele>60</ele>
        <time>2015-08-02T10:19:34.230Z</time>
      </trkpt>
      <trkpt lat="43.21745" lon="2.59665">
        <ele>60.1</ele>
        <time>2015-08-02T10:19:35.190Z</time>
      </trkpt>
      <trkpt lat="43.21754" lon="2.59667">
        <ele>61.4</ele>
        <time>2015-08-02T10:19:39.223Z</time>
      </trkpt>
      <trkpt lat="43.21757" lon="2.59668">
        <ele>61.5</ele>
        <time>2015-08-02T10:19:40.178Z</time>
      </trkpt>
      <trkpt lat="43.21764" lon="2.59669">
        <ele>62</ele>
        <time>2015-08-02T10:19:43.249Z</time>
      </trkpt>
      <trkpt lat="43.21766" lon="2.59669">
        <ele>61.9</ele>
        <time>2015-08-02T10:19:44.210Z</time>
      </trkpt>
      <trkpt lat="43.21775" lon="2.59669">
        <ele>61.5</ele>
        <time>2015-08-02T10:19:48.280Z</time>
      </trkpt>
      <trkpt lat="43.21776" lon="2.5967">
        <ele>62</ele>
        <time>2015-08-02T10:19:49.181Z</time>
      </trkpt>
      <trkpt lat="43.21785" lon="2.59671">
        <ele>61.5</ele>
        <time>2015-08-02T10:19:53.250Z</time>
      </trkpt>
      <trkpt lat="43.21788" lon="2.59673">
        <ele>61.2</ele>
        <time>2015-08-02T10:19:54.202Z</time>
      </trkpt>
      <trkpt lat="43.21795" lon="2.59674">
        <ele>60.5</ele>
        <time>2015-08-02T10:19:56.229Z</time>
      </trkpt>
      <trkpt lat="43.218" lon="2.59675">
        <ele>60.4</ele>
        <time>2015-08-02T10:19:57.180Z</time>
      </trkpt>
      <trkpt lat="43.21808" lon="2.59677">
        <ele>60.3</ele>
        <time>2015-08-02T10:19:59.265Z</time>
      </trkpt>
      <trkpt lat="43.21813" lon="2.59677">
        <ele>59.9</ele>
        <time>2015-08-02T10:20:00.184Z</time>
      </trkpt>
      <trkpt lat="43.21818" lon="2.59677">
        <ele>59.1</ele>
        <time>2015-08-02T10:20:01.236Z</time>
      </trkpt>
      <trkpt lat="43.21823" lon="2.59677">
        <ele>58.3</ele>
        <time>2015-08-02T10:20:02.202Z</time>
      </trkpt>
      <trkpt lat="43.21828" lon="2.59676">
        <ele>57.7</ele>
        <time>2015-08-02T10:20:03.225Z</time>
      </trkpt>
      <trkpt lat="43.21833" lon="2.59676">
        <ele>57.2</ele>
        <time>2015-08-02T10:20:04.187Z</time>
      </trkpt>
      <trkpt lat="43.21838" lon="2.59676">
        <ele>56</ele>
        <time>2015-08-02T10:20:05.223Z</time>
      </trkpt>
      <trkpt lat="43.21842" lon="2.59676">
        <ele>55.4</ele>
        <time>2015-08-02T10:20:06.183Z</time>
      </trkpt>
      <trkpt lat="43.2185" lon="2.59674">
        <ele>54.2</ele>
        <time>2015-08-02T10:20:08.229Z</time>
      </trkpt>
      <trkpt lat="43.21855" lon="2.59672">
        <ele>53.7</ele>
        <time>2015-08-02T10:20:09.180Z</time>
      </trkpt>
      <trkpt lat="43.21862" lon="2.5967">
        <ele>53.2</ele>
        <time>2015-08-02T10:20:11.262Z</time>
      </trkpt>
      <trkpt lat="43.21865" lon="2.59668">
        <ele>53.3</ele>
        <time>2015-08-02T10:20:12.201Z</time>
      </trkpt>
      <trkpt lat="43.21869" lon="2.59667">
        <ele>53.2</ele>
        <time>2015-08-02T10:20:13.222Z</time>
      </trkpt>
      <trkpt lat="43.21874" lon="2.59665">
        <ele>53</ele>
        <time>2015-08-02T10:20:14.180Z</time>
      </trkpt>
      <trkpt lat="43.21882" lon="2.59663">
        <ele>52.3</ele>
        <time>2015-08-02T10:20:16.218Z</time>
      </trkpt>
      <trkpt lat="43.21886" lon="2.59661">
        <ele>52.2</ele>
        <time>2015-08-02T10:20:17.180Z</time>
      </trkpt>
      <trkpt lat="43.21893" lon="2.59659">
        <ele>51.9</ele>
        <time>2015-08-02T10:20:19.222Z</time>
      </trkpt>
      <trkpt lat="43.21898" lon="2.59658">
        <ele>51.9</ele>
        <time>2015-08-02T10:20:20.244Z</time>
      </trkpt>
      <trkpt lat="43.21906" lon="2.59655">
        <ele>51.7</ele>
        <time>2015-08-02T10:20:22.231Z</time>
      </trkpt>
      <trkpt lat="43.21911" lon="2.59654">
        <ele>51.4</ele>
        <time>2015-08-02T10:20:23.182Z</time>
      </trkpt>
      <trkpt lat="43.21918" lon="2.59653">
        <ele>51.4</ele>
        <time>2015-08-02T10:20:25.228Z</time>
      </trkpt>
      <trkpt lat="43.21922" lon="2.59652">
        <ele>50.9</ele>
        <time>2015-08-02T10:20:26.182Z</time>
      </trkpt>
      <trkpt lat="43.21931" lon="2.59652">
        <ele>50.1</ele>
        <time>2015-08-02T10:20:28.269Z</time>
      </trkpt>
      <trkpt lat="43.21934" lon="2.59653">
        <ele>50.2</ele>
        <time>2015-08-02T10:20:29.189Z</time>
      </trkpt>
      <trkpt lat="43.21941" lon="2.59655">
        <ele>49.6</ele>
        <time>2015-08-02T10:20:31.224Z</time>
      </trkpt>
      <trkpt lat="43.21945" lon="2.59656">
        <ele>49.8</ele>
        <time>2015-08-02T10:20:32.186Z</time>
      </trkpt>
      <trkpt lat="43.21951" lon="2.59658">
        <ele>49.7</ele>
        <time>2015-08-02T10:20:34.229Z</time>
      </trkpt>
      <trkpt lat="43.21954" lon="2.5966">
        <ele>49.7</ele>
        <time>2015-08-02T10:20:35.180Z</time>
      </trkpt>
      <trkpt lat="43.21962" lon="2.59665">
        <ele>49.5</ele>
        <time>2015-08-02T10:20:38.225Z</time>
      </trkpt>
      <trkpt lat="43.21965" lon="2.59667">
        <ele>49.1</ele>
        <time>2015-08-02T10:20:39.194Z</time>
      </trkpt>
      <trkpt lat="43.21971" lon="2.59671">
        <ele>48.9</ele>
        <time>2015-08-02T10:20:41.223Z</time>
      </trkpt>
      <trkpt lat="43.21975" lon="2.59674">
        <ele>49</ele>
        <time>2015-08-02T10:20:42.180Z</time>
      </trkpt>
      <trkpt lat="43.21983" lon="2.5968">
        <ele>48.8</ele>
        <time>2015-08-02T10:20:44.234Z</time>
      </trkpt>
      <trkpt lat="43.21986" lon="2.59683">
        <ele>48.6</ele>
        <time>2015-08-02T10:20:45.180Z</time>
      </trkpt>
      <trkpt lat="43.21992" lon="2.5969">
        <ele>49</ele>
        <time>2015-08-02T10:20:47.249Z</time>
      </trkpt>
      <trkpt lat="43.21996" lon="2.59693">
        <ele>49</ele>
        <time>2015-08-02T10:20:48.200Z</time>
      </trkpt>
      <trkpt lat="43.21999" lon="2.59697">
        <ele>49</ele>
        <time>2015-08-02T10:20:49.249Z</time>
      </trkpt>
      <trkpt lat="43.22003" lon="2.597">
        <ele>48.9</ele>
        <time>2015-08-02T10:20:50.189Z</time>
      </trkpt>
      <trkpt lat="43.22009" lon="2.59707">
        <ele>48.8</ele>
        <time>2015-08-02T10:20:52.229Z</time>
      </trkpt>
      <trkpt lat="43.22012" lon="2.59709">
        <ele>48.9</ele>
        <time>2015-08-02T10:20:53.180Z</time>
      </trkpt>
      <trkpt lat="43.22018" lon="2.59714">
        <ele>48.7</ele>
        <time>2015-08-02T10:20:55.221Z</time>
      </trkpt>
      <trkpt lat="43.22022" lon="2.59716">
        <ele>48.6</ele>
        <time>2015-08-02T10:20:56.185Z</time>
      </trkpt>
      <trkpt lat="43.22029" lon="2.5972">
        <ele>48.6</ele>
        <time>2015-08-02T10:20:58.248Z</time>
      </trkpt>
      <trkpt lat="43.22032" lon="2.59723">
        <ele>48.7</ele>
        <time>2015-08-02T10:20:59.189Z</time>
      </trkpt>
      <trkpt lat="43.22039" lon="2.5973">
        <ele>48.6</ele>
        <time>2015-08-02T10:21:01.224Z</time>
      </trkpt>
      <trkpt lat="43.22043" lon="2.59732">
        <ele>48.5</ele>
        <time>2015-08-02T10:21:02.184Z</time>
      </trkpt>
      <trkpt lat="43.22047" lon="2.59736">
        <ele>48.7</ele>
        <time>2015-08-02T10:21:03.225Z</time>
      </trkpt>
      <trkpt lat="43.22051" lon="2.5974">
        <ele>48.9</ele>
        <time>2015-08-02T10:21:04.180Z</time>
      </trkpt>
      <trkpt lat="43.22057" lon="2.59745">
        <ele>48.8</ele>
        <time>2015-08-02T10:21:06.252Z</time>
      </trkpt>
      <trkpt lat="43.2206" lon="2.59748">
        <ele>48.7</ele>
        <time>2015-08-02T10:21:07.184Z</time>
      </trkpt>
      <trkpt lat="43.22066" lon="2.59752">
        <ele>48.5</ele>
        <time>2015-08-02T10:21:09.224Z</time>
      </trkpt>
      <trkpt lat="43.2207" lon="2.59754">
        <ele>48.6</ele>
        <time>2015-08-02T10:21:10.182Z</time>
      </trkpt>
      <trkpt lat="43.22075" lon="2.59756">
        <ele>48.9</ele>
        <time>2015-08-02T10:21:11.223Z</time>
      </trkpt>
      <trkpt lat="43.22079" lon="2.59759">
        <ele>49</ele>
        <time>2015-08-02T10:21:12.180Z</time>
      </trkpt>
      <trkpt lat="43.22087" lon="2.59763">
        <ele>49.3</ele>
        <time>2015-08-02T10:21:14.227Z</time>
      </trkpt>
      <trkpt lat="43.22091" lon="2.59765">
        <ele>49.2</ele>
        <time>2015-08-02T10:21:15.181Z</time>
      </trkpt>
      <trkpt lat="43.22098" lon="2.59768">
        <ele>49.1</ele>
        <time>2015-08-02T10:21:17.223Z</time>
      </trkpt>
      <trkpt lat="43.22102" lon="2.5977">
        <ele>49.2</ele>
        <time>2015-08-02T10:21:18.186Z</time>
      </trkpt>
      <trkpt lat="43.2211" lon="2.59773">
        <ele>49.2</ele>
        <time>2015-08-02T10:21:20.232Z</time>
      </trkpt>
      <trkpt lat="43.22114" lon="2.59774">
        <ele>49.3</ele>
        <time>2015-08-02T10:21:21.186Z</time>
      </trkpt>
      <trkpt lat="43.22121" lon="2.59777">
        <ele>49.5</ele>
        <time>2015-08-02T10:21:23.221Z</time>
      </trkpt>
      <trkpt lat="43.22125" lon="2.59778">
        <ele>49.6</ele>
        <time>2015-08-02T10:21:24.180Z</time>
      </trkpt>
      <trkpt lat="43.22133" lon="2.59781">
        <ele>50.1</ele>
        <time>2015-08-02T10:21:26.237Z</time>
      </trkpt>
      <trkpt lat="43.22136" lon="2.59783">
        <ele>50.4</ele>
        <time>2015-08-02T10:21:27.200Z</time>
      </trkpt>
      <trkpt lat="43.22144" lon="2.59786">
        <ele>51.1</ele>
        <time>2015-08-02T10:21:29.214Z</time>
      </trkpt>
      <trkpt lat="43.22148" lon="2.59787">
        <ele>51</ele>
        <time>2015-08-02T10:21:30.177Z</time>
      </trkpt>
      <trkpt lat="43.22155" lon="2.59791">
        <ele>51.1</ele>
        <time>2015-08-02T10:21:32.218Z</time>
      </trkpt>
      <trkpt lat="43.22159" lon="2.59793">
        <ele>51.1</ele>
        <time>2015-08-02T10:21:33.179Z</time>
      </trkpt>
      <trkpt lat="43.22165" lon="2.59797">
        <ele>51</ele>
        <time>2015-08-02T10:21:35.221Z</time>
      </trkpt>
      <trkpt lat="43.22168" lon="2.59798">
        <ele>51.5</ele>
        <time>2015-08-02T10:21:36.183Z</time>
      </trkpt>
      <trkpt lat="43.22175" lon="2.59802">
        <ele>51.9</ele>
        <time>2015-08-02T10:21:38.515Z</time>
      </trkpt>
      <trkpt lat="43.22179" lon="2.59804">
        <ele>52.1</ele>
        <time>2015-08-02T10:21:39.180Z</time>
      </trkpt>
      <trkpt lat="43.22186" lon="2.59807">
        <ele>52</ele>
        <time>2015-08-02T10:21:41.236Z</time>
      </trkpt>
      <trkpt lat="43.22189" lon="2.59809">
        <ele>52.1</ele>
        <time>2015-08-02T10:21:42.332Z</time>
      </trkpt>
      <trkpt lat="43.22194" lon="2.59811">
        <ele>52.4</ele>
        <time>2015-08-02T10:21:44.229Z</time>
      </trkpt>
      <trkpt lat="43.22197" lon="2.59812">
        <ele>52.4</ele>
        <time>2015-08-02T10:21:45.182Z</time>
      </trkpt>
      <trkpt lat="43.22203" lon="2.59814">
        <ele>52.7</ele>
        <time>2015-08-02T10:21:47.224Z</time>
      </trkpt>
      <trkpt lat="43.22207" lon="2.59816">
        <ele>52.8</ele>
        <time>2015-08-02T10:21:48.177Z</time>
      </trkpt>
      <trkpt lat="43.22214" lon="2.59818">
        <ele>53.1</ele>
        <time>2015-08-02T10:21:50.229Z</time>
      </trkpt>
      <trkpt lat="43.22218" lon="2.5982">
        <ele>53.2</ele>
        <time>2015-08-02T10:21:51.183Z</time>
      </trkpt>
      <trkpt lat="43.22224" lon="2.59824">
        <ele>53.6</ele>
        <time>2015-08-02T10:21:53.220Z</time>
      </trkpt>
      <trkpt lat="43.22228" lon="2.59825">
        <ele>53.9</ele>
        <time>2015-08-02T10:21:54.182Z</time>
      </trkpt>
      <trkpt lat="43.22234" lon="2.59827">
        <ele>54.1</ele>
        <time>2015-08-02T10:21:56.228Z</time>
      </trkpt>
      <trkpt lat="43.22237" lon="2.59828">
        <ele>54.2</ele>
        <time>2015-08-02T10:21:57.190Z</time>
      </trkpt>
      <trkpt lat="43.22245" lon="2.59831">
        <ele>54.4</ele>
        <time>2015-08-02T10:21:59.220Z</time>
      </trkpt>
      <trkpt lat="43.22249" lon="2.59832">
        <ele>54.6</ele>
        <time>2015-08-02T10:22:00.180Z</time>
      </trkpt>
      <trkpt lat="43.22256" lon="2.59835">
        <ele>54.8</ele>
        <time>2015-08-02T10:22:02.215Z</time>
      </trkpt>
      <trkpt lat="43.22259" lon="2.59837">
        <ele>55</ele>
        <time>2015-08-02T10:22:03.180Z</time>
      </trkpt>
      <trkpt lat="43.22267" lon="2.5984">
        <ele>55.4</ele>
        <time>2015-08-02T10:22:05.212Z</time>
      </trkpt>
      <trkpt lat="43.2227" lon="2.59841">
        <ele>55.7</ele>
        <time>2015-08-02T10:22:06.180Z</time>
      </trkpt>
      <trkpt lat="43.22278" lon="2.59844">
        <ele>56.3</ele>
        <time>2015-08-02T10:22:08.220Z</time>
      </trkpt>
      <trkpt lat="43.22281" lon="2.59845">
        <ele>56.3</ele>
        <time>2015-08-02T10:22:09.189Z</time>
      </trkpt>
      <trkpt lat="43.22288" lon="2.59847">
        <ele>56.6</ele>
        <time>2015-08-02T10:22:11.221Z</time>
      </trkpt>
      <trkpt lat="43.22292" lon="2.59849">
        <ele>56.8</ele>
        <time>2015-08-02T10:22:12.177Z</time>
      </trkpt>
      <trkpt lat="43.223" lon="2.59851">
        <ele>57.4</ele>
        <time>2015-08-02T10:22:14.228Z</time>
      </trkpt>
      <trkpt lat="43.22303" lon="2.59852">
        <ele>57.6</ele>
        <time>2015-08-02T10:22:15.180Z</time>
      </trkpt>
      <trkpt lat="43.22312" lon="2.59854">
        <ele>58.5</ele>
        <time>2015-08-02T10:22:18.229Z</time>
      </trkpt>
      <trkpt lat="43.22315" lon="2.59854">
        <ele>59</ele>
        <time>2015-08-02T10:22:19.186Z</time>
      </trkpt>
      <trkpt lat="43.22321" lon="2.59855">
        <ele>59.9</ele>
        <time>2015-08-02T10:22:21.222Z</time>
      </trkpt>
      <trkpt lat="43.22325" lon="2.59857">
        <ele>60.5</ele>
        <time>2015-08-02T10:22:22.184Z</time>
      </trkpt>
      <trkpt lat="43.22331" lon="2.59859">
        <ele>61.5</ele>
        <time>2015-08-02T10:22:24.294Z</time>
      </trkpt>
      <trkpt lat="43.22334" lon="2.5986">
        <ele>61.6</ele>
        <time>2015-08-02T10:22:25.184Z</time>
      </trkpt>
      <trkpt lat="43.22341" lon="2.59863">
        <ele>61.9</ele>
        <time>2015-08-02T10:22:27.264Z</time>
      </trkpt>
      <trkpt lat="43.22344" lon="2.59864">
        <ele>62.1</ele>
        <time>2015-08-02T10:22:28.182Z</time>
      </trkpt>
      <trkpt lat="43.22351" lon="2.59865">
        <ele>62.4</ele>
        <time>2015-08-02T10:22:30.216Z</time>
      </trkpt>
      <trkpt lat="43.22354" lon="2.59866">
        <ele>62.5</ele>
        <time>2015-08-02T10:22:31.209Z</time>
      </trkpt>
      <trkpt lat="43.22362" lon="2.59867">
        <ele>62.8</ele>
        <time>2015-08-02T10:22:33.212Z</time>
      </trkpt>
      <trkpt lat="43.22365" lon="2.59868">
        <ele>63.1</ele>
        <time>2015-08-02T10:22:34.181Z</time>
      </trkpt>
      <trkpt lat="43.22373" lon="2.59869">
        <ele>63.4</ele>
        <time>2015-08-02T10:22:36.283Z</time>
      </trkpt>
      <trkpt lat="43.22377" lon="2.59869">
        <ele>63.3</ele>
        <time>2015-08-02T10:22:37.193Z</time>
      </trkpt>
      <trkpt lat="43.22385" lon="2.59872">
        <ele>63.1</ele>
        <time>2015-08-02T10:22:39.223Z</time>
      </trkpt>
      <trkpt lat="43.22388" lon="2.59872">
        <ele>63.2</ele>
        <time>2015-08-02T10:22:40.184Z</time>
      </trkpt>
      <trkpt lat="43.22395" lon="2.59873">
        <ele>63.2</ele>
        <time>2015-08-02T10:22:42.230Z</time>
      </trkpt>
      <trkpt lat="43.22399" lon="2.59874">
        <ele>63.9</ele>
        <time>2015-08-02T10:22:43.184Z</time>
      </trkpt>
      <trkpt lat="43.22404" lon="2.59875">
        <ele>63.8</ele>
        <time>2015-08-02T10:22:44.249Z</time>
      </trkpt>
      <trkpt lat="43.22408" lon="2.59877">
        <ele>63.9</ele>
        <time>2015-08-02T10:22:45.190Z</time>
      </trkpt>
      <trkpt lat="43.22413" lon="2.59878">
        <ele>63.7</ele>
        <time>2015-08-02T10:22:46.227Z</time>
      </trkpt>
      <trkpt lat="43.22417" lon="2.59879">
        <ele>63.6</ele>
        <time>2015-08-02T10:22:47.181Z</time>
      </trkpt>
      <trkpt lat="43.22422" lon="2.59881">
        <ele>63.2</ele>
        <time>2015-08-02T10:22:48.226Z</time>
      </trkpt>
      <trkpt lat="43.22426" lon="2.59881">
        <ele>62.1</ele>
        <time>2015-08-02T10:22:49.181Z</time>
      </trkpt>
      <trkpt lat="43.22435" lon="2.59883">
        <ele>61.8</ele>
        <time>2015-08-02T10:22:51.220Z</time>
      </trkpt>
      <trkpt lat="43.22439" lon="2.59884">
        <ele>61.8</ele>
        <time>2015-08-02T10:22:52.181Z</time>
      </trkpt>
      <trkpt lat="43.22448" lon="2.59885">
        <ele>61.3</ele>
        <time>2015-08-02T10:22:54.606Z</time>
      </trkpt>
      <trkpt lat="43.22451" lon="2.59886">
        <ele>60.9</ele>
        <time>2015-08-02T10:22:55.183Z</time>
      </trkpt>
      <trkpt lat="43.2246" lon="2.59888">
        <ele>60.6</ele>
        <time>2015-08-02T10:22:57.223Z</time>
      </trkpt>
      <trkpt lat="43.22463" lon="2.59889">
        <ele>60.3</ele>
        <time>2015-08-02T10:22:58.181Z</time>
      </trkpt>
      <trkpt lat="43.22471" lon="2.59891">
        <ele>60.2</ele>
        <time>2015-08-02T10:23:00.231Z</time>
      </trkpt>
      <trkpt lat="43.22475" lon="2.59892">
        <ele>60.6</ele>
        <time>2015-08-02T10:23:01.183Z</time>
      </trkpt>
      <trkpt lat="43.22482" lon="2.59894">
        <ele>61.4</ele>
        <time>2015-08-02T10:23:03.246Z</time>
      </trkpt>
      <trkpt lat="43.22486" lon="2.59895">
        <ele>61.5</ele>
        <time>2015-08-02T10:23:04.190Z</time>
      </trkpt>
      <trkpt lat="43.22494" lon="2.59897">
        <ele>62.4</ele>
        <time>2015-08-02T10:23:06.240Z</time>
      </trkpt>
      <trkpt lat="43.22498" lon="2.59898">
        <ele>62.8</ele>
        <time>2015-08-02T10:23:07.184Z</time>
      </trkpt>
      <trkpt lat="43.22506" lon="2.59901">
        <ele>61.1</ele>
        <time>2015-08-02T10:23:09.224Z</time>
      </trkpt>
      <trkpt lat="43.2251" lon="2.59902">
        <ele>61.6</ele>
        <time>2015-08-02T10:23:10.186Z</time>
      </trkpt>
      <trkpt lat="43.22518" lon="2.59905">
        <ele>61.7</ele>
        <time>2015-08-02T10:23:12.261Z</time>
      </trkpt>
      <trkpt lat="43.22521" lon="2.59906">
        <ele>61.5</ele>
        <time>2015-08-02T10:23:13.184Z</time>
      </trkpt>
      <trkpt lat="43.22528" lon="2.59909">
        <ele>61.2</ele>
        <time>2015-08-02T10:23:15.224Z</time>
      </trkpt>
      <trkpt lat="43.22532" lon="2.59911">
        <ele>61</ele>
        <time>2015-08-02T10:23:16.194Z</time>
      </trkpt>
      <trkpt lat="43.2254" lon="2.59915">
        <ele>60.6</ele>
        <time>2015-08-02T10:23:18.225Z</time>
      </trkpt>
      <trkpt lat="43.22544" lon="2.59918">
        <ele>60.6</ele>
        <time>2015-08-02T10:23:19.181Z</time>
      </trkpt>
      <trkpt lat="43.22552" lon="2.59923">
        <ele>60.8</ele>
        <time>2015-08-02T10:23:21.227Z</time>
      </trkpt>
      <trkpt lat="43.22556" lon="2.59925">
        <ele>60.9</ele>
        <time>2015-08-02T10:23:22.179Z</time>
      </trkpt>
      <trkpt lat="43.22564" lon="2.59928">
        <ele>60.6</ele>
        <time>2015-08-02T10:23:24.605Z</time>
      </trkpt>
      <trkpt lat="43.22567" lon="2.59931">
        <ele>60.6</ele>
        <time>2015-08-02T10:23:25.183Z</time>
      </trkpt>
      <trkpt lat="43.22574" lon="2.59935">
        <ele>60</ele>
        <time>2015-08-02T10:23:27.225Z</time>
      </trkpt>
      <trkpt lat="43.22578" lon="2.59937">
        <ele>59.5</ele>
        <time>2015-08-02T10:23:28.188Z</time>
      </trkpt>
      <trkpt lat="43.22582" lon="2.59939">
        <ele>59.2</ele>
        <time>2015-08-02T10:23:29.220Z</time>
      </trkpt>
      <trkpt lat="43.22587" lon="2.59941">
        <ele>58.8</ele>
        <time>2015-08-02T10:23:30.188Z</time>
      </trkpt>
      <trkpt lat="43.22591" lon="2.59943">
        <ele>58.6</ele>
        <time>2015-08-02T10:23:31.225Z</time>
      </trkpt>
      <trkpt lat="43.22596" lon="2.59946">
        <ele>58.6</ele>
        <time>2015-08-02T10:23:32.191Z</time>
      </trkpt>
      <trkpt lat="43.22603" lon="2.5995">
        <ele>58.5</ele>
        <time>2015-08-02T10:23:34.230Z</time>
      </trkpt>
      <trkpt lat="43.22606" lon="2.59952">
        <ele>58.6</ele>
        <time>2015-08-02T10:23:35.181Z</time>
      </trkpt>
      <trkpt lat="43.22614" lon="2.59956">
        <ele>58.9</ele>
        <time>2015-08-02T10:23:37.223Z</time>
      </trkpt>
      <trkpt lat="43.22618" lon="2.59958">
        <ele>58.7</ele>
        <time>2015-08-02T10:23:38.189Z</time>
      </trkpt>
      <trkpt lat="43.22626" lon="2.59962">
        <ele>58.6</ele>
        <time>2015-08-02T10:23:40.221Z</time>
      </trkpt>
      <trkpt lat="43.22629" lon="2.59964">
        <ele>58.7</ele>
        <time>2015-08-02T10:23:41.190Z</time>
      </trkpt>
      <trkpt lat="43.22637" lon="2.59968">
        <ele>58.9</ele>
        <time>2015-08-02T10:23:43.220Z</time>
      </trkpt>
      <trkpt lat="43.2264" lon="2.59969">
        <ele>59</ele>
        <time>2015-08-02T10:23:44.186Z</time>
      </trkpt>
      <trkpt lat="43.22646" lon="2.59973">
        <ele>58.8</ele>
        <time>2015-08-02T10:23:46.232Z</time>
      </trkpt>
      <trkpt lat="43.22649" lon="2.59974">
        <ele>58.9</ele>
        <time>2015-08-02T10:23:47.183Z</time>
      </trkpt>
      <trkpt lat="43.22657" lon="2.59977">
        <ele>58.7</ele>
        <time>2015-08-02T10:23:49.391Z</time>
      </trkpt>
      <trkpt lat="43.2266" lon="2.5998">
        <ele>58.8</ele>
        <time>2015-08-02T10:23:50.179Z</time>
      </trkpt>
      <trkpt lat="43.22667" lon="2.59984">
        <ele>59.1</ele>
        <time>2015-08-02T10:23:52.215Z</time>
      </trkpt>
      <trkpt lat="43.2267" lon="2.59985">
        <ele>59.1</ele>
        <time>2015-08-02T10:23:53.177Z</time>
      </trkpt>
      <trkpt lat="43.22677" lon="2.59989">
        <ele>59.4</ele>
        <time>2015-08-02T10:23:55.214Z</time>
      </trkpt>
      <trkpt lat="43.22681" lon="2.59991">
        <ele>59.2</ele>
        <time>2015-08-02T10:23:56.184Z</time>
      </trkpt>
      <trkpt lat="43.22688" lon="2.59994">
        <ele>59.6</ele>
        <time>2015-08-02T10:23:58.224Z</time>
      </trkpt>
      <trkpt lat="43.22691" lon="2.59995">
        <ele>59.5</ele>
        <time>2015-08-02T10:23:59.180Z</time>
      </trkpt>
      <trkpt lat="43.22697" lon="2.59999">
        <ele>60.5</ele>
        <time>2015-08-02T10:24:01.226Z</time>
      </trkpt>
      <trkpt lat="43.227" lon="2.6">
        <ele>60.6</ele>
        <time>2015-08-02T10:24:02.190Z</time>
      </trkpt>
      <trkpt lat="43.22708" lon="2.60003">
        <ele>61.2</ele>
        <time>2015-08-02T10:24:04.238Z</time>
      </trkpt>
      <trkpt lat="43.22711" lon="2.60004">
        <ele>61.1</ele>
        <time>2015-08-02T10:24:05.179Z</time>
      </trkpt>
      <trkpt lat="43.22719" lon="2.60008">
        <ele>61.4</ele>
        <time>2015-08-02T10:24:07.225Z</time>
      </trkpt>
      <trkpt lat="43.22724" lon="2.60009">
        <ele>61.7</ele>
        <time>2015-08-02T10:24:08.179Z</time>
      </trkpt>
      <trkpt lat="43.22731" lon="2.60012">
        <ele>62.1</ele>
        <time>2015-08-02T10:24:10.233Z</time>
      </trkpt>
      <trkpt lat="43.22735" lon="2.60014">
        <ele>62.2</ele>
        <time>2015-08-02T10:24:11.192Z</time>
      </trkpt>
      <trkpt lat="43.22743" lon="2.60016">
        <ele>62.4</ele>
        <time>2015-08-02T10:24:13.225Z</time>
      </trkpt>
      <trkpt lat="43.22747" lon="2.60018">
        <ele>62.6</ele>
        <time>2015-08-02T10:24:14.186Z</time>
      </trkpt>
      <trkpt lat="43.22754" lon="2.60021">
        <ele>63.1</ele>
        <time>2015-08-02T10:24:16.225Z</time>
      </trkpt>
      <trkpt lat="43.22758" lon="2.60022">
        <ele>63.1</ele>
        <time>2015-08-02T10:24:17.178Z</time>
      </trkpt>
      <trkpt lat="43.22766" lon="2.60025">
        <ele>63.8</ele>
        <time>2015-08-02T10:24:19.223Z</time>
      </trkpt>
      <trkpt lat="43.2277" lon="2.60027">
        <ele>63.8</ele>
        <time>2015-08-02T10:24:20.185Z</time>
      </trkpt>
      <trkpt lat="43.22777" lon="2.6003">
        <ele>64.4</ele>
        <time>2015-08-02T10:24:22.231Z</time>
      </trkpt>
      <trkpt lat="43.2278" lon="2.60031">
        <ele>64.6</ele>
        <time>2015-08-02T10:24:23.183Z</time>
      </trkpt>
      <trkpt lat="43.22787" lon="2.60034">
        <ele>64.6</ele>
        <time>2015-08-02T10:24:25.233Z</time>
      </trkpt>
      <trkpt lat="43.2279" lon="2.60035">
        <ele>64.6</ele>
        <time>2015-08-02T10:24:26.188Z</time>
      </trkpt>
      <trkpt lat="43.22798" lon="2.60038">
        <ele>65.3</ele>
        <time>2015-08-02T10:24:28.262Z</time>
      </trkpt>
      <trkpt lat="43.22802" lon="2.60039">
        <ele>65.5</ele>
        <time>2015-08-02T10:24:29.179Z</time>
      </trkpt>
      <trkpt lat="43.2281" lon="2.60041">
        <ele>66</ele>
        <time>2015-08-02T10:24:31.225Z</time>
      </trkpt>
      <trkpt lat="43.22814" lon="2.60042">
        <ele>66.3</ele>
        <time>2015-08-02T10:24:32.187Z</time>
      </trkpt>
      <trkpt lat="43.2282" lon="2.60046">
        <ele>67</ele>
        <time>2015-08-02T10:24:34.232Z</time>
      </trkpt>
      <trkpt lat="43.22824" lon="2.60047">
        <ele>67.4</ele>
        <time>2015-08-02T10:24:35.192Z</time>
      </trkpt>
      <trkpt lat="43.2283" lon="2.60049">
        <ele>68</ele>
        <time>2015-08-02T10:24:37.222Z</time>
      </trkpt>
      <trkpt lat="43.22834" lon="2.6005">
        <ele>67.9</ele>
        <time>2015-08-02T10:24:38.179Z</time>
      </trkpt>
      <trkpt lat="43.22839" lon="2.60052">
        <ele>68.3</ele>
        <time>2015-08-02T10:24:40.233Z</time>
      </trkpt>
      <trkpt lat="43.22843" lon="2.60054">
        <ele>68.2</ele>
        <time>2015-08-02T10:24:41.196Z</time>
      </trkpt>
      <trkpt lat="43.22851" lon="2.60056">
        <ele>67.8</ele>
        <time>2015-08-02T10:24:43.226Z</time>
      </trkpt>
      <trkpt lat="43.22854" lon="2.60058">
        <ele>67.9</ele>
        <time>2015-08-02T10:24:44.204Z</time>
      </trkpt>
      <trkpt lat="43.22861" lon="2.60062">
        <ele>67.8</ele>
        <time>2015-08-02T10:24:47.222Z</time>
      </trkpt>
      <trkpt lat="43.22865" lon="2.60063">
        <ele>67.4</ele>
        <time>2015-08-02T10:24:48.179Z</time>
      </trkpt>
      <trkpt lat="43.22872" lon="2.60066">
        <ele>66.3</ele>
        <time>2015-08-02T10:24:50.229Z</time>
      </trkpt>
      <trkpt lat="43.22876" lon="2.60069">
        <ele>66.2</ele>
        <time>2015-08-02T10:24:51.182Z</time>
      </trkpt>
      <trkpt lat="43.22883" lon="2.60072">
        <ele>66.2</ele>
        <time>2015-08-02T10:24:53.222Z</time>
      </trkpt>
      <trkpt lat="43.22887" lon="2.60074">
        <ele>66.2</ele>
        <time>2015-08-02T10:24:54.182Z</time>
      </trkpt>
      <trkpt lat="43.22895" lon="2.60079">
        <ele>66.3</ele>
        <time>2015-08-02T10:24:57.225Z</time>
      </trkpt>
      <trkpt lat="43.22898" lon="2.6008">
        <ele>66.1</ele>
        <time>2015-08-02T10:24:58.187Z</time>
      </trkpt>
      <trkpt lat="43.22906" lon="2.60084">
        <ele>66</ele>
        <time>2015-08-02T10:25:00.220Z</time>
      </trkpt>
      <trkpt lat="43.22909" lon="2.60087">
        <ele>66</ele>
        <time>2015-08-02T10:25:01.185Z</time>
      </trkpt>
      <trkpt lat="43.22914" lon="2.60094">
        <ele>65.8</ele>
        <time>2015-08-02T10:25:04.265Z</time>
      </trkpt>
      <trkpt lat="43.22916" lon="2.60097">
        <ele>65.8</ele>
        <time>2015-08-02T10:25:05.191Z</time>
      </trkpt>
      <trkpt lat="43.22922" lon="2.60103">
        <ele>65.5</ele>
        <time>2015-08-02T10:25:07.227Z</time>
      </trkpt>
      <trkpt lat="43.22924" lon="2.60106">
        <ele>65.4</ele>
        <time>2015-08-02T10:25:08.183Z</time>
      </trkpt>
      <trkpt lat="43.22928" lon="2.60113">
        <ele>65.3</ele>
        <time>2015-08-02T10:25:10.223Z</time>
      </trkpt>
      <trkpt lat="43.22929" lon="2.60117">
        <ele>65.2</ele>
        <time>2015-08-02T10:25:11.184Z</time>
      </trkpt>
      <trkpt lat="43.22932" lon="2.60124">
        <ele>65.1</ele>
        <time>2015-08-02T10:25:13.217Z</time>
      </trkpt>
      <trkpt lat="43.22933" lon="2.60131">
        <ele>65.2</ele>
        <time>2015-08-02T10:25:14.182Z</time>
      </trkpt>
      <trkpt lat="43.22936" lon="2.60135">
        <ele>65.4</ele>
        <time>2015-08-02T10:25:15.339Z</time>
      </trkpt>
      <trkpt lat="43.22939" lon="2.60141">
        <ele>65.5</ele>
        <time>2015-08-02T10:25:16.182Z</time>
      </trkpt>
      <trkpt lat="43.22942" lon="2.6015">
        <ele>66</ele>
        <time>2015-08-02T10:25:18.218Z</time>
      </trkpt>
      <trkpt lat="43.22942" lon="2.60155">
        <ele>66.3</ele>
        <time>2015-08-02T10:25:19.192Z</time>
      </trkpt>
      <trkpt lat="43.22947" lon="2.60162">
        <ele>67.1</ele>
        <time>2015-08-02T10:25:20.264Z</time>
      </trkpt>
      <trkpt lat="43.22948" lon="2.60167">
        <ele>67.6</ele>
        <time>2015-08-02T10:25:21.304Z</time>
      </trkpt>
      <trkpt lat="43.22951" lon="2.60176">
        <ele>68.2</ele>
        <time>2015-08-02T10:25:23.214Z</time>
      </trkpt>
      <trkpt lat="43.22951" lon="2.60181">
        <ele>68.2</ele>
        <time>2015-08-02T10:25:24.177Z</time>
      </trkpt>
      <trkpt lat="43.22951" lon="2.60191">
        <ele>68.4</ele>
        <time>2015-08-02T10:25:26.221Z</time>
      </trkpt>
      <trkpt lat="43.2295" lon="2.60196">
        <ele>68.3</ele>
        <time>2015-08-02T10:25:27.177Z</time>
      </trkpt>
      <trkpt lat="43.2295" lon="2.60204">
        <ele>67.9</ele>
        <time>2015-08-02T10:25:29.222Z</time>
      </trkpt>
      <trkpt lat="43.22949" lon="2.60209">
        <ele>67.9</ele>
        <time>2015-08-02T10:25:30.180Z</time>
      </trkpt>
      <trkpt lat="43.22948" lon="2.60219">
        <ele>67.7</ele>
        <time>2015-08-02T10:25:32.220Z</time>
      </trkpt>
      <trkpt lat="43.22946" lon="2.60226">
        <ele>67.4</ele>
        <time>2015-08-02T10:25:33.184Z</time>
      </trkpt>
      <trkpt lat="43.22945" lon="2.60232">
        <ele>67</ele>
        <time>2015-08-02T10:25:34.231Z</time>
      </trkpt>
      <trkpt lat="43.22944" lon="2.60238">
        <ele>67.1</ele>
        <time>2015-08-02T10:25:35.191Z</time>
      </trkpt>
      <trkpt lat="43.22943" lon="2.60248">
        <ele>67.2</ele>
        <time>2015-08-02T10:25:37.253Z</time>
      </trkpt>
      <trkpt lat="43.22942" lon="2.60252">
        <ele>66.8</ele>
        <time>2015-08-02T10:25:38.202Z</time>
      </trkpt>
      <trkpt lat="43.22944" lon="2.60262">
        <ele>66.3</ele>
        <time>2015-08-02T10:25:40.254Z</time>
      </trkpt>
      <trkpt lat="43.22945" lon="2.60266">
        <ele>66.3</ele>
        <time>2015-08-02T10:25:41.181Z</time>
      </trkpt>
      <trkpt lat="43.22944" lon="2.60276">
        <ele>65.8</ele>
        <time>2015-08-02T10:25:43.238Z</time>
      </trkpt>
      <trkpt lat="43.22944" lon="2.60281">
        <ele>65.6</ele>
        <time>2015-08-02T10:25:44.185Z</time>
      </trkpt>
      <trkpt lat="43.22944" lon="2.6029">
        <ele>65.4</ele>
        <time>2015-08-02T10:25:46.221Z</time>
      </trkpt>
      <trkpt lat="43.22943" lon="2.60295">
        <ele>65</ele>
        <time>2015-08-02T10:25:47.180Z</time>
      </trkpt>
      <trkpt lat="43.22941" lon="2.60304">
        <ele>64.4</ele>
        <time>2015-08-02T10:25:49.226Z</time>
      </trkpt>
      <trkpt lat="43.2294" lon="2.60309">
        <ele>64.3</ele>
        <time>2015-08-02T10:25:50.184Z</time>
      </trkpt>
      <trkpt lat="43.22938" lon="2.6032">
        <ele>64.4</ele>
        <time>2015-08-02T10:25:52.270Z</time>
      </trkpt>
      <trkpt lat="43.22938" lon="2.60326">
        <ele>64.6</ele>
        <time>2015-08-02T10:25:53.183Z</time>
      </trkpt>
      <trkpt lat="43.22938" lon="2.60337">
        <ele>64.5</ele>
        <time>2015-08-02T10:25:55.237Z</time>
      </trkpt>
      <trkpt lat="43.22937" lon="2.60342">
        <ele>64.7</ele>
        <time>2015-08-02T10:25:56.180Z</time>
      </trkpt>
      <trkpt lat="43.22936" lon="2.60354">
        <ele>64.3</ele>
        <time>2015-08-02T10:25:58.224Z</time>
      </trkpt>
      <trkpt lat="43.22936" lon="2.60359">
        <ele>64.2</ele>
        <time>2015-08-02T10:25:59.186Z</time>
      </trkpt>
      <trkpt lat="43.22935" lon="2.60369">
        <ele>64.4</ele>
        <time>2015-08-02T10:26:01.225Z</time>
      </trkpt>
      <trkpt lat="43.22935" lon="2.60373">
        <ele>64.5</ele>
        <time>2015-08-02T10:26:02.180Z</time>
      </trkpt>
      <trkpt lat="43.22934" lon="2.60381">
        <ele>64.8</ele>
        <time>2015-08-02T10:26:04.231Z</time>
      </trkpt>
      <trkpt lat="43.22937" lon="2.60385">
        <ele>65.2</ele>
        <time>2015-08-02T10:26:05.180Z</time>
      </trkpt>
      <trkpt lat="43.22939" lon="2.60397">
        <ele>65.8</ele>
        <time>2015-08-02T10:26:08.232Z</time>
      </trkpt>
      <trkpt lat="43.22939" lon="2.60401">
        <ele>66.1</ele>
        <time>2015-08-02T10:26:09.181Z</time>
      </trkpt>
      <trkpt lat="43.22942" lon="2.60412">
        <ele>66.6</ele>
        <time>2015-08-02T10:26:12.227Z</time>
      </trkpt>
      <trkpt lat="43.22942" lon="2.60416">
        <ele>66.7</ele>
        <time>2015-08-02T10:26:13.183Z</time>
      </trkpt>
      <trkpt lat="43.22942" lon="2.60425">
        <ele>67.2</ele>
        <time>2015-08-02T10:26:16.230Z</time>
      </trkpt>
      <trkpt lat="43.22943" lon="2.60428">
        <ele>67.4</ele>
        <time>2015-08-02T10:26:17.181Z</time>
      </trkpt>
      <trkpt lat="43.22937" lon="2.60436">
        <ele>68.2</ele>
        <time>2015-08-02T10:26:21.290Z</time>
      </trkpt>
      <trkpt lat="43.22937" lon="2.60439">
        <ele>68.4</ele>
        <time>2015-08-02T10:26:22.181Z</time>
      </trkpt>
      <trkpt lat="43.22939" lon="2.60451">
        <ele>68.9</ele>
        <time>2015-08-02T10:26:25.214Z</time>
      </trkpt>
      <trkpt lat="43.2294" lon="2.60455">
        <ele>69.1</ele>
        <time>2015-08-02T10:26:26.184Z</time>
      </trkpt>
      <trkpt lat="43.22941" lon="2.60465">
        <ele>69.5</ele>
        <time>2015-08-02T10:26:29.267Z</time>
      </trkpt>
      <trkpt lat="43.22941" lon="2.60469">
        <ele>69.6</ele>
        <time>2015-08-02T10:26:30.182Z</time>
      </trkpt>
      <trkpt lat="43.22942" lon="2.60476">
        <ele>69.8</ele>
        <time>2015-08-02T10:26:31.225Z</time>
      </trkpt>
      <trkpt lat="43.22942" lon="2.60482">
        <ele>69.8</ele>
        <time>2015-08-02T10:26:32.177Z</time>
      </trkpt>
      <trkpt lat="43.22943" lon="2.60493">
        <ele>70.1</ele>
        <time>2015-08-02T10:26:35.226Z</time>
      </trkpt>
      <trkpt lat="43.22941" lon="2.60499">
        <ele>70.1</ele>
        <time>2015-08-02T10:26:36.187Z</time>
      </trkpt>
      <trkpt lat="43.22939" lon="2.60505">
        <ele>69.7</ele>
        <time>2015-08-02T10:26:37.285Z</time>
      </trkpt>
      <trkpt lat="43.22939" lon="2.60512">
        <ele>69.2</ele>
        <time>2015-08-02T10:26:38.180Z</time>
      </trkpt>
      <trkpt lat="43.22943" lon="2.60517">
        <ele>68.5</ele>
        <time>2015-08-02T10:26:39.225Z</time>
      </trkpt>
      <trkpt lat="43.22947" lon="2.60521">
        <ele>67.2</ele>
        <time>2015-08-02T10:26:40.178Z</time>
      </trkpt>
      <trkpt lat="43.22951" lon="2.60525">
        <ele>66.4</ele>
        <time>2015-08-02T10:26:41.222Z</time>
      </trkpt>
      <trkpt lat="43.22957" lon="2.60531">
        <ele>67.6</ele>
        <time>2015-08-02T10:26:42.185Z</time>
      </trkpt>
      <trkpt lat="43.2296" lon="2.6054">
        <ele>68</ele>
        <time>2015-08-02T10:26:44.249Z</time>
      </trkpt>
      <trkpt lat="43.2296" lon="2.60543">
        <ele>68</ele>
        <time>2015-08-02T10:26:45.191Z</time>
      </trkpt>
      <trkpt lat="43.22963" lon="2.60551">
        <ele>67.8</ele>
        <time>2015-08-02T10:26:48.223Z</time>
      </trkpt>
      <trkpt lat="43.22962" lon="2.60555">
        <ele>67.6</ele>
        <time>2015-08-02T10:26:49.181Z</time>
      </trkpt>
      <trkpt lat="43.22963" lon="2.60557">
        <ele>67.5</ele>
        <time>2015-08-02T10:26:50.221Z</time>
      </trkpt>
      <trkpt lat="43.22964" lon="2.60559">
        <ele>67.7</ele>
        <time>2015-08-02T10:26:51.193Z</time>
      </trkpt>
      <trkpt lat="43.22967" lon="2.6056">
        <ele>67.7</ele>
        <time>2015-08-02T10:27:21.217Z</time>
      </trkpt>
      <trkpt lat="43.22972" lon="2.6057">
        <ele>63.8</ele>
        <time>2015-08-02T10:27:22.179Z</time>
      </trkpt>
      <trkpt lat="43.22972" lon="2.6057">
        <ele>63.8</ele>
        <time>2015-08-02T10:27:22.222Z</time>
      </trkpt>
      <trkpt lat="43.22976" lon="2.6056">
        <ele>62.8</ele>
        <time>2015-08-02T10:27:45.213Z</time>
      </trkpt>
      <trkpt lat="43.22976" lon="2.6056">
        <ele>62.8</ele>
        <time>2015-08-02T10:27:46.178Z</time>
      </trkpt>
      <trkpt lat="43.22978" lon="2.60558">
        <ele>62.5</ele>
        <time>2015-08-02T10:28:31.274Z</time>
      </trkpt>
      <trkpt lat="43.22985" lon="2.60565">
        <ele>60.6</ele>
        <time>2015-08-02T10:28:32.201Z</time>
      </trkpt>
      <trkpt lat="43.22977" lon="2.60562">
        <ele>61.8</ele>
        <time>2015-08-02T10:28:55.245Z</time>
      </trkpt>
      <trkpt lat="43.22976" lon="2.60562">
        <ele>61.9</ele>
        <time>2015-08-02T10:28:56.185Z</time>
      </trkpt>
      <trkpt lat="43.22975" lon="2.60564">
        <ele>65.2</ele>
        <time>2015-08-02T10:30:26.357Z</time>
      </trkpt>
      <trkpt lat="43.22968" lon="2.60554">
        <ele>62.9</ele>
        <time>2015-08-02T10:30:27.186Z</time>
      </trkpt>
      <trkpt lat="43.22968" lon="2.60554">
        <ele>62.9</ele>
        <time>2015-08-02T10:30:27.236Z</time>
      </trkpt>
      <trkpt lat="43.22967" lon="2.60549">
        <ele>62.4</ele>
        <time>2015-08-02T10:30:36.214Z</time>
      </trkpt>
      <trkpt lat="43.22967" lon="2.60548">
        <ele>62.3</ele>
        <time>2015-08-02T10:30:37.189Z</time>
      </trkpt>
      <trkpt lat="43.22968" lon="2.60559">
        <ele>61.8</ele>
        <time>2015-08-02T10:30:58.702Z</time>
      </trkpt>
      <trkpt lat="43.22968" lon="2.60561">
        <ele>61.8</ele>
        <time>2015-08-02T10:30:59.640Z</time>
      </trkpt>
      <trkpt lat="43.22973" lon="2.60569">
        <ele>61.4</ele>
        <time>2015-08-02T10:31:15.684Z</time>
      </trkpt>
      <trkpt lat="43.22974" lon="2.6057">
        <ele>61.3</ele>
        <time>2015-08-02T10:31:16.633Z</time>
      </trkpt>
      <trkpt lat="43.22976" lon="2.60563">
        <ele>62</ele>
        <time>2015-08-02T10:32:52.686Z</time>
      </trkpt>
      <trkpt lat="43.2297" lon="2.60554">
        <ele>65</ele>
        <time>2015-08-02T10:32:53.637Z</time>
      </trkpt>
      <trkpt lat="43.2297" lon="2.60554">
        <ele>65</ele>
        <time>2015-08-02T10:32:53.685Z</time>
      </trkpt>
      <trkpt lat="43.22973" lon="2.60564">
        <ele>63.8</ele>
        <time>2015-08-02T10:46:42.677Z</time>
      </trkpt>
      <trkpt lat="43.22981" lon="2.6057">
        <ele>57.1</ele>
        <time>2015-08-02T10:46:43.640Z</time>
      </trkpt>
      <trkpt lat="43.22981" lon="2.6057">
        <ele>57.1</ele>
        <time>2015-08-02T10:46:43.689Z</time>
      </trkpt>
      <trkpt lat="43.22981" lon="2.6057">
        <ele>57.2</ele>
        <time>2015-08-02T10:47:27.754Z</time>
      </trkpt>
      <trkpt lat="43.22974" lon="2.60562">
        <ele>58.7</ele>
        <time>2015-08-02T10:47:28.636Z</time>
      </trkpt>
      <trkpt lat="43.22974" lon="2.60562">
        <ele>58.7</ele>
        <time>2015-08-02T10:47:28.687Z</time>
      </trkpt>
      <trkpt lat="43.22979" lon="2.60567">
        <ele>63.2</ele>
        <time>2015-08-02T10:50:38.666Z</time>
      </trkpt>
      <trkpt lat="43.2298" lon="2.60567">
        <ele>63.2</ele>
        <time>2015-08-02T10:50:39.633Z</time>
      </trkpt>
      <trkpt lat="43.22971" lon="2.60566">
        <ele>64.9</ele>
        <time>2015-08-02T10:52:24.974Z</time>
      </trkpt>
      <trkpt lat="43.2297" lon="2.60567">
        <ele>64.9</ele>
        <time>2015-08-02T10:52:25.647Z</time>
      </trkpt>
      <trkpt lat="43.2297" lon="2.60567">
        <ele>64.9</ele>
        <time>2015-08-02T10:53:15.674Z</time>
      </trkpt>
      <trkpt lat="43.22979" lon="2.60562">
        <ele>64.8</ele>
        <time>2015-08-02T10:53:16.638Z</time>
      </trkpt>
      <trkpt lat="43.22973" lon="2.60565">
        <ele>67</ele>
        <time>2015-08-02T10:54:57.022Z</time>
      </trkpt>
      <trkpt lat="43.22969" lon="2.60561">
        <ele>67.1</ele>
        <time>2015-08-02T10:54:57.637Z</time>
      </trkpt>
      <trkpt lat="43.2297" lon="2.60563">
        <ele>66.6</ele>
        <time>2015-08-02T10:55:21.673Z</time>
      </trkpt>
      <trkpt lat="43.22978" lon="2.60565">
        <ele>66.5</ele>
        <time>2015-08-02T10:55:22.636Z</time>
      </trkpt>
      <trkpt lat="43.22979" lon="2.60566">
        <ele>66.4</ele>
        <time>2015-08-02T11:12:57.699Z</time>
      </trkpt>
      <trkpt lat="43.22973" lon="2.60558">
        <ele>68.1</ele>
        <time>2015-08-02T11:12:58.646Z</time>
      </trkpt>
      <trkpt lat="43.22978" lon="2.60566">
        <ele>61.2</ele>
        <time>2015-08-02T11:17:07.678Z</time>
      </trkpt>
      <trkpt lat="43.22978" lon="2.60569">
        <ele>60.9</ele>
        <time>2015-08-02T11:17:08.636Z</time>
      </trkpt>
      <trkpt lat="43.22979" lon="2.6058">
        <ele>58.7</ele>
        <time>2015-08-02T11:17:26.697Z</time>
      </trkpt>
      <trkpt lat="43.22979" lon="2.60582">
        <ele>58.6</ele>
        <time>2015-08-02T11:17:27.645Z</time>
      </trkpt>
      <trkpt lat="43.22982" lon="2.60593">
        <ele>57.6</ele>
        <time>2015-08-02T11:17:38.675Z</time>
      </trkpt>
      <trkpt lat="43.22983" lon="2.60594">
        <ele>57.5</ele>
        <time>2015-08-02T11:17:39.637Z</time>
      </trkpt>
      <trkpt lat="43.22985" lon="2.60605">
        <ele>56.7</ele>
        <time>2015-08-02T11:17:45.674Z</time>
      </trkpt>
      <trkpt lat="43.22986" lon="2.60607">
        <ele>56.7</ele>
        <time>2015-08-02T11:17:46.835Z</time>
      </trkpt>
      <trkpt lat="43.22992" lon="2.60615">
        <ele>56.9</ele>
        <time>2015-08-02T11:17:51.728Z</time>
      </trkpt>
      <trkpt lat="43.22993" lon="2.60616">
        <ele>57</ele>
        <time>2015-08-02T11:17:52.640Z</time>
      </trkpt>
      <trkpt lat="43.22993" lon="2.60628">
        <ele>56.3</ele>
        <time>2015-08-02T11:17:59.832Z</time>
      </trkpt>
      <trkpt lat="43.22992" lon="2.60629">
        <ele>56.3</ele>
        <time>2015-08-02T11:18:00.636Z</time>
      </trkpt>
      <trkpt lat="43.22983" lon="2.60631">
        <ele>55</ele>
        <time>2015-08-02T11:18:05.672Z</time>
      </trkpt>
      <trkpt lat="43.22981" lon="2.60631">
        <ele>54.9</ele>
        <time>2015-08-02T11:18:06.698Z</time>
      </trkpt>
      <trkpt lat="43.22974" lon="2.60633">
        <ele>54.4</ele>
        <time>2015-08-02T11:18:09.692Z</time>
      </trkpt>
      <trkpt lat="43.22971" lon="2.60634">
        <ele>54.3</ele>
        <time>2015-08-02T11:18:10.648Z</time>
      </trkpt>
      <trkpt lat="43.22963" lon="2.60629">
        <ele>54.3</ele>
        <time>2015-08-02T11:18:18.701Z</time>
      </trkpt>
      <trkpt lat="43.22963" lon="2.60627">
        <ele>54.4</ele>
        <time>2015-08-02T11:18:19.647Z</time>
      </trkpt>
      <trkpt lat="43.2296" lon="2.60616">
        <ele>54.6</ele>
        <time>2015-08-02T11:18:25.678Z</time>
      </trkpt>
      <trkpt lat="43.2296" lon="2.60614">
        <ele>54.7</ele>
        <time>2015-08-02T11:18:26.638Z</time>
      </trkpt>
      <trkpt lat="43.22966" lon="2.60619">
        <ele>56</ele>
        <time>2015-08-02T11:18:57.667Z</time>
      </trkpt>
      <trkpt lat="43.22967" lon="2.60621">
        <ele>56.2</ele>
        <time>2015-08-02T11:18:58.637Z</time>
      </trkpt>
      <trkpt lat="43.22963" lon="2.60632">
        <ele>57.2</ele>
        <time>2015-08-02T11:19:29.682Z</time>
      </trkpt>
      <trkpt lat="43.22963" lon="2.60633">
        <ele>57.2</ele>
        <time>2015-08-02T11:19:30.639Z</time>
      </trkpt>
      <trkpt lat="43.22968" lon="2.60643">
        <ele>57.1</ele>
        <time>2015-08-02T11:19:39.674Z</time>
      </trkpt>
      <trkpt lat="43.22968" lon="2.60645">
        <ele>57.1</ele>
        <time>2015-08-02T11:19:40.635Z</time>
      </trkpt>
      <trkpt lat="43.22972" lon="2.60654">
        <ele>57.1</ele>
        <time>2015-08-02T11:20:24.679Z</time>
      </trkpt>
      <trkpt lat="43.22978" lon="2.60661">
        <ele>59.4</ele>
        <time>2015-08-02T11:20:25.639Z</time>
      </trkpt>
      <trkpt lat="43.2298" lon="2.60671">
        <ele>59.2</ele>
        <time>2015-08-02T11:20:30.673Z</time>
      </trkpt>
      <trkpt lat="43.22981" lon="2.60674">
        <ele>59</ele>
        <time>2015-08-02T11:20:31.640Z</time>
      </trkpt>
      <trkpt lat="43.22981" lon="2.60684">
        <ele>58.7</ele>
        <time>2015-08-02T11:20:34.698Z</time>
      </trkpt>
      <trkpt lat="43.22981" lon="2.60687">
        <ele>58.1</ele>
        <time>2015-08-02T11:20:35.649Z</time>
      </trkpt>
      <trkpt lat="43.22982" lon="2.60699">
        <ele>57.3</ele>
        <time>2015-08-02T11:20:39.679Z</time>
      </trkpt>
      <trkpt lat="43.22983" lon="2.60702">
        <ele>56.8</ele>
        <time>2015-08-02T11:20:40.635Z</time>
      </trkpt>
      <trkpt lat="43.22984" lon="2.60711">
        <ele>55.7</ele>
        <time>2015-08-02T11:20:43.701Z</time>
      </trkpt>
      <trkpt lat="43.22984" lon="2.60714">
        <ele>55.5</ele>
        <time>2015-08-02T11:20:44.646Z</time>
      </trkpt>
      <trkpt lat="43.22985" lon="2.60724">
        <ele>55</ele>
        <time>2015-08-02T11:20:47.703Z</time>
      </trkpt>
      <trkpt lat="43.22985" lon="2.60727">
        <ele>54.9</ele>
        <time>2015-08-02T11:20:48.647Z</time>
      </trkpt>
      <trkpt lat="43.22986" lon="2.60737">
        <ele>55</ele>
        <time>2015-08-02T11:20:52.012Z</time>
      </trkpt>
      <trkpt lat="43.22987" lon="2.6074">
        <ele>55.9</ele>
        <time>2015-08-02T11:20:52.638Z</time>
      </trkpt>
      <trkpt lat="43.22987" lon="2.60751">
        <ele>56.2</ele>
        <time>2015-08-02T11:20:55.716Z</time>
      </trkpt>
      <trkpt lat="43.22987" lon="2.60754">
        <ele>56.2</ele>
        <time>2015-08-02T11:20:56.646Z</time>
      </trkpt>
      <trkpt lat="43.22986" lon="2.60766">
        <ele>55.4</ele>
        <time>2015-08-02T11:21:00.672Z</time>
      </trkpt>
      <trkpt lat="43.22986" lon="2.60769">
        <ele>55.4</ele>
        <time>2015-08-02T11:21:01.640Z</time>
      </trkpt>
      <trkpt lat="43.22984" lon="2.60778">
        <ele>55.8</ele>
        <time>2015-08-02T11:21:04.683Z</time>
      </trkpt>
      <trkpt lat="43.22984" lon="2.60782">
        <ele>56.5</ele>
        <time>2015-08-02T11:21:05.637Z</time>
      </trkpt>
      <trkpt lat="43.22982" lon="2.60794">
        <ele>56.7</ele>
        <time>2015-08-02T11:21:08.680Z</time>
      </trkpt>
      <trkpt lat="43.22982" lon="2.60797">
        <ele>56</ele>
        <time>2015-08-02T11:21:09.639Z</time>
      </trkpt>
      <trkpt lat="43.2298" lon="2.60806">
        <ele>55.9</ele>
        <time>2015-08-02T11:21:11.702Z</time>
      </trkpt>
      <trkpt lat="43.2298" lon="2.6081">
        <ele>55.9</ele>
        <time>2015-08-02T11:21:12.646Z</time>
      </trkpt>
      <trkpt lat="43.2298" lon="2.60818">
        <ele>55.3</ele>
        <time>2015-08-02T11:21:14.679Z</time>
      </trkpt>
      <trkpt lat="43.22981" lon="2.60822">
        <ele>55.3</ele>
        <time>2015-08-02T11:21:15.636Z</time>
      </trkpt>
      <trkpt lat="43.22983" lon="2.60833">
        <ele>55.2</ele>
        <time>2015-08-02T11:21:18.681Z</time>
      </trkpt>
      <trkpt lat="43.22985" lon="2.60837">
        <ele>55.1</ele>
        <time>2015-08-02T11:21:19.651Z</time>
      </trkpt>
      <trkpt lat="43.2299" lon="2.60846">
        <ele>55</ele>
        <time>2015-08-02T11:21:22.682Z</time>
      </trkpt>
      <trkpt lat="43.22992" lon="2.60849">
        <ele>54.9</ele>
        <time>2015-08-02T11:21:23.639Z</time>
      </trkpt>
      <trkpt lat="43.22998" lon="2.60856">
        <ele>55</ele>
        <time>2015-08-02T11:21:26.696Z</time>
      </trkpt>
      <trkpt lat="43.23" lon="2.60859">
        <ele>55.1</ele>
        <time>2015-08-02T11:21:27.648Z</time>
      </trkpt>
      <trkpt lat="43.23007" lon="2.60865">
        <ele>54.8</ele>
        <time>2015-08-02T11:21:30.682Z</time>
      </trkpt>
      <trkpt lat="43.2301" lon="2.60866">
        <ele>54.7</ele>
        <time>2015-08-02T11:21:31.640Z</time>
      </trkpt>
      <trkpt lat="43.23017" lon="2.6087">
        <ele>54.7</ele>
        <time>2015-08-02T11:21:34.702Z</time>
      </trkpt>
      <trkpt lat="43.23019" lon="2.6087">
        <ele>54.7</ele>
        <time>2015-08-02T11:21:35.650Z</time>
      </trkpt>
      <trkpt lat="43.23027" lon="2.6087">
        <ele>55.1</ele>
        <time>2015-08-02T11:21:38.693Z</time>
      </trkpt>
      <trkpt lat="43.2303" lon="2.60869">
        <ele>55.2</ele>
        <time>2015-08-02T11:21:39.636Z</time>
      </trkpt>
      <trkpt lat="43.23038" lon="2.60867">
        <ele>56</ele>
        <time>2015-08-02T11:21:42.679Z</time>
      </trkpt>
      <trkpt lat="43.23041" lon="2.60867">
        <ele>56.2</ele>
        <time>2015-08-02T11:21:43.652Z</time>
      </trkpt>
      <trkpt lat="43.23047" lon="2.60863">
        <ele>60</ele>
        <time>2015-08-02T11:21:48.680Z</time>
      </trkpt>
      <trkpt lat="43.23049" lon="2.60864">
        <ele>60.1</ele>
        <time>2015-08-02T11:21:49.640Z</time>
      </trkpt>
      <trkpt lat="43.23057" lon="2.60869">
        <ele>60.3</ele>
        <time>2015-08-02T11:21:52.702Z</time>
      </trkpt>
      <trkpt lat="43.23061" lon="2.60871">
        <ele>60.2</ele>
        <time>2015-08-02T11:21:53.649Z</time>
      </trkpt>
      <trkpt lat="43.23066" lon="2.60875">
        <ele>60.4</ele>
        <time>2015-08-02T11:21:55.685Z</time>
      </trkpt>
      <trkpt lat="43.23069" lon="2.60877">
        <ele>60.6</ele>
        <time>2015-08-02T11:21:56.639Z</time>
      </trkpt>
      <trkpt lat="43.23077" lon="2.60881">
        <ele>60.8</ele>
        <time>2015-08-02T11:21:59.684Z</time>
      </trkpt>
      <trkpt lat="43.2308" lon="2.60883">
        <ele>61</ele>
        <time>2015-08-02T11:22:00.647Z</time>
      </trkpt>
      <trkpt lat="43.23087" lon="2.60889">
        <ele>61.1</ele>
        <time>2015-08-02T11:22:03.690Z</time>
      </trkpt>
      <trkpt lat="43.23089" lon="2.60891">
        <ele>61.1</ele>
        <time>2015-08-02T11:22:04.634Z</time>
      </trkpt>
      <trkpt lat="43.23095" lon="2.60897">
        <ele>60.9</ele>
        <time>2015-08-02T11:22:06.833Z</time>
      </trkpt>
      <trkpt lat="43.23098" lon="2.60899">
        <ele>60.7</ele>
        <time>2015-08-02T11:22:07.638Z</time>
      </trkpt>
      <trkpt lat="43.23104" lon="2.60906">
        <ele>59.9</ele>
        <time>2015-08-02T11:22:10.686Z</time>
      </trkpt>
      <trkpt lat="43.23106" lon="2.60908">
        <ele>59.6</ele>
        <time>2015-08-02T11:22:11.637Z</time>
      </trkpt>
      <trkpt lat="43.23113" lon="2.60915">
        <ele>59.5</ele>
        <time>2015-08-02T11:22:14.700Z</time>
      </trkpt>
      <trkpt lat="43.23115" lon="2.60916">
        <ele>59.4</ele>
        <time>2015-08-02T11:22:15.695Z</time>
      </trkpt>
      <trkpt lat="43.23121" lon="2.60923">
        <ele>58.8</ele>
        <time>2015-08-02T11:22:18.678Z</time>
      </trkpt>
      <trkpt lat="43.23123" lon="2.60926">
        <ele>58.6</ele>
        <time>2015-08-02T11:22:19.638Z</time>
      </trkpt>
      <trkpt lat="43.23128" lon="2.60932">
        <ele>57.4</ele>
        <time>2015-08-02T11:22:22.674Z</time>
      </trkpt>
      <trkpt lat="43.2313" lon="2.60934">
        <ele>56.9</ele>
        <time>2015-08-02T11:22:23.668Z</time>
      </trkpt>
      <trkpt lat="43.23135" lon="2.60941">
        <ele>55.8</ele>
        <time>2015-08-02T11:22:26.687Z</time>
      </trkpt>
      <trkpt lat="43.23137" lon="2.60944">
        <ele>55.5</ele>
        <time>2015-08-02T11:22:27.636Z</time>
      </trkpt>
      <trkpt lat="43.23144" lon="2.60951">
        <ele>54.9</ele>
        <time>2015-08-02T11:22:30.686Z</time>
      </trkpt>
      <trkpt lat="43.23146" lon="2.60954">
        <ele>54.7</ele>
        <time>2015-08-02T11:22:31.640Z</time>
      </trkpt>
      <trkpt lat="43.23152" lon="2.60961">
        <ele>54.4</ele>
        <time>2015-08-02T11:22:35.688Z</time>
      </trkpt>
      <trkpt lat="43.23154" lon="2.60963">
        <ele>54.3</ele>
        <time>2015-08-02T11:22:36.635Z</time>
      </trkpt>
      <trkpt lat="43.2316" lon="2.60969">
        <ele>54.1</ele>
        <time>2015-08-02T11:22:39.685Z</time>
      </trkpt>
      <trkpt lat="43.23162" lon="2.60971">
        <ele>54.2</ele>
        <time>2015-08-02T11:22:40.639Z</time>
      </trkpt>
      <trkpt lat="43.2317" lon="2.60977">
        <ele>54.1</ele>
        <time>2015-08-02T11:22:43.691Z</time>
      </trkpt>
      <trkpt lat="43.23172" lon="2.60979">
        <ele>54.1</ele>
        <time>2015-08-02T11:22:44.636Z</time>
      </trkpt>
      <trkpt lat="43.23179" lon="2.60985">
        <ele>54.3</ele>
        <time>2015-08-02T11:22:47.688Z</time>
      </trkpt>
      <trkpt lat="43.23181" lon="2.60987">
        <ele>54.6</ele>
        <time>2015-08-02T11:22:48.635Z</time>
      </trkpt>
      <trkpt lat="43.23187" lon="2.60993">
        <ele>55.1</ele>
        <time>2015-08-02T11:22:51.686Z</time>
      </trkpt>
      <trkpt lat="43.23189" lon="2.60995">
        <ele>55</ele>
        <time>2015-08-02T11:22:52.636Z</time>
      </trkpt>
      <trkpt lat="43.23195" lon="2.61001">
        <ele>54.9</ele>
        <time>2015-08-02T11:22:56.095Z</time>
      </trkpt>
      <trkpt lat="43.23197" lon="2.61003">
        <ele>54.7</ele>
        <time>2015-08-02T11:22:56.637Z</time>
      </trkpt>
      <trkpt lat="43.23203" lon="2.61009">
        <ele>55.4</ele>
        <time>2015-08-02T11:22:59.686Z</time>
      </trkpt>
      <trkpt lat="43.23205" lon="2.61012">
        <ele>55.5</ele>
        <time>2015-08-02T11:23:00.636Z</time>
      </trkpt>
      <trkpt lat="43.23212" lon="2.61018">
        <ele>56.4</ele>
        <time>2015-08-02T11:23:03.688Z</time>
      </trkpt>
      <trkpt lat="43.23214" lon="2.6102">
        <ele>56.7</ele>
        <time>2015-08-02T11:23:04.636Z</time>
      </trkpt>
      <trkpt lat="43.2322" lon="2.61027">
        <ele>56.5</ele>
        <time>2015-08-02T11:23:07.680Z</time>
      </trkpt>
      <trkpt lat="43.23222" lon="2.61029">
        <ele>56.5</ele>
        <time>2015-08-02T11:23:08.645Z</time>
      </trkpt>
      <trkpt lat="43.23228" lon="2.61035">
        <ele>56.8</ele>
        <time>2015-08-02T11:23:11.687Z</time>
      </trkpt>
      <trkpt lat="43.2323" lon="2.61037">
        <ele>56.9</ele>
        <time>2015-08-02T11:23:12.637Z</time>
      </trkpt>
      <trkpt lat="43.23236" lon="2.61043">
        <ele>56.9</ele>
        <time>2015-08-02T11:23:15.682Z</time>
      </trkpt>
      <trkpt lat="43.23238" lon="2.61045">
        <ele>57</ele>
        <time>2015-08-02T11:23:16.636Z</time>
      </trkpt>
      <trkpt lat="43.23244" lon="2.6105">
        <ele>57.4</ele>
        <time>2015-08-02T11:23:19.727Z</time>
      </trkpt>
      <trkpt lat="43.23246" lon="2.61052">
        <ele>57.3</ele>
        <time>2015-08-02T11:23:20.646Z</time>
      </trkpt>
      <trkpt lat="43.23252" lon="2.61058">
        <ele>57.5</ele>
        <time>2015-08-02T11:23:23.711Z</time>
      </trkpt>
      <trkpt lat="43.23254" lon="2.6106">
        <ele>57.8</ele>
        <time>2015-08-02T11:23:24.635Z</time>
      </trkpt>
      <trkpt lat="43.2326" lon="2.61067">
        <ele>58.1</ele>
        <time>2015-08-02T11:23:27.688Z</time>
      </trkpt>
      <trkpt lat="43.23262" lon="2.6107">
        <ele>58.2</ele>
        <time>2015-08-02T11:23:28.639Z</time>
      </trkpt>
      <trkpt lat="43.23268" lon="2.61076">
        <ele>58.1</ele>
        <time>2015-08-02T11:23:31.679Z</time>
      </trkpt>
      <trkpt lat="43.2327" lon="2.61079">
        <ele>58.1</ele>
        <time>2015-08-02T11:23:32.635Z</time>
      </trkpt>
      <trkpt lat="43.23275" lon="2.61086">
        <ele>58.2</ele>
        <time>2015-08-02T11:23:35.696Z</time>
      </trkpt>
      <trkpt lat="43.23277" lon="2.61088">
        <ele>58.4</ele>
        <time>2015-08-02T11:23:36.641Z</time>
      </trkpt>
      <trkpt lat="43.23282" lon="2.61095">
        <ele>58.3</ele>
        <time>2015-08-02T11:23:39.680Z</time>
      </trkpt>
      <trkpt lat="43.23284" lon="2.61097">
        <ele>58.4</ele>
        <time>2015-08-02T11:23:40.635Z</time>
      </trkpt>
      <trkpt lat="43.2329" lon="2.61102">
        <ele>59.1</ele>
        <time>2015-08-02T11:23:43.690Z</time>
      </trkpt>
      <trkpt lat="43.23292" lon="2.61105">
        <ele>58.9</ele>
        <time>2015-08-02T11:23:44.636Z</time>
      </trkpt>
      <trkpt lat="43.23298" lon="2.61112">
        <ele>59.2</ele>
        <time>2015-08-02T11:23:47.682Z</time>
      </trkpt>
      <trkpt lat="43.233" lon="2.61114">
        <ele>59.2</ele>
        <time>2015-08-02T11:23:48.637Z</time>
      </trkpt>
      <trkpt lat="43.23305" lon="2.61122">
        <ele>58.8</ele>
        <time>2015-08-02T11:23:51.695Z</time>
      </trkpt>
      <trkpt lat="43.23307" lon="2.61125">
        <ele>59.2</ele>
        <time>2015-08-02T11:23:52.636Z</time>
      </trkpt>
      <trkpt lat="43.23312" lon="2.61132">
        <ele>58.7</ele>
        <time>2015-08-02T11:23:55.690Z</time>
      </trkpt>
      <trkpt lat="43.23314" lon="2.61135">
        <ele>58.5</ele>
        <time>2015-08-02T11:23:56.633Z</time>
      </trkpt>
      <trkpt lat="43.23319" lon="2.61142">
        <ele>58.8</ele>
        <time>2015-08-02T11:23:59.685Z</time>
      </trkpt>
      <trkpt lat="43.23322" lon="2.61144">
        <ele>59</ele>
        <time>2015-08-02T11:24:00.647Z</time>
      </trkpt>
      <trkpt lat="43.23327" lon="2.61152">
        <ele>59</ele>
        <time>2015-08-02T11:24:03.679Z</time>
      </trkpt>
      <trkpt lat="43.23329" lon="2.61155">
        <ele>59.5</ele>
        <time>2015-08-02T11:24:04.633Z</time>
      </trkpt>
      <trkpt lat="43.23334" lon="2.61163">
        <ele>58.7</ele>
        <time>2015-08-02T11:24:07.688Z</time>
      </trkpt>
      <trkpt lat="43.23336" lon="2.61165">
        <ele>58.7</ele>
        <time>2015-08-02T11:24:08.645Z</time>
      </trkpt>
      <trkpt lat="43.23341" lon="2.61172">
        <ele>58.7</ele>
        <time>2015-08-02T11:24:11.688Z</time>
      </trkpt>
      <trkpt lat="43.23342" lon="2.61174">
        <ele>59</ele>
        <time>2015-08-02T11:24:12.637Z</time>
      </trkpt>
      <trkpt lat="43.23348" lon="2.61182">
        <ele>59.4</ele>
        <time>2015-08-02T11:24:15.680Z</time>
      </trkpt>
      <trkpt lat="43.23349" lon="2.61184">
        <ele>59.1</ele>
        <time>2015-08-02T11:24:16.635Z</time>
      </trkpt>
      <trkpt lat="43.23355" lon="2.61191">
        <ele>59.1</ele>
        <time>2015-08-02T11:24:19.690Z</time>
      </trkpt>
      <trkpt lat="43.23356" lon="2.61194">
        <ele>59</ele>
        <time>2015-08-02T11:24:20.636Z</time>
      </trkpt>
      <trkpt lat="43.23362" lon="2.61202">
        <ele>58.5</ele>
        <time>2015-08-02T11:24:23.697Z</time>
      </trkpt>
      <trkpt lat="43.23364" lon="2.61204">
        <ele>58.5</ele>
        <time>2015-08-02T11:24:24.635Z</time>
      </trkpt>
      <trkpt lat="43.2337" lon="2.61212">
        <ele>58.6</ele>
        <time>2015-08-02T11:24:27.689Z</time>
      </trkpt>
      <trkpt lat="43.23372" lon="2.61215">
        <ele>58.6</ele>
        <time>2015-08-02T11:24:28.657Z</time>
      </trkpt>
      <trkpt lat="43.23377" lon="2.61222">
        <ele>58.6</ele>
        <time>2015-08-02T11:24:31.682Z</time>
      </trkpt>
      <trkpt lat="43.23379" lon="2.61225">
        <ele>59</ele>
        <time>2015-08-02T11:24:32.635Z</time>
      </trkpt>
      <trkpt lat="43.23386" lon="2.61232">
        <ele>60.2</ele>
        <time>2015-08-02T11:24:35.688Z</time>
      </trkpt>
      <trkpt lat="43.23388" lon="2.61235">
        <ele>60.7</ele>
        <time>2015-08-02T11:24:36.636Z</time>
      </trkpt>
      <trkpt lat="43.23393" lon="2.61241">
        <ele>61.7</ele>
        <time>2015-08-02T11:24:38.685Z</time>
      </trkpt>
      <trkpt lat="43.23395" lon="2.61243">
        <ele>62.1</ele>
        <time>2015-08-02T11:24:39.641Z</time>
      </trkpt>
      <trkpt lat="43.23401" lon="2.61251">
        <ele>63.1</ele>
        <time>2015-08-02T11:24:42.684Z</time>
      </trkpt>
      <trkpt lat="43.23403" lon="2.61255">
        <ele>63.4</ele>
        <time>2015-08-02T11:24:43.651Z</time>
      </trkpt>
      <trkpt lat="43.23409" lon="2.61263">
        <ele>63.6</ele>
        <time>2015-08-02T11:24:46.684Z</time>
      </trkpt>
      <trkpt lat="43.2341" lon="2.61266">
        <ele>63.9</ele>
        <time>2015-08-02T11:24:47.632Z</time>
      </trkpt>
      <trkpt lat="43.23415" lon="2.61273">
        <ele>64.4</ele>
        <time>2015-08-02T11:24:50.701Z</time>
      </trkpt>
      <trkpt lat="43.23417" lon="2.61276">
        <ele>64.4</ele>
        <time>2015-08-02T11:24:51.649Z</time>
      </trkpt>
      <trkpt lat="43.23421" lon="2.61283">
        <ele>64.9</ele>
        <time>2015-08-02T11:24:53.699Z</time>
      </trkpt>
      <trkpt lat="43.23423" lon="2.61287">
        <ele>64.8</ele>
        <time>2015-08-02T11:24:54.632Z</time>
      </trkpt>
      <trkpt lat="43.23427" lon="2.61297">
        <ele>64.6</ele>
        <time>2015-08-02T11:24:57.686Z</time>
      </trkpt>
      <trkpt lat="43.23428" lon="2.61299">
        <ele>64.8</ele>
        <time>2015-08-02T11:24:58.646Z</time>
      </trkpt>
      <trkpt lat="43.23431" lon="2.61309">
        <ele>65</ele>
        <time>2015-08-02T11:25:01.692Z</time>
      </trkpt>
      <trkpt lat="43.23431" lon="2.61311">
        <ele>64.6</ele>
        <time>2015-08-02T11:25:02.636Z</time>
      </trkpt>
      <trkpt lat="43.23431" lon="2.61311">
        <ele>64.6</ele>
        <time>2015-08-02T11:25:02.688Z</time>
      </trkpt>
      <trkpt lat="43.23432" lon="2.61313">
        <ele>64.3</ele>
        <time>2015-08-02T11:25:03.685Z</time>
      </trkpt>
      <trkpt lat="43.23432" lon="2.61315">
        <ele>64.3</ele>
        <time>2015-08-02T11:25:04.635Z</time>
      </trkpt>
      <trkpt lat="43.23434" lon="2.61325">
        <ele>63.3</ele>
        <time>2015-08-02T11:25:07.690Z</time>
      </trkpt>
      <trkpt lat="43.23434" lon="2.61328">
        <ele>63.3</ele>
        <time>2015-08-02T11:25:08.636Z</time>
      </trkpt>
      <trkpt lat="43.23436" lon="2.61339">
        <ele>63.4</ele>
        <time>2015-08-02T11:25:12.021Z</time>
      </trkpt>
      <trkpt lat="43.23436" lon="2.61342">
        <ele>63.6</ele>
        <time>2015-08-02T11:25:12.636Z</time>
      </trkpt>
      <trkpt lat="43.23436" lon="2.61353">
        <ele>64.6</ele>
        <time>2015-08-02T11:25:15.704Z</time>
      </trkpt>
      <trkpt lat="43.23436" lon="2.61357">
        <ele>64.8</ele>
        <time>2015-08-02T11:25:16.639Z</time>
      </trkpt>
      <trkpt lat="43.23435" lon="2.61369">
        <ele>65.7</ele>
        <time>2015-08-02T11:25:19.692Z</time>
      </trkpt>
      <trkpt lat="43.23435" lon="2.61373">
        <ele>66</ele>
        <time>2015-08-02T11:25:20.634Z</time>
      </trkpt>
      <trkpt lat="43.23434" lon="2.61381">
        <ele>66.4</ele>
        <time>2015-08-02T11:25:22.700Z</time>
      </trkpt>
      <trkpt lat="43.23434" lon="2.61386">
        <ele>66.7</ele>
        <time>2015-08-02T11:25:23.637Z</time>
      </trkpt>
      <trkpt lat="43.23433" lon="2.61394">
        <ele>67.2</ele>
        <time>2015-08-02T11:25:25.688Z</time>
      </trkpt>
      <trkpt lat="43.23432" lon="2.61398">
        <ele>66.9</ele>
        <time>2015-08-02T11:25:26.632Z</time>
      </trkpt>
      <trkpt lat="43.23432" lon="2.61407">
        <ele>65.9</ele>
        <time>2015-08-02T11:25:28.682Z</time>
      </trkpt>
      <trkpt lat="43.23431" lon="2.61412">
        <ele>65.4</ele>
        <time>2015-08-02T11:25:29.636Z</time>
      </trkpt>
      <trkpt lat="43.2343" lon="2.61421">
        <ele>64.1</ele>
        <time>2015-08-02T11:25:31.680Z</time>
      </trkpt>
      <trkpt lat="43.2343" lon="2.61426">
        <ele>63.2</ele>
        <time>2015-08-02T11:25:32.635Z</time>
      </trkpt>
      <trkpt lat="43.23429" lon="2.61434">
        <ele>62.3</ele>
        <time>2015-08-02T11:25:34.696Z</time>
      </trkpt>
      <trkpt lat="43.23428" lon="2.61439">
        <ele>61.6</ele>
        <time>2015-08-02T11:25:35.639Z</time>
      </trkpt>
      <trkpt lat="43.23424" lon="2.6145">
        <ele>60.2</ele>
        <time>2015-08-02T11:25:38.684Z</time>
      </trkpt>
      <trkpt lat="43.23423" lon="2.61453">
        <ele>59.6</ele>
        <time>2015-08-02T11:25:39.640Z</time>
      </trkpt>
      <trkpt lat="43.23419" lon="2.61463">
        <ele>57.9</ele>
        <time>2015-08-02T11:25:42.701Z</time>
      </trkpt>
      <trkpt lat="43.23417" lon="2.61468">
        <ele>57.6</ele>
        <time>2015-08-02T11:25:43.641Z</time>
      </trkpt>
      <trkpt lat="43.23414" lon="2.61475">
        <ele>56.7</ele>
        <time>2015-08-02T11:25:45.686Z</time>
      </trkpt>
      <trkpt lat="43.23412" lon="2.61479">
        <ele>56.3</ele>
        <time>2015-08-02T11:25:46.639Z</time>
      </trkpt>
      <trkpt lat="43.23408" lon="2.61489">
        <ele>54.7</ele>
        <time>2015-08-02T11:25:50.689Z</time>
      </trkpt>
      <trkpt lat="43.23407" lon="2.61492">
        <ele>54.6</ele>
        <time>2015-08-02T11:25:51.650Z</time>
      </trkpt>
      <trkpt lat="43.23403" lon="2.61502">
        <ele>54.1</ele>
        <time>2015-08-02T11:25:54.684Z</time>
      </trkpt>
      <trkpt lat="43.23401" lon="2.61505">
        <ele>53.9</ele>
        <time>2015-08-02T11:25:55.638Z</time>
      </trkpt>
      <trkpt lat="43.23396" lon="2.61514">
        <ele>53.4</ele>
        <time>2015-08-02T11:25:58.679Z</time>
      </trkpt>
      <trkpt lat="43.23395" lon="2.61517">
        <ele>53.2</ele>
        <time>2015-08-02T11:25:59.634Z</time>
      </trkpt>
      <trkpt lat="43.23391" lon="2.61527">
        <ele>52.6</ele>
        <time>2015-08-02T11:26:02.679Z</time>
      </trkpt>
      <trkpt lat="43.2339" lon="2.6153">
        <ele>52.4</ele>
        <time>2015-08-02T11:26:03.635Z</time>
      </trkpt>
      <trkpt lat="43.23387" lon="2.61539">
        <ele>52.3</ele>
        <time>2015-08-02T11:26:05.706Z</time>
      </trkpt>
      <trkpt lat="43.23385" lon="2.61543">
        <ele>52.2</ele>
        <time>2015-08-02T11:26:06.646Z</time>
      </trkpt>
      <trkpt lat="43.23382" lon="2.61551">
        <ele>52.3</ele>
        <time>2015-08-02T11:26:08.686Z</time>
      </trkpt>
      <trkpt lat="43.2338" lon="2.61555">
        <ele>52.1</ele>
        <time>2015-08-02T11:26:09.639Z</time>
      </trkpt>
      <trkpt lat="43.23375" lon="2.61564">
        <ele>52</ele>
        <time>2015-08-02T11:26:12.702Z</time>
      </trkpt>
      <trkpt lat="43.23373" lon="2.61567">
        <ele>51.9</ele>
        <time>2015-08-02T11:26:13.640Z</time>
      </trkpt>
      <trkpt lat="43.23367" lon="2.61573">
        <ele>52.2</ele>
        <time>2015-08-02T11:26:18.678Z</time>
      </trkpt>
      <trkpt lat="43.23364" lon="2.61574">
        <ele>52.3</ele>
        <time>2015-08-02T11:26:19.634Z</time>
      </trkpt>
      <trkpt lat="43.23359" lon="2.61579">
        <ele>52.7</ele>
        <time>2015-08-02T11:26:21.676Z</time>
      </trkpt>
      <trkpt lat="43.23357" lon="2.61583">
        <ele>52.9</ele>
        <time>2015-08-02T11:26:22.632Z</time>
      </trkpt>
      <trkpt lat="43.23353" lon="2.6159">
        <ele>52.9</ele>
        <time>2015-08-02T11:26:24.685Z</time>
      </trkpt>
      <trkpt lat="43.23351" lon="2.61594">
        <ele>53</ele>
        <time>2015-08-02T11:26:25.638Z</time>
      </trkpt>
      <trkpt lat="43.23347" lon="2.61603">
        <ele>52.8</ele>
        <time>2015-08-02T11:26:27.686Z</time>
      </trkpt>
      <trkpt lat="43.23345" lon="2.61608">
        <ele>52.6</ele>
        <time>2015-08-02T11:26:28.636Z</time>
      </trkpt>
      <trkpt lat="43.23341" lon="2.61618">
        <ele>52.5</ele>
        <time>2015-08-02T11:26:31.031Z</time>
      </trkpt>
      <trkpt lat="43.23338" lon="2.61622">
        <ele>52.5</ele>
        <time>2015-08-02T11:26:31.642Z</time>
      </trkpt>
      <trkpt lat="43.23334" lon="2.6163">
        <ele>52.5</ele>
        <time>2015-08-02T11:26:33.697Z</time>
      </trkpt>
      <trkpt lat="43.23331" lon="2.61634">
        <ele>52.6</ele>
        <time>2015-08-02T11:26:34.637Z</time>
      </trkpt>
      <trkpt lat="43.23328" lon="2.61644">
        <ele>52.7</ele>
        <time>2015-08-02T11:26:36.688Z</time>
      </trkpt>
      <trkpt lat="43.23326" lon="2.61648">
        <ele>52.8</ele>
        <time>2015-08-02T11:26:37.647Z</time>
      </trkpt>
      <trkpt lat="43.23322" lon="2.61656">
        <ele>53.1</ele>
        <time>2015-08-02T11:26:39.686Z</time>
      </trkpt>
      <trkpt lat="43.2332" lon="2.6166">
        <ele>53</ele>
        <time>2015-08-02T11:26:40.635Z</time>
      </trkpt>
      <trkpt lat="43.23316" lon="2.61668">
        <ele>52.8</ele>
        <time>2015-08-02T11:26:42.686Z</time>
      </trkpt>
      <trkpt lat="43.23313" lon="2.61671">
        <ele>52.8</ele>
        <time>2015-08-02T11:26:43.638Z</time>
      </trkpt>
      <trkpt lat="43.23308" lon="2.61681">
        <ele>52.4</ele>
        <time>2015-08-02T11:26:46.703Z</time>
      </trkpt>
      <trkpt lat="43.23307" lon="2.61685">
        <ele>52.1</ele>
        <time>2015-08-02T11:26:47.649Z</time>
      </trkpt>
      <trkpt lat="43.23302" lon="2.61693">
        <ele>52.1</ele>
        <time>2015-08-02T11:26:49.686Z</time>
      </trkpt>
      <trkpt lat="43.233" lon="2.61698">
        <ele>52</ele>
        <time>2015-08-02T11:26:50.636Z</time>
      </trkpt>
      <trkpt lat="43.23296" lon="2.61706">
        <ele>52.3</ele>
        <time>2015-08-02T11:26:52.686Z</time>
      </trkpt>
      <trkpt lat="43.23294" lon="2.6171">
        <ele>52.1</ele>
        <time>2015-08-02T11:26:53.636Z</time>
      </trkpt>
      <trkpt lat="43.2329" lon="2.61719">
        <ele>51.9</ele>
        <time>2015-08-02T11:26:55.689Z</time>
      </trkpt>
      <trkpt lat="43.23289" lon="2.61723">
        <ele>51.8</ele>
        <time>2015-08-02T11:26:56.637Z</time>
      </trkpt>
      <trkpt lat="43.23286" lon="2.61731">
        <ele>51.6</ele>
        <time>2015-08-02T11:26:58.683Z</time>
      </trkpt>
      <trkpt lat="43.23285" lon="2.61735">
        <ele>51.8</ele>
        <time>2015-08-02T11:26:59.637Z</time>
      </trkpt>
      <trkpt lat="43.23282" lon="2.61744">
        <ele>52.1</ele>
        <time>2015-08-02T11:27:01.686Z</time>
      </trkpt>
      <trkpt lat="43.23281" lon="2.61748">
        <ele>52.2</ele>
        <time>2015-08-02T11:27:02.636Z</time>
      </trkpt>
      <trkpt lat="43.23277" lon="2.61759">
        <ele>52.5</ele>
        <time>2015-08-02T11:27:05.690Z</time>
      </trkpt>
      <trkpt lat="43.23276" lon="2.61762">
        <ele>52.5</ele>
        <time>2015-08-02T11:27:06.635Z</time>
      </trkpt>
      <trkpt lat="43.23274" lon="2.61773">
        <ele>52.5</ele>
        <time>2015-08-02T11:27:09.687Z</time>
      </trkpt>
      <trkpt lat="43.23273" lon="2.61777">
        <ele>52.4</ele>
        <time>2015-08-02T11:27:10.638Z</time>
      </trkpt>
      <trkpt lat="43.23271" lon="2.61785">
        <ele>52.3</ele>
        <time>2015-08-02T11:27:12.715Z</time>
      </trkpt>
      <trkpt lat="43.2327" lon="2.61789">
        <ele>52.2</ele>
        <time>2015-08-02T11:27:13.641Z</time>
      </trkpt>
      <trkpt lat="43.23268" lon="2.61801">
        <ele>52.1</ele>
        <time>2015-08-02T11:27:16.791Z</time>
      </trkpt>
      <trkpt lat="43.23267" lon="2.61805">
        <ele>52.2</ele>
        <time>2015-08-02T11:27:17.636Z</time>
      </trkpt>
      <trkpt lat="43.23264" lon="2.61812">
        <ele>52.8</ele>
        <time>2015-08-02T11:27:19.690Z</time>
      </trkpt>
      <trkpt lat="43.23263" lon="2.61816">
        <ele>53</ele>
        <time>2015-08-02T11:27:20.644Z</time>
      </trkpt>
      <trkpt lat="43.2326" lon="2.61824">
        <ele>53.6</ele>
        <time>2015-08-02T11:27:23.050Z</time>
      </trkpt>
      <trkpt lat="43.23259" lon="2.61828">
        <ele>53.8</ele>
        <time>2015-08-02T11:27:23.649Z</time>
      </trkpt>
      <trkpt lat="43.23255" lon="2.61836">
        <ele>54.3</ele>
        <time>2015-08-02T11:27:26.688Z</time>
      </trkpt>
      <trkpt lat="43.23254" lon="2.61841">
        <ele>54.5</ele>
        <time>2015-08-02T11:27:27.638Z</time>
      </trkpt>
      <trkpt lat="43.23251" lon="2.6185">
        <ele>55</ele>
        <time>2015-08-02T11:27:30.681Z</time>
      </trkpt>
      <trkpt lat="43.2325" lon="2.61852">
        <ele>55.1</ele>
        <time>2015-08-02T11:27:31.635Z</time>
      </trkpt>
      <trkpt lat="43.23244" lon="2.61861">
        <ele>55.3</ele>
        <time>2015-08-02T11:27:35.676Z</time>
      </trkpt>
      <trkpt lat="43.23242" lon="2.61864">
        <ele>55.2</ele>
        <time>2015-08-02T11:27:36.661Z</time>
      </trkpt>
      <trkpt lat="43.23237" lon="2.6187">
        <ele>55</ele>
        <time>2015-08-02T11:27:39.687Z</time>
      </trkpt>
      <trkpt lat="43.23234" lon="2.61872">
        <ele>54.8</ele>
        <time>2015-08-02T11:27:40.632Z</time>
      </trkpt>
      <trkpt lat="43.23229" lon="2.61877">
        <ele>54.5</ele>
        <time>2015-08-02T11:27:42.671Z</time>
      </trkpt>
      <trkpt lat="43.23227" lon="2.61881">
        <ele>54.4</ele>
        <time>2015-08-02T11:27:43.634Z</time>
      </trkpt>
      <trkpt lat="43.23222" lon="2.61887">
        <ele>54</ele>
        <time>2015-08-02T11:27:45.673Z</time>
      </trkpt>
      <trkpt lat="43.23219" lon="2.61889">
        <ele>53.7</ele>
        <time>2015-08-02T11:27:46.634Z</time>
      </trkpt>
      <trkpt lat="43.23214" lon="2.61895">
        <ele>52.9</ele>
        <time>2015-08-02T11:27:48.695Z</time>
      </trkpt>
      <trkpt lat="43.23211" lon="2.61898">
        <ele>52.9</ele>
        <time>2015-08-02T11:27:49.650Z</time>
      </trkpt>
      <trkpt lat="43.23207" lon="2.61905">
        <ele>52.7</ele>
        <time>2015-08-02T11:27:51.671Z</time>
      </trkpt>
      <trkpt lat="43.23204" lon="2.61908">
        <ele>52.6</ele>
        <time>2015-08-02T11:27:52.635Z</time>
      </trkpt>
      <trkpt lat="43.23199" lon="2.61913">
        <ele>52.6</ele>
        <time>2015-08-02T11:27:54.669Z</time>
      </trkpt>
      <trkpt lat="43.23197" lon="2.61917">
        <ele>52.6</ele>
        <time>2015-08-02T11:27:55.637Z</time>
      </trkpt>
      <trkpt lat="43.23191" lon="2.61924">
        <ele>52.1</ele>
        <time>2015-08-02T11:27:57.739Z</time>
      </trkpt>
      <trkpt lat="43.23189" lon="2.61929">
        <ele>51.9</ele>
        <time>2015-08-02T11:27:58.646Z</time>
      </trkpt>
      <trkpt lat="43.23185" lon="2.61937">
        <ele>51.6</ele>
        <time>2015-08-02T11:28:00.699Z</time>
      </trkpt>
      <trkpt lat="43.23183" lon="2.61941">
        <ele>51.6</ele>
        <time>2015-08-02T11:28:01.650Z</time>
      </trkpt>
      <trkpt lat="43.23178" lon="2.6195">
        <ele>51.6</ele>
        <time>2015-08-02T11:28:03.679Z</time>
      </trkpt>
      <trkpt lat="43.23175" lon="2.61954">
        <ele>51.8</ele>
        <time>2015-08-02T11:28:04.647Z</time>
      </trkpt>
      <trkpt lat="43.2317" lon="2.61962">
        <ele>52.1</ele>
        <time>2015-08-02T11:28:06.670Z</time>
      </trkpt>
      <trkpt lat="43.23167" lon="2.61966">
        <ele>52.3</ele>
        <time>2015-08-02T11:28:07.637Z</time>
      </trkpt>
      <trkpt lat="43.23164" lon="2.61974">
        <ele>52.6</ele>
        <time>2015-08-02T11:28:09.672Z</time>
      </trkpt>
      <trkpt lat="43.23163" lon="2.61978">
        <ele>52.8</ele>
        <time>2015-08-02T11:28:10.634Z</time>
      </trkpt>
      <trkpt lat="43.2316" lon="2.61986">
        <ele>53.2</ele>
        <time>2015-08-02T11:28:12.670Z</time>
      </trkpt>
      <trkpt lat="43.23159" lon="2.6199">
        <ele>53.6</ele>
        <time>2015-08-02T11:28:13.636Z</time>
      </trkpt>
      <trkpt lat="43.23156" lon="2.61998">
        <ele>53.7</ele>
        <time>2015-08-02T11:28:15.670Z</time>
      </trkpt>
      <trkpt lat="43.23155" lon="2.62002">
        <ele>53.9</ele>
        <time>2015-08-02T11:28:16.633Z</time>
      </trkpt>
      <trkpt lat="43.23153" lon="2.62013">
        <ele>53.8</ele>
        <time>2015-08-02T11:28:19.707Z</time>
      </trkpt>
      <trkpt lat="43.23152" lon="2.62016">
        <ele>53.9</ele>
        <time>2015-08-02T11:28:20.632Z</time>
      </trkpt>
      <trkpt lat="43.23149" lon="2.62026">
        <ele>53.8</ele>
        <time>2015-08-02T11:28:23.679Z</time>
      </trkpt>
      <trkpt lat="43.23148" lon="2.62029">
        <ele>52.9</ele>
        <time>2015-08-02T11:28:24.635Z</time>
      </trkpt>
      <trkpt lat="43.23146" lon="2.62038">
        <ele>52.5</ele>
        <time>2015-08-02T11:28:27.681Z</time>
      </trkpt>
      <trkpt lat="43.23145" lon="2.62042">
        <ele>51.8</ele>
        <time>2015-08-02T11:28:28.637Z</time>
      </trkpt>
      <trkpt lat="43.23142" lon="2.62052">
        <ele>50.5</ele>
        <time>2015-08-02T11:28:31.691Z</time>
      </trkpt>
      <trkpt lat="43.23141" lon="2.62056">
        <ele>50.1</ele>
        <time>2015-08-02T11:28:32.633Z</time>
      </trkpt>
      <trkpt lat="43.23139" lon="2.62065">
        <ele>49.3</ele>
        <time>2015-08-02T11:28:35.678Z</time>
      </trkpt>
      <trkpt lat="43.23138" lon="2.62067">
        <ele>49</ele>
        <time>2015-08-02T11:28:36.637Z</time>
      </trkpt>
      <trkpt lat="43.23137" lon="2.62077">
        <ele>48.5</ele>
        <time>2015-08-02T11:28:39.683Z</time>
      </trkpt>
      <trkpt lat="43.23137" lon="2.6208">
        <ele>48.6</ele>
        <time>2015-08-02T11:28:40.635Z</time>
      </trkpt>
      <trkpt lat="43.23136" lon="2.6209">
        <ele>49</ele>
        <time>2015-08-02T11:28:43.681Z</time>
      </trkpt>
      <trkpt lat="43.23136" lon="2.62093">
        <ele>49.1</ele>
        <time>2015-08-02T11:28:44.636Z</time>
      </trkpt>
      <trkpt lat="43.23136" lon="2.62103">
        <ele>49.3</ele>
        <time>2015-08-02T11:28:47.677Z</time>
      </trkpt>
      <trkpt lat="43.23135" lon="2.62106">
        <ele>49.4</ele>
        <time>2015-08-02T11:28:48.645Z</time>
      </trkpt>
      <trkpt lat="43.23136" lon="2.62117">
        <ele>49</ele>
        <time>2015-08-02T11:28:51.709Z</time>
      </trkpt>
      <trkpt lat="43.23136" lon="2.62121">
        <ele>48.7</ele>
        <time>2015-08-02T11:28:52.636Z</time>
      </trkpt>
      <trkpt lat="43.23136" lon="2.62132">
        <ele>48.9</ele>
        <time>2015-08-02T11:28:55.679Z</time>
      </trkpt>
      <trkpt lat="43.23136" lon="2.62136">
        <ele>49</ele>
        <time>2015-08-02T11:28:56.640Z</time>
      </trkpt>
      <trkpt lat="43.23137" lon="2.62148">
        <ele>50.1</ele>
        <time>2015-08-02T11:29:00.683Z</time>
      </trkpt>
      <trkpt lat="43.23137" lon="2.62152">
        <ele>50.3</ele>
        <time>2015-08-02T11:29:01.743Z</time>
      </trkpt>
      <trkpt lat="43.23136" lon="2.62162">
        <ele>50.7</ele>
        <time>2015-08-02T11:29:04.699Z</time>
      </trkpt>
      <trkpt lat="43.23136" lon="2.62165">
        <ele>50.8</ele>
        <time>2015-08-02T11:29:05.789Z</time>
      </trkpt>
      <trkpt lat="43.23135" lon="2.62176">
        <ele>51.1</ele>
        <time>2015-08-02T11:29:08.674Z</time>
      </trkpt>
      <trkpt lat="43.23135" lon="2.6218">
        <ele>51.3</ele>
        <time>2015-08-02T11:29:09.633Z</time>
      </trkpt>
      <trkpt lat="43.23133" lon="2.62189">
        <ele>51.7</ele>
        <time>2015-08-02T11:29:11.687Z</time>
      </trkpt>
      <trkpt lat="43.23133" lon="2.62192">
        <ele>51.9</ele>
        <time>2015-08-02T11:29:12.645Z</time>
      </trkpt>
      <trkpt lat="43.23131" lon="2.62202">
        <ele>52.5</ele>
        <time>2015-08-02T11:29:15.677Z</time>
      </trkpt>
      <trkpt lat="43.23131" lon="2.62205">
        <ele>52.4</ele>
        <time>2015-08-02T11:29:16.632Z</time>
      </trkpt>
      <trkpt lat="43.23133" lon="2.62216">
        <ele>52.6</ele>
        <time>2015-08-02T11:29:21.102Z</time>
      </trkpt>
      <trkpt lat="43.23133" lon="2.6222">
        <ele>52.7</ele>
        <time>2015-08-02T11:29:21.637Z</time>
      </trkpt>
      <trkpt lat="43.23134" lon="2.6223">
        <ele>53.4</ele>
        <time>2015-08-02T11:29:24.685Z</time>
      </trkpt>
      <trkpt lat="43.23134" lon="2.62233">
        <ele>53.8</ele>
        <time>2015-08-02T11:29:25.639Z</time>
      </trkpt>
      <trkpt lat="43.23134" lon="2.62244">
        <ele>54.3</ele>
        <time>2015-08-02T11:29:28.699Z</time>
      </trkpt>
      <trkpt lat="43.23134" lon="2.62247">
        <ele>54.3</ele>
        <time>2015-08-02T11:29:29.647Z</time>
      </trkpt>
      <trkpt lat="43.23134" lon="2.62258">
        <ele>55.3</ele>
        <time>2015-08-02T11:29:32.670Z</time>
      </trkpt>
      <trkpt lat="43.23134" lon="2.62261">
        <ele>55.5</ele>
        <time>2015-08-02T11:29:33.636Z</time>
      </trkpt>
      <trkpt lat="43.23134" lon="2.62273">
        <ele>55.1</ele>
        <time>2015-08-02T11:29:37.698Z</time>
      </trkpt>
      <trkpt lat="43.23135" lon="2.62276">
        <ele>54.7</ele>
        <time>2015-08-02T11:29:38.644Z</time>
      </trkpt>
      <trkpt lat="43.23135" lon="2.62287">
        <ele>54.3</ele>
        <time>2015-08-02T11:29:41.679Z</time>
      </trkpt>
      <trkpt lat="43.23135" lon="2.62291">
        <ele>54.2</ele>
        <time>2015-08-02T11:29:42.635Z</time>
      </trkpt>
      <trkpt lat="43.23135" lon="2.62302">
        <ele>54</ele>
        <time>2015-08-02T11:29:45.677Z</time>
      </trkpt>
      <trkpt lat="43.23135" lon="2.62306">
        <ele>54.1</ele>
        <time>2015-08-02T11:29:46.635Z</time>
      </trkpt>
      <trkpt lat="43.23136" lon="2.62317">
        <ele>54.6</ele>
        <time>2015-08-02T11:29:49.706Z</time>
      </trkpt>
      <trkpt lat="43.23136" lon="2.62321">
        <ele>54.7</ele>
        <time>2015-08-02T11:29:50.644Z</time>
      </trkpt>
      <trkpt lat="43.23136" lon="2.6233">
        <ele>54.5</ele>
        <time>2015-08-02T11:29:52.678Z</time>
      </trkpt>
      <trkpt lat="43.23137" lon="2.62334">
        <ele>54.5</ele>
        <time>2015-08-02T11:29:53.639Z</time>
      </trkpt>
      <trkpt lat="43.23137" lon="2.62346">
        <ele>54.2</ele>
        <time>2015-08-02T11:29:56.687Z</time>
      </trkpt>
      <trkpt lat="43.23137" lon="2.62349">
        <ele>54.2</ele>
        <time>2015-08-02T11:29:57.638Z</time>
      </trkpt>
      <trkpt lat="43.23137" lon="2.62358">
        <ele>54.2</ele>
        <time>2015-08-02T11:29:59.681Z</time>
      </trkpt>
      <trkpt lat="43.23137" lon="2.62362">
        <ele>54.3</ele>
        <time>2015-08-02T11:30:00.637Z</time>
      </trkpt>
      <trkpt lat="43.23136" lon="2.62371">
        <ele>54.4</ele>
        <time>2015-08-02T11:30:02.688Z</time>
      </trkpt>
      <trkpt lat="43.23136" lon="2.62376">
        <ele>54.5</ele>
        <time>2015-08-02T11:30:03.635Z</time>
      </trkpt>
      <trkpt lat="43.23136" lon="2.62385">
        <ele>54.5</ele>
        <time>2015-08-02T11:30:05.686Z</time>
      </trkpt>
      <trkpt lat="43.23136" lon="2.62389">
        <ele>54.6</ele>
        <time>2015-08-02T11:30:06.635Z</time>
      </trkpt>
      <trkpt lat="43.23135" lon="2.62397">
        <ele>54.5</ele>
        <time>2015-08-02T11:30:08.676Z</time>
      </trkpt>
      <trkpt lat="43.23135" lon="2.62401">
        <ele>54.7</ele>
        <time>2015-08-02T11:30:09.879Z</time>
      </trkpt>
      <trkpt lat="43.23135" lon="2.6241">
        <ele>54.8</ele>
        <time>2015-08-02T11:30:11.702Z</time>
      </trkpt>
      <trkpt lat="43.23134" lon="2.62415">
        <ele>54.8</ele>
        <time>2015-08-02T11:30:12.645Z</time>
      </trkpt>
      <trkpt lat="43.23134" lon="2.62427">
        <ele>54.8</ele>
        <time>2015-08-02T11:30:15.677Z</time>
      </trkpt>
      <trkpt lat="43.23134" lon="2.62431">
        <ele>54.7</ele>
        <time>2015-08-02T11:30:16.643Z</time>
      </trkpt>
      <trkpt lat="43.23133" lon="2.62443">
        <ele>54.5</ele>
        <time>2015-08-02T11:30:19.679Z</time>
      </trkpt>
      <trkpt lat="43.23133" lon="2.62447">
        <ele>54.6</ele>
        <time>2015-08-02T11:30:20.645Z</time>
      </trkpt>
      <trkpt lat="43.23132" lon="2.62458">
        <ele>54.3</ele>
        <time>2015-08-02T11:30:23.692Z</time>
      </trkpt>
      <trkpt lat="43.23132" lon="2.62462">
        <ele>54.4</ele>
        <time>2015-08-02T11:30:24.637Z</time>
      </trkpt>
      <trkpt lat="43.23132" lon="2.62472">
        <ele>54.7</ele>
        <time>2015-08-02T11:30:26.677Z</time>
      </trkpt>
      <trkpt lat="43.23132" lon="2.62477">
        <ele>54.7</ele>
        <time>2015-08-02T11:30:27.638Z</time>
      </trkpt>
      <trkpt lat="43.23132" lon="2.62487">
        <ele>54.6</ele>
        <time>2015-08-02T11:30:29.675Z</time>
      </trkpt>
      <trkpt lat="43.23132" lon="2.62491">
        <ele>54.6</ele>
        <time>2015-08-02T11:30:30.638Z</time>
      </trkpt>
      <trkpt lat="43.23132" lon="2.625">
        <ele>54.9</ele>
        <time>2015-08-02T11:30:32.670Z</time>
      </trkpt>
      <trkpt lat="43.23132" lon="2.62505">
        <ele>54.6</ele>
        <time>2015-08-02T11:30:33.635Z</time>
      </trkpt>
      <trkpt lat="43.23132" lon="2.62515">
        <ele>54.3</ele>
        <time>2015-08-02T11:30:35.667Z</time>
      </trkpt>
      <trkpt lat="43.23132" lon="2.6252">
        <ele>54.2</ele>
        <time>2015-08-02T11:30:36.632Z</time>
      </trkpt>
      <trkpt lat="43.23132" lon="2.62529">
        <ele>54</ele>
        <time>2015-08-02T11:30:38.679Z</time>
      </trkpt>
      <trkpt lat="43.23131" lon="2.62534">
        <ele>53.8</ele>
        <time>2015-08-02T11:30:39.635Z</time>
      </trkpt>
      <trkpt lat="43.23131" lon="2.62542">
        <ele>53.5</ele>
        <time>2015-08-02T11:30:41.691Z</time>
      </trkpt>
      <trkpt lat="43.23131" lon="2.62546">
        <ele>53.5</ele>
        <time>2015-08-02T11:30:42.634Z</time>
      </trkpt>
      <trkpt lat="43.2313" lon="2.62556">
        <ele>53.2</ele>
        <time>2015-08-02T11:30:44.683Z</time>
      </trkpt>
      <trkpt lat="43.2313" lon="2.62559">
        <ele>53.1</ele>
        <time>2015-08-02T11:30:45.637Z</time>
      </trkpt>
      <trkpt lat="43.2313" lon="2.62568">
        <ele>52.8</ele>
        <time>2015-08-02T11:30:47.691Z</time>
      </trkpt>
      <trkpt lat="43.2313" lon="2.62573">
        <ele>52.7</ele>
        <time>2015-08-02T11:30:48.636Z</time>
      </trkpt>
      <trkpt lat="43.2313" lon="2.62583">
        <ele>52.7</ele>
        <time>2015-08-02T11:30:50.668Z</time>
      </trkpt>
      <trkpt lat="43.23131" lon="2.62588">
        <ele>52.7</ele>
        <time>2015-08-02T11:30:51.635Z</time>
      </trkpt>
      <trkpt lat="43.23131" lon="2.62598">
        <ele>52.6</ele>
        <time>2015-08-02T11:30:54.669Z</time>
      </trkpt>
      <trkpt lat="43.23131" lon="2.62601">
        <ele>52.6</ele>
        <time>2015-08-02T11:30:55.635Z</time>
      </trkpt>
      <trkpt lat="43.23135" lon="2.62611">
        <ele>52.5</ele>
        <time>2015-08-02T11:30:59.670Z</time>
      </trkpt>
      <trkpt lat="43.23135" lon="2.62612">
        <ele>52.5</ele>
        <time>2015-08-02T11:31:00.632Z</time>
      </trkpt>
      <trkpt lat="43.23137" lon="2.62614">
        <ele>52.5</ele>
        <time>2015-08-02T11:31:01.671Z</time>
      </trkpt>
      <trkpt lat="43.23137" lon="2.62616">
        <ele>52.4</ele>
        <time>2015-08-02T11:31:02.634Z</time>
      </trkpt>
      <trkpt lat="43.23137" lon="2.62627">
        <ele>52</ele>
        <time>2015-08-02T11:31:05.669Z</time>
      </trkpt>
      <trkpt lat="43.23137" lon="2.62632">
        <ele>52</ele>
        <time>2015-08-02T11:31:06.826Z</time>
      </trkpt>
      <trkpt lat="43.23137" lon="2.6264">
        <ele>51.9</ele>
        <time>2015-08-02T11:31:08.672Z</time>
      </trkpt>
      <trkpt lat="43.23137" lon="2.62645">
        <ele>51.7</ele>
        <time>2015-08-02T11:31:09.635Z</time>
      </trkpt>
      <trkpt lat="43.23135" lon="2.62657">
        <ele>51.5</ele>
        <time>2015-08-02T11:31:12.681Z</time>
      </trkpt>
      <trkpt lat="43.23135" lon="2.6266">
        <ele>51.4</ele>
        <time>2015-08-02T11:31:13.640Z</time>
      </trkpt>
      <trkpt lat="43.23134" lon="2.62672">
        <ele>51.2</ele>
        <time>2015-08-02T11:31:17.025Z</time>
      </trkpt>
      <trkpt lat="43.23134" lon="2.62675">
        <ele>51.1</ele>
        <time>2015-08-02T11:31:17.635Z</time>
      </trkpt>
      <trkpt lat="43.23134" lon="2.62684">
        <ele>50.9</ele>
        <time>2015-08-02T11:31:19.673Z</time>
      </trkpt>
      <trkpt lat="43.23134" lon="2.62689">
        <ele>50.8</ele>
        <time>2015-08-02T11:31:20.636Z</time>
      </trkpt>
      <trkpt lat="43.23135" lon="2.62697">
        <ele>50.6</ele>
        <time>2015-08-02T11:31:22.675Z</time>
      </trkpt>
      <trkpt lat="43.23135" lon="2.62702">
        <ele>50.5</ele>
        <time>2015-08-02T11:31:23.637Z</time>
      </trkpt>
      <trkpt lat="43.23137" lon="2.62711">
        <ele>50.5</ele>
        <time>2015-08-02T11:31:25.681Z</time>
      </trkpt>
      <trkpt lat="43.23137" lon="2.62716">
        <ele>50.3</ele>
        <time>2015-08-02T11:31:26.645Z</time>
      </trkpt>
      <trkpt lat="43.23139" lon="2.62727">
        <ele>50.3</ele>
        <time>2015-08-02T11:31:29.851Z</time>
      </trkpt>
      <trkpt lat="43.23139" lon="2.62731">
        <ele>50.2</ele>
        <time>2015-08-02T11:31:30.634Z</time>
      </trkpt>
      <trkpt lat="43.23139" lon="2.62742">
        <ele>49.7</ele>
        <time>2015-08-02T11:31:33.670Z</time>
      </trkpt>
      <trkpt lat="43.23139" lon="2.62746">
        <ele>49.7</ele>
        <time>2015-08-02T11:31:34.632Z</time>
      </trkpt>
      <trkpt lat="43.23139" lon="2.62757">
        <ele>49.6</ele>
        <time>2015-08-02T11:31:37.681Z</time>
      </trkpt>
      <trkpt lat="43.23138" lon="2.62761">
        <ele>49.6</ele>
        <time>2015-08-02T11:31:38.635Z</time>
      </trkpt>
      <trkpt lat="43.23137" lon="2.62769">
        <ele>49.7</ele>
        <time>2015-08-02T11:31:41.025Z</time>
      </trkpt>
      <trkpt lat="43.23137" lon="2.62773">
        <ele>49.8</ele>
        <time>2015-08-02T11:31:41.639Z</time>
      </trkpt>
      <trkpt lat="43.23137" lon="2.62785">
        <ele>50.1</ele>
        <time>2015-08-02T11:31:44.699Z</time>
      </trkpt>
      <trkpt lat="43.23137" lon="2.62788">
        <ele>50</ele>
        <time>2015-08-02T11:31:45.648Z</time>
      </trkpt>
      <trkpt lat="43.23137" lon="2.62799">
        <ele>50</ele>
        <time>2015-08-02T11:31:48.676Z</time>
      </trkpt>
      <trkpt lat="43.23137" lon="2.62803">
        <ele>50.1</ele>
        <time>2015-08-02T11:31:49.640Z</time>
      </trkpt>
      <trkpt lat="43.23136" lon="2.62815">
        <ele>50.4</ele>
        <time>2015-08-02T11:31:52.672Z</time>
      </trkpt>
      <trkpt lat="43.23136" lon="2.62818">
        <ele>50.7</ele>
        <time>2015-08-02T11:31:53.637Z</time>
      </trkpt>
      <trkpt lat="43.23136" lon="2.6283">
        <ele>51.9</ele>
        <time>2015-08-02T11:31:56.674Z</time>
      </trkpt>
      <trkpt lat="43.23136" lon="2.62834">
        <ele>51.9</ele>
        <time>2015-08-02T11:31:57.649Z</time>
      </trkpt>
      <trkpt lat="43.23136" lon="2.62843">
        <ele>52</ele>
        <time>2015-08-02T11:31:59.675Z</time>
      </trkpt>
      <trkpt lat="43.23135" lon="2.62847">
        <ele>51.9</ele>
        <time>2015-08-02T11:32:00.635Z</time>
      </trkpt>
      <trkpt lat="43.23134" lon="2.62857">
        <ele>52.1</ele>
        <time>2015-08-02T11:32:03.830Z</time>
      </trkpt>
      <trkpt lat="43.23134" lon="2.62861">
        <ele>52.1</ele>
        <time>2015-08-02T11:32:04.632Z</time>
      </trkpt>
      <trkpt lat="43.23135" lon="2.62871">
        <ele>52.5</ele>
        <time>2015-08-02T11:32:07.688Z</time>
      </trkpt>
      <trkpt lat="43.23135" lon="2.62875">
        <ele>52.8</ele>
        <time>2015-08-02T11:32:08.637Z</time>
      </trkpt>
      <trkpt lat="43.23134" lon="2.62886">
        <ele>52.9</ele>
        <time>2015-08-02T11:32:11.676Z</time>
      </trkpt>
      <trkpt lat="43.23134" lon="2.6289">
        <ele>53</ele>
        <time>2015-08-02T11:32:12.633Z</time>
      </trkpt>
      <trkpt lat="43.23135" lon="2.62901">
        <ele>53.4</ele>
        <time>2015-08-02T11:32:15.677Z</time>
      </trkpt>
      <trkpt lat="43.23135" lon="2.62906">
        <ele>53.5</ele>
        <time>2015-08-02T11:32:16.646Z</time>
      </trkpt>
      <trkpt lat="43.23134" lon="2.62915">
        <ele>53.9</ele>
        <time>2015-08-02T11:32:18.686Z</time>
      </trkpt>
      <trkpt lat="43.23134" lon="2.6292">
        <ele>53.9</ele>
        <time>2015-08-02T11:32:19.640Z</time>
      </trkpt>
      <trkpt lat="43.23134" lon="2.6293">
        <ele>54</ele>
        <time>2015-08-02T11:32:22.676Z</time>
      </trkpt>
      <trkpt lat="43.23135" lon="2.62934">
        <ele>54.2</ele>
        <time>2015-08-02T11:32:23.633Z</time>
      </trkpt>
      <trkpt lat="43.23133" lon="2.62944">
        <ele>54.3</ele>
        <time>2015-08-02T11:32:26.677Z</time>
      </trkpt>
      <trkpt lat="43.23133" lon="2.62948">
        <ele>54.5</ele>
        <time>2015-08-02T11:32:27.639Z</time>
      </trkpt>
      <trkpt lat="43.23131" lon="2.62958">
        <ele>54.2</ele>
        <time>2015-08-02T11:32:30.703Z</time>
      </trkpt>
      <trkpt lat="43.23132" lon="2.62962">
        <ele>54.3</ele>
        <time>2015-08-02T11:32:31.639Z</time>
      </trkpt>
      <trkpt lat="43.23132" lon="2.62971">
        <ele>54.3</ele>
        <time>2015-08-02T11:32:33.679Z</time>
      </trkpt>
      <trkpt lat="43.23131" lon="2.62975">
        <ele>54.7</ele>
        <time>2015-08-02T11:32:34.635Z</time>
      </trkpt>
      <trkpt lat="43.23132" lon="2.62984">
        <ele>55</ele>
        <time>2015-08-02T11:32:36.697Z</time>
      </trkpt>
      <trkpt lat="43.23132" lon="2.6299">
        <ele>54.5</ele>
        <time>2015-08-02T11:32:37.651Z</time>
      </trkpt>
      <trkpt lat="43.23131" lon="2.62998">
        <ele>54.9</ele>
        <time>2015-08-02T11:32:39.792Z</time>
      </trkpt>
      <trkpt lat="43.23132" lon="2.63003">
        <ele>54.7</ele>
        <time>2015-08-02T11:32:40.635Z</time>
      </trkpt>
      <trkpt lat="43.23132" lon="2.63013">
        <ele>54.4</ele>
        <time>2015-08-02T11:32:42.677Z</time>
      </trkpt>
      <trkpt lat="43.23133" lon="2.63018">
        <ele>54.3</ele>
        <time>2015-08-02T11:32:43.637Z</time>
      </trkpt>
      <trkpt lat="43.23133" lon="2.63027">
        <ele>54</ele>
        <time>2015-08-02T11:32:45.680Z</time>
      </trkpt>
      <trkpt lat="43.23133" lon="2.63031">
        <ele>53.9</ele>
        <time>2015-08-02T11:32:47.037Z</time>
      </trkpt>
      <trkpt lat="43.23133" lon="2.6304">
        <ele>53.9</ele>
        <time>2015-08-02T11:32:48.671Z</time>
      </trkpt>
      <trkpt lat="43.23133" lon="2.63044">
        <ele>53.8</ele>
        <time>2015-08-02T11:32:49.634Z</time>
      </trkpt>
      <trkpt lat="43.23133" lon="2.63053">
        <ele>53.8</ele>
        <time>2015-08-02T11:32:51.670Z</time>
      </trkpt>
      <trkpt lat="43.23133" lon="2.63057">
        <ele>53.8</ele>
        <time>2015-08-02T11:32:52.631Z</time>
      </trkpt>
      <trkpt lat="43.23133" lon="2.63066">
        <ele>53.6</ele>
        <time>2015-08-02T11:32:54.749Z</time>
      </trkpt>
      <trkpt lat="43.23133" lon="2.6307">
        <ele>53.5</ele>
        <time>2015-08-02T11:32:55.637Z</time>
      </trkpt>
      <trkpt lat="43.23133" lon="2.63079">
        <ele>53.3</ele>
        <time>2015-08-02T11:32:57.676Z</time>
      </trkpt>
      <trkpt lat="43.23133" lon="2.63083">
        <ele>53.4</ele>
        <time>2015-08-02T11:32:58.868Z</time>
      </trkpt>
      <trkpt lat="43.23133" lon="2.63092">
        <ele>53.1</ele>
        <time>2015-08-02T11:33:00.676Z</time>
      </trkpt>
      <trkpt lat="43.23133" lon="2.63096">
        <ele>53</ele>
        <time>2015-08-02T11:33:01.650Z</time>
      </trkpt>
      <trkpt lat="43.23134" lon="2.63106">
        <ele>52.9</ele>
        <time>2015-08-02T11:33:03.703Z</time>
      </trkpt>
      <trkpt lat="43.23134" lon="2.63109">
        <ele>52.9</ele>
        <time>2015-08-02T11:33:04.645Z</time>
      </trkpt>
      <trkpt lat="43.23135" lon="2.63119">
        <ele>54</ele>
        <time>2015-08-02T11:33:11.729Z</time>
      </trkpt>
      <trkpt lat="43.23135" lon="2.6312">
        <ele>54.2</ele>
        <time>2015-08-02T11:33:12.645Z</time>
      </trkpt>
      <trkpt lat="43.23133" lon="2.63125">
        <ele>53.3</ele>
        <time>2015-08-02T11:33:19.677Z</time>
      </trkpt>
      <trkpt lat="43.23133" lon="2.63125">
        <ele>53.3</ele>
        <time>2015-08-02T11:33:20.644Z</time>
      </trkpt>
      <trkpt lat="43.23131" lon="2.6313">
        <ele>53.4</ele>
        <time>2015-08-02T11:33:36.667Z</time>
      </trkpt>
      <trkpt lat="43.23133" lon="2.63141">
        <ele>53.1</ele>
        <time>2015-08-02T11:33:37.633Z</time>
      </trkpt>
      <trkpt lat="43.23133" lon="2.63152">
        <ele>53.8</ele>
        <time>2015-08-02T11:33:47.701Z</time>
      </trkpt>
      <trkpt lat="43.23134" lon="2.63154">
        <ele>53.7</ele>
        <time>2015-08-02T11:33:48.645Z</time>
      </trkpt>
      <trkpt lat="43.23134" lon="2.63165">
        <ele>53.9</ele>
        <time>2015-08-02T11:33:52.675Z</time>
      </trkpt>
      <trkpt lat="43.23134" lon="2.63168">
        <ele>54</ele>
        <time>2015-08-02T11:33:53.636Z</time>
      </trkpt>
      <trkpt lat="43.23134" lon="2.63175">
        <ele>54.2</ele>
        <time>2015-08-02T11:33:56.701Z</time>
      </trkpt>
      <trkpt lat="43.23134" lon="2.63176">
        <ele>54.3</ele>
        <time>2015-08-02T11:33:57.648Z</time>
      </trkpt>
      <trkpt lat="43.23134" lon="2.6318">
        <ele>54.4</ele>
        <time>2015-08-02T11:34:21.701Z</time>
      </trkpt>
      <trkpt lat="43.23131" lon="2.63177">
        <ele>57</ele>
        <time>2015-08-02T11:34:22.644Z</time>
      </trkpt>
      <trkpt lat="43.23132" lon="2.63187">
        <ele>57.7</ele>
        <time>2015-08-02T11:34:36.677Z</time>
      </trkpt>
      <trkpt lat="43.23133" lon="2.6319">
        <ele>57.7</ele>
        <time>2015-08-02T11:34:37.647Z</time>
      </trkpt>
      <trkpt lat="43.23135" lon="2.63199">
        <ele>57.5</ele>
        <time>2015-08-02T11:34:49.677Z</time>
      </trkpt>
      <trkpt lat="43.23136" lon="2.63201">
        <ele>57.6</ele>
        <time>2015-08-02T11:34:50.634Z</time>
      </trkpt>
      <trkpt lat="43.23136" lon="2.63211">
        <ele>57.6</ele>
        <time>2015-08-02T11:34:55.680Z</time>
      </trkpt>
      <trkpt lat="43.23137" lon="2.63214">
        <ele>57.7</ele>
        <time>2015-08-02T11:34:56.636Z</time>
      </trkpt>
      <trkpt lat="43.23137" lon="2.63223">
        <ele>57.8</ele>
        <time>2015-08-02T11:34:59.676Z</time>
      </trkpt>
      <trkpt lat="43.23137" lon="2.63226">
        <ele>57.8</ele>
        <time>2015-08-02T11:35:00.644Z</time>
      </trkpt>
      <trkpt lat="43.23135" lon="2.63236">
        <ele>57.6</ele>
        <time>2015-08-02T11:35:03.849Z</time>
      </trkpt>
      <trkpt lat="43.23135" lon="2.6324">
        <ele>57.6</ele>
        <time>2015-08-02T11:35:04.634Z</time>
      </trkpt>
      <trkpt lat="43.23135" lon="2.63252">
        <ele>57.7</ele>
        <time>2015-08-02T11:35:07.675Z</time>
      </trkpt>
      <trkpt lat="43.23135" lon="2.63256">
        <ele>57.9</ele>
        <time>2015-08-02T11:35:08.636Z</time>
      </trkpt>
      <trkpt lat="43.23135" lon="2.63266">
        <ele>57.3</ele>
        <time>2015-08-02T11:35:10.701Z</time>
      </trkpt>
      <trkpt lat="43.23135" lon="2.63271">
        <ele>57.3</ele>
        <time>2015-08-02T11:35:11.633Z</time>
      </trkpt>
      <trkpt lat="43.23134" lon="2.6328">
        <ele>56.7</ele>
        <time>2015-08-02T11:35:13.677Z</time>
      </trkpt>
      <trkpt lat="43.23134" lon="2.63285">
        <ele>56.6</ele>
        <time>2015-08-02T11:35:14.636Z</time>
      </trkpt>
      <trkpt lat="43.23132" lon="2.63297">
        <ele>55.6</ele>
        <time>2015-08-02T11:35:17.674Z</time>
      </trkpt>
      <trkpt lat="43.23132" lon="2.63301">
        <ele>55.4</ele>
        <time>2015-08-02T11:35:18.632Z</time>
      </trkpt>
      <trkpt lat="43.23131" lon="2.63312">
        <ele>54.5</ele>
        <time>2015-08-02T11:35:21.671Z</time>
      </trkpt>
      <trkpt lat="43.23131" lon="2.63316">
        <ele>54.3</ele>
        <time>2015-08-02T11:35:22.645Z</time>
      </trkpt>
      <trkpt lat="43.23131" lon="2.63327">
        <ele>53.6</ele>
        <time>2015-08-02T11:35:25.679Z</time>
      </trkpt>
      <trkpt lat="43.23131" lon="2.63331">
        <ele>53.4</ele>
        <time>2015-08-02T11:35:26.637Z</time>
      </trkpt>
      <trkpt lat="43.23131" lon="2.63343">
        <ele>52.3</ele>
        <time>2015-08-02T11:35:29.839Z</time>
      </trkpt>
      <trkpt lat="43.2313" lon="2.63346">
        <ele>52</ele>
        <time>2015-08-02T11:35:30.632Z</time>
      </trkpt>
      <trkpt lat="43.23131" lon="2.63358">
        <ele>50.9</ele>
        <time>2015-08-02T11:35:33.786Z</time>
      </trkpt>
      <trkpt lat="43.23131" lon="2.63362">
        <ele>50.5</ele>
        <time>2015-08-02T11:35:34.645Z</time>
      </trkpt>
      <trkpt lat="43.23131" lon="2.63371">
        <ele>50</ele>
        <time>2015-08-02T11:35:36.676Z</time>
      </trkpt>
      <trkpt lat="43.2313" lon="2.63375">
        <ele>49.7</ele>
        <time>2015-08-02T11:35:37.640Z</time>
      </trkpt>
      <trkpt lat="43.2313" lon="2.63383">
        <ele>49.1</ele>
        <time>2015-08-02T11:35:39.673Z</time>
      </trkpt>
      <trkpt lat="43.23129" lon="2.63387">
        <ele>48.9</ele>
        <time>2015-08-02T11:35:40.635Z</time>
      </trkpt>
      <trkpt lat="43.23127" lon="2.63399">
        <ele>48.4</ele>
        <time>2015-08-02T11:35:43.718Z</time>
      </trkpt>
      <trkpt lat="43.23125" lon="2.63402">
        <ele>48.1</ele>
        <time>2015-08-02T11:35:44.645Z</time>
      </trkpt>
      <trkpt lat="43.23123" lon="2.63414">
        <ele>47.4</ele>
        <time>2015-08-02T11:35:47.675Z</time>
      </trkpt>
      <trkpt lat="43.23122" lon="2.63418">
        <ele>47.1</ele>
        <time>2015-08-02T11:35:48.634Z</time>
      </trkpt>
      <trkpt lat="43.23121" lon="2.63429">
        <ele>46.6</ele>
        <time>2015-08-02T11:35:51.703Z</time>
      </trkpt>
      <trkpt lat="43.2312" lon="2.63432">
        <ele>46.8</ele>
        <time>2015-08-02T11:35:52.645Z</time>
      </trkpt>
      <trkpt lat="43.23119" lon="2.63442">
        <ele>46.1</ele>
        <time>2015-08-02T11:35:57.019Z</time>
      </trkpt>
      <trkpt lat="43.23117" lon="2.63444">
        <ele>46.2</ele>
        <time>2015-08-02T11:35:57.654Z</time>
      </trkpt>
      <trkpt lat="43.23111" lon="2.63452">
        <ele>46.2</ele>
        <time>2015-08-02T11:36:01.687Z</time>
      </trkpt>
      <trkpt lat="43.23108" lon="2.63453">
        <ele>46.1</ele>
        <time>2015-08-02T11:36:02.633Z</time>
      </trkpt>
      <trkpt lat="43.23103" lon="2.63455">
        <ele>46.2</ele>
        <time>2015-08-02T11:36:04.678Z</time>
      </trkpt>
      <trkpt lat="43.231" lon="2.63457">
        <ele>46.2</ele>
        <time>2015-08-02T11:36:05.634Z</time>
      </trkpt>
      <trkpt lat="43.23092" lon="2.63461">
        <ele>47.7</ele>
        <time>2015-08-02T11:36:08.666Z</time>
      </trkpt>
      <trkpt lat="43.2309" lon="2.63464">
        <ele>47.9</ele>
        <time>2015-08-02T11:36:09.632Z</time>
      </trkpt>
      <trkpt lat="43.23085" lon="2.63474">
        <ele>47.7</ele>
        <time>2015-08-02T11:36:12.682Z</time>
      </trkpt>
      <trkpt lat="43.23083" lon="2.63477">
        <ele>47.6</ele>
        <time>2015-08-02T11:36:13.638Z</time>
      </trkpt>
      <trkpt lat="43.23079" lon="2.63487">
        <ele>47.5</ele>
        <time>2015-08-02T11:36:16.677Z</time>
      </trkpt>
      <trkpt lat="43.23078" lon="2.63491">
        <ele>47.2</ele>
        <time>2015-08-02T11:36:17.639Z</time>
      </trkpt>
      <trkpt lat="43.23073" lon="2.635">
        <ele>46.9</ele>
        <time>2015-08-02T11:36:20.699Z</time>
      </trkpt>
      <trkpt lat="43.23071" lon="2.63503">
        <ele>46.9</ele>
        <time>2015-08-02T11:36:21.648Z</time>
      </trkpt>
      <trkpt lat="43.23068" lon="2.6351">
        <ele>46.9</ele>
        <time>2015-08-02T11:36:23.684Z</time>
      </trkpt>
      <trkpt lat="43.23067" lon="2.63514">
        <ele>46.8</ele>
        <time>2015-08-02T11:36:24.637Z</time>
      </trkpt>
      <trkpt lat="43.23063" lon="2.63525">
        <ele>46.8</ele>
        <time>2015-08-02T11:36:28.068Z</time>
      </trkpt>
      <trkpt lat="43.23061" lon="2.6353">
        <ele>47.1</ele>
        <time>2015-08-02T11:36:28.767Z</time>
      </trkpt>
      <trkpt lat="43.23059" lon="2.63539">
        <ele>47.5</ele>
        <time>2015-08-02T11:36:30.678Z</time>
      </trkpt>
      <trkpt lat="43.23057" lon="2.63543">
        <ele>47.7</ele>
        <time>2015-08-02T11:36:31.638Z</time>
      </trkpt>
      <trkpt lat="43.23055" lon="2.63553">
        <ele>48.1</ele>
        <time>2015-08-02T11:36:33.676Z</time>
      </trkpt>
      <trkpt lat="43.23053" lon="2.63558">
        <ele>48</ele>
        <time>2015-08-02T11:36:34.635Z</time>
      </trkpt>
      <trkpt lat="43.23051" lon="2.63568">
        <ele>48.3</ele>
        <time>2015-08-02T11:36:36.674Z</time>
      </trkpt>
      <trkpt lat="43.23049" lon="2.63572">
        <ele>48.2</ele>
        <time>2015-08-02T11:36:37.639Z</time>
      </trkpt>
      <trkpt lat="43.23047" lon="2.63582">
        <ele>48.1</ele>
        <time>2015-08-02T11:36:39.675Z</time>
      </trkpt>
      <trkpt lat="43.23045" lon="2.63587">
        <ele>48.1</ele>
        <time>2015-08-02T11:36:40.633Z</time>
      </trkpt>
      <trkpt lat="43.23042" lon="2.63595">
        <ele>48.2</ele>
        <time>2015-08-02T11:36:42.695Z</time>
      </trkpt>
      <trkpt lat="43.23041" lon="2.63599">
        <ele>48.3</ele>
        <time>2015-08-02T11:36:43.650Z</time>
      </trkpt>
      <trkpt lat="43.23039" lon="2.63607">
        <ele>48.5</ele>
        <time>2015-08-02T11:36:45.725Z</time>
      </trkpt>
      <trkpt lat="43.23038" lon="2.63611">
        <ele>48.8</ele>
        <time>2015-08-02T11:36:46.644Z</time>
      </trkpt>
      <trkpt lat="43.23035" lon="2.63621">
        <ele>48.9</ele>
        <time>2015-08-02T11:36:49.675Z</time>
      </trkpt>
      <trkpt lat="43.23034" lon="2.63625">
        <ele>48.7</ele>
        <time>2015-08-02T11:36:50.634Z</time>
      </trkpt>
      <trkpt lat="43.23033" lon="2.63638">
        <ele>48.6</ele>
        <time>2015-08-02T11:36:53.675Z</time>
      </trkpt>
      <trkpt lat="43.23032" lon="2.63641">
        <ele>48.6</ele>
        <time>2015-08-02T11:36:54.642Z</time>
      </trkpt>
      <trkpt lat="43.2303" lon="2.63651">
        <ele>49.3</ele>
        <time>2015-08-02T11:36:57.709Z</time>
      </trkpt>
      <trkpt lat="43.23029" lon="2.63654">
        <ele>49.9</ele>
        <time>2015-08-02T11:36:58.645Z</time>
      </trkpt>
      <trkpt lat="43.23028" lon="2.63664">
        <ele>50.4</ele>
        <time>2015-08-02T11:37:01.693Z</time>
      </trkpt>
      <trkpt lat="43.23028" lon="2.63667">
        <ele>50.8</ele>
        <time>2015-08-02T11:37:02.636Z</time>
      </trkpt>
      <trkpt lat="43.23027" lon="2.63678">
        <ele>50.7</ele>
        <time>2015-08-02T11:37:05.701Z</time>
      </trkpt>
      <trkpt lat="43.23027" lon="2.63682">
        <ele>50.6</ele>
        <time>2015-08-02T11:37:06.644Z</time>
      </trkpt>
      <trkpt lat="43.23028" lon="2.63691">
        <ele>50.3</ele>
        <time>2015-08-02T11:37:08.678Z</time>
      </trkpt>
      <trkpt lat="43.23029" lon="2.63695">
        <ele>50.8</ele>
        <time>2015-08-02T11:37:09.637Z</time>
      </trkpt>
      <trkpt lat="43.2303" lon="2.63705">
        <ele>51.1</ele>
        <time>2015-08-02T11:37:12.676Z</time>
      </trkpt>
      <trkpt lat="43.23031" lon="2.63709">
        <ele>51.7</ele>
        <time>2015-08-02T11:37:13.650Z</time>
      </trkpt>
      <trkpt lat="43.23033" lon="2.6372">
        <ele>53</ele>
        <time>2015-08-02T11:37:16.673Z</time>
      </trkpt>
      <trkpt lat="43.23034" lon="2.63723">
        <ele>53.6</ele>
        <time>2015-08-02T11:37:17.635Z</time>
      </trkpt>
      <trkpt lat="43.23036" lon="2.63732">
        <ele>54.2</ele>
        <time>2015-08-02T11:37:20.701Z</time>
      </trkpt>
      <trkpt lat="43.23037" lon="2.63735">
        <ele>54.4</ele>
        <time>2015-08-02T11:37:21.649Z</time>
      </trkpt>
      <trkpt lat="43.23041" lon="2.63743">
        <ele>54.8</ele>
        <time>2015-08-02T11:37:24.673Z</time>
      </trkpt>
      <trkpt lat="43.23042" lon="2.63747">
        <ele>54.9</ele>
        <time>2015-08-02T11:37:25.637Z</time>
      </trkpt>
      <trkpt lat="43.23047" lon="2.63756">
        <ele>56</ele>
        <time>2015-08-02T11:37:29.670Z</time>
      </trkpt>
      <trkpt lat="43.23049" lon="2.63758">
        <ele>56.4</ele>
        <time>2015-08-02T11:37:30.635Z</time>
      </trkpt>
      <trkpt lat="43.2305" lon="2.63769">
        <ele>57.4</ele>
        <time>2015-08-02T11:37:34.673Z</time>
      </trkpt>
      <trkpt lat="43.23051" lon="2.63771">
        <ele>57.5</ele>
        <time>2015-08-02T11:37:35.639Z</time>
      </trkpt>
      <trkpt lat="43.23056" lon="2.63779">
        <ele>58.3</ele>
        <time>2015-08-02T11:37:39.704Z</time>
      </trkpt>
      <trkpt lat="43.23057" lon="2.63781">
        <ele>58.5</ele>
        <time>2015-08-02T11:37:40.645Z</time>
      </trkpt>
      <trkpt lat="43.23062" lon="2.6379">
        <ele>59.7</ele>
        <time>2015-08-02T11:37:43.730Z</time>
      </trkpt>
      <trkpt lat="43.23065" lon="2.63792">
        <ele>60.3</ele>
        <time>2015-08-02T11:37:44.646Z</time>
      </trkpt>
      <trkpt lat="43.2307" lon="2.63798">
        <ele>61.1</ele>
        <time>2015-08-02T11:37:46.677Z</time>
      </trkpt>
      <trkpt lat="43.23072" lon="2.63801">
        <ele>61.5</ele>
        <time>2015-08-02T11:37:47.636Z</time>
      </trkpt>
      <trkpt lat="43.23077" lon="2.63808">
        <ele>62.3</ele>
        <time>2015-08-02T11:37:49.682Z</time>
      </trkpt>
      <trkpt lat="43.23079" lon="2.63811">
        <ele>62.7</ele>
        <time>2015-08-02T11:37:50.634Z</time>
      </trkpt>
      <trkpt lat="43.23084" lon="2.6382">
        <ele>64</ele>
        <time>2015-08-02T11:37:53.673Z</time>
      </trkpt>
      <trkpt lat="43.23085" lon="2.63823">
        <ele>64.2</ele>
        <time>2015-08-02T11:37:54.635Z</time>
      </trkpt>
      <trkpt lat="43.23089" lon="2.63832">
        <ele>62.6</ele>
        <time>2015-08-02T11:37:56.677Z</time>
      </trkpt>
      <trkpt lat="43.23089" lon="2.63836">
        <ele>61.9</ele>
        <time>2015-08-02T11:37:57.648Z</time>
      </trkpt>
      <trkpt lat="43.23091" lon="2.63847">
        <ele>60.2</ele>
        <time>2015-08-02T11:38:00.674Z</time>
      </trkpt>
      <trkpt lat="43.23092" lon="2.63851">
        <ele>59.5</ele>
        <time>2015-08-02T11:38:01.637Z</time>
      </trkpt>
      <trkpt lat="43.23093" lon="2.6386">
        <ele>58.1</ele>
        <time>2015-08-02T11:38:03.728Z</time>
      </trkpt>
      <trkpt lat="43.23093" lon="2.63864">
        <ele>57.3</ele>
        <time>2015-08-02T11:38:04.646Z</time>
      </trkpt>
      <trkpt lat="43.23094" lon="2.63876">
        <ele>56.6</ele>
        <time>2015-08-02T11:38:07.686Z</time>
      </trkpt>
      <trkpt lat="43.23095" lon="2.6388">
        <ele>56.3</ele>
        <time>2015-08-02T11:38:08.637Z</time>
      </trkpt>
      <trkpt lat="43.23098" lon="2.6389">
        <ele>57.3</ele>
        <time>2015-08-02T11:38:11.824Z</time>
      </trkpt>
      <trkpt lat="43.23099" lon="2.63893">
        <ele>57.7</ele>
        <time>2015-08-02T11:38:12.638Z</time>
      </trkpt>
      <trkpt lat="43.23102" lon="2.63904">
        <ele>57.4</ele>
        <time>2015-08-02T11:38:18.990Z</time>
      </trkpt>
      <trkpt lat="43.23103" lon="2.63906">
        <ele>57.5</ele>
        <time>2015-08-02T11:38:19.641Z</time>
      </trkpt>
      <trkpt lat="43.23107" lon="2.63916">
        <ele>57.4</ele>
        <time>2015-08-02T11:38:23.675Z</time>
      </trkpt>
      <trkpt lat="43.23108" lon="2.63919">
        <ele>57.4</ele>
        <time>2015-08-02T11:38:24.637Z</time>
      </trkpt>
      <trkpt lat="43.23111" lon="2.63927">
        <ele>57.3</ele>
        <time>2015-08-02T11:38:27.671Z</time>
      </trkpt>
      <trkpt lat="43.23112" lon="2.63929">
        <ele>57.1</ele>
        <time>2015-08-02T11:38:28.632Z</time>
      </trkpt>
      <trkpt lat="43.23116" lon="2.6394">
        <ele>57.1</ele>
        <time>2015-08-02T11:38:32.665Z</time>
      </trkpt>
      <trkpt lat="43.23117" lon="2.63942">
        <ele>57</ele>
        <time>2015-08-02T11:38:33.641Z</time>
      </trkpt>
      <trkpt lat="43.2312" lon="2.6395">
        <ele>56.4</ele>
        <time>2015-08-02T11:38:36.678Z</time>
      </trkpt>
      <trkpt lat="43.23122" lon="2.63953">
        <ele>56.1</ele>
        <time>2015-08-02T11:38:37.637Z</time>
      </trkpt>
      <trkpt lat="43.23126" lon="2.63962">
        <ele>55.8</ele>
        <time>2015-08-02T11:38:40.675Z</time>
      </trkpt>
      <trkpt lat="43.23127" lon="2.63965">
        <ele>55.8</ele>
        <time>2015-08-02T11:38:41.646Z</time>
      </trkpt>
      <trkpt lat="43.23132" lon="2.63974">
        <ele>54.9</ele>
        <time>2015-08-02T11:38:46.005Z</time>
      </trkpt>
      <trkpt lat="43.23133" lon="2.63977">
        <ele>54.8</ele>
        <time>2015-08-02T11:38:46.638Z</time>
      </trkpt>
      <trkpt lat="43.23137" lon="2.63986">
        <ele>54.5</ele>
        <time>2015-08-02T11:38:49.679Z</time>
      </trkpt>
      <trkpt lat="43.23139" lon="2.63989">
        <ele>54.5</ele>
        <time>2015-08-02T11:38:50.635Z</time>
      </trkpt>
      <trkpt lat="43.23143" lon="2.63998">
        <ele>54.1</ele>
        <time>2015-08-02T11:38:53.706Z</time>
      </trkpt>
      <trkpt lat="43.23144" lon="2.64">
        <ele>54.2</ele>
        <time>2015-08-02T11:38:54.644Z</time>
      </trkpt>
      <trkpt lat="43.23146" lon="2.6401">
        <ele>54</ele>
        <time>2015-08-02T11:38:58.673Z</time>
      </trkpt>
      <trkpt lat="43.23147" lon="2.64012">
        <ele>54</ele>
        <time>2015-08-02T11:38:59.636Z</time>
      </trkpt>
      <trkpt lat="43.23151" lon="2.64021">
        <ele>53.1</ele>
        <time>2015-08-02T11:39:03.674Z</time>
      </trkpt>
      <trkpt lat="43.23152" lon="2.64023">
        <ele>53</ele>
        <time>2015-08-02T11:39:04.636Z</time>
      </trkpt>
      <trkpt lat="43.23157" lon="2.64033">
        <ele>52.6</ele>
        <time>2015-08-02T11:39:08.704Z</time>
      </trkpt>
      <trkpt lat="43.23158" lon="2.64035">
        <ele>52.6</ele>
        <time>2015-08-02T11:39:09.647Z</time>
      </trkpt>
      <trkpt lat="43.23163" lon="2.64045">
        <ele>52.1</ele>
        <time>2015-08-02T11:39:14.676Z</time>
      </trkpt>
      <trkpt lat="43.23163" lon="2.64047">
        <ele>52.1</ele>
        <time>2015-08-02T11:39:15.642Z</time>
      </trkpt>
      <trkpt lat="43.23168" lon="2.64056">
        <ele>51.8</ele>
        <time>2015-08-02T11:39:20.670Z</time>
      </trkpt>
      <trkpt lat="43.23169" lon="2.64059">
        <ele>51.6</ele>
        <time>2015-08-02T11:39:21.632Z</time>
      </trkpt>
      <trkpt lat="43.23173" lon="2.64066">
        <ele>51.3</ele>
        <time>2015-08-02T11:39:24.701Z</time>
      </trkpt>
      <trkpt lat="43.23174" lon="2.64069">
        <ele>51.2</ele>
        <time>2015-08-02T11:39:25.650Z</time>
      </trkpt>
      <trkpt lat="43.23177" lon="2.64077">
        <ele>51.2</ele>
        <time>2015-08-02T11:39:28.677Z</time>
      </trkpt>
      <trkpt lat="43.23178" lon="2.6408">
        <ele>51.1</ele>
        <time>2015-08-02T11:39:29.632Z</time>
      </trkpt>
      <trkpt lat="43.23182" lon="2.6409">
        <ele>50.8</ele>
        <time>2015-08-02T11:39:32.672Z</time>
      </trkpt>
      <trkpt lat="43.23184" lon="2.64093">
        <ele>50.8</ele>
        <time>2015-08-02T11:39:33.635Z</time>
      </trkpt>
      <trkpt lat="43.23188" lon="2.64102">
        <ele>50.9</ele>
        <time>2015-08-02T11:39:36.676Z</time>
      </trkpt>
      <trkpt lat="43.23189" lon="2.64105">
        <ele>50.9</ele>
        <time>2015-08-02T11:39:37.650Z</time>
      </trkpt>
      <trkpt lat="43.23194" lon="2.64115">
        <ele>51.1</ele>
        <time>2015-08-02T11:39:40.676Z</time>
      </trkpt>
      <trkpt lat="43.23195" lon="2.64119">
        <ele>51.1</ele>
        <time>2015-08-02T11:39:41.632Z</time>
      </trkpt>
      <trkpt lat="43.23198" lon="2.64126">
        <ele>51.2</ele>
        <time>2015-08-02T11:39:43.682Z</time>
      </trkpt>
      <trkpt lat="43.232" lon="2.6413">
        <ele>51.2</ele>
        <time>2015-08-02T11:39:44.645Z</time>
      </trkpt>
      <trkpt lat="43.23203" lon="2.64137">
        <ele>51.2</ele>
        <time>2015-08-02T11:39:46.671Z</time>
      </trkpt>
      <trkpt lat="43.23205" lon="2.64141">
        <ele>51.2</ele>
        <time>2015-08-02T11:39:47.635Z</time>
      </trkpt>
      <trkpt lat="43.23209" lon="2.6415">
        <ele>51.2</ele>
        <time>2015-08-02T11:39:49.678Z</time>
      </trkpt>
      <trkpt lat="43.23211" lon="2.64154">
        <ele>51.2</ele>
        <time>2015-08-02T11:39:50.632Z</time>
      </trkpt>
      <trkpt lat="43.23215" lon="2.64162">
        <ele>51.1</ele>
        <time>2015-08-02T11:39:52.697Z</time>
      </trkpt>
      <trkpt lat="43.23217" lon="2.64166">
        <ele>51.1</ele>
        <time>2015-08-02T11:39:53.634Z</time>
      </trkpt>
      <trkpt lat="43.2322" lon="2.64174">
        <ele>51.3</ele>
        <time>2015-08-02T11:39:55.677Z</time>
      </trkpt>
      <trkpt lat="43.23222" lon="2.64179">
        <ele>51.3</ele>
        <time>2015-08-02T11:39:56.635Z</time>
      </trkpt>
      <trkpt lat="43.23226" lon="2.64187">
        <ele>51.4</ele>
        <time>2015-08-02T11:39:58.673Z</time>
      </trkpt>
      <trkpt lat="43.23227" lon="2.64191">
        <ele>51.2</ele>
        <time>2015-08-02T11:39:59.635Z</time>
      </trkpt>
      <trkpt lat="43.23231" lon="2.64199">
        <ele>51.3</ele>
        <time>2015-08-02T11:40:01.682Z</time>
      </trkpt>
      <trkpt lat="43.23233" lon="2.64203">
        <ele>51.3</ele>
        <time>2015-08-02T11:40:02.634Z</time>
      </trkpt>
      <trkpt lat="43.23237" lon="2.64212">
        <ele>51.3</ele>
        <time>2015-08-02T11:40:04.682Z</time>
      </trkpt>
      <trkpt lat="43.23239" lon="2.64216">
        <ele>50.8</ele>
        <time>2015-08-02T11:40:05.637Z</time>
      </trkpt>
      <trkpt lat="43.23243" lon="2.64224">
        <ele>50.3</ele>
        <time>2015-08-02T11:40:07.865Z</time>
      </trkpt>
      <trkpt lat="43.23245" lon="2.64228">
        <ele>50.1</ele>
        <time>2015-08-02T11:40:08.633Z</time>
      </trkpt>
      <trkpt lat="43.23248" lon="2.64236">
        <ele>49.7</ele>
        <time>2015-08-02T11:40:10.675Z</time>
      </trkpt>
      <trkpt lat="43.2325" lon="2.6424">
        <ele>49.6</ele>
        <time>2015-08-02T11:40:11.633Z</time>
      </trkpt>
      <trkpt lat="43.23253" lon="2.64249">
        <ele>49.6</ele>
        <time>2015-08-02T11:40:13.680Z</time>
      </trkpt>
      <trkpt lat="43.23255" lon="2.64253">
        <ele>49.4</ele>
        <time>2015-08-02T11:40:14.635Z</time>
      </trkpt>
      <trkpt lat="43.23259" lon="2.64261">
        <ele>49.6</ele>
        <time>2015-08-02T11:40:16.699Z</time>
      </trkpt>
      <trkpt lat="43.23261" lon="2.64265">
        <ele>49.7</ele>
        <time>2015-08-02T11:40:17.644Z</time>
      </trkpt>
      <trkpt lat="43.23264" lon="2.64274">
        <ele>49.9</ele>
        <time>2015-08-02T11:40:19.702Z</time>
      </trkpt>
      <trkpt lat="43.23266" lon="2.64278">
        <ele>49.8</ele>
        <time>2015-08-02T11:40:20.632Z</time>
      </trkpt>
      <trkpt lat="43.2327" lon="2.64287">
        <ele>49.7</ele>
        <time>2015-08-02T11:40:22.674Z</time>
      </trkpt>
      <trkpt lat="43.23271" lon="2.64292">
        <ele>49.6</ele>
        <time>2015-08-02T11:40:23.637Z</time>
      </trkpt>
      <trkpt lat="43.23275" lon="2.643">
        <ele>49.6</ele>
        <time>2015-08-02T11:40:25.674Z</time>
      </trkpt>
      <trkpt lat="43.23276" lon="2.64304">
        <ele>49.5</ele>
        <time>2015-08-02T11:40:26.636Z</time>
      </trkpt>
      <trkpt lat="43.2328" lon="2.64313">
        <ele>50</ele>
        <time>2015-08-02T11:40:28.678Z</time>
      </trkpt>
      <trkpt lat="43.23282" lon="2.64317">
        <ele>50</ele>
        <time>2015-08-02T11:40:29.639Z</time>
      </trkpt>
      <trkpt lat="43.23286" lon="2.64325">
        <ele>49.8</ele>
        <time>2015-08-02T11:40:31.691Z</time>
      </trkpt>
      <trkpt lat="43.23287" lon="2.64329">
        <ele>49.6</ele>
        <time>2015-08-02T11:40:32.636Z</time>
      </trkpt>
      <trkpt lat="43.23291" lon="2.64337">
        <ele>49.4</ele>
        <time>2015-08-02T11:40:34.669Z</time>
      </trkpt>
      <trkpt lat="43.23293" lon="2.64341">
        <ele>49.4</ele>
        <time>2015-08-02T11:40:35.636Z</time>
      </trkpt>
      <trkpt lat="43.23296" lon="2.64349">
        <ele>49.1</ele>
        <time>2015-08-02T11:40:37.673Z</time>
      </trkpt>
      <trkpt lat="43.23298" lon="2.64353">
        <ele>49.4</ele>
        <time>2015-08-02T11:40:38.634Z</time>
      </trkpt>
      <trkpt lat="43.23301" lon="2.64361">
        <ele>49.2</ele>
        <time>2015-08-02T11:40:40.672Z</time>
      </trkpt>
      <trkpt lat="43.23302" lon="2.64364">
        <ele>48.9</ele>
        <time>2015-08-02T11:40:41.643Z</time>
      </trkpt>
      <trkpt lat="43.23305" lon="2.64372">
        <ele>48.9</ele>
        <time>2015-08-02T11:40:43.680Z</time>
      </trkpt>
      <trkpt lat="43.23307" lon="2.64376">
        <ele>48.8</ele>
        <time>2015-08-02T11:40:44.637Z</time>
      </trkpt>
      <trkpt lat="43.2331" lon="2.64383">
        <ele>48.5</ele>
        <time>2015-08-02T11:40:46.716Z</time>
      </trkpt>
      <trkpt lat="43.23312" lon="2.64387">
        <ele>48.3</ele>
        <time>2015-08-02T11:40:47.645Z</time>
      </trkpt>
      <trkpt lat="43.23316" lon="2.64395">
        <ele>48.5</ele>
        <time>2015-08-02T11:40:49.680Z</time>
      </trkpt>
      <trkpt lat="43.23317" lon="2.64399">
        <ele>48.4</ele>
        <time>2015-08-02T11:40:50.632Z</time>
      </trkpt>
      <trkpt lat="43.23321" lon="2.64407">
        <ele>48.2</ele>
        <time>2015-08-02T11:40:52.673Z</time>
      </trkpt>
      <trkpt lat="43.23323" lon="2.64411">
        <ele>48.2</ele>
        <time>2015-08-02T11:40:53.634Z</time>
      </trkpt>
      <trkpt lat="43.23327" lon="2.64419">
        <ele>48.3</ele>
        <time>2015-08-02T11:40:55.760Z</time>
      </trkpt>
      <trkpt lat="43.23328" lon="2.64423">
        <ele>48.1</ele>
        <time>2015-08-02T11:40:56.635Z</time>
      </trkpt>
      <trkpt lat="43.23331" lon="2.64431">
        <ele>48.2</ele>
        <time>2015-08-02T11:40:58.676Z</time>
      </trkpt>
      <trkpt lat="43.23333" lon="2.64435">
        <ele>48.1</ele>
        <time>2015-08-02T11:40:59.743Z</time>
      </trkpt>
      <trkpt lat="43.23337" lon="2.64443">
        <ele>48</ele>
        <time>2015-08-02T11:41:01.682Z</time>
      </trkpt>
      <trkpt lat="43.23339" lon="2.64447">
        <ele>48.1</ele>
        <time>2015-08-02T11:41:02.639Z</time>
      </trkpt>
      <trkpt lat="43.23342" lon="2.64455">
        <ele>47.7</ele>
        <time>2015-08-02T11:41:04.677Z</time>
      </trkpt>
      <trkpt lat="43.23344" lon="2.64459">
        <ele>47.6</ele>
        <time>2015-08-02T11:41:05.632Z</time>
      </trkpt>
      <trkpt lat="43.23348" lon="2.64467">
        <ele>47.4</ele>
        <time>2015-08-02T11:41:07.687Z</time>
      </trkpt>
      <trkpt lat="43.2335" lon="2.64471">
        <ele>47.6</ele>
        <time>2015-08-02T11:41:08.634Z</time>
      </trkpt>
      <trkpt lat="43.23353" lon="2.64479">
        <ele>47.7</ele>
        <time>2015-08-02T11:41:10.674Z</time>
      </trkpt>
      <trkpt lat="43.23355" lon="2.64483">
        <ele>47.8</ele>
        <time>2015-08-02T11:41:11.635Z</time>
      </trkpt>
      <trkpt lat="43.23359" lon="2.64491">
        <ele>47.8</ele>
        <time>2015-08-02T11:41:13.707Z</time>
      </trkpt>
      <trkpt lat="43.23361" lon="2.64495">
        <ele>47.8</ele>
        <time>2015-08-02T11:41:14.645Z</time>
      </trkpt>
      <trkpt lat="43.23364" lon="2.64502">
        <ele>47.9</ele>
        <time>2015-08-02T11:41:16.677Z</time>
      </trkpt>
      <trkpt lat="43.23366" lon="2.64506">
        <ele>47.9</ele>
        <time>2015-08-02T11:41:17.637Z</time>
      </trkpt>
      <trkpt lat="43.23369" lon="2.64513">
        <ele>47.8</ele>
        <time>2015-08-02T11:41:19.679Z</time>
      </trkpt>
      <trkpt lat="43.23371" lon="2.64517">
        <ele>47.7</ele>
        <time>2015-08-02T11:41:20.635Z</time>
      </trkpt>
      <trkpt lat="43.23374" lon="2.64525">
        <ele>47.7</ele>
        <time>2015-08-02T11:41:22.777Z</time>
      </trkpt>
      <trkpt lat="43.23376" lon="2.64528">
        <ele>47.6</ele>
        <time>2015-08-02T11:41:23.636Z</time>
      </trkpt>
      <trkpt lat="43.23379" lon="2.64536">
        <ele>47.7</ele>
        <time>2015-08-02T11:41:25.678Z</time>
      </trkpt>
      <trkpt lat="43.23381" lon="2.6454">
        <ele>47.7</ele>
        <time>2015-08-02T11:41:26.635Z</time>
      </trkpt>
      <trkpt lat="43.23384" lon="2.64547">
        <ele>47.6</ele>
        <time>2015-08-02T11:41:28.677Z</time>
      </trkpt>
      <trkpt lat="43.23386" lon="2.6455">
        <ele>47.7</ele>
        <time>2015-08-02T11:41:29.649Z</time>
      </trkpt>
      <trkpt lat="43.23389" lon="2.64558">
        <ele>47.6</ele>
        <time>2015-08-02T11:41:31.688Z</time>
      </trkpt>
      <trkpt lat="43.23391" lon="2.64561">
        <ele>47.7</ele>
        <time>2015-08-02T11:41:32.635Z</time>
      </trkpt>
      <trkpt lat="43.23395" lon="2.64568">
        <ele>47.9</ele>
        <time>2015-08-02T11:41:34.675Z</time>
      </trkpt>
      <trkpt lat="43.23397" lon="2.64572">
        <ele>47.9</ele>
        <time>2015-08-02T11:41:35.632Z</time>
      </trkpt>
      <trkpt lat="43.234" lon="2.6458">
        <ele>47.9</ele>
        <time>2015-08-02T11:41:38.054Z</time>
      </trkpt>
      <trkpt lat="43.23402" lon="2.64584">
        <ele>47.9</ele>
        <time>2015-08-02T11:41:38.633Z</time>
      </trkpt>
      <trkpt lat="43.23406" lon="2.64591">
        <ele>47.9</ele>
        <time>2015-08-02T11:41:40.676Z</time>
      </trkpt>
      <trkpt lat="43.23408" lon="2.64595">
        <ele>47.9</ele>
        <time>2015-08-02T11:41:41.639Z</time>
      </trkpt>
      <trkpt lat="43.23412" lon="2.64602">
        <ele>47.7</ele>
        <time>2015-08-02T11:41:43.672Z</time>
      </trkpt>
      <trkpt lat="43.23414" lon="2.64606">
        <ele>47.5</ele>
        <time>2015-08-02T11:41:44.633Z</time>
      </trkpt>
      <trkpt lat="43.23417" lon="2.64613">
        <ele>47.6</ele>
        <time>2015-08-02T11:41:46.666Z</time>
      </trkpt>
      <trkpt lat="43.23418" lon="2.64617">
        <ele>47.5</ele>
        <time>2015-08-02T11:41:47.632Z</time>
      </trkpt>
      <trkpt lat="43.23422" lon="2.64625">
        <ele>47.3</ele>
        <time>2015-08-02T11:41:49.686Z</time>
      </trkpt>
      <trkpt lat="43.23424" lon="2.64628">
        <ele>47.2</ele>
        <time>2015-08-02T11:41:50.634Z</time>
      </trkpt>
      <trkpt lat="43.23427" lon="2.64635">
        <ele>47.1</ele>
        <time>2015-08-02T11:41:52.676Z</time>
      </trkpt>
      <trkpt lat="43.23429" lon="2.64638">
        <ele>47.1</ele>
        <time>2015-08-02T11:41:53.632Z</time>
      </trkpt>
      <trkpt lat="43.23433" lon="2.64649">
        <ele>47</ele>
        <time>2015-08-02T11:41:57.071Z</time>
      </trkpt>
      <trkpt lat="43.23435" lon="2.64652">
        <ele>46.9</ele>
        <time>2015-08-02T11:41:57.634Z</time>
      </trkpt>
      <trkpt lat="43.23439" lon="2.64659">
        <ele>46.8</ele>
        <time>2015-08-02T11:41:59.678Z</time>
      </trkpt>
      <trkpt lat="43.23441" lon="2.64663">
        <ele>46.5</ele>
        <time>2015-08-02T11:42:00.633Z</time>
      </trkpt>
      <trkpt lat="43.23445" lon="2.6467">
        <ele>46.3</ele>
        <time>2015-08-02T11:42:03.043Z</time>
      </trkpt>
      <trkpt lat="43.23447" lon="2.64673">
        <ele>46.2</ele>
        <time>2015-08-02T11:42:03.638Z</time>
      </trkpt>
      <trkpt lat="43.2345" lon="2.6468">
        <ele>46</ele>
        <time>2015-08-02T11:42:05.678Z</time>
      </trkpt>
      <trkpt lat="43.23453" lon="2.64684">
        <ele>45.9</ele>
        <time>2015-08-02T11:42:06.635Z</time>
      </trkpt>
      <trkpt lat="43.23457" lon="2.64691">
        <ele>45.6</ele>
        <time>2015-08-02T11:42:08.701Z</time>
      </trkpt>
      <trkpt lat="43.23459" lon="2.64695">
        <ele>45.8</ele>
        <time>2015-08-02T11:42:09.648Z</time>
      </trkpt>
      <trkpt lat="43.23462" lon="2.64702">
        <ele>45.9</ele>
        <time>2015-08-02T11:42:11.710Z</time>
      </trkpt>
      <trkpt lat="43.23464" lon="2.64706">
        <ele>46.1</ele>
        <time>2015-08-02T11:42:12.645Z</time>
      </trkpt>
      <trkpt lat="43.23468" lon="2.64713">
        <ele>46.4</ele>
        <time>2015-08-02T11:42:14.674Z</time>
      </trkpt>
      <trkpt lat="43.2347" lon="2.64717">
        <ele>46.5</ele>
        <time>2015-08-02T11:42:15.640Z</time>
      </trkpt>
      <trkpt lat="43.23475" lon="2.64727">
        <ele>47.1</ele>
        <time>2015-08-02T11:42:18.666Z</time>
      </trkpt>
      <trkpt lat="43.23477" lon="2.6473">
        <ele>47.1</ele>
        <time>2015-08-02T11:42:19.635Z</time>
      </trkpt>
      <trkpt lat="43.2348" lon="2.64737">
        <ele>47.5</ele>
        <time>2015-08-02T11:42:21.669Z</time>
      </trkpt>
      <trkpt lat="43.23482" lon="2.64741">
        <ele>47.5</ele>
        <time>2015-08-02T11:42:22.631Z</time>
      </trkpt>
      <trkpt lat="43.23486" lon="2.64748">
        <ele>47.4</ele>
        <time>2015-08-02T11:42:24.675Z</time>
      </trkpt>
      <trkpt lat="43.23487" lon="2.64751">
        <ele>47.2</ele>
        <time>2015-08-02T11:42:25.637Z</time>
      </trkpt>
      <trkpt lat="43.23492" lon="2.64758">
        <ele>47.4</ele>
        <time>2015-08-02T11:42:27.690Z</time>
      </trkpt>
      <trkpt lat="43.23494" lon="2.64762">
        <ele>47.7</ele>
        <time>2015-08-02T11:42:28.637Z</time>
      </trkpt>
      <trkpt lat="43.23498" lon="2.6477">
        <ele>47.7</ele>
        <time>2015-08-02T11:42:30.705Z</time>
      </trkpt>
      <trkpt lat="43.235" lon="2.64773">
        <ele>47.6</ele>
        <time>2015-08-02T11:42:31.641Z</time>
      </trkpt>
      <trkpt lat="43.23503" lon="2.64781">
        <ele>47.3</ele>
        <time>2015-08-02T11:42:33.675Z</time>
      </trkpt>
      <trkpt lat="43.23505" lon="2.64785">
        <ele>47.3</ele>
        <time>2015-08-02T11:42:34.632Z</time>
      </trkpt>
      <trkpt lat="43.23509" lon="2.64792">
        <ele>47.4</ele>
        <time>2015-08-02T11:42:36.676Z</time>
      </trkpt>
      <trkpt lat="43.23511" lon="2.64795">
        <ele>47.6</ele>
        <time>2015-08-02T11:42:37.636Z</time>
      </trkpt>
      <trkpt lat="43.23515" lon="2.64803">
        <ele>48</ele>
        <time>2015-08-02T11:42:39.676Z</time>
      </trkpt>
      <trkpt lat="43.23516" lon="2.64807">
        <ele>47.9</ele>
        <time>2015-08-02T11:42:40.631Z</time>
      </trkpt>
      <trkpt lat="43.2352" lon="2.64815">
        <ele>48.2</ele>
        <time>2015-08-02T11:42:42.685Z</time>
      </trkpt>
      <trkpt lat="43.23522" lon="2.64818">
        <ele>48.2</ele>
        <time>2015-08-02T11:42:43.638Z</time>
      </trkpt>
      <trkpt lat="43.23526" lon="2.64826">
        <ele>48.1</ele>
        <time>2015-08-02T11:42:45.710Z</time>
      </trkpt>
      <trkpt lat="43.23529" lon="2.64829">
        <ele>48.2</ele>
        <time>2015-08-02T11:42:46.642Z</time>
      </trkpt>
      <trkpt lat="43.23533" lon="2.64837">
        <ele>48.5</ele>
        <time>2015-08-02T11:42:48.676Z</time>
      </trkpt>
      <trkpt lat="43.23535" lon="2.64841">
        <ele>48.5</ele>
        <time>2015-08-02T11:42:49.635Z</time>
      </trkpt>
      <trkpt lat="43.23538" lon="2.64848">
        <ele>48.3</ele>
        <time>2015-08-02T11:42:51.674Z</time>
      </trkpt>
      <trkpt lat="43.2354" lon="2.64851">
        <ele>48.3</ele>
        <time>2015-08-02T11:42:52.637Z</time>
      </trkpt>
      <trkpt lat="43.23544" lon="2.64859">
        <ele>48.3</ele>
        <time>2015-08-02T11:42:54.674Z</time>
      </trkpt>
      <trkpt lat="43.23545" lon="2.64863">
        <ele>48.3</ele>
        <time>2015-08-02T11:42:55.638Z</time>
      </trkpt>
      <trkpt lat="43.23549" lon="2.64871">
        <ele>47.8</ele>
        <time>2015-08-02T11:42:57.688Z</time>
      </trkpt>
      <trkpt lat="43.23551" lon="2.64874">
        <ele>47.8</ele>
        <time>2015-08-02T11:42:58.631Z</time>
      </trkpt>
      <trkpt lat="43.23556" lon="2.64882">
        <ele>48.4</ele>
        <time>2015-08-02T11:43:01.050Z</time>
      </trkpt>
      <trkpt lat="43.23558" lon="2.64885">
        <ele>48.5</ele>
        <time>2015-08-02T11:43:01.637Z</time>
      </trkpt>
      <trkpt lat="43.23563" lon="2.64893">
        <ele>48.2</ele>
        <time>2015-08-02T11:43:03.681Z</time>
      </trkpt>
      <trkpt lat="43.23565" lon="2.64897">
        <ele>48</ele>
        <time>2015-08-02T11:43:04.632Z</time>
      </trkpt>
      <trkpt lat="43.23569" lon="2.64905">
        <ele>47.7</ele>
        <time>2015-08-02T11:43:06.676Z</time>
      </trkpt>
      <trkpt lat="43.23571" lon="2.64908">
        <ele>47.6</ele>
        <time>2015-08-02T11:43:07.636Z</time>
      </trkpt>
      <trkpt lat="43.23574" lon="2.64916">
        <ele>47.4</ele>
        <time>2015-08-02T11:43:09.679Z</time>
      </trkpt>
      <trkpt lat="43.23577" lon="2.6492">
        <ele>48</ele>
        <time>2015-08-02T11:43:10.634Z</time>
      </trkpt>
      <trkpt lat="43.23581" lon="2.64927">
        <ele>48.5</ele>
        <time>2015-08-02T11:43:12.675Z</time>
      </trkpt>
      <trkpt lat="43.23582" lon="2.64931">
        <ele>48.6</ele>
        <time>2015-08-02T11:43:13.633Z</time>
      </trkpt>
      <trkpt lat="43.23586" lon="2.64937">
        <ele>48.8</ele>
        <time>2015-08-02T11:43:15.704Z</time>
      </trkpt>
      <trkpt lat="43.23588" lon="2.64941">
        <ele>49.1</ele>
        <time>2015-08-02T11:43:16.634Z</time>
      </trkpt>
      <trkpt lat="43.23592" lon="2.64948">
        <ele>49.4</ele>
        <time>2015-08-02T11:43:18.691Z</time>
      </trkpt>
      <trkpt lat="43.23594" lon="2.64951">
        <ele>49.6</ele>
        <time>2015-08-02T11:43:19.639Z</time>
      </trkpt>
      <trkpt lat="43.23598" lon="2.64958">
        <ele>50.4</ele>
        <time>2015-08-02T11:43:21.685Z</time>
      </trkpt>
      <trkpt lat="43.236" lon="2.64962">
        <ele>50.6</ele>
        <time>2015-08-02T11:43:22.636Z</time>
      </trkpt>
      <trkpt lat="43.23604" lon="2.64969">
        <ele>51.6</ele>
        <time>2015-08-02T11:43:24.699Z</time>
      </trkpt>
      <trkpt lat="43.23606" lon="2.64972">
        <ele>52</ele>
        <time>2015-08-02T11:43:25.649Z</time>
      </trkpt>
      <trkpt lat="43.2361" lon="2.6498">
        <ele>53</ele>
        <time>2015-08-02T11:43:27.682Z</time>
      </trkpt>
      <trkpt lat="43.23612" lon="2.64983">
        <ele>52.7</ele>
        <time>2015-08-02T11:43:28.635Z</time>
      </trkpt>
      <trkpt lat="43.23615" lon="2.64991">
        <ele>53.3</ele>
        <time>2015-08-02T11:43:30.682Z</time>
      </trkpt>
      <trkpt lat="43.23617" lon="2.64994">
        <ele>53.6</ele>
        <time>2015-08-02T11:43:31.642Z</time>
      </trkpt>
      <trkpt lat="43.23621" lon="2.65001">
        <ele>53.7</ele>
        <time>2015-08-02T11:43:33.684Z</time>
      </trkpt>
      <trkpt lat="43.23623" lon="2.65005">
        <ele>53.7</ele>
        <time>2015-08-02T11:43:34.634Z</time>
      </trkpt>
      <trkpt lat="43.23626" lon="2.65013">
        <ele>53.6</ele>
        <time>2015-08-02T11:43:36.689Z</time>
      </trkpt>
      <trkpt lat="43.23627" lon="2.65017">
        <ele>53.6</ele>
        <time>2015-08-02T11:43:37.637Z</time>
      </trkpt>
      <trkpt lat="43.23631" lon="2.65024">
        <ele>53.4</ele>
        <time>2015-08-02T11:43:39.698Z</time>
      </trkpt>
      <trkpt lat="43.23633" lon="2.65027">
        <ele>53</ele>
        <time>2015-08-02T11:43:40.634Z</time>
      </trkpt>
      <trkpt lat="43.23636" lon="2.65034">
        <ele>52.2</ele>
        <time>2015-08-02T11:43:42.681Z</time>
      </trkpt>
      <trkpt lat="43.23637" lon="2.65038">
        <ele>52.3</ele>
        <time>2015-08-02T11:43:43.637Z</time>
      </trkpt>
      <trkpt lat="43.23642" lon="2.65047">
        <ele>51</ele>
        <time>2015-08-02T11:43:46.700Z</time>
      </trkpt>
      <trkpt lat="43.23644" lon="2.6505">
        <ele>51</ele>
        <time>2015-08-02T11:43:47.648Z</time>
      </trkpt>
      <trkpt lat="43.23647" lon="2.65057">
        <ele>50.9</ele>
        <time>2015-08-02T11:43:49.685Z</time>
      </trkpt>
      <trkpt lat="43.23649" lon="2.65061">
        <ele>51.1</ele>
        <time>2015-08-02T11:43:50.635Z</time>
      </trkpt>
      <trkpt lat="43.23654" lon="2.65071">
        <ele>50.6</ele>
        <time>2015-08-02T11:43:53.685Z</time>
      </trkpt>
      <trkpt lat="43.23656" lon="2.65074">
        <ele>50.3</ele>
        <time>2015-08-02T11:43:54.636Z</time>
      </trkpt>
      <trkpt lat="43.23661" lon="2.65084">
        <ele>49.8</ele>
        <time>2015-08-02T11:43:57.682Z</time>
      </trkpt>
      <trkpt lat="43.23663" lon="2.65087">
        <ele>49.8</ele>
        <time>2015-08-02T11:43:58.636Z</time>
      </trkpt>
      <trkpt lat="43.23666" lon="2.65094">
        <ele>49.8</ele>
        <time>2015-08-02T11:44:00.683Z</time>
      </trkpt>
      <trkpt lat="43.23668" lon="2.65097">
        <ele>50.1</ele>
        <time>2015-08-02T11:44:01.636Z</time>
      </trkpt>
      <trkpt lat="43.23673" lon="2.65107">
        <ele>49.9</ele>
        <time>2015-08-02T11:44:04.710Z</time>
      </trkpt>
      <trkpt lat="43.23674" lon="2.6511">
        <ele>50</ele>
        <time>2015-08-02T11:44:05.646Z</time>
      </trkpt>
      <trkpt lat="43.23679" lon="2.6512">
        <ele>49.9</ele>
        <time>2015-08-02T11:44:08.684Z</time>
      </trkpt>
      <trkpt lat="43.2368" lon="2.65123">
        <ele>50</ele>
        <time>2015-08-02T11:44:09.638Z</time>
      </trkpt>
      <trkpt lat="43.23686" lon="2.65132">
        <ele>50.3</ele>
        <time>2015-08-02T11:44:12.855Z</time>
      </trkpt>
      <trkpt lat="43.23687" lon="2.65135">
        <ele>50.4</ele>
        <time>2015-08-02T11:44:13.637Z</time>
      </trkpt>
      <trkpt lat="43.23691" lon="2.65144">
        <ele>50.7</ele>
        <time>2015-08-02T11:44:16.677Z</time>
      </trkpt>
      <trkpt lat="43.23692" lon="2.65147">
        <ele>50.8</ele>
        <time>2015-08-02T11:44:17.638Z</time>
      </trkpt>
      <trkpt lat="43.23696" lon="2.65156">
        <ele>50.9</ele>
        <time>2015-08-02T11:44:20.766Z</time>
      </trkpt>
      <trkpt lat="43.23698" lon="2.65158">
        <ele>51.3</ele>
        <time>2015-08-02T11:44:21.636Z</time>
      </trkpt>
      <trkpt lat="43.23701" lon="2.65166">
        <ele>51.1</ele>
        <time>2015-08-02T11:44:24.683Z</time>
      </trkpt>
      <trkpt lat="43.23702" lon="2.65169">
        <ele>51.3</ele>
        <time>2015-08-02T11:44:25.634Z</time>
      </trkpt>
      <trkpt lat="43.23707" lon="2.65176">
        <ele>51.5</ele>
        <time>2015-08-02T11:44:28.683Z</time>
      </trkpt>
      <trkpt lat="43.23709" lon="2.65179">
        <ele>51.5</ele>
        <time>2015-08-02T11:44:29.636Z</time>
      </trkpt>
      <trkpt lat="43.23714" lon="2.65188">
        <ele>51.6</ele>
        <time>2015-08-02T11:44:32.677Z</time>
      </trkpt>
      <trkpt lat="43.23715" lon="2.6519">
        <ele>51.4</ele>
        <time>2015-08-02T11:44:33.635Z</time>
      </trkpt>
      <trkpt lat="43.23719" lon="2.65197">
        <ele>51.2</ele>
        <time>2015-08-02T11:44:35.684Z</time>
      </trkpt>
      <trkpt lat="43.23721" lon="2.652">
        <ele>51.2</ele>
        <time>2015-08-02T11:44:36.636Z</time>
      </trkpt>
      <trkpt lat="43.23727" lon="2.6521">
        <ele>50.9</ele>
        <time>2015-08-02T11:44:39.681Z</time>
      </trkpt>
      <trkpt lat="43.23729" lon="2.65213">
        <ele>51</ele>
        <time>2015-08-02T11:44:40.635Z</time>
      </trkpt>
      <trkpt lat="43.23733" lon="2.65219">
        <ele>51.1</ele>
        <time>2015-08-02T11:44:42.686Z</time>
      </trkpt>
      <trkpt lat="43.23735" lon="2.65223">
        <ele>50.9</ele>
        <time>2015-08-02T11:44:43.637Z</time>
      </trkpt>
      <trkpt lat="43.2374" lon="2.6523">
        <ele>51.8</ele>
        <time>2015-08-02T11:44:45.683Z</time>
      </trkpt>
      <trkpt lat="43.23743" lon="2.65234">
        <ele>52</ele>
        <time>2015-08-02T11:44:46.636Z</time>
      </trkpt>
      <trkpt lat="43.23747" lon="2.65242">
        <ele>52.2</ele>
        <time>2015-08-02T11:44:48.674Z</time>
      </trkpt>
      <trkpt lat="43.23749" lon="2.65245">
        <ele>52</ele>
        <time>2015-08-02T11:44:49.636Z</time>
      </trkpt>
      <trkpt lat="43.23753" lon="2.65252">
        <ele>52.1</ele>
        <time>2015-08-02T11:44:51.676Z</time>
      </trkpt>
      <trkpt lat="43.23756" lon="2.65256">
        <ele>52.3</ele>
        <time>2015-08-02T11:44:52.631Z</time>
      </trkpt>
      <trkpt lat="43.23761" lon="2.65264">
        <ele>52.5</ele>
        <time>2015-08-02T11:44:54.701Z</time>
      </trkpt>
      <trkpt lat="43.23763" lon="2.65268">
        <ele>52.7</ele>
        <time>2015-08-02T11:44:55.647Z</time>
      </trkpt>
      <trkpt lat="43.23768" lon="2.65275">
        <ele>52.8</ele>
        <time>2015-08-02T11:44:57.693Z</time>
      </trkpt>
      <trkpt lat="43.2377" lon="2.65278">
        <ele>52.8</ele>
        <time>2015-08-02T11:44:58.634Z</time>
      </trkpt>
      <trkpt lat="43.23774" lon="2.65286">
        <ele>53</ele>
        <time>2015-08-02T11:45:00.685Z</time>
      </trkpt>
      <trkpt lat="43.23777" lon="2.6529">
        <ele>53</ele>
        <time>2015-08-02T11:45:01.643Z</time>
      </trkpt>
      <trkpt lat="43.23782" lon="2.65297">
        <ele>53.1</ele>
        <time>2015-08-02T11:45:03.712Z</time>
      </trkpt>
      <trkpt lat="43.23784" lon="2.653">
        <ele>53.3</ele>
        <time>2015-08-02T11:45:04.643Z</time>
      </trkpt>
      <trkpt lat="43.23789" lon="2.65306">
        <ele>53.4</ele>
        <time>2015-08-02T11:45:06.689Z</time>
      </trkpt>
      <trkpt lat="43.23792" lon="2.65309">
        <ele>53.7</ele>
        <time>2015-08-02T11:45:07.637Z</time>
      </trkpt>
      <trkpt lat="43.23797" lon="2.65316">
        <ele>53.7</ele>
        <time>2015-08-02T11:45:09.677Z</time>
      </trkpt>
      <trkpt lat="43.23799" lon="2.65319">
        <ele>53.7</ele>
        <time>2015-08-02T11:45:10.631Z</time>
      </trkpt>
      <trkpt lat="43.23804" lon="2.65325">
        <ele>53.7</ele>
        <time>2015-08-02T11:45:12.673Z</time>
      </trkpt>
      <trkpt lat="43.23807" lon="2.65328">
        <ele>53.7</ele>
        <time>2015-08-02T11:45:13.636Z</time>
      </trkpt>
      <trkpt lat="43.23811" lon="2.65334">
        <ele>53.9</ele>
        <time>2015-08-02T11:45:15.861Z</time>
      </trkpt>
      <trkpt lat="43.23814" lon="2.65337">
        <ele>54</ele>
        <time>2015-08-02T11:45:16.635Z</time>
      </trkpt>
      <trkpt lat="43.23818" lon="2.65343">
        <ele>54.1</ele>
        <time>2015-08-02T11:45:18.680Z</time>
      </trkpt>
      <trkpt lat="43.23821" lon="2.65345">
        <ele>54.3</ele>
        <time>2015-08-02T11:45:19.640Z</time>
      </trkpt>
      <trkpt lat="43.23825" lon="2.65352">
        <ele>54.2</ele>
        <time>2015-08-02T11:45:21.681Z</time>
      </trkpt>
      <trkpt lat="43.23828" lon="2.65355">
        <ele>54.2</ele>
        <time>2015-08-02T11:45:22.634Z</time>
      </trkpt>
      <trkpt lat="43.23833" lon="2.65361">
        <ele>54.1</ele>
        <time>2015-08-02T11:45:24.700Z</time>
      </trkpt>
      <trkpt lat="43.23835" lon="2.65364">
        <ele>54.1</ele>
        <time>2015-08-02T11:45:25.650Z</time>
      </trkpt>
      <trkpt lat="43.2384" lon="2.65373">
        <ele>54.2</ele>
        <time>2015-08-02T11:45:28.683Z</time>
      </trkpt>
      <trkpt lat="43.23843" lon="2.65376">
        <ele>54.3</ele>
        <time>2015-08-02T11:45:29.638Z</time>
      </trkpt>
      <trkpt lat="43.23849" lon="2.65384">
        <ele>54.4</ele>
        <time>2015-08-02T11:45:32.685Z</time>
      </trkpt>
      <trkpt lat="43.23851" lon="2.65386">
        <ele>54.6</ele>
        <time>2015-08-02T11:45:33.633Z</time>
      </trkpt>
      <trkpt lat="43.23857" lon="2.65394">
        <ele>54.6</ele>
        <time>2015-08-02T11:45:36.682Z</time>
      </trkpt>
      <trkpt lat="43.23859" lon="2.65397">
        <ele>54.4</ele>
        <time>2015-08-02T11:45:37.638Z</time>
      </trkpt>
      <trkpt lat="43.23864" lon="2.65403">
        <ele>54.5</ele>
        <time>2015-08-02T11:45:39.719Z</time>
      </trkpt>
      <trkpt lat="43.23866" lon="2.65406">
        <ele>54.5</ele>
        <time>2015-08-02T11:45:40.637Z</time>
      </trkpt>
      <trkpt lat="43.2387" lon="2.65411">
        <ele>54.8</ele>
        <time>2015-08-02T11:45:43.035Z</time>
      </trkpt>
      <trkpt lat="43.23873" lon="2.65414">
        <ele>54.5</ele>
        <time>2015-08-02T11:45:43.640Z</time>
      </trkpt>
      <trkpt lat="43.23879" lon="2.65423">
        <ele>53.9</ele>
        <time>2015-08-02T11:45:46.686Z</time>
      </trkpt>
      <trkpt lat="43.23881" lon="2.65426">
        <ele>53.7</ele>
        <time>2015-08-02T11:45:47.634Z</time>
      </trkpt>
      <trkpt lat="43.23886" lon="2.65432">
        <ele>53.9</ele>
        <time>2015-08-02T11:45:49.921Z</time>
      </trkpt>
      <trkpt lat="43.23888" lon="2.65434">
        <ele>54.3</ele>
        <time>2015-08-02T11:45:50.631Z</time>
      </trkpt>
      <trkpt lat="43.23893" lon="2.6544">
        <ele>54</ele>
        <time>2015-08-02T11:45:52.676Z</time>
      </trkpt>
      <trkpt lat="43.23896" lon="2.65443">
        <ele>53.6</ele>
        <time>2015-08-02T11:45:53.632Z</time>
      </trkpt>
      <trkpt lat="43.23901" lon="2.65449">
        <ele>54.2</ele>
        <time>2015-08-02T11:45:55.677Z</time>
      </trkpt>
      <trkpt lat="43.23904" lon="2.65452">
        <ele>54.3</ele>
        <time>2015-08-02T11:45:56.645Z</time>
      </trkpt>
      <trkpt lat="43.2391" lon="2.65459">
        <ele>54.2</ele>
        <time>2015-08-02T11:45:58.702Z</time>
      </trkpt>
      <trkpt lat="43.23913" lon="2.65462">
        <ele>54.3</ele>
        <time>2015-08-02T11:45:59.648Z</time>
      </trkpt>
      <trkpt lat="43.23918" lon="2.65468">
        <ele>54.3</ele>
        <time>2015-08-02T11:46:01.682Z</time>
      </trkpt>
      <trkpt lat="43.2392" lon="2.65471">
        <ele>54.4</ele>
        <time>2015-08-02T11:46:02.635Z</time>
      </trkpt>
      <trkpt lat="43.23927" lon="2.65478">
        <ele>54.2</ele>
        <time>2015-08-02T11:46:05.684Z</time>
      </trkpt>
      <trkpt lat="43.23929" lon="2.6548">
        <ele>53.7</ele>
        <time>2015-08-02T11:46:06.637Z</time>
      </trkpt>
      <trkpt lat="43.23936" lon="2.65488">
        <ele>53.4</ele>
        <time>2015-08-02T11:46:09.684Z</time>
      </trkpt>
      <trkpt lat="43.23938" lon="2.6549">
        <ele>53.1</ele>
        <time>2015-08-02T11:46:10.631Z</time>
      </trkpt>
      <trkpt lat="43.23943" lon="2.65496">
        <ele>53</ele>
        <time>2015-08-02T11:46:12.680Z</time>
      </trkpt>
      <trkpt lat="43.23945" lon="2.65498">
        <ele>52.8</ele>
        <time>2015-08-02T11:46:14.571Z</time>
      </trkpt>
      <trkpt lat="43.2395" lon="2.65503">
        <ele>52.7</ele>
        <time>2015-08-02T11:46:15.989Z</time>
      </trkpt>
      <trkpt lat="43.23953" lon="2.65506">
        <ele>52.6</ele>
        <time>2015-08-02T11:46:16.636Z</time>
      </trkpt>
      <trkpt lat="43.23958" lon="2.65511">
        <ele>51.9</ele>
        <time>2015-08-02T11:46:18.678Z</time>
      </trkpt>
      <trkpt lat="43.2396" lon="2.65513">
        <ele>51.8</ele>
        <time>2015-08-02T11:46:19.646Z</time>
      </trkpt>
      <trkpt lat="43.23965" lon="2.65519">
        <ele>51.6</ele>
        <time>2015-08-02T11:46:21.682Z</time>
      </trkpt>
      <trkpt lat="43.23968" lon="2.65521">
        <ele>51.6</ele>
        <time>2015-08-02T11:46:22.635Z</time>
      </trkpt>
      <trkpt lat="43.23973" lon="2.65526">
        <ele>51</ele>
        <time>2015-08-02T11:46:24.680Z</time>
      </trkpt>
      <trkpt lat="43.23976" lon="2.65528">
        <ele>51</ele>
        <time>2015-08-02T11:46:25.637Z</time>
      </trkpt>
      <trkpt lat="43.23983" lon="2.65534">
        <ele>50.6</ele>
        <time>2015-08-02T11:46:28.681Z</time>
      </trkpt>
      <trkpt lat="43.23986" lon="2.65536">
        <ele>50.4</ele>
        <time>2015-08-02T11:46:29.636Z</time>
      </trkpt>
      <trkpt lat="43.23991" lon="2.6554">
        <ele>50.1</ele>
        <time>2015-08-02T11:46:31.692Z</time>
      </trkpt>
      <trkpt lat="43.23994" lon="2.65542">
        <ele>49.9</ele>
        <time>2015-08-02T11:46:32.634Z</time>
      </trkpt>
      <trkpt lat="43.24" lon="2.65546">
        <ele>49.7</ele>
        <time>2015-08-02T11:46:34.736Z</time>
      </trkpt>
      <trkpt lat="43.24002" lon="2.65548">
        <ele>49.8</ele>
        <time>2015-08-02T11:46:35.634Z</time>
      </trkpt>
      <trkpt lat="43.24008" lon="2.65552">
        <ele>49.6</ele>
        <time>2015-08-02T11:46:37.680Z</time>
      </trkpt>
      <trkpt lat="43.24011" lon="2.65553">
        <ele>49.2</ele>
        <time>2015-08-02T11:46:38.633Z</time>
      </trkpt>
      <trkpt lat="43.24016" lon="2.65557">
        <ele>48.6</ele>
        <time>2015-08-02T11:46:40.694Z</time>
      </trkpt>
      <trkpt lat="43.24019" lon="2.65558">
        <ele>48.2</ele>
        <time>2015-08-02T11:46:41.635Z</time>
      </trkpt>
      <trkpt lat="43.24025" lon="2.65562">
        <ele>48.1</ele>
        <time>2015-08-02T11:46:43.683Z</time>
      </trkpt>
      <trkpt lat="43.24027" lon="2.65564">
        <ele>47.8</ele>
        <time>2015-08-02T11:46:44.633Z</time>
      </trkpt>
      <trkpt lat="43.24033" lon="2.65567">
        <ele>47.7</ele>
        <time>2015-08-02T11:46:47.019Z</time>
      </trkpt>
      <trkpt lat="43.24036" lon="2.65569">
        <ele>47.9</ele>
        <time>2015-08-02T11:46:47.637Z</time>
      </trkpt>
      <trkpt lat="43.24044" lon="2.65574">
        <ele>47.8</ele>
        <time>2015-08-02T11:46:50.683Z</time>
      </trkpt>
      <trkpt lat="43.24047" lon="2.65575">
        <ele>47.8</ele>
        <time>2015-08-02T11:46:51.631Z</time>
      </trkpt>
      <trkpt lat="43.24055" lon="2.6558">
        <ele>48</ele>
        <time>2015-08-02T11:46:54.680Z</time>
      </trkpt>
      <trkpt lat="43.24058" lon="2.65581">
        <ele>47.9</ele>
        <time>2015-08-02T11:46:55.639Z</time>
      </trkpt>
      <trkpt lat="43.24064" lon="2.65584">
        <ele>47.8</ele>
        <time>2015-08-02T11:46:57.692Z</time>
      </trkpt>
      <trkpt lat="43.24066" lon="2.65586">
        <ele>47.6</ele>
        <time>2015-08-02T11:46:58.631Z</time>
      </trkpt>
      <trkpt lat="43.24075" lon="2.6559">
        <ele>47.4</ele>
        <time>2015-08-02T11:47:01.685Z</time>
      </trkpt>
      <trkpt lat="43.24078" lon="2.65592">
        <ele>47.2</ele>
        <time>2015-08-02T11:47:02.634Z</time>
      </trkpt>
      <trkpt lat="43.24083" lon="2.65595">
        <ele>47.3</ele>
        <time>2015-08-02T11:47:04.688Z</time>
      </trkpt>
      <trkpt lat="43.24086" lon="2.65596">
        <ele>47.1</ele>
        <time>2015-08-02T11:47:05.634Z</time>
      </trkpt>
      <trkpt lat="43.24092" lon="2.65599">
        <ele>48.2</ele>
        <time>2015-08-02T11:47:07.686Z</time>
      </trkpt>
      <trkpt lat="43.24095" lon="2.65601">
        <ele>47.8</ele>
        <time>2015-08-02T11:47:08.632Z</time>
      </trkpt>
      <trkpt lat="43.24101" lon="2.65606">
        <ele>48.4</ele>
        <time>2015-08-02T11:47:10.700Z</time>
      </trkpt>
      <trkpt lat="43.24104" lon="2.65608">
        <ele>48.5</ele>
        <time>2015-08-02T11:47:11.648Z</time>
      </trkpt>
      <trkpt lat="43.2411" lon="2.65611">
        <ele>48.7</ele>
        <time>2015-08-02T11:47:13.682Z</time>
      </trkpt>
      <trkpt lat="43.24112" lon="2.65614">
        <ele>48.9</ele>
        <time>2015-08-02T11:47:14.637Z</time>
      </trkpt>
      <trkpt lat="43.24118" lon="2.65619">
        <ele>48.8</ele>
        <time>2015-08-02T11:47:16.687Z</time>
      </trkpt>
      <trkpt lat="43.2412" lon="2.65621">
        <ele>48.4</ele>
        <time>2015-08-02T11:47:17.634Z</time>
      </trkpt>
      <trkpt lat="43.24125" lon="2.65626">
        <ele>48.5</ele>
        <time>2015-08-02T11:47:19.808Z</time>
      </trkpt>
      <trkpt lat="43.24127" lon="2.65629">
        <ele>48.8</ele>
        <time>2015-08-02T11:47:20.634Z</time>
      </trkpt>
      <trkpt lat="43.24132" lon="2.65634">
        <ele>49.2</ele>
        <time>2015-08-02T11:47:22.685Z</time>
      </trkpt>
      <trkpt lat="43.24135" lon="2.65636">
        <ele>49</ele>
        <time>2015-08-02T11:47:23.634Z</time>
      </trkpt>
      <trkpt lat="43.2414" lon="2.65642">
        <ele>49.2</ele>
        <time>2015-08-02T11:47:25.739Z</time>
      </trkpt>
      <trkpt lat="43.24142" lon="2.65645">
        <ele>48.7</ele>
        <time>2015-08-02T11:47:26.634Z</time>
      </trkpt>
      <trkpt lat="43.24146" lon="2.65652">
        <ele>49.3</ele>
        <time>2015-08-02T11:47:28.686Z</time>
      </trkpt>
      <trkpt lat="43.24148" lon="2.65655">
        <ele>49.3</ele>
        <time>2015-08-02T11:47:29.633Z</time>
      </trkpt>
      <trkpt lat="43.24152" lon="2.65662">
        <ele>48.6</ele>
        <time>2015-08-02T11:47:32.022Z</time>
      </trkpt>
      <trkpt lat="43.24154" lon="2.65665">
        <ele>48.4</ele>
        <time>2015-08-02T11:47:32.632Z</time>
      </trkpt>
      <trkpt lat="43.24158" lon="2.65673">
        <ele>48.4</ele>
        <time>2015-08-02T11:47:34.683Z</time>
      </trkpt>
      <trkpt lat="43.2416" lon="2.65677">
        <ele>49.2</ele>
        <time>2015-08-02T11:47:35.634Z</time>
      </trkpt>
      <trkpt lat="43.24164" lon="2.65684">
        <ele>49.5</ele>
        <time>2015-08-02T11:47:37.689Z</time>
      </trkpt>
      <trkpt lat="43.24166" lon="2.65688">
        <ele>49.1</ele>
        <time>2015-08-02T11:47:38.634Z</time>
      </trkpt>
      <trkpt lat="43.24169" lon="2.65695">
        <ele>49</ele>
        <time>2015-08-02T11:47:40.680Z</time>
      </trkpt>
      <trkpt lat="43.24171" lon="2.65699">
        <ele>48.6</ele>
        <time>2015-08-02T11:47:41.637Z</time>
      </trkpt>
      <trkpt lat="43.24174" lon="2.65706">
        <ele>48.7</ele>
        <time>2015-08-02T11:47:43.685Z</time>
      </trkpt>
      <trkpt lat="43.24176" lon="2.6571">
        <ele>48.7</ele>
        <time>2015-08-02T11:47:44.634Z</time>
      </trkpt>
      <trkpt lat="43.24181" lon="2.6572">
        <ele>48.9</ele>
        <time>2015-08-02T11:47:47.687Z</time>
      </trkpt>
      <trkpt lat="43.24182" lon="2.65723">
        <ele>49.1</ele>
        <time>2015-08-02T11:47:48.634Z</time>
      </trkpt>
      <trkpt lat="43.24187" lon="2.65732">
        <ele>49</ele>
        <time>2015-08-02T11:47:51.680Z</time>
      </trkpt>
      <trkpt lat="43.24188" lon="2.65735">
        <ele>49</ele>
        <time>2015-08-02T11:47:52.634Z</time>
      </trkpt>
      <trkpt lat="43.24192" lon="2.65745">
        <ele>49</ele>
        <time>2015-08-02T11:47:55.682Z</time>
      </trkpt>
      <trkpt lat="43.24194" lon="2.65748">
        <ele>49.2</ele>
        <time>2015-08-02T11:47:56.634Z</time>
      </trkpt>
      <trkpt lat="43.24197" lon="2.65755">
        <ele>49.4</ele>
        <time>2015-08-02T11:47:58.693Z</time>
      </trkpt>
      <trkpt lat="43.24199" lon="2.65758">
        <ele>49.4</ele>
        <time>2015-08-02T11:47:59.636Z</time>
      </trkpt>
      <trkpt lat="43.24203" lon="2.65766">
        <ele>49.7</ele>
        <time>2015-08-02T11:48:01.684Z</time>
      </trkpt>
      <trkpt lat="43.24205" lon="2.6577">
        <ele>49.7</ele>
        <time>2015-08-02T11:48:02.635Z</time>
      </trkpt>
      <trkpt lat="43.2421" lon="2.6578">
        <ele>49.8</ele>
        <time>2015-08-02T11:48:05.684Z</time>
      </trkpt>
      <trkpt lat="43.24211" lon="2.65783">
        <ele>49.8</ele>
        <time>2015-08-02T11:48:06.634Z</time>
      </trkpt>
      <trkpt lat="43.24216" lon="2.65793">
        <ele>50.1</ele>
        <time>2015-08-02T11:48:09.675Z</time>
      </trkpt>
      <trkpt lat="43.24217" lon="2.65796">
        <ele>50.1</ele>
        <time>2015-08-02T11:48:10.634Z</time>
      </trkpt>
      <trkpt lat="43.24221" lon="2.65806">
        <ele>50</ele>
        <time>2015-08-02T11:48:13.687Z</time>
      </trkpt>
      <trkpt lat="43.24223" lon="2.6581">
        <ele>49.9</ele>
        <time>2015-08-02T11:48:14.644Z</time>
      </trkpt>
      <trkpt lat="43.24227" lon="2.6582">
        <ele>49.9</ele>
        <time>2015-08-02T11:48:17.684Z</time>
      </trkpt>
      <trkpt lat="43.24228" lon="2.65824">
        <ele>50</ele>
        <time>2015-08-02T11:48:18.633Z</time>
      </trkpt>
      <trkpt lat="43.24231" lon="2.65831">
        <ele>50</ele>
        <time>2015-08-02T11:48:20.716Z</time>
      </trkpt>
      <trkpt lat="43.24233" lon="2.65834">
        <ele>50.1</ele>
        <time>2015-08-02T11:48:21.644Z</time>
      </trkpt>
      <trkpt lat="43.24237" lon="2.65845">
        <ele>50.1</ele>
        <time>2015-08-02T11:48:24.684Z</time>
      </trkpt>
      <trkpt lat="43.24238" lon="2.65848">
        <ele>50</ele>
        <time>2015-08-02T11:48:25.635Z</time>
      </trkpt>
      <trkpt lat="43.24241" lon="2.65855">
        <ele>50</ele>
        <time>2015-08-02T11:48:27.706Z</time>
      </trkpt>
      <trkpt lat="43.24243" lon="2.65859">
        <ele>49.8</ele>
        <time>2015-08-02T11:48:28.635Z</time>
      </trkpt>
      <trkpt lat="43.24246" lon="2.65869">
        <ele>49.5</ele>
        <time>2015-08-02T11:48:31.685Z</time>
      </trkpt>
      <trkpt lat="43.24247" lon="2.65873">
        <ele>49.5</ele>
        <time>2015-08-02T11:48:32.636Z</time>
      </trkpt>
      <trkpt lat="43.24251" lon="2.65883">
        <ele>49.3</ele>
        <time>2015-08-02T11:48:35.677Z</time>
      </trkpt>
      <trkpt lat="43.24252" lon="2.65887">
        <ele>49.3</ele>
        <time>2015-08-02T11:48:36.633Z</time>
      </trkpt>
      <trkpt lat="43.24255" lon="2.65894">
        <ele>49.4</ele>
        <time>2015-08-02T11:48:38.730Z</time>
      </trkpt>
      <trkpt lat="43.24256" lon="2.65898">
        <ele>49.2</ele>
        <time>2015-08-02T11:48:39.633Z</time>
      </trkpt>
      <trkpt lat="43.2426" lon="2.65909">
        <ele>49.3</ele>
        <time>2015-08-02T11:48:42.682Z</time>
      </trkpt>
      <trkpt lat="43.24262" lon="2.65913">
        <ele>49.3</ele>
        <time>2015-08-02T11:48:43.639Z</time>
      </trkpt>
      <trkpt lat="43.24264" lon="2.65921">
        <ele>49.2</ele>
        <time>2015-08-02T11:48:45.722Z</time>
      </trkpt>
      <trkpt lat="43.24266" lon="2.65925">
        <ele>49.2</ele>
        <time>2015-08-02T11:48:46.644Z</time>
      </trkpt>
      <trkpt lat="43.24269" lon="2.65932">
        <ele>49.1</ele>
        <time>2015-08-02T11:48:48.681Z</time>
      </trkpt>
      <trkpt lat="43.2427" lon="2.65936">
        <ele>49.2</ele>
        <time>2015-08-02T11:48:49.644Z</time>
      </trkpt>
      <trkpt lat="43.24272" lon="2.65944">
        <ele>49.2</ele>
        <time>2015-08-02T11:48:51.705Z</time>
      </trkpt>
      <trkpt lat="43.24273" lon="2.65948">
        <ele>49.2</ele>
        <time>2015-08-02T11:48:52.635Z</time>
      </trkpt>
      <trkpt lat="43.24276" lon="2.65956">
        <ele>49.1</ele>
        <time>2015-08-02T11:48:54.680Z</time>
      </trkpt>
      <trkpt lat="43.24278" lon="2.6596">
        <ele>49.1</ele>
        <time>2015-08-02T11:48:55.639Z</time>
      </trkpt>
      <trkpt lat="43.24281" lon="2.65968">
        <ele>48.8</ele>
        <time>2015-08-02T11:48:58.054Z</time>
      </trkpt>
      <trkpt lat="43.24282" lon="2.65972">
        <ele>48.9</ele>
        <time>2015-08-02T11:48:58.634Z</time>
      </trkpt>
      <trkpt lat="43.24285" lon="2.65979">
        <ele>48.8</ele>
        <time>2015-08-02T11:49:00.687Z</time>
      </trkpt>
      <trkpt lat="43.24287" lon="2.65983">
        <ele>48.7</ele>
        <time>2015-08-02T11:49:01.638Z</time>
      </trkpt>
      <trkpt lat="43.24291" lon="2.65993">
        <ele>48.6</ele>
        <time>2015-08-02T11:49:04.701Z</time>
      </trkpt>
      <trkpt lat="43.24293" lon="2.65996">
        <ele>48.6</ele>
        <time>2015-08-02T11:49:05.648Z</time>
      </trkpt>
      <trkpt lat="43.24296" lon="2.66003">
        <ele>48.6</ele>
        <time>2015-08-02T11:49:07.698Z</time>
      </trkpt>
      <trkpt lat="43.24298" lon="2.66006">
        <ele>48.6</ele>
        <time>2015-08-02T11:49:08.637Z</time>
      </trkpt>
      <trkpt lat="43.24303" lon="2.66013">
        <ele>48.7</ele>
        <time>2015-08-02T11:49:10.680Z</time>
      </trkpt>
      <trkpt lat="43.24305" lon="2.66017">
        <ele>48.6</ele>
        <time>2015-08-02T11:49:11.635Z</time>
      </trkpt>
      <trkpt lat="43.24309" lon="2.66023">
        <ele>48.8</ele>
        <time>2015-08-02T11:49:13.720Z</time>
      </trkpt>
      <trkpt lat="43.24311" lon="2.66026">
        <ele>48.7</ele>
        <time>2015-08-02T11:49:14.637Z</time>
      </trkpt>
      <trkpt lat="43.24315" lon="2.66032">
        <ele>49.4</ele>
        <time>2015-08-02T11:49:16.680Z</time>
      </trkpt>
      <trkpt lat="43.24318" lon="2.66035">
        <ele>49.6</ele>
        <time>2015-08-02T11:49:17.648Z</time>
      </trkpt>
      <trkpt lat="43.24322" lon="2.6604">
        <ele>50.2</ele>
        <time>2015-08-02T11:49:19.687Z</time>
      </trkpt>
      <trkpt lat="43.24325" lon="2.66043">
        <ele>50.3</ele>
        <time>2015-08-02T11:49:20.645Z</time>
      </trkpt>
      <trkpt lat="43.24331" lon="2.66051">
        <ele>49.9</ele>
        <time>2015-08-02T11:49:23.684Z</time>
      </trkpt>
      <trkpt lat="43.24334" lon="2.66053">
        <ele>50.2</ele>
        <time>2015-08-02T11:49:24.633Z</time>
      </trkpt>
      <trkpt lat="43.24341" lon="2.6606">
        <ele>50.5</ele>
        <time>2015-08-02T11:49:27.698Z</time>
      </trkpt>
      <trkpt lat="43.24343" lon="2.66062">
        <ele>50.3</ele>
        <time>2015-08-02T11:49:28.645Z</time>
      </trkpt>
      <trkpt lat="43.2435" lon="2.66069">
        <ele>50.1</ele>
        <time>2015-08-02T11:49:32.040Z</time>
      </trkpt>
      <trkpt lat="43.24353" lon="2.66071">
        <ele>50.1</ele>
        <time>2015-08-02T11:49:32.670Z</time>
      </trkpt>
      <trkpt lat="43.24358" lon="2.66077">
        <ele>50</ele>
        <time>2015-08-02T11:49:34.676Z</time>
      </trkpt>
      <trkpt lat="43.24361" lon="2.6608">
        <ele>49.9</ele>
        <time>2015-08-02T11:49:35.631Z</time>
      </trkpt>
      <trkpt lat="43.24366" lon="2.66085">
        <ele>49.5</ele>
        <time>2015-08-02T11:49:37.689Z</time>
      </trkpt>
      <trkpt lat="43.24369" lon="2.66087">
        <ele>49.7</ele>
        <time>2015-08-02T11:49:38.636Z</time>
      </trkpt>
      <trkpt lat="43.24374" lon="2.66092">
        <ele>50</ele>
        <time>2015-08-02T11:49:40.684Z</time>
      </trkpt>
      <trkpt lat="43.24377" lon="2.66095">
        <ele>49.6</ele>
        <time>2015-08-02T11:49:41.637Z</time>
      </trkpt>
      <trkpt lat="43.24383" lon="2.66101">
        <ele>48.9</ele>
        <time>2015-08-02T11:49:44.687Z</time>
      </trkpt>
      <trkpt lat="43.24385" lon="2.66103">
        <ele>48.7</ele>
        <time>2015-08-02T11:49:45.648Z</time>
      </trkpt>
      <trkpt lat="43.24392" lon="2.66109">
        <ele>49.3</ele>
        <time>2015-08-02T11:49:48.686Z</time>
      </trkpt>
      <trkpt lat="43.24394" lon="2.66111">
        <ele>49.1</ele>
        <time>2015-08-02T11:49:49.640Z</time>
      </trkpt>
      <trkpt lat="43.24401" lon="2.66115">
        <ele>48.2</ele>
        <time>2015-08-02T11:49:52.702Z</time>
      </trkpt>
      <trkpt lat="43.24404" lon="2.66116">
        <ele>48.8</ele>
        <time>2015-08-02T11:49:53.645Z</time>
      </trkpt>
      <trkpt lat="43.24409" lon="2.6612">
        <ele>49</ele>
        <time>2015-08-02T11:49:55.686Z</time>
      </trkpt>
      <trkpt lat="43.24412" lon="2.66122">
        <ele>49.5</ele>
        <time>2015-08-02T11:49:56.632Z</time>
      </trkpt>
      <trkpt lat="43.24419" lon="2.66125">
        <ele>49.2</ele>
        <time>2015-08-02T11:49:59.685Z</time>
      </trkpt>
      <trkpt lat="43.24422" lon="2.66126">
        <ele>49.3</ele>
        <time>2015-08-02T11:50:00.637Z</time>
      </trkpt>
      <trkpt lat="43.24429" lon="2.6613">
        <ele>49</ele>
        <time>2015-08-02T11:50:03.756Z</time>
      </trkpt>
      <trkpt lat="43.24432" lon="2.66131">
        <ele>48.7</ele>
        <time>2015-08-02T11:50:04.633Z</time>
      </trkpt>
      <trkpt lat="43.24438" lon="2.66134">
        <ele>49.6</ele>
        <time>2015-08-02T11:50:06.682Z</time>
      </trkpt>
      <trkpt lat="43.24441" lon="2.66135">
        <ele>49.1</ele>
        <time>2015-08-02T11:50:07.643Z</time>
      </trkpt>
      <trkpt lat="43.24447" lon="2.66136">
        <ele>48.5</ele>
        <time>2015-08-02T11:50:09.690Z</time>
      </trkpt>
      <trkpt lat="43.2445" lon="2.66136">
        <ele>48.4</ele>
        <time>2015-08-02T11:50:10.644Z</time>
      </trkpt>
      <trkpt lat="43.24459" lon="2.66135">
        <ele>47.4</ele>
        <time>2015-08-02T11:50:13.704Z</time>
      </trkpt>
      <trkpt lat="43.24462" lon="2.66135">
        <ele>47.3</ele>
        <time>2015-08-02T11:50:14.645Z</time>
      </trkpt>
      <trkpt lat="43.2447" lon="2.66133">
        <ele>47.1</ele>
        <time>2015-08-02T11:50:17.687Z</time>
      </trkpt>
      <trkpt lat="43.24473" lon="2.66132">
        <ele>47</ele>
        <time>2015-08-02T11:50:18.635Z</time>
      </trkpt>
      <trkpt lat="43.2448" lon="2.6613">
        <ele>46.7</ele>
        <time>2015-08-02T11:50:21.702Z</time>
      </trkpt>
      <trkpt lat="43.24482" lon="2.66129">
        <ele>46.5</ele>
        <time>2015-08-02T11:50:22.645Z</time>
      </trkpt>
      <trkpt lat="43.24488" lon="2.66128">
        <ele>46.2</ele>
        <time>2015-08-02T11:50:24.681Z</time>
      </trkpt>
      <trkpt lat="43.24492" lon="2.66127">
        <ele>46.1</ele>
        <time>2015-08-02T11:50:25.637Z</time>
      </trkpt>
      <trkpt lat="43.24497" lon="2.66125">
        <ele>46</ele>
        <time>2015-08-02T11:50:27.683Z</time>
      </trkpt>
      <trkpt lat="43.245" lon="2.66123">
        <ele>45.8</ele>
        <time>2015-08-02T11:50:28.634Z</time>
      </trkpt>
      <trkpt lat="43.24507" lon="2.66119">
        <ele>45.8</ele>
        <time>2015-08-02T11:50:30.717Z</time>
      </trkpt>
      <trkpt lat="43.2451" lon="2.66118">
        <ele>45.7</ele>
        <time>2015-08-02T11:50:31.650Z</time>
      </trkpt>
      <trkpt lat="43.24517" lon="2.66115">
        <ele>45.4</ele>
        <time>2015-08-02T11:50:33.683Z</time>
      </trkpt>
      <trkpt lat="43.2452" lon="2.66113">
        <ele>45.3</ele>
        <time>2015-08-02T11:50:34.635Z</time>
      </trkpt>
      <trkpt lat="43.24527" lon="2.66109">
        <ele>45.2</ele>
        <time>2015-08-02T11:50:36.832Z</time>
      </trkpt>
      <trkpt lat="43.2453" lon="2.66108">
        <ele>45.1</ele>
        <time>2015-08-02T11:50:37.821Z</time>
      </trkpt>
      <trkpt lat="43.24537" lon="2.66104">
        <ele>44.7</ele>
        <time>2015-08-02T11:50:39.682Z</time>
      </trkpt>
      <trkpt lat="43.24541" lon="2.66102">
        <ele>44.7</ele>
        <time>2015-08-02T11:50:40.634Z</time>
      </trkpt>
      <trkpt lat="43.24547" lon="2.66098">
        <ele>44.5</ele>
        <time>2015-08-02T11:50:42.678Z</time>
      </trkpt>
      <trkpt lat="43.2455" lon="2.66096">
        <ele>44.8</ele>
        <time>2015-08-02T11:50:43.638Z</time>
      </trkpt>
      <trkpt lat="43.24557" lon="2.66092">
        <ele>45.3</ele>
        <time>2015-08-02T11:50:45.703Z</time>
      </trkpt>
      <trkpt lat="43.2456" lon="2.6609">
        <ele>45.5</ele>
        <time>2015-08-02T11:50:46.645Z</time>
      </trkpt>
      <trkpt lat="43.24567" lon="2.66086">
        <ele>46</ele>
        <time>2015-08-02T11:50:49.033Z</time>
      </trkpt>
      <trkpt lat="43.2457" lon="2.66084">
        <ele>45.4</ele>
        <time>2015-08-02T11:50:49.637Z</time>
      </trkpt>
      <trkpt lat="43.24576" lon="2.66079">
        <ele>45.1</ele>
        <time>2015-08-02T11:50:51.679Z</time>
      </trkpt>
      <trkpt lat="43.2458" lon="2.66076">
        <ele>44.7</ele>
        <time>2015-08-02T11:50:52.657Z</time>
      </trkpt>
      <trkpt lat="43.24586" lon="2.66071">
        <ele>44.6</ele>
        <time>2015-08-02T11:50:54.671Z</time>
      </trkpt>
      <trkpt lat="43.2459" lon="2.66068">
        <ele>44.6</ele>
        <time>2015-08-02T11:50:55.634Z</time>
      </trkpt>
      <trkpt lat="43.24597" lon="2.66063">
        <ele>44.7</ele>
        <time>2015-08-02T11:50:57.669Z</time>
      </trkpt>
      <trkpt lat="43.24601" lon="2.66061">
        <ele>44.9</ele>
        <time>2015-08-02T11:50:58.634Z</time>
      </trkpt>
      <trkpt lat="43.24608" lon="2.66055">
        <ele>45</ele>
        <time>2015-08-02T11:51:00.700Z</time>
      </trkpt>
      <trkpt lat="43.24612" lon="2.66053">
        <ele>44.9</ele>
        <time>2015-08-02T11:51:01.647Z</time>
      </trkpt>
      <trkpt lat="43.24619" lon="2.66047">
        <ele>45.4</ele>
        <time>2015-08-02T11:51:03.683Z</time>
      </trkpt>
      <trkpt lat="43.24623" lon="2.66045">
        <ele>45.9</ele>
        <time>2015-08-02T11:51:04.634Z</time>
      </trkpt>
      <trkpt lat="43.2463" lon="2.66041">
        <ele>46.3</ele>
        <time>2015-08-02T11:51:06.674Z</time>
      </trkpt>
      <trkpt lat="43.24634" lon="2.66038">
        <ele>46.4</ele>
        <time>2015-08-02T11:51:07.638Z</time>
      </trkpt>
      <trkpt lat="43.24641" lon="2.66034">
        <ele>47</ele>
        <time>2015-08-02T11:51:09.678Z</time>
      </trkpt>
      <trkpt lat="43.24644" lon="2.66031">
        <ele>47</ele>
        <time>2015-08-02T11:51:10.635Z</time>
      </trkpt>
      <trkpt lat="43.2465" lon="2.66026">
        <ele>47.4</ele>
        <time>2015-08-02T11:51:12.675Z</time>
      </trkpt>
      <trkpt lat="43.24654" lon="2.66024">
        <ele>47.7</ele>
        <time>2015-08-02T11:51:13.640Z</time>
      </trkpt>
      <trkpt lat="43.24661" lon="2.6602">
        <ele>48.2</ele>
        <time>2015-08-02T11:51:15.681Z</time>
      </trkpt>
      <trkpt lat="43.24664" lon="2.66017">
        <ele>48.1</ele>
        <time>2015-08-02T11:51:16.633Z</time>
      </trkpt>
      <trkpt lat="43.24671" lon="2.66013">
        <ele>48.5</ele>
        <time>2015-08-02T11:51:18.677Z</time>
      </trkpt>
      <trkpt lat="43.24675" lon="2.66011">
        <ele>48.4</ele>
        <time>2015-08-02T11:51:19.637Z</time>
      </trkpt>
      <trkpt lat="43.24682" lon="2.66006">
        <ele>48.2</ele>
        <time>2015-08-02T11:51:21.699Z</time>
      </trkpt>
      <trkpt lat="43.24686" lon="2.66004">
        <ele>47.9</ele>
        <time>2015-08-02T11:51:22.652Z</time>
      </trkpt>
      <trkpt lat="43.24692" lon="2.66">
        <ele>47.6</ele>
        <time>2015-08-02T11:51:24.677Z</time>
      </trkpt>
      <trkpt lat="43.24696" lon="2.65998">
        <ele>47.4</ele>
        <time>2015-08-02T11:51:25.647Z</time>
      </trkpt>
      <trkpt lat="43.24703" lon="2.65994">
        <ele>47.8</ele>
        <time>2015-08-02T11:51:27.679Z</time>
      </trkpt>
      <trkpt lat="43.24706" lon="2.65992">
        <ele>47.8</ele>
        <time>2015-08-02T11:51:28.638Z</time>
      </trkpt>
      <trkpt lat="43.24712" lon="2.65989">
        <ele>48.1</ele>
        <time>2015-08-02T11:51:30.695Z</time>
      </trkpt>
      <trkpt lat="43.24715" lon="2.65987">
        <ele>48.8</ele>
        <time>2015-08-02T11:51:31.654Z</time>
      </trkpt>
      <trkpt lat="43.24721" lon="2.65983">
        <ele>49.5</ele>
        <time>2015-08-02T11:51:33.673Z</time>
      </trkpt>
      <trkpt lat="43.24723" lon="2.65981">
        <ele>50.3</ele>
        <time>2015-08-02T11:51:34.634Z</time>
      </trkpt>
      <trkpt lat="43.2473" lon="2.65975">
        <ele>51.1</ele>
        <time>2015-08-02T11:51:37.673Z</time>
      </trkpt>
      <trkpt lat="43.24733" lon="2.65973">
        <ele>51.3</ele>
        <time>2015-08-02T11:51:38.633Z</time>
      </trkpt>
      <trkpt lat="43.24741" lon="2.65971">
        <ele>51</ele>
        <time>2015-08-02T11:51:41.676Z</time>
      </trkpt>
      <trkpt lat="43.24743" lon="2.65971">
        <ele>50.7</ele>
        <time>2015-08-02T11:51:42.637Z</time>
      </trkpt>
      <trkpt lat="43.24751" lon="2.6597">
        <ele>50.7</ele>
        <time>2015-08-02T11:51:46.678Z</time>
      </trkpt>
      <trkpt lat="43.24752" lon="2.65969">
        <ele>50.6</ele>
        <time>2015-08-02T11:51:47.651Z</time>
      </trkpt>
      <trkpt lat="43.24756" lon="2.65959">
        <ele>51.1</ele>
        <time>2015-08-02T11:51:54.684Z</time>
      </trkpt>
      <trkpt lat="43.24756" lon="2.65957">
        <ele>51.4</ele>
        <time>2015-08-02T11:51:55.651Z</time>
      </trkpt>
      <trkpt lat="43.24756" lon="2.65946">
        <ele>52.3</ele>
        <time>2015-08-02T11:52:01.674Z</time>
      </trkpt>
      <trkpt lat="43.24756" lon="2.65944">
        <ele>52.3</ele>
        <time>2015-08-02T11:52:02.635Z</time>
      </trkpt>
      <trkpt lat="43.24758" lon="2.65935">
        <ele>52.4</ele>
        <time>2015-08-02T11:52:06.681Z</time>
      </trkpt>
      <trkpt lat="43.24759" lon="2.65931">
        <ele>52.5</ele>
        <time>2015-08-02T11:52:07.636Z</time>
      </trkpt>
      <trkpt lat="43.24761" lon="2.65922">
        <ele>52.3</ele>
        <time>2015-08-02T11:52:10.681Z</time>
      </trkpt>
      <trkpt lat="43.24762" lon="2.65919">
        <ele>52.2</ele>
        <time>2015-08-02T11:52:11.649Z</time>
      </trkpt>
      <trkpt lat="43.24763" lon="2.65908">
        <ele>52.1</ele>
        <time>2015-08-02T11:52:15.054Z</time>
      </trkpt>
      <trkpt lat="43.24764" lon="2.65903">
        <ele>52.1</ele>
        <time>2015-08-02T11:52:15.637Z</time>
      </trkpt>
      <trkpt lat="43.24766" lon="2.65895">
        <ele>52.1</ele>
        <time>2015-08-02T11:52:17.678Z</time>
      </trkpt>
      <trkpt lat="43.24767" lon="2.6589">
        <ele>52.1</ele>
        <time>2015-08-02T11:52:18.636Z</time>
      </trkpt>
      <trkpt lat="43.24768" lon="2.65882">
        <ele>52.3</ele>
        <time>2015-08-02T11:52:20.704Z</time>
      </trkpt>
      <trkpt lat="43.24769" lon="2.65878">
        <ele>52.3</ele>
        <time>2015-08-02T11:52:21.649Z</time>
      </trkpt>
      <trkpt lat="43.24764" lon="2.65885">
        <ele>52.2</ele>
        <time>2015-08-02T11:52:28.679Z</time>
      </trkpt>
      <trkpt lat="43.24763" lon="2.65889">
        <ele>52</ele>
        <time>2015-08-02T11:52:29.639Z</time>
      </trkpt>
      <trkpt lat="43.24759" lon="2.659">
        <ele>51.2</ele>
        <time>2015-08-02T11:52:33.679Z</time>
      </trkpt>
      <trkpt lat="43.24758" lon="2.65902">
        <ele>50.9</ele>
        <time>2015-08-02T11:52:34.634Z</time>
      </trkpt>
      <trkpt lat="43.24753" lon="2.65911">
        <ele>50.3</ele>
        <time>2015-08-02T11:52:38.672Z</time>
      </trkpt>
      <trkpt lat="43.24752" lon="2.65914">
        <ele>50.3</ele>
        <time>2015-08-02T11:52:39.645Z</time>
      </trkpt>
      <trkpt lat="43.24746" lon="2.65918">
        <ele>50.2</ele>
        <time>2015-08-02T11:52:42.676Z</time>
      </trkpt>
      <trkpt lat="43.24743" lon="2.65919">
        <ele>50.1</ele>
        <time>2015-08-02T11:52:43.636Z</time>
      </trkpt>
      <trkpt lat="43.24736" lon="2.65923">
        <ele>49.7</ele>
        <time>2015-08-02T11:52:46.719Z</time>
      </trkpt>
      <trkpt lat="43.24734" lon="2.65924">
        <ele>49.6</ele>
        <time>2015-08-02T11:52:47.646Z</time>
      </trkpt>
      <trkpt lat="43.24726" lon="2.6593">
        <ele>49.3</ele>
        <time>2015-08-02T11:52:51.682Z</time>
      </trkpt>
      <trkpt lat="43.24724" lon="2.6593">
        <ele>49.1</ele>
        <time>2015-08-02T11:52:52.635Z</time>
      </trkpt>
      <trkpt lat="43.2472" lon="2.65936">
        <ele>42.4</ele>
        <time>2015-08-02T11:54:09.685Z</time>
      </trkpt>
      <trkpt lat="43.24729" lon="2.65931">
        <ele>44.2</ele>
        <time>2015-08-02T11:54:10.636Z</time>
      </trkpt>
      <trkpt lat="43.2473" lon="2.65931">
        <ele>44.3</ele>
        <time>2015-08-02T11:54:20.821Z</time>
      </trkpt>
      <trkpt lat="43.2473" lon="2.6593">
        <ele>44.1</ele>
        <time>2015-08-02T11:54:21.636Z</time>
      </trkpt>
      <trkpt lat="43.24736" lon="2.65922">
        <ele>44.4</ele>
        <time>2015-08-02T11:54:28.673Z</time>
      </trkpt>
      <trkpt lat="43.24738" lon="2.65921">
        <ele>44.5</ele>
        <time>2015-08-02T11:54:29.633Z</time>
      </trkpt>
      <trkpt lat="43.24744" lon="2.65912">
        <ele>45</ele>
        <time>2015-08-02T11:54:34.675Z</time>
      </trkpt>
      <trkpt lat="43.24744" lon="2.65911">
        <ele>45</ele>
        <time>2015-08-02T11:54:35.637Z</time>
      </trkpt>
      <trkpt lat="43.24753" lon="2.65911">
        <ele>45.1</ele>
        <time>2015-08-02T11:54:42.695Z</time>
      </trkpt>
      <trkpt lat="43.24755" lon="2.65911">
        <ele>45.1</ele>
        <time>2015-08-02T11:54:43.650Z</time>
      </trkpt>
      <trkpt lat="43.24762" lon="2.65915">
        <ele>45.6</ele>
        <time>2015-08-02T11:54:48.019Z</time>
      </trkpt>
      <trkpt lat="43.24764" lon="2.65915">
        <ele>45.9</ele>
        <time>2015-08-02T11:54:48.634Z</time>
      </trkpt>
      <trkpt lat="43.24772" lon="2.65915">
        <ele>47</ele>
        <time>2015-08-02T11:54:52.695Z</time>
      </trkpt>
      <trkpt lat="43.24774" lon="2.65915">
        <ele>47.1</ele>
        <time>2015-08-02T11:54:53.648Z</time>
      </trkpt>
      <trkpt lat="43.24782" lon="2.65917">
        <ele>48.5</ele>
        <time>2015-08-02T11:54:56.676Z</time>
      </trkpt>
      <trkpt lat="43.24785" lon="2.65917">
        <ele>50.3</ele>
        <time>2015-08-02T11:54:57.639Z</time>
      </trkpt>
      <trkpt lat="43.2479" lon="2.65921">
        <ele>53.7</ele>
        <time>2015-08-02T11:54:59.679Z</time>
      </trkpt>
      <trkpt lat="43.24793" lon="2.65922">
        <ele>54.9</ele>
        <time>2015-08-02T11:55:00.645Z</time>
      </trkpt>
      <trkpt lat="43.248" lon="2.65926">
        <ele>58</ele>
        <time>2015-08-02T11:55:03.697Z</time>
      </trkpt>
      <trkpt lat="43.24802" lon="2.65928">
        <ele>58.9</ele>
        <time>2015-08-02T11:55:04.645Z</time>
      </trkpt>
      <trkpt lat="43.24809" lon="2.65933">
        <ele>61.5</ele>
        <time>2015-08-02T11:55:07.689Z</time>
      </trkpt>
      <trkpt lat="43.24811" lon="2.65935">
        <ele>62.3</ele>
        <time>2015-08-02T11:55:08.637Z</time>
      </trkpt>
      <trkpt lat="43.24817" lon="2.6594">
        <ele>64.3</ele>
        <time>2015-08-02T11:55:10.676Z</time>
      </trkpt>
      <trkpt lat="43.24819" lon="2.65942">
        <ele>65.2</ele>
        <time>2015-08-02T11:55:11.638Z</time>
      </trkpt>
      <trkpt lat="43.24824" lon="2.65947">
        <ele>66.8</ele>
        <time>2015-08-02T11:55:13.708Z</time>
      </trkpt>
      <trkpt lat="43.24827" lon="2.6595">
        <ele>67.4</ele>
        <time>2015-08-02T11:55:14.646Z</time>
      </trkpt>
      <trkpt lat="43.24832" lon="2.65957">
        <ele>68.8</ele>
        <time>2015-08-02T11:55:16.676Z</time>
      </trkpt>
      <trkpt lat="43.24834" lon="2.6596">
        <ele>69.5</ele>
        <time>2015-08-02T11:55:17.636Z</time>
      </trkpt>
      <trkpt lat="43.24841" lon="2.65967">
        <ele>71.4</ele>
        <time>2015-08-02T11:55:20.673Z</time>
      </trkpt>
      <trkpt lat="43.24843" lon="2.6597">
        <ele>72</ele>
        <time>2015-08-02T11:55:21.649Z</time>
      </trkpt>
      <trkpt lat="43.24847" lon="2.65978">
        <ele>73.4</ele>
        <time>2015-08-02T11:55:24.699Z</time>
      </trkpt>
      <trkpt lat="43.24849" lon="2.6598">
        <ele>73.6</ele>
        <time>2015-08-02T11:55:25.675Z</time>
      </trkpt>
      <trkpt lat="43.24857" lon="2.65984">
        <ele>75.5</ele>
        <time>2015-08-02T11:55:31.673Z</time>
      </trkpt>
      <trkpt lat="43.24858" lon="2.65984">
        <ele>76</ele>
        <time>2015-08-02T11:55:32.632Z</time>
      </trkpt>
      <trkpt lat="43.24863" lon="2.65988">
        <ele>81.1</ele>
        <time>2015-08-02T11:55:47.679Z</time>
      </trkpt>
      <trkpt lat="43.24864" lon="2.65985">
        <ele>80.8</ele>
        <time>2015-08-02T11:55:48.638Z</time>
      </trkpt>
      <trkpt lat="43.24865" lon="2.65982">
        <ele>80.4</ele>
        <time>2015-08-02T11:55:53.707Z</time>
      </trkpt>
      <trkpt lat="43.24865" lon="2.65981">
        <ele>80.5</ele>
        <time>2015-08-02T11:55:54.663Z</time>
      </trkpt>
      <trkpt lat="43.24865" lon="2.65982">
        <ele>79.5</ele>
        <time>2015-08-02T11:58:25.683Z</time>
      </trkpt>
      <trkpt lat="43.24858" lon="2.65974">
        <ele>58.3</ele>
        <time>2015-08-02T11:58:26.645Z</time>
      </trkpt>
      <trkpt lat="43.24857" lon="2.65973">
        <ele>57.9</ele>
        <time>2015-08-02T12:04:24.051Z</time>
      </trkpt>
      <trkpt lat="43.24864" lon="2.65982">
        <ele>48.4</ele>
        <time>2015-08-02T12:04:24.636Z</time>
      </trkpt>
      <trkpt lat="43.24866" lon="2.65983">
        <ele>48.2</ele>
        <time>2015-08-02T12:05:30.673Z</time>
      </trkpt>
      <trkpt lat="43.24874" lon="2.65978">
        <ele>52</ele>
        <time>2015-08-02T12:05:31.639Z</time>
      </trkpt>
      <trkpt lat="43.24874" lon="2.65978">
        <ele>52</ele>
        <time>2015-08-02T12:05:31.686Z</time>
      </trkpt>
      <trkpt lat="43.24875" lon="2.65979">
        <ele>52</ele>
        <time>2015-08-02T12:05:48.717Z</time>
      </trkpt>
      <trkpt lat="43.24883" lon="2.65984">
        <ele>51.7</ele>
        <time>2015-08-02T12:05:49.656Z</time>
      </trkpt>
      <trkpt lat="43.24883" lon="2.65984">
        <ele>51.7</ele>
        <time>2015-08-02T12:05:49.746Z</time>
      </trkpt>
      <trkpt lat="43.24875" lon="2.65985">
        <ele>50.5</ele>
        <time>2015-08-02T12:07:08.698Z</time>
      </trkpt>
      <trkpt lat="43.24868" lon="2.65977">
        <ele>47.2</ele>
        <time>2015-08-02T12:07:09.647Z</time>
      </trkpt>
      <trkpt lat="43.24868" lon="2.65977">
        <ele>47.2</ele>
        <time>2015-08-02T12:07:09.724Z</time>
      </trkpt>
      <trkpt lat="43.24868" lon="2.65977">
        <ele>47.1</ele>
        <time>2015-08-02T12:07:51.682Z</time>
      </trkpt>
      <trkpt lat="43.24859" lon="2.65972">
        <ele>45.9</ele>
        <time>2015-08-02T12:07:52.640Z</time>
      </trkpt>
      <trkpt lat="43.24867" lon="2.65968">
        <ele>44.6</ele>
        <time>2015-08-02T12:08:27.685Z</time>
      </trkpt>
      <trkpt lat="43.24868" lon="2.65969">
        <ele>44.5</ele>
        <time>2015-08-02T12:08:28.820Z</time>
      </trkpt>
      <trkpt lat="43.24868" lon="2.65969">
        <ele>44.3</ele>
        <time>2015-08-02T12:09:08.700Z</time>
      </trkpt>
      <trkpt lat="43.24859" lon="2.65967">
        <ele>45.1</ele>
        <time>2015-08-02T12:09:09.645Z</time>
      </trkpt>
      <trkpt lat="43.24857" lon="2.65964">
        <ele>45.4</ele>
        <time>2015-08-02T12:09:15.681Z</time>
      </trkpt>
      <trkpt lat="43.24853" lon="2.65961">
        <ele>45.7</ele>
        <time>2015-08-02T12:09:16.637Z</time>
      </trkpt>
      <trkpt lat="43.24851" lon="2.65958">
        <ele>46.3</ele>
        <time>2015-08-02T12:09:50.694Z</time>
      </trkpt>
      <trkpt lat="43.2486" lon="2.65959">
        <ele>46</ele>
        <time>2015-08-02T12:09:51.645Z</time>
      </trkpt>
      <trkpt lat="43.2486" lon="2.65961">
        <ele>46.1</ele>
        <time>2015-08-02T12:10:09.715Z</time>
      </trkpt>
      <trkpt lat="43.2486" lon="2.65973">
        <ele>46.2</ele>
        <time>2015-08-02T12:10:10.645Z</time>
      </trkpt>
      <trkpt lat="43.2486" lon="2.65973">
        <ele>46.2</ele>
        <time>2015-08-02T12:10:10.733Z</time>
      </trkpt>
      <trkpt lat="43.24861" lon="2.65974">
        <ele>46.2</ele>
        <time>2015-08-02T12:14:28.674Z</time>
      </trkpt>
      <trkpt lat="43.24867" lon="2.65984">
        <ele>49.2</ele>
        <time>2015-08-02T12:14:29.638Z</time>
      </trkpt>
      <trkpt lat="43.24867" lon="2.65984">
        <ele>49.2</ele>
        <time>2015-08-02T12:14:29.684Z</time>
      </trkpt>
      <trkpt lat="43.24867" lon="2.65987">
        <ele>51.5</ele>
        <time>2015-08-02T12:20:58.683Z</time>
      </trkpt>
      <trkpt lat="43.24861" lon="2.65981">
        <ele>54.8</ele>
        <time>2015-08-02T12:20:59.647Z</time>
      </trkpt>
      <trkpt lat="43.24854" lon="2.65977">
        <ele>55</ele>
        <time>2015-08-02T12:21:03.994Z</time>
      </trkpt>
      <trkpt lat="43.24852" lon="2.65975">
        <ele>55.1</ele>
        <time>2015-08-02T12:21:04.632Z</time>
      </trkpt>
      <trkpt lat="43.24845" lon="2.6597">
        <ele>55.2</ele>
        <time>2015-08-02T12:21:07.669Z</time>
      </trkpt>
      <trkpt lat="43.24843" lon="2.65968">
        <ele>55.2</ele>
        <time>2015-08-02T12:21:08.632Z</time>
      </trkpt>
      <trkpt lat="43.24837" lon="2.65962">
        <ele>55.1</ele>
        <time>2015-08-02T12:21:11.675Z</time>
      </trkpt>
      <trkpt lat="43.24835" lon="2.65959">
        <ele>54.9</ele>
        <time>2015-08-02T12:21:12.634Z</time>
      </trkpt>
      <trkpt lat="43.24828" lon="2.65951">
        <ele>54.8</ele>
        <time>2015-08-02T12:21:15.676Z</time>
      </trkpt>
      <trkpt lat="43.24826" lon="2.65949">
        <ele>54.9</ele>
        <time>2015-08-02T12:21:16.635Z</time>
      </trkpt>
      <trkpt lat="43.24819" lon="2.65942">
        <ele>55</ele>
        <time>2015-08-02T12:21:21.046Z</time>
      </trkpt>
      <trkpt lat="43.24817" lon="2.65941">
        <ele>55</ele>
        <time>2015-08-02T12:21:21.640Z</time>
      </trkpt>
      <trkpt lat="43.2481" lon="2.65934">
        <ele>54.8</ele>
        <time>2015-08-02T12:21:25.682Z</time>
      </trkpt>
      <trkpt lat="43.24808" lon="2.65932">
        <ele>54.5</ele>
        <time>2015-08-02T12:21:26.635Z</time>
      </trkpt>
      <trkpt lat="43.248" lon="2.65927">
        <ele>54</ele>
        <time>2015-08-02T12:21:29.695Z</time>
      </trkpt>
      <trkpt lat="43.24797" lon="2.65926">
        <ele>53.8</ele>
        <time>2015-08-02T12:21:30.644Z</time>
      </trkpt>
      <trkpt lat="43.24792" lon="2.65922">
        <ele>53.8</ele>
        <time>2015-08-02T12:21:32.677Z</time>
      </trkpt>
      <trkpt lat="43.24789" lon="2.6592">
        <ele>53.7</ele>
        <time>2015-08-02T12:21:33.635Z</time>
      </trkpt>
      <trkpt lat="43.24783" lon="2.65915">
        <ele>53</ele>
        <time>2015-08-02T12:21:35.676Z</time>
      </trkpt>
      <trkpt lat="43.2478" lon="2.65913">
        <ele>52.6</ele>
        <time>2015-08-02T12:21:36.636Z</time>
      </trkpt>
      <trkpt lat="43.24774" lon="2.65909">
        <ele>51.9</ele>
        <time>2015-08-02T12:21:38.858Z</time>
      </trkpt>
      <trkpt lat="43.2477" lon="2.65908">
        <ele>51.5</ele>
        <time>2015-08-02T12:21:39.638Z</time>
      </trkpt>
      <trkpt lat="43.24765" lon="2.65902">
        <ele>51.1</ele>
        <time>2015-08-02T12:21:43.680Z</time>
      </trkpt>
      <trkpt lat="43.24763" lon="2.659">
        <ele>50.7</ele>
        <time>2015-08-02T12:21:44.635Z</time>
      </trkpt>
      <trkpt lat="43.24763" lon="2.65888">
        <ele>51.7</ele>
        <time>2015-08-02T12:21:49.680Z</time>
      </trkpt>
      <trkpt lat="43.24764" lon="2.65885">
        <ele>51.8</ele>
        <time>2015-08-02T12:21:50.638Z</time>
      </trkpt>
      <trkpt lat="43.24765" lon="2.65876">
        <ele>52.1</ele>
        <time>2015-08-02T12:21:53.746Z</time>
      </trkpt>
      <trkpt lat="43.24765" lon="2.65875">
        <ele>52.5</ele>
        <time>2015-08-02T12:21:54.636Z</time>
      </trkpt>
      <trkpt lat="43.24768" lon="2.65884">
        <ele>54.9</ele>
        <time>2015-08-02T12:22:03.677Z</time>
      </trkpt>
      <trkpt lat="43.24768" lon="2.65886">
        <ele>55.2</ele>
        <time>2015-08-02T12:22:04.636Z</time>
      </trkpt>
      <trkpt lat="43.24767" lon="2.65897">
        <ele>56.1</ele>
        <time>2015-08-02T12:22:09.694Z</time>
      </trkpt>
      <trkpt lat="43.24768" lon="2.65899">
        <ele>57.2</ele>
        <time>2015-08-02T12:22:10.644Z</time>
      </trkpt>
      <trkpt lat="43.24772" lon="2.6591">
        <ele>60.1</ele>
        <time>2015-08-02T12:22:14.675Z</time>
      </trkpt>
      <trkpt lat="43.24772" lon="2.65913">
        <ele>61</ele>
        <time>2015-08-02T12:22:15.635Z</time>
      </trkpt>
      <trkpt lat="43.2477" lon="2.65923">
        <ele>62</ele>
        <time>2015-08-02T12:22:19.039Z</time>
      </trkpt>
      <trkpt lat="43.24769" lon="2.65926">
        <ele>62.3</ele>
        <time>2015-08-02T12:22:19.637Z</time>
      </trkpt>
      <trkpt lat="43.24768" lon="2.65936">
        <ele>62.2</ele>
        <time>2015-08-02T12:22:22.688Z</time>
      </trkpt>
      <trkpt lat="43.24767" lon="2.6594">
        <ele>62</ele>
        <time>2015-08-02T12:22:23.635Z</time>
      </trkpt>
      <trkpt lat="43.24765" lon="2.65951">
        <ele>61</ele>
        <time>2015-08-02T12:22:26.701Z</time>
      </trkpt>
      <trkpt lat="43.24765" lon="2.65955">
        <ele>60.6</ele>
        <time>2015-08-02T12:22:27.645Z</time>
      </trkpt>
      <trkpt lat="43.24763" lon="2.65966">
        <ele>59.3</ele>
        <time>2015-08-02T12:22:30.672Z</time>
      </trkpt>
      <trkpt lat="43.24764" lon="2.65969">
        <ele>58.7</ele>
        <time>2015-08-02T12:22:31.639Z</time>
      </trkpt>
      <trkpt lat="43.24771" lon="2.6597">
        <ele>57.3</ele>
        <time>2015-08-02T12:22:35.695Z</time>
      </trkpt>
      <trkpt lat="43.24774" lon="2.65969">
        <ele>56.8</ele>
        <time>2015-08-02T12:22:36.646Z</time>
      </trkpt>
      <trkpt lat="43.24781" lon="2.65966">
        <ele>55.5</ele>
        <time>2015-08-02T12:22:39.674Z</time>
      </trkpt>
      <trkpt lat="43.24783" lon="2.65965">
        <ele>55.1</ele>
        <time>2015-08-02T12:22:40.633Z</time>
      </trkpt>
      <trkpt lat="43.24785" lon="2.65962">
        <ele>54.8</ele>
        <time>2015-08-02T12:22:42.672Z</time>
      </trkpt>
      <trkpt lat="43.24786" lon="2.65961">
        <ele>54.8</ele>
        <time>2015-08-02T12:22:43.652Z</time>
      </trkpt>
      <trkpt lat="43.24787" lon="2.65959">
        <ele>55.6</ele>
        <time>2015-08-02T12:22:53.674Z</time>
      </trkpt>
      <trkpt lat="43.24788" lon="2.65961">
        <ele>55.7</ele>
        <time>2015-08-02T12:22:54.635Z</time>
      </trkpt>
      <trkpt lat="43.24796" lon="2.65966">
        <ele>55.9</ele>
        <time>2015-08-02T12:22:57.676Z</time>
      </trkpt>
      <trkpt lat="43.24799" lon="2.65968">
        <ele>55.8</ele>
        <time>2015-08-02T12:22:58.635Z</time>
      </trkpt>
      <trkpt lat="43.24806" lon="2.65975">
        <ele>55.5</ele>
        <time>2015-08-02T12:23:00.705Z</time>
      </trkpt>
      <trkpt lat="43.24809" lon="2.65979">
        <ele>55.3</ele>
        <time>2015-08-02T12:23:01.648Z</time>
      </trkpt>
      <trkpt lat="43.24816" lon="2.65986">
        <ele>55.5</ele>
        <time>2015-08-02T12:23:03.677Z</time>
      </trkpt>
      <trkpt lat="43.24818" lon="2.65991">
        <ele>55.4</ele>
        <time>2015-08-02T12:23:04.638Z</time>
      </trkpt>
      <trkpt lat="43.24821" lon="2.65999">
        <ele>55.8</ele>
        <time>2015-08-02T12:23:06.689Z</time>
      </trkpt>
      <trkpt lat="43.24822" lon="2.66002">
        <ele>55.8</ele>
        <time>2015-08-02T12:23:07.635Z</time>
      </trkpt>
      <trkpt lat="43.24825" lon="2.6601">
        <ele>55.2</ele>
        <time>2015-08-02T12:23:09.716Z</time>
      </trkpt>
      <trkpt lat="43.24827" lon="2.66014">
        <ele>55.2</ele>
        <time>2015-08-02T12:23:10.659Z</time>
      </trkpt>
      <trkpt lat="43.24829" lon="2.66024">
        <ele>55.1</ele>
        <time>2015-08-02T12:23:12.677Z</time>
      </trkpt>
      <trkpt lat="43.24829" lon="2.66029">
        <ele>55.2</ele>
        <time>2015-08-02T12:23:13.639Z</time>
      </trkpt>
      <trkpt lat="43.24829" lon="2.6604">
        <ele>53.7</ele>
        <time>2015-08-02T12:23:15.828Z</time>
      </trkpt>
      <trkpt lat="43.24829" lon="2.66046">
        <ele>53.2</ele>
        <time>2015-08-02T12:23:16.636Z</time>
      </trkpt>
      <trkpt lat="43.24829" lon="2.66056">
        <ele>52.7</ele>
        <time>2015-08-02T12:23:18.706Z</time>
      </trkpt>
      <trkpt lat="43.24829" lon="2.66061">
        <ele>52.1</ele>
        <time>2015-08-02T12:23:19.648Z</time>
      </trkpt>
      <trkpt lat="43.24827" lon="2.66071">
        <ele>51.6</ele>
        <time>2015-08-02T12:23:21.684Z</time>
      </trkpt>
      <trkpt lat="43.24827" lon="2.66077">
        <ele>51.5</ele>
        <time>2015-08-02T12:23:22.638Z</time>
      </trkpt>
      <trkpt lat="43.24826" lon="2.66087">
        <ele>50.4</ele>
        <time>2015-08-02T12:23:24.678Z</time>
      </trkpt>
      <trkpt lat="43.24825" lon="2.66092">
        <ele>50.3</ele>
        <time>2015-08-02T12:23:25.635Z</time>
      </trkpt>
      <trkpt lat="43.24823" lon="2.66102">
        <ele>50</ele>
        <time>2015-08-02T12:23:27.683Z</time>
      </trkpt>
      <trkpt lat="43.24822" lon="2.66107">
        <ele>50</ele>
        <time>2015-08-02T12:23:28.635Z</time>
      </trkpt>
      <trkpt lat="43.2482" lon="2.66117">
        <ele>49.7</ele>
        <time>2015-08-02T12:23:30.678Z</time>
      </trkpt>
      <trkpt lat="43.24819" lon="2.66122">
        <ele>49.6</ele>
        <time>2015-08-02T12:23:31.638Z</time>
      </trkpt>
      <trkpt lat="43.24817" lon="2.66132">
        <ele>49.3</ele>
        <time>2015-08-02T12:23:33.668Z</time>
      </trkpt>
      <trkpt lat="43.24816" lon="2.66137">
        <ele>49.2</ele>
        <time>2015-08-02T12:23:34.635Z</time>
      </trkpt>
      <trkpt lat="43.24813" lon="2.66148">
        <ele>49</ele>
        <time>2015-08-02T12:23:36.670Z</time>
      </trkpt>
      <trkpt lat="43.24812" lon="2.66153">
        <ele>49</ele>
        <time>2015-08-02T12:23:37.639Z</time>
      </trkpt>
      <trkpt lat="43.24811" lon="2.66164">
        <ele>48.8</ele>
        <time>2015-08-02T12:23:39.669Z</time>
      </trkpt>
      <trkpt lat="43.2481" lon="2.66169">
        <ele>48.7</ele>
        <time>2015-08-02T12:23:40.646Z</time>
      </trkpt>
      <trkpt lat="43.24808" lon="2.66179">
        <ele>48.3</ele>
        <time>2015-08-02T12:23:42.709Z</time>
      </trkpt>
      <trkpt lat="43.24807" lon="2.66184">
        <ele>48.1</ele>
        <time>2015-08-02T12:23:43.637Z</time>
      </trkpt>
      <trkpt lat="43.24804" lon="2.66195">
        <ele>47.9</ele>
        <time>2015-08-02T12:23:45.671Z</time>
      </trkpt>
      <trkpt lat="43.24803" lon="2.662">
        <ele>47.8</ele>
        <time>2015-08-02T12:23:46.649Z</time>
      </trkpt>
      <trkpt lat="43.24801" lon="2.6621">
        <ele>48.2</ele>
        <time>2015-08-02T12:23:48.681Z</time>
      </trkpt>
      <trkpt lat="43.24799" lon="2.66215">
        <ele>48.3</ele>
        <time>2015-08-02T12:23:49.640Z</time>
      </trkpt>
      <trkpt lat="43.24796" lon="2.66225">
        <ele>48.8</ele>
        <time>2015-08-02T12:23:52.680Z</time>
      </trkpt>
      <trkpt lat="43.24795" lon="2.66227">
        <ele>48.9</ele>
        <time>2015-08-02T12:23:53.648Z</time>
      </trkpt>
      <trkpt lat="43.24792" lon="2.66237">
        <ele>49.5</ele>
        <time>2015-08-02T12:23:57.677Z</time>
      </trkpt>
      <trkpt lat="43.24791" lon="2.66241">
        <ele>49.6</ele>
        <time>2015-08-02T12:23:58.638Z</time>
      </trkpt>
      <trkpt lat="43.24788" lon="2.66251">
        <ele>49.8</ele>
        <time>2015-08-02T12:24:01.722Z</time>
      </trkpt>
      <trkpt lat="43.24788" lon="2.66255">
        <ele>49.9</ele>
        <time>2015-08-02T12:24:02.650Z</time>
      </trkpt>
      <trkpt lat="43.24785" lon="2.66266">
        <ele>50.2</ele>
        <time>2015-08-02T12:24:05.684Z</time>
      </trkpt>
      <trkpt lat="43.24785" lon="2.66271">
        <ele>50.2</ele>
        <time>2015-08-02T12:24:06.643Z</time>
      </trkpt>
      <trkpt lat="43.24782" lon="2.66282">
        <ele>50</ele>
        <time>2015-08-02T12:24:09.670Z</time>
      </trkpt>
      <trkpt lat="43.24781" lon="2.66285">
        <ele>50.1</ele>
        <time>2015-08-02T12:24:10.636Z</time>
      </trkpt>
      <trkpt lat="43.24778" lon="2.66296">
        <ele>50</ele>
        <time>2015-08-02T12:24:13.682Z</time>
      </trkpt>
      <trkpt lat="43.24777" lon="2.663">
        <ele>50.4</ele>
        <time>2015-08-02T12:24:14.637Z</time>
      </trkpt>
      <trkpt lat="43.24776" lon="2.66308">
        <ele>50.4</ele>
        <time>2015-08-02T12:24:16.676Z</time>
      </trkpt>
      <trkpt lat="43.24775" lon="2.66312">
        <ele>50.4</ele>
        <time>2015-08-02T12:24:17.636Z</time>
      </trkpt>
      <trkpt lat="43.24773" lon="2.66324">
        <ele>50.6</ele>
        <time>2015-08-02T12:24:20.677Z</time>
      </trkpt>
      <trkpt lat="43.24772" lon="2.66328">
        <ele>50.7</ele>
        <time>2015-08-02T12:24:21.648Z</time>
      </trkpt>
      <trkpt lat="43.24771" lon="2.66338">
        <ele>50.5</ele>
        <time>2015-08-02T12:24:24.678Z</time>
      </trkpt>
      <trkpt lat="43.2477" lon="2.66341">
        <ele>50.3</ele>
        <time>2015-08-02T12:24:25.638Z</time>
      </trkpt>
      <trkpt lat="43.24768" lon="2.66351">
        <ele>50.3</ele>
        <time>2015-08-02T12:24:28.676Z</time>
      </trkpt>
      <trkpt lat="43.24768" lon="2.66354">
        <ele>50.5</ele>
        <time>2015-08-02T12:24:29.647Z</time>
      </trkpt>
      <trkpt lat="43.24767" lon="2.66364">
        <ele>51.2</ele>
        <time>2015-08-02T12:24:32.677Z</time>
      </trkpt>
      <trkpt lat="43.24766" lon="2.66368">
        <ele>51.1</ele>
        <time>2015-08-02T12:24:33.634Z</time>
      </trkpt>
      <trkpt lat="43.24764" lon="2.66379">
        <ele>51.2</ele>
        <time>2015-08-02T12:24:36.711Z</time>
      </trkpt>
      <trkpt lat="43.24764" lon="2.66383">
        <ele>51.4</ele>
        <time>2015-08-02T12:24:37.641Z</time>
      </trkpt>
      <trkpt lat="43.24762" lon="2.66391">
        <ele>50.9</ele>
        <time>2015-08-02T12:24:39.669Z</time>
      </trkpt>
      <trkpt lat="43.24761" lon="2.66395">
        <ele>50.9</ele>
        <time>2015-08-02T12:24:40.634Z</time>
      </trkpt>
      <trkpt lat="43.24758" lon="2.66403">
        <ele>51</ele>
        <time>2015-08-02T12:24:42.667Z</time>
      </trkpt>
      <trkpt lat="43.24757" lon="2.66408">
        <ele>51.1</ele>
        <time>2015-08-02T12:24:43.636Z</time>
      </trkpt>
      <trkpt lat="43.24755" lon="2.66419">
        <ele>52</ele>
        <time>2015-08-02T12:24:46.677Z</time>
      </trkpt>
      <trkpt lat="43.24754" lon="2.66422">
        <ele>52.4</ele>
        <time>2015-08-02T12:24:47.635Z</time>
      </trkpt>
      <trkpt lat="43.24751" lon="2.66433">
        <ele>52.5</ele>
        <time>2015-08-02T12:24:50.720Z</time>
      </trkpt>
      <trkpt lat="43.24751" lon="2.66437">
        <ele>52.8</ele>
        <time>2015-08-02T12:24:51.646Z</time>
      </trkpt>
      <trkpt lat="43.24749" lon="2.66448">
        <ele>53.8</ele>
        <time>2015-08-02T12:24:54.702Z</time>
      </trkpt>
      <trkpt lat="43.24749" lon="2.66451">
        <ele>54.2</ele>
        <time>2015-08-02T12:24:55.648Z</time>
      </trkpt>
      <trkpt lat="43.24746" lon="2.66462">
        <ele>55</ele>
        <time>2015-08-02T12:24:58.675Z</time>
      </trkpt>
      <trkpt lat="43.24745" lon="2.66466">
        <ele>54.9</ele>
        <time>2015-08-02T12:24:59.634Z</time>
      </trkpt>
      <trkpt lat="43.24743" lon="2.66474">
        <ele>54.8</ele>
        <time>2015-08-02T12:25:01.680Z</time>
      </trkpt>
      <trkpt lat="43.24742" lon="2.66478">
        <ele>55.1</ele>
        <time>2015-08-02T12:25:02.646Z</time>
      </trkpt>
      <trkpt lat="43.24741" lon="2.66486">
        <ele>55.1</ele>
        <time>2015-08-02T12:25:04.683Z</time>
      </trkpt>
      <trkpt lat="43.2474" lon="2.6649">
        <ele>55.2</ele>
        <time>2015-08-02T12:25:05.632Z</time>
      </trkpt>
      <trkpt lat="43.24738" lon="2.66501">
        <ele>55.6</ele>
        <time>2015-08-02T12:25:09.009Z</time>
      </trkpt>
      <trkpt lat="43.24737" lon="2.66504">
        <ele>55.6</ele>
        <time>2015-08-02T12:25:09.646Z</time>
      </trkpt>
      <trkpt lat="43.24734" lon="2.66513">
        <ele>55.8</ele>
        <time>2015-08-02T12:25:12.678Z</time>
      </trkpt>
      <trkpt lat="43.24734" lon="2.66517">
        <ele>56.3</ele>
        <time>2015-08-02T12:25:13.637Z</time>
      </trkpt>
      <trkpt lat="43.24731" lon="2.66526">
        <ele>57.3</ele>
        <time>2015-08-02T12:25:16.683Z</time>
      </trkpt>
      <trkpt lat="43.24731" lon="2.66529">
        <ele>57.5</ele>
        <time>2015-08-02T12:25:17.646Z</time>
      </trkpt>
      <trkpt lat="43.24729" lon="2.66539">
        <ele>56.5</ele>
        <time>2015-08-02T12:25:20.706Z</time>
      </trkpt>
      <trkpt lat="43.24728" lon="2.66541">
        <ele>56.1</ele>
        <time>2015-08-02T12:25:21.646Z</time>
      </trkpt>
      <trkpt lat="43.24725" lon="2.66553">
        <ele>57.1</ele>
        <time>2015-08-02T12:25:25.684Z</time>
      </trkpt>
      <trkpt lat="43.24725" lon="2.66556">
        <ele>56.9</ele>
        <time>2015-08-02T12:25:26.634Z</time>
      </trkpt>
      <trkpt lat="43.24723" lon="2.66567">
        <ele>58.1</ele>
        <time>2015-08-02T12:25:30.055Z</time>
      </trkpt>
      <trkpt lat="43.24722" lon="2.66572">
        <ele>58.2</ele>
        <time>2015-08-02T12:25:30.645Z</time>
      </trkpt>
      <trkpt lat="43.24721" lon="2.6658">
        <ele>58.3</ele>
        <time>2015-08-02T12:25:32.680Z</time>
      </trkpt>
      <trkpt lat="43.2472" lon="2.66585">
        <ele>58.5</ele>
        <time>2015-08-02T12:25:33.634Z</time>
      </trkpt>
      <trkpt lat="43.2472" lon="2.66595">
        <ele>58.8</ele>
        <time>2015-08-02T12:25:36.080Z</time>
      </trkpt>
      <trkpt lat="43.2472" lon="2.666">
        <ele>58.9</ele>
        <time>2015-08-02T12:25:36.635Z</time>
      </trkpt>
      <trkpt lat="43.2472" lon="2.66609">
        <ele>58.8</ele>
        <time>2015-08-02T12:25:38.670Z</time>
      </trkpt>
      <trkpt lat="43.24721" lon="2.66613">
        <ele>58.5</ele>
        <time>2015-08-02T12:25:39.635Z</time>
      </trkpt>
      <trkpt lat="43.24723" lon="2.66625">
        <ele>58.4</ele>
        <time>2015-08-02T12:25:42.673Z</time>
      </trkpt>
      <trkpt lat="43.24723" lon="2.66628">
        <ele>58.2</ele>
        <time>2015-08-02T12:25:43.634Z</time>
      </trkpt>
      <trkpt lat="43.24726" lon="2.66638">
        <ele>57.9</ele>
        <time>2015-08-02T12:25:46.689Z</time>
      </trkpt>
      <trkpt lat="43.24727" lon="2.66642">
        <ele>57.7</ele>
        <time>2015-08-02T12:25:47.638Z</time>
      </trkpt>
      <trkpt lat="43.24729" lon="2.66651">
        <ele>57.8</ele>
        <time>2015-08-02T12:25:50.710Z</time>
      </trkpt>
      <trkpt lat="43.24731" lon="2.66654">
        <ele>57.6</ele>
        <time>2015-08-02T12:25:51.646Z</time>
      </trkpt>
      <trkpt lat="43.24734" lon="2.66664">
        <ele>57.3</ele>
        <time>2015-08-02T12:25:55.028Z</time>
      </trkpt>
      <trkpt lat="43.24735" lon="2.66667">
        <ele>57.2</ele>
        <time>2015-08-02T12:25:55.637Z</time>
      </trkpt>
      <trkpt lat="43.24739" lon="2.66678">
        <ele>56.9</ele>
        <time>2015-08-02T12:25:58.718Z</time>
      </trkpt>
      <trkpt lat="43.24741" lon="2.66681">
        <ele>56.8</ele>
        <time>2015-08-02T12:25:59.645Z</time>
      </trkpt>
      <trkpt lat="43.24743" lon="2.66689">
        <ele>57</ele>
        <time>2015-08-02T12:26:01.677Z</time>
      </trkpt>
      <trkpt lat="43.24744" lon="2.66693">
        <ele>57.1</ele>
        <time>2015-08-02T12:26:02.641Z</time>
      </trkpt>
      <trkpt lat="43.24748" lon="2.66704">
        <ele>57.6</ele>
        <time>2015-08-02T12:26:05.676Z</time>
      </trkpt>
      <trkpt lat="43.24749" lon="2.66707">
        <ele>57.9</ele>
        <time>2015-08-02T12:26:06.638Z</time>
      </trkpt>
      <trkpt lat="43.24752" lon="2.66717">
        <ele>58.5</ele>
        <time>2015-08-02T12:26:09.674Z</time>
      </trkpt>
      <trkpt lat="43.24754" lon="2.6672">
        <ele>58.9</ele>
        <time>2015-08-02T12:26:10.640Z</time>
      </trkpt>
      <trkpt lat="43.24757" lon="2.66727">
        <ele>59.8</ele>
        <time>2015-08-02T12:26:12.679Z</time>
      </trkpt>
      <trkpt lat="43.24758" lon="2.66731">
        <ele>59.8</ele>
        <time>2015-08-02T12:26:13.639Z</time>
      </trkpt>
      <trkpt lat="43.24763" lon="2.66742">
        <ele>59.4</ele>
        <time>2015-08-02T12:26:16.685Z</time>
      </trkpt>
      <trkpt lat="43.24764" lon="2.66744">
        <ele>58.7</ele>
        <time>2015-08-02T12:26:17.634Z</time>
      </trkpt>
      <trkpt lat="43.24769" lon="2.66751">
        <ele>57.3</ele>
        <time>2015-08-02T12:26:22.694Z</time>
      </trkpt>
      <trkpt lat="43.2477" lon="2.66754">
        <ele>56.6</ele>
        <time>2015-08-02T12:26:23.644Z</time>
      </trkpt>
      <trkpt lat="43.24776" lon="2.66761">
        <ele>55.8</ele>
        <time>2015-08-02T12:26:26.688Z</time>
      </trkpt>
      <trkpt lat="43.24779" lon="2.66764">
        <ele>55.4</ele>
        <time>2015-08-02T12:26:27.636Z</time>
      </trkpt>
      <trkpt lat="43.24784" lon="2.66773">
        <ele>54.6</ele>
        <time>2015-08-02T12:26:29.676Z</time>
      </trkpt>
      <trkpt lat="43.24786" lon="2.66777">
        <ele>54</ele>
        <time>2015-08-02T12:26:30.657Z</time>
      </trkpt>
      <trkpt lat="43.24791" lon="2.66784">
        <ele>53.1</ele>
        <time>2015-08-02T12:26:32.722Z</time>
      </trkpt>
      <trkpt lat="43.24793" lon="2.66788">
        <ele>52.5</ele>
        <time>2015-08-02T12:26:33.654Z</time>
      </trkpt>
      <trkpt lat="43.24797" lon="2.66795">
        <ele>51.8</ele>
        <time>2015-08-02T12:26:35.678Z</time>
      </trkpt>
      <trkpt lat="43.24798" lon="2.66799">
        <ele>51.5</ele>
        <time>2015-08-02T12:26:36.638Z</time>
      </trkpt>
      <trkpt lat="43.24803" lon="2.66805">
        <ele>51.1</ele>
        <time>2015-08-02T12:26:38.686Z</time>
      </trkpt>
      <trkpt lat="43.24805" lon="2.66808">
        <ele>50.8</ele>
        <time>2015-08-02T12:26:39.636Z</time>
      </trkpt>
      <trkpt lat="43.24811" lon="2.66816">
        <ele>50</ele>
        <time>2015-08-02T12:26:43.686Z</time>
      </trkpt>
      <trkpt lat="43.24812" lon="2.66817">
        <ele>50</ele>
        <time>2015-08-02T12:26:44.633Z</time>
      </trkpt>
      <trkpt lat="43.24818" lon="2.66823">
        <ele>49.7</ele>
        <time>2015-08-02T12:26:48.946Z</time>
      </trkpt>
      <trkpt lat="43.2482" lon="2.66824">
        <ele>49.8</ele>
        <time>2015-08-02T12:26:49.637Z</time>
      </trkpt>
      <trkpt lat="43.24826" lon="2.66831">
        <ele>50.3</ele>
        <time>2015-08-02T12:26:52.726Z</time>
      </trkpt>
      <trkpt lat="43.24828" lon="2.66834">
        <ele>50.4</ele>
        <time>2015-08-02T12:26:53.636Z</time>
      </trkpt>
      <trkpt lat="43.24833" lon="2.66841">
        <ele>50.8</ele>
        <time>2015-08-02T12:26:56.026Z</time>
      </trkpt>
      <trkpt lat="43.24836" lon="2.66843">
        <ele>51.4</ele>
        <time>2015-08-02T12:26:56.633Z</time>
      </trkpt>
      <trkpt lat="43.24843" lon="2.6685">
        <ele>53.2</ele>
        <time>2015-08-02T12:26:59.719Z</time>
      </trkpt>
      <trkpt lat="43.24845" lon="2.66853">
        <ele>53.6</ele>
        <time>2015-08-02T12:27:00.633Z</time>
      </trkpt>
      <trkpt lat="43.2485" lon="2.6686">
        <ele>54.1</ele>
        <time>2015-08-02T12:27:02.674Z</time>
      </trkpt>
      <trkpt lat="43.24854" lon="2.66861">
        <ele>54.4</ele>
        <time>2015-08-02T12:27:03.636Z</time>
      </trkpt>
      <trkpt lat="43.24859" lon="2.66865">
        <ele>55.1</ele>
        <time>2015-08-02T12:27:05.667Z</time>
      </trkpt>
      <trkpt lat="43.24862" lon="2.66866">
        <ele>55.6</ele>
        <time>2015-08-02T12:27:06.633Z</time>
      </trkpt>
      <trkpt lat="43.24869" lon="2.66869">
        <ele>56.1</ele>
        <time>2015-08-02T12:27:08.671Z</time>
      </trkpt>
      <trkpt lat="43.24872" lon="2.66871">
        <ele>56.7</ele>
        <time>2015-08-02T12:27:09.633Z</time>
      </trkpt>
      <trkpt lat="43.2488" lon="2.66874">
        <ele>57.3</ele>
        <time>2015-08-02T12:27:11.697Z</time>
      </trkpt>
      <trkpt lat="43.24884" lon="2.66876">
        <ele>58.1</ele>
        <time>2015-08-02T12:27:12.659Z</time>
      </trkpt>
      <trkpt lat="43.24892" lon="2.66878">
        <ele>59</ele>
        <time>2015-08-02T12:27:14.678Z</time>
      </trkpt>
      <trkpt lat="43.24895" lon="2.66879">
        <ele>59</ele>
        <time>2015-08-02T12:27:15.638Z</time>
      </trkpt>
      <trkpt lat="43.24902" lon="2.66878">
        <ele>58.7</ele>
        <time>2015-08-02T12:27:17.677Z</time>
      </trkpt>
      <trkpt lat="43.24905" lon="2.66876">
        <ele>58.1</ele>
        <time>2015-08-02T12:27:18.635Z</time>
      </trkpt>
      <trkpt lat="43.24913" lon="2.66874">
        <ele>57.8</ele>
        <time>2015-08-02T12:27:21.076Z</time>
      </trkpt>
      <trkpt lat="43.24917" lon="2.66874">
        <ele>57.4</ele>
        <time>2015-08-02T12:27:21.637Z</time>
      </trkpt>
      <trkpt lat="43.24924" lon="2.6687">
        <ele>56.9</ele>
        <time>2015-08-02T12:27:23.672Z</time>
      </trkpt>
      <trkpt lat="43.24926" lon="2.66869">
        <ele>56.7</ele>
        <time>2015-08-02T12:27:24.643Z</time>
      </trkpt>
      <trkpt lat="43.24934" lon="2.66867">
        <ele>56.3</ele>
        <time>2015-08-02T12:27:28.674Z</time>
      </trkpt>
      <trkpt lat="43.24936" lon="2.66867">
        <ele>56</ele>
        <time>2015-08-02T12:27:29.632Z</time>
      </trkpt>
      <trkpt lat="43.24943" lon="2.66868">
        <ele>56.2</ele>
        <time>2015-08-02T12:27:31.669Z</time>
      </trkpt>
      <trkpt lat="43.24945" lon="2.66867">
        <ele>56</ele>
        <time>2015-08-02T12:27:32.632Z</time>
      </trkpt>
      <trkpt lat="43.24953" lon="2.66866">
        <ele>56.5</ele>
        <time>2015-08-02T12:27:35.677Z</time>
      </trkpt>
      <trkpt lat="43.24956" lon="2.66866">
        <ele>56.6</ele>
        <time>2015-08-02T12:27:36.633Z</time>
      </trkpt>
      <trkpt lat="43.24963" lon="2.66866">
        <ele>55.2</ele>
        <time>2015-08-02T12:27:39.668Z</time>
      </trkpt>
      <trkpt lat="43.24965" lon="2.66866">
        <ele>55.5</ele>
        <time>2015-08-02T12:27:40.640Z</time>
      </trkpt>
      <trkpt lat="43.24973" lon="2.66867">
        <ele>52.2</ele>
        <time>2015-08-02T12:27:59.675Z</time>
      </trkpt>
      <trkpt lat="43.24975" lon="2.66866">
        <ele>52</ele>
        <time>2015-08-02T12:28:00.635Z</time>
      </trkpt>
      <trkpt lat="43.24982" lon="2.66861">
        <ele>51.8</ele>
        <time>2015-08-02T12:28:03.708Z</time>
      </trkpt>
      <trkpt lat="43.24984" lon="2.6686">
        <ele>51.6</ele>
        <time>2015-08-02T12:28:04.645Z</time>
      </trkpt>
      <trkpt lat="43.2499" lon="2.66855">
        <ele>51.7</ele>
        <time>2015-08-02T12:28:07.686Z</time>
      </trkpt>
      <trkpt lat="43.24992" lon="2.66853">
        <ele>51.6</ele>
        <time>2015-08-02T12:28:08.636Z</time>
      </trkpt>
      <trkpt lat="43.24997" lon="2.66845">
        <ele>51.7</ele>
        <time>2015-08-02T12:28:13.685Z</time>
      </trkpt>
      <trkpt lat="43.24998" lon="2.66843">
        <ele>51.7</ele>
        <time>2015-08-02T12:28:14.644Z</time>
      </trkpt>
      <trkpt lat="43.24999" lon="2.6684">
        <ele>51.8</ele>
        <time>2015-08-02T12:28:16.698Z</time>
      </trkpt>
      <trkpt lat="43.24999" lon="2.66838">
        <ele>51.7</ele>
        <time>2015-08-02T12:28:17.638Z</time>
      </trkpt>
      <trkpt lat="43.24999" lon="2.66837">
        <ele>51.6</ele>
        <time>2015-08-02T12:28:28.696Z</time>
      </trkpt>
      <trkpt lat="43.24997" lon="2.66834">
        <ele>53</ele>
        <time>2015-08-02T12:28:29.646Z</time>
      </trkpt>
      <trkpt lat="43.25001" lon="2.66824">
        <ele>52.8</ele>
        <time>2015-08-02T12:28:34.674Z</time>
      </trkpt>
      <trkpt lat="43.25002" lon="2.66822">
        <ele>52.7</ele>
        <time>2015-08-02T12:28:35.637Z</time>
      </trkpt>
      <trkpt lat="43.25005" lon="2.66813">
        <ele>53.1</ele>
        <time>2015-08-02T12:28:40.676Z</time>
      </trkpt>
      <trkpt lat="43.25006" lon="2.66811">
        <ele>53.2</ele>
        <time>2015-08-02T12:28:41.637Z</time>
      </trkpt>
      <trkpt lat="43.2501" lon="2.668">
        <ele>53.1</ele>
        <time>2015-08-02T12:28:45.714Z</time>
      </trkpt>
      <trkpt lat="43.25011" lon="2.66798">
        <ele>53</ele>
        <time>2015-08-02T12:28:46.645Z</time>
      </trkpt>
      <trkpt lat="43.25015" lon="2.66789">
        <ele>52.3</ele>
        <time>2015-08-02T12:28:51.679Z</time>
      </trkpt>
      <trkpt lat="43.25016" lon="2.66787">
        <ele>52.1</ele>
        <time>2015-08-02T12:28:52.635Z</time>
      </trkpt>
      <trkpt lat="43.2502" lon="2.66777">
        <ele>51.3</ele>
        <time>2015-08-02T12:28:58.037Z</time>
      </trkpt>
      <trkpt lat="43.25021" lon="2.66773">
        <ele>51.2</ele>
        <time>2015-08-02T12:28:58.638Z</time>
      </trkpt>
      <trkpt lat="43.25025" lon="2.66763">
        <ele>51</ele>
        <time>2015-08-02T12:29:01.690Z</time>
      </trkpt>
      <trkpt lat="43.25026" lon="2.66759">
        <ele>50.4</ele>
        <time>2015-08-02T12:29:02.637Z</time>
      </trkpt>
      <trkpt lat="43.25028" lon="2.66749">
        <ele>49.3</ele>
        <time>2015-08-02T12:29:04.719Z</time>
      </trkpt>
      <trkpt lat="43.2503" lon="2.66744">
        <ele>49</ele>
        <time>2015-08-02T12:29:05.658Z</time>
      </trkpt>
      <trkpt lat="43.25031" lon="2.66736">
        <ele>47.8</ele>
        <time>2015-08-02T12:29:07.692Z</time>
      </trkpt>
      <trkpt lat="43.25033" lon="2.66731">
        <ele>47.4</ele>
        <time>2015-08-02T12:29:08.656Z</time>
      </trkpt>
      <trkpt lat="43.25034" lon="2.66726">
        <ele>46.9</ele>
        <time>2015-08-02T12:29:09.694Z</time>
      </trkpt>
      <trkpt lat="43.25036" lon="2.66719">
        <ele>46.6</ele>
        <time>2015-08-02T12:29:10.634Z</time>
      </trkpt>
      <trkpt lat="43.25039" lon="2.66709">
        <ele>46</ele>
        <time>2015-08-02T12:29:12.684Z</time>
      </trkpt>
      <trkpt lat="43.25041" lon="2.66705">
        <ele>45.6</ele>
        <time>2015-08-02T12:29:13.636Z</time>
      </trkpt>
      <trkpt lat="43.25045" lon="2.66695">
        <ele>45</ele>
        <time>2015-08-02T12:29:15.692Z</time>
      </trkpt>
      <trkpt lat="43.25048" lon="2.6669">
        <ele>44.7</ele>
        <time>2015-08-02T12:29:16.711Z</time>
      </trkpt>
      <trkpt lat="43.25052" lon="2.6668">
        <ele>43.9</ele>
        <time>2015-08-02T12:29:18.673Z</time>
      </trkpt>
      <trkpt lat="43.25055" lon="2.66675">
        <ele>43.4</ele>
        <time>2015-08-02T12:29:19.638Z</time>
      </trkpt>
      <trkpt lat="43.25058" lon="2.66671">
        <ele>42.9</ele>
        <time>2015-08-02T12:29:20.677Z</time>
      </trkpt>
      <trkpt lat="43.2506" lon="2.66665">
        <ele>42.4</ele>
        <time>2015-08-02T12:29:21.638Z</time>
      </trkpt>
      <trkpt lat="43.25065" lon="2.66655">
        <ele>41.5</ele>
        <time>2015-08-02T12:29:23.679Z</time>
      </trkpt>
      <trkpt lat="43.25067" lon="2.66651">
        <ele>41.2</ele>
        <time>2015-08-02T12:29:24.646Z</time>
      </trkpt>
      <trkpt lat="43.25071" lon="2.66642">
        <ele>41.2</ele>
        <time>2015-08-02T12:29:26.682Z</time>
      </trkpt>
      <trkpt lat="43.25072" lon="2.66638">
        <ele>40.8</ele>
        <time>2015-08-02T12:29:27.635Z</time>
      </trkpt>
      <trkpt lat="43.25073" lon="2.66626">
        <ele>40.1</ele>
        <time>2015-08-02T12:29:31.710Z</time>
      </trkpt>
      <trkpt lat="43.25073" lon="2.66624">
        <ele>39.9</ele>
        <time>2015-08-02T12:29:32.638Z</time>
      </trkpt>
      <trkpt lat="43.25078" lon="2.66615">
        <ele>41.3</ele>
        <time>2015-08-02T12:29:36.685Z</time>
      </trkpt>
      <trkpt lat="43.25078" lon="2.66613">
        <ele>41.5</ele>
        <time>2015-08-02T12:29:37.638Z</time>
      </trkpt>
      <trkpt lat="43.25081" lon="2.66602">
        <ele>42.1</ele>
        <time>2015-08-02T12:29:42.698Z</time>
      </trkpt>
      <trkpt lat="43.25082" lon="2.666">
        <ele>41.8</ele>
        <time>2015-08-02T12:29:43.635Z</time>
      </trkpt>
      <trkpt lat="43.25087" lon="2.6659">
        <ele>40.3</ele>
        <time>2015-08-02T12:29:51.080Z</time>
      </trkpt>
      <trkpt lat="43.25088" lon="2.66588">
        <ele>40.1</ele>
        <time>2015-08-02T12:29:51.640Z</time>
      </trkpt>
      <trkpt lat="43.25094" lon="2.66584">
        <ele>40.1</ele>
        <time>2015-08-02T12:29:54.687Z</time>
      </trkpt>
      <trkpt lat="43.25096" lon="2.66581">
        <ele>39.9</ele>
        <time>2015-08-02T12:29:55.641Z</time>
      </trkpt>
      <trkpt lat="43.25102" lon="2.66574">
        <ele>40.3</ele>
        <time>2015-08-02T12:29:57.704Z</time>
      </trkpt>
      <trkpt lat="43.25105" lon="2.66571">
        <ele>40.2</ele>
        <time>2015-08-02T12:29:58.645Z</time>
      </trkpt>
      <trkpt lat="43.25111" lon="2.66565">
        <ele>40</ele>
        <time>2015-08-02T12:30:00.683Z</time>
      </trkpt>
      <trkpt lat="43.25114" lon="2.66563">
        <ele>40</ele>
        <time>2015-08-02T12:30:01.638Z</time>
      </trkpt>
      <trkpt lat="43.25122" lon="2.66558">
        <ele>39.8</ele>
        <time>2015-08-02T12:30:03.685Z</time>
      </trkpt>
      <trkpt lat="43.25128" lon="2.66556">
        <ele>39.4</ele>
        <time>2015-08-02T12:30:04.633Z</time>
      </trkpt>
      <trkpt lat="43.25133" lon="2.66554">
        <ele>39.2</ele>
        <time>2015-08-02T12:30:05.686Z</time>
      </trkpt>
      <trkpt lat="43.25138" lon="2.66553">
        <ele>39.2</ele>
        <time>2015-08-02T12:30:06.636Z</time>
      </trkpt>
      <trkpt lat="43.25143" lon="2.66553">
        <ele>39.8</ele>
        <time>2015-08-02T12:30:07.695Z</time>
      </trkpt>
      <trkpt lat="43.25147" lon="2.66553">
        <ele>39.9</ele>
        <time>2015-08-02T12:30:08.640Z</time>
      </trkpt>
      <trkpt lat="43.25153" lon="2.66557">
        <ele>39.8</ele>
        <time>2015-08-02T12:30:10.692Z</time>
      </trkpt>
      <trkpt lat="43.25157" lon="2.6656">
        <ele>39.9</ele>
        <time>2015-08-02T12:30:11.637Z</time>
      </trkpt>
      <trkpt lat="43.25161" lon="2.66563">
        <ele>40</ele>
        <time>2015-08-02T12:30:12.688Z</time>
      </trkpt>
      <trkpt lat="43.25164" lon="2.66567">
        <ele>40.2</ele>
        <time>2015-08-02T12:30:13.637Z</time>
      </trkpt>
      <trkpt lat="43.25172" lon="2.66574">
        <ele>40.6</ele>
        <time>2015-08-02T12:30:15.688Z</time>
      </trkpt>
      <trkpt lat="43.25175" lon="2.66579">
        <ele>40.4</ele>
        <time>2015-08-02T12:30:16.633Z</time>
      </trkpt>
      <trkpt lat="43.25179" lon="2.66582">
        <ele>40.6</ele>
        <time>2015-08-02T12:30:17.680Z</time>
      </trkpt>
      <trkpt lat="43.25183" lon="2.66584">
        <ele>41.1</ele>
        <time>2015-08-02T12:30:18.634Z</time>
      </trkpt>
      <trkpt lat="43.2519" lon="2.66591">
        <ele>41.7</ele>
        <time>2015-08-02T12:30:20.676Z</time>
      </trkpt>
      <trkpt lat="43.25192" lon="2.66594">
        <ele>41.7</ele>
        <time>2015-08-02T12:30:21.653Z</time>
      </trkpt>
      <trkpt lat="43.25198" lon="2.666">
        <ele>42.2</ele>
        <time>2015-08-02T12:30:23.690Z</time>
      </trkpt>
      <trkpt lat="43.25201" lon="2.66603">
        <ele>42.2</ele>
        <time>2015-08-02T12:30:24.636Z</time>
      </trkpt>
      <trkpt lat="43.25209" lon="2.66608">
        <ele>43</ele>
        <time>2015-08-02T12:30:26.683Z</time>
      </trkpt>
      <trkpt lat="43.25212" lon="2.66611">
        <ele>43.5</ele>
        <time>2015-08-02T12:30:27.634Z</time>
      </trkpt>
      <trkpt lat="43.25218" lon="2.66618">
        <ele>44</ele>
        <time>2015-08-02T12:30:29.674Z</time>
      </trkpt>
      <trkpt lat="43.25221" lon="2.66621">
        <ele>44.4</ele>
        <time>2015-08-02T12:30:30.632Z</time>
      </trkpt>
      <trkpt lat="43.25227" lon="2.66627">
        <ele>45</ele>
        <time>2015-08-02T12:30:32.675Z</time>
      </trkpt>
      <trkpt lat="43.25231" lon="2.6663">
        <ele>45.4</ele>
        <time>2015-08-02T12:30:33.635Z</time>
      </trkpt>
      <trkpt lat="43.25235" lon="2.66634">
        <ele>45.8</ele>
        <time>2015-08-02T12:30:34.674Z</time>
      </trkpt>
      <trkpt lat="43.25239" lon="2.66638">
        <ele>46.2</ele>
        <time>2015-08-02T12:30:35.652Z</time>
      </trkpt>
      <trkpt lat="43.25242" lon="2.66642">
        <ele>46.5</ele>
        <time>2015-08-02T12:30:36.698Z</time>
      </trkpt>
      <trkpt lat="43.25247" lon="2.66645">
        <ele>47.2</ele>
        <time>2015-08-02T12:30:37.643Z</time>
      </trkpt>
      <trkpt lat="43.25253" lon="2.66652">
        <ele>48</ele>
        <time>2015-08-02T12:30:39.685Z</time>
      </trkpt>
      <trkpt lat="43.25256" lon="2.66656">
        <ele>48.3</ele>
        <time>2015-08-02T12:30:40.636Z</time>
      </trkpt>
      <trkpt lat="43.25261" lon="2.66662">
        <ele>49.1</ele>
        <time>2015-08-02T12:30:42.686Z</time>
      </trkpt>
      <trkpt lat="43.25264" lon="2.66666">
        <ele>49.6</ele>
        <time>2015-08-02T12:30:43.656Z</time>
      </trkpt>
      <trkpt lat="43.25269" lon="2.66673">
        <ele>50.5</ele>
        <time>2015-08-02T12:30:45.687Z</time>
      </trkpt>
      <trkpt lat="43.25272" lon="2.66676">
        <ele>50.8</ele>
        <time>2015-08-02T12:30:46.774Z</time>
      </trkpt>
      <trkpt lat="43.25277" lon="2.66683">
        <ele>51.3</ele>
        <time>2015-08-02T12:30:48.683Z</time>
      </trkpt>
      <trkpt lat="43.2528" lon="2.66686">
        <ele>51.9</ele>
        <time>2015-08-02T12:30:49.642Z</time>
      </trkpt>
      <trkpt lat="43.25285" lon="2.66692">
        <ele>52.7</ele>
        <time>2015-08-02T12:30:51.705Z</time>
      </trkpt>
      <trkpt lat="43.25287" lon="2.66695">
        <ele>53.3</ele>
        <time>2015-08-02T12:30:52.644Z</time>
      </trkpt>
      <trkpt lat="43.25293" lon="2.66702">
        <ele>54.2</ele>
        <time>2015-08-02T12:30:54.683Z</time>
      </trkpt>
      <trkpt lat="43.25296" lon="2.66706">
        <ele>54.4</ele>
        <time>2015-08-02T12:30:55.773Z</time>
      </trkpt>
      <trkpt lat="43.25302" lon="2.66713">
        <ele>54.9</ele>
        <time>2015-08-02T12:30:57.686Z</time>
      </trkpt>
      <trkpt lat="43.25305" lon="2.66717">
        <ele>55.1</ele>
        <time>2015-08-02T12:30:58.635Z</time>
      </trkpt>
      <trkpt lat="43.2531" lon="2.66724">
        <ele>55.6</ele>
        <time>2015-08-02T12:31:01.003Z</time>
      </trkpt>
      <trkpt lat="43.25313" lon="2.66728">
        <ele>56</ele>
        <time>2015-08-02T12:31:01.640Z</time>
      </trkpt>
      <trkpt lat="43.25316" lon="2.66733">
        <ele>56.3</ele>
        <time>2015-08-02T12:31:02.689Z</time>
      </trkpt>
      <trkpt lat="43.25319" lon="2.66738">
        <ele>56.7</ele>
        <time>2015-08-02T12:31:03.637Z</time>
      </trkpt>
      <trkpt lat="43.25325" lon="2.66745">
        <ele>57.3</ele>
        <time>2015-08-02T12:31:05.681Z</time>
      </trkpt>
      <trkpt lat="43.25327" lon="2.6675">
        <ele>57.5</ele>
        <time>2015-08-02T12:31:06.637Z</time>
      </trkpt>
      <trkpt lat="43.2533" lon="2.66756">
        <ele>57.7</ele>
        <time>2015-08-02T12:31:07.686Z</time>
      </trkpt>
      <trkpt lat="43.25333" lon="2.6676">
        <ele>58.2</ele>
        <time>2015-08-02T12:31:08.637Z</time>
      </trkpt>
      <trkpt lat="43.25338" lon="2.6677">
        <ele>58.4</ele>
        <time>2015-08-02T12:31:10.682Z</time>
      </trkpt>
      <trkpt lat="43.2534" lon="2.66774">
        <ele>58.9</ele>
        <time>2015-08-02T12:31:11.638Z</time>
      </trkpt>
      <trkpt lat="43.25345" lon="2.66783">
        <ele>58.4</ele>
        <time>2015-08-02T12:31:14.032Z</time>
      </trkpt>
      <trkpt lat="43.25347" lon="2.66787">
        <ele>58.7</ele>
        <time>2015-08-02T12:31:14.634Z</time>
      </trkpt>
      <trkpt lat="43.2535" lon="2.66797">
        <ele>58.1</ele>
        <time>2015-08-02T12:31:16.676Z</time>
      </trkpt>
      <trkpt lat="43.25351" lon="2.66803">
        <ele>58.1</ele>
        <time>2015-08-02T12:31:17.632Z</time>
      </trkpt>
      <trkpt lat="43.25354" lon="2.66812">
        <ele>57.9</ele>
        <time>2015-08-02T12:31:19.682Z</time>
      </trkpt>
      <trkpt lat="43.25355" lon="2.66816">
        <ele>57.8</ele>
        <time>2015-08-02T12:31:20.635Z</time>
      </trkpt>
      <trkpt lat="43.25358" lon="2.66825">
        <ele>57.5</ele>
        <time>2015-08-02T12:31:22.680Z</time>
      </trkpt>
      <trkpt lat="43.2536" lon="2.6683">
        <ele>57.5</ele>
        <time>2015-08-02T12:31:23.636Z</time>
      </trkpt>
      <trkpt lat="43.25361" lon="2.66835">
        <ele>57.4</ele>
        <time>2015-08-02T12:31:24.680Z</time>
      </trkpt>
      <trkpt lat="43.25363" lon="2.66842">
        <ele>57.4</ele>
        <time>2015-08-02T12:31:25.640Z</time>
      </trkpt>
      <trkpt lat="43.25365" lon="2.66848">
        <ele>57.6</ele>
        <time>2015-08-02T12:31:26.682Z</time>
      </trkpt>
      <trkpt lat="43.25368" lon="2.66854">
        <ele>57.9</ele>
        <time>2015-08-02T12:31:27.642Z</time>
      </trkpt>
      <trkpt lat="43.25372" lon="2.6686">
        <ele>57.9</ele>
        <time>2015-08-02T12:31:28.686Z</time>
      </trkpt>
      <trkpt lat="43.25374" lon="2.66866">
        <ele>58</ele>
        <time>2015-08-02T12:31:29.637Z</time>
      </trkpt>
      <trkpt lat="43.25376" lon="2.66872">
        <ele>57.7</ele>
        <time>2015-08-02T12:31:30.683Z</time>
      </trkpt>
      <trkpt lat="43.2538" lon="2.66878">
        <ele>57.9</ele>
        <time>2015-08-02T12:31:31.634Z</time>
      </trkpt>
      <trkpt lat="43.25383" lon="2.66883">
        <ele>57.7</ele>
        <time>2015-08-02T12:31:32.681Z</time>
      </trkpt>
      <trkpt lat="43.25386" lon="2.66889">
        <ele>57.6</ele>
        <time>2015-08-02T12:31:33.656Z</time>
      </trkpt>
      <trkpt lat="43.25389" lon="2.66895">
        <ele>57.3</ele>
        <time>2015-08-02T12:31:34.686Z</time>
      </trkpt>
      <trkpt lat="43.25392" lon="2.66901">
        <ele>57.1</ele>
        <time>2015-08-02T12:31:35.635Z</time>
      </trkpt>
      <trkpt lat="43.25395" lon="2.66907">
        <ele>57.6</ele>
        <time>2015-08-02T12:31:36.678Z</time>
      </trkpt>
      <trkpt lat="43.25397" lon="2.66913">
        <ele>57.4</ele>
        <time>2015-08-02T12:31:37.638Z</time>
      </trkpt>
      <trkpt lat="43.254" lon="2.66918">
        <ele>57.3</ele>
        <time>2015-08-02T12:31:39.045Z</time>
      </trkpt>
      <trkpt lat="43.25403" lon="2.66924">
        <ele>56.9</ele>
        <time>2015-08-02T12:31:39.645Z</time>
      </trkpt>
      <trkpt lat="43.25405" lon="2.66929">
        <ele>56.7</ele>
        <time>2015-08-02T12:31:40.686Z</time>
      </trkpt>
      <trkpt lat="43.25408" lon="2.66934">
        <ele>56.9</ele>
        <time>2015-08-02T12:31:41.638Z</time>
      </trkpt>
      <trkpt lat="43.25414" lon="2.66942">
        <ele>56</ele>
        <time>2015-08-02T12:31:44.034Z</time>
      </trkpt>
      <trkpt lat="43.25416" lon="2.66946">
        <ele>56.1</ele>
        <time>2015-08-02T12:31:44.633Z</time>
      </trkpt>
      <trkpt lat="43.2542" lon="2.66952">
        <ele>56.1</ele>
        <time>2015-08-02T12:31:46.711Z</time>
      </trkpt>
      <trkpt lat="43.25423" lon="2.66956">
        <ele>57</ele>
        <time>2015-08-02T12:31:47.658Z</time>
      </trkpt>
      <trkpt lat="43.25425" lon="2.66964">
        <ele>57.3</ele>
        <time>2015-08-02T12:31:49.695Z</time>
      </trkpt>
      <trkpt lat="43.25425" lon="2.66968">
        <ele>57.5</ele>
        <time>2015-08-02T12:31:50.645Z</time>
      </trkpt>
      <trkpt lat="43.2543" lon="2.66978">
        <ele>56.9</ele>
        <time>2015-08-02T12:31:55.695Z</time>
      </trkpt>
      <trkpt lat="43.25432" lon="2.6698">
        <ele>56.8</ele>
        <time>2015-08-02T12:31:56.635Z</time>
      </trkpt>
      <trkpt lat="43.25437" lon="2.66988">
        <ele>55.4</ele>
        <time>2015-08-02T12:31:59.693Z</time>
      </trkpt>
      <trkpt lat="43.25439" lon="2.66992">
        <ele>54.8</ele>
        <time>2015-08-02T12:32:00.637Z</time>
      </trkpt>
      <trkpt lat="43.25443" lon="2.67">
        <ele>54</ele>
        <time>2015-08-02T12:32:02.681Z</time>
      </trkpt>
      <trkpt lat="43.25446" lon="2.67003">
        <ele>53.5</ele>
        <time>2015-08-02T12:32:03.636Z</time>
      </trkpt>
      <trkpt lat="43.25451" lon="2.67012">
        <ele>52.9</ele>
        <time>2015-08-02T12:32:05.679Z</time>
      </trkpt>
      <trkpt lat="43.25454" lon="2.67015">
        <ele>52.6</ele>
        <time>2015-08-02T12:32:06.634Z</time>
      </trkpt>
      <trkpt lat="43.25458" lon="2.67022">
        <ele>51.5</ele>
        <time>2015-08-02T12:32:08.674Z</time>
      </trkpt>
      <trkpt lat="43.25461" lon="2.67026">
        <ele>50.9</ele>
        <time>2015-08-02T12:32:09.631Z</time>
      </trkpt>
      <trkpt lat="43.25465" lon="2.67034">
        <ele>50</ele>
        <time>2015-08-02T12:32:11.694Z</time>
      </trkpt>
      <trkpt lat="43.25468" lon="2.67039">
        <ele>49.7</ele>
        <time>2015-08-02T12:32:12.668Z</time>
      </trkpt>
      <trkpt lat="43.25473" lon="2.67047">
        <ele>48.9</ele>
        <time>2015-08-02T12:32:14.684Z</time>
      </trkpt>
      <trkpt lat="43.25475" lon="2.67051">
        <ele>48.4</ele>
        <time>2015-08-02T12:32:15.640Z</time>
      </trkpt>
      <trkpt lat="43.25479" lon="2.67058">
        <ele>47.7</ele>
        <time>2015-08-02T12:32:17.848Z</time>
      </trkpt>
      <trkpt lat="43.25481" lon="2.67062">
        <ele>47.4</ele>
        <time>2015-08-02T12:32:18.632Z</time>
      </trkpt>
      <trkpt lat="43.25486" lon="2.67069">
        <ele>47.1</ele>
        <time>2015-08-02T12:32:20.686Z</time>
      </trkpt>
      <trkpt lat="43.25488" lon="2.67073">
        <ele>47.3</ele>
        <time>2015-08-02T12:32:21.634Z</time>
      </trkpt>
      <trkpt lat="43.25493" lon="2.6708">
        <ele>47.3</ele>
        <time>2015-08-02T12:32:23.696Z</time>
      </trkpt>
      <trkpt lat="43.25495" lon="2.67084">
        <ele>47.3</ele>
        <time>2015-08-02T12:32:24.636Z</time>
      </trkpt>
      <trkpt lat="43.255" lon="2.67092">
        <ele>47.7</ele>
        <time>2015-08-02T12:32:26.702Z</time>
      </trkpt>
      <trkpt lat="43.25502" lon="2.67095">
        <ele>47.8</ele>
        <time>2015-08-02T12:32:27.646Z</time>
      </trkpt>
      <trkpt lat="43.25506" lon="2.67103">
        <ele>48.3</ele>
        <time>2015-08-02T12:32:29.689Z</time>
      </trkpt>
      <trkpt lat="43.25507" lon="2.67107">
        <ele>48</ele>
        <time>2015-08-02T12:32:30.632Z</time>
      </trkpt>
      <trkpt lat="43.25512" lon="2.67117">
        <ele>48.4</ele>
        <time>2015-08-02T12:32:33.696Z</time>
      </trkpt>
      <trkpt lat="43.25514" lon="2.6712">
        <ele>48.2</ele>
        <time>2015-08-02T12:32:34.645Z</time>
      </trkpt>
      <trkpt lat="43.25519" lon="2.67127">
        <ele>48.6</ele>
        <time>2015-08-02T12:32:36.698Z</time>
      </trkpt>
      <trkpt lat="43.25521" lon="2.67131">
        <ele>48.4</ele>
        <time>2015-08-02T12:32:37.648Z</time>
      </trkpt>
      <trkpt lat="43.25526" lon="2.67137">
        <ele>48.2</ele>
        <time>2015-08-02T12:32:39.701Z</time>
      </trkpt>
      <trkpt lat="43.25528" lon="2.6714">
        <ele>48.2</ele>
        <time>2015-08-02T12:32:40.634Z</time>
      </trkpt>
      <trkpt lat="43.25532" lon="2.67149">
        <ele>48.3</ele>
        <time>2015-08-02T12:32:43.694Z</time>
      </trkpt>
      <trkpt lat="43.25534" lon="2.67152">
        <ele>48.1</ele>
        <time>2015-08-02T12:32:44.646Z</time>
      </trkpt>
      <trkpt lat="43.25539" lon="2.6716">
        <ele>47.7</ele>
        <time>2015-08-02T12:32:47.702Z</time>
      </trkpt>
      <trkpt lat="43.25541" lon="2.67163">
        <ele>48</ele>
        <time>2015-08-02T12:32:48.635Z</time>
      </trkpt>
      <trkpt lat="43.25546" lon="2.67171">
        <ele>47.7</ele>
        <time>2015-08-02T12:32:52.703Z</time>
      </trkpt>
      <trkpt lat="43.25547" lon="2.67174">
        <ele>47.6</ele>
        <time>2015-08-02T12:32:53.658Z</time>
      </trkpt>
      <trkpt lat="43.25553" lon="2.67182">
        <ele>47.1</ele>
        <time>2015-08-02T12:32:58.027Z</time>
      </trkpt>
      <trkpt lat="43.25554" lon="2.67183">
        <ele>46.8</ele>
        <time>2015-08-02T12:32:58.635Z</time>
      </trkpt>
      <trkpt lat="43.25558" lon="2.67192">
        <ele>45.8</ele>
        <time>2015-08-02T12:33:02.682Z</time>
      </trkpt>
      <trkpt lat="43.2556" lon="2.67194">
        <ele>45.5</ele>
        <time>2015-08-02T12:33:03.637Z</time>
      </trkpt>
      <trkpt lat="43.25565" lon="2.67202">
        <ele>44.9</ele>
        <time>2015-08-02T12:33:06.679Z</time>
      </trkpt>
      <trkpt lat="43.25567" lon="2.67206">
        <ele>44.7</ele>
        <time>2015-08-02T12:33:07.636Z</time>
      </trkpt>
      <trkpt lat="43.25572" lon="2.67213">
        <ele>44.7</ele>
        <time>2015-08-02T12:33:09.691Z</time>
      </trkpt>
      <trkpt lat="43.25574" lon="2.67217">
        <ele>44.6</ele>
        <time>2015-08-02T12:33:10.636Z</time>
      </trkpt>
      <trkpt lat="43.25578" lon="2.67225">
        <ele>44.3</ele>
        <time>2015-08-02T12:33:12.684Z</time>
      </trkpt>
      <trkpt lat="43.2558" lon="2.67228">
        <ele>44.5</ele>
        <time>2015-08-02T12:33:13.638Z</time>
      </trkpt>
      <trkpt lat="43.25585" lon="2.67238">
        <ele>44.5</ele>
        <time>2015-08-02T12:33:16.681Z</time>
      </trkpt>
      <trkpt lat="43.25587" lon="2.67241">
        <ele>44.5</ele>
        <time>2015-08-02T12:33:17.643Z</time>
      </trkpt>
      <trkpt lat="43.25591" lon="2.67249">
        <ele>44.9</ele>
        <time>2015-08-02T12:33:19.687Z</time>
      </trkpt>
      <trkpt lat="43.25593" lon="2.67252">
        <ele>45</ele>
        <time>2015-08-02T12:33:20.636Z</time>
      </trkpt>
      <trkpt lat="43.25598" lon="2.67259">
        <ele>45.9</ele>
        <time>2015-08-02T12:33:22.683Z</time>
      </trkpt>
      <trkpt lat="43.25599" lon="2.67263">
        <ele>46</ele>
        <time>2015-08-02T12:33:23.645Z</time>
      </trkpt>
      <trkpt lat="43.25603" lon="2.6727">
        <ele>46.2</ele>
        <time>2015-08-02T12:33:25.700Z</time>
      </trkpt>
      <trkpt lat="43.25605" lon="2.67274">
        <ele>46.5</ele>
        <time>2015-08-02T12:33:26.635Z</time>
      </trkpt>
      <trkpt lat="43.25609" lon="2.67279">
        <ele>46.6</ele>
        <time>2015-08-02T12:33:28.676Z</time>
      </trkpt>
      <trkpt lat="43.25611" lon="2.67282">
        <ele>46.5</ele>
        <time>2015-08-02T12:33:29.637Z</time>
      </trkpt>
      <trkpt lat="43.25616" lon="2.6729">
        <ele>46.2</ele>
        <time>2015-08-02T12:33:31.705Z</time>
      </trkpt>
      <trkpt lat="43.25618" lon="2.67293">
        <ele>45.9</ele>
        <time>2015-08-02T12:33:32.658Z</time>
      </trkpt>
      <trkpt lat="43.25622" lon="2.67299">
        <ele>44.6</ele>
        <time>2015-08-02T12:33:34.681Z</time>
      </trkpt>
      <trkpt lat="43.25626" lon="2.67302">
        <ele>44.8</ele>
        <time>2015-08-02T12:33:35.632Z</time>
      </trkpt>
      <trkpt lat="43.25631" lon="2.67307">
        <ele>44.4</ele>
        <time>2015-08-02T12:33:37.692Z</time>
      </trkpt>
      <trkpt lat="43.25633" lon="2.6731">
        <ele>44.2</ele>
        <time>2015-08-02T12:33:38.637Z</time>
      </trkpt>
      <trkpt lat="43.2564" lon="2.67319">
        <ele>43.9</ele>
        <time>2015-08-02T12:33:41.680Z</time>
      </trkpt>
      <trkpt lat="43.25641" lon="2.67322">
        <ele>43.7</ele>
        <time>2015-08-02T12:33:42.635Z</time>
      </trkpt>
      <trkpt lat="43.25647" lon="2.6733">
        <ele>43.5</ele>
        <time>2015-08-02T12:33:45.695Z</time>
      </trkpt>
      <trkpt lat="43.25649" lon="2.67333">
        <ele>43.1</ele>
        <time>2015-08-02T12:33:46.662Z</time>
      </trkpt>
      <trkpt lat="43.25656" lon="2.6734">
        <ele>42.8</ele>
        <time>2015-08-02T12:33:49.697Z</time>
      </trkpt>
      <trkpt lat="43.25658" lon="2.67343">
        <ele>42.1</ele>
        <time>2015-08-02T12:33:50.636Z</time>
      </trkpt>
      <trkpt lat="43.25664" lon="2.6735">
        <ele>40.9</ele>
        <time>2015-08-02T12:33:53.702Z</time>
      </trkpt>
      <trkpt lat="43.25667" lon="2.67352">
        <ele>40.2</ele>
        <time>2015-08-02T12:33:54.645Z</time>
      </trkpt>
      <trkpt lat="43.25671" lon="2.67359">
        <ele>41.1</ele>
        <time>2015-08-02T12:33:56.708Z</time>
      </trkpt>
      <trkpt lat="43.25673" lon="2.67363">
        <ele>40.7</ele>
        <time>2015-08-02T12:33:57.634Z</time>
      </trkpt>
      <trkpt lat="43.25677" lon="2.67369">
        <ele>40.7</ele>
        <time>2015-08-02T12:33:59.719Z</time>
      </trkpt>
      <trkpt lat="43.25679" lon="2.67372">
        <ele>40.6</ele>
        <time>2015-08-02T12:34:00.634Z</time>
      </trkpt>
      <trkpt lat="43.25684" lon="2.67378">
        <ele>41.4</ele>
        <time>2015-08-02T12:34:02.940Z</time>
      </trkpt>
      <trkpt lat="43.25686" lon="2.67381">
        <ele>41.1</ele>
        <time>2015-08-02T12:34:03.639Z</time>
      </trkpt>
      <trkpt lat="43.25693" lon="2.67388">
        <ele>39</ele>
        <time>2015-08-02T12:34:06.695Z</time>
      </trkpt>
      <trkpt lat="43.25694" lon="2.67391">
        <ele>38.4</ele>
        <time>2015-08-02T12:34:07.639Z</time>
      </trkpt>
      <trkpt lat="43.25699" lon="2.67397">
        <ele>37.9</ele>
        <time>2015-08-02T12:34:09.684Z</time>
      </trkpt>
      <trkpt lat="43.25702" lon="2.674">
        <ele>38.3</ele>
        <time>2015-08-02T12:34:10.632Z</time>
      </trkpt>
      <trkpt lat="43.25707" lon="2.67406">
        <ele>38.6</ele>
        <time>2015-08-02T12:34:12.688Z</time>
      </trkpt>
      <trkpt lat="43.2571" lon="2.6741">
        <ele>39.5</ele>
        <time>2015-08-02T12:34:13.637Z</time>
      </trkpt>
      <trkpt lat="43.25714" lon="2.67416">
        <ele>39.6</ele>
        <time>2015-08-02T12:34:15.683Z</time>
      </trkpt>
      <trkpt lat="43.25716" lon="2.67419">
        <ele>39.9</ele>
        <time>2015-08-02T12:34:16.633Z</time>
      </trkpt>
      <trkpt lat="43.25722" lon="2.67428">
        <ele>39.9</ele>
        <time>2015-08-02T12:34:19.703Z</time>
      </trkpt>
      <trkpt lat="43.25724" lon="2.67432">
        <ele>40.1</ele>
        <time>2015-08-02T12:34:20.638Z</time>
      </trkpt>
      <trkpt lat="43.25729" lon="2.6744">
        <ele>39.7</ele>
        <time>2015-08-02T12:34:23.693Z</time>
      </trkpt>
      <trkpt lat="43.25731" lon="2.67442">
        <ele>39.5</ele>
        <time>2015-08-02T12:34:24.645Z</time>
      </trkpt>
      <trkpt lat="43.25737" lon="2.6745">
        <ele>39.7</ele>
        <time>2015-08-02T12:34:27.691Z</time>
      </trkpt>
      <trkpt lat="43.25739" lon="2.67453">
        <ele>39.6</ele>
        <time>2015-08-02T12:34:28.634Z</time>
      </trkpt>
      <trkpt lat="43.25744" lon="2.67459">
        <ele>40.4</ele>
        <time>2015-08-02T12:34:30.687Z</time>
      </trkpt>
      <trkpt lat="43.25746" lon="2.67461">
        <ele>40.9</ele>
        <time>2015-08-02T12:34:31.641Z</time>
      </trkpt>
      <trkpt lat="43.25752" lon="2.67468">
        <ele>41.7</ele>
        <time>2015-08-02T12:34:34.679Z</time>
      </trkpt>
      <trkpt lat="43.25754" lon="2.67471">
        <ele>42.2</ele>
        <time>2015-08-02T12:34:35.640Z</time>
      </trkpt>
      <trkpt lat="43.25759" lon="2.67478">
        <ele>42.7</ele>
        <time>2015-08-02T12:34:38.716Z</time>
      </trkpt>
      <trkpt lat="43.25761" lon="2.6748">
        <ele>42.7</ele>
        <time>2015-08-02T12:34:39.644Z</time>
      </trkpt>
      <trkpt lat="43.25766" lon="2.67487">
        <ele>43.4</ele>
        <time>2015-08-02T12:34:42.673Z</time>
      </trkpt>
      <trkpt lat="43.25768" lon="2.6749">
        <ele>44.2</ele>
        <time>2015-08-02T12:34:43.639Z</time>
      </trkpt>
      <trkpt lat="43.25773" lon="2.67496">
        <ele>44.2</ele>
        <time>2015-08-02T12:34:45.683Z</time>
      </trkpt>
      <trkpt lat="43.25775" lon="2.67499">
        <ele>44.3</ele>
        <time>2015-08-02T12:34:46.645Z</time>
      </trkpt>
      <trkpt lat="43.25781" lon="2.67506">
        <ele>45.4</ele>
        <time>2015-08-02T12:34:49.693Z</time>
      </trkpt>
      <trkpt lat="43.25783" lon="2.67509">
        <ele>45.9</ele>
        <time>2015-08-02T12:34:50.633Z</time>
      </trkpt>
      <trkpt lat="43.2579" lon="2.67516">
        <ele>45.8</ele>
        <time>2015-08-02T12:34:53.691Z</time>
      </trkpt>
      <trkpt lat="43.25792" lon="2.67518">
        <ele>45.4</ele>
        <time>2015-08-02T12:34:54.636Z</time>
      </trkpt>
      <trkpt lat="43.25798" lon="2.67525">
        <ele>45.4</ele>
        <time>2015-08-02T12:34:57.690Z</time>
      </trkpt>
      <trkpt lat="43.258" lon="2.67528">
        <ele>45.2</ele>
        <time>2015-08-02T12:34:58.632Z</time>
      </trkpt>
      <trkpt lat="43.25805" lon="2.67535">
        <ele>45.7</ele>
        <time>2015-08-02T12:35:01.695Z</time>
      </trkpt>
      <trkpt lat="43.25807" lon="2.67538">
        <ele>46.3</ele>
        <time>2015-08-02T12:35:02.636Z</time>
      </trkpt>
      <trkpt lat="43.25812" lon="2.67543">
        <ele>47.1</ele>
        <time>2015-08-02T12:35:04.674Z</time>
      </trkpt>
      <trkpt lat="43.25815" lon="2.67546">
        <ele>47.7</ele>
        <time>2015-08-02T12:35:05.636Z</time>
      </trkpt>
      <trkpt lat="43.25821" lon="2.67554">
        <ele>49.6</ele>
        <time>2015-08-02T12:35:08.675Z</time>
      </trkpt>
      <trkpt lat="43.25824" lon="2.67557">
        <ele>49.8</ele>
        <time>2015-08-02T12:35:09.658Z</time>
      </trkpt>
      <trkpt lat="43.2583" lon="2.67563">
        <ele>50.8</ele>
        <time>2015-08-02T12:35:11.683Z</time>
      </trkpt>
      <trkpt lat="43.25832" lon="2.67566">
        <ele>51.5</ele>
        <time>2015-08-02T12:35:12.635Z</time>
      </trkpt>
      <trkpt lat="43.25837" lon="2.67573">
        <ele>51.8</ele>
        <time>2015-08-02T12:35:14.680Z</time>
      </trkpt>
      <trkpt lat="43.2584" lon="2.67575">
        <ele>51.9</ele>
        <time>2015-08-02T12:35:15.634Z</time>
      </trkpt>
      <trkpt lat="43.25845" lon="2.6758">
        <ele>52</ele>
        <time>2015-08-02T12:35:17.681Z</time>
      </trkpt>
      <trkpt lat="43.25848" lon="2.67583">
        <ele>52.3</ele>
        <time>2015-08-02T12:35:18.634Z</time>
      </trkpt>
      <trkpt lat="43.25854" lon="2.67589">
        <ele>52.3</ele>
        <time>2015-08-02T12:35:20.845Z</time>
      </trkpt>
      <trkpt lat="43.25857" lon="2.67593">
        <ele>52.3</ele>
        <time>2015-08-02T12:35:21.707Z</time>
      </trkpt>
      <trkpt lat="43.25863" lon="2.67599">
        <ele>52.1</ele>
        <time>2015-08-02T12:35:23.676Z</time>
      </trkpt>
      <trkpt lat="43.25866" lon="2.67603">
        <ele>51.8</ele>
        <time>2015-08-02T12:35:24.631Z</time>
      </trkpt>
      <trkpt lat="43.25872" lon="2.6761">
        <ele>51.5</ele>
        <time>2015-08-02T12:35:26.681Z</time>
      </trkpt>
      <trkpt lat="43.25875" lon="2.67614">
        <ele>51</ele>
        <time>2015-08-02T12:35:27.635Z</time>
      </trkpt>
      <trkpt lat="43.25879" lon="2.67618">
        <ele>50.5</ele>
        <time>2015-08-02T12:35:28.684Z</time>
      </trkpt>
      <trkpt lat="43.25882" lon="2.67622">
        <ele>50.2</ele>
        <time>2015-08-02T12:35:29.644Z</time>
      </trkpt>
      <trkpt lat="43.25885" lon="2.67626">
        <ele>49.6</ele>
        <time>2015-08-02T12:35:30.680Z</time>
      </trkpt>
      <trkpt lat="43.25889" lon="2.6763">
        <ele>49.2</ele>
        <time>2015-08-02T12:35:31.638Z</time>
      </trkpt>
      <trkpt lat="43.25893" lon="2.67634">
        <ele>49</ele>
        <time>2015-08-02T12:35:32.696Z</time>
      </trkpt>
      <trkpt lat="43.25896" lon="2.67638">
        <ele>48.7</ele>
        <time>2015-08-02T12:35:33.657Z</time>
      </trkpt>
      <trkpt lat="43.259" lon="2.67643">
        <ele>48.5</ele>
        <time>2015-08-02T12:35:34.684Z</time>
      </trkpt>
      <trkpt lat="43.25904" lon="2.67647">
        <ele>48.1</ele>
        <time>2015-08-02T12:35:35.636Z</time>
      </trkpt>
      <trkpt lat="43.25909" lon="2.67656">
        <ele>47.6</ele>
        <time>2015-08-02T12:35:37.684Z</time>
      </trkpt>
      <trkpt lat="43.25913" lon="2.6766">
        <ele>47.4</ele>
        <time>2015-08-02T12:35:38.637Z</time>
      </trkpt>
      <trkpt lat="43.25915" lon="2.67665">
        <ele>47.1</ele>
        <time>2015-08-02T12:35:39.681Z</time>
      </trkpt>
      <trkpt lat="43.25919" lon="2.67669">
        <ele>47</ele>
        <time>2015-08-02T12:35:40.634Z</time>
      </trkpt>
      <trkpt lat="43.25922" lon="2.67674">
        <ele>47</ele>
        <time>2015-08-02T12:35:41.687Z</time>
      </trkpt>
      <trkpt lat="43.25925" lon="2.67679">
        <ele>46.7</ele>
        <time>2015-08-02T12:35:42.633Z</time>
      </trkpt>
      <trkpt lat="43.25928" lon="2.67684">
        <ele>46.7</ele>
        <time>2015-08-02T12:35:43.689Z</time>
      </trkpt>
      <trkpt lat="43.2593" lon="2.67689">
        <ele>46.5</ele>
        <time>2015-08-02T12:35:44.632Z</time>
      </trkpt>
      <trkpt lat="43.25933" lon="2.677">
        <ele>46.5</ele>
        <time>2015-08-02T12:35:46.871Z</time>
      </trkpt>
      <trkpt lat="43.25935" lon="2.67705">
        <ele>46.4</ele>
        <time>2015-08-02T12:35:47.632Z</time>
      </trkpt>
      <trkpt lat="43.25937" lon="2.67714">
        <ele>46.3</ele>
        <time>2015-08-02T12:35:49.693Z</time>
      </trkpt>
      <trkpt lat="43.25937" lon="2.67719">
        <ele>46.1</ele>
        <time>2015-08-02T12:35:50.635Z</time>
      </trkpt>
      <trkpt lat="43.25938" lon="2.67729">
        <ele>45.9</ele>
        <time>2015-08-02T12:35:52.684Z</time>
      </trkpt>
      <trkpt lat="43.25938" lon="2.67733">
        <ele>46</ele>
        <time>2015-08-02T12:35:53.637Z</time>
      </trkpt>
      <trkpt lat="43.25939" lon="2.67742">
        <ele>46.1</ele>
        <time>2015-08-02T12:35:55.713Z</time>
      </trkpt>
      <trkpt lat="43.2594" lon="2.67746">
        <ele>46</ele>
        <time>2015-08-02T12:35:56.644Z</time>
      </trkpt>
      <trkpt lat="43.25941" lon="2.67755">
        <ele>45.7</ele>
        <time>2015-08-02T12:35:58.694Z</time>
      </trkpt>
      <trkpt lat="43.25941" lon="2.6776">
        <ele>46</ele>
        <time>2015-08-02T12:35:59.656Z</time>
      </trkpt>
      <trkpt lat="43.25942" lon="2.67769">
        <ele>45.8</ele>
        <time>2015-08-02T12:36:01.684Z</time>
      </trkpt>
      <trkpt lat="43.25943" lon="2.67773">
        <ele>45.5</ele>
        <time>2015-08-02T12:36:02.633Z</time>
      </trkpt>
      <trkpt lat="43.25943" lon="2.67782">
        <ele>45.9</ele>
        <time>2015-08-02T12:36:04.676Z</time>
      </trkpt>
      <trkpt lat="43.25943" lon="2.67786">
        <ele>45.5</ele>
        <time>2015-08-02T12:36:05.636Z</time>
      </trkpt>
      <trkpt lat="43.25945" lon="2.67796">
        <ele>45.3</ele>
        <time>2015-08-02T12:36:08.709Z</time>
      </trkpt>
      <trkpt lat="43.25945" lon="2.678">
        <ele>44.9</ele>
        <time>2015-08-02T12:36:09.656Z</time>
      </trkpt>
      <trkpt lat="43.25946" lon="2.67812">
        <ele>45.5</ele>
        <time>2015-08-02T12:36:12.692Z</time>
      </trkpt>
      <trkpt lat="43.25946" lon="2.67815">
        <ele>45.8</ele>
        <time>2015-08-02T12:36:13.638Z</time>
      </trkpt>
      <trkpt lat="43.25947" lon="2.67826">
        <ele>46.8</ele>
        <time>2015-08-02T12:36:16.681Z</time>
      </trkpt>
      <trkpt lat="43.25948" lon="2.6783">
        <ele>46.3</ele>
        <time>2015-08-02T12:36:17.632Z</time>
      </trkpt>
      <trkpt lat="43.25949" lon="2.67841">
        <ele>46.4</ele>
        <time>2015-08-02T12:36:20.696Z</time>
      </trkpt>
      <trkpt lat="43.2595" lon="2.67845">
        <ele>46</ele>
        <time>2015-08-02T12:36:21.656Z</time>
      </trkpt>
      <trkpt lat="43.25951" lon="2.67856">
        <ele>46.5</ele>
        <time>2015-08-02T12:36:24.681Z</time>
      </trkpt>
      <trkpt lat="43.25951" lon="2.67859">
        <ele>46.7</ele>
        <time>2015-08-02T12:36:25.638Z</time>
      </trkpt>
      <trkpt lat="43.25953" lon="2.6787">
        <ele>46.9</ele>
        <time>2015-08-02T12:36:28.710Z</time>
      </trkpt>
      <trkpt lat="43.25954" lon="2.67874">
        <ele>47</ele>
        <time>2015-08-02T12:36:29.642Z</time>
      </trkpt>
      <trkpt lat="43.25956" lon="2.67883">
        <ele>47.4</ele>
        <time>2015-08-02T12:36:32.678Z</time>
      </trkpt>
      <trkpt lat="43.25957" lon="2.67887">
        <ele>47.4</ele>
        <time>2015-08-02T12:36:33.635Z</time>
      </trkpt>
      <trkpt lat="43.25959" lon="2.67898">
        <ele>47.6</ele>
        <time>2015-08-02T12:36:36.676Z</time>
      </trkpt>
      <trkpt lat="43.2596" lon="2.67901">
        <ele>48.6</ele>
        <time>2015-08-02T12:36:37.639Z</time>
      </trkpt>
      <trkpt lat="43.25962" lon="2.67907">
        <ele>48.8</ele>
        <time>2015-08-02T12:36:39.681Z</time>
      </trkpt>
      <trkpt lat="43.25963" lon="2.67908">
        <ele>48.9</ele>
        <time>2015-08-02T12:36:40.635Z</time>
      </trkpt>
      <trkpt lat="43.25961" lon="2.67913">
        <ele>49.6</ele>
        <time>2015-08-02T12:36:48.694Z</time>
      </trkpt>
      <trkpt lat="43.2596" lon="2.67915">
        <ele>49.6</ele>
        <time>2015-08-02T12:36:49.646Z</time>
      </trkpt>
      <trkpt lat="43.2596" lon="2.67917">
        <ele>49.6</ele>
        <time>2015-08-02T12:36:50.676Z</time>
      </trkpt>
      <trkpt lat="43.2596" lon="2.67918">
        <ele>49.7</ele>
        <time>2015-08-02T12:36:51.634Z</time>
      </trkpt>
      <trkpt lat="43.25961" lon="2.67922">
        <ele>49.6</ele>
        <time>2015-08-02T12:36:56.689Z</time>
      </trkpt>
      <trkpt lat="43.25961" lon="2.67924">
        <ele>49.6</ele>
        <time>2015-08-02T12:36:57.638Z</time>
      </trkpt>
      <trkpt lat="43.25965" lon="2.67934">
        <ele>48.6</ele>
        <time>2015-08-02T12:37:01.673Z</time>
      </trkpt>
      <trkpt lat="43.25966" lon="2.67936">
        <ele>48.8</ele>
        <time>2015-08-02T12:37:02.632Z</time>
      </trkpt>
      <trkpt lat="43.25969" lon="2.67945">
        <ele>49.3</ele>
        <time>2015-08-02T12:37:05.699Z</time>
      </trkpt>
      <trkpt lat="43.25971" lon="2.67949">
        <ele>49.8</ele>
        <time>2015-08-02T12:37:06.640Z</time>
      </trkpt>
      <trkpt lat="43.25974" lon="2.67957">
        <ele>51.5</ele>
        <time>2015-08-02T12:37:08.693Z</time>
      </trkpt>
      <trkpt lat="43.25976" lon="2.67961">
        <ele>52.3</ele>
        <time>2015-08-02T12:37:09.637Z</time>
      </trkpt>
      <trkpt lat="43.2598" lon="2.67971">
        <ele>53.8</ele>
        <time>2015-08-02T12:37:11.676Z</time>
      </trkpt>
      <trkpt lat="43.25982" lon="2.67976">
        <ele>54.6</ele>
        <time>2015-08-02T12:37:12.645Z</time>
      </trkpt>
      <trkpt lat="43.25986" lon="2.67986">
        <ele>54.9</ele>
        <time>2015-08-02T12:37:14.712Z</time>
      </trkpt>
      <trkpt lat="43.25987" lon="2.6799">
        <ele>55</ele>
        <time>2015-08-02T12:37:15.645Z</time>
      </trkpt>
      <trkpt lat="43.25991" lon="2.68">
        <ele>55.3</ele>
        <time>2015-08-02T12:37:17.673Z</time>
      </trkpt>
      <trkpt lat="43.25993" lon="2.68005">
        <ele>55.2</ele>
        <time>2015-08-02T12:37:18.635Z</time>
      </trkpt>
      <trkpt lat="43.25996" lon="2.6801">
        <ele>56.2</ele>
        <time>2015-08-02T12:37:19.700Z</time>
      </trkpt>
      <trkpt lat="43.25999" lon="2.68015">
        <ele>56.8</ele>
        <time>2015-08-02T12:37:20.633Z</time>
      </trkpt>
      <trkpt lat="43.26002" lon="2.68021">
        <ele>57</ele>
        <time>2015-08-02T12:37:21.715Z</time>
      </trkpt>
      <trkpt lat="43.26005" lon="2.68026">
        <ele>57.3</ele>
        <time>2015-08-02T12:37:22.637Z</time>
      </trkpt>
      <trkpt lat="43.26008" lon="2.68031">
        <ele>57.6</ele>
        <time>2015-08-02T12:37:23.667Z</time>
      </trkpt>
      <trkpt lat="43.2601" lon="2.68037">
        <ele>56.8</ele>
        <time>2015-08-02T12:37:24.632Z</time>
      </trkpt>
      <trkpt lat="43.26013" lon="2.68043">
        <ele>56.7</ele>
        <time>2015-08-02T12:37:25.673Z</time>
      </trkpt>
      <trkpt lat="43.26014" lon="2.68048">
        <ele>55.5</ele>
        <time>2015-08-02T12:37:26.634Z</time>
      </trkpt>
      <trkpt lat="43.26017" lon="2.68054">
        <ele>55.2</ele>
        <time>2015-08-02T12:37:27.671Z</time>
      </trkpt>
      <trkpt lat="43.2602" lon="2.68059">
        <ele>54.6</ele>
        <time>2015-08-02T12:37:28.639Z</time>
      </trkpt>
      <trkpt lat="43.26022" lon="2.68065">
        <ele>54.5</ele>
        <time>2015-08-02T12:37:29.676Z</time>
      </trkpt>
      <trkpt lat="43.26025" lon="2.6807">
        <ele>54.5</ele>
        <time>2015-08-02T12:37:30.645Z</time>
      </trkpt>
      <trkpt lat="43.26027" lon="2.68076">
        <ele>54.3</ele>
        <time>2015-08-02T12:37:31.692Z</time>
      </trkpt>
      <trkpt lat="43.2603" lon="2.68082">
        <ele>54.2</ele>
        <time>2015-08-02T12:37:32.641Z</time>
      </trkpt>
      <trkpt lat="43.26032" lon="2.68087">
        <ele>53.8</ele>
        <time>2015-08-02T12:37:33.676Z</time>
      </trkpt>
      <trkpt lat="43.26035" lon="2.68092">
        <ele>53.4</ele>
        <time>2015-08-02T12:37:34.656Z</time>
      </trkpt>
      <trkpt lat="43.26038" lon="2.68097">
        <ele>52.9</ele>
        <time>2015-08-02T12:37:35.675Z</time>
      </trkpt>
      <trkpt lat="43.26041" lon="2.68103">
        <ele>52.8</ele>
        <time>2015-08-02T12:37:36.634Z</time>
      </trkpt>
      <trkpt lat="43.26043" lon="2.68109">
        <ele>52.7</ele>
        <time>2015-08-02T12:37:37.676Z</time>
      </trkpt>
      <trkpt lat="43.26045" lon="2.68115">
        <ele>52.3</ele>
        <time>2015-08-02T12:37:38.641Z</time>
      </trkpt>
      <trkpt lat="43.26048" lon="2.68121">
        <ele>52</ele>
        <time>2015-08-02T12:37:39.674Z</time>
      </trkpt>
      <trkpt lat="43.2605" lon="2.68127">
        <ele>51.9</ele>
        <time>2015-08-02T12:37:40.639Z</time>
      </trkpt>
      <trkpt lat="43.26053" lon="2.68132">
        <ele>51.7</ele>
        <time>2015-08-02T12:37:41.707Z</time>
      </trkpt>
      <trkpt lat="43.26055" lon="2.68138">
        <ele>51.7</ele>
        <time>2015-08-02T12:37:42.657Z</time>
      </trkpt>
      <trkpt lat="43.2606" lon="2.68147">
        <ele>50.5</ele>
        <time>2015-08-02T12:37:44.680Z</time>
      </trkpt>
      <trkpt lat="43.26062" lon="2.68152">
        <ele>50.2</ele>
        <time>2015-08-02T12:37:45.635Z</time>
      </trkpt>
      <trkpt lat="43.26065" lon="2.68157">
        <ele>50.4</ele>
        <time>2015-08-02T12:37:46.681Z</time>
      </trkpt>
      <trkpt lat="43.26068" lon="2.68162">
        <ele>50.7</ele>
        <time>2015-08-02T12:37:47.634Z</time>
      </trkpt>
      <trkpt lat="43.26074" lon="2.6817">
        <ele>50.9</ele>
        <time>2015-08-02T12:37:49.698Z</time>
      </trkpt>
      <trkpt lat="43.26076" lon="2.68174">
        <ele>51</ele>
        <time>2015-08-02T12:37:50.656Z</time>
      </trkpt>
      <trkpt lat="43.2608" lon="2.68182">
        <ele>51.4</ele>
        <time>2015-08-02T12:37:52.723Z</time>
      </trkpt>
      <trkpt lat="43.26082" lon="2.68187">
        <ele>51</ele>
        <time>2015-08-02T12:37:53.644Z</time>
      </trkpt>
      <trkpt lat="43.26085" lon="2.68196">
        <ele>50.6</ele>
        <time>2015-08-02T12:37:55.699Z</time>
      </trkpt>
      <trkpt lat="43.26086" lon="2.682">
        <ele>50.7</ele>
        <time>2015-08-02T12:37:56.634Z</time>
      </trkpt>
      <trkpt lat="43.26089" lon="2.6821">
        <ele>50.7</ele>
        <time>2015-08-02T12:37:58.673Z</time>
      </trkpt>
      <trkpt lat="43.2609" lon="2.68214">
        <ele>50.5</ele>
        <time>2015-08-02T12:37:59.633Z</time>
      </trkpt>
      <trkpt lat="43.26093" lon="2.68225">
        <ele>49.9</ele>
        <time>2015-08-02T12:38:01.676Z</time>
      </trkpt>
      <trkpt lat="43.26094" lon="2.68231">
        <ele>49.9</ele>
        <time>2015-08-02T12:38:02.656Z</time>
      </trkpt>
      <trkpt lat="43.26097" lon="2.68242">
        <ele>49.7</ele>
        <time>2015-08-02T12:38:04.676Z</time>
      </trkpt>
      <trkpt lat="43.26099" lon="2.68247">
        <ele>49.8</ele>
        <time>2015-08-02T12:38:05.635Z</time>
      </trkpt>
      <trkpt lat="43.261" lon="2.68253">
        <ele>49.9</ele>
        <time>2015-08-02T12:38:06.683Z</time>
      </trkpt>
      <trkpt lat="43.26102" lon="2.6826">
        <ele>49.4</ele>
        <time>2015-08-02T12:38:07.637Z</time>
      </trkpt>
      <trkpt lat="43.26103" lon="2.68266">
        <ele>49.3</ele>
        <time>2015-08-02T12:38:08.680Z</time>
      </trkpt>
      <trkpt lat="43.26105" lon="2.68272">
        <ele>49.8</ele>
        <time>2015-08-02T12:38:09.644Z</time>
      </trkpt>
      <trkpt lat="43.26107" lon="2.68279">
        <ele>49.6</ele>
        <time>2015-08-02T12:38:10.680Z</time>
      </trkpt>
      <trkpt lat="43.26109" lon="2.68287">
        <ele>49.7</ele>
        <time>2015-08-02T12:38:11.637Z</time>
      </trkpt>
      <trkpt lat="43.2611" lon="2.68294">
        <ele>49.5</ele>
        <time>2015-08-02T12:38:12.683Z</time>
      </trkpt>
      <trkpt lat="43.26112" lon="2.68301">
        <ele>49.5</ele>
        <time>2015-08-02T12:38:13.642Z</time>
      </trkpt>
      <trkpt lat="43.26113" lon="2.68309">
        <ele>49.2</ele>
        <time>2015-08-02T12:38:14.701Z</time>
      </trkpt>
      <trkpt lat="43.26115" lon="2.68317">
        <ele>50.2</ele>
        <time>2015-08-02T12:38:15.637Z</time>
      </trkpt>
      <trkpt lat="43.26116" lon="2.68324">
        <ele>50.9</ele>
        <time>2015-08-02T12:38:16.709Z</time>
      </trkpt>
      <trkpt lat="43.26118" lon="2.68331">
        <ele>51.2</ele>
        <time>2015-08-02T12:38:17.644Z</time>
      </trkpt>
      <trkpt lat="43.26119" lon="2.68339">
        <ele>51.3</ele>
        <time>2015-08-02T12:38:18.723Z</time>
      </trkpt>
      <trkpt lat="43.26121" lon="2.68346">
        <ele>51.7</ele>
        <time>2015-08-02T12:38:19.638Z</time>
      </trkpt>
      <trkpt lat="43.26123" lon="2.68353">
        <ele>52.3</ele>
        <time>2015-08-02T12:38:20.681Z</time>
      </trkpt>
      <trkpt lat="43.26124" lon="2.68361">
        <ele>52</ele>
        <time>2015-08-02T12:38:21.635Z</time>
      </trkpt>
      <trkpt lat="43.26126" lon="2.68368">
        <ele>52.1</ele>
        <time>2015-08-02T12:38:22.680Z</time>
      </trkpt>
      <trkpt lat="43.26128" lon="2.68375">
        <ele>52.6</ele>
        <time>2015-08-02T12:38:23.638Z</time>
      </trkpt>
      <trkpt lat="43.26129" lon="2.68382">
        <ele>52.5</ele>
        <time>2015-08-02T12:38:24.684Z</time>
      </trkpt>
      <trkpt lat="43.2613" lon="2.68389">
        <ele>53</ele>
        <time>2015-08-02T12:38:25.639Z</time>
      </trkpt>
      <trkpt lat="43.26132" lon="2.68396">
        <ele>53.1</ele>
        <time>2015-08-02T12:38:26.811Z</time>
      </trkpt>
      <trkpt lat="43.26133" lon="2.68402">
        <ele>52.4</ele>
        <time>2015-08-02T12:38:27.635Z</time>
      </trkpt>
      <trkpt lat="43.26134" lon="2.68409">
        <ele>52.5</ele>
        <time>2015-08-02T12:38:28.682Z</time>
      </trkpt>
      <trkpt lat="43.26135" lon="2.68415">
        <ele>52.8</ele>
        <time>2015-08-02T12:38:29.650Z</time>
      </trkpt>
      <trkpt lat="43.26136" lon="2.68422">
        <ele>53</ele>
        <time>2015-08-02T12:38:30.681Z</time>
      </trkpt>
      <trkpt lat="43.26138" lon="2.68429">
        <ele>53</ele>
        <time>2015-08-02T12:38:31.637Z</time>
      </trkpt>
      <trkpt lat="43.26139" lon="2.68437">
        <ele>53</ele>
        <time>2015-08-02T12:38:32.698Z</time>
      </trkpt>
      <trkpt lat="43.26139" lon="2.68444">
        <ele>53.1</ele>
        <time>2015-08-02T12:38:33.644Z</time>
      </trkpt>
      <trkpt lat="43.2614" lon="2.68451">
        <ele>53.2</ele>
        <time>2015-08-02T12:38:35.095Z</time>
      </trkpt>
      <trkpt lat="43.26142" lon="2.68458">
        <ele>53.3</ele>
        <time>2015-08-02T12:38:35.633Z</time>
      </trkpt>
      <trkpt lat="43.26143" lon="2.68466">
        <ele>53.7</ele>
        <time>2015-08-02T12:38:36.683Z</time>
      </trkpt>
      <trkpt lat="43.26145" lon="2.68473">
        <ele>54</ele>
        <time>2015-08-02T12:38:37.637Z</time>
      </trkpt>
      <trkpt lat="43.26146" lon="2.68481">
        <ele>54</ele>
        <time>2015-08-02T12:38:38.683Z</time>
      </trkpt>
      <trkpt lat="43.26148" lon="2.68488">
        <ele>54.4</ele>
        <time>2015-08-02T12:38:39.633Z</time>
      </trkpt>
      <trkpt lat="43.26149" lon="2.68495">
        <ele>54.7</ele>
        <time>2015-08-02T12:38:40.683Z</time>
      </trkpt>
      <trkpt lat="43.26151" lon="2.68502">
        <ele>54.6</ele>
        <time>2015-08-02T12:38:41.644Z</time>
      </trkpt>
      <trkpt lat="43.26152" lon="2.68509">
        <ele>54.7</ele>
        <time>2015-08-02T12:38:42.709Z</time>
      </trkpt>
      <trkpt lat="43.26153" lon="2.68517">
        <ele>54.8</ele>
        <time>2015-08-02T12:38:43.647Z</time>
      </trkpt>
      <trkpt lat="43.26154" lon="2.68524">
        <ele>55.2</ele>
        <time>2015-08-02T12:38:44.682Z</time>
      </trkpt>
      <trkpt lat="43.26156" lon="2.68531">
        <ele>55.6</ele>
        <time>2015-08-02T12:38:45.634Z</time>
      </trkpt>
      <trkpt lat="43.26157" lon="2.68538">
        <ele>56</ele>
        <time>2015-08-02T12:38:46.680Z</time>
      </trkpt>
      <trkpt lat="43.26158" lon="2.68545">
        <ele>56</ele>
        <time>2015-08-02T12:38:47.635Z</time>
      </trkpt>
      <trkpt lat="43.26159" lon="2.68551">
        <ele>56.3</ele>
        <time>2015-08-02T12:38:48.681Z</time>
      </trkpt>
      <trkpt lat="43.2616" lon="2.68557">
        <ele>56.4</ele>
        <time>2015-08-02T12:38:49.637Z</time>
      </trkpt>
      <trkpt lat="43.26162" lon="2.68569">
        <ele>56.3</ele>
        <time>2015-08-02T12:38:51.697Z</time>
      </trkpt>
      <trkpt lat="43.26163" lon="2.68574">
        <ele>56.3</ele>
        <time>2015-08-02T12:38:52.657Z</time>
      </trkpt>
      <trkpt lat="43.26165" lon="2.68585">
        <ele>55.7</ele>
        <time>2015-08-02T12:38:54.678Z</time>
      </trkpt>
      <trkpt lat="43.26167" lon="2.68589">
        <ele>55.3</ele>
        <time>2015-08-02T12:38:55.638Z</time>
      </trkpt>
      <trkpt lat="43.26169" lon="2.68598">
        <ele>55.6</ele>
        <time>2015-08-02T12:38:57.675Z</time>
      </trkpt>
      <trkpt lat="43.2617" lon="2.68603">
        <ele>55.6</ele>
        <time>2015-08-02T12:38:58.638Z</time>
      </trkpt>
      <trkpt lat="43.26172" lon="2.68614">
        <ele>53.4</ele>
        <time>2015-08-02T12:39:01.699Z</time>
      </trkpt>
      <trkpt lat="43.26173" lon="2.68618">
        <ele>52.6</ele>
        <time>2015-08-02T12:39:02.656Z</time>
      </trkpt>
      <trkpt lat="43.26175" lon="2.68627">
        <ele>51.9</ele>
        <time>2015-08-02T12:39:05.674Z</time>
      </trkpt>
      <trkpt lat="43.26176" lon="2.68629">
        <ele>51.3</ele>
        <time>2015-08-02T12:39:06.637Z</time>
      </trkpt>
      <trkpt lat="43.26179" lon="2.6864">
        <ele>51.4</ele>
        <time>2015-08-02T12:39:11.728Z</time>
      </trkpt>
      <trkpt lat="43.2618" lon="2.68642">
        <ele>51.1</ele>
        <time>2015-08-02T12:39:12.657Z</time>
      </trkpt>
      <trkpt lat="43.26184" lon="2.6865">
        <ele>50.4</ele>
        <time>2015-08-02T12:39:16.690Z</time>
      </trkpt>
      <trkpt lat="43.26186" lon="2.68653">
        <ele>50.4</ele>
        <time>2015-08-02T12:39:17.633Z</time>
      </trkpt>
      <trkpt lat="43.2619" lon="2.68661">
        <ele>50.9</ele>
        <time>2015-08-02T12:39:21.710Z</time>
      </trkpt>
      <trkpt lat="43.26192" lon="2.68662">
        <ele>50.9</ele>
        <time>2015-08-02T12:39:22.656Z</time>
      </trkpt>
      <trkpt lat="43.26196" lon="2.68672">
        <ele>52.1</ele>
        <time>2015-08-02T12:39:30.683Z</time>
      </trkpt>
      <trkpt lat="43.26196" lon="2.68674">
        <ele>52.1</ele>
        <time>2015-08-02T12:39:31.637Z</time>
      </trkpt>
      <trkpt lat="43.26193" lon="2.68685">
        <ele>52</ele>
        <time>2015-08-02T12:39:39.683Z</time>
      </trkpt>
      <trkpt lat="43.26194" lon="2.68687">
        <ele>52.1</ele>
        <time>2015-08-02T12:39:40.636Z</time>
      </trkpt>
      <trkpt lat="43.26193" lon="2.68696">
        <ele>52.7</ele>
        <time>2015-08-02T12:39:45.676Z</time>
      </trkpt>
      <trkpt lat="43.26193" lon="2.68699">
        <ele>52.8</ele>
        <time>2015-08-02T12:39:46.636Z</time>
      </trkpt>
      <trkpt lat="43.26194" lon="2.68709">
        <ele>53.2</ele>
        <time>2015-08-02T12:39:49.675Z</time>
      </trkpt>
      <trkpt lat="43.26195" lon="2.68713">
        <ele>53</ele>
        <time>2015-08-02T12:39:50.632Z</time>
      </trkpt>
      <trkpt lat="43.26196" lon="2.68722">
        <ele>52.3</ele>
        <time>2015-08-02T12:39:52.969Z</time>
      </trkpt>
      <trkpt lat="43.26197" lon="2.68728">
        <ele>52.1</ele>
        <time>2015-08-02T12:39:53.635Z</time>
      </trkpt>
      <trkpt lat="43.26196" lon="2.68738">
        <ele>51.2</ele>
        <time>2015-08-02T12:39:55.668Z</time>
      </trkpt>
      <trkpt lat="43.26197" lon="2.68744">
        <ele>50.9</ele>
        <time>2015-08-02T12:39:56.633Z</time>
      </trkpt>
      <trkpt lat="43.26198" lon="2.68753">
        <ele>50.4</ele>
        <time>2015-08-02T12:39:59.017Z</time>
      </trkpt>
      <trkpt lat="43.26199" lon="2.68757">
        <ele>50.1</ele>
        <time>2015-08-02T12:39:59.635Z</time>
      </trkpt>
      <trkpt lat="43.26199" lon="2.68766">
        <ele>50.5</ele>
        <time>2015-08-02T12:40:01.718Z</time>
      </trkpt>
      <trkpt lat="43.26199" lon="2.68769">
        <ele>50</ele>
        <time>2015-08-02T12:40:02.658Z</time>
      </trkpt>
      <trkpt lat="43.26201" lon="2.68781">
        <ele>49.7</ele>
        <time>2015-08-02T12:40:05.672Z</time>
      </trkpt>
      <trkpt lat="43.26202" lon="2.68785">
        <ele>49.8</ele>
        <time>2015-08-02T12:40:06.634Z</time>
      </trkpt>
      <trkpt lat="43.26203" lon="2.68794">
        <ele>48.6</ele>
        <time>2015-08-02T12:40:08.678Z</time>
      </trkpt>
      <trkpt lat="43.26204" lon="2.68799">
        <ele>48.1</ele>
        <time>2015-08-02T12:40:09.645Z</time>
      </trkpt>
      <trkpt lat="43.26206" lon="2.68809">
        <ele>48.1</ele>
        <time>2015-08-02T12:40:11.875Z</time>
      </trkpt>
      <trkpt lat="43.26207" lon="2.68815">
        <ele>47.1</ele>
        <time>2015-08-02T12:40:12.636Z</time>
      </trkpt>
      <trkpt lat="43.26208" lon="2.68828">
        <ele>46</ele>
        <time>2015-08-02T12:40:14.687Z</time>
      </trkpt>
      <trkpt lat="43.26209" lon="2.68833">
        <ele>46</ele>
        <time>2015-08-02T12:40:15.637Z</time>
      </trkpt>
      <trkpt lat="43.26211" lon="2.68844">
        <ele>45.7</ele>
        <time>2015-08-02T12:40:17.676Z</time>
      </trkpt>
      <trkpt lat="43.26212" lon="2.6885">
        <ele>45.8</ele>
        <time>2015-08-02T12:40:18.658Z</time>
      </trkpt>
      <trkpt lat="43.26213" lon="2.68856">
        <ele>45.8</ele>
        <time>2015-08-02T12:40:19.688Z</time>
      </trkpt>
      <trkpt lat="43.26214" lon="2.68863">
        <ele>45.8</ele>
        <time>2015-08-02T12:40:20.632Z</time>
      </trkpt>
      <trkpt lat="43.26216" lon="2.6887">
        <ele>45.7</ele>
        <time>2015-08-02T12:40:21.674Z</time>
      </trkpt>
      <trkpt lat="43.26217" lon="2.68877">
        <ele>45.9</ele>
        <time>2015-08-02T12:40:22.632Z</time>
      </trkpt>
      <trkpt lat="43.26218" lon="2.68885">
        <ele>45.9</ele>
        <time>2015-08-02T12:40:23.676Z</time>
      </trkpt>
      <trkpt lat="43.2622" lon="2.68893">
        <ele>45.8</ele>
        <time>2015-08-02T12:40:24.639Z</time>
      </trkpt>
      <trkpt lat="43.26221" lon="2.68901">
        <ele>45.7</ele>
        <time>2015-08-02T12:40:25.700Z</time>
      </trkpt>
      <trkpt lat="43.26222" lon="2.68909">
        <ele>45.9</ele>
        <time>2015-08-02T12:40:26.640Z</time>
      </trkpt>
      <trkpt lat="43.26224" lon="2.68918">
        <ele>46</ele>
        <time>2015-08-02T12:40:27.676Z</time>
      </trkpt>
      <trkpt lat="43.26225" lon="2.68926">
        <ele>45.8</ele>
        <time>2015-08-02T12:40:28.640Z</time>
      </trkpt>
      <trkpt lat="43.26227" lon="2.68934">
        <ele>45.8</ele>
        <time>2015-08-02T12:40:29.675Z</time>
      </trkpt>
      <trkpt lat="43.26228" lon="2.68943">
        <ele>46</ele>
        <time>2015-08-02T12:40:30.639Z</time>
      </trkpt>
      <trkpt lat="43.2623" lon="2.68951">
        <ele>45.8</ele>
        <time>2015-08-02T12:40:31.677Z</time>
      </trkpt>
      <trkpt lat="43.26231" lon="2.68959">
        <ele>45.7</ele>
        <time>2015-08-02T12:40:32.656Z</time>
      </trkpt>
      <trkpt lat="43.26233" lon="2.68967">
        <ele>45.5</ele>
        <time>2015-08-02T12:40:33.674Z</time>
      </trkpt>
      <trkpt lat="43.26234" lon="2.68976">
        <ele>45.6</ele>
        <time>2015-08-02T12:40:34.634Z</time>
      </trkpt>
      <trkpt lat="43.26235" lon="2.68984">
        <ele>45.6</ele>
        <time>2015-08-02T12:40:35.681Z</time>
      </trkpt>
      <trkpt lat="43.26237" lon="2.68992">
        <ele>45.3</ele>
        <time>2015-08-02T12:40:36.635Z</time>
      </trkpt>
      <trkpt lat="43.26238" lon="2.69">
        <ele>45.2</ele>
        <time>2015-08-02T12:40:37.676Z</time>
      </trkpt>
      <trkpt lat="43.2624" lon="2.69008">
        <ele>45.3</ele>
        <time>2015-08-02T12:40:38.656Z</time>
      </trkpt>
      <trkpt lat="43.26241" lon="2.69015">
        <ele>45.4</ele>
        <time>2015-08-02T12:40:39.678Z</time>
      </trkpt>
      <trkpt lat="43.26243" lon="2.69023">
        <ele>45.4</ele>
        <time>2015-08-02T12:40:40.643Z</time>
      </trkpt>
      <trkpt lat="43.26244" lon="2.69031">
        <ele>45.6</ele>
        <time>2015-08-02T12:40:41.677Z</time>
      </trkpt>
      <trkpt lat="43.26246" lon="2.69039">
        <ele>45.5</ele>
        <time>2015-08-02T12:40:42.639Z</time>
      </trkpt>
      <trkpt lat="43.26247" lon="2.69046">
        <ele>45.5</ele>
        <time>2015-08-02T12:40:43.686Z</time>
      </trkpt>
      <trkpt lat="43.26248" lon="2.69054">
        <ele>45.4</ele>
        <time>2015-08-02T12:40:44.656Z</time>
      </trkpt>
      <trkpt lat="43.2625" lon="2.69062">
        <ele>45.7</ele>
        <time>2015-08-02T12:40:45.675Z</time>
      </trkpt>
      <trkpt lat="43.26251" lon="2.69069">
        <ele>46.1</ele>
        <time>2015-08-02T12:40:46.640Z</time>
      </trkpt>
      <trkpt lat="43.26253" lon="2.69077">
        <ele>46.1</ele>
        <time>2015-08-02T12:40:47.674Z</time>
      </trkpt>
      <trkpt lat="43.26254" lon="2.69084">
        <ele>45.8</ele>
        <time>2015-08-02T12:40:48.638Z</time>
      </trkpt>
      <trkpt lat="43.26256" lon="2.69092">
        <ele>45.8</ele>
        <time>2015-08-02T12:40:49.677Z</time>
      </trkpt>
      <trkpt lat="43.26257" lon="2.69099">
        <ele>45.8</ele>
        <time>2015-08-02T12:40:50.633Z</time>
      </trkpt>
      <trkpt lat="43.26259" lon="2.69107">
        <ele>45.7</ele>
        <time>2015-08-02T12:40:51.684Z</time>
      </trkpt>
      <trkpt lat="43.2626" lon="2.69114">
        <ele>45.6</ele>
        <time>2015-08-02T12:40:52.656Z</time>
      </trkpt>
      <trkpt lat="43.26261" lon="2.69122">
        <ele>45.7</ele>
        <time>2015-08-02T12:40:53.676Z</time>
      </trkpt>
      <trkpt lat="43.26263" lon="2.69129">
        <ele>45.7</ele>
        <time>2015-08-02T12:40:54.633Z</time>
      </trkpt>
      <trkpt lat="43.26264" lon="2.69137">
        <ele>45.5</ele>
        <time>2015-08-02T12:40:55.676Z</time>
      </trkpt>
      <trkpt lat="43.26265" lon="2.69145">
        <ele>45.4</ele>
        <time>2015-08-02T12:40:56.641Z</time>
      </trkpt>
      <trkpt lat="43.26267" lon="2.69152">
        <ele>45.3</ele>
        <time>2015-08-02T12:40:57.677Z</time>
      </trkpt>
      <trkpt lat="43.26268" lon="2.69159">
        <ele>45.2</ele>
        <time>2015-08-02T12:40:58.636Z</time>
      </trkpt>
      <trkpt lat="43.26269" lon="2.69167">
        <ele>45.2</ele>
        <time>2015-08-02T12:40:59.697Z</time>
      </trkpt>
      <trkpt lat="43.26271" lon="2.69174">
        <ele>45.2</ele>
        <time>2015-08-02T12:41:00.656Z</time>
      </trkpt>
      <trkpt lat="43.26272" lon="2.69181">
        <ele>44.8</ele>
        <time>2015-08-02T12:41:01.677Z</time>
      </trkpt>
      <trkpt lat="43.26273" lon="2.69189">
        <ele>44.8</ele>
        <time>2015-08-02T12:41:02.634Z</time>
      </trkpt>
      <trkpt lat="43.26274" lon="2.69196">
        <ele>44.8</ele>
        <time>2015-08-02T12:41:03.677Z</time>
      </trkpt>
      <trkpt lat="43.26276" lon="2.69204">
        <ele>44.7</ele>
        <time>2015-08-02T12:41:04.639Z</time>
      </trkpt>
      <trkpt lat="43.26277" lon="2.69211">
        <ele>44.8</ele>
        <time>2015-08-02T12:41:05.675Z</time>
      </trkpt>
      <trkpt lat="43.26278" lon="2.69218">
        <ele>44.7</ele>
        <time>2015-08-02T12:41:06.635Z</time>
      </trkpt>
      <trkpt lat="43.2628" lon="2.69226">
        <ele>44.8</ele>
        <time>2015-08-02T12:41:07.700Z</time>
      </trkpt>
      <trkpt lat="43.26281" lon="2.69233">
        <ele>44.7</ele>
        <time>2015-08-02T12:41:08.656Z</time>
      </trkpt>
      <trkpt lat="43.26283" lon="2.6924">
        <ele>44.8</ele>
        <time>2015-08-02T12:41:09.698Z</time>
      </trkpt>
      <trkpt lat="43.26284" lon="2.69247">
        <ele>44.7</ele>
        <time>2015-08-02T12:41:10.660Z</time>
      </trkpt>
      <trkpt lat="43.26285" lon="2.69255">
        <ele>44.7</ele>
        <time>2015-08-02T12:41:11.703Z</time>
      </trkpt>
      <trkpt lat="43.26286" lon="2.69262">
        <ele>44.9</ele>
        <time>2015-08-02T12:41:12.641Z</time>
      </trkpt>
      <trkpt lat="43.26288" lon="2.69268">
        <ele>45</ele>
        <time>2015-08-02T12:41:13.687Z</time>
      </trkpt>
      <trkpt lat="43.26289" lon="2.69275">
        <ele>45.2</ele>
        <time>2015-08-02T12:41:14.631Z</time>
      </trkpt>
      <trkpt lat="43.2629" lon="2.69282">
        <ele>45.3</ele>
        <time>2015-08-02T12:41:15.673Z</time>
      </trkpt>
      <trkpt lat="43.26292" lon="2.69288">
        <ele>45.4</ele>
        <time>2015-08-02T12:41:16.639Z</time>
      </trkpt>
      <trkpt lat="43.26293" lon="2.69295">
        <ele>45.6</ele>
        <time>2015-08-02T12:41:17.674Z</time>
      </trkpt>
      <trkpt lat="43.26294" lon="2.69302">
        <ele>45.6</ele>
        <time>2015-08-02T12:41:18.635Z</time>
      </trkpt>
      <trkpt lat="43.26295" lon="2.69309">
        <ele>45.2</ele>
        <time>2015-08-02T12:41:19.688Z</time>
      </trkpt>
      <trkpt lat="43.26297" lon="2.69315">
        <ele>45</ele>
        <time>2015-08-02T12:41:20.642Z</time>
      </trkpt>
      <trkpt lat="43.26298" lon="2.69322">
        <ele>44.7</ele>
        <time>2015-08-02T12:41:21.679Z</time>
      </trkpt>
      <trkpt lat="43.26299" lon="2.69329">
        <ele>44.7</ele>
        <time>2015-08-02T12:41:22.645Z</time>
      </trkpt>
      <trkpt lat="43.26301" lon="2.69335">
        <ele>44.7</ele>
        <time>2015-08-02T12:41:23.680Z</time>
      </trkpt>
      <trkpt lat="43.26302" lon="2.69341">
        <ele>44.8</ele>
        <time>2015-08-02T12:41:24.644Z</time>
      </trkpt>
      <trkpt lat="43.26304" lon="2.69347">
        <ele>44.7</ele>
        <time>2015-08-02T12:41:25.708Z</time>
      </trkpt>
      <trkpt lat="43.26306" lon="2.69353">
        <ele>44.7</ele>
        <time>2015-08-02T12:41:26.667Z</time>
      </trkpt>
      <trkpt lat="43.26307" lon="2.6936">
        <ele>44.6</ele>
        <time>2015-08-02T12:41:27.685Z</time>
      </trkpt>
      <trkpt lat="43.26309" lon="2.69366">
        <ele>44.6</ele>
        <time>2015-08-02T12:41:28.640Z</time>
      </trkpt>
      <trkpt lat="43.26312" lon="2.69372">
        <ele>44.4</ele>
        <time>2015-08-02T12:41:29.687Z</time>
      </trkpt>
      <trkpt lat="43.26314" lon="2.69379">
        <ele>44.5</ele>
        <time>2015-08-02T12:41:30.639Z</time>
      </trkpt>
      <trkpt lat="43.26316" lon="2.69385">
        <ele>44.4</ele>
        <time>2015-08-02T12:41:31.680Z</time>
      </trkpt>
      <trkpt lat="43.26318" lon="2.69391">
        <ele>44.3</ele>
        <time>2015-08-02T12:41:32.649Z</time>
      </trkpt>
      <trkpt lat="43.2632" lon="2.69397">
        <ele>44.3</ele>
        <time>2015-08-02T12:41:33.678Z</time>
      </trkpt>
      <trkpt lat="43.26323" lon="2.69403">
        <ele>44.4</ele>
        <time>2015-08-02T12:41:34.637Z</time>
      </trkpt>
      <trkpt lat="43.26325" lon="2.69409">
        <ele>44.3</ele>
        <time>2015-08-02T12:41:35.688Z</time>
      </trkpt>
      <trkpt lat="43.26327" lon="2.69415">
        <ele>44.2</ele>
        <time>2015-08-02T12:41:36.643Z</time>
      </trkpt>
      <trkpt lat="43.26328" lon="2.69421">
        <ele>44.3</ele>
        <time>2015-08-02T12:41:37.680Z</time>
      </trkpt>
      <trkpt lat="43.26331" lon="2.69427">
        <ele>44.2</ele>
        <time>2015-08-02T12:41:38.636Z</time>
      </trkpt>
      <trkpt lat="43.26333" lon="2.69433">
        <ele>44</ele>
        <time>2015-08-02T12:41:39.690Z</time>
      </trkpt>
      <trkpt lat="43.26334" lon="2.69439">
        <ele>43.8</ele>
        <time>2015-08-02T12:41:40.642Z</time>
      </trkpt>
      <trkpt lat="43.26337" lon="2.69445">
        <ele>43.7</ele>
        <time>2015-08-02T12:41:41.676Z</time>
      </trkpt>
      <trkpt lat="43.26339" lon="2.69451">
        <ele>43.7</ele>
        <time>2015-08-02T12:41:42.640Z</time>
      </trkpt>
      <trkpt lat="43.26341" lon="2.69456">
        <ele>43.7</ele>
        <time>2015-08-02T12:41:43.687Z</time>
      </trkpt>
      <trkpt lat="43.26343" lon="2.69462">
        <ele>43.8</ele>
        <time>2015-08-02T12:41:44.642Z</time>
      </trkpt>
      <trkpt lat="43.26345" lon="2.69467">
        <ele>43.8</ele>
        <time>2015-08-02T12:41:45.677Z</time>
      </trkpt>
      <trkpt lat="43.26347" lon="2.69473">
        <ele>43.9</ele>
        <time>2015-08-02T12:41:46.635Z</time>
      </trkpt>
      <trkpt lat="43.2635" lon="2.69478">
        <ele>43.9</ele>
        <time>2015-08-02T12:41:47.676Z</time>
      </trkpt>
      <trkpt lat="43.26352" lon="2.69484">
        <ele>44</ele>
        <time>2015-08-02T12:41:48.642Z</time>
      </trkpt>
      <trkpt lat="43.26354" lon="2.6949">
        <ele>43.6</ele>
        <time>2015-08-02T12:41:49.679Z</time>
      </trkpt>
      <trkpt lat="43.26356" lon="2.69495">
        <ele>43.4</ele>
        <time>2015-08-02T12:41:50.638Z</time>
      </trkpt>
      <trkpt lat="43.26358" lon="2.69501">
        <ele>43.3</ele>
        <time>2015-08-02T12:41:51.675Z</time>
      </trkpt>
      <trkpt lat="43.2636" lon="2.69506">
        <ele>43.2</ele>
        <time>2015-08-02T12:41:52.648Z</time>
      </trkpt>
      <trkpt lat="43.26362" lon="2.69512">
        <ele>42.8</ele>
        <time>2015-08-02T12:41:53.679Z</time>
      </trkpt>
      <trkpt lat="43.26364" lon="2.69518">
        <ele>42.9</ele>
        <time>2015-08-02T12:41:54.641Z</time>
      </trkpt>
      <trkpt lat="43.26366" lon="2.69523">
        <ele>43.3</ele>
        <time>2015-08-02T12:41:55.677Z</time>
      </trkpt>
      <trkpt lat="43.26367" lon="2.69529">
        <ele>42.9</ele>
        <time>2015-08-02T12:41:56.645Z</time>
      </trkpt>
      <trkpt lat="43.26369" lon="2.69535">
        <ele>42.6</ele>
        <time>2015-08-02T12:41:57.679Z</time>
      </trkpt>
      <trkpt lat="43.26371" lon="2.69541">
        <ele>42.4</ele>
        <time>2015-08-02T12:41:58.639Z</time>
      </trkpt>
      <trkpt lat="43.26373" lon="2.69546">
        <ele>42.4</ele>
        <time>2015-08-02T12:41:59.707Z</time>
      </trkpt>
      <trkpt lat="43.26375" lon="2.69552">
        <ele>42.2</ele>
        <time>2015-08-02T12:42:00.658Z</time>
      </trkpt>
      <trkpt lat="43.26378" lon="2.69557">
        <ele>42.1</ele>
        <time>2015-08-02T12:42:01.702Z</time>
      </trkpt>
      <trkpt lat="43.2638" lon="2.69563">
        <ele>42</ele>
        <time>2015-08-02T12:42:02.657Z</time>
      </trkpt>
      <trkpt lat="43.26381" lon="2.69568">
        <ele>42</ele>
        <time>2015-08-02T12:42:03.676Z</time>
      </trkpt>
      <trkpt lat="43.26383" lon="2.69574">
        <ele>42.2</ele>
        <time>2015-08-02T12:42:04.640Z</time>
      </trkpt>
      <trkpt lat="43.26385" lon="2.6958">
        <ele>42.2</ele>
        <time>2015-08-02T12:42:05.675Z</time>
      </trkpt>
      <trkpt lat="43.26387" lon="2.69585">
        <ele>42.5</ele>
        <time>2015-08-02T12:42:06.636Z</time>
      </trkpt>
      <trkpt lat="43.2639" lon="2.69591">
        <ele>42.7</ele>
        <time>2015-08-02T12:42:07.676Z</time>
      </trkpt>
      <trkpt lat="43.26392" lon="2.69597">
        <ele>42.8</ele>
        <time>2015-08-02T12:42:08.640Z</time>
      </trkpt>
      <trkpt lat="43.26395" lon="2.69602">
        <ele>42.8</ele>
        <time>2015-08-02T12:42:09.722Z</time>
      </trkpt>
      <trkpt lat="43.26398" lon="2.69607">
        <ele>43</ele>
        <time>2015-08-02T12:42:10.661Z</time>
      </trkpt>
      <trkpt lat="43.26404" lon="2.69616">
        <ele>43.5</ele>
        <time>2015-08-02T12:42:12.682Z</time>
      </trkpt>
      <trkpt lat="43.26407" lon="2.6962">
        <ele>43.8</ele>
        <time>2015-08-02T12:42:13.639Z</time>
      </trkpt>
      <trkpt lat="43.26412" lon="2.69628">
        <ele>44.3</ele>
        <time>2015-08-02T12:42:15.684Z</time>
      </trkpt>
      <trkpt lat="43.26414" lon="2.69633">
        <ele>44.9</ele>
        <time>2015-08-02T12:42:16.639Z</time>
      </trkpt>
      <trkpt lat="43.26416" lon="2.69641">
        <ele>44.8</ele>
        <time>2015-08-02T12:42:18.713Z</time>
      </trkpt>
      <trkpt lat="43.26417" lon="2.69646">
        <ele>44.8</ele>
        <time>2015-08-02T12:42:19.647Z</time>
      </trkpt>
      <trkpt lat="43.2642" lon="2.69654">
        <ele>45.3</ele>
        <time>2015-08-02T12:42:21.671Z</time>
      </trkpt>
      <trkpt lat="43.26422" lon="2.69658">
        <ele>45.5</ele>
        <time>2015-08-02T12:42:22.634Z</time>
      </trkpt>
      <trkpt lat="43.26426" lon="2.69669">
        <ele>45.1</ele>
        <time>2015-08-02T12:42:25.677Z</time>
      </trkpt>
      <trkpt lat="43.26428" lon="2.69672">
        <ele>44.9</ele>
        <time>2015-08-02T12:42:26.657Z</time>
      </trkpt>
      <trkpt lat="43.26432" lon="2.69682">
        <ele>44.7</ele>
        <time>2015-08-02T12:42:29.825Z</time>
      </trkpt>
      <trkpt lat="43.26433" lon="2.69686">
        <ele>44.8</ele>
        <time>2015-08-02T12:42:30.640Z</time>
      </trkpt>
      <trkpt lat="43.26434" lon="2.69694">
        <ele>44.5</ele>
        <time>2015-08-02T12:42:32.677Z</time>
      </trkpt>
      <trkpt lat="43.26435" lon="2.69698">
        <ele>44.6</ele>
        <time>2015-08-02T12:42:33.645Z</time>
      </trkpt>
      <trkpt lat="43.26438" lon="2.69707">
        <ele>44.7</ele>
        <time>2015-08-02T12:42:35.674Z</time>
      </trkpt>
      <trkpt lat="43.26439" lon="2.69711">
        <ele>44.8</ele>
        <time>2015-08-02T12:42:36.646Z</time>
      </trkpt>
      <trkpt lat="43.26441" lon="2.69721">
        <ele>44.3</ele>
        <time>2015-08-02T12:42:38.686Z</time>
      </trkpt>
      <trkpt lat="43.26442" lon="2.69725">
        <ele>44.2</ele>
        <time>2015-08-02T12:42:39.639Z</time>
      </trkpt>
      <trkpt lat="43.26445" lon="2.69737">
        <ele>44.6</ele>
        <time>2015-08-02T12:42:41.668Z</time>
      </trkpt>
      <trkpt lat="43.26446" lon="2.69741">
        <ele>44.5</ele>
        <time>2015-08-02T12:42:42.635Z</time>
      </trkpt>
      <trkpt lat="43.2645" lon="2.69749">
        <ele>44.6</ele>
        <time>2015-08-02T12:42:44.675Z</time>
      </trkpt>
      <trkpt lat="43.26451" lon="2.69753">
        <ele>44.7</ele>
        <time>2015-08-02T12:42:45.634Z</time>
      </trkpt>
      <trkpt lat="43.26456" lon="2.69763">
        <ele>44.8</ele>
        <time>2015-08-02T12:42:48.684Z</time>
      </trkpt>
      <trkpt lat="43.26458" lon="2.69766">
        <ele>45.2</ele>
        <time>2015-08-02T12:42:49.639Z</time>
      </trkpt>
      <trkpt lat="43.2646" lon="2.69777">
        <ele>43.8</ele>
        <time>2015-08-02T12:42:53.678Z</time>
      </trkpt>
      <trkpt lat="43.2646" lon="2.69779">
        <ele>43.8</ele>
        <time>2015-08-02T12:42:54.643Z</time>
      </trkpt>
      <trkpt lat="43.2646" lon="2.69779">
        <ele>43.8</ele>
        <time>2015-08-02T12:42:54.691Z</time>
      </trkpt>
      <trkpt lat="43.2646" lon="2.69781">
        <ele>44.1</ele>
        <time>2015-08-02T12:42:55.637Z</time>
      </trkpt>
      <trkpt lat="43.26462" lon="2.69781">
        <ele>45.2</ele>
        <time>2015-08-02T12:43:11.698Z</time>
      </trkpt>
      <trkpt lat="43.26466" lon="2.69787">
        <ele>45.9</ele>
        <time>2015-08-02T12:43:12.660Z</time>
      </trkpt>
      <trkpt lat="43.26468" lon="2.69796">
        <ele>45.1</ele>
        <time>2015-08-02T12:43:16.676Z</time>
      </trkpt>
      <trkpt lat="43.2647" lon="2.698">
        <ele>45.1</ele>
        <time>2015-08-02T12:43:17.637Z</time>
      </trkpt>
      <trkpt lat="43.26474" lon="2.6981">
        <ele>44.8</ele>
        <time>2015-08-02T12:43:19.716Z</time>
      </trkpt>
      <trkpt lat="43.26476" lon="2.69815">
        <ele>44.6</ele>
        <time>2015-08-02T12:43:20.646Z</time>
      </trkpt>
      <trkpt lat="43.26478" lon="2.69821">
        <ele>44.5</ele>
        <time>2015-08-02T12:43:21.698Z</time>
      </trkpt>
      <trkpt lat="43.2648" lon="2.69826">
        <ele>44.2</ele>
        <time>2015-08-02T12:43:22.741Z</time>
      </trkpt>
      <trkpt lat="43.26483" lon="2.69836">
        <ele>43.8</ele>
        <time>2015-08-02T12:43:24.679Z</time>
      </trkpt>
      <trkpt lat="43.26484" lon="2.69841">
        <ele>43.8</ele>
        <time>2015-08-02T12:43:25.638Z</time>
      </trkpt>
      <trkpt lat="43.26486" lon="2.69849">
        <ele>43.6</ele>
        <time>2015-08-02T12:43:27.675Z</time>
      </trkpt>
      <trkpt lat="43.26487" lon="2.69853">
        <ele>43.7</ele>
        <time>2015-08-02T12:43:28.634Z</time>
      </trkpt>
      <trkpt lat="43.2649" lon="2.69863">
        <ele>44.1</ele>
        <time>2015-08-02T12:43:31.674Z</time>
      </trkpt>
      <trkpt lat="43.26491" lon="2.69867">
        <ele>44.1</ele>
        <time>2015-08-02T12:43:32.641Z</time>
      </trkpt>
      <trkpt lat="43.26495" lon="2.69874">
        <ele>44.3</ele>
        <time>2015-08-02T12:43:34.681Z</time>
      </trkpt>
      <trkpt lat="43.26496" lon="2.69878">
        <ele>44.4</ele>
        <time>2015-08-02T12:43:35.632Z</time>
      </trkpt>
      <trkpt lat="43.26498" lon="2.69887">
        <ele>44.2</ele>
        <time>2015-08-02T12:43:37.677Z</time>
      </trkpt>
      <trkpt lat="43.265" lon="2.69892">
        <ele>43.8</ele>
        <time>2015-08-02T12:43:38.640Z</time>
      </trkpt>
      <trkpt lat="43.26503" lon="2.69901">
        <ele>43.8</ele>
        <time>2015-08-02T12:43:40.677Z</time>
      </trkpt>
      <trkpt lat="43.26504" lon="2.69905">
        <ele>44</ele>
        <time>2015-08-02T12:43:41.635Z</time>
      </trkpt>
      <trkpt lat="43.26507" lon="2.69913">
        <ele>43.9</ele>
        <time>2015-08-02T12:43:43.677Z</time>
      </trkpt>
      <trkpt lat="43.26507" lon="2.69917">
        <ele>43.9</ele>
        <time>2015-08-02T12:43:44.635Z</time>
      </trkpt>
      <trkpt lat="43.26509" lon="2.69926">
        <ele>44.2</ele>
        <time>2015-08-02T12:43:46.735Z</time>
      </trkpt>
      <trkpt lat="43.2651" lon="2.69931">
        <ele>44.5</ele>
        <time>2015-08-02T12:43:47.637Z</time>
      </trkpt>
      <trkpt lat="43.26514" lon="2.6994">
        <ele>45.1</ele>
        <time>2015-08-02T12:43:49.678Z</time>
      </trkpt>
      <trkpt lat="43.26516" lon="2.69945">
        <ele>45.4</ele>
        <time>2015-08-02T12:43:50.632Z</time>
      </trkpt>
      <trkpt lat="43.26518" lon="2.69954">
        <ele>46.1</ele>
        <time>2015-08-02T12:43:52.715Z</time>
      </trkpt>
      <trkpt lat="43.26519" lon="2.69958">
        <ele>46.4</ele>
        <time>2015-08-02T12:43:53.645Z</time>
      </trkpt>
      <trkpt lat="43.26522" lon="2.69966">
        <ele>47.4</ele>
        <time>2015-08-02T12:43:55.689Z</time>
      </trkpt>
      <trkpt lat="43.26524" lon="2.6997">
        <ele>47.8</ele>
        <time>2015-08-02T12:43:56.633Z</time>
      </trkpt>
      <trkpt lat="43.26527" lon="2.69978">
        <ele>48.5</ele>
        <time>2015-08-02T12:43:58.691Z</time>
      </trkpt>
      <trkpt lat="43.26528" lon="2.69982">
        <ele>48.9</ele>
        <time>2015-08-02T12:43:59.635Z</time>
      </trkpt>
      <trkpt lat="43.26531" lon="2.69991">
        <ele>50.1</ele>
        <time>2015-08-02T12:44:01.676Z</time>
      </trkpt>
      <trkpt lat="43.26533" lon="2.69995">
        <ele>50.8</ele>
        <time>2015-08-02T12:44:02.636Z</time>
      </trkpt>
      <trkpt lat="43.26537" lon="2.70005">
        <ele>50.6</ele>
        <time>2015-08-02T12:44:04.683Z</time>
      </trkpt>
      <trkpt lat="43.26538" lon="2.7001">
        <ele>50.7</ele>
        <time>2015-08-02T12:44:05.635Z</time>
      </trkpt>
      <trkpt lat="43.26542" lon="2.7002">
        <ele>50.6</ele>
        <time>2015-08-02T12:44:07.675Z</time>
      </trkpt>
      <trkpt lat="43.26544" lon="2.70025">
        <ele>51</ele>
        <time>2015-08-02T12:44:08.638Z</time>
      </trkpt>
      <trkpt lat="43.26547" lon="2.70035">
        <ele>49.9</ele>
        <time>2015-08-02T12:44:10.677Z</time>
      </trkpt>
      <trkpt lat="43.26549" lon="2.70039">
        <ele>49.2</ele>
        <time>2015-08-02T12:44:11.635Z</time>
      </trkpt>
      <trkpt lat="43.26553" lon="2.70049">
        <ele>48.7</ele>
        <time>2015-08-02T12:44:13.702Z</time>
      </trkpt>
      <trkpt lat="43.26555" lon="2.70053">
        <ele>48.6</ele>
        <time>2015-08-02T12:44:14.641Z</time>
      </trkpt>
      <trkpt lat="43.26558" lon="2.70062">
        <ele>47.9</ele>
        <time>2015-08-02T12:44:16.692Z</time>
      </trkpt>
      <trkpt lat="43.26559" lon="2.70067">
        <ele>47.7</ele>
        <time>2015-08-02T12:44:17.637Z</time>
      </trkpt>
      <trkpt lat="43.26563" lon="2.70076">
        <ele>47.7</ele>
        <time>2015-08-02T12:44:19.676Z</time>
      </trkpt>
      <trkpt lat="43.26565" lon="2.70082">
        <ele>47</ele>
        <time>2015-08-02T12:44:20.641Z</time>
      </trkpt>
      <trkpt lat="43.26567" lon="2.70088">
        <ele>46.7</ele>
        <time>2015-08-02T12:44:21.729Z</time>
      </trkpt>
      <trkpt lat="43.26569" lon="2.70094">
        <ele>46.7</ele>
        <time>2015-08-02T12:44:22.643Z</time>
      </trkpt>
      <trkpt lat="43.2657" lon="2.70099">
        <ele>46.8</ele>
        <time>2015-08-02T12:44:24.013Z</time>
      </trkpt>
      <trkpt lat="43.26572" lon="2.70105">
        <ele>46.9</ele>
        <time>2015-08-02T12:44:24.637Z</time>
      </trkpt>
      <trkpt lat="43.26574" lon="2.70116">
        <ele>46.5</ele>
        <time>2015-08-02T12:44:26.673Z</time>
      </trkpt>
      <trkpt lat="43.26576" lon="2.70121">
        <ele>46.6</ele>
        <time>2015-08-02T12:44:27.635Z</time>
      </trkpt>
      <trkpt lat="43.2658" lon="2.70132">
        <ele>48.1</ele>
        <time>2015-08-02T12:44:29.668Z</time>
      </trkpt>
      <trkpt lat="43.26582" lon="2.70136">
        <ele>48.8</ele>
        <time>2015-08-02T12:44:30.657Z</time>
      </trkpt>
      <trkpt lat="43.26586" lon="2.70146">
        <ele>49.1</ele>
        <time>2015-08-02T12:44:33.675Z</time>
      </trkpt>
      <trkpt lat="43.26587" lon="2.70149">
        <ele>48.8</ele>
        <time>2015-08-02T12:44:34.633Z</time>
      </trkpt>
      <trkpt lat="43.26585" lon="2.70159">
        <ele>49.4</ele>
        <time>2015-08-02T12:44:39.749Z</time>
      </trkpt>
      <trkpt lat="43.26582" lon="2.7016">
        <ele>49.4</ele>
        <time>2015-08-02T12:44:40.635Z</time>
      </trkpt>
      <trkpt lat="43.26576" lon="2.70161">
        <ele>48.5</ele>
        <time>2015-08-02T12:44:42.667Z</time>
      </trkpt>
      <trkpt lat="43.26573" lon="2.7016">
        <ele>47.4</ele>
        <time>2015-08-02T12:44:43.637Z</time>
      </trkpt>
      <trkpt lat="43.26566" lon="2.70161">
        <ele>46.8</ele>
        <time>2015-08-02T12:44:45.746Z</time>
      </trkpt>
      <trkpt lat="43.26563" lon="2.70162">
        <ele>46.3</ele>
        <time>2015-08-02T12:44:46.635Z</time>
      </trkpt>
      <trkpt lat="43.26555" lon="2.70163">
        <ele>45.8</ele>
        <time>2015-08-02T12:44:48.684Z</time>
      </trkpt>
      <trkpt lat="43.26551" lon="2.70164">
        <ele>45.4</ele>
        <time>2015-08-02T12:44:49.638Z</time>
      </trkpt>
      <trkpt lat="43.26542" lon="2.70166">
        <ele>45.3</ele>
        <time>2015-08-02T12:44:51.676Z</time>
      </trkpt>
      <trkpt lat="43.26538" lon="2.70166">
        <ele>45.6</ele>
        <time>2015-08-02T12:44:52.658Z</time>
      </trkpt>
      <trkpt lat="43.2653" lon="2.70167">
        <ele>45.7</ele>
        <time>2015-08-02T12:44:54.676Z</time>
      </trkpt>
      <trkpt lat="43.26526" lon="2.70168">
        <ele>46.1</ele>
        <time>2015-08-02T12:44:55.638Z</time>
      </trkpt>
      <trkpt lat="43.26518" lon="2.70172">
        <ele>48</ele>
        <time>2015-08-02T12:44:57.686Z</time>
      </trkpt>
      <trkpt lat="43.26515" lon="2.70176">
        <ele>48.6</ele>
        <time>2015-08-02T12:44:58.635Z</time>
      </trkpt>
      <trkpt lat="43.26511" lon="2.70185">
        <ele>48.7</ele>
        <time>2015-08-02T12:45:00.709Z</time>
      </trkpt>
      <trkpt lat="43.2651" lon="2.70191">
        <ele>48.8</ele>
        <time>2015-08-02T12:45:01.647Z</time>
      </trkpt>
      <trkpt lat="43.26509" lon="2.70202">
        <ele>48.1</ele>
        <time>2015-08-02T12:45:03.696Z</time>
      </trkpt>
      <trkpt lat="43.26509" lon="2.70207">
        <ele>47.7</ele>
        <time>2015-08-02T12:45:04.657Z</time>
      </trkpt>
      <trkpt lat="43.26511" lon="2.70216">
        <ele>47.9</ele>
        <time>2015-08-02T12:45:06.683Z</time>
      </trkpt>
      <trkpt lat="43.26512" lon="2.7022">
        <ele>48.3</ele>
        <time>2015-08-02T12:45:07.636Z</time>
      </trkpt>
      <trkpt lat="43.26511" lon="2.70229">
        <ele>48.5</ele>
        <time>2015-08-02T12:45:09.676Z</time>
      </trkpt>
      <trkpt lat="43.26511" lon="2.70234">
        <ele>48.2</ele>
        <time>2015-08-02T12:45:10.638Z</time>
      </trkpt>
      <trkpt lat="43.26512" lon="2.70245">
        <ele>47.4</ele>
        <time>2015-08-02T12:45:12.695Z</time>
      </trkpt>
      <trkpt lat="43.26513" lon="2.7025">
        <ele>47.6</ele>
        <time>2015-08-02T12:45:13.646Z</time>
      </trkpt>
      <trkpt lat="43.26515" lon="2.70261">
        <ele>48</ele>
        <time>2015-08-02T12:45:15.676Z</time>
      </trkpt>
      <trkpt lat="43.26517" lon="2.70266">
        <ele>48.1</ele>
        <time>2015-08-02T12:45:16.634Z</time>
      </trkpt>
      <trkpt lat="43.26521" lon="2.70275">
        <ele>48</ele>
        <time>2015-08-02T12:45:18.683Z</time>
      </trkpt>
      <trkpt lat="43.26523" lon="2.70279">
        <ele>47.9</ele>
        <time>2015-08-02T12:45:19.639Z</time>
      </trkpt>
      <trkpt lat="43.26527" lon="2.70286">
        <ele>49.6</ele>
        <time>2015-08-02T12:45:21.696Z</time>
      </trkpt>
      <trkpt lat="43.26529" lon="2.70291">
        <ele>50.2</ele>
        <time>2015-08-02T12:45:22.656Z</time>
      </trkpt>
      <trkpt lat="43.26533" lon="2.703">
        <ele>49.3</ele>
        <time>2015-08-02T12:45:24.687Z</time>
      </trkpt>
      <trkpt lat="43.26534" lon="2.70305">
        <ele>49.3</ele>
        <time>2015-08-02T12:45:25.639Z</time>
      </trkpt>
      <trkpt lat="43.26539" lon="2.70315">
        <ele>49.3</ele>
        <time>2015-08-02T12:45:27.678Z</time>
      </trkpt>
      <trkpt lat="43.2654" lon="2.7032">
        <ele>49.1</ele>
        <time>2015-08-02T12:45:28.637Z</time>
      </trkpt>
      <trkpt lat="43.26542" lon="2.70326">
        <ele>48.5</ele>
        <time>2015-08-02T12:45:29.718Z</time>
      </trkpt>
      <trkpt lat="43.26544" lon="2.70331">
        <ele>48.5</ele>
        <time>2015-08-02T12:45:30.656Z</time>
      </trkpt>
      <trkpt lat="43.26548" lon="2.70342">
        <ele>48.2</ele>
        <time>2015-08-02T12:45:32.677Z</time>
      </trkpt>
      <trkpt lat="43.26549" lon="2.70348">
        <ele>48.1</ele>
        <time>2015-08-02T12:45:33.635Z</time>
      </trkpt>
      <trkpt lat="43.2655" lon="2.70358">
        <ele>48.7</ele>
        <time>2015-08-02T12:45:35.674Z</time>
      </trkpt>
      <trkpt lat="43.26551" lon="2.70363">
        <ele>49.1</ele>
        <time>2015-08-02T12:45:36.635Z</time>
      </trkpt>
      <trkpt lat="43.26553" lon="2.70373">
        <ele>49.6</ele>
        <time>2015-08-02T12:45:38.709Z</time>
      </trkpt>
      <trkpt lat="43.26554" lon="2.70378">
        <ele>49.8</ele>
        <time>2015-08-02T12:45:39.666Z</time>
      </trkpt>
      <trkpt lat="43.26561" lon="2.70382">
        <ele>50.8</ele>
        <time>2015-08-02T12:45:42.012Z</time>
      </trkpt>
      <trkpt lat="43.26566" lon="2.70382">
        <ele>51.1</ele>
        <time>2015-08-02T12:45:42.633Z</time>
      </trkpt>
      <trkpt lat="43.26574" lon="2.7038">
        <ele>51.4</ele>
        <time>2015-08-02T12:45:44.672Z</time>
      </trkpt>
      <trkpt lat="43.26578" lon="2.70379">
        <ele>51.5</ele>
        <time>2015-08-02T12:45:45.632Z</time>
      </trkpt>
      <trkpt lat="43.26586" lon="2.70376">
        <ele>52.1</ele>
        <time>2015-08-02T12:45:47.674Z</time>
      </trkpt>
      <trkpt lat="43.26591" lon="2.70376">
        <ele>52.3</ele>
        <time>2015-08-02T12:45:48.638Z</time>
      </trkpt>
      <trkpt lat="43.26599" lon="2.70372">
        <ele>52</ele>
        <time>2015-08-02T12:45:50.689Z</time>
      </trkpt>
      <trkpt lat="43.26603" lon="2.70371">
        <ele>51.9</ele>
        <time>2015-08-02T12:45:51.635Z</time>
      </trkpt>
      <trkpt lat="43.2661" lon="2.70369">
        <ele>52.3</ele>
        <time>2015-08-02T12:45:53.702Z</time>
      </trkpt>
      <trkpt lat="43.26613" lon="2.70368">
        <ele>52.3</ele>
        <time>2015-08-02T12:45:54.656Z</time>
      </trkpt>
      <trkpt lat="43.2662" lon="2.70366">
        <ele>52.1</ele>
        <time>2015-08-02T12:45:56.710Z</time>
      </trkpt>
      <trkpt lat="43.26623" lon="2.70364">
        <ele>51.9</ele>
        <time>2015-08-02T12:45:57.645Z</time>
      </trkpt>
      <trkpt lat="43.26629" lon="2.7036">
        <ele>51.3</ele>
        <time>2015-08-02T12:45:59.701Z</time>
      </trkpt>
      <trkpt lat="43.26633" lon="2.70361">
        <ele>51.8</ele>
        <time>2015-08-02T12:46:00.657Z</time>
      </trkpt>
      <trkpt lat="43.26636" lon="2.70368">
        <ele>51.7</ele>
        <time>2015-08-02T12:46:02.705Z</time>
      </trkpt>
      <trkpt lat="43.26637" lon="2.70372">
        <ele>51.2</ele>
        <time>2015-08-02T12:46:03.635Z</time>
      </trkpt>
      <trkpt lat="43.26641" lon="2.70381">
        <ele>49.1</ele>
        <time>2015-08-02T12:46:06.680Z</time>
      </trkpt>
      <trkpt lat="43.26644" lon="2.70384">
        <ele>48.8</ele>
        <time>2015-08-02T12:46:07.637Z</time>
      </trkpt>
      <trkpt lat="43.26647" lon="2.7039">
        <ele>48.2</ele>
        <time>2015-08-02T12:46:09.695Z</time>
      </trkpt>
      <trkpt lat="43.26649" lon="2.70394">
        <ele>47.9</ele>
        <time>2015-08-02T12:46:10.645Z</time>
      </trkpt>
      <trkpt lat="43.26651" lon="2.70402">
        <ele>47.6</ele>
        <time>2015-08-02T12:46:12.686Z</time>
      </trkpt>
      <trkpt lat="43.26652" lon="2.70406">
        <ele>47.2</ele>
        <time>2015-08-02T12:46:13.636Z</time>
      </trkpt>
      <trkpt lat="43.26654" lon="2.70414">
        <ele>46.9</ele>
        <time>2015-08-02T12:46:15.672Z</time>
      </trkpt>
      <trkpt lat="43.26655" lon="2.70418">
        <ele>46.8</ele>
        <time>2015-08-02T12:46:16.635Z</time>
      </trkpt>
      <trkpt lat="43.26657" lon="2.70427">
        <ele>46.5</ele>
        <time>2015-08-02T12:46:18.681Z</time>
      </trkpt>
      <trkpt lat="43.26659" lon="2.70432">
        <ele>46.5</ele>
        <time>2015-08-02T12:46:19.639Z</time>
      </trkpt>
      <trkpt lat="43.26661" lon="2.70441">
        <ele>46.2</ele>
        <time>2015-08-02T12:46:21.671Z</time>
      </trkpt>
      <trkpt lat="43.26662" lon="2.70445">
        <ele>46.2</ele>
        <time>2015-08-02T12:46:22.645Z</time>
      </trkpt>
      <trkpt lat="43.26665" lon="2.70454">
        <ele>46</ele>
        <time>2015-08-02T12:46:24.682Z</time>
      </trkpt>
      <trkpt lat="43.26666" lon="2.70459">
        <ele>45.8</ele>
        <time>2015-08-02T12:46:25.637Z</time>
      </trkpt>
      <trkpt lat="43.26668" lon="2.70469">
        <ele>46.7</ele>
        <time>2015-08-02T12:46:27.686Z</time>
      </trkpt>
      <trkpt lat="43.26669" lon="2.70474">
        <ele>46.7</ele>
        <time>2015-08-02T12:46:28.656Z</time>
      </trkpt>
      <trkpt lat="43.2667" lon="2.70483">
        <ele>46.9</ele>
        <time>2015-08-02T12:46:30.680Z</time>
      </trkpt>
      <trkpt lat="43.26671" lon="2.70487">
        <ele>46.6</ele>
        <time>2015-08-02T12:46:31.639Z</time>
      </trkpt>
      <trkpt lat="43.26671" lon="2.70498">
        <ele>46.2</ele>
        <time>2015-08-02T12:46:34.687Z</time>
      </trkpt>
      <trkpt lat="43.26672" lon="2.70502">
        <ele>45.9</ele>
        <time>2015-08-02T12:46:35.635Z</time>
      </trkpt>
      <trkpt lat="43.26675" lon="2.70513">
        <ele>45.5</ele>
        <time>2015-08-02T12:46:38.715Z</time>
      </trkpt>
      <trkpt lat="43.26679" lon="2.70519">
        <ele>45.1</ele>
        <time>2015-08-02T12:46:40.641Z</time>
      </trkpt>
      <trkpt lat="43.26681" lon="2.70526">
        <ele>44.3</ele>
        <time>2015-08-02T12:46:42.674Z</time>
      </trkpt>
      <trkpt lat="43.26682" lon="2.70531">
        <ele>44.5</ele>
        <time>2015-08-02T12:46:43.637Z</time>
      </trkpt>
      <trkpt lat="43.26683" lon="2.70542">
        <ele>44.3</ele>
        <time>2015-08-02T12:46:45.673Z</time>
      </trkpt>
      <trkpt lat="43.26684" lon="2.70548">
        <ele>44.1</ele>
        <time>2015-08-02T12:46:46.644Z</time>
      </trkpt>
      <trkpt lat="43.26685" lon="2.70559">
        <ele>43.6</ele>
        <time>2015-08-02T12:46:48.709Z</time>
      </trkpt>
      <trkpt lat="43.26685" lon="2.70565">
        <ele>43.7</ele>
        <time>2015-08-02T12:46:49.637Z</time>
      </trkpt>
      <trkpt lat="43.26685" lon="2.70577">
        <ele>43.4</ele>
        <time>2015-08-02T12:46:51.675Z</time>
      </trkpt>
      <trkpt lat="43.26684" lon="2.70583">
        <ele>43.4</ele>
        <time>2015-08-02T12:46:52.642Z</time>
      </trkpt>
      <trkpt lat="43.26684" lon="2.70595">
        <ele>43.1</ele>
        <time>2015-08-02T12:46:54.696Z</time>
      </trkpt>
      <trkpt lat="43.26684" lon="2.706">
        <ele>42.8</ele>
        <time>2015-08-02T12:46:55.646Z</time>
      </trkpt>
      <trkpt lat="43.26683" lon="2.70612">
        <ele>42.4</ele>
        <time>2015-08-02T12:46:57.694Z</time>
      </trkpt>
      <trkpt lat="43.26683" lon="2.70618">
        <ele>42.3</ele>
        <time>2015-08-02T12:46:58.635Z</time>
      </trkpt>
      <trkpt lat="43.26681" lon="2.7063">
        <ele>42.5</ele>
        <time>2015-08-02T12:47:00.681Z</time>
      </trkpt>
      <trkpt lat="43.26681" lon="2.70635">
        <ele>42.6</ele>
        <time>2015-08-02T12:47:01.639Z</time>
      </trkpt>
      <trkpt lat="43.2668" lon="2.70647">
        <ele>42.1</ele>
        <time>2015-08-02T12:47:03.674Z</time>
      </trkpt>
      <trkpt lat="43.2668" lon="2.70654">
        <ele>41.9</ele>
        <time>2015-08-02T12:47:04.637Z</time>
      </trkpt>
      <trkpt lat="43.26679" lon="2.70666">
        <ele>41.7</ele>
        <time>2015-08-02T12:47:06.697Z</time>
      </trkpt>
      <trkpt lat="43.26678" lon="2.70672">
        <ele>41.6</ele>
        <time>2015-08-02T12:47:07.639Z</time>
      </trkpt>
      <trkpt lat="43.26678" lon="2.70678">
        <ele>41.6</ele>
        <time>2015-08-02T12:47:08.698Z</time>
      </trkpt>
      <trkpt lat="43.26677" lon="2.70684">
        <ele>41.5</ele>
        <time>2015-08-02T12:47:09.638Z</time>
      </trkpt>
      <trkpt lat="43.26677" lon="2.70691">
        <ele>41.4</ele>
        <time>2015-08-02T12:47:10.683Z</time>
      </trkpt>
      <trkpt lat="43.26676" lon="2.70697">
        <ele>41.4</ele>
        <time>2015-08-02T12:47:11.635Z</time>
      </trkpt>
      <trkpt lat="43.26676" lon="2.70703">
        <ele>41.3</ele>
        <time>2015-08-02T12:47:12.683Z</time>
      </trkpt>
      <trkpt lat="43.26675" lon="2.7071">
        <ele>41.3</ele>
        <time>2015-08-02T12:47:13.639Z</time>
      </trkpt>
      <trkpt lat="43.26675" lon="2.70716">
        <ele>41.2</ele>
        <time>2015-08-02T12:47:14.682Z</time>
      </trkpt>
      <trkpt lat="43.26674" lon="2.70722">
        <ele>41.2</ele>
        <time>2015-08-02T12:47:15.633Z</time>
      </trkpt>
      <trkpt lat="43.26673" lon="2.70735">
        <ele>41</ele>
        <time>2015-08-02T12:47:17.675Z</time>
      </trkpt>
      <trkpt lat="43.26673" lon="2.70741">
        <ele>40.9</ele>
        <time>2015-08-02T12:47:18.640Z</time>
      </trkpt>
      <trkpt lat="43.26672" lon="2.70752">
        <ele>40.7</ele>
        <time>2015-08-02T12:47:20.681Z</time>
      </trkpt>
      <trkpt lat="43.26672" lon="2.70757">
        <ele>40.6</ele>
        <time>2015-08-02T12:47:21.644Z</time>
      </trkpt>
      <trkpt lat="43.26671" lon="2.70767">
        <ele>40.4</ele>
        <time>2015-08-02T12:47:23.673Z</time>
      </trkpt>
      <trkpt lat="43.26671" lon="2.70772">
        <ele>40.2</ele>
        <time>2015-08-02T12:47:24.644Z</time>
      </trkpt>
      <trkpt lat="43.26671" lon="2.70783">
        <ele>40.3</ele>
        <time>2015-08-02T12:47:26.696Z</time>
      </trkpt>
      <trkpt lat="43.2667" lon="2.70789">
        <ele>40.3</ele>
        <time>2015-08-02T12:47:27.635Z</time>
      </trkpt>
      <trkpt lat="43.2667" lon="2.70801">
        <ele>40.2</ele>
        <time>2015-08-02T12:47:29.711Z</time>
      </trkpt>
      <trkpt lat="43.2667" lon="2.70807">
        <ele>40.3</ele>
        <time>2015-08-02T12:47:30.656Z</time>
      </trkpt>
      <trkpt lat="43.26669" lon="2.70819">
        <ele>40.5</ele>
        <time>2015-08-02T12:47:33.056Z</time>
      </trkpt>
      <trkpt lat="43.26669" lon="2.70824">
        <ele>40.5</ele>
        <time>2015-08-02T12:47:33.635Z</time>
      </trkpt>
      <trkpt lat="43.26668" lon="2.70835">
        <ele>40.5</ele>
        <time>2015-08-02T12:47:35.676Z</time>
      </trkpt>
      <trkpt lat="43.26668" lon="2.70841">
        <ele>40.4</ele>
        <time>2015-08-02T12:47:36.631Z</time>
      </trkpt>
      <trkpt lat="43.26668" lon="2.70852">
        <ele>40.4</ele>
        <time>2015-08-02T12:47:38.681Z</time>
      </trkpt>
      <trkpt lat="43.26668" lon="2.70857">
        <ele>40.2</ele>
        <time>2015-08-02T12:47:39.634Z</time>
      </trkpt>
      <trkpt lat="43.26668" lon="2.70866">
        <ele>39.9</ele>
        <time>2015-08-02T12:47:42.018Z</time>
      </trkpt>
      <trkpt lat="43.26668" lon="2.70871">
        <ele>39.8</ele>
        <time>2015-08-02T12:47:42.636Z</time>
      </trkpt>
      <trkpt lat="43.26668" lon="2.70881">
        <ele>39.9</ele>
        <time>2015-08-02T12:47:44.680Z</time>
      </trkpt>
      <trkpt lat="43.26667" lon="2.70885">
        <ele>39.6</ele>
        <time>2015-08-02T12:47:45.635Z</time>
      </trkpt>
      <trkpt lat="43.26667" lon="2.70896">
        <ele>39.2</ele>
        <time>2015-08-02T12:47:47.693Z</time>
      </trkpt>
      <trkpt lat="43.26667" lon="2.70901">
        <ele>39.1</ele>
        <time>2015-08-02T12:47:48.644Z</time>
      </trkpt>
      <trkpt lat="43.26668" lon="2.70911">
        <ele>39</ele>
        <time>2015-08-02T12:47:50.708Z</time>
      </trkpt>
      <trkpt lat="43.26668" lon="2.70915">
        <ele>39</ele>
        <time>2015-08-02T12:47:51.644Z</time>
      </trkpt>
      <trkpt lat="43.26668" lon="2.70924">
        <ele>38.9</ele>
        <time>2015-08-02T12:47:53.673Z</time>
      </trkpt>
      <trkpt lat="43.26668" lon="2.70929">
        <ele>38.8</ele>
        <time>2015-08-02T12:47:54.637Z</time>
      </trkpt>
      <trkpt lat="43.26669" lon="2.7094">
        <ele>38.8</ele>
        <time>2015-08-02T12:47:56.680Z</time>
      </trkpt>
      <trkpt lat="43.26669" lon="2.70946">
        <ele>38.8</ele>
        <time>2015-08-02T12:47:57.633Z</time>
      </trkpt>
      <trkpt lat="43.2667" lon="2.70958">
        <ele>38.9</ele>
        <time>2015-08-02T12:47:59.714Z</time>
      </trkpt>
      <trkpt lat="43.2667" lon="2.70965">
        <ele>38.9</ele>
        <time>2015-08-02T12:48:00.656Z</time>
      </trkpt>
      <trkpt lat="43.26671" lon="2.70971">
        <ele>39</ele>
        <time>2015-08-02T12:48:01.688Z</time>
      </trkpt>
      <trkpt lat="43.26671" lon="2.70977">
        <ele>39.1</ele>
        <time>2015-08-02T12:48:02.636Z</time>
      </trkpt>
      <trkpt lat="43.26672" lon="2.70983">
        <ele>39.2</ele>
        <time>2015-08-02T12:48:03.684Z</time>
      </trkpt>
      <trkpt lat="43.26672" lon="2.7099">
        <ele>39.4</ele>
        <time>2015-08-02T12:48:04.639Z</time>
      </trkpt>
      <trkpt lat="43.26672" lon="2.70996">
        <ele>39.6</ele>
        <time>2015-08-02T12:48:05.675Z</time>
      </trkpt>
      <trkpt lat="43.26673" lon="2.71003">
        <ele>39.7</ele>
        <time>2015-08-02T12:48:06.639Z</time>
      </trkpt>
      <trkpt lat="43.26673" lon="2.71009">
        <ele>39.7</ele>
        <time>2015-08-02T12:48:07.695Z</time>
      </trkpt>
      <trkpt lat="43.26674" lon="2.71015">
        <ele>39.7</ele>
        <time>2015-08-02T12:48:08.656Z</time>
      </trkpt>
      <trkpt lat="43.26675" lon="2.71027">
        <ele>40</ele>
        <time>2015-08-02T12:48:10.681Z</time>
      </trkpt>
      <trkpt lat="43.26676" lon="2.71032">
        <ele>40</ele>
        <time>2015-08-02T12:48:11.635Z</time>
      </trkpt>
      <trkpt lat="43.26677" lon="2.71042">
        <ele>40.2</ele>
        <time>2015-08-02T12:48:13.678Z</time>
      </trkpt>
      <trkpt lat="43.26678" lon="2.71047">
        <ele>40.2</ele>
        <time>2015-08-02T12:48:14.639Z</time>
      </trkpt>
      <trkpt lat="43.26679" lon="2.71057">
        <ele>40.3</ele>
        <time>2015-08-02T12:48:16.783Z</time>
      </trkpt>
      <trkpt lat="43.2668" lon="2.71062">
        <ele>40.3</ele>
        <time>2015-08-02T12:48:17.635Z</time>
      </trkpt>
      <trkpt lat="43.26682" lon="2.71072">
        <ele>40.5</ele>
        <time>2015-08-02T12:48:19.669Z</time>
      </trkpt>
      <trkpt lat="43.26683" lon="2.71077">
        <ele>40.5</ele>
        <time>2015-08-02T12:48:20.635Z</time>
      </trkpt>
      <trkpt lat="43.26685" lon="2.71086">
        <ele>41.5</ele>
        <time>2015-08-02T12:48:22.680Z</time>
      </trkpt>
      <trkpt lat="43.26686" lon="2.71091">
        <ele>41.9</ele>
        <time>2015-08-02T12:48:23.632Z</time>
      </trkpt>
      <trkpt lat="43.26687" lon="2.71099">
        <ele>42.4</ele>
        <time>2015-08-02T12:48:25.678Z</time>
      </trkpt>
      <trkpt lat="43.26688" lon="2.71104">
        <ele>42.7</ele>
        <time>2015-08-02T12:48:26.634Z</time>
      </trkpt>
      <trkpt lat="43.2669" lon="2.71113">
        <ele>43</ele>
        <time>2015-08-02T12:48:28.683Z</time>
      </trkpt>
      <trkpt lat="43.2669" lon="2.71118">
        <ele>43</ele>
        <time>2015-08-02T12:48:29.635Z</time>
      </trkpt>
      <trkpt lat="43.26692" lon="2.71127">
        <ele>43.1</ele>
        <time>2015-08-02T12:48:31.994Z</time>
      </trkpt>
      <trkpt lat="43.26693" lon="2.71132">
        <ele>43.2</ele>
        <time>2015-08-02T12:48:32.638Z</time>
      </trkpt>
      <trkpt lat="43.26694" lon="2.71142">
        <ele>43.1</ele>
        <time>2015-08-02T12:48:34.682Z</time>
      </trkpt>
      <trkpt lat="43.26695" lon="2.71147">
        <ele>43.2</ele>
        <time>2015-08-02T12:48:35.642Z</time>
      </trkpt>
      <trkpt lat="43.26698" lon="2.71157">
        <ele>43.3</ele>
        <time>2015-08-02T12:48:37.675Z</time>
      </trkpt>
      <trkpt lat="43.26699" lon="2.71162">
        <ele>43.3</ele>
        <time>2015-08-02T12:48:38.645Z</time>
      </trkpt>
      <trkpt lat="43.26701" lon="2.71172">
        <ele>43.4</ele>
        <time>2015-08-02T12:48:40.670Z</time>
      </trkpt>
      <trkpt lat="43.26702" lon="2.71176">
        <ele>43.4</ele>
        <time>2015-08-02T12:48:41.635Z</time>
      </trkpt>
      <trkpt lat="43.26704" lon="2.71186">
        <ele>42.8</ele>
        <time>2015-08-02T12:48:43.674Z</time>
      </trkpt>
      <trkpt lat="43.26705" lon="2.71191">
        <ele>43</ele>
        <time>2015-08-02T12:48:44.639Z</time>
      </trkpt>
      <trkpt lat="43.26708" lon="2.712">
        <ele>43.5</ele>
        <time>2015-08-02T12:48:46.769Z</time>
      </trkpt>
      <trkpt lat="43.26709" lon="2.71205">
        <ele>43.6</ele>
        <time>2015-08-02T12:48:47.636Z</time>
      </trkpt>
      <trkpt lat="43.26711" lon="2.71215">
        <ele>44.1</ele>
        <time>2015-08-02T12:48:49.674Z</time>
      </trkpt>
      <trkpt lat="43.26712" lon="2.7122">
        <ele>44.2</ele>
        <time>2015-08-02T12:48:50.770Z</time>
      </trkpt>
      <trkpt lat="43.26714" lon="2.7123">
        <ele>44.2</ele>
        <time>2015-08-02T12:48:52.666Z</time>
      </trkpt>
      <trkpt lat="43.26716" lon="2.71235">
        <ele>44.1</ele>
        <time>2015-08-02T12:48:53.634Z</time>
      </trkpt>
      <trkpt lat="43.26718" lon="2.71244">
        <ele>44.4</ele>
        <time>2015-08-02T12:48:55.667Z</time>
      </trkpt>
      <trkpt lat="43.26719" lon="2.71248">
        <ele>44.4</ele>
        <time>2015-08-02T12:48:56.635Z</time>
      </trkpt>
      <trkpt lat="43.26721" lon="2.7126">
        <ele>43.9</ele>
        <time>2015-08-02T12:48:59.671Z</time>
      </trkpt>
      <trkpt lat="43.26722" lon="2.71264">
        <ele>43.8</ele>
        <time>2015-08-02T12:49:00.638Z</time>
      </trkpt>
      <trkpt lat="43.26724" lon="2.71276">
        <ele>42.6</ele>
        <time>2015-08-02T12:49:03.686Z</time>
      </trkpt>
      <trkpt lat="43.26724" lon="2.71279">
        <ele>42.3</ele>
        <time>2015-08-02T12:49:04.675Z</time>
      </trkpt>
      <trkpt lat="43.26726" lon="2.71291">
        <ele>42</ele>
        <time>2015-08-02T12:49:07.676Z</time>
      </trkpt>
      <trkpt lat="43.26728" lon="2.71294">
        <ele>42.3</ele>
        <time>2015-08-02T12:49:08.637Z</time>
      </trkpt>
      <trkpt lat="43.2673" lon="2.71305">
        <ele>42.4</ele>
        <time>2015-08-02T12:49:12.075Z</time>
      </trkpt>
      <trkpt lat="43.26731" lon="2.7131">
        <ele>42.4</ele>
        <time>2015-08-02T12:49:12.642Z</time>
      </trkpt>
      <trkpt lat="43.26731" lon="2.71319">
        <ele>41.9</ele>
        <time>2015-08-02T12:49:14.666Z</time>
      </trkpt>
      <trkpt lat="43.26731" lon="2.71323">
        <ele>41.8</ele>
        <time>2015-08-02T12:49:15.633Z</time>
      </trkpt>
      <trkpt lat="43.26732" lon="2.71331">
        <ele>41.6</ele>
        <time>2015-08-02T12:49:17.665Z</time>
      </trkpt>
      <trkpt lat="43.26733" lon="2.71335">
        <ele>41.3</ele>
        <time>2015-08-02T12:49:18.632Z</time>
      </trkpt>
      <trkpt lat="43.26736" lon="2.71343">
        <ele>42.1</ele>
        <time>2015-08-02T12:49:20.687Z</time>
      </trkpt>
      <trkpt lat="43.26739" lon="2.71348">
        <ele>42.7</ele>
        <time>2015-08-02T12:49:21.635Z</time>
      </trkpt>
      <trkpt lat="43.26742" lon="2.71356">
        <ele>43.6</ele>
        <time>2015-08-02T12:49:23.673Z</time>
      </trkpt>
      <trkpt lat="43.26743" lon="2.71361">
        <ele>43.7</ele>
        <time>2015-08-02T12:49:24.637Z</time>
      </trkpt>
      <trkpt lat="43.26745" lon="2.7137">
        <ele>44.3</ele>
        <time>2015-08-02T12:49:26.758Z</time>
      </trkpt>
      <trkpt lat="43.26746" lon="2.71374">
        <ele>44.7</ele>
        <time>2015-08-02T12:49:27.637Z</time>
      </trkpt>
      <trkpt lat="43.26749" lon="2.71384">
        <ele>45.4</ele>
        <time>2015-08-02T12:49:30.682Z</time>
      </trkpt>
      <trkpt lat="43.2675" lon="2.71388">
        <ele>45.4</ele>
        <time>2015-08-02T12:49:31.639Z</time>
      </trkpt>
      <trkpt lat="43.26751" lon="2.71397">
        <ele>48</ele>
        <time>2015-08-02T12:49:37.676Z</time>
      </trkpt>
      <trkpt lat="43.26751" lon="2.714">
        <ele>47.8</ele>
        <time>2015-08-02T12:49:38.633Z</time>
      </trkpt>
      <trkpt lat="43.26753" lon="2.7141">
        <ele>47.1</ele>
        <time>2015-08-02T12:49:42.682Z</time>
      </trkpt>
      <trkpt lat="43.26753" lon="2.71413">
        <ele>47</ele>
        <time>2015-08-02T12:49:43.637Z</time>
      </trkpt>
      <trkpt lat="43.26755" lon="2.71422">
        <ele>46</ele>
        <time>2015-08-02T12:49:46.680Z</time>
      </trkpt>
      <trkpt lat="43.26755" lon="2.71426">
        <ele>45.8</ele>
        <time>2015-08-02T12:49:47.632Z</time>
      </trkpt>
      <trkpt lat="43.26757" lon="2.71433">
        <ele>45.3</ele>
        <time>2015-08-02T12:49:49.666Z</time>
      </trkpt>
      <trkpt lat="43.26758" lon="2.71437">
        <ele>45.3</ele>
        <time>2015-08-02T12:49:50.635Z</time>
      </trkpt>
      <trkpt lat="43.2676" lon="2.71446">
        <ele>45.5</ele>
        <time>2015-08-02T12:49:52.672Z</time>
      </trkpt>
      <trkpt lat="43.26761" lon="2.7145">
        <ele>45.6</ele>
        <time>2015-08-02T12:49:53.633Z</time>
      </trkpt>
      <trkpt lat="43.26763" lon="2.71459">
        <ele>46.2</ele>
        <time>2015-08-02T12:49:55.676Z</time>
      </trkpt>
      <trkpt lat="43.26765" lon="2.71463">
        <ele>46.9</ele>
        <time>2015-08-02T12:49:56.640Z</time>
      </trkpt>
      <trkpt lat="43.26767" lon="2.71472">
        <ele>47.3</ele>
        <time>2015-08-02T12:49:58.682Z</time>
      </trkpt>
      <trkpt lat="43.26769" lon="2.71476">
        <ele>48.2</ele>
        <time>2015-08-02T12:49:59.635Z</time>
      </trkpt>
      <trkpt lat="43.2677" lon="2.71484">
        <ele>48.5</ele>
        <time>2015-08-02T12:50:02.015Z</time>
      </trkpt>
      <trkpt lat="43.26771" lon="2.71488">
        <ele>48.4</ele>
        <time>2015-08-02T12:50:02.637Z</time>
      </trkpt>
      <trkpt lat="43.26773" lon="2.71497">
        <ele>48.2</ele>
        <time>2015-08-02T12:50:04.687Z</time>
      </trkpt>
      <trkpt lat="43.26774" lon="2.71501">
        <ele>48</ele>
        <time>2015-08-02T12:50:05.645Z</time>
      </trkpt>
      <trkpt lat="43.26776" lon="2.7151">
        <ele>47.7</ele>
        <time>2015-08-02T12:50:08.027Z</time>
      </trkpt>
      <trkpt lat="43.26776" lon="2.71515">
        <ele>47.7</ele>
        <time>2015-08-02T12:50:08.637Z</time>
      </trkpt>
      <trkpt lat="43.26779" lon="2.71524">
        <ele>47.4</ele>
        <time>2015-08-02T12:50:10.676Z</time>
      </trkpt>
      <trkpt lat="43.26781" lon="2.71528">
        <ele>47.3</ele>
        <time>2015-08-02T12:50:11.633Z</time>
      </trkpt>
      <trkpt lat="43.26784" lon="2.71538">
        <ele>47</ele>
        <time>2015-08-02T12:50:13.713Z</time>
      </trkpt>
      <trkpt lat="43.26784" lon="2.71543">
        <ele>46.6</ele>
        <time>2015-08-02T12:50:14.635Z</time>
      </trkpt>
      <trkpt lat="43.26785" lon="2.71554">
        <ele>46.2</ele>
        <time>2015-08-02T12:50:16.677Z</time>
      </trkpt>
      <trkpt lat="43.26786" lon="2.71559">
        <ele>46.4</ele>
        <time>2015-08-02T12:50:17.633Z</time>
      </trkpt>
      <trkpt lat="43.26789" lon="2.7157">
        <ele>47.2</ele>
        <time>2015-08-02T12:50:19.667Z</time>
      </trkpt>
      <trkpt lat="43.2679" lon="2.71575">
        <ele>47.2</ele>
        <time>2015-08-02T12:50:20.658Z</time>
      </trkpt>
      <trkpt lat="43.26792" lon="2.71585">
        <ele>47.2</ele>
        <time>2015-08-02T12:50:22.675Z</time>
      </trkpt>
      <trkpt lat="43.26793" lon="2.7159">
        <ele>47.2</ele>
        <time>2015-08-02T12:50:23.638Z</time>
      </trkpt>
      <trkpt lat="43.26794" lon="2.716">
        <ele>47.2</ele>
        <time>2015-08-02T12:50:25.676Z</time>
      </trkpt>
      <trkpt lat="43.26794" lon="2.71604">
        <ele>47</ele>
        <time>2015-08-02T12:50:26.634Z</time>
      </trkpt>
      <trkpt lat="43.26796" lon="2.71613">
        <ele>46.7</ele>
        <time>2015-08-02T12:50:28.734Z</time>
      </trkpt>
      <trkpt lat="43.26797" lon="2.71616">
        <ele>46.7</ele>
        <time>2015-08-02T12:50:29.632Z</time>
      </trkpt>
      <trkpt lat="43.26801" lon="2.71627">
        <ele>46.6</ele>
        <time>2015-08-02T12:50:32.670Z</time>
      </trkpt>
      <trkpt lat="43.26802" lon="2.7163">
        <ele>46.6</ele>
        <time>2015-08-02T12:50:33.635Z</time>
      </trkpt>
      <trkpt lat="43.26805" lon="2.71638">
        <ele>46.4</ele>
        <time>2015-08-02T12:50:36.713Z</time>
      </trkpt>
      <trkpt lat="43.26805" lon="2.71642">
        <ele>46.4</ele>
        <time>2015-08-02T12:50:37.647Z</time>
      </trkpt>
      <trkpt lat="43.26806" lon="2.7165">
        <ele>46</ele>
        <time>2015-08-02T12:50:40.673Z</time>
      </trkpt>
      <trkpt lat="43.26806" lon="2.71654">
        <ele>45.9</ele>
        <time>2015-08-02T12:50:41.632Z</time>
      </trkpt>
      <trkpt lat="43.26809" lon="2.71664">
        <ele>45.9</ele>
        <time>2015-08-02T12:50:44.665Z</time>
      </trkpt>
      <trkpt lat="43.2681" lon="2.71667">
        <ele>45.9</ele>
        <time>2015-08-02T12:50:45.634Z</time>
      </trkpt>
      <trkpt lat="43.26811" lon="2.71676">
        <ele>46.2</ele>
        <time>2015-08-02T12:50:48.677Z</time>
      </trkpt>
      <trkpt lat="43.26812" lon="2.71679">
        <ele>46.1</ele>
        <time>2015-08-02T12:50:49.637Z</time>
      </trkpt>
      <trkpt lat="43.26813" lon="2.7169">
        <ele>45.8</ele>
        <time>2015-08-02T12:50:52.675Z</time>
      </trkpt>
      <trkpt lat="43.26813" lon="2.71693">
        <ele>45.8</ele>
        <time>2015-08-02T12:50:53.631Z</time>
      </trkpt>
      <trkpt lat="43.26815" lon="2.71704">
        <ele>45.9</ele>
        <time>2015-08-02T12:50:57.673Z</time>
      </trkpt>
      <trkpt lat="43.26815" lon="2.71708">
        <ele>45.9</ele>
        <time>2015-08-02T12:50:58.632Z</time>
      </trkpt>
      <trkpt lat="43.26814" lon="2.71717">
        <ele>45.5</ele>
        <time>2015-08-02T12:51:01.677Z</time>
      </trkpt>
      <trkpt lat="43.26814" lon="2.71721">
        <ele>44.8</ele>
        <time>2015-08-02T12:51:02.653Z</time>
      </trkpt>
      <trkpt lat="43.26815" lon="2.71732">
        <ele>42.9</ele>
        <time>2015-08-02T12:51:06.672Z</time>
      </trkpt>
      <trkpt lat="43.26815" lon="2.71736">
        <ele>42.5</ele>
        <time>2015-08-02T12:51:07.634Z</time>
      </trkpt>
      <trkpt lat="43.26816" lon="2.71745">
        <ele>42.5</ele>
        <time>2015-08-02T12:51:10.713Z</time>
      </trkpt>
      <trkpt lat="43.26817" lon="2.71749">
        <ele>42.5</ele>
        <time>2015-08-02T12:51:11.644Z</time>
      </trkpt>
      <trkpt lat="43.26818" lon="2.71758">
        <ele>41.7</ele>
        <time>2015-08-02T12:51:14.682Z</time>
      </trkpt>
      <trkpt lat="43.26819" lon="2.71762">
        <ele>41.7</ele>
        <time>2015-08-02T12:51:15.636Z</time>
      </trkpt>
      <trkpt lat="43.26822" lon="2.71772">
        <ele>40.6</ele>
        <time>2015-08-02T12:51:19.673Z</time>
      </trkpt>
      <trkpt lat="43.26823" lon="2.71774">
        <ele>40.4</ele>
        <time>2015-08-02T12:51:20.638Z</time>
      </trkpt>
      <trkpt lat="43.26827" lon="2.71777">
        <ele>40.6</ele>
        <time>2015-08-02T12:51:23.675Z</time>
      </trkpt>
      <trkpt lat="43.26829" lon="2.71777">
        <ele>41.1</ele>
        <time>2015-08-02T12:51:24.636Z</time>
      </trkpt>
      <trkpt lat="43.2683" lon="2.71777">
        <ele>42.2</ele>
        <time>2015-08-02T12:51:40.696Z</time>
      </trkpt>
      <trkpt lat="43.26832" lon="2.7178">
        <ele>43.4</ele>
        <time>2015-08-02T12:51:41.658Z</time>
      </trkpt>
      <trkpt lat="43.26829" lon="2.71791">
        <ele>42.7</ele>
        <time>2015-08-02T12:51:47.694Z</time>
      </trkpt>
      <trkpt lat="43.26829" lon="2.71794">
        <ele>42.3</ele>
        <time>2015-08-02T12:51:48.631Z</time>
      </trkpt>
      <trkpt lat="43.26831" lon="2.71806">
        <ele>40.6</ele>
        <time>2015-08-02T12:51:51.714Z</time>
      </trkpt>
      <trkpt lat="43.26831" lon="2.7181">
        <ele>40.1</ele>
        <time>2015-08-02T12:51:52.644Z</time>
      </trkpt>
      <trkpt lat="43.26833" lon="2.71818">
        <ele>39.9</ele>
        <time>2015-08-02T12:51:54.680Z</time>
      </trkpt>
      <trkpt lat="43.26833" lon="2.71822">
        <ele>40</ele>
        <time>2015-08-02T12:51:55.640Z</time>
      </trkpt>
      <trkpt lat="43.26833" lon="2.71831">
        <ele>39.2</ele>
        <time>2015-08-02T12:51:57.684Z</time>
      </trkpt>
      <trkpt lat="43.26834" lon="2.71835">
        <ele>38.4</ele>
        <time>2015-08-02T12:51:58.634Z</time>
      </trkpt>
      <trkpt lat="43.26835" lon="2.71844">
        <ele>37.6</ele>
        <time>2015-08-02T12:52:00.679Z</time>
      </trkpt>
      <trkpt lat="43.26836" lon="2.71848">
        <ele>37.1</ele>
        <time>2015-08-02T12:52:01.638Z</time>
      </trkpt>
      <trkpt lat="43.26836" lon="2.71858">
        <ele>36.4</ele>
        <time>2015-08-02T12:52:03.688Z</time>
      </trkpt>
      <trkpt lat="43.26836" lon="2.71862">
        <ele>36.4</ele>
        <time>2015-08-02T12:52:04.631Z</time>
      </trkpt>
      <trkpt lat="43.26837" lon="2.71872">
        <ele>35.5</ele>
        <time>2015-08-02T12:52:06.686Z</time>
      </trkpt>
      <trkpt lat="43.26837" lon="2.71877">
        <ele>35.1</ele>
        <time>2015-08-02T12:52:07.637Z</time>
      </trkpt>
      <trkpt lat="43.26837" lon="2.71886">
        <ele>33.9</ele>
        <time>2015-08-02T12:52:09.693Z</time>
      </trkpt>
      <trkpt lat="43.26838" lon="2.71891">
        <ele>34.7</ele>
        <time>2015-08-02T12:52:10.637Z</time>
      </trkpt>
      <trkpt lat="43.26839" lon="2.71901">
        <ele>37.1</ele>
        <time>2015-08-02T12:52:12.683Z</time>
      </trkpt>
      <trkpt lat="43.26841" lon="2.71906">
        <ele>38.4</ele>
        <time>2015-08-02T12:52:13.645Z</time>
      </trkpt>
      <trkpt lat="43.26842" lon="2.71916">
        <ele>38.7</ele>
        <time>2015-08-02T12:52:15.700Z</time>
      </trkpt>
      <trkpt lat="43.26844" lon="2.71921">
        <ele>39.1</ele>
        <time>2015-08-02T12:52:16.634Z</time>
      </trkpt>
      <trkpt lat="43.26846" lon="2.7193">
        <ele>39.9</ele>
        <time>2015-08-02T12:52:18.683Z</time>
      </trkpt>
      <trkpt lat="43.26847" lon="2.71934">
        <ele>39.8</ele>
        <time>2015-08-02T12:52:19.647Z</time>
      </trkpt>
      <trkpt lat="43.26848" lon="2.71943">
        <ele>39.8</ele>
        <time>2015-08-02T12:52:22.683Z</time>
      </trkpt>
      <trkpt lat="43.26849" lon="2.71947">
        <ele>39.7</ele>
        <time>2015-08-02T12:52:23.636Z</time>
      </trkpt>
      <trkpt lat="43.26849" lon="2.71954">
        <ele>39.7</ele>
        <time>2015-08-02T12:52:25.692Z</time>
      </trkpt>
      <trkpt lat="43.2685" lon="2.71959">
        <ele>39.8</ele>
        <time>2015-08-02T12:52:26.644Z</time>
      </trkpt>
      <trkpt lat="43.26851" lon="2.71968">
        <ele>39.8</ele>
        <time>2015-08-02T12:52:28.681Z</time>
      </trkpt>
      <trkpt lat="43.26851" lon="2.71973">
        <ele>39.9</ele>
        <time>2015-08-02T12:52:29.638Z</time>
      </trkpt>
      <trkpt lat="43.26854" lon="2.71981">
        <ele>39.4</ele>
        <time>2015-08-02T12:52:31.689Z</time>
      </trkpt>
      <trkpt lat="43.26855" lon="2.71985">
        <ele>39.4</ele>
        <time>2015-08-02T12:52:32.632Z</time>
      </trkpt>
      <trkpt lat="43.26858" lon="2.71993">
        <ele>39.8</ele>
        <time>2015-08-02T12:52:34.687Z</time>
      </trkpt>
      <trkpt lat="43.26861" lon="2.71994">
        <ele>40.6</ele>
        <time>2015-08-02T12:52:35.633Z</time>
      </trkpt>
      <trkpt lat="43.26869" lon="2.71993">
        <ele>41</ele>
        <time>2015-08-02T12:52:37.678Z</time>
      </trkpt>
      <trkpt lat="43.26872" lon="2.71993">
        <ele>41.4</ele>
        <time>2015-08-02T12:52:38.635Z</time>
      </trkpt>
      <trkpt lat="43.26877" lon="2.71998">
        <ele>42.7</ele>
        <time>2015-08-02T12:52:41.687Z</time>
      </trkpt>
      <trkpt lat="43.26879" lon="2.72">
        <ele>43.1</ele>
        <time>2015-08-02T12:52:42.634Z</time>
      </trkpt>
      <trkpt lat="43.26887" lon="2.72003">
        <ele>44.4</ele>
        <time>2015-08-02T12:52:45.690Z</time>
      </trkpt>
      <trkpt lat="43.26889" lon="2.72005">
        <ele>44.5</ele>
        <time>2015-08-02T12:52:46.635Z</time>
      </trkpt>
      <trkpt lat="43.26893" lon="2.72013">
        <ele>45.5</ele>
        <time>2015-08-02T12:52:50.814Z</time>
      </trkpt>
      <trkpt lat="43.26893" lon="2.72016">
        <ele>45.6</ele>
        <time>2015-08-02T12:52:51.638Z</time>
      </trkpt>
      <trkpt lat="43.26891" lon="2.72025">
        <ele>44.9</ele>
        <time>2015-08-02T12:52:55.676Z</time>
      </trkpt>
      <trkpt lat="43.26891" lon="2.72029">
        <ele>44.7</ele>
        <time>2015-08-02T12:52:56.634Z</time>
      </trkpt>
      <trkpt lat="43.26892" lon="2.72041">
        <ele>44.4</ele>
        <time>2015-08-02T12:52:59.674Z</time>
      </trkpt>
      <trkpt lat="43.26892" lon="2.72045">
        <ele>44.2</ele>
        <time>2015-08-02T12:53:00.634Z</time>
      </trkpt>
      <trkpt lat="43.2689" lon="2.72056">
        <ele>43.9</ele>
        <time>2015-08-02T12:53:03.700Z</time>
      </trkpt>
      <trkpt lat="43.26889" lon="2.7206">
        <ele>44.1</ele>
        <time>2015-08-02T12:53:04.644Z</time>
      </trkpt>
      <trkpt lat="43.2689" lon="2.72072">
        <ele>43.5</ele>
        <time>2015-08-02T12:53:07.681Z</time>
      </trkpt>
      <trkpt lat="43.2689" lon="2.72075">
        <ele>43.7</ele>
        <time>2015-08-02T12:53:08.633Z</time>
      </trkpt>
      <trkpt lat="43.2689" lon="2.72088">
        <ele>43.9</ele>
        <time>2015-08-02T12:53:12.687Z</time>
      </trkpt>
      <trkpt lat="43.2689" lon="2.7209">
        <ele>43.8</ele>
        <time>2015-08-02T12:53:13.641Z</time>
      </trkpt>
      <trkpt lat="43.2689" lon="2.72092">
        <ele>43.8</ele>
        <time>2015-08-02T12:53:14.683Z</time>
      </trkpt>
      <trkpt lat="43.26891" lon="2.72093">
        <ele>43.8</ele>
        <time>2015-08-02T12:53:15.640Z</time>
      </trkpt>
      <trkpt lat="43.26891" lon="2.72093">
        <ele>44</ele>
        <time>2015-08-02T12:55:18.809Z</time>
      </trkpt>
    </trkseg>
  </trk>
</gpx>